<?xml version='1.0' encoding='UTF-8'?><gpx version="1.1" creator="JPX - https://github.com/jenetics/jpx" xmlns="http://www.topografix.com/GPX/1/1"><trk><trkseg><trkpt lat="39.098304701649376" lon="16.080507650371707"><ele>3.0</ele><time>2026-05-01T11:43:35Z</time></trkpt><trkpt lat="39.09827568807914" lon="16.08061385347369"><ele>3.0</ele><time>2026-05-01T11:43:36Z</time></trkpt><trkpt lat="39.09824113729534" lon="16.08072504515945"><ele>3.0</ele><time>2026-05-01T11:43:37Z</time></trkpt><trkpt lat="39.09819892132998" lon="16.080843438366497"><ele>3.0</ele><time>2026-05-01T11:43:38Z</time></trkpt><trkpt lat="39.09766570278837" lon="16.080342228872677"><ele>3.333333333333333</ele><time>2026-05-01T11:43:39Z</time></trkpt><trkpt lat="39.09751552741934" lon="16.080369170906536"><ele>3.6666666666666665</ele><time>2026-05-01T11:43:40Z</time></trkpt><trkpt lat="39.097356843371834" lon="16.080394926594337"><ele>4.0</ele><time>2026-05-01T11:43:41Z</time></trkpt><trkpt lat="39.09719451983978" lon="16.080424372880135"><ele>2.6666666666666665</ele><time>2026-05-01T11:43:42Z</time></trkpt><trkpt lat="39.09702174748444" lon="16.080465946299064"><ele>1.3333333333333333</ele><time>2026-05-01T11:43:43Z</time></trkpt><trkpt lat="39.09684508373893" lon="16.080536376447508"><ele>0.0</ele><time>2026-05-01T11:43:44Z</time></trkpt><trkpt lat="39.09666735855388" lon="16.080634542130646"><ele>0.0</ele><time>2026-05-01T11:43:45Z</time></trkpt><trkpt lat="39.09650033376675" lon="16.080746702743465"><ele>0.0</ele><time>2026-05-01T11:43:46Z</time></trkpt><trkpt lat="39.09633184425747" lon="16.080884019556432"><ele>0.0</ele><time>2026-05-01T11:43:47Z</time></trkpt><trkpt lat="39.096175457905936" lon="16.081046508101373"><ele>0.0</ele><time>2026-05-01T11:43:48Z</time></trkpt><trkpt lat="39.09602783144232" lon="16.081230803274497"><ele>0.0</ele><time>2026-05-01T11:43:49Z</time></trkpt><trkpt lat="39.09587772550217" lon="16.081407979016706"><ele>0.0</ele><time>2026-05-01T11:43:50Z</time></trkpt><trkpt lat="39.09572734635999" lon="16.08158933533485"><ele>2.6666666666666665</ele><time>2026-05-01T11:43:51Z</time></trkpt><trkpt lat="39.09562173383075" lon="16.08183319588672"><ele>5.333333333333333</ele><time>2026-05-01T11:43:52Z</time></trkpt><trkpt lat="39.09550444940437" lon="16.082066878519093"><ele>8.0</ele><time>2026-05-01T11:43:53Z</time></trkpt><trkpt lat="39.095401242130905" lon="16.082319457496173"><ele>9.333333333333332</ele><time>2026-05-01T11:43:54Z</time></trkpt><trkpt lat="39.09528953635774" lon="16.082575614065036"><ele>10.666666666666666</ele><time>2026-05-01T11:43:55Z</time></trkpt><trkpt lat="39.09517341924156" lon="16.082818608753055"><ele>12.0</ele><time>2026-05-01T11:43:56Z</time></trkpt><trkpt lat="39.09505407484879" lon="16.083061647515805"><ele>12.333333333333332</ele><time>2026-05-01T11:43:57Z</time></trkpt><trkpt lat="39.09493701366154" lon="16.083302733502688"><ele>12.666666666666666</ele><time>2026-05-01T11:43:58Z</time></trkpt><trkpt lat="39.094822002066664" lon="16.0835434944396"><ele>13.0</ele><time>2026-05-01T11:43:59Z</time></trkpt><trkpt lat="39.09470448919133" lon="16.083782780243606"><ele>12.333333333333332</ele><time>2026-05-01T11:44:00Z</time></trkpt><trkpt lat="39.09459228074046" lon="16.084018751960453"><ele>11.666666666666666</ele><time>2026-05-01T11:44:01Z</time></trkpt><trkpt lat="39.09446564217678" lon="16.084244417881354"><ele>11.0</ele><time>2026-05-01T11:44:02Z</time></trkpt><trkpt lat="39.094322578722085" lon="16.08445018451608"><ele>11.0</ele><time>2026-05-01T11:44:03Z</time></trkpt><trkpt lat="39.094163869263575" lon="16.084643154490244"><ele>11.0</ele><time>2026-05-01T11:44:04Z</time></trkpt><trkpt lat="39.093998802760446" lon="16.08481753326984"><ele>11.0</ele><time>2026-05-01T11:44:05Z</time></trkpt><trkpt lat="39.0938130352471" lon="16.08493470354115"><ele>11.333333333333332</ele><time>2026-05-01T11:44:06Z</time></trkpt><trkpt lat="39.09360880481764" lon="16.085005425258508"><ele>11.666666666666666</ele><time>2026-05-01T11:44:07Z</time></trkpt><trkpt lat="39.093448815005964" lon="16.085101485328185"><ele>12.0</ele><time>2026-05-01T11:44:08Z</time></trkpt><trkpt lat="39.09324677206869" lon="16.08512950208714"><ele>11.0</ele><time>2026-05-01T11:44:09Z</time></trkpt><trkpt lat="39.09304154890767" lon="16.085167841627328"><ele>10.0</ele><time>2026-05-01T11:44:10Z</time></trkpt><trkpt lat="39.09283142115329" lon="16.085220168384346"><ele>9.0</ele><time>2026-05-01T11:44:11Z</time></trkpt><trkpt lat="39.092607242390415" lon="16.08527707426741"><ele>8.5</ele><time>2026-05-01T11:44:12Z</time></trkpt><trkpt lat="39.092376299444815" lon="16.085333093251243"><ele>8.0</ele><time>2026-05-01T11:44:13Z</time></trkpt><trkpt lat="39.09213563977041" lon="16.0853662007366"><ele>8.0</ele><time>2026-05-01T11:44:14Z</time></trkpt><trkpt lat="39.091887774780936" lon="16.085383719392997"><ele>8.0</ele><time>2026-05-01T11:44:15Z</time></trkpt><trkpt lat="39.091641729228876" lon="16.085358001069597"><ele>7.5</ele><time>2026-05-01T11:44:16Z</time></trkpt><trkpt lat="39.09138914743864" lon="16.08536004544285"><ele>7.0</ele><time>2026-05-01T11:44:16.999Z</time></trkpt><trkpt lat="39.09114247479483" lon="16.085346019339983"><ele>7.0</ele><time>2026-05-01T11:44:17.999Z</time></trkpt><trkpt lat="39.09089266400075" lon="16.085321310529412"><ele>7.0</ele><time>2026-05-01T11:44:18.999Z</time></trkpt><trkpt lat="39.090636790803515" lon="16.085303264640146"><ele>6.5</ele><time>2026-05-01T11:44:19.999Z</time></trkpt><trkpt lat="39.09038602718936" lon="16.085298020053663"><ele>6.0</ele><time>2026-05-01T11:44:20.999Z</time></trkpt><trkpt lat="39.09013923323914" lon="16.08530340088416"><ele>5.5</ele><time>2026-05-01T11:44:21.999Z</time></trkpt><trkpt lat="39.08989760492969" lon="16.085342313285683"><ele>5.0</ele><time>2026-05-01T11:44:22.999Z</time></trkpt><trkpt lat="39.08966032761925" lon="16.08540822328637"><ele>5.0</ele><time>2026-05-01T11:44:23.999Z</time></trkpt><trkpt lat="39.08942559338919" lon="16.0854762232947"><ele>5.0</ele><time>2026-05-01T11:44:24.999Z</time></trkpt><trkpt lat="39.08920644606209" lon="16.085535355952455"><ele>4.666666666666667</ele><time>2026-05-01T11:44:25.999Z</time></trkpt><trkpt lat="39.08899996276361" lon="16.08559380853993"><ele>4.333333333333333</ele><time>2026-05-01T11:44:26.999Z</time></trkpt><trkpt lat="39.08881573025279" lon="16.0856456860199"><ele>4.0</ele><time>2026-05-01T11:44:27.999Z</time></trkpt><trkpt lat="39.08862959051607" lon="16.085689200510057"><ele>4.0</ele><time>2026-05-01T11:44:28.999Z</time></trkpt><trkpt lat="39.08845947238834" lon="16.085736964221784"><ele>4.0</ele><time>2026-05-01T11:44:29.999Z</time></trkpt><trkpt lat="39.08830752560541" lon="16.085787189325174"><ele>4.0</ele><time>2026-05-01T11:44:30.999Z</time></trkpt><trkpt lat="39.088179541347436" lon="16.085801016179918"><ele>4.800000000000001</ele><time>2026-05-01T11:44:31.999Z</time></trkpt><trkpt lat="39.08807443313414" lon="16.085868551251814"><ele>5.6000000000000005</ele><time>2026-05-01T11:44:32.999Z</time></trkpt><trkpt lat="39.08800267622119" lon="16.085908545239747"><ele>6.4</ele><time>2026-05-01T11:44:33.999Z</time></trkpt><trkpt lat="39.08794751777351" lon="16.086060739879006"><ele>7.2</ele><time>2026-05-01T11:44:35.999Z</time></trkpt><trkpt lat="39.08791833827297" lon="16.086174228736898"><ele>8.0</ele><time>2026-05-01T11:44:36.999Z</time></trkpt><trkpt lat="39.087868117468034" lon="16.086288046176804"><ele>8.0</ele><time>2026-05-01T11:44:37.999Z</time></trkpt><trkpt lat="39.087797799375934" lon="16.086396156902616"><ele>8.0</ele><time>2026-05-01T11:44:38.999Z</time></trkpt><trkpt lat="39.08771411725469" lon="16.08649843830894"><ele>8.0</ele><time>2026-05-01T11:44:39.999Z</time></trkpt><trkpt lat="39.08763574468777" lon="16.086590097604663"><ele>8.0</ele><time>2026-05-01T11:44:40.999Z</time></trkpt><trkpt lat="39.087563367746554" lon="16.086669415121786"><ele>8.0</ele><time>2026-05-01T11:44:41.999Z</time></trkpt><trkpt lat="39.087500325210925" lon="16.086728679600146"><ele>7.833333333333333</ele><time>2026-05-01T11:44:42.999Z</time></trkpt><trkpt lat="39.08744335352762" lon="16.086772674970437"><ele>7.666666666666666</ele><time>2026-05-01T11:44:43.999Z</time></trkpt><trkpt lat="39.08734380225708" lon="16.086805244570527"><ele>7.5</ele><time>2026-05-01T11:44:45.999Z</time></trkpt><trkpt lat="39.08727566364165" lon="16.08677909424556"><ele>7.333333333333334</ele><time>2026-05-01T11:44:46.999Z</time></trkpt><trkpt lat="39.08720872166742" lon="16.08672839481541"><ele>7.166666666666667</ele><time>2026-05-01T11:44:47.999Z</time></trkpt><trkpt lat="39.08714040122457" lon="16.086680273626733"><ele>7.0</ele><time>2026-05-01T11:44:48.999Z</time></trkpt><trkpt lat="39.087061942501144" lon="16.086655238113206"><ele>7.0</ele><time>2026-05-01T11:44:49.999Z</time></trkpt><trkpt lat="39.08698715605866" lon="16.0866503019429"><ele>6.999999999999999</ele><time>2026-05-01T11:44:50.999Z</time></trkpt><trkpt lat="39.0869248224214" lon="16.08666471712587"><ele>6.999999999999999</ele><time>2026-05-01T11:44:51.999Z</time></trkpt><trkpt lat="39.086818526712136" lon="16.086774427586327"><ele>7.0</ele><time>2026-05-01T11:44:53.999Z</time></trkpt><trkpt lat="39.0867455773324" lon="16.086850800945413"><ele>7.0</ele><time>2026-05-01T11:44:54.999Z</time></trkpt><trkpt lat="39.086664443424404" lon="16.08693234821283"><ele>6.6</ele><time>2026-05-01T11:44:55.999Z</time></trkpt><trkpt lat="39.086578672038854" lon="16.087014791259467"><ele>6.199999999999999</ele><time>2026-05-01T11:44:56.999Z</time></trkpt><trkpt lat="39.08648959326246" lon="16.087095466758644"><ele>5.8</ele><time>2026-05-01T11:44:57.999Z</time></trkpt><trkpt lat="39.08639659320503" lon="16.08718621860422"><ele>5.4</ele><time>2026-05-01T11:44:58.999Z</time></trkpt><trkpt lat="39.086304450768594" lon="16.0872679831405"><ele>5.0</ele><time>2026-05-01T11:44:59.999Z</time></trkpt><trkpt lat="39.08621269152593" lon="16.08733681448037"><ele>5.0</ele><time>2026-05-01T11:45:00.999Z</time></trkpt><trkpt lat="39.086114113903896" lon="16.087390026281824"><ele>5.0</ele><time>2026-05-01T11:45:01.999Z</time></trkpt><trkpt lat="39.08600677732312" lon="16.087424609460715"><ele>5.0</ele><time>2026-05-01T11:45:02.999Z</time></trkpt><trkpt lat="39.08589644792057" lon="16.087455609830574"><ele>5.0</ele><time>2026-05-01T11:45:03.999Z</time></trkpt><trkpt lat="39.085782508822035" lon="16.087484249783017"><ele>5.0</ele><time>2026-05-01T11:45:04.999Z</time></trkpt><trkpt lat="39.08566053628412" lon="16.087509632406586"><ele>5.5</ele><time>2026-05-01T11:45:05.999Z</time></trkpt><trkpt lat="39.08553887759507" lon="16.087536606447284"><ele>6.0</ele><time>2026-05-01T11:45:06.999Z</time></trkpt><trkpt lat="39.08542262383601" lon="16.087569468590548"><ele>6.5</ele><time>2026-05-01T11:45:07.999Z</time></trkpt><trkpt lat="39.08529640448808" lon="16.087598838404464"><ele>7.0</ele><time>2026-05-01T11:45:08.999Z</time></trkpt><trkpt lat="39.08517424990464" lon="16.087620401365474"><ele>7.0</ele><time>2026-05-01T11:45:09.999Z</time></trkpt><trkpt lat="39.08504320458386" lon="16.08764276666089"><ele>7.0</ele><time>2026-05-01T11:45:10.999Z</time></trkpt><trkpt lat="39.08492042999729" lon="16.087674551374104"><ele>7.0</ele><time>2026-05-01T11:45:11.999Z</time></trkpt><trkpt lat="39.084791899989966" lon="16.08769982958295"><ele>7.0</ele><time>2026-05-01T11:45:12.999Z</time></trkpt><trkpt lat="39.084660812692" lon="16.0877275684995"><ele>7.5</ele><time>2026-05-01T11:45:13.999Z</time></trkpt><trkpt lat="39.08453038541553" lon="16.087762180280528"><ele>8.0</ele><time>2026-05-01T11:45:14.999Z</time></trkpt><trkpt lat="39.08440228821286" lon="16.087788044416172"><ele>8.5</ele><time>2026-05-01T11:45:15.999Z</time></trkpt><trkpt lat="39.08427779560353" lon="16.08781076049139"><ele>9.0</ele><time>2026-05-01T11:45:16.999Z</time></trkpt><trkpt lat="39.084155161720425" lon="16.087848891957638"><ele>8.75</ele><time>2026-05-01T11:45:18Z</time></trkpt><trkpt lat="39.084033605971925" lon="16.08789312492713"><ele>8.5</ele><time>2026-05-01T11:45:19Z</time></trkpt><trkpt lat="39.08391018750231" lon="16.087930441644332"><ele>8.25</ele><time>2026-05-01T11:45:20Z</time></trkpt><trkpt lat="39.08379737504509" lon="16.08795756178781"><ele>8.0</ele><time>2026-05-01T11:45:21Z</time></trkpt><trkpt lat="39.08371354633337" lon="16.087969781522858"><ele>7.999999999999999</ele><time>2026-05-01T11:45:22Z</time></trkpt><trkpt lat="39.083647801080424" lon="16.087976455193605"><ele>8.0</ele><time>2026-05-01T11:45:23Z</time></trkpt><trkpt lat="39.08358073895734" lon="16.08798522605371"><ele>8.0</ele><time>2026-05-01T11:45:24Z</time></trkpt><trkpt lat="39.0835031395935" lon="16.088000938209255"><ele>8.0</ele><time>2026-05-01T11:45:25Z</time></trkpt><trkpt lat="39.083416190612375" lon="16.08802123125847"><ele>7.999999999999999</ele><time>2026-05-01T11:45:26Z</time></trkpt><trkpt lat="39.083325633587556" lon="16.08804511838866"><ele>8.0</ele><time>2026-05-01T11:45:27Z</time></trkpt><trkpt lat="39.08321806385232" lon="16.088072965256373"><ele>7.75</ele><time>2026-05-01T11:45:28Z</time></trkpt><trkpt lat="39.083109161559506" lon="16.088099152295293"><ele>7.5</ele><time>2026-05-01T11:45:29Z</time></trkpt><trkpt lat="39.08298811971443" lon="16.088125020523556"><ele>7.25</ele><time>2026-05-01T11:45:30Z</time></trkpt><trkpt lat="39.08286337805115" lon="16.088153728362666"><ele>7.0</ele><time>2026-05-01T11:45:31Z</time></trkpt><trkpt lat="39.08273385827968" lon="16.088178777872116"><ele>7.0</ele><time>2026-05-01T11:45:32Z</time></trkpt><trkpt lat="39.08260242561863" lon="16.088201479731104"><ele>7.0</ele><time>2026-05-01T11:45:33Z</time></trkpt><trkpt lat="39.08247189576748" lon="16.08822788085231"><ele>7.0</ele><time>2026-05-01T11:45:34Z</time></trkpt><trkpt lat="39.08233818858066" lon="16.08826179454861"><ele>7.0</ele><time>2026-05-01T11:45:35Z</time></trkpt><trkpt lat="39.08220270014083" lon="16.08829160423817"><ele>7.0</ele><time>2026-05-01T11:45:36Z</time></trkpt><trkpt lat="39.082061189273176" lon="16.088317163012682"><ele>7.0</ele><time>2026-05-01T11:45:37Z</time></trkpt><trkpt lat="39.081916243127665" lon="16.088336466848403"><ele>7.0</ele><time>2026-05-01T11:45:38Z</time></trkpt><trkpt lat="39.08178254011913" lon="16.088369717550258"><ele>7.0</ele><time>2026-05-01T11:45:39Z</time></trkpt><trkpt lat="39.08165726861152" lon="16.088413472398607"><ele>7.0</ele><time>2026-05-01T11:45:40Z</time></trkpt><trkpt lat="39.08153192827656" lon="16.08843059872387"><ele>7.0</ele><time>2026-05-01T11:45:41Z</time></trkpt><trkpt lat="39.08141131197269" lon="16.08845855233746"><ele>7.0</ele><time>2026-05-01T11:45:42Z</time></trkpt><trkpt lat="39.08129307114959" lon="16.088485955390485"><ele>7.0</ele><time>2026-05-01T11:45:43Z</time></trkpt><trkpt lat="39.08117457215717" lon="16.088533203612883"><ele>7.0</ele><time>2026-05-01T11:45:44Z</time></trkpt><trkpt lat="39.08106191283151" lon="16.088557116843067"><ele>6.999999999999999</ele><time>2026-05-01T11:45:45Z</time></trkpt><trkpt lat="39.08095069282945" lon="16.08857935287526"><ele>6.999999999999999</ele><time>2026-05-01T11:45:46Z</time></trkpt><trkpt lat="39.0808511167729" lon="16.088603113737786"><ele>7.0</ele><time>2026-05-01T11:45:47Z</time></trkpt><trkpt lat="39.080752239903816" lon="16.088626551814528"><ele>7.0</ele><time>2026-05-01T11:45:48Z</time></trkpt><trkpt lat="39.08065774013238" lon="16.088653704982573"><ele>6.833333333333334</ele><time>2026-05-01T11:45:49Z</time></trkpt><trkpt lat="39.08058376917598" lon="16.08866889051421"><ele>6.666666666666667</ele><time>2026-05-01T11:45:50Z</time></trkpt><trkpt lat="39.080516319446815" lon="16.08868645287915"><ele>6.5</ele><time>2026-05-01T11:45:51Z</time></trkpt><trkpt lat="39.0804365936825" lon="16.08870586787868"><ele>6.333333333333334</ele><time>2026-05-01T11:45:52Z</time></trkpt><trkpt lat="39.08035106841655" lon="16.08872565953376"><ele>6.166666666666667</ele><time>2026-05-01T11:45:53Z</time></trkpt><trkpt lat="39.08025676103234" lon="16.088724307589388"><ele>6.0</ele><time>2026-05-01T11:45:54Z</time></trkpt><trkpt lat="39.080162897314246" lon="16.088742754231497"><ele>6.0</ele><time>2026-05-01T11:45:55Z</time></trkpt><trkpt lat="39.080066061368065" lon="16.08876178500609"><ele>6.0</ele><time>2026-05-01T11:45:56Z</time></trkpt><trkpt lat="39.0799685949108" lon="16.08880408358619"><ele>6.0</ele><time>2026-05-01T11:45:57Z</time></trkpt><trkpt lat="39.07986609973646" lon="16.088826763389374"><ele>6.0</ele><time>2026-05-01T11:45:58Z</time></trkpt><trkpt lat="39.07976469137444" lon="16.08885329432055"><ele>6.0</ele><time>2026-05-01T11:45:59Z</time></trkpt><trkpt lat="39.07966634951506" lon="16.088854560340373"><ele>6.4</ele><time>2026-05-01T11:46:00Z</time></trkpt><trkpt lat="39.07956492424477" lon="16.08887680135174"><ele>6.8</ele><time>2026-05-01T11:46:01Z</time></trkpt><trkpt lat="39.0794634883176" lon="16.088920148072546"><ele>7.200000000000001</ele><time>2026-05-01T11:46:02Z</time></trkpt><trkpt lat="39.079361897495794" lon="16.088945110208684"><ele>7.6000000000000005</ele><time>2026-05-01T11:46:03Z</time></trkpt><trkpt lat="39.07925768711681" lon="16.088969615666734"><ele>8.0</ele><time>2026-05-01T11:46:04Z</time></trkpt><trkpt lat="39.0791495311738" lon="16.088988341210836"><ele>8.200000000000001</ele><time>2026-05-01T11:46:05Z</time></trkpt><trkpt lat="39.0790445577092" lon="16.08900655544238"><ele>8.4</ele><time>2026-05-01T11:46:06Z</time></trkpt><trkpt lat="39.0789405252573" lon="16.08903892632662"><ele>8.600000000000001</ele><time>2026-05-01T11:46:07Z</time></trkpt><trkpt lat="39.078839274967315" lon="16.089062009724834"><ele>8.8</ele><time>2026-05-01T11:46:08Z</time></trkpt><trkpt lat="39.07875063709447" lon="16.089079936887785"><ele>9.0</ele><time>2026-05-01T11:46:09Z</time></trkpt><trkpt lat="39.07866861095527" lon="16.08909839128325"><ele>9.0</ele><time>2026-05-01T11:46:10Z</time></trkpt><trkpt lat="39.07855047173377" lon="16.0891128172919"><ele>9.0</ele><time>2026-05-01T11:46:12Z</time></trkpt><trkpt lat="39.07848196251573" lon="16.089118298327996"><ele>9.0</ele><time>2026-05-01T11:46:14Z</time></trkpt><trkpt lat="39.07843703314603" lon="16.089042479931237"><ele>9.0</ele><time>2026-05-01T11:46:15Z</time></trkpt><trkpt lat="39.07845095732663" lon="16.088961266097893"><ele>9.0</ele><time>2026-05-01T11:46:18Z</time></trkpt><trkpt lat="39.07837748256188" lon="16.08894995952894"><ele>9.0</ele><time>2026-05-01T11:46:27Z</time></trkpt><trkpt lat="39.078249956584536" lon="16.088970662782838"><ele>9.0</ele><time>2026-05-01T11:46:29Z</time></trkpt><trkpt lat="39.07816628045205" lon="16.089019562131018"><ele>9.0</ele><time>2026-05-01T11:46:30Z</time></trkpt><trkpt lat="39.078074540588744" lon="16.089066752853817"><ele>9.0</ele><time>2026-05-01T11:46:31Z</time></trkpt><trkpt lat="39.07797204149907" lon="16.089114051115136"><ele>9.0</ele><time>2026-05-01T11:46:32Z</time></trkpt><trkpt lat="39.07786024354834" lon="16.089166292021183"><ele>9.0</ele><time>2026-05-01T11:46:33Z</time></trkpt><trkpt lat="39.07774155885628" lon="16.089212587810216"><ele>8.75</ele><time>2026-05-01T11:46:34Z</time></trkpt><trkpt lat="39.07762380265847" lon="16.08926918594265"><ele>8.5</ele><time>2026-05-01T11:46:35Z</time></trkpt><trkpt lat="39.077504608410706" lon="16.089326852541987"><ele>8.25</ele><time>2026-05-01T11:46:36Z</time></trkpt><trkpt lat="39.07738604718731" lon="16.089386304953294"><ele>8.0</ele><time>2026-05-01T11:46:37Z</time></trkpt><trkpt lat="39.07726068765379" lon="16.089445458963954"><ele>8.0</ele><time>2026-05-01T11:46:38Z</time></trkpt><trkpt lat="39.077130085598185" lon="16.089504286581214"><ele>8.0</ele><time>2026-05-01T11:46:39Z</time></trkpt><trkpt lat="39.07699962358418" lon="16.08956662146845"><ele>8.0</ele><time>2026-05-01T11:46:40Z</time></trkpt><trkpt lat="39.07686032529667" lon="16.0896272441639"><ele>8.0</ele><time>2026-05-01T11:46:41Z</time></trkpt><trkpt lat="39.076714668951986" lon="16.089690630203094"><ele>7.666666666666666</ele><time>2026-05-01T11:46:42Z</time></trkpt><trkpt lat="39.0765721082046" lon="16.089757360204047"><ele>7.333333333333334</ele><time>2026-05-01T11:46:43Z</time></trkpt><trkpt lat="39.07642115454149" lon="16.089827207678095"><ele>7.0</ele><time>2026-05-01T11:46:44Z</time></trkpt><trkpt lat="39.07626412353072" lon="16.089899597785916"><ele>7.666666666666667</ele><time>2026-05-01T11:46:45Z</time></trkpt><trkpt lat="39.07610344218239" lon="16.089973396236832"><ele>8.333333333333334</ele><time>2026-05-01T11:46:46Z</time></trkpt><trkpt lat="39.07594034039568" lon="16.0900459852942"><ele>9.0</ele><time>2026-05-01T11:46:47Z</time></trkpt><trkpt lat="39.07577753912538" lon="16.090126228897567"><ele>9.666666666666666</ele><time>2026-05-01T11:46:48Z</time></trkpt><trkpt lat="39.07561559987868" lon="16.09021144083106"><ele>10.333333333333332</ele><time>2026-05-01T11:46:49Z</time></trkpt><trkpt lat="39.07544619804898" lon="16.09028730738926"><ele>11.0</ele><time>2026-05-01T11:46:50Z</time></trkpt><trkpt lat="39.07528312152187" lon="16.09036657937079"><ele>11.0</ele><time>2026-05-01T11:46:51Z</time></trkpt><trkpt lat="39.075113574550926" lon="16.09044239467834"><ele>11.0</ele><time>2026-05-01T11:46:52Z</time></trkpt><trkpt lat="39.07494456188289" lon="16.09052224466081"><ele>11.0</ele><time>2026-05-01T11:46:53Z</time></trkpt><trkpt lat="39.07476777981208" lon="16.090597877128943"><ele>9.666666666666666</ele><time>2026-05-01T11:46:54Z</time></trkpt><trkpt lat="39.07459013274829" lon="16.090680411858116"><ele>8.333333333333334</ele><time>2026-05-01T11:46:55Z</time></trkpt><trkpt lat="39.0744110897407" lon="16.09077050749824"><ele>7.0</ele><time>2026-05-01T11:46:56Z</time></trkpt><trkpt lat="39.07423295184573" lon="16.090854024524333"><ele>7.0</ele><time>2026-05-01T11:46:57Z</time></trkpt><trkpt lat="39.07404953045498" lon="16.090944025010096"><ele>7.0</ele><time>2026-05-01T11:46:57.999Z</time></trkpt><trkpt lat="39.07386927313991" lon="16.09103147061841"><ele>7.0</ele><time>2026-05-01T11:46:58.999Z</time></trkpt><trkpt lat="39.07368700190732" lon="16.09111619803117"><ele>7.0</ele><time>2026-05-01T11:46:59.999Z</time></trkpt><trkpt lat="39.07350255819797" lon="16.091207444901517"><ele>7.0</ele><time>2026-05-01T11:47:00.999Z</time></trkpt><trkpt lat="39.07332086593037" lon="16.091294978291028"><ele>7.0</ele><time>2026-05-01T11:47:01.999Z</time></trkpt><trkpt lat="39.07313918657331" lon="16.091374296002066"><ele>7.333333333333334</ele><time>2026-05-01T11:47:02.999Z</time></trkpt><trkpt lat="39.07294334231619" lon="16.09144635532872"><ele>7.666666666666666</ele><time>2026-05-01T11:47:03.999Z</time></trkpt><trkpt lat="39.07275232942993" lon="16.091524031233646"><ele>8.0</ele><time>2026-05-01T11:47:04.999Z</time></trkpt><trkpt lat="39.07255683579514" lon="16.09157035306213"><ele>9.0</ele><time>2026-05-01T11:47:05.999Z</time></trkpt><trkpt lat="39.07236135536269" lon="16.091609038405107"><ele>10.0</ele><time>2026-05-01T11:47:06.999Z</time></trkpt><trkpt lat="39.072158914079004" lon="16.091633022281837"><ele>11.0</ele><time>2026-05-01T11:47:07.999Z</time></trkpt><trkpt lat="39.0719548807179" lon="16.091654066672195"><ele>11.0</ele><time>2026-05-01T11:47:08.999Z</time></trkpt><trkpt lat="39.071752479372925" lon="16.091677052091494"><ele>11.0</ele><time>2026-05-01T11:47:09.999Z</time></trkpt><trkpt lat="39.071548908069246" lon="16.091704748400943"><ele>11.0</ele><time>2026-05-01T11:47:10.999Z</time></trkpt><trkpt lat="39.071347207979414" lon="16.091739587180324"><ele>11.333333333333332</ele><time>2026-05-01T11:47:11.999Z</time></trkpt><trkpt lat="39.07114789632421" lon="16.091770539396304"><ele>11.666666666666666</ele><time>2026-05-01T11:47:12.999Z</time></trkpt><trkpt lat="39.070948201988855" lon="16.091798845276234"><ele>12.0</ele><time>2026-05-01T11:47:13.999Z</time></trkpt><trkpt lat="39.07074974089222" lon="16.091828790528485"><ele>12.0</ele><time>2026-05-01T11:47:14.999Z</time></trkpt><trkpt lat="39.070548937955934" lon="16.091859416614046"><ele>12.0</ele><time>2026-05-01T11:47:15.999Z</time></trkpt><trkpt lat="39.07034790443618" lon="16.091884160309846"><ele>12.0</ele><time>2026-05-01T11:47:16.999Z</time></trkpt><trkpt lat="39.0701496740646" lon="16.091907122467642"><ele>12.0</ele><time>2026-05-01T11:47:17.999Z</time></trkpt><trkpt lat="39.06994929961264" lon="16.091925993293565"><ele>12.0</ele><time>2026-05-01T11:47:18.999Z</time></trkpt><trkpt lat="39.06974874553215" lon="16.09194681942121"><ele>12.0</ele><time>2026-05-01T11:47:19.999Z</time></trkpt><trkpt lat="39.069547642870134" lon="16.09196720268049"><ele>12.0</ele><time>2026-05-01T11:47:20.999Z</time></trkpt><trkpt lat="39.069348837016705" lon="16.091991260306045"><ele>12.0</ele><time>2026-05-01T11:47:21.999Z</time></trkpt><trkpt lat="39.06915032737929" lon="16.092021738017074"><ele>12.0</ele><time>2026-05-01T11:47:22.999Z</time></trkpt><trkpt lat="39.06895400884811" lon="16.09205643818342"><ele>12.0</ele><time>2026-05-01T11:47:24Z</time></trkpt><trkpt lat="39.06876107039327" lon="16.092103760163035"><ele>12.0</ele><time>2026-05-01T11:47:25Z</time></trkpt><trkpt lat="39.068569720588464" lon="16.092153000209283"><ele>12.0</ele><time>2026-05-01T11:47:26Z</time></trkpt><trkpt lat="39.06838159331502" lon="16.092209002332243"><ele>12.0</ele><time>2026-05-01T11:47:27Z</time></trkpt><trkpt lat="39.06819966957979" lon="16.0922652554721"><ele>12.0</ele><time>2026-05-01T11:47:28Z</time></trkpt><trkpt lat="39.06803672418801" lon="16.09232434341933"><ele>12.0</ele><time>2026-05-01T11:47:29Z</time></trkpt><trkpt lat="39.06788006048106" lon="16.092370917284892"><ele>12.0</ele><time>2026-05-01T11:47:30Z</time></trkpt><trkpt lat="39.06773230695069" lon="16.092415755555745"><ele>12.0</ele><time>2026-05-01T11:47:31Z</time></trkpt><trkpt lat="39.06758523123199" lon="16.092453445763738"><ele>12.0</ele><time>2026-05-01T11:47:32Z</time></trkpt><trkpt lat="39.0674322715544" lon="16.092451327153913"><ele>11.666666666666666</ele><time>2026-05-01T11:47:33Z</time></trkpt><trkpt lat="39.06727239994263" lon="16.092411849883522"><ele>11.333333333333332</ele><time>2026-05-01T11:47:34Z</time></trkpt><trkpt lat="39.06711852443664" lon="16.09234006128653"><ele>11.0</ele><time>2026-05-01T11:47:35Z</time></trkpt><trkpt lat="39.06696739614085" lon="16.092249004111295"><ele>11.0</ele><time>2026-05-01T11:47:36Z</time></trkpt><trkpt lat="39.06682261941432" lon="16.092140079765905"><ele>11.0</ele><time>2026-05-01T11:47:37Z</time></trkpt><trkpt lat="39.06668858792055" lon="16.092030832656118"><ele>11.0</ele><time>2026-05-01T11:47:38Z</time></trkpt><trkpt lat="39.06656361747151" lon="16.091933515276207"><ele>10.75</ele><time>2026-05-01T11:47:39Z</time></trkpt><trkpt lat="39.066448058808696" lon="16.091843749437814"><ele>10.5</ele><time>2026-05-01T11:47:40Z</time></trkpt><trkpt lat="39.06633885694544" lon="16.091755007782922"><ele>10.25</ele><time>2026-05-01T11:47:41Z</time></trkpt><trkpt lat="39.066232194639746" lon="16.091674013927598"><ele>10.0</ele><time>2026-05-01T11:47:42Z</time></trkpt><trkpt lat="39.066126824253075" lon="16.09159681915632"><ele>8.6</ele><time>2026-05-01T11:47:43Z</time></trkpt><trkpt lat="39.06602729411259" lon="16.091519684070693"><ele>7.2</ele><time>2026-05-01T11:47:44Z</time></trkpt><trkpt lat="39.06593162950274" lon="16.091445282314442"><ele>5.8</ele><time>2026-05-01T11:47:45Z</time></trkpt><trkpt lat="39.06583942959493" lon="16.091375441243827"><ele>4.4</ele><time>2026-05-01T11:47:46Z</time></trkpt><trkpt lat="39.06575126322799" lon="16.091311181431323"><ele>3.0</ele><time>2026-05-01T11:47:47Z</time></trkpt><trkpt lat="39.065681867140526" lon="16.091252286552457"><ele>2.8333333333333335</ele><time>2026-05-01T11:47:48Z</time></trkpt><trkpt lat="39.06563432236321" lon="16.091195094782613"><ele>2.6666666666666665</ele><time>2026-05-01T11:47:49Z</time></trkpt><trkpt lat="39.06559260599969" lon="16.09111537683577"><ele>2.5</ele><time>2026-05-01T11:47:51Z</time></trkpt><trkpt lat="39.06553152493589" lon="16.09114630822733"><ele>2.333333333333333</ele><time>2026-05-01T11:47:55Z</time></trkpt><trkpt lat="39.06560075303535" lon="16.091273819972653"><ele>2.1666666666666665</ele><time>2026-05-01T11:47:58Z</time></trkpt><trkpt lat="39.06568937147956" lon="16.091320869040565"><ele>2.0</ele><time>2026-05-01T11:47:59Z</time></trkpt><trkpt lat="39.06577244121471" lon="16.091380265967462"><ele>2.25</ele><time>2026-05-01T11:48:00Z</time></trkpt><trkpt lat="39.06586581591908" lon="16.091455216651397"><ele>2.5</ele><time>2026-05-01T11:48:01Z</time></trkpt><trkpt lat="39.065978022943696" lon="16.091542260156327"><ele>2.75</ele><time>2026-05-01T11:48:02Z</time></trkpt><trkpt lat="39.0661019314745" lon="16.091637214181233"><ele>3.0</ele><time>2026-05-01T11:48:03Z</time></trkpt><trkpt lat="39.0662318739953" lon="16.09173414126835"><ele>5.333333333333334</ele><time>2026-05-01T11:48:04Z</time></trkpt><trkpt lat="39.06637079231189" lon="16.091836026272414"><ele>7.666666666666667</ele><time>2026-05-01T11:48:05Z</time></trkpt><trkpt lat="39.066512237751134" lon="16.09194275499019"><ele>10.0</ele><time>2026-05-01T11:48:06Z</time></trkpt><trkpt lat="39.06665035180748" lon="16.092049233461886"><ele>10.25</ele><time>2026-05-01T11:48:07Z</time></trkpt><trkpt lat="39.06677478225882" lon="16.092146316154476"><ele>10.5</ele><time>2026-05-01T11:48:08Z</time></trkpt><trkpt lat="39.06688724556208" lon="16.0922338759064"><ele>10.75</ele><time>2026-05-01T11:48:09Z</time></trkpt><trkpt lat="39.06698381216339" lon="16.092303335868817"><ele>11.0</ele><time>2026-05-01T11:48:10Z</time></trkpt><trkpt lat="39.06705972542346" lon="16.092360639083736"><ele>11.0</ele><time>2026-05-01T11:48:11Z</time></trkpt><trkpt lat="39.067115794987856" lon="16.09241074541105"><ele>11.0</ele><time>2026-05-01T11:48:12Z</time></trkpt><trkpt lat="39.06716929344657" lon="16.09253125769642"><ele>11.0</ele><time>2026-05-01T11:48:14Z</time></trkpt><trkpt lat="39.067152354630494" lon="16.092637657715294"><ele>11.0</ele><time>2026-05-01T11:48:16Z</time></trkpt><trkpt lat="39.06705722070616" lon="16.092692750475933"><ele>11.0</ele><time>2026-05-01T11:48:17Z</time></trkpt><trkpt lat="39.06696851806627" lon="16.092730650724803"><ele>11.75</ele><time>2026-05-01T11:48:18Z</time></trkpt><trkpt lat="39.06686945831577" lon="16.092770693907358"><ele>12.5</ele><time>2026-05-01T11:48:19Z</time></trkpt><trkpt lat="39.066754135209784" lon="16.092820631023248"><ele>13.25</ele><time>2026-05-01T11:48:20Z</time></trkpt><trkpt lat="39.066628967039854" lon="16.09287281547426"><ele>14.0</ele><time>2026-05-01T11:48:21Z</time></trkpt><trkpt lat="39.06649752104099" lon="16.092925752815376"><ele>14.0</ele><time>2026-05-01T11:48:22Z</time></trkpt><trkpt lat="39.06635562233997" lon="16.092989559388798"><ele>14.0</ele><time>2026-05-01T11:48:23Z</time></trkpt><trkpt lat="39.06621299221918" lon="16.093049518596533"><ele>14.0</ele><time>2026-05-01T11:48:24Z</time></trkpt><trkpt lat="39.06606463769958" lon="16.093111687303317"><ele>14.0</ele><time>2026-05-01T11:48:25Z</time></trkpt><trkpt lat="39.06591331244795" lon="16.093175057473704"><ele>14.0</ele><time>2026-05-01T11:48:26Z</time></trkpt><trkpt lat="39.0657679504472" lon="16.093261701795104"><ele>14.0</ele><time>2026-05-01T11:48:27Z</time></trkpt><trkpt lat="39.06562678013141" lon="16.09337268682864"><ele>12.0</ele><time>2026-05-01T11:48:28Z</time></trkpt><trkpt lat="39.065498706726665" lon="16.09351818445382"><ele>10.0</ele><time>2026-05-01T11:48:29Z</time></trkpt><trkpt lat="39.065384244675315" lon="16.09368415852849"><ele>8.0</ele><time>2026-05-01T11:48:30Z</time></trkpt><trkpt lat="39.06527836890115" lon="16.09385911230747"><ele>8.0</ele><time>2026-05-01T11:48:31Z</time></trkpt><trkpt lat="39.065172461667714" lon="16.094037586654206"><ele>8.0</ele><time>2026-05-01T11:48:32Z</time></trkpt><trkpt lat="39.065065587626144" lon="16.094215429810244"><ele>8.0</ele><time>2026-05-01T11:48:32.999Z</time></trkpt><trkpt lat="39.0649571275974" lon="16.094391707774697"><ele>7.333333333333333</ele><time>2026-05-01T11:48:33.999Z</time></trkpt><trkpt lat="39.064847308198814" lon="16.09457035162884"><ele>6.666666666666666</ele><time>2026-05-01T11:48:34.999Z</time></trkpt><trkpt lat="39.06473604744464" lon="16.094746547619916"><ele>6.0</ele><time>2026-05-01T11:48:35.999Z</time></trkpt><trkpt lat="39.064621370317695" lon="16.094927531014875"><ele>6.0</ele><time>2026-05-01T11:48:36.999Z</time></trkpt><trkpt lat="39.06450779080587" lon="16.095101198905212"><ele>6.0</ele><time>2026-05-01T11:48:37.999Z</time></trkpt><trkpt lat="39.06439269514506" lon="16.095276261346893"><ele>6.0</ele><time>2026-05-01T11:48:38.999Z</time></trkpt><trkpt lat="39.06427893308938" lon="16.0954557775465"><ele>6.0</ele><time>2026-05-01T11:48:39.999Z</time></trkpt><trkpt lat="39.064170974657344" lon="16.09563519367508"><ele>6.0</ele><time>2026-05-01T11:48:40.999Z</time></trkpt><trkpt lat="39.06406244333161" lon="16.09581794328455"><ele>6.0</ele><time>2026-05-01T11:48:41.999Z</time></trkpt><trkpt lat="39.06394495780705" lon="16.096002668362317"><ele>6.0</ele><time>2026-05-01T11:48:42.999Z</time></trkpt><trkpt lat="39.06382858353235" lon="16.09618562448444"><ele>6.0</ele><time>2026-05-01T11:48:43.999Z</time></trkpt><trkpt lat="39.06371103769306" lon="16.096375016599154"><ele>6.0</ele><time>2026-05-01T11:48:44.999Z</time></trkpt><trkpt lat="39.063592407838996" lon="16.096561749495855"><ele>6.0</ele><time>2026-05-01T11:48:45.999Z</time></trkpt><trkpt lat="39.0634744658477" lon="16.09675059640678"><ele>6.0</ele><time>2026-05-01T11:48:46.999Z</time></trkpt><trkpt lat="39.06334860201545" lon="16.09694312348525"><ele>6.0</ele><time>2026-05-01T11:48:47.999Z</time></trkpt><trkpt lat="39.06323206447983" lon="16.097133964187996"><ele>5.666666666666667</ele><time>2026-05-01T11:48:48.999Z</time></trkpt><trkpt lat="39.06310844512006" lon="16.097328552036817"><ele>5.333333333333334</ele><time>2026-05-01T11:48:49.999Z</time></trkpt><trkpt lat="39.0629847115587" lon="16.097523490202867"><ele>5.0</ele><time>2026-05-01T11:48:50.999Z</time></trkpt><trkpt lat="39.06286345756354" lon="16.0977215380263"><ele>4.666666666666667</ele><time>2026-05-01T11:48:51.999Z</time></trkpt><trkpt lat="39.06274232448243" lon="16.09791637845397"><ele>4.333333333333333</ele><time>2026-05-01T11:48:52.999Z</time></trkpt><trkpt lat="39.06261901738304" lon="16.098109817759074"><ele>4.0</ele><time>2026-05-01T11:48:53.999Z</time></trkpt><trkpt lat="39.062495086785354" lon="16.09830292622176"><ele>3.6666666666666665</ele><time>2026-05-01T11:48:54.999Z</time></trkpt><trkpt lat="39.06237286887958" lon="16.09849760334826"><ele>3.333333333333333</ele><time>2026-05-01T11:48:55.999Z</time></trkpt><trkpt lat="39.062250387607286" lon="16.098693256631005"><ele>3.0</ele><time>2026-05-01T11:48:56.999Z</time></trkpt><trkpt lat="39.062128670416016" lon="16.09888793529367"><ele>3.0</ele><time>2026-05-01T11:48:57.999Z</time></trkpt><trkpt lat="39.06200486055467" lon="16.099084906732042"><ele>3.0</ele><time>2026-05-01T11:48:58.999Z</time></trkpt><trkpt lat="39.06188060793386" lon="16.09927976647381"><ele>3.0</ele><time>2026-05-01T11:48:59.999Z</time></trkpt><trkpt lat="39.06175439938275" lon="16.099474670733635"><ele>3.0</ele><time>2026-05-01T11:49:00.999Z</time></trkpt><trkpt lat="39.061628008359996" lon="16.099671124650957"><ele>3.0</ele><time>2026-05-01T11:49:01.999Z</time></trkpt><trkpt lat="39.06150409878211" lon="16.09986705376026"><ele>3.0</ele><time>2026-05-01T11:49:02.999Z</time></trkpt><trkpt lat="39.06138226732249" lon="16.100065409522703"><ele>4.0</ele><time>2026-05-01T11:49:03.999Z</time></trkpt><trkpt lat="39.06125795829816" lon="16.100263200023043"><ele>5.0</ele><time>2026-05-01T11:49:04.999Z</time></trkpt><trkpt lat="39.06113059329864" lon="16.100460129227198"><ele>6.0</ele><time>2026-05-01T11:49:05.999Z</time></trkpt><trkpt lat="39.06100240838385" lon="16.100652556726306"><ele>5.666666666666667</ele><time>2026-05-01T11:49:06.999Z</time></trkpt><trkpt lat="39.06087868237365" lon="16.100852201432048"><ele>5.333333333333334</ele><time>2026-05-01T11:49:07.999Z</time></trkpt><trkpt lat="39.06075498079201" lon="16.10105064525283"><ele>5.0</ele><time>2026-05-01T11:49:08.999Z</time></trkpt><trkpt lat="39.06063371027493" lon="16.101248762988565"><ele>5.0</ele><time>2026-05-01T11:49:09.999Z</time></trkpt><trkpt lat="39.0605142481705" lon="16.101445105229157"><ele>5.0</ele><time>2026-05-01T11:49:10.999Z</time></trkpt><trkpt lat="39.06039211128627" lon="16.101642583993982"><ele>5.0</ele><time>2026-05-01T11:49:11.999Z</time></trkpt><trkpt lat="39.060270070140305" lon="16.101838174463502"><ele>5.0</ele><time>2026-05-01T11:49:12.999Z</time></trkpt><trkpt lat="39.060146522329866" lon="16.102033340616366"><ele>5.0</ele><time>2026-05-01T11:49:13.999Z</time></trkpt><trkpt lat="39.060023947128215" lon="16.102228044903015"><ele>5.0</ele><time>2026-05-01T11:49:14.999Z</time></trkpt><trkpt lat="39.05990211335555" lon="16.102423252356587"><ele>5.0</ele><time>2026-05-01T11:49:15.999Z</time></trkpt><trkpt lat="39.059780054151275" lon="16.10261680089104"><ele>5.0</ele><time>2026-05-01T11:49:16.999Z</time></trkpt><trkpt lat="39.059656760529215" lon="16.102816381043205"><ele>5.0</ele><time>2026-05-01T11:49:17.999Z</time></trkpt><trkpt lat="39.05953020005205" lon="16.103013036752156"><ele>5.0</ele><time>2026-05-01T11:49:18.999Z</time></trkpt><trkpt lat="39.05940170880042" lon="16.103213189404848"><ele>5.0</ele><time>2026-05-01T11:49:19.999Z</time></trkpt><trkpt lat="39.05927344629084" lon="16.103415478252536"><ele>5.0</ele><time>2026-05-01T11:49:20.999Z</time></trkpt><trkpt lat="39.05914533826686" lon="16.103620376490355"><ele>5.0</ele><time>2026-05-01T11:49:21.999Z</time></trkpt><trkpt lat="39.05901689042318" lon="16.103827846795625"><ele>5.0</ele><time>2026-05-01T11:49:22.999Z</time></trkpt><trkpt lat="39.05888880945021" lon="16.104035944785828"><ele>5.0</ele><time>2026-05-01T11:49:23.999Z</time></trkpt><trkpt lat="39.05875770180805" lon="16.104243148046557"><ele>5.0</ele><time>2026-05-01T11:49:24.999Z</time></trkpt><trkpt lat="39.05862427233872" lon="16.104446844121558"><ele>5.0</ele><time>2026-05-01T11:49:25.999Z</time></trkpt><trkpt lat="39.058491790761174" lon="16.104650723913558"><ele>5.0</ele><time>2026-05-01T11:49:26.999Z</time></trkpt><trkpt lat="39.05835209805559" lon="16.104849358821404"><ele>4.666666666666667</ele><time>2026-05-01T11:49:27.999Z</time></trkpt><trkpt lat="39.05820738221714" lon="16.105045955143712"><ele>4.333333333333333</ele><time>2026-05-01T11:49:29Z</time></trkpt><trkpt lat="39.05808250419023" lon="16.10526555384187"><ele>4.0</ele><time>2026-05-01T11:49:30Z</time></trkpt><trkpt lat="39.057949241976694" lon="16.105475639779918"><ele>4.0</ele><time>2026-05-01T11:49:31Z</time></trkpt><trkpt lat="39.05785205112307" lon="16.105681464362835"><ele>4.0</ele><time>2026-05-01T11:49:32Z</time></trkpt><trkpt lat="39.05772352005581" lon="16.105888151785624"><ele>4.0</ele><time>2026-05-01T11:49:33Z</time></trkpt><trkpt lat="39.05759785161198" lon="16.106090678189567"><ele>4.333333333333333</ele><time>2026-05-01T11:49:34Z</time></trkpt><trkpt lat="39.05747877902091" lon="16.106286402278098"><ele>4.666666666666667</ele><time>2026-05-01T11:49:35Z</time></trkpt><trkpt lat="39.05736617066252" lon="16.10646274883214"><ele>5.0</ele><time>2026-05-01T11:49:36Z</time></trkpt><trkpt lat="39.0572510300709" lon="16.106643434447403"><ele>5.333333333333334</ele><time>2026-05-01T11:49:37Z</time></trkpt><trkpt lat="39.05713538672565" lon="16.1068230200658"><ele>5.666666666666667</ele><time>2026-05-01T11:49:38Z</time></trkpt><trkpt lat="39.05702210031664" lon="16.10700220381042"><ele>6.0</ele><time>2026-05-01T11:49:39Z</time></trkpt><trkpt lat="39.05691360492521" lon="16.10717485612353"><ele>6.0</ele><time>2026-05-01T11:49:40Z</time></trkpt><trkpt lat="39.056802624195115" lon="16.1073466324494"><ele>6.0</ele><time>2026-05-01T11:49:41Z</time></trkpt><trkpt lat="39.0566963139612" lon="16.10751626236276"><ele>6.0</ele><time>2026-05-01T11:49:42Z</time></trkpt><trkpt lat="39.05658406868064" lon="16.107684657502517"><ele>6.0</ele><time>2026-05-01T11:49:43Z</time></trkpt><trkpt lat="39.05647223218288" lon="16.10785332887122"><ele>6.0</ele><time>2026-05-01T11:49:44Z</time></trkpt><trkpt lat="39.05636873466633" lon="16.108018496083936"><ele>6.0</ele><time>2026-05-01T11:49:45Z</time></trkpt><trkpt lat="39.05628108953929" lon="16.108202755652663"><ele>6.333333333333334</ele><time>2026-05-01T11:49:46Z</time></trkpt><trkpt lat="39.056221534666804" lon="16.108407844990644"><ele>6.666666666666667</ele><time>2026-05-01T11:49:47Z</time></trkpt><trkpt lat="39.05618101041608" lon="16.108623760588227"><ele>7.0</ele><time>2026-05-01T11:49:48Z</time></trkpt><trkpt lat="39.056143788738275" lon="16.10883668771418"><ele>7.0</ele><time>2026-05-01T11:49:49Z</time></trkpt><trkpt lat="39.056110834287445" lon="16.109049270109775"><ele>7.0</ele><time>2026-05-01T11:49:50Z</time></trkpt><trkpt lat="39.05606697717553" lon="16.109253400978478"><ele>7.0</ele><time>2026-05-01T11:49:51Z</time></trkpt><trkpt lat="39.055987719369305" lon="16.109435857436083"><ele>6.666666666666667</ele><time>2026-05-01T11:49:52Z</time></trkpt><trkpt lat="39.05592155168325" lon="16.109614838113554"><ele>6.333333333333334</ele><time>2026-05-01T11:49:53Z</time></trkpt><trkpt lat="39.05583214745447" lon="16.109750221685974"><ele>6.0</ele><time>2026-05-01T11:49:54Z</time></trkpt><trkpt lat="39.05567950962227" lon="16.10983014120662"><ele>7.666666666666666</ele><time>2026-05-01T11:49:55Z</time></trkpt><trkpt lat="39.05550790681402" lon="16.109916943042645"><ele>9.333333333333332</ele><time>2026-05-01T11:49:56Z</time></trkpt><trkpt lat="39.05536398310805" lon="16.109998914027916"><ele>11.0</ele><time>2026-05-01T11:49:57Z</time></trkpt><trkpt lat="39.05522424110008" lon="16.110088220927118"><ele>11.0</ele><time>2026-05-01T11:49:58Z</time></trkpt><trkpt lat="39.05508971694433" lon="16.110194258479616"><ele>11.0</ele><time>2026-05-01T11:49:59Z</time></trkpt><trkpt lat="39.054954306258566" lon="16.11030208012948"><ele>11.0</ele><time>2026-05-01T11:50:00Z</time></trkpt><trkpt lat="39.05481596329317" lon="16.110402697165227"><ele>10.0</ele><time>2026-05-01T11:50:01Z</time></trkpt><trkpt lat="39.054670476719195" lon="16.110506210082132"><ele>9.0</ele><time>2026-05-01T11:50:02Z</time></trkpt><trkpt lat="39.05451853474255" lon="16.110607545469374"><ele>8.0</ele><time>2026-05-01T11:50:03Z</time></trkpt><trkpt lat="39.054367263359744" lon="16.11070058758519"><ele>8.333333333333332</ele><time>2026-05-01T11:50:04Z</time></trkpt><trkpt lat="39.054233007777405" lon="16.110809972282794"><ele>8.666666666666666</ele><time>2026-05-01T11:50:05Z</time></trkpt><trkpt lat="39.05410604347902" lon="16.110907462858584"><ele>9.0</ele><time>2026-05-01T11:50:06Z</time></trkpt><trkpt lat="39.0539760943911" lon="16.110998707494396"><ele>9.0</ele><time>2026-05-01T11:50:07Z</time></trkpt><trkpt lat="39.05384580736131" lon="16.11108963423594"><ele>9.0</ele><time>2026-05-01T11:50:08Z</time></trkpt><trkpt lat="39.0537187908059" lon="16.111163349192285"><ele>9.0</ele><time>2026-05-01T11:50:09Z</time></trkpt><trkpt lat="39.05359100839653" lon="16.111249599931718"><ele>9.0</ele><time>2026-05-01T11:50:10Z</time></trkpt><trkpt lat="39.05346751458507" lon="16.111327650048043"><ele>9.0</ele><time>2026-05-01T11:50:11Z</time></trkpt><trkpt lat="39.05335479595018" lon="16.111408248385622"><ele>9.0</ele><time>2026-05-01T11:50:12Z</time></trkpt><trkpt lat="39.05325776040298" lon="16.111509860150836"><ele>9.0</ele><time>2026-05-01T11:50:13Z</time></trkpt><trkpt lat="39.05318019181373" lon="16.111633059795604"><ele>9.0</ele><time>2026-05-01T11:50:14Z</time></trkpt><trkpt lat="39.053112847703034" lon="16.11177166768059"><ele>9.25</ele><time>2026-05-01T11:50:15Z</time></trkpt><trkpt lat="39.053046036483934" lon="16.111919326633117"><ele>9.5</ele><time>2026-05-01T11:50:16Z</time></trkpt><trkpt lat="39.052974789889255" lon="16.112071404805146"><ele>9.75</ele><time>2026-05-01T11:50:17Z</time></trkpt><trkpt lat="39.05289687829197" lon="16.11222445347592"><ele>10.0</ele><time>2026-05-01T11:50:18Z</time></trkpt><trkpt lat="39.05281071530628" lon="16.112375850908457"><ele>10.75</ele><time>2026-05-01T11:50:19Z</time></trkpt><trkpt lat="39.05270956066244" lon="16.112507812477354"><ele>11.5</ele><time>2026-05-01T11:50:20Z</time></trkpt><trkpt lat="39.05259017400262" lon="16.112617846555466"><ele>12.25</ele><time>2026-05-01T11:50:21Z</time></trkpt><trkpt lat="39.052474783214564" lon="16.112709387582754"><ele>13.0</ele><time>2026-05-01T11:50:22Z</time></trkpt><trkpt lat="39.052379326357304" lon="16.112778504341684"><ele>13.333333333333332</ele><time>2026-05-01T11:50:23Z</time></trkpt><trkpt lat="39.052317033136454" lon="16.11281521622857"><ele>13.666666666666666</ele><time>2026-05-01T11:50:24Z</time></trkpt><trkpt lat="39.05225898804476" lon="16.11274914400809"><ele>14.0</ele><time>2026-05-01T11:50:27Z</time></trkpt><trkpt lat="39.05218700007388" lon="16.112641863034728"><ele>14.333333333333332</ele><time>2026-05-01T11:50:29Z</time></trkpt><trkpt lat="39.05214289302208" lon="16.11257178029354"><ele>14.666666666666666</ele><time>2026-05-01T11:50:30Z</time></trkpt><trkpt lat="39.05209784653128" lon="16.112493426461118"><ele>15.0</ele><time>2026-05-01T11:50:31Z</time></trkpt><trkpt lat="39.052054861343365" lon="16.112412909506386"><ele>14.333333333333334</ele><time>2026-05-01T11:50:31.999Z</time></trkpt><trkpt lat="39.05200798384796" lon="16.112333956698127"><ele>13.666666666666666</ele><time>2026-05-01T11:50:32.999Z</time></trkpt><trkpt lat="39.05195276029732" lon="16.112253584754246"><ele>13.0</ele><time>2026-05-01T11:50:33.999Z</time></trkpt><trkpt lat="39.051903862540485" lon="16.112174030191547"><ele>12.333333333333332</ele><time>2026-05-01T11:50:34.999Z</time></trkpt><trkpt lat="39.051853590254396" lon="16.112093158407273"><ele>11.666666666666666</ele><time>2026-05-01T11:50:35.999Z</time></trkpt><trkpt lat="39.05180626991126" lon="16.112014362538602"><ele>11.0</ele><time>2026-05-01T11:50:36.999Z</time></trkpt><trkpt lat="39.05176045822211" lon="16.111931982021012"><ele>11.0</ele><time>2026-05-01T11:50:37.999Z</time></trkpt><trkpt lat="39.051716166370255" lon="16.11184410530968"><ele>11.0</ele><time>2026-05-01T11:50:38.999Z</time></trkpt><trkpt lat="39.051665773046594" lon="16.111760561733266"><ele>11.0</ele><time>2026-05-01T11:50:39.999Z</time></trkpt><trkpt lat="39.05160734363695" lon="16.11167852450231"><ele>11.0</ele><time>2026-05-01T11:50:40.999Z</time></trkpt><trkpt lat="39.051556145436095" lon="16.111598958430367"><ele>11.0</ele><time>2026-05-01T11:50:41.999Z</time></trkpt><trkpt lat="39.05150821706764" lon="16.111529906212315"><ele>11.0</ele><time>2026-05-01T11:50:42.999Z</time></trkpt><trkpt lat="39.05146224753433" lon="16.111464705183057"><ele>10.75</ele><time>2026-05-01T11:50:43.999Z</time></trkpt><trkpt lat="39.051290906553135" lon="16.111545927120623"><ele>10.5</ele><time>2026-05-01T11:50:44.999Z</time></trkpt><trkpt lat="39.05124445423149" lon="16.11146552191219"><ele>10.25</ele><time>2026-05-01T11:50:45.999Z</time></trkpt><trkpt lat="39.05117751852348" lon="16.11134951992905"><ele>10.0</ele><time>2026-05-01T11:50:47.999Z</time></trkpt><trkpt lat="39.05111548689189" lon="16.1112393428887"><ele>10.0</ele><time>2026-05-01T11:50:49.999Z</time></trkpt><trkpt lat="39.05104143089067" lon="16.11110828147519"><ele>10.0</ele><time>2026-05-01T11:50:51.999Z</time></trkpt><trkpt lat="39.050967652445784" lon="16.11098068656499"><ele>10.0</ele><time>2026-05-01T11:50:53.999Z</time></trkpt><trkpt lat="39.0509018808075" lon="16.110867167519345"><ele>10.0</ele><time>2026-05-01T11:50:55.999Z</time></trkpt><trkpt lat="39.0508440945531" lon="16.110767558675533"><ele>9.8</ele><time>2026-05-01T11:50:57.999Z</time></trkpt><trkpt lat="39.05078492179086" lon="16.110665559871084"><ele>9.6</ele><time>2026-05-01T11:50:59.999Z</time></trkpt><trkpt lat="39.050720858161846" lon="16.110555130453122"><ele>9.4</ele><time>2026-05-01T11:51:01.999Z</time></trkpt><trkpt lat="39.050667998046215" lon="16.110464602514345"><ele>9.2</ele><time>2026-05-01T11:51:03.999Z</time></trkpt><trkpt lat="39.05061281059085" lon="16.11037120111099"><ele>9.0</ele><time>2026-05-01T11:51:05.999Z</time></trkpt><trkpt lat="39.05055444454935" lon="16.110272420194462"><ele>9.0</ele><time>2026-05-01T11:51:07.999Z</time></trkpt><trkpt lat="39.0504977030894" lon="16.110176388769883"><ele>9.0</ele><time>2026-05-01T11:51:09.999Z</time></trkpt><trkpt lat="39.050441460056554" lon="16.110080292690473"><ele>9.0</ele><time>2026-05-01T11:51:11.999Z</time></trkpt><trkpt lat="39.05040215882271" lon="16.110010225405333"><ele>9.0</ele><time>2026-05-01T11:51:14.999Z</time></trkpt><trkpt lat="39.050339611224516" lon="16.109894971944332"><ele>9.0</ele><time>2026-05-01T11:51:17.999Z</time></trkpt><trkpt lat="39.050299395637445" lon="16.109820419377346"><ele>9.0</ele><time>2026-05-01T11:51:18.999Z</time></trkpt><trkpt lat="39.05025806709857" lon="16.109743803576144"><ele>9.333333333333334</ele><time>2026-05-01T11:51:19.999Z</time></trkpt><trkpt lat="39.05021317911198" lon="16.109661560696804"><ele>9.666666666666666</ele><time>2026-05-01T11:51:20.999Z</time></trkpt><trkpt lat="39.05016534466541" lon="16.109575853620548"><ele>10.0</ele><time>2026-05-01T11:51:21.999Z</time></trkpt><trkpt lat="39.050115693835515" lon="16.10948689208199"><ele>10.333333333333332</ele><time>2026-05-01T11:51:22.999Z</time></trkpt><trkpt lat="39.05007270699488" lon="16.109409870625043"><ele>10.666666666666666</ele><time>2026-05-01T11:51:23.999Z</time></trkpt><trkpt lat="39.050027864929746" lon="16.10932952516813"><ele>11.0</ele><time>2026-05-01T11:51:24.999Z</time></trkpt><trkpt lat="39.0499792239604" lon="16.109241284406597"><ele>10.666666666666666</ele><time>2026-05-01T11:51:25.999Z</time></trkpt><trkpt lat="39.04993938858104" lon="16.109168632950997"><ele>10.333333333333332</ele><time>2026-05-01T11:51:26.999Z</time></trkpt><trkpt lat="39.04988164966512" lon="16.10906332914311"><ele>10.0</ele><time>2026-05-01T11:51:28.999Z</time></trkpt><trkpt lat="39.04982857270176" lon="16.108966527728878"><ele>9.666666666666666</ele><time>2026-05-01T11:51:30.999Z</time></trkpt><trkpt lat="39.0497793727909" lon="16.108876797308845"><ele>9.333333333333334</ele><time>2026-05-01T11:51:32.999Z</time></trkpt><trkpt lat="39.049727919560354" lon="16.108782957320685"><ele>9.0</ele><time>2026-05-01T11:51:35Z</time></trkpt><trkpt lat="39.04966815792455" lon="16.108674600380134"><ele>9.0</ele><time>2026-05-01T11:51:37Z</time></trkpt><trkpt lat="39.049606106779855" lon="16.10856554660282"><ele>9.0</ele><time>2026-05-01T11:51:39Z</time></trkpt><trkpt lat="39.04954658822377" lon="16.108462187828167"><ele>9.0</ele><time>2026-05-01T11:51:41Z</time></trkpt><trkpt lat="39.04949250513998" lon="16.10836910937956"><ele>9.0</ele><time>2026-05-01T11:51:43Z</time></trkpt><trkpt lat="39.04943932279885" lon="16.10827700358607"><ele>9.0</ele><time>2026-05-01T11:51:45Z</time></trkpt><trkpt lat="39.049388965295385" lon="16.108188923598146"><ele>9.166666666666666</ele><time>2026-05-01T11:51:47Z</time></trkpt><trkpt lat="39.049348362692186" lon="16.108117779913652"><ele>9.333333333333334</ele><time>2026-05-01T11:51:49Z</time></trkpt><trkpt lat="39.04930519234759" lon="16.108038094634963"><ele>9.5</ele><time>2026-05-01T11:51:53Z</time></trkpt><trkpt lat="39.049262959081815" lon="16.107956556822202"><ele>9.666666666666668</ele><time>2026-05-01T11:51:56Z</time></trkpt><trkpt lat="39.04934758410726" lon="16.108077597957866"><ele>9.833333333333334</ele><time>2026-05-01T11:52:27.999Z</time></trkpt><trkpt lat="39.04938794125773" lon="16.10814153024719"><ele>10.0</ele><time>2026-05-01T11:52:28.999Z</time></trkpt><trkpt lat="39.04955179352429" lon="16.108100732912764"><ele>10.0</ele><time>2026-05-01T11:52:29.999Z</time></trkpt><trkpt lat="39.04958255609076" lon="16.10818358827203"><ele>10.0</ele><time>2026-05-01T11:52:30.999Z</time></trkpt><trkpt lat="39.04960914658382" lon="16.108274445100697"><ele>10.0</ele><time>2026-05-01T11:52:31.999Z</time></trkpt><trkpt lat="39.04953807789092" lon="16.10851907464312"><ele>10.0</ele><time>2026-05-01T11:52:33.999Z</time></trkpt><trkpt lat="39.049580524068475" lon="16.108593096634475"><ele>10.0</ele><time>2026-05-01T11:52:34.999Z</time></trkpt><trkpt lat="39.04962223183434" lon="16.108666397245926"><ele>9.833333333333334</ele><time>2026-05-01T11:52:35.999Z</time></trkpt><trkpt lat="39.04970177501524" lon="16.108809583026495"><ele>9.666666666666668</ele><time>2026-05-01T11:52:37.999Z</time></trkpt><trkpt lat="39.04974666365542" lon="16.10889145047648"><ele>9.5</ele><time>2026-05-01T11:52:38.999Z</time></trkpt><trkpt lat="39.04979089833375" lon="16.10897212538581"><ele>9.333333333333334</ele><time>2026-05-01T11:52:39.999Z</time></trkpt><trkpt lat="39.049835992091424" lon="16.109054367111604"><ele>9.166666666666666</ele><time>2026-05-01T11:52:40.999Z</time></trkpt><trkpt lat="39.049880801235744" lon="16.10913608967806"><ele>9.0</ele><time>2026-05-01T11:52:41.999Z</time></trkpt><trkpt lat="39.04992644754442" lon="16.109219339027984"><ele>9.333333333333334</ele><time>2026-05-01T11:52:42.999Z</time></trkpt><trkpt lat="39.049972514502244" lon="16.109303355556722"><ele>9.666666666666666</ele><time>2026-05-01T11:52:43.999Z</time></trkpt><trkpt lat="39.050020989517385" lon="16.10939064290123"><ele>10.0</ele><time>2026-05-01T11:52:44.999Z</time></trkpt><trkpt lat="39.05006897704603" lon="16.109476624223394"><ele>10.333333333333332</ele><time>2026-05-01T11:52:45.999Z</time></trkpt><trkpt lat="39.05011502655808" lon="16.10955913315366"><ele>10.666666666666666</ele><time>2026-05-01T11:52:46.999Z</time></trkpt><trkpt lat="39.05015373943764" lon="16.10962849677683"><ele>11.0</ele><time>2026-05-01T11:52:47.999Z</time></trkpt><trkpt lat="39.05020077518754" lon="16.10971277276107"><ele>11.0</ele><time>2026-05-01T11:52:48.999Z</time></trkpt><trkpt lat="39.05024367188062" lon="16.109792246185794"><ele>11.0</ele><time>2026-05-01T11:52:49.999Z</time></trkpt><trkpt lat="39.05028744696338" lon="16.109873397402264"><ele>11.0</ele><time>2026-05-01T11:52:50.999Z</time></trkpt><trkpt lat="39.050325413655706" lon="16.109943780936415"><ele>11.0</ele><time>2026-05-01T11:52:51.999Z</time></trkpt><trkpt lat="39.05036470544923" lon="16.110016620959453"><ele>11.0</ele><time>2026-05-01T11:52:52.999Z</time></trkpt><trkpt lat="39.05041082546868" lon="16.11009887182311"><ele>11.0</ele><time>2026-05-01T11:52:53.999Z</time></trkpt><trkpt lat="39.05045955879962" lon="16.110182603529942"><ele>11.0</ele><time>2026-05-01T11:52:54.999Z</time></trkpt><trkpt lat="39.05051052599086" lon="16.11026886232371"><ele>10.833333333333332</ele><time>2026-05-01T11:52:55.999Z</time></trkpt><trkpt lat="39.05055431441703" lon="16.110342971535406"><ele>10.666666666666666</ele><time>2026-05-01T11:52:56.999Z</time></trkpt><trkpt lat="39.050604628064534" lon="16.110428124256384"><ele>10.5</ele><time>2026-05-01T11:52:59.999Z</time></trkpt><trkpt lat="39.0506481873495" lon="16.110501845645846"><ele>10.333333333333334</ele><time>2026-05-01T11:53:01.999Z</time></trkpt><trkpt lat="39.05070569489878" lon="16.110600598837006"><ele>10.166666666666668</ele><time>2026-05-01T11:53:03.999Z</time></trkpt><trkpt lat="39.05076465718463" lon="16.110702234848723"><ele>10.0</ele><time>2026-05-01T11:53:05.999Z</time></trkpt><trkpt lat="39.050826030161666" lon="16.110808026256173"><ele>10.0</ele><time>2026-05-01T11:53:07.999Z</time></trkpt><trkpt lat="39.05088344511336" lon="16.1109069950374"><ele>10.0</ele><time>2026-05-01T11:53:09.999Z</time></trkpt><trkpt lat="39.0509339341508" lon="16.110994131188946"><ele>10.0</ele><time>2026-05-01T11:53:11.999Z</time></trkpt><trkpt lat="39.05098771499108" lon="16.11108714159968"><ele>10.0</ele><time>2026-05-01T11:53:14.999Z</time></trkpt><trkpt lat="39.05103398450258" lon="16.111167597541804"><ele>10.0</ele><time>2026-05-01T11:53:17.999Z</time></trkpt><trkpt lat="39.0510865530801" lon="16.1112609667855"><ele>10.0</ele><time>2026-05-01T11:53:20.999Z</time></trkpt><trkpt lat="39.05113934451628" lon="16.111354731913273"><ele>10.0</ele><time>2026-05-01T11:53:23.999Z</time></trkpt><trkpt lat="39.05118846883155" lon="16.11144041365373"><ele>10.0</ele><time>2026-05-01T11:53:26.999Z</time></trkpt><trkpt lat="39.05122977254859" lon="16.11151190711742"><ele>10.0</ele><time>2026-05-01T11:53:28.999Z</time></trkpt><trkpt lat="39.05128152906519" lon="16.11160149353862"><ele>10.0</ele><time>2026-05-01T11:53:31.999Z</time></trkpt><trkpt lat="39.051341585429995" lon="16.111702509161923"><ele>10.0</ele><time>2026-05-01T11:53:34.999Z</time></trkpt><trkpt lat="39.05139674323612" lon="16.11179223053035"><ele>10.0</ele><time>2026-05-01T11:53:36.999Z</time></trkpt><trkpt lat="39.05143845251319" lon="16.11185897728248"><ele>10.142857142857142</ele><time>2026-05-01T11:53:38.999Z</time></trkpt><trkpt lat="39.051478868277165" lon="16.11192365405252"><ele>10.285714285714286</ele><time>2026-05-01T11:53:41Z</time></trkpt><trkpt lat="39.051531748289456" lon="16.11200827715175"><ele>10.428571428571429</ele><time>2026-05-01T11:53:43Z</time></trkpt><trkpt lat="39.051578167549735" lon="16.112083562767893"><ele>10.571428571428571</ele><time>2026-05-01T11:53:45Z</time></trkpt><trkpt lat="39.05162133636707" lon="16.112157702595137"><ele>10.714285714285714</ele><time>2026-05-01T11:53:47Z</time></trkpt><trkpt lat="39.05166281990588" lon="16.11222894813739"><ele>10.857142857142858</ele><time>2026-05-01T11:53:49Z</time></trkpt><trkpt lat="39.0517137364473" lon="16.112312903236813"><ele>11.0</ele><time>2026-05-01T11:53:51Z</time></trkpt><trkpt lat="39.05176455746364" lon="16.11239687507723"><ele>11.8</ele><time>2026-05-01T11:53:53Z</time></trkpt><trkpt lat="39.051815064602245" lon="16.112481783616357"><ele>12.600000000000001</ele><time>2026-05-01T11:53:55Z</time></trkpt><trkpt lat="39.05188073578971" lon="16.11259451719961"><ele>13.4</ele><time>2026-05-01T11:53:57Z</time></trkpt><trkpt lat="39.051919764247955" lon="16.112662783018"><ele>14.2</ele><time>2026-05-01T11:53:58Z</time></trkpt><trkpt lat="39.05195823061203" lon="16.11273432512608"><ele>15.0</ele><time>2026-05-01T11:53:59Z</time></trkpt><trkpt lat="39.05230352198826" lon="16.112792006703863"><ele>15.0</ele><time>2026-05-01T11:54:08.999Z</time></trkpt><trkpt lat="39.05227770096145" lon="16.112872013097373"><ele>15.0</ele><time>2026-05-01T11:54:14.999Z</time></trkpt><trkpt lat="39.05218449893383" lon="16.112899721687274"><ele>15.0</ele><time>2026-05-01T11:54:16.999Z</time></trkpt><trkpt lat="39.05209001469723" lon="16.112967408982037"><ele>15.0</ele><time>2026-05-01T11:54:18.999Z</time></trkpt><trkpt lat="39.05204174059566" lon="16.11286429738685"><ele>15.0</ele><time>2026-05-01T11:54:21.999Z</time></trkpt><trkpt lat="39.052005385910135" lon="16.112722683840637"><ele>15.0</ele><time>2026-05-01T11:54:23.999Z</time></trkpt><trkpt lat="39.051959551539824" lon="16.112659585900076"><ele>15.0</ele><time>2026-05-01T11:54:24.999Z</time></trkpt><trkpt lat="39.05190724915031" lon="16.112568614927987"><ele>15.0</ele><time>2026-05-01T11:54:26.999Z</time></trkpt><trkpt lat="39.05185081041461" lon="16.11247173014621"><ele>15.0</ele><time>2026-05-01T11:54:29.999Z</time></trkpt><trkpt lat="39.05177940308453" lon="16.11238303821048"><ele>15.0</ele><time>2026-05-01T11:54:31.999Z</time></trkpt><trkpt lat="39.05170576992997" lon="16.112251338338382"><ele>14.5</ele><time>2026-05-01T11:54:33.999Z</time></trkpt><trkpt lat="39.05166059117356" lon="16.11218036875014"><ele>14.0</ele><time>2026-05-01T11:54:34.999Z</time></trkpt><trkpt lat="39.05161633114632" lon="16.11210056812689"><ele>13.5</ele><time>2026-05-01T11:54:35.999Z</time></trkpt><trkpt lat="39.05157183672234" lon="16.112024227494672"><ele>13.0</ele><time>2026-05-01T11:54:36.999Z</time></trkpt><trkpt lat="39.051522958275605" lon="16.111953503555746"><ele>12.5</ele><time>2026-05-01T11:54:37.999Z</time></trkpt><trkpt lat="39.05148201654767" lon="16.11188411076577"><ele>12.0</ele><time>2026-05-01T11:54:38.999Z</time></trkpt><trkpt lat="39.05141194734015" lon="16.111768841713157"><ele>12.0</ele><time>2026-05-01T11:54:40.999Z</time></trkpt><trkpt lat="39.05134267592207" lon="16.1116597315415"><ele>12.0</ele><time>2026-05-01T11:54:42.999Z</time></trkpt><trkpt lat="39.05131077035831" lon="16.111580157309756"><ele>12.0</ele><time>2026-05-01T11:54:44.999Z</time></trkpt><trkpt lat="39.051194526816936" lon="16.111653093959962"><ele>12.0</ele><time>2026-05-01T11:54:47.999Z</time></trkpt><trkpt lat="39.05108699159743" lon="16.111704586547077"><ele>12.0</ele><time>2026-05-01T11:54:49.999Z</time></trkpt><trkpt lat="39.051012365484425" lon="16.11173765138081"><ele>12.0</ele><time>2026-05-01T11:54:50.999Z</time></trkpt><trkpt lat="39.0509389795525" lon="16.1117673245764"><ele>12.0</ele><time>2026-05-01T11:54:51.999Z</time></trkpt><trkpt lat="39.05088180347601" lon="16.11180908446649"><ele>12.0</ele><time>2026-05-01T11:54:52.999Z</time></trkpt><trkpt lat="39.0508094024206" lon="16.11181720252692"><ele>12.0</ele><time>2026-05-01T11:54:53.999Z</time></trkpt><trkpt lat="39.05069490265479" lon="16.111873751439973"><ele>12.0</ele><time>2026-05-01T11:54:55.999Z</time></trkpt><trkpt lat="39.05058896343492" lon="16.111901041006686"><ele>12.0</ele><time>2026-05-01T11:54:57.999Z</time></trkpt><trkpt lat="39.05048659713345" lon="16.11191677972744"><ele>12.2</ele><time>2026-05-01T11:54:59.999Z</time></trkpt><trkpt lat="39.050399982011974" lon="16.11196934719137"><ele>12.399999999999999</ele><time>2026-05-01T11:55:01.999Z</time></trkpt><trkpt lat="39.050315381648225" lon="16.11200169412893"><ele>12.600000000000001</ele><time>2026-05-01T11:55:03.999Z</time></trkpt><trkpt lat="39.05020706600447" lon="16.11203263829183"><ele>12.8</ele><time>2026-05-01T11:55:05.999Z</time></trkpt><trkpt lat="39.050109874198895" lon="16.112035850560808"><ele>13.0</ele><time>2026-05-01T11:55:07.999Z</time></trkpt><trkpt lat="39.0500245268711" lon="16.112070984653332"><ele>12.666666666666666</ele><time>2026-05-01T11:55:09.999Z</time></trkpt><trkpt lat="39.049936147952835" lon="16.11209540005047"><ele>12.333333333333332</ele><time>2026-05-01T11:55:11.999Z</time></trkpt><trkpt lat="39.04985311001081" lon="16.112112421363356"><ele>12.0</ele><time>2026-05-01T11:55:13.999Z</time></trkpt><trkpt lat="39.04976873180054" lon="16.112117200708393"><ele>11.666666666666666</ele><time>2026-05-01T11:55:15.999Z</time></trkpt><trkpt lat="39.049700365655006" lon="16.11213653899781"><ele>11.333333333333332</ele><time>2026-05-01T11:55:17.999Z</time></trkpt><trkpt lat="39.04961777924874" lon="16.112166076302422"><ele>11.0</ele><time>2026-05-01T11:55:27.999Z</time></trkpt><trkpt lat="39.0495519927714" lon="16.11219132088639"><ele>11.0</ele><time>2026-05-01T11:55:29.999Z</time></trkpt><trkpt lat="39.04948115190896" lon="16.112210208867577"><ele>11.0</ele><time>2026-05-01T11:55:31.999Z</time></trkpt><trkpt lat="39.04940547566711" lon="16.112224742472545"><ele>11.0</ele><time>2026-05-01T11:55:33.999Z</time></trkpt><trkpt lat="39.04932548524289" lon="16.11223592809869"><ele>11.0</ele><time>2026-05-01T11:55:35.999Z</time></trkpt><trkpt lat="39.04925371459332" lon="16.112262129811125"><ele>11.0</ele><time>2026-05-01T11:55:37.999Z</time></trkpt><trkpt lat="39.049166821499234" lon="16.112236335907756"><ele>11.0</ele><time>2026-05-01T11:55:40.999Z</time></trkpt><trkpt lat="39.049159653633986" lon="16.112080286784987"><ele>11.0</ele><time>2026-05-01T11:55:44.999Z</time></trkpt><trkpt lat="39.04911296507219" lon="16.112003126164907"><ele>11.0</ele><time>2026-05-01T11:55:47.999Z</time></trkpt><trkpt lat="39.04915054142031" lon="16.112108009833825"><ele>11.0</ele><time>2026-05-01T11:56:03.999Z</time></trkpt><trkpt lat="39.049163137499015" lon="16.11220781691707"><ele>11.0</ele><time>2026-05-01T11:56:05.999Z</time></trkpt><trkpt lat="39.04924224998996" lon="16.112284619607397"><ele>11.0</ele><time>2026-05-01T11:56:08.999Z</time></trkpt><trkpt lat="39.04934956631298" lon="16.112273088762358"><ele>11.0</ele><time>2026-05-01T11:56:10.999Z</time></trkpt><trkpt lat="39.04945192233731" lon="16.112257869854233"><ele>11.0</ele><time>2026-05-01T11:56:12.999Z</time></trkpt><trkpt lat="39.04953623443674" lon="16.112229552315004"><ele>11.0</ele><time>2026-05-01T11:56:14.999Z</time></trkpt><trkpt lat="39.04959948181617" lon="16.112202577759238"><ele>11.0</ele><time>2026-05-01T11:56:16.999Z</time></trkpt><trkpt lat="39.04968090338679" lon="16.11216513568817"><ele>11.0</ele><time>2026-05-01T11:56:19.999Z</time></trkpt><trkpt lat="39.049767912639226" lon="16.112160061835926"><ele>11.0</ele><time>2026-05-01T11:56:22.999Z</time></trkpt><trkpt lat="39.04984397714475" lon="16.112124865717252"><ele>11.0</ele><time>2026-05-01T11:56:24.999Z</time></trkpt><trkpt lat="39.04991995432596" lon="16.112124615256118"><ele>11.0</ele><time>2026-05-01T11:56:26.999Z</time></trkpt><trkpt lat="39.05000293543501" lon="16.112104827272063"><ele>11.0</ele><time>2026-05-01T11:56:28.999Z</time></trkpt><trkpt lat="39.05007157858981" lon="16.11207367726273"><ele>11.0</ele><time>2026-05-01T11:56:30.999Z</time></trkpt><trkpt lat="39.050165228680626" lon="16.112049507973257"><ele>11.0</ele><time>2026-05-01T11:56:32.999Z</time></trkpt><trkpt lat="39.05026033344098" lon="16.112027886494385"><ele>11.0</ele><time>2026-05-01T11:56:34.999Z</time></trkpt><trkpt lat="39.0503455732374" lon="16.11199866681099"><ele>11.166666666666666</ele><time>2026-05-01T11:56:36.999Z</time></trkpt><trkpt lat="39.050420520964614" lon="16.11196725876108"><ele>11.333333333333332</ele><time>2026-05-01T11:56:38.999Z</time></trkpt><trkpt lat="39.05050066119795" lon="16.111936761968654"><ele>11.5</ele><time>2026-05-01T11:56:40.999Z</time></trkpt><trkpt lat="39.05058386012025" lon="16.111911526758206"><ele>11.666666666666666</ele><time>2026-05-01T11:56:42.999Z</time></trkpt><trkpt lat="39.050673666800385" lon="16.111886251924986"><ele>11.833333333333334</ele><time>2026-05-01T11:56:44.999Z</time></trkpt><trkpt lat="39.05076363565321" lon="16.11186042889276"><ele>12.0</ele><time>2026-05-01T11:56:46.999Z</time></trkpt><trkpt lat="39.05088355276635" lon="16.111820007026644"><ele>12.0</ele><time>2026-05-01T11:56:48.999Z</time></trkpt><trkpt lat="39.0509553740368" lon="16.111792171249856"><ele>12.0</ele><time>2026-05-01T11:56:49.999Z</time></trkpt><trkpt lat="39.05103642534274" lon="16.111766306377515"><ele>12.0</ele><time>2026-05-01T11:56:50.999Z</time></trkpt><trkpt lat="39.051121276105455" lon="16.111735255843247"><ele>12.0</ele><time>2026-05-01T11:56:51.999Z</time></trkpt><trkpt lat="39.051187118142884" lon="16.111678510103566"><ele>12.0</ele><time>2026-05-01T11:56:52.999Z</time></trkpt><trkpt lat="39.05125382769333" lon="16.111652962870117"><ele>12.0</ele><time>2026-05-01T11:56:53.999Z</time></trkpt><trkpt lat="39.05131227859264" lon="16.11162102678278"><ele>12.0</ele><time>2026-05-01T11:56:55.999Z</time></trkpt><trkpt lat="39.051366835183515" lon="16.111744369217114"><ele>12.0</ele><time>2026-05-01T11:56:57.999Z</time></trkpt><trkpt lat="39.05141589480938" lon="16.111822878504203"><ele>12.0</ele><time>2026-05-01T11:56:58.999Z</time></trkpt><trkpt lat="39.05147671210555" lon="16.111920203533394"><ele>12.0</ele><time>2026-05-01T11:56:59.999Z</time></trkpt><trkpt lat="39.05153358996159" lon="16.112011224336"><ele>12.0</ele><time>2026-05-01T11:57:00.999Z</time></trkpt><trkpt lat="39.051591096471626" lon="16.112078598232777"><ele>11.8</ele><time>2026-05-01T11:57:01.999Z</time></trkpt><trkpt lat="39.05162832133331" lon="16.11216969882173"><ele>11.6</ele><time>2026-05-01T11:57:02.999Z</time></trkpt><trkpt lat="39.0516983153379" lon="16.112254305356938"><ele>11.4</ele><time>2026-05-01T11:57:03.999Z</time></trkpt><trkpt lat="39.051748036541426" lon="16.11236957752454"><ele>11.200000000000001</ele><time>2026-05-01T11:57:04.999Z</time></trkpt><trkpt lat="39.05181751726741" lon="16.112453301598073"><ele>11.0</ele><time>2026-05-01T11:57:05.999Z</time></trkpt><trkpt lat="39.05186897188879" lon="16.112550517679175"><ele>11.666666666666666</ele><time>2026-05-01T11:57:06.999Z</time></trkpt><trkpt lat="39.05191252421243" lon="16.11262488992404"><ele>12.333333333333332</ele><time>2026-05-01T11:57:07.999Z</time></trkpt><trkpt lat="39.051968881927095" lon="16.11271734123036"><ele>13.0</ele><time>2026-05-01T11:57:09.999Z</time></trkpt><trkpt lat="39.05200266824682" lon="16.112826773978345"><ele>13.666666666666666</ele><time>2026-05-01T11:57:11.999Z</time></trkpt><trkpt lat="39.052057598653214" lon="16.112909417619058"><ele>14.333333333333334</ele><time>2026-05-01T11:57:13.999Z</time></trkpt><trkpt lat="39.05207853337901" lon="16.11299592287016"><ele>15.0</ele><time>2026-05-01T11:57:17.999Z</time></trkpt><trkpt lat="39.05220895198748" lon="16.112927353210196"><ele>15.0</ele><time>2026-05-01T11:57:18.999Z</time></trkpt><trkpt lat="39.05229246158457" lon="16.112851038263685"><ele>15.0</ele><time>2026-05-01T11:57:19.999Z</time></trkpt><trkpt lat="39.052387069306036" lon="16.11277565919583"><ele>15.0</ele><time>2026-05-01T11:57:20.999Z</time></trkpt><trkpt lat="39.0524887696914" lon="16.112705887573767"><ele>15.0</ele><time>2026-05-01T11:57:21.999Z</time></trkpt><trkpt lat="39.052578734342" lon="16.11263144646749"><ele>15.0</ele><time>2026-05-01T11:57:22.999Z</time></trkpt><trkpt lat="39.05266269986056" lon="16.112557337483896"><ele>14.6</ele><time>2026-05-01T11:57:23.999Z</time></trkpt><trkpt lat="39.052738434697716" lon="16.112475677382466"><ele>14.2</ele><time>2026-05-01T11:57:24.999Z</time></trkpt><trkpt lat="39.05280418075367" lon="16.112396018511408"><ele>13.8</ele><time>2026-05-01T11:57:25.999Z</time></trkpt><trkpt lat="39.052856395349345" lon="16.112300083902316"><ele>13.4</ele><time>2026-05-01T11:57:26.999Z</time></trkpt><trkpt lat="39.05292280521507" lon="16.112209859497714"><ele>13.0</ele><time>2026-05-01T11:57:27.999Z</time></trkpt><trkpt lat="39.052969330832326" lon="16.112120526998748"><ele>12.499999999999998</ele><time>2026-05-01T11:57:28.999Z</time></trkpt><trkpt lat="39.05301543056976" lon="16.112032087333112"><ele>12.0</ele><time>2026-05-01T11:57:29.999Z</time></trkpt><trkpt lat="39.05305740331278" lon="16.11195151219305"><ele>11.5</ele><time>2026-05-01T11:57:30.999Z</time></trkpt><trkpt lat="39.05309800765611" lon="16.111876250863993"><ele>11.0</ele><time>2026-05-01T11:57:31.999Z</time></trkpt><trkpt lat="39.05313630329423" lon="16.111803350059745"><ele>10.5</ele><time>2026-05-01T11:57:32.999Z</time></trkpt><trkpt lat="39.05317317958576" lon="16.111735639743493"><ele>10.0</ele><time>2026-05-01T11:57:33.999Z</time></trkpt><trkpt lat="39.05323861643848" lon="16.111620262174014"><ele>10.0</ele><time>2026-05-01T11:57:35.999Z</time></trkpt><trkpt lat="39.05329977841205" lon="16.111531556475256"><ele>10.0</ele><time>2026-05-01T11:57:37.999Z</time></trkpt><trkpt lat="39.053239904700355" lon="16.11147992955313"><ele>10.0</ele><time>2026-05-01T11:57:43.999Z</time></trkpt><trkpt lat="39.05319093432048" lon="16.11162881430648"><ele>10.0</ele><time>2026-05-01T11:57:45.999Z</time></trkpt><trkpt lat="39.053152259423086" lon="16.111713760493203"><ele>10.0</ele><time>2026-05-01T11:57:46.999Z</time></trkpt><trkpt lat="39.05310162253852" lon="16.111821293765498"><ele>10.0</ele><time>2026-05-01T11:57:47.999Z</time></trkpt><trkpt lat="39.05304132654912" lon="16.111945691464243"><ele>10.0</ele><time>2026-05-01T11:57:48.999Z</time></trkpt><trkpt lat="39.052977382304775" lon="16.112068129063196"><ele>10.0</ele><time>2026-05-01T11:57:49.999Z</time></trkpt><trkpt lat="39.052906463642614" lon="16.112214659703866"><ele>10.0</ele><time>2026-05-01T11:57:50.999Z</time></trkpt><trkpt lat="39.0528133194574" lon="16.11236502858358"><ele>11.0</ele><time>2026-05-01T11:57:51.999Z</time></trkpt><trkpt lat="39.05269009260645" lon="16.112501144161307"><ele>12.0</ele><time>2026-05-01T11:57:52.999Z</time></trkpt><trkpt lat="39.05254352337076" lon="16.112620550549316"><ele>13.0</ele><time>2026-05-01T11:57:53.999Z</time></trkpt><trkpt lat="39.052393855375755" lon="16.112753064042504"><ele>13.5</ele><time>2026-05-01T11:57:54.999Z</time></trkpt><trkpt lat="39.05228896814455" lon="16.112853947454344"><ele>14.0</ele><time>2026-05-01T11:57:55.999Z</time></trkpt><trkpt lat="39.05214793439465" lon="16.112943170780856"><ele>14.5</ele><time>2026-05-01T11:57:56.999Z</time></trkpt><trkpt lat="39.05202535932255" lon="16.113009034758417"><ele>15.0</ele><time>2026-05-01T11:57:57.999Z</time></trkpt><trkpt lat="39.051899855698295" lon="16.113040501096783"><ele>15.0</ele><time>2026-05-01T11:57:58.999Z</time></trkpt><trkpt lat="39.0517637625685" lon="16.11302944887979"><ele>15.0</ele><time>2026-05-01T11:57:59.999Z</time></trkpt><trkpt lat="39.05163481973692" lon="16.11294129459449"><ele>15.0</ele><time>2026-05-01T11:58:00.999Z</time></trkpt><trkpt lat="39.05149243248549" lon="16.112862790211377"><ele>15.0</ele><time>2026-05-01T11:58:01.999Z</time></trkpt><trkpt lat="39.051347502944395" lon="16.112801659251268"><ele>16.666666666666668</ele><time>2026-05-01T11:58:03Z</time></trkpt><trkpt lat="39.05120963551204" lon="16.112728486820636"><ele>18.333333333333336</ele><time>2026-05-01T11:58:04Z</time></trkpt><trkpt lat="39.05105776226805" lon="16.112691254774006"><ele>20.0</ele><time>2026-05-01T11:58:05Z</time></trkpt><trkpt lat="39.05088795725922" lon="16.112683404739485"><ele>20.333333333333336</ele><time>2026-05-01T11:58:06Z</time></trkpt><trkpt lat="39.0507162665399" lon="16.112688534991555"><ele>20.666666666666668</ele><time>2026-05-01T11:58:07Z</time></trkpt><trkpt lat="39.05055209460041" lon="16.112697435258397"><ele>21.0</ele><time>2026-05-01T11:58:08Z</time></trkpt><trkpt lat="39.05040618915828" lon="16.112719135677"><ele>21.0</ele><time>2026-05-01T11:58:09Z</time></trkpt><trkpt lat="39.05027059914888" lon="16.11276890806766"><ele>21.0</ele><time>2026-05-01T11:58:10Z</time></trkpt><trkpt lat="39.05013998836158" lon="16.112860709005158"><ele>21.0</ele><time>2026-05-01T11:58:11Z</time></trkpt><trkpt lat="39.0500204778307" lon="16.11300272625676"><ele>20.0</ele><time>2026-05-01T11:58:12Z</time></trkpt><trkpt lat="39.04989752405153" lon="16.11315092717235"><ele>19.0</ele><time>2026-05-01T11:58:13Z</time></trkpt><trkpt lat="39.049771964487704" lon="16.11330162240042"><ele>18.0</ele><time>2026-05-01T11:58:14Z</time></trkpt><trkpt lat="39.04964201067847" lon="16.113444421127827"><ele>20.666666666666664</ele><time>2026-05-01T11:58:15Z</time></trkpt><trkpt lat="39.04950621261502" lon="16.113584366394903"><ele>23.333333333333332</ele><time>2026-05-01T11:58:16Z</time></trkpt><trkpt lat="39.04936290787442" lon="16.113732781127325"><ele>26.0</ele><time>2026-05-01T11:58:17Z</time></trkpt><trkpt lat="39.049224481584844" lon="16.113883297472842"><ele>26.333333333333332</ele><time>2026-05-01T11:58:18Z</time></trkpt><trkpt lat="39.04907421427099" lon="16.114022564414704"><ele>26.666666666666664</ele><time>2026-05-01T11:58:19Z</time></trkpt><trkpt lat="39.04892792898429" lon="16.114177716866468"><ele>27.0</ele><time>2026-05-01T11:58:20Z</time></trkpt><trkpt lat="39.0487851589549" lon="16.114329140943905"><ele>27.0</ele><time>2026-05-01T11:58:21Z</time></trkpt><trkpt lat="39.04864340717381" lon="16.11447451577571"><ele>27.0</ele><time>2026-05-01T11:58:22Z</time></trkpt><trkpt lat="39.04849939952456" lon="16.114626682886968"><ele>27.0</ele><time>2026-05-01T11:58:23Z</time></trkpt><trkpt lat="39.048365937676635" lon="16.11479893100604"><ele>29.0</ele><time>2026-05-01T11:58:24Z</time></trkpt><trkpt lat="39.04821635816329" lon="16.114947748762656"><ele>31.0</ele><time>2026-05-01T11:58:25Z</time></trkpt><trkpt lat="39.04805647248168" lon="16.11508679324486"><ele>33.0</ele><time>2026-05-01T11:58:26Z</time></trkpt><trkpt lat="39.04790184443216" lon="16.115242412938134"><ele>33.0</ele><time>2026-05-01T11:58:27Z</time></trkpt><trkpt lat="39.04774846517217" lon="16.115406315992885"><ele>33.0</ele><time>2026-05-01T11:58:28Z</time></trkpt><trkpt lat="39.04759641483542" lon="16.115570138395267"><ele>33.0</ele><time>2026-05-01T11:58:29Z</time></trkpt><trkpt lat="39.04744512132138" lon="16.11573314539005"><ele>33.666666666666664</ele><time>2026-05-01T11:58:30Z</time></trkpt><trkpt lat="39.047295013825305" lon="16.115891698535147"><ele>34.33333333333333</ele><time>2026-05-01T11:58:31Z</time></trkpt><trkpt lat="39.04715384572688" lon="16.11603577581023"><ele>35.0</ele><time>2026-05-01T11:58:32Z</time></trkpt><trkpt lat="39.0470284496305" lon="16.1161736978787"><ele>35.0</ele><time>2026-05-01T11:58:33Z</time></trkpt><trkpt lat="39.046936540614" lon="16.116314984941113"><ele>35.0</ele><time>2026-05-01T11:58:34Z</time></trkpt><trkpt lat="39.046866159043496" lon="16.11645073352781"><ele>35.0</ele><time>2026-05-01T11:58:35Z</time></trkpt><trkpt lat="39.04679327559621" lon="16.11658013545695"><ele>35.0</ele><time>2026-05-01T11:58:36Z</time></trkpt><trkpt lat="39.04680052235914" lon="16.116770538366172"><ele>35.75</ele><time>2026-05-01T11:58:37Z</time></trkpt><trkpt lat="39.04678039213306" lon="16.11695216456676"><ele>36.5</ele><time>2026-05-01T11:58:38Z</time></trkpt><trkpt lat="39.046749865469664" lon="16.11713984333601"><ele>37.25</ele><time>2026-05-01T11:58:39Z</time></trkpt><trkpt lat="39.04671527425773" lon="16.117332650697925"><ele>38.0</ele><time>2026-05-01T11:58:40Z</time></trkpt><trkpt lat="39.04666201607639" lon="16.117520802462053"><ele>35.0</ele><time>2026-05-01T11:58:41Z</time></trkpt><trkpt lat="39.046625430456615" lon="16.117704239370294"><ele>32.0</ele><time>2026-05-01T11:58:42Z</time></trkpt><trkpt lat="39.04658670423783" lon="16.117875735436655"><ele>29.0</ele><time>2026-05-01T11:58:43Z</time></trkpt><trkpt lat="39.04655580261975" lon="16.118053477775206"><ele>26.0</ele><time>2026-05-01T11:58:44Z</time></trkpt><trkpt lat="39.04655620431702" lon="16.11822291367129"><ele>27.0</ele><time>2026-05-01T11:58:45Z</time></trkpt><trkpt lat="39.04655603555861" lon="16.118383971790017"><ele>28.0</ele><time>2026-05-01T11:58:46Z</time></trkpt><trkpt lat="39.04657093238652" lon="16.118533011707893"><ele>29.0</ele><time>2026-05-01T11:58:47Z</time></trkpt><trkpt lat="39.046536414055275" lon="16.11866976557556"><ele>30.0</ele><time>2026-05-01T11:58:48Z</time></trkpt><trkpt lat="39.04648982826809" lon="16.118796467406852"><ele>30.0</ele><time>2026-05-01T11:58:49Z</time></trkpt><trkpt lat="39.046419024872236" lon="16.118895994156397"><ele>30.0</ele><time>2026-05-01T11:58:50Z</time></trkpt><trkpt lat="39.04633047592802" lon="16.11896337516519"><ele>30.0</ele><time>2026-05-01T11:58:51Z</time></trkpt><trkpt lat="39.04623711376112" lon="16.11901962430348"><ele>30.0</ele><time>2026-05-01T11:58:52Z</time></trkpt><trkpt lat="39.04614143308927" lon="16.11904337278749"><ele>30.0</ele><time>2026-05-01T11:58:53Z</time></trkpt><trkpt lat="39.04603627739474" lon="16.119000760088138"><ele>30.0</ele><time>2026-05-01T11:58:54Z</time></trkpt><trkpt lat="39.04591217563648" lon="16.118948147034512"><ele>30.0</ele><time>2026-05-01T11:58:55Z</time></trkpt><trkpt lat="39.04577198525544" lon="16.118892995644057"><ele>30.0</ele><time>2026-05-01T11:58:56Z</time></trkpt><trkpt lat="39.045624123620435" lon="16.118847627621207"><ele>30.0</ele><time>2026-05-01T11:58:57Z</time></trkpt><trkpt lat="39.04547183174184" lon="16.118788160708316"><ele>30.333333333333336</ele><time>2026-05-01T11:58:58Z</time></trkpt><trkpt lat="39.04531182907691" lon="16.11871712982326"><ele>30.666666666666668</ele><time>2026-05-01T11:58:59Z</time></trkpt><trkpt lat="39.04514750797581" lon="16.11865591652421"><ele>31.0</ele><time>2026-05-01T11:59:00Z</time></trkpt><trkpt lat="39.04497372202863" lon="16.11860811694342"><ele>32.333333333333336</ele><time>2026-05-01T11:59:01Z</time></trkpt><trkpt lat="39.04480495061438" lon="16.118545846548646"><ele>33.666666666666664</ele><time>2026-05-01T11:59:02Z</time></trkpt><trkpt lat="39.04463718403141" lon="16.11848158676868"><ele>35.0</ele><time>2026-05-01T11:59:03Z</time></trkpt><trkpt lat="39.044483257481794" lon="16.118412180491536"><ele>35.0</ele><time>2026-05-01T11:59:04Z</time></trkpt><trkpt lat="39.04433956275531" lon="16.118356770705887"><ele>35.0</ele><time>2026-05-01T11:59:05Z</time></trkpt><trkpt lat="39.04420930574903" lon="16.11831664640321"><ele>35.0</ele><time>2026-05-01T11:59:06Z</time></trkpt><trkpt lat="39.04408750089611" lon="16.118305488202342"><ele>35.0</ele><time>2026-05-01T11:59:07Z</time></trkpt><trkpt lat="39.043975498828864" lon="16.118332266263685"><ele>32.75</ele><time>2026-05-01T11:59:08Z</time></trkpt><trkpt lat="39.04385302998604" lon="16.118394092227735"><ele>30.5</ele><time>2026-05-01T11:59:09Z</time></trkpt><trkpt lat="39.043731391893495" lon="16.118481558007794"><ele>28.25</ele><time>2026-05-01T11:59:10Z</time></trkpt><trkpt lat="39.04359590386702" lon="16.11854301063453"><ele>26.0</ele><time>2026-05-01T11:59:11Z</time></trkpt><trkpt lat="39.043456841578504" lon="16.118620518745"><ele>26.0</ele><time>2026-05-01T11:59:12Z</time></trkpt><trkpt lat="39.04331233777993" lon="16.118685974431543"><ele>26.0</ele><time>2026-05-01T11:59:13Z</time></trkpt><trkpt lat="39.04315596877537" lon="16.118741881072264"><ele>26.0</ele><time>2026-05-01T11:59:14Z</time></trkpt><trkpt lat="39.04299857680727" lon="16.11878961170922"><ele>25.0</ele><time>2026-05-01T11:59:15Z</time></trkpt><trkpt lat="39.04285058333692" lon="16.118868000336075"><ele>24.0</ele><time>2026-05-01T11:59:16Z</time></trkpt><trkpt lat="39.042714498210366" lon="16.118933722804726"><ele>23.0</ele><time>2026-05-01T11:59:17Z</time></trkpt><trkpt lat="39.042616329561056" lon="16.118993696388916"><ele>22.0</ele><time>2026-05-01T11:59:18Z</time></trkpt><trkpt lat="39.04253886383047" lon="16.119058849499385"><ele>21.666666666666664</ele><time>2026-05-01T11:59:19Z</time></trkpt><trkpt lat="39.04245874344312" lon="16.11911080566495"><ele>21.333333333333332</ele><time>2026-05-01T11:59:20Z</time></trkpt><trkpt lat="39.042388411044016" lon="16.11918623673828"><ele>21.0</ele><time>2026-05-01T11:59:21Z</time></trkpt><trkpt lat="39.04232084562838" lon="16.11926556036018"><ele>20.666666666666668</ele><time>2026-05-01T11:59:22Z</time></trkpt><trkpt lat="39.04225657781308" lon="16.119348306301834"><ele>20.333333333333336</ele><time>2026-05-01T11:59:23Z</time></trkpt><trkpt lat="39.04219948300236" lon="16.119429422712006"><ele>20.0</ele><time>2026-05-01T11:59:24Z</time></trkpt><trkpt lat="39.042143656790365" lon="16.11950873681985"><ele>20.0</ele><time>2026-05-01T11:59:25Z</time></trkpt><trkpt lat="39.042093641601944" lon="16.11958929785917"><ele>20.0</ele><time>2026-05-01T11:59:26Z</time></trkpt><trkpt lat="39.04205735032985" lon="16.119668925781394"><ele>20.0</ele><time>2026-05-01T11:59:27Z</time></trkpt><trkpt lat="39.04205271648514" lon="16.119765097046628"><ele>20.0</ele><time>2026-05-01T11:59:28Z</time></trkpt><trkpt lat="39.04211073767964" lon="16.119897264197043"><ele>20.0</ele><time>2026-05-01T11:59:30Z</time></trkpt><trkpt lat="39.042166249581236" lon="16.11995308190562"><ele>20.0</ele><time>2026-05-01T11:59:31Z</time></trkpt><trkpt lat="39.04223642606699" lon="16.12000419208908"><ele>20.2</ele><time>2026-05-01T11:59:32Z</time></trkpt><trkpt lat="39.0423180921014" lon="16.12005626051587"><ele>20.4</ele><time>2026-05-01T11:59:33Z</time></trkpt><trkpt lat="39.04240217682678" lon="16.12012144960149"><ele>20.6</ele><time>2026-05-01T11:59:34Z</time></trkpt><trkpt lat="39.042490612644805" lon="16.12019383073301"><ele>20.8</ele><time>2026-05-01T11:59:35Z</time></trkpt><trkpt lat="39.04258659366211" lon="16.12026506695881"><ele>21.0</ele><time>2026-05-01T11:59:36Z</time></trkpt><trkpt lat="39.042684353528486" lon="16.120345380414346"><ele>21.5</ele><time>2026-05-01T11:59:37Z</time></trkpt><trkpt lat="39.04278068590845" lon="16.120445159422353"><ele>22.0</ele><time>2026-05-01T11:59:38Z</time></trkpt><trkpt lat="39.04286767871372" lon="16.120557644987297"><ele>22.5</ele><time>2026-05-01T11:59:39Z</time></trkpt><trkpt lat="39.04294652592692" lon="16.120688021288974"><ele>23.0</ele><time>2026-05-01T11:59:40Z</time></trkpt><trkpt lat="39.04302087177706" lon="16.120817668723234"><ele>23.0</ele><time>2026-05-01T11:59:41Z</time></trkpt><trkpt lat="39.043071986461534" lon="16.12096278186953"><ele>23.0</ele><time>2026-05-01T11:59:42Z</time></trkpt><trkpt lat="39.04313246621172" lon="16.12111021674271"><ele>23.0</ele><time>2026-05-01T11:59:43Z</time></trkpt><trkpt lat="39.04318788541835" lon="16.121273311266076"><ele>23.0</ele><time>2026-05-01T11:59:44Z</time></trkpt><trkpt lat="39.04323236828268" lon="16.121447046730033"><ele>23.0</ele><time>2026-05-01T11:59:45Z</time></trkpt><trkpt lat="39.04327361677547" lon="16.121631357245942"><ele>23.0</ele><time>2026-05-01T11:59:46Z</time></trkpt><trkpt lat="39.04331198193596" lon="16.121820326324325"><ele>23.0</ele><time>2026-05-01T11:59:47Z</time></trkpt><trkpt lat="39.043348864071085" lon="16.12201385658393"><ele>26.5</ele><time>2026-05-01T11:59:48Z</time></trkpt><trkpt lat="39.04337710859782" lon="16.122210679297112"><ele>30.0</ele><time>2026-05-01T11:59:49Z</time></trkpt><trkpt lat="39.04338195309422" lon="16.122394713825887"><ele>33.5</ele><time>2026-05-01T11:59:50Z</time></trkpt><trkpt lat="39.043369039285466" lon="16.12257000894736"><ele>37.0</ele><time>2026-05-01T11:59:51Z</time></trkpt><trkpt lat="39.04334712072064" lon="16.122734292576254"><ele>37.0</ele><time>2026-05-01T11:59:52Z</time></trkpt><trkpt lat="39.04331636023734" lon="16.12289968280371"><ele>37.0</ele><time>2026-05-01T11:59:53Z</time></trkpt><trkpt lat="39.04328657173245" lon="16.12308042849397"><ele>37.0</ele><time>2026-05-01T11:59:54Z</time></trkpt><trkpt lat="39.04328272082083" lon="16.123265620301737"><ele>37.0</ele><time>2026-05-01T11:59:55Z</time></trkpt><trkpt lat="39.043268710987334" lon="16.12344976882282"><ele>34.25</ele><time>2026-05-01T11:59:56Z</time></trkpt><trkpt lat="39.04324772220637" lon="16.123623531507178"><ele>31.5</ele><time>2026-05-01T11:59:57Z</time></trkpt><trkpt lat="39.04323363783071" lon="16.123784438372613"><ele>28.75</ele><time>2026-05-01T11:59:58Z</time></trkpt><trkpt lat="39.04320501105409" lon="16.123937943799994"><ele>26.0</ele><time>2026-05-01T11:59:59Z</time></trkpt><trkpt lat="39.043162914403986" lon="16.124078155699333"><ele>25.999999999999996</ele><time>2026-05-01T12:00:00Z</time></trkpt><trkpt lat="39.04310511638291" lon="16.124194608692484"><ele>26.0</ele><time>2026-05-01T12:00:01Z</time></trkpt><trkpt lat="39.04304762164858" lon="16.1242913748518"><ele>26.0</ele><time>2026-05-01T12:00:02Z</time></trkpt><trkpt lat="39.042990021481145" lon="16.124377329093324"><ele>26.0</ele><time>2026-05-01T12:00:03Z</time></trkpt><trkpt lat="39.04293046168641" lon="16.124439547638453"><ele>25.999999999999996</ele><time>2026-05-01T12:00:04Z</time></trkpt><trkpt lat="39.042876150865396" lon="16.12450767459925"><ele>26.0</ele><time>2026-05-01T12:00:05Z</time></trkpt><trkpt lat="39.04281823383595" lon="16.124580325152124"><ele>26.0</ele><time>2026-05-01T12:00:06Z</time></trkpt><trkpt lat="39.04274531401728" lon="16.124632272717896"><ele>26.0</ele><time>2026-05-01T12:00:07Z</time></trkpt><trkpt lat="39.042696976972586" lon="16.12469982882379"><ele>26.0</ele><time>2026-05-01T12:00:08Z</time></trkpt><trkpt lat="39.04256174021128" lon="16.124614793394528"><ele>26.0</ele><time>2026-05-01T12:00:09Z</time></trkpt><trkpt lat="39.042468485552575" lon="16.12457551507117"><ele>26.0</ele><time>2026-05-01T12:00:10Z</time></trkpt><trkpt lat="39.04236856132295" lon="16.124533962496166"><ele>25.25</ele><time>2026-05-01T12:00:11Z</time></trkpt><trkpt lat="39.042260108860674" lon="16.12448898528121"><ele>24.5</ele><time>2026-05-01T12:00:12Z</time></trkpt><trkpt lat="39.04214679646566" lon="16.12444216796668"><ele>23.75</ele><time>2026-05-01T12:00:13Z</time></trkpt><trkpt lat="39.04202752810369" lon="16.124397572008576"><ele>23.0</ele><time>2026-05-01T12:00:14Z</time></trkpt><trkpt lat="39.04190385368042" lon="16.124360292345322"><ele>23.0</ele><time>2026-05-01T12:00:15Z</time></trkpt><trkpt lat="39.04178190011965" lon="16.124320213734457"><ele>23.0</ele><time>2026-05-01T12:00:16Z</time></trkpt><trkpt lat="39.04165926969906" lon="16.124276387956236"><ele>23.0</ele><time>2026-05-01T12:00:17Z</time></trkpt><trkpt lat="39.041530596230466" lon="16.12422912799839"><ele>23.0</ele><time>2026-05-01T12:00:18Z</time></trkpt><trkpt lat="39.04140034439031" lon="16.124185019656895"><ele>23.0</ele><time>2026-05-01T12:00:19Z</time></trkpt><trkpt lat="39.04127038501855" lon="16.124140802580307"><ele>23.0</ele><time>2026-05-01T12:00:20Z</time></trkpt><trkpt lat="39.04114067890589" lon="16.12409686951087"><ele>23.0</ele><time>2026-05-01T12:00:21Z</time></trkpt><trkpt lat="39.041013535000204" lon="16.124051451451905"><ele>23.0</ele><time>2026-05-01T12:00:22Z</time></trkpt><trkpt lat="39.04089455758092" lon="16.124010297960634"><ele>23.0</ele><time>2026-05-01T12:00:23Z</time></trkpt><trkpt lat="39.040776367816775" lon="16.123974298821715"><ele>23.0</ele><time>2026-05-01T12:00:24Z</time></trkpt><trkpt lat="39.04066307535542" lon="16.123931331829493"><ele>23.0</ele><time>2026-05-01T12:00:25Z</time></trkpt><trkpt lat="39.04056386564747" lon="16.123891901701416"><ele>23.0</ele><time>2026-05-01T12:00:26Z</time></trkpt><trkpt lat="39.0404740942953" lon="16.123863827136308"><ele>23.0</ele><time>2026-05-01T12:00:27Z</time></trkpt><trkpt lat="39.040380199393596" lon="16.123849194147354"><ele>23.0</ele><time>2026-05-01T12:00:28Z</time></trkpt><trkpt lat="39.040275404944225" lon="16.123845783278448"><ele>23.0</ele><time>2026-05-01T12:00:29Z</time></trkpt><trkpt lat="39.04016834390812" lon="16.12386154318896"><ele>23.0</ele><time>2026-05-01T12:00:30Z</time></trkpt><trkpt lat="39.040064715207635" lon="16.123877164274635"><ele>23.0</ele><time>2026-05-01T12:00:31Z</time></trkpt><trkpt lat="39.0399667785111" lon="16.123895891653707"><ele>23.0</ele><time>2026-05-01T12:00:32Z</time></trkpt><trkpt lat="39.03988660698159" lon="16.1239200527089"><ele>23.75</ele><time>2026-05-01T12:00:33Z</time></trkpt><trkpt lat="39.03980135624987" lon="16.123943303753915"><ele>24.5</ele><time>2026-05-01T12:00:35Z</time></trkpt><trkpt lat="39.03990185989112" lon="16.123905382566374"><ele>25.25</ele><time>2026-05-01T12:00:44Z</time></trkpt><trkpt lat="39.039994130118615" lon="16.124089648076524"><ele>26.0</ele><time>2026-05-01T12:00:45Z</time></trkpt><trkpt lat="39.04008588661781" lon="16.12412362826889"><ele>30.0</ele><time>2026-05-01T12:00:46Z</time></trkpt><trkpt lat="39.04025477740506" lon="16.124177000683595"><ele>34.0</ele><time>2026-05-01T12:00:47Z</time></trkpt><trkpt lat="39.04037647147598" lon="16.12418121944787"><ele>38.0</ele><time>2026-05-01T12:00:48Z</time></trkpt><trkpt lat="39.040509358997525" lon="16.12424099198449"><ele>42.0</ele><time>2026-05-01T12:00:50Z</time></trkpt><trkpt lat="39.04057453164689" lon="16.12429812326192"><ele>42.0</ele><time>2026-05-01T12:00:51Z</time></trkpt><trkpt lat="39.040635190020105" lon="16.12433845176997"><ele>42.0</ele><time>2026-05-01T12:00:52Z</time></trkpt><trkpt lat="39.040694532071136" lon="16.124377905126035"><ele>42.0</ele><time>2026-05-01T12:00:54Z</time></trkpt><trkpt lat="39.040741155911874" lon="16.124275590889624"><ele>42.0</ele><time>2026-05-01T12:00:57Z</time></trkpt><trkpt lat="39.04069271321881" lon="16.12436875659414"><ele>42.0</ele><time>2026-05-01T12:00:58Z</time></trkpt><trkpt lat="39.04063800426264" lon="16.124447640366885"><ele>42.0</ele><time>2026-05-01T12:00:59Z</time></trkpt><trkpt lat="39.04058047511339" lon="16.124513089626607"><ele>42.0</ele><time>2026-05-01T12:01:00Z</time></trkpt><trkpt lat="39.040526243112296" lon="16.12458437714352"><ele>42.0</ele><time>2026-05-01T12:01:01Z</time></trkpt><trkpt lat="39.04047042947359" lon="16.12465092964026"><ele>42.0</ele><time>2026-05-01T12:01:02Z</time></trkpt><trkpt lat="39.04041731201746" lon="16.124714177332145"><ele>42.0</ele><time>2026-05-01T12:01:03Z</time></trkpt><trkpt lat="39.04036696101241" lon="16.12478696446919"><ele>42.0</ele><time>2026-05-01T12:01:04Z</time></trkpt><trkpt lat="39.04030710445594" lon="16.124864417869766"><ele>42.0</ele><time>2026-05-01T12:01:05Z</time></trkpt><trkpt lat="39.04024667665054" lon="16.12493884725815"><ele>43.0</ele><time>2026-05-01T12:01:06Z</time></trkpt><trkpt lat="39.040180406980895" lon="16.12502073176378"><ele>44.0</ele><time>2026-05-01T12:01:07Z</time></trkpt><trkpt lat="39.04011748950106" lon="16.125110230794633"><ele>45.0</ele><time>2026-05-01T12:01:08Z</time></trkpt><trkpt lat="39.040059334752605" lon="16.125203068912118"><ele>46.0</ele><time>2026-05-01T12:01:09Z</time></trkpt><trkpt lat="39.04000759729342" lon="16.12529874679803"><ele>47.0</ele><time>2026-05-01T12:01:10Z</time></trkpt><trkpt lat="39.03995455317825" lon="16.125392742966927"><ele>53.0</ele><time>2026-05-01T12:01:11Z</time></trkpt><trkpt lat="39.039909310847655" lon="16.125477519626255"><ele>59.0</ele><time>2026-05-01T12:01:12Z</time></trkpt><trkpt lat="39.03986257645115" lon="16.1255563541184"><ele>65.0</ele><time>2026-05-01T12:01:13Z</time></trkpt><trkpt lat="39.039812936553794" lon="16.12563655293369"><ele>71.0</ele><time>2026-05-01T12:01:14Z</time></trkpt><trkpt lat="39.0397712850833" lon="16.125718879067904"><ele>77.0</ele><time>2026-05-01T12:01:15Z</time></trkpt><trkpt lat="39.03973811363298" lon="16.12580341587493"><ele>83.0</ele><time>2026-05-01T12:01:16Z</time></trkpt><trkpt lat="39.039706188734414" lon="16.125897670425292"><ele>84.0</ele><time>2026-05-01T12:01:17Z</time></trkpt><trkpt lat="39.0396834956138" lon="16.125992417476848"><ele>85.0</ele><time>2026-05-01T12:01:18Z</time></trkpt><trkpt lat="39.03966519940015" lon="16.126091414922666"><ele>86.0</ele><time>2026-05-01T12:01:19Z</time></trkpt><trkpt lat="39.039647856621855" lon="16.12618772197912"><ele>87.0</ele><time>2026-05-01T12:01:20Z</time></trkpt><trkpt lat="39.03963417002768" lon="16.12629572406065"><ele>88.0</ele><time>2026-05-01T12:01:21Z</time></trkpt><trkpt lat="39.039625896653604" lon="16.126406783079464"><ele>89.0</ele><time>2026-05-01T12:01:22Z</time></trkpt><trkpt lat="39.03961952663972" lon="16.126517919411526"><ele>88.4</ele><time>2026-05-01T12:01:23Z</time></trkpt><trkpt lat="39.03961918539947" lon="16.12661620162258"><ele>87.80000000000001</ele><time>2026-05-01T12:01:24Z</time></trkpt><trkpt lat="39.0396269396687" lon="16.126713695300865"><ele>87.19999999999999</ele><time>2026-05-01T12:01:25Z</time></trkpt><trkpt lat="39.039625517264014" lon="16.126860573544192"><ele>86.6</ele><time>2026-05-01T12:01:27Z</time></trkpt><trkpt lat="39.03965679230499" lon="16.127014900317665"><ele>86.0</ele><time>2026-05-01T12:01:29Z</time></trkpt><trkpt lat="39.039671293481554" lon="16.12711158897987"><ele>86.0</ele><time>2026-05-01T12:01:30Z</time></trkpt><trkpt lat="39.039694320433405" lon="16.127208910510944"><ele>86.0</ele><time>2026-05-01T12:01:31Z</time></trkpt><trkpt lat="39.0397204235425" lon="16.127310185781894"><ele>86.0</ele><time>2026-05-01T12:01:32Z</time></trkpt><trkpt lat="39.039756461008224" lon="16.127422145107"><ele>86.0</ele><time>2026-05-01T12:01:33Z</time></trkpt><trkpt lat="39.03979529660563" lon="16.12754431743186"><ele>86.0</ele><time>2026-05-01T12:01:34Z</time></trkpt><trkpt lat="39.0398380457214" lon="16.127675381424595"><ele>85.0</ele><time>2026-05-01T12:01:35Z</time></trkpt><trkpt lat="39.039885134902306" lon="16.127808344347603"><ele>84.0</ele><time>2026-05-01T12:01:36Z</time></trkpt><trkpt lat="39.03993040093121" lon="16.127946786018608"><ele>83.0</ele><time>2026-05-01T12:01:37Z</time></trkpt><trkpt lat="39.03997030792429" lon="16.1280829856259"><ele>82.0</ele><time>2026-05-01T12:01:38Z</time></trkpt><trkpt lat="39.04000247010596" lon="16.128221828022706"><ele>72.0</ele><time>2026-05-01T12:01:39Z</time></trkpt><trkpt lat="39.04002308760052" lon="16.128367316038908"><ele>62.0</ele><time>2026-05-01T12:01:40Z</time></trkpt><trkpt lat="39.04003493384579" lon="16.12852136911009"><ele>52.0</ele><time>2026-05-01T12:01:41Z</time></trkpt><trkpt lat="39.04003122176929" lon="16.128683565433466"><ele>42.0</ele><time>2026-05-01T12:01:42Z</time></trkpt><trkpt lat="39.04000383431936" lon="16.12883948967788"><ele>42.0</ele><time>2026-05-01T12:01:43Z</time></trkpt><trkpt lat="39.03997595973466" lon="16.12901772728866"><ele>42.0</ele><time>2026-05-01T12:01:44Z</time></trkpt><trkpt lat="39.039924328769445" lon="16.129183162637027"><ele>42.0</ele><time>2026-05-01T12:01:45Z</time></trkpt><trkpt lat="39.039862432735916" lon="16.12933850778319"><ele>42.0</ele><time>2026-05-01T12:01:46Z</time></trkpt><trkpt lat="39.03977650815434" lon="16.12947516669212"><ele>47.75</ele><time>2026-05-01T12:01:47Z</time></trkpt><trkpt lat="39.03970142847288" lon="16.129606725555284"><ele>53.5</ele><time>2026-05-01T12:01:48Z</time></trkpt><trkpt lat="39.03962088154784" lon="16.129748767477906"><ele>59.25</ele><time>2026-05-01T12:01:49Z</time></trkpt><trkpt lat="39.0395508198402" lon="16.129905305948544"><ele>65.0</ele><time>2026-05-01T12:01:50Z</time></trkpt><trkpt lat="39.03946021466349" lon="16.13004889077425"><ele>65.0</ele><time>2026-05-01T12:01:51Z</time></trkpt><trkpt lat="39.03939261809108" lon="16.130211835217843"><ele>65.0</ele><time>2026-05-01T12:01:52Z</time></trkpt><trkpt lat="39.03929723820076" lon="16.130353586853243"><ele>65.0</ele><time>2026-05-01T12:01:53Z</time></trkpt><trkpt lat="39.03921260815814" lon="16.130509398754512"><ele>65.0</ele><time>2026-05-01T12:01:54Z</time></trkpt><trkpt lat="39.039123569225" lon="16.13067332793333"><ele>70.0</ele><time>2026-05-01T12:01:55Z</time></trkpt><trkpt lat="39.03903551541126" lon="16.13083856278358"><ele>75.0</ele><time>2026-05-01T12:01:56Z</time></trkpt><trkpt lat="39.03896158686989" lon="16.13101138650104"><ele>80.0</ele><time>2026-05-01T12:01:57Z</time></trkpt><trkpt lat="39.03887616852216" lon="16.13117643794549"><ele>80.0</ele><time>2026-05-01T12:01:58Z</time></trkpt><trkpt lat="39.038793555200826" lon="16.13134196919585"><ele>80.0</ele><time>2026-05-01T12:01:59Z</time></trkpt><trkpt lat="39.03871241974403" lon="16.131508371215947"><ele>80.0</ele><time>2026-05-01T12:02:00Z</time></trkpt><trkpt lat="39.03864343052779" lon="16.131681711980093"><ele>77.0</ele><time>2026-05-01T12:02:01Z</time></trkpt><trkpt lat="39.038597355706635" lon="16.131864302484708"><ele>74.0</ele><time>2026-05-01T12:02:02Z</time></trkpt><trkpt lat="39.03855911817407" lon="16.13205301542252"><ele>71.0</ele><time>2026-05-01T12:02:03Z</time></trkpt><trkpt lat="39.03853748323544" lon="16.132251311241177"><ele>69.33333333333334</ele><time>2026-05-01T12:02:04Z</time></trkpt><trkpt lat="39.03852802898639" lon="16.132449882015475"><ele>67.66666666666667</ele><time>2026-05-01T12:02:05Z</time></trkpt><trkpt lat="39.03853693518067" lon="16.132647676155308"><ele>66.0</ele><time>2026-05-01T12:02:06Z</time></trkpt><trkpt lat="39.03855992591063" lon="16.13284474523925"><ele>66.0</ele><time>2026-05-01T12:02:07Z</time></trkpt><trkpt lat="39.03859525510612" lon="16.13302187199163"><ele>66.0</ele><time>2026-05-01T12:02:08Z</time></trkpt><trkpt lat="39.03863132817788" lon="16.13315270258094"><ele>66.0</ele><time>2026-05-01T12:02:09Z</time></trkpt><trkpt lat="39.038675750336644" lon="16.133278114293436"><ele>66.0</ele><time>2026-05-01T12:02:10Z</time></trkpt><trkpt lat="39.03870646011933" lon="16.13341407944594"><ele>67.75</ele><time>2026-05-01T12:02:11Z</time></trkpt><trkpt lat="39.038750185115184" lon="16.13355546552649"><ele>69.5</ele><time>2026-05-01T12:02:12Z</time></trkpt><trkpt lat="39.038798398655956" lon="16.133706085849624"><ele>71.25</ele><time>2026-05-01T12:02:13Z</time></trkpt><trkpt lat="39.03885061379229" lon="16.133866753062843"><ele>73.0</ele><time>2026-05-01T12:02:14Z</time></trkpt><trkpt lat="39.038902990442885" lon="16.134029494737675"><ele>76.25</ele><time>2026-05-01T12:02:15Z</time></trkpt><trkpt lat="39.03895583271233" lon="16.134194445653144"><ele>79.5</ele><time>2026-05-01T12:02:16Z</time></trkpt><trkpt lat="39.039008502690805" lon="16.134362297560866"><ele>82.75</ele><time>2026-05-01T12:02:17Z</time></trkpt><trkpt lat="39.03906892452964" lon="16.134521684200806"><ele>86.0</ele><time>2026-05-01T12:02:18Z</time></trkpt><trkpt lat="39.03911801529798" lon="16.13468543854478"><ele>79.0</ele><time>2026-05-01T12:02:19Z</time></trkpt><trkpt lat="39.03916593871038" lon="16.134838673698084"><ele>72.0</ele><time>2026-05-01T12:02:20Z</time></trkpt><trkpt lat="39.03921946641714" lon="16.134980095118177"><ele>65.0</ele><time>2026-05-01T12:02:21Z</time></trkpt><trkpt lat="39.03925935861388" lon="16.13512208098889"><ele>58.0</ele><time>2026-05-01T12:02:22Z</time></trkpt><trkpt lat="39.03930217776284" lon="16.135251351010744"><ele>58.0</ele><time>2026-05-01T12:02:23Z</time></trkpt><trkpt lat="39.03935961126099" lon="16.135372459735095"><ele>58.0</ele><time>2026-05-01T12:02:24Z</time></trkpt><trkpt lat="39.03940761256089" lon="16.135486350791822"><ele>58.0</ele><time>2026-05-01T12:02:25Z</time></trkpt><trkpt lat="39.039459944347996" lon="16.135590130612616"><ele>58.0</ele><time>2026-05-01T12:02:26Z</time></trkpt><trkpt lat="39.03951238161621" lon="16.135693792591947"><ele>58.0</ele><time>2026-05-01T12:02:27Z</time></trkpt><trkpt lat="39.039566303397606" lon="16.135793920765312"><ele>61.4</ele><time>2026-05-01T12:02:28Z</time></trkpt><trkpt lat="39.03962297204529" lon="16.13590159880829"><ele>64.8</ele><time>2026-05-01T12:02:29Z</time></trkpt><trkpt lat="39.03968430931523" lon="16.13600616859902"><ele>68.2</ele><time>2026-05-01T12:02:30Z</time></trkpt><trkpt lat="39.03975676680546" lon="16.13611402979529"><ele>71.6</ele><time>2026-05-01T12:02:31Z</time></trkpt><trkpt lat="39.0398325650897" lon="16.136224848213946"><ele>75.0</ele><time>2026-05-01T12:02:32Z</time></trkpt><trkpt lat="39.0399111616254" lon="16.13633687279657"><ele>71.75</ele><time>2026-05-01T12:02:33Z</time></trkpt><trkpt lat="39.03999342436012" lon="16.13644609489348"><ele>68.5</ele><time>2026-05-01T12:02:34Z</time></trkpt><trkpt lat="39.04008201930805" lon="16.13655384246503"><ele>65.25</ele><time>2026-05-01T12:02:35Z</time></trkpt><trkpt lat="39.040175091787496" lon="16.13666074788994"><ele>62.0</ele><time>2026-05-01T12:02:36Z</time></trkpt><trkpt lat="39.040270653165415" lon="16.13676585786608"><ele>62.0</ele><time>2026-05-01T12:02:37Z</time></trkpt><trkpt lat="39.040370277928666" lon="16.136867691263454"><ele>62.0</ele><time>2026-05-01T12:02:38Z</time></trkpt><trkpt lat="39.04047468602247" lon="16.136969483958044"><ele>62.0</ele><time>2026-05-01T12:02:39Z</time></trkpt><trkpt lat="39.04057021546184" lon="16.13708725833652"><ele>62.0</ele><time>2026-05-01T12:02:40Z</time></trkpt><trkpt lat="39.040678291243786" lon="16.13717411498145"><ele>62.0</ele><time>2026-05-01T12:02:41Z</time></trkpt><trkpt lat="39.0407807122639" lon="16.13728154513753"><ele>62.0</ele><time>2026-05-01T12:02:42Z</time></trkpt><trkpt lat="39.04086508338304" lon="16.137375010499472"><ele>62.0</ele><time>2026-05-01T12:02:43Z</time></trkpt><trkpt lat="39.040942407536484" lon="16.137449481089284"><ele>62.0</ele><time>2026-05-01T12:02:44Z</time></trkpt><trkpt lat="39.041008728034605" lon="16.137510153466668"><ele>62.0</ele><time>2026-05-01T12:02:45Z</time></trkpt><trkpt lat="39.04110256455467" lon="16.137594713730188"><ele>61.2</ele><time>2026-05-01T12:02:47Z</time></trkpt><trkpt lat="39.04116446039925" lon="16.13766371860875"><ele>60.400000000000006</ele><time>2026-05-01T12:02:49Z</time></trkpt><trkpt lat="39.041229210037564" lon="16.137746712123928"><ele>59.599999999999994</ele><time>2026-05-01T12:02:51Z</time></trkpt><trkpt lat="39.04130171041119" lon="16.137844370284395"><ele>58.8</ele><time>2026-05-01T12:02:53Z</time></trkpt><trkpt lat="39.041408371868066" lon="16.137946487381303"><ele>58.0</ele><time>2026-05-01T12:02:55Z</time></trkpt><trkpt lat="39.04146931680999" lon="16.138009170562995"><ele>58.0</ele><time>2026-05-01T12:02:56Z</time></trkpt><trkpt lat="39.04154245984842" lon="16.138086598101953"><ele>58.0</ele><time>2026-05-01T12:02:57Z</time></trkpt><trkpt lat="39.04162034145756" lon="16.138172847099728"><ele>58.0</ele><time>2026-05-01T12:02:58Z</time></trkpt><trkpt lat="39.04170188145916" lon="16.138259894239148"><ele>58.0</ele><time>2026-05-01T12:02:59Z</time></trkpt><trkpt lat="39.04179112376078" lon="16.138354963701765"><ele>58.0</ele><time>2026-05-01T12:03:00Z</time></trkpt><trkpt lat="39.041889199138495" lon="16.138461899759324"><ele>58.0</ele><time>2026-05-01T12:03:01Z</time></trkpt><trkpt lat="39.04199347336904" lon="16.138576108295958"><ele>58.0</ele><time>2026-05-01T12:03:02Z</time></trkpt><trkpt lat="39.042099108943304" lon="16.13869975377973"><ele>58.0</ele><time>2026-05-01T12:03:03Z</time></trkpt><trkpt lat="39.04221659800202" lon="16.13881295928008"><ele>58.0</ele><time>2026-05-01T12:03:04Z</time></trkpt><trkpt lat="39.04230292410288" lon="16.13896001668764"><ele>57.75</ele><time>2026-05-01T12:03:05Z</time></trkpt><trkpt lat="39.04238949107369" lon="16.13910979248299"><ele>57.5</ele><time>2026-05-01T12:03:06Z</time></trkpt><trkpt lat="39.042469123085546" lon="16.139270853096342"><ele>57.25</ele><time>2026-05-01T12:03:07Z</time></trkpt><trkpt lat="39.04252754828929" lon="16.139439353090843"><ele>57.0</ele><time>2026-05-01T12:03:08Z</time></trkpt><trkpt lat="39.042569693363504" lon="16.13960054793493"><ele>57.0</ele><time>2026-05-01T12:03:09Z</time></trkpt><trkpt lat="39.04259978955472" lon="16.139761016697104"><ele>57.0</ele><time>2026-05-01T12:03:10Z</time></trkpt><trkpt lat="39.04261684229226" lon="16.13991844157783"><ele>57.0</ele><time>2026-05-01T12:03:11Z</time></trkpt><trkpt lat="39.04262362027723" lon="16.14007271573628"><ele>57.0</ele><time>2026-05-01T12:03:12Z</time></trkpt><trkpt lat="39.04262885834876" lon="16.140216108073467"><ele>59.2</ele><time>2026-05-01T12:03:13Z</time></trkpt><trkpt lat="39.04263261616902" lon="16.14035174938363"><ele>61.400000000000006</ele><time>2026-05-01T12:03:14Z</time></trkpt><trkpt lat="39.04263617786332" lon="16.140480311398186"><ele>63.599999999999994</ele><time>2026-05-01T12:03:15Z</time></trkpt><trkpt lat="39.042640442633456" lon="16.140604332288678"><ele>65.8</ele><time>2026-05-01T12:03:16Z</time></trkpt><trkpt lat="39.04264659191775" lon="16.14072582235165"><ele>68.0</ele><time>2026-05-01T12:03:17Z</time></trkpt><trkpt lat="39.042656012153266" lon="16.140852185509"><ele>70.75</ele><time>2026-05-01T12:03:18Z</time></trkpt><trkpt lat="39.042667870768774" lon="16.140995344605063"><ele>73.5</ele><time>2026-05-01T12:03:19Z</time></trkpt><trkpt lat="39.042691151769176" lon="16.14114905802918"><ele>76.25</ele><time>2026-05-01T12:03:20Z</time></trkpt><trkpt lat="39.042726788633715" lon="16.141303391246673"><ele>79.0</ele><time>2026-05-01T12:03:21Z</time></trkpt><trkpt lat="39.04277743969868" lon="16.141457742018794"><ele>80.75</ele><time>2026-05-01T12:03:22Z</time></trkpt><trkpt lat="39.04282406558156" lon="16.141615443003484"><ele>82.5</ele><time>2026-05-01T12:03:23Z</time></trkpt><trkpt lat="39.04287298570614" lon="16.141765158276392"><ele>84.25</ele><time>2026-05-01T12:03:24Z</time></trkpt><trkpt lat="39.042924823030425" lon="16.14189696902992"><ele>86.0</ele><time>2026-05-01T12:03:25Z</time></trkpt><trkpt lat="39.042976607317016" lon="16.142016160702852"><ele>86.0</ele><time>2026-05-01T12:03:26Z</time></trkpt><trkpt lat="39.04302980067311" lon="16.142127731379997"><ele>86.0</ele><time>2026-05-01T12:03:27Z</time></trkpt><trkpt lat="39.0431036161098" lon="16.14222921981002"><ele>86.0</ele><time>2026-05-01T12:03:28Z</time></trkpt><trkpt lat="39.04319276819072" lon="16.142323249161134"><ele>86.0</ele><time>2026-05-01T12:03:29Z</time></trkpt><trkpt lat="39.043289745113746" lon="16.14242105825406"><ele>86.0</ele><time>2026-05-01T12:03:30Z</time></trkpt><trkpt lat="39.04338950052017" lon="16.142529446963835"><ele>80.5</ele><time>2026-05-01T12:03:31Z</time></trkpt><trkpt lat="39.0435055003658" lon="16.142622255636635"><ele>75.0</ele><time>2026-05-01T12:03:32Z</time></trkpt><trkpt lat="39.04363474520612" lon="16.14272448009039"><ele>69.5</ele><time>2026-05-01T12:03:33Z</time></trkpt><trkpt lat="39.04377479309795" lon="16.142824419763713"><ele>64.0</ele><time>2026-05-01T12:03:34Z</time></trkpt><trkpt lat="39.0439245895282" lon="16.14292538691163"><ele>64.0</ele><time>2026-05-01T12:03:35Z</time></trkpt><trkpt lat="39.044053913713206" lon="16.143038309502902"><ele>64.0</ele><time>2026-05-01T12:03:36Z</time></trkpt><trkpt lat="39.04422302867136" lon="16.14315166691201"><ele>64.0</ele><time>2026-05-01T12:03:37Z</time></trkpt><trkpt lat="39.04436947258752" lon="16.143251015707275"><ele>64.33333333333333</ele><time>2026-05-01T12:03:38Z</time></trkpt><trkpt lat="39.04450737499891" lon="16.143369669229298"><ele>64.66666666666667</ele><time>2026-05-01T12:03:39Z</time></trkpt><trkpt lat="39.04464258958787" lon="16.143472517668197"><ele>65.0</ele><time>2026-05-01T12:03:40Z</time></trkpt><trkpt lat="39.0447772128193" lon="16.143573667556314"><ele>65.0</ele><time>2026-05-01T12:03:41Z</time></trkpt><trkpt lat="39.04491589296627" lon="16.143678129475816"><ele>65.0</ele><time>2026-05-01T12:03:42Z</time></trkpt><trkpt lat="39.04505603042688" lon="16.143783693341476"><ele>65.0</ele><time>2026-05-01T12:03:43Z</time></trkpt><trkpt lat="39.0451972119856" lon="16.143890810967658"><ele>62.0</ele><time>2026-05-01T12:03:44Z</time></trkpt><trkpt lat="39.04533895962229" lon="16.14399837364573"><ele>59.0</ele><time>2026-05-01T12:03:45Z</time></trkpt><trkpt lat="39.04547731402472" lon="16.14407809905276"><ele>56.0</ele><time>2026-05-01T12:03:46Z</time></trkpt><trkpt lat="39.0455890645375" lon="16.14418382728848"><ele>56.0</ele><time>2026-05-01T12:03:47Z</time></trkpt><trkpt lat="39.04569769758246" lon="16.144262888349598"><ele>56.0</ele><time>2026-05-01T12:03:48Z</time></trkpt><trkpt lat="39.04579647853895" lon="16.144334224719156"><ele>56.0</ele><time>2026-05-01T12:03:49Z</time></trkpt><trkpt lat="39.04589131982297" lon="16.144401757758857"><ele>56.0</ele><time>2026-05-01T12:03:50Z</time></trkpt><trkpt lat="39.045989724078815" lon="16.144447349512674"><ele>56.0</ele><time>2026-05-01T12:03:51Z</time></trkpt><trkpt lat="39.046076224191054" lon="16.144506330255947"><ele>55.99999999999999</ele><time>2026-05-01T12:03:52Z</time></trkpt><trkpt lat="39.046157297229165" lon="16.14455068182758"><ele>55.99999999999999</ele><time>2026-05-01T12:03:53Z</time></trkpt><trkpt lat="39.04623473375592" lon="16.144585966996836"><ele>56.0</ele><time>2026-05-01T12:03:54Z</time></trkpt><trkpt lat="39.04632095791179" lon="16.144617465878362"><ele>56.0</ele><time>2026-05-01T12:03:55Z</time></trkpt><trkpt lat="39.04641764209438" lon="16.14464638340567"><ele>56.0</ele><time>2026-05-01T12:03:56Z</time></trkpt><trkpt lat="39.04652404983003" lon="16.144674692227028"><ele>55.99999999999999</ele><time>2026-05-01T12:03:57Z</time></trkpt><trkpt lat="39.046635752860254" lon="16.144702564935585"><ele>55.99999999999999</ele><time>2026-05-01T12:03:58Z</time></trkpt><trkpt lat="39.04674756964752" lon="16.144725986902216"><ele>56.0</ele><time>2026-05-01T12:03:59Z</time></trkpt><trkpt lat="39.04684928058072" lon="16.144754319392103"><ele>56.0</ele><time>2026-05-01T12:04:00Z</time></trkpt><trkpt lat="39.04693664004615" lon="16.14477567969872"><ele>54.66666666666667</ele><time>2026-05-01T12:04:01Z</time></trkpt><trkpt lat="39.04701421355818" lon="16.144793589521907"><ele>53.333333333333336</ele><time>2026-05-01T12:04:02Z</time></trkpt><trkpt lat="39.04708778718997" lon="16.144809856625958"><ele>52.0</ele><time>2026-05-01T12:04:03Z</time></trkpt><trkpt lat="39.04720365670878" lon="16.144849204316095"><ele>50.66666666666667</ele><time>2026-05-01T12:04:05Z</time></trkpt><trkpt lat="39.047276844790105" lon="16.144869439090336"><ele>49.333333333333336</ele><time>2026-05-01T12:04:06Z</time></trkpt><trkpt lat="39.04737196386413" lon="16.144891212664227"><ele>48.0</ele><time>2026-05-01T12:04:07Z</time></trkpt><trkpt lat="39.04746795160719" lon="16.144917958598278"><ele>53.0</ele><time>2026-05-01T12:04:08Z</time></trkpt><trkpt lat="39.04757081449774" lon="16.144951996909878"><ele>58.0</ele><time>2026-05-01T12:04:09Z</time></trkpt><trkpt lat="39.04768074498784" lon="16.144987235285765"><ele>63.0</ele><time>2026-05-01T12:04:10Z</time></trkpt><trkpt lat="39.04778768009758" lon="16.145032235064416"><ele>68.0</ele><time>2026-05-01T12:04:11Z</time></trkpt><trkpt lat="39.04789062158868" lon="16.14511038026463"><ele>68.0</ele><time>2026-05-01T12:04:12Z</time></trkpt><trkpt lat="39.04800529322635" lon="16.14518528242467"><ele>68.0</ele><time>2026-05-01T12:04:13Z</time></trkpt><trkpt lat="39.048123141164055" lon="16.145250703658924"><ele>68.0</ele><time>2026-05-01T12:04:14Z</time></trkpt><trkpt lat="39.04824055973718" lon="16.145334693098178"><ele>68.0</ele><time>2026-05-01T12:04:15Z</time></trkpt><trkpt lat="39.048356738159406" lon="16.145433314724453"><ele>68.75</ele><time>2026-05-01T12:04:16Z</time></trkpt><trkpt lat="39.04846872714625" lon="16.145528320242402"><ele>69.5</ele><time>2026-05-01T12:04:17Z</time></trkpt><trkpt lat="39.04858253224719" lon="16.145626388676593"><ele>70.25</ele><time>2026-05-01T12:04:18Z</time></trkpt><trkpt lat="39.04869152219805" lon="16.14571837078554"><ele>71.0</ele><time>2026-05-01T12:04:19Z</time></trkpt><trkpt lat="39.0487875597128" lon="16.14580097542973"><ele>71.0</ele><time>2026-05-01T12:04:20Z</time></trkpt><trkpt lat="39.0488754841962" lon="16.14587310369416"><ele>71.0</ele><time>2026-05-01T12:04:21Z</time></trkpt><trkpt lat="39.048958305532935" lon="16.145935938074153"><ele>71.0</ele><time>2026-05-01T12:04:22Z</time></trkpt><trkpt lat="39.04901949364421" lon="16.145990305323924"><ele>71.0</ele><time>2026-05-01T12:04:23Z</time></trkpt><trkpt lat="39.04910636273732" lon="16.14607867926971"><ele>71.0</ele><time>2026-05-01T12:04:25Z</time></trkpt><trkpt lat="39.04920054083588" lon="16.146155683724107"><ele>69.71428571428571</ele><time>2026-05-01T12:04:27Z</time></trkpt><trkpt lat="39.049261768717756" lon="16.14620574653712"><ele>68.42857142857142</ele><time>2026-05-01T12:04:28Z</time></trkpt><trkpt lat="39.04932669490716" lon="16.14625883322226"><ele>67.14285714285714</ele><time>2026-05-01T12:04:29Z</time></trkpt><trkpt lat="39.049389744395334" lon="16.146311408071213"><ele>65.85714285714286</ele><time>2026-05-01T12:04:30Z</time></trkpt><trkpt lat="39.049446528338684" lon="16.14635899446562"><ele>64.57142857142858</ele><time>2026-05-01T12:04:31Z</time></trkpt><trkpt lat="39.04950812021488" lon="16.14641061003074"><ele>63.28571428571429</ele><time>2026-05-01T12:04:32Z</time></trkpt><trkpt lat="39.04957101818655" lon="16.14646332014332"><ele>62.0</ele><time>2026-05-01T12:04:33Z</time></trkpt><trkpt lat="39.04963202308651" lon="16.146515502596138"><ele>62.333333333333336</ele><time>2026-05-01T12:04:34Z</time></trkpt><trkpt lat="39.049693734853314" lon="16.14656917731157"><ele>62.66666666666667</ele><time>2026-05-01T12:04:35Z</time></trkpt><trkpt lat="39.04976191061208" lon="16.146628474233406"><ele>63.0</ele><time>2026-05-01T12:04:36Z</time></trkpt><trkpt lat="39.04982915986102" lon="16.1466875796296"><ele>63.33333333333333</ele><time>2026-05-01T12:04:37Z</time></trkpt><trkpt lat="39.049898569536744" lon="16.146749172450498"><ele>63.666666666666664</ele><time>2026-05-01T12:04:38Z</time></trkpt><trkpt lat="39.04997388844097" lon="16.146795968859582"><ele>64.0</ele><time>2026-05-01T12:04:39Z</time></trkpt><trkpt lat="39.050040618918516" lon="16.146863186049423"><ele>64.0</ele><time>2026-05-01T12:04:40Z</time></trkpt><trkpt lat="39.05010725516618" lon="16.14692408944592"><ele>63.99999999999999</ele><time>2026-05-01T12:04:41Z</time></trkpt><trkpt lat="39.05016335325022" lon="16.146984334431323"><ele>64.0</ele><time>2026-05-01T12:04:42Z</time></trkpt><trkpt lat="39.05022028490253" lon="16.147042540622152"><ele>64.0</ele><time>2026-05-01T12:04:43Z</time></trkpt><trkpt lat="39.050274568780395" lon="16.14709195541559"><ele>63.99999999999999</ele><time>2026-05-01T12:04:44Z</time></trkpt><trkpt lat="39.05033518125558" lon="16.14714829967134"><ele>64.0</ele><time>2026-05-01T12:04:45Z</time></trkpt><trkpt lat="39.05039982929082" lon="16.147205583775577"><ele>64.0</ele><time>2026-05-01T12:04:46Z</time></trkpt><trkpt lat="39.05046321332886" lon="16.147253352893074"><ele>63.99999999999999</ele><time>2026-05-01T12:04:47Z</time></trkpt><trkpt lat="39.050521802224345" lon="16.14730127568213"><ele>64.0</ele><time>2026-05-01T12:04:48Z</time></trkpt><trkpt lat="39.05061150275821" lon="16.147357638571865"><ele>64.0</ele><time>2026-05-01T12:04:50Z</time></trkpt><trkpt lat="39.05067926396903" lon="16.14741528580785"><ele>64.0</ele><time>2026-05-01T12:04:52Z</time></trkpt><trkpt lat="39.050784629119455" lon="16.147502660279997"><ele>63.99999999999999</ele><time>2026-05-01T12:04:54Z</time></trkpt><trkpt lat="39.05083907637539" lon="16.14756337214944"><ele>64.0</ele><time>2026-05-01T12:04:55Z</time></trkpt><trkpt lat="39.0508935648277" lon="16.14760529193429"><ele>63.83333333333333</ele><time>2026-05-01T12:04:56Z</time></trkpt><trkpt lat="39.050952764518655" lon="16.147650735421344"><ele>63.666666666666664</ele><time>2026-05-01T12:04:57Z</time></trkpt><trkpt lat="39.05101947495439" lon="16.14768376897344"><ele>63.5</ele><time>2026-05-01T12:04:58Z</time></trkpt><trkpt lat="39.0510783729641" lon="16.14773609777389"><ele>63.33333333333333</ele><time>2026-05-01T12:04:59Z</time></trkpt><trkpt lat="39.05114065426935" lon="16.147790642365067"><ele>63.166666666666664</ele><time>2026-05-01T12:05:00Z</time></trkpt><trkpt lat="39.051210332547264" lon="16.147858013257963"><ele>63.0</ele><time>2026-05-01T12:05:01Z</time></trkpt><trkpt lat="39.051275820835464" lon="16.14792138200888"><ele>63.0</ele><time>2026-05-01T12:05:02Z</time></trkpt><trkpt lat="39.051332528290104" lon="16.1479656798931"><ele>63.0</ele><time>2026-05-01T12:05:03Z</time></trkpt><trkpt lat="39.051396859533654" lon="16.14801651086966"><ele>63.0</ele><time>2026-05-01T12:05:04Z</time></trkpt><trkpt lat="39.0514537153918" lon="16.14807827285481"><ele>63.0</ele><time>2026-05-01T12:05:05Z</time></trkpt><trkpt lat="39.05151165971618" lon="16.148126182258984"><ele>63.0</ele><time>2026-05-01T12:05:06Z</time></trkpt><trkpt lat="39.05157152961003" lon="16.148183610766573"><ele>63.0</ele><time>2026-05-01T12:05:07Z</time></trkpt><trkpt lat="39.05163276784771" lon="16.148232699620607"><ele>63.0</ele><time>2026-05-01T12:05:08Z</time></trkpt><trkpt lat="39.05169034538562" lon="16.14828875160239"><ele>63.166666666666664</ele><time>2026-05-01T12:05:09Z</time></trkpt><trkpt lat="39.05174651646165" lon="16.148340915212295"><ele>63.33333333333333</ele><time>2026-05-01T12:05:10Z</time></trkpt><trkpt lat="39.05184684405224" lon="16.14842300395325"><ele>63.5</ele><time>2026-05-01T12:05:12Z</time></trkpt><trkpt lat="39.05190462529833" lon="16.14846331464094"><ele>63.666666666666664</ele><time>2026-05-01T12:05:13Z</time></trkpt><trkpt lat="39.051980015446425" lon="16.148506328761343"><ele>63.83333333333333</ele><time>2026-05-01T12:05:14Z</time></trkpt><trkpt lat="39.05206530391292" lon="16.148540503813173"><ele>64.0</ele><time>2026-05-01T12:05:15Z</time></trkpt><trkpt lat="39.052164561206666" lon="16.14857577438818"><ele>64.0</ele><time>2026-05-01T12:05:16Z</time></trkpt><trkpt lat="39.05227092509815" lon="16.148607205955848"><ele>64.0</ele><time>2026-05-01T12:05:17Z</time></trkpt><trkpt lat="39.05238198666808" lon="16.148632773006895"><ele>64.0</ele><time>2026-05-01T12:05:18Z</time></trkpt><trkpt lat="39.05250010526324" lon="16.1486571278064"><ele>64.0</ele><time>2026-05-01T12:05:19Z</time></trkpt><trkpt lat="39.05261004934311" lon="16.148679414572428"><ele>62.6</ele><time>2026-05-01T12:05:20Z</time></trkpt><trkpt lat="39.05272147190823" lon="16.148706554281468"><ele>61.2</ele><time>2026-05-01T12:05:21Z</time></trkpt><trkpt lat="39.05282208864781" lon="16.14872319795534"><ele>59.800000000000004</ele><time>2026-05-01T12:05:22Z</time></trkpt><trkpt lat="39.05291768692937" lon="16.1487349452497"><ele>58.400000000000006</ele><time>2026-05-01T12:05:23Z</time></trkpt><trkpt lat="39.05300084022396" lon="16.14874824747024"><ele>57.0</ele><time>2026-05-01T12:05:24Z</time></trkpt><trkpt lat="39.05307519347798" lon="16.148758141918602"><ele>57.0</ele><time>2026-05-01T12:05:25Z</time></trkpt><trkpt lat="39.05314548347253" lon="16.148770226231985"><ele>57.0</ele><time>2026-05-01T12:05:26Z</time></trkpt><trkpt lat="39.05321045665893" lon="16.14877969540929"><ele>57.0</ele><time>2026-05-01T12:05:27Z</time></trkpt><trkpt lat="39.0533205560014" lon="16.14880347044092"><ele>57.0</ele><time>2026-05-01T12:05:29Z</time></trkpt><trkpt lat="39.053419006628836" lon="16.148826546983383"><ele>57.0</ele><time>2026-05-01T12:05:31Z</time></trkpt><trkpt lat="39.053507908052296" lon="16.14884397775567"><ele>57.0</ele><time>2026-05-01T12:05:33Z</time></trkpt><trkpt lat="39.05359677819704" lon="16.148864138255362"><ele>56.400000000000006</ele><time>2026-05-01T12:05:35Z</time></trkpt><trkpt lat="39.0537077812739" lon="16.148884133996404"><ele>55.800000000000004</ele><time>2026-05-01T12:05:37Z</time></trkpt><trkpt lat="39.05377476741809" lon="16.148887784441808"><ele>55.2</ele><time>2026-05-01T12:05:38Z</time></trkpt><trkpt lat="39.05389691106633" lon="16.148920497787593"><ele>54.6</ele><time>2026-05-01T12:05:40Z</time></trkpt><trkpt lat="39.053998587056185" lon="16.148936144969216"><ele>54.0</ele><time>2026-05-01T12:05:42Z</time></trkpt><trkpt lat="39.05408518538267" lon="16.148952489474333"><ele>53.400000000000006</ele><time>2026-05-01T12:05:44Z</time></trkpt><trkpt lat="39.05415332401373" lon="16.148967683180775"><ele>52.800000000000004</ele><time>2026-05-01T12:05:46Z</time></trkpt><trkpt lat="39.05422173933148" lon="16.14898898638045"><ele>52.2</ele><time>2026-05-01T12:05:48Z</time></trkpt><trkpt lat="39.054295016515724" lon="16.149043704442647"><ele>51.599999999999994</ele><time>2026-05-01T12:05:51Z</time></trkpt><trkpt lat="39.05429355962163" lon="16.149207655802496"><ele>51.0</ele><time>2026-05-01T12:05:52Z</time></trkpt><trkpt lat="39.054359304825425" lon="16.149314503537738"><ele>54.0</ele><time>2026-05-01T12:05:54Z</time></trkpt><trkpt lat="39.05440977244888" lon="16.149363375837012"><ele>57.0</ele><time>2026-05-01T12:05:55Z</time></trkpt><trkpt lat="39.054499350915265" lon="16.149433280653348"><ele>59.99999999999999</ele><time>2026-05-01T12:05:57Z</time></trkpt><trkpt lat="39.05458919693124" lon="16.149543245979423"><ele>63.0</ele><time>2026-05-01T12:05:59Z</time></trkpt><trkpt lat="39.05464133033888" lon="16.149600385863298"><ele>66.0</ele><time>2026-05-01T12:06:00Z</time></trkpt><trkpt lat="39.054739814335655" lon="16.14969282462765"><ele>66.0</ele><time>2026-05-01T12:06:02Z</time></trkpt><trkpt lat="39.05478273772463" lon="16.149794868861896"><ele>66.0</ele><time>2026-05-01T12:06:04Z</time></trkpt><trkpt lat="39.05481328751747" lon="16.14990788204889"><ele>66.0</ele><time>2026-05-01T12:06:06Z</time></trkpt><trkpt lat="39.05482573425873" lon="16.150012588889297"><ele>66.0</ele><time>2026-05-01T12:06:08Z</time></trkpt><trkpt lat="39.05478323282209" lon="16.150095387832977"><ele>66.0</ele><time>2026-05-01T12:06:10Z</time></trkpt><trkpt lat="39.05471835903013" lon="16.15012192315373"><ele>66.0</ele><time>2026-05-01T12:06:13Z</time></trkpt><trkpt lat="39.054786889501145" lon="16.150071547642764"><ele>69.6</ele><time>2026-05-01T12:06:36Z</time></trkpt><trkpt lat="39.054822497419956" lon="16.150003848908796"><ele>73.19999999999999</ele><time>2026-05-01T12:06:39Z</time></trkpt><trkpt lat="39.054819382069255" lon="16.149883603798497"><ele>76.80000000000001</ele><time>2026-05-01T12:06:42Z</time></trkpt><trkpt lat="39.05465164458216" lon="16.15002429552693"><ele>80.4</ele><time>2026-05-01T12:06:44Z</time></trkpt><trkpt lat="39.05457931954531" lon="16.149968874083395"><ele>84.0</ele><time>2026-05-01T12:06:46Z</time></trkpt><trkpt lat="39.05450219364093" lon="16.14990977263408"><ele>81.0</ele><time>2026-05-01T12:06:48Z</time></trkpt><trkpt lat="39.05444374419118" lon="16.14987068607813"><ele>78.0</ele><time>2026-05-01T12:06:50Z</time></trkpt><trkpt lat="39.054373955518976" lon="16.149827066663676"><ele>75.0</ele><time>2026-05-01T12:06:52Z</time></trkpt><trkpt lat="39.05430113226346" lon="16.14978319197528"><ele>72.0</ele><time>2026-05-01T12:06:54Z</time></trkpt><trkpt lat="39.05421899014064" lon="16.149734122602194"><ele>69.0</ele><time>2026-05-01T12:06:56Z</time></trkpt><trkpt lat="39.05410855106004" lon="16.149680782457907"><ele>66.0</ele><time>2026-05-01T12:06:58Z</time></trkpt><trkpt lat="39.054043243005175" lon="16.149631955485113"><ele>66.0</ele><time>2026-05-01T12:07:00Z</time></trkpt><trkpt lat="39.05430894820962" lon="16.14904590591888"><ele>66.0</ele><time>2026-05-01T12:07:03Z</time></trkpt><trkpt lat="39.05441186550598" lon="16.14905744662746"><ele>66.0</ele><time>2026-05-01T12:07:06Z</time></trkpt><trkpt lat="39.05448091817959" lon="16.14906942014517"><ele>66.0</ele><time>2026-05-01T12:07:07Z</time></trkpt><trkpt lat="39.05455342880131" lon="16.149085179023448"><ele>66.0</ele><time>2026-05-01T12:07:08Z</time></trkpt><trkpt lat="39.05462324981629" lon="16.149098187858474"><ele>66.0</ele><time>2026-05-01T12:07:09Z</time></trkpt><trkpt lat="39.05468767380153" lon="16.149109953950852"><ele>66.0</ele><time>2026-05-01T12:07:10Z</time></trkpt><trkpt lat="39.054808289897785" lon="16.14911671245578"><ele>66.0</ele><time>2026-05-01T12:07:12Z</time></trkpt><trkpt lat="39.05490469395537" lon="16.149129648335506"><ele>66.0</ele><time>2026-05-01T12:07:14Z</time></trkpt><trkpt lat="39.05499534742973" lon="16.149128335290865"><ele>66.0</ele><time>2026-05-01T12:07:16Z</time></trkpt><trkpt lat="39.0550861231494" lon="16.149124559741683"><ele>66.0</ele><time>2026-05-01T12:07:18Z</time></trkpt><trkpt lat="39.05519033749248" lon="16.149129684627184"><ele>66.0</ele><time>2026-05-01T12:07:20Z</time></trkpt><trkpt lat="39.05531739579531" lon="16.14915457191335"><ele>64.8</ele><time>2026-05-01T12:07:22Z</time></trkpt><trkpt lat="39.05538831297068" lon="16.14917439748202"><ele>63.599999999999994</ele><time>2026-05-01T12:07:23Z</time></trkpt><trkpt lat="39.05545466528678" lon="16.149189247404532"><ele>62.4</ele><time>2026-05-01T12:07:24Z</time></trkpt><trkpt lat="39.05556609503966" lon="16.14921417786842"><ele>61.2</ele><time>2026-05-01T12:07:26Z</time></trkpt><trkpt lat="39.05565897604239" lon="16.149246427344067"><ele>60.0</ele><time>2026-05-01T12:07:28Z</time></trkpt><trkpt lat="39.05576858891415" lon="16.14927068015875"><ele>59.333333333333336</ele><time>2026-05-01T12:07:30Z</time></trkpt><trkpt lat="39.055859261926884" lon="16.149285274490282"><ele>58.66666666666667</ele><time>2026-05-01T12:07:32Z</time></trkpt><trkpt lat="39.05596667030997" lon="16.149316515496487"><ele>58.0</ele><time>2026-05-01T12:07:34Z</time></trkpt><trkpt lat="39.056081455457864" lon="16.14933897932763"><ele>57.333333333333336</ele><time>2026-05-01T12:07:36Z</time></trkpt><trkpt lat="39.05614469149476" lon="16.149352568516758"><ele>56.66666666666667</ele><time>2026-05-01T12:07:37Z</time></trkpt><trkpt lat="39.05620842251724" lon="16.149375266142542"><ele>56.0</ele><time>2026-05-01T12:07:38Z</time></trkpt><trkpt lat="39.056317851177205" lon="16.14942305487449"><ele>56.0</ele><time>2026-05-01T12:07:40Z</time></trkpt><trkpt lat="39.056395746570914" lon="16.149480356502828"><ele>55.99999999999999</ele><time>2026-05-01T12:07:42Z</time></trkpt><trkpt lat="39.05647313617713" lon="16.149537674530585"><ele>55.99999999999999</ele><time>2026-05-01T12:07:44Z</time></trkpt><trkpt lat="39.05657657383341" lon="16.14962759490282"><ele>56.0</ele><time>2026-05-01T12:07:46Z</time></trkpt><trkpt lat="39.056663061841064" lon="16.149712063056825"><ele>56.0</ele><time>2026-05-01T12:07:48Z</time></trkpt><trkpt lat="39.056738542944544" lon="16.149764196603268"><ele>58.599999999999994</ele><time>2026-05-01T12:07:50Z</time></trkpt><trkpt lat="39.056809913087896" lon="16.14987966032378"><ele>61.199999999999996</ele><time>2026-05-01T12:07:52Z</time></trkpt><trkpt lat="39.056860999626565" lon="16.149953985777625"><ele>63.800000000000004</ele><time>2026-05-01T12:07:53Z</time></trkpt><trkpt lat="39.05691359613977" lon="16.150038496627655"><ele>66.4</ele><time>2026-05-01T12:07:54Z</time></trkpt><trkpt lat="39.056967657019676" lon="16.150141474532926"><ele>69.0</ele><time>2026-05-01T12:07:55Z</time></trkpt><trkpt lat="39.05702746478584" lon="16.15027269023516"><ele>69.0</ele><time>2026-05-01T12:07:56Z</time></trkpt><trkpt lat="39.057079399592425" lon="16.15040316204464"><ele>69.0</ele><time>2026-05-01T12:07:57Z</time></trkpt><trkpt lat="39.057142089456796" lon="16.150542881978705"><ele>69.0</ele><time>2026-05-01T12:07:58Z</time></trkpt><trkpt lat="39.05719464030563" lon="16.150687846761855"><ele>69.0</ele><time>2026-05-01T12:07:59Z</time></trkpt><trkpt lat="39.05723012153172" lon="16.15084709050302"><ele>74.75</ele><time>2026-05-01T12:08:00Z</time></trkpt><trkpt lat="39.05728335540363" lon="16.15100618268048"><ele>80.5</ele><time>2026-05-01T12:08:01Z</time></trkpt><trkpt lat="39.05733581018203" lon="16.151162946460165"><ele>86.25</ele><time>2026-05-01T12:08:02Z</time></trkpt><trkpt lat="39.05739635360257" lon="16.151318014170762"><ele>92.0</ele><time>2026-05-01T12:08:03Z</time></trkpt><trkpt lat="39.05742559443882" lon="16.151484286423575"><ele>87.0</ele><time>2026-05-01T12:08:04Z</time></trkpt><trkpt lat="39.05747852820211" lon="16.15164139307154"><ele>82.0</ele><time>2026-05-01T12:08:05Z</time></trkpt><trkpt lat="39.05754467501857" lon="16.151812414162958"><ele>77.0</ele><time>2026-05-01T12:08:06Z</time></trkpt><trkpt lat="39.057619455435514" lon="16.15197491286852"><ele>72.0</ele><time>2026-05-01T12:08:07Z</time></trkpt><trkpt lat="39.0576861524685" lon="16.152138173137235"><ele>72.0</ele><time>2026-05-01T12:08:08Z</time></trkpt><trkpt lat="39.05773759702656" lon="16.152266515930773"><ele>72.0</ele><time>2026-05-01T12:08:09Z</time></trkpt><trkpt lat="39.05779059372556" lon="16.152387630333845"><ele>72.0</ele><time>2026-05-01T12:08:10Z</time></trkpt><trkpt lat="39.05783590552741" lon="16.15250971271023"><ele>72.0</ele><time>2026-05-01T12:08:11Z</time></trkpt><trkpt lat="39.0578737984368" lon="16.15261216025198"><ele>72.0</ele><time>2026-05-01T12:08:12Z</time></trkpt><trkpt lat="39.05790943108262" lon="16.15270316957457"><ele>74.42857142857143</ele><time>2026-05-01T12:08:13Z</time></trkpt><trkpt lat="39.057943698012366" lon="16.152782180095315"><ele>76.85714285714286</ele><time>2026-05-01T12:08:14Z</time></trkpt><trkpt lat="39.05797267121073" lon="16.15286061866493"><ele>79.28571428571428</ele><time>2026-05-01T12:08:15Z</time></trkpt><trkpt lat="39.058002982221716" lon="16.15293454657258"><ele>81.71428571428572</ele><time>2026-05-01T12:08:16Z</time></trkpt><trkpt lat="39.05801016445992" lon="16.15302841857434"><ele>84.14285714285714</ele><time>2026-05-01T12:08:17Z</time></trkpt><trkpt lat="39.05803033702674" lon="16.153123397017882"><ele>86.57142857142857</ele><time>2026-05-01T12:08:18Z</time></trkpt><trkpt lat="39.058042775613174" lon="16.15321361896393"><ele>89.0</ele><time>2026-05-01T12:08:19Z</time></trkpt><trkpt lat="39.05805401534492" lon="16.153302099968815"><ele>92.4</ele><time>2026-05-01T12:08:20Z</time></trkpt><trkpt lat="39.05807236689852" lon="16.153451725886004"><ele>95.80000000000001</ele><time>2026-05-01T12:08:22Z</time></trkpt><trkpt lat="39.05808109058008" lon="16.15357807486821"><ele>99.19999999999999</ele><time>2026-05-01T12:08:24Z</time></trkpt><trkpt lat="39.05808819959316" lon="16.153734655280893"><ele>102.6</ele><time>2026-05-01T12:08:26Z</time></trkpt><trkpt lat="39.058084175390555" lon="16.153834420906776"><ele>106.0</ele><time>2026-05-01T12:08:27Z</time></trkpt><trkpt lat="39.05808220838676" lon="16.1539360758304"><ele>106.00000000000001</ele><time>2026-05-01T12:08:28Z</time></trkpt><trkpt lat="39.05808122594996" lon="16.154021143067926"><ele>106.0</ele><time>2026-05-01T12:08:29Z</time></trkpt><trkpt lat="39.05807999889626" lon="16.15410467940011"><ele>106.0</ele><time>2026-05-01T12:08:30Z</time></trkpt><trkpt lat="39.0580688697282" lon="16.154272160322524"><ele>106.0</ele><time>2026-05-01T12:08:32Z</time></trkpt><trkpt lat="39.058069529468746" lon="16.154367382769856"><ele>106.00000000000001</ele><time>2026-05-01T12:08:33Z</time></trkpt><trkpt lat="39.058070114501476" lon="16.1544518223452"><ele>106.0</ele><time>2026-05-01T12:08:34Z</time></trkpt><trkpt lat="39.05807106501136" lon="16.154542069379033"><ele>107.16666666666667</ele><time>2026-05-01T12:08:35Z</time></trkpt><trkpt lat="39.05807369851792" lon="16.154632118303397"><ele>108.33333333333334</ele><time>2026-05-01T12:08:36Z</time></trkpt><trkpt lat="39.05807867693527" lon="16.154713832158468"><ele>109.5</ele><time>2026-05-01T12:08:37Z</time></trkpt><trkpt lat="39.05808863759704" lon="16.154877490535004"><ele>110.66666666666666</ele><time>2026-05-01T12:08:39Z</time></trkpt><trkpt lat="39.058114071240716" lon="16.154967476890015"><ele>111.83333333333333</ele><time>2026-05-01T12:08:40Z</time></trkpt><trkpt lat="39.058109570611514" lon="16.1550546957557"><ele>113.0</ele><time>2026-05-01T12:08:41Z</time></trkpt><trkpt lat="39.05814220911203" lon="16.155134624539485"><ele>114.16666666666666</ele><time>2026-05-01T12:08:42Z</time></trkpt><trkpt lat="39.058162375663095" lon="16.1552235203091"><ele>115.33333333333333</ele><time>2026-05-01T12:08:43Z</time></trkpt><trkpt lat="39.05818636761152" lon="16.155313697798157"><ele>116.5</ele><time>2026-05-01T12:08:44Z</time></trkpt><trkpt lat="39.05821826538726" lon="16.155399234274256"><ele>117.66666666666666</ele><time>2026-05-01T12:08:45Z</time></trkpt><trkpt lat="39.05825370591268" lon="16.15546740634871"><ele>118.83333333333333</ele><time>2026-05-01T12:08:46Z</time></trkpt><trkpt lat="39.05833189340155" lon="16.1555642791433"><ele>120.0</ele><time>2026-05-01T12:08:48Z</time></trkpt><trkpt lat="39.05841904423206" lon="16.155663963808895"><ele>115.83333333333333</ele><time>2026-05-01T12:08:50Z</time></trkpt><trkpt lat="39.058458100400834" lon="16.155736813877066"><ele>111.66666666666667</ele><time>2026-05-01T12:08:51Z</time></trkpt><trkpt lat="39.058506122575814" lon="16.155796454329717"><ele>107.5</ele><time>2026-05-01T12:08:52Z</time></trkpt><trkpt lat="39.05859946297214" lon="16.155906326502503"><ele>103.33333333333334</ele><time>2026-05-01T12:08:54Z</time></trkpt><trkpt lat="39.058645089841086" lon="16.15596604912305"><ele>99.16666666666667</ele><time>2026-05-01T12:08:55Z</time></trkpt><trkpt lat="39.058688347882594" lon="16.156031710619807"><ele>95.0</ele><time>2026-05-01T12:08:56Z</time></trkpt><trkpt lat="39.05875527862727" lon="16.156172034306366"><ele>95.0</ele><time>2026-05-01T12:08:58Z</time></trkpt><trkpt lat="39.058829798188135" lon="16.156279488176253"><ele>95.0</ele><time>2026-05-01T12:09:00Z</time></trkpt><trkpt lat="39.058871217704706" lon="16.15634344025157"><ele>95.0</ele><time>2026-05-01T12:09:01Z</time></trkpt><trkpt lat="39.05892158204718" lon="16.156394499151915"><ele>95.0</ele><time>2026-05-01T12:09:02Z</time></trkpt><trkpt lat="39.05896171835971" lon="16.1564658493862"><ele>95.0</ele><time>2026-05-01T12:09:03Z</time></trkpt><trkpt lat="39.05904328331039" lon="16.156550886867397"><ele>95.0</ele><time>2026-05-01T12:09:05Z</time></trkpt><trkpt lat="39.059126047581756" lon="16.156611593001337"><ele>93.0</ele><time>2026-05-01T12:09:07Z</time></trkpt><trkpt lat="39.05917710777956" lon="16.15666522310913"><ele>91.0</ele><time>2026-05-01T12:09:09Z</time></trkpt><trkpt lat="39.059261082909906" lon="16.156732150368992"><ele>89.0</ele><time>2026-05-01T12:09:12Z</time></trkpt><trkpt lat="39.05933687042713" lon="16.156771720893392"><ele>87.0</ele><time>2026-05-01T12:09:14Z</time></trkpt><trkpt lat="39.0594281035483" lon="16.156811200668546"><ele>85.0</ele><time>2026-05-01T12:09:16Z</time></trkpt><trkpt lat="39.05953386693711" lon="16.156870997172184"><ele>85.0</ele><time>2026-05-01T12:09:18Z</time></trkpt><trkpt lat="39.05963912255689" lon="16.156947925027147"><ele>85.0</ele><time>2026-05-01T12:09:20Z</time></trkpt><trkpt lat="39.059708551109644" lon="16.157021704584213"><ele>85.0</ele><time>2026-05-01T12:09:23Z</time></trkpt><trkpt lat="39.05974927354329" lon="16.157124170648878"><ele>85.0</ele><time>2026-05-01T12:09:26Z</time></trkpt><trkpt lat="39.05978780420087" lon="16.157238024495495"><ele>85.0</ele><time>2026-05-01T12:09:29Z</time></trkpt><trkpt lat="39.05983165990716" lon="16.15738215294532"><ele>83.71428571428572</ele><time>2026-05-01T12:09:31Z</time></trkpt><trkpt lat="39.05985631812742" lon="16.157458428655914"><ele>82.42857142857142</ele><time>2026-05-01T12:09:32Z</time></trkpt><trkpt lat="39.059882702219134" lon="16.15753725669039"><ele>81.14285714285714</ele><time>2026-05-01T12:09:33Z</time></trkpt><trkpt lat="39.05991029348854" lon="16.157619691444726"><ele>79.85714285714286</ele><time>2026-05-01T12:09:34Z</time></trkpt><trkpt lat="39.059936986679304" lon="16.15769944299668"><ele>78.57142857142858</ele><time>2026-05-01T12:09:35Z</time></trkpt><trkpt lat="39.0599622475408" lon="16.157774915151006"><ele>77.28571428571428</ele><time>2026-05-01T12:09:36Z</time></trkpt><trkpt lat="39.06000245895108" lon="16.157853204235845"><ele>76.0</ele><time>2026-05-01T12:09:37Z</time></trkpt><trkpt lat="39.060069637130205" lon="16.157998838294404"><ele>76.0</ele><time>2026-05-01T12:09:39Z</time></trkpt><trkpt lat="39.0601126030423" lon="16.158075966301126"><ele>76.0</ele><time>2026-05-01T12:09:40Z</time></trkpt><trkpt lat="39.060161172059914" lon="16.158141861191037"><ele>76.0</ele><time>2026-05-01T12:09:41Z</time></trkpt><trkpt lat="39.06019743506506" lon="16.15822179155328"><ele>76.0</ele><time>2026-05-01T12:09:42Z</time></trkpt><trkpt lat="39.0602513580088" lon="16.158282214932893"><ele>76.0</ele><time>2026-05-01T12:09:43Z</time></trkpt><trkpt lat="39.060293933812176" lon="16.158351972177265"><ele>76.0</ele><time>2026-05-01T12:09:44Z</time></trkpt><trkpt lat="39.0603352567137" lon="16.158422657482035"><ele>76.0</ele><time>2026-05-01T12:09:45Z</time></trkpt><trkpt lat="39.06038005653725" lon="16.158533460516907"><ele>78.83333333333333</ele><time>2026-05-01T12:09:47Z</time></trkpt><trkpt lat="39.060432737365886" lon="16.15864085650985"><ele>81.66666666666666</ele><time>2026-05-01T12:09:49Z</time></trkpt><trkpt lat="39.06044174603073" lon="16.15874433719413"><ele>84.5</ele><time>2026-05-01T12:09:51Z</time></trkpt><trkpt lat="39.060462886826635" lon="16.158826250405287"><ele>87.33333333333333</ele><time>2026-05-01T12:09:53Z</time></trkpt><trkpt lat="39.06044227386305" lon="16.158934354417443"><ele>90.16666666666667</ele><time>2026-05-01T12:09:56Z</time></trkpt><trkpt lat="39.06041055735047" lon="16.159013839537952"><ele>93.0</ele><time>2026-05-01T12:09:58Z</time></trkpt><trkpt lat="39.06036132323784" lon="16.15909078042"><ele>94.0</ele><time>2026-05-01T12:10:00Z</time></trkpt><trkpt lat="39.06029708519856" lon="16.15917769314744"><ele>95.0</ele><time>2026-05-01T12:10:02Z</time></trkpt><trkpt lat="39.06023396065432" lon="16.15926809855298"><ele>96.0</ele><time>2026-05-01T12:10:04Z</time></trkpt><trkpt lat="39.06017377626414" lon="16.15936804517699"><ele>97.0</ele><time>2026-05-01T12:10:06Z</time></trkpt><trkpt lat="39.06017537211765" lon="16.15949296770119"><ele>98.0</ele><time>2026-05-01T12:10:09Z</time></trkpt><trkpt lat="39.06023261357073" lon="16.1595590359353"><ele>98.0</ele><time>2026-05-01T12:10:11Z</time></trkpt><trkpt lat="39.06034197732874" lon="16.15953826175162"><ele>98.0</ele><time>2026-05-01T12:10:13Z</time></trkpt><trkpt lat="39.06044473110558" lon="16.15953688433196"><ele>98.0</ele><time>2026-05-01T12:10:15Z</time></trkpt><trkpt lat="39.060559003000485" lon="16.159560641316073"><ele>98.0</ele><time>2026-05-01T12:10:17Z</time></trkpt><trkpt lat="39.060643064067726" lon="16.159568206181294"><ele>98.0</ele><time>2026-05-01T12:10:19Z</time></trkpt><trkpt lat="39.06072934248875" lon="16.159590416674103"><ele>95.16666666666666</ele><time>2026-05-01T12:10:21Z</time></trkpt><trkpt lat="39.06080072398154" lon="16.159621668736463"><ele>92.33333333333333</ele><time>2026-05-01T12:10:23Z</time></trkpt><trkpt lat="39.06086807912082" lon="16.159688715482897"><ele>89.5</ele><time>2026-05-01T12:10:26Z</time></trkpt><trkpt lat="39.06087568919812" lon="16.159775544038325"><ele>86.66666666666666</ele><time>2026-05-01T12:10:28Z</time></trkpt><trkpt lat="39.060910629404944" lon="16.159904510891458"><ele>83.83333333333333</ele><time>2026-05-01T12:10:30Z</time></trkpt><trkpt lat="39.06094299208266" lon="16.160039268274623"><ele>81.0</ele><time>2026-05-01T12:10:32Z</time></trkpt><trkpt lat="39.060987871055964" lon="16.16017549829278"><ele>81.0</ele><time>2026-05-01T12:10:34Z</time></trkpt><trkpt lat="39.06103674584833" lon="16.16029132213034"><ele>81.0</ele><time>2026-05-01T12:10:36Z</time></trkpt><trkpt lat="39.06108309229543" lon="16.160386678317757"><ele>81.0</ele><time>2026-05-01T12:10:38Z</time></trkpt><trkpt lat="39.06113563520785" lon="16.160481982152564"><ele>81.0</ele><time>2026-05-01T12:10:41Z</time></trkpt><trkpt lat="39.06119244667624" lon="16.160541475886706"><ele>81.0</ele><time>2026-05-01T12:10:43Z</time></trkpt><trkpt lat="39.061248389399104" lon="16.160604026557035"><ele>81.0</ele><time>2026-05-01T12:10:45Z</time></trkpt><trkpt lat="39.06131989888083" lon="16.1606683361399"><ele>82.83333333333333</ele><time>2026-05-01T12:10:48Z</time></trkpt><trkpt lat="39.06139589441081" lon="16.160726493703372"><ele>84.66666666666667</ele><time>2026-05-01T12:10:51Z</time></trkpt><trkpt lat="39.06147399439438" lon="16.160749431863792"><ele>86.5</ele><time>2026-05-01T12:10:54Z</time></trkpt><trkpt lat="39.06153987132238" lon="16.160789828069476"><ele>88.33333333333334</ele><time>2026-05-01T12:10:57Z</time></trkpt><trkpt lat="39.06161273592283" lon="16.160865339984692"><ele>90.16666666666667</ele><time>2026-05-01T12:11:00Z</time></trkpt><trkpt lat="39.06165021391777" lon="16.16093704479474"><ele>92.0</ele><time>2026-05-01T12:11:02Z</time></trkpt><trkpt lat="39.06170814303116" lon="16.161039133397885"><ele>87.5</ele><time>2026-05-01T12:11:05Z</time></trkpt><trkpt lat="39.06175547130338" lon="16.161122937672452"><ele>83.0</ele><time>2026-05-01T12:11:07Z</time></trkpt><trkpt lat="39.061799576956346" lon="16.16119638530959"><ele>78.5</ele><time>2026-05-01T12:11:09Z</time></trkpt><trkpt lat="39.06185000133264" lon="16.16128254921361"><ele>74.0</ele><time>2026-05-01T12:11:12Z</time></trkpt><trkpt lat="39.06190632657021" lon="16.16136236493756"><ele>69.5</ele><time>2026-05-01T12:11:14Z</time></trkpt><trkpt lat="39.061951138095765" lon="16.16143874231611"><ele>65.0</ele><time>2026-05-01T12:11:16Z</time></trkpt><trkpt lat="39.06200203959929" lon="16.161510447001092"><ele>66.00000000000001</ele><time>2026-05-01T12:11:18Z</time></trkpt><trkpt lat="39.062057928192225" lon="16.161574059536232"><ele>67.0</ele><time>2026-05-01T12:11:20Z</time></trkpt><trkpt lat="39.062111032229" lon="16.161643373239038"><ele>68.0</ele><time>2026-05-01T12:11:22Z</time></trkpt><trkpt lat="39.062160287075635" lon="16.16170011122675"><ele>69.0</ele><time>2026-05-01T12:11:24Z</time></trkpt><trkpt lat="39.062207111987746" lon="16.1617543432696"><ele>70.0</ele><time>2026-05-01T12:11:26Z</time></trkpt><trkpt lat="39.0621537036233" lon="16.161709001709614"><ele>71.00000000000001</ele><time>2026-05-01T12:13:09Z</time></trkpt><trkpt lat="39.06208276034697" lon="16.161611621894355"><ele>72.0</ele><time>2026-05-01T12:13:12Z</time></trkpt><trkpt lat="39.062041285895965" lon="16.16154603290343"><ele>70.6</ele><time>2026-05-01T12:13:14Z</time></trkpt><trkpt lat="39.061988290251854" lon="16.161473375337568"><ele>69.2</ele><time>2026-05-01T12:13:18Z</time></trkpt><trkpt lat="39.06192084825697" lon="16.161371018852982"><ele>67.8</ele><time>2026-05-01T12:14:19Z</time></trkpt><trkpt lat="39.06186644602537" lon="16.161245462533333"><ele>66.4</ele><time>2026-05-01T12:14:21Z</time></trkpt><trkpt lat="39.06179399322786" lon="16.161129130369257"><ele>65.0</ele><time>2026-05-01T12:14:23Z</time></trkpt><trkpt lat="39.06173416875855" lon="16.161027853129642"><ele>65.0</ele><time>2026-05-01T12:14:25Z</time></trkpt><trkpt lat="39.061682108184456" lon="16.160940417293766"><ele>65.0</ele><time>2026-05-01T12:14:27Z</time></trkpt><trkpt lat="39.0616218177251" lon="16.16086454061836"><ele>65.0</ele><time>2026-05-01T12:14:29Z</time></trkpt><trkpt lat="39.06156503314081" lon="16.160788264170044"><ele>65.0</ele><time>2026-05-01T12:14:31Z</time></trkpt><trkpt lat="39.06151335592865" lon="16.160729941815294"><ele>65.0</ele><time>2026-05-01T12:14:33Z</time></trkpt><trkpt lat="39.06142536353588" lon="16.160706124751727"><ele>65.0</ele><time>2026-05-01T12:14:35Z</time></trkpt><trkpt lat="39.06133624838675" lon="16.160682930893707"><ele>68.2</ele><time>2026-05-01T12:14:37Z</time></trkpt><trkpt lat="39.06126245872102" lon="16.16057965249619"><ele>71.4</ele><time>2026-05-01T12:14:39Z</time></trkpt><trkpt lat="39.06121439521143" lon="16.160526141186235"><ele>74.6</ele><time>2026-05-01T12:14:40Z</time></trkpt><trkpt lat="39.06113649777312" lon="16.160430496332616"><ele>77.8</ele><time>2026-05-01T12:14:42Z</time></trkpt><trkpt lat="39.0610714750023" lon="16.160285556589987"><ele>81.0</ele><time>2026-05-01T12:14:44Z</time></trkpt><trkpt lat="39.06103315955574" lon="16.160204942104816"><ele>81.0</ele><time>2026-05-01T12:14:45Z</time></trkpt><trkpt lat="39.06100273412748" lon="16.16012022437488"><ele>81.0</ele><time>2026-05-01T12:14:46Z</time></trkpt><trkpt lat="39.060976387105775" lon="16.160038545119356"><ele>81.0</ele><time>2026-05-01T12:14:47Z</time></trkpt><trkpt lat="39.06095382125071" lon="16.159941716333677"><ele>81.0</ele><time>2026-05-01T12:14:48Z</time></trkpt><trkpt lat="39.06093110721667" lon="16.15984388505663"><ele>81.0</ele><time>2026-05-01T12:14:49Z</time></trkpt><trkpt lat="39.06090135092855" lon="16.15973973879423"><ele>81.0</ele><time>2026-05-01T12:14:50Z</time></trkpt><trkpt lat="39.06087402484456" lon="16.159659816183197"><ele>79.0</ele><time>2026-05-01T12:14:51Z</time></trkpt><trkpt lat="39.06081415764611" lon="16.159590210342003"><ele>77.0</ele><time>2026-05-01T12:14:53Z</time></trkpt><trkpt lat="39.06072671198634" lon="16.15955524868349"><ele>75.0</ele><time>2026-05-01T12:14:55Z</time></trkpt><trkpt lat="39.060663172411374" lon="16.159545493768434"><ele>73.0</ele><time>2026-05-01T12:14:56Z</time></trkpt><trkpt lat="39.06059286696596" lon="16.159520787530916"><ele>71.0</ele><time>2026-05-01T12:14:57Z</time></trkpt><trkpt lat="39.06051538835488" lon="16.159515377564045"><ele>69.0</ele><time>2026-05-01T12:14:58Z</time></trkpt><trkpt lat="39.06044345038031" lon="16.15951470614273"><ele>73.83333333333333</ele><time>2026-05-01T12:14:59Z</time></trkpt><trkpt lat="39.060375310480026" lon="16.15951407017195"><ele>78.66666666666666</ele><time>2026-05-01T12:15:00Z</time></trkpt><trkpt lat="39.06028884411789" lon="16.159506958854106"><ele>83.5</ele><time>2026-05-01T12:15:02Z</time></trkpt><trkpt lat="39.06022321880009" lon="16.159502967440577"><ele>88.33333333333333</ele><time>2026-05-01T12:15:04Z</time></trkpt><trkpt lat="39.06021764758964" lon="16.159386169379403"><ele>93.16666666666666</ele><time>2026-05-01T12:15:07Z</time></trkpt><trkpt lat="39.06028096601146" lon="16.159296562169278"><ele>98.0</ele><time>2026-05-01T12:15:09Z</time></trkpt><trkpt lat="39.06033210855" lon="16.159245634188718"><ele>97.99999999999999</ele><time>2026-05-01T12:15:10Z</time></trkpt><trkpt lat="39.06037671408691" lon="16.159181420040635"><ele>98.0</ele><time>2026-05-01T12:15:11Z</time></trkpt><trkpt lat="39.06042157261291" lon="16.159114580484825"><ele>98.0</ele><time>2026-05-01T12:15:12Z</time></trkpt><trkpt lat="39.060475976643204" lon="16.158977049129017"><ele>98.0</ele><time>2026-05-01T12:15:14Z</time></trkpt><trkpt lat="39.06048577051118" lon="16.158869561600593"><ele>97.99999999999999</ele><time>2026-05-01T12:15:16Z</time></trkpt><trkpt lat="39.06046545650146" lon="16.15875095999281"><ele>98.0</ele><time>2026-05-01T12:15:18Z</time></trkpt><trkpt lat="39.06045562293948" lon="16.158664734580043"><ele>97.16666666666666</ele><time>2026-05-01T12:15:19Z</time></trkpt><trkpt lat="39.060430123531944" lon="16.15858755454021"><ele>96.33333333333333</ele><time>2026-05-01T12:15:20Z</time></trkpt><trkpt lat="39.06039438138731" lon="16.158496724919935"><ele>95.5</ele><time>2026-05-01T12:15:21Z</time></trkpt><trkpt lat="39.06035509358934" lon="16.158425624219976"><ele>94.66666666666666</ele><time>2026-05-01T12:15:22Z</time></trkpt><trkpt lat="39.060304711299366" lon="16.158341928141198"><ele>93.83333333333333</ele><time>2026-05-01T12:15:23Z</time></trkpt><trkpt lat="39.060257033699614" lon="16.15826532264242"><ele>93.0</ele><time>2026-05-01T12:15:24Z</time></trkpt><trkpt lat="39.060200458210026" lon="16.158171794313397"><ele>90.16666666666667</ele><time>2026-05-01T12:15:25Z</time></trkpt><trkpt lat="39.06013878068342" lon="16.158079504501163"><ele>87.33333333333333</ele><time>2026-05-01T12:15:26Z</time></trkpt><trkpt lat="39.060085136462554" lon="16.157996077959133"><ele>84.5</ele><time>2026-05-01T12:15:27Z</time></trkpt><trkpt lat="39.060043501098065" lon="16.157919315643117"><ele>81.66666666666666</ele><time>2026-05-01T12:15:28Z</time></trkpt><trkpt lat="39.06001094325012" lon="16.157836683704932"><ele>78.83333333333333</ele><time>2026-05-01T12:15:29Z</time></trkpt><trkpt lat="39.05998546125928" lon="16.15774883485131"><ele>76.0</ele><time>2026-05-01T12:15:30Z</time></trkpt><trkpt lat="39.05995739944748" lon="16.157645908182232"><ele>77.5</ele><time>2026-05-01T12:15:31Z</time></trkpt><trkpt lat="39.05993086366613" lon="16.157550543884636"><ele>79.0</ele><time>2026-05-01T12:15:32Z</time></trkpt><trkpt lat="39.05989626632686" lon="16.15745330261702"><ele>80.5</ele><time>2026-05-01T12:15:33Z</time></trkpt><trkpt lat="39.059860227133264" lon="16.157349160550115"><ele>82.0</ele><time>2026-05-01T12:15:34Z</time></trkpt><trkpt lat="39.059827923147886" lon="16.157252248909376"><ele>83.5</ele><time>2026-05-01T12:15:35Z</time></trkpt><trkpt lat="39.05979989194253" lon="16.15717476644447"><ele>85.0</ele><time>2026-05-01T12:15:36Z</time></trkpt><trkpt lat="39.059782048055396" lon="16.157091513457207"><ele>85.0</ele><time>2026-05-01T12:15:38Z</time></trkpt><trkpt lat="39.059722044317425" lon="16.156991254427343"><ele>85.0</ele><time>2026-05-01T12:15:40Z</time></trkpt><trkpt lat="39.0596603902173" lon="16.156940350722856"><ele>85.0</ele><time>2026-05-01T12:15:41Z</time></trkpt><trkpt lat="39.059595587986216" lon="16.156879738086246"><ele>85.0</ele><time>2026-05-01T12:15:42Z</time></trkpt><trkpt lat="39.059518090225644" lon="16.15683184307446"><ele>85.0</ele><time>2026-05-01T12:15:43Z</time></trkpt><trkpt lat="39.0594294332439" lon="16.1568084975478"><ele>85.0</ele><time>2026-05-01T12:15:44Z</time></trkpt><trkpt lat="39.05936688817043" lon="16.156769899601287"><ele>85.0</ele><time>2026-05-01T12:15:45Z</time></trkpt><trkpt lat="39.05928795708497" lon="16.156715083567647"><ele>85.0</ele><time>2026-05-01T12:15:47Z</time></trkpt><trkpt lat="39.059233454091526" lon="16.156673610393547"><ele>85.0</ele><time>2026-05-01T12:15:49Z</time></trkpt><trkpt lat="39.059168543040904" lon="16.156617706056192"><ele>85.0</ele><time>2026-05-01T12:15:52Z</time></trkpt><trkpt lat="39.059094245416496" lon="16.156563037208876"><ele>85.0</ele><time>2026-05-01T12:15:55Z</time></trkpt><trkpt lat="39.059030973061596" lon="16.156497215069212"><ele>85.0</ele><time>2026-05-01T12:15:57Z</time></trkpt><trkpt lat="39.05893663051958" lon="16.15640049310177"><ele>86.42857142857143</ele><time>2026-05-01T12:15:59Z</time></trkpt><trkpt lat="39.05889495047353" lon="16.15632423135134"><ele>87.85714285714285</ele><time>2026-05-01T12:16:00Z</time></trkpt><trkpt lat="39.05884600605193" lon="16.156249278852943"><ele>89.28571428571428</ele><time>2026-05-01T12:16:01Z</time></trkpt><trkpt lat="39.05879803905141" lon="16.15617221747029"><ele>90.71428571428572</ele><time>2026-05-01T12:16:02Z</time></trkpt><trkpt lat="39.05874444135052" lon="16.156100936625894"><ele>92.14285714285714</ele><time>2026-05-01T12:16:03Z</time></trkpt><trkpt lat="39.058695278117526" lon="16.15602564922337"><ele>93.57142857142857</ele><time>2026-05-01T12:16:04Z</time></trkpt><trkpt lat="39.058650063903386" lon="16.155960943810406"><ele>95.0</ele><time>2026-05-01T12:16:05Z</time></trkpt><trkpt lat="39.05860361402807" lon="16.15589251505004"><ele>95.0</ele><time>2026-05-01T12:16:06Z</time></trkpt><trkpt lat="39.05856191554933" lon="16.155824334976174"><ele>95.0</ele><time>2026-05-01T12:16:07Z</time></trkpt><trkpt lat="39.05851338935075" lon="16.155760857040427"><ele>95.0</ele><time>2026-05-01T12:16:08Z</time></trkpt><trkpt lat="39.05842474906883" lon="16.155651444662446"><ele>95.0</ele><time>2026-05-01T12:16:10Z</time></trkpt><trkpt lat="39.05838145542403" lon="16.15559180989192"><ele>95.0</ele><time>2026-05-01T12:16:11Z</time></trkpt><trkpt lat="39.05829701291849" lon="16.15548657435847"><ele>95.0</ele><time>2026-05-01T12:16:13Z</time></trkpt><trkpt lat="39.05823472560453" lon="16.155390184558026"><ele>98.6</ele><time>2026-05-01T12:16:15Z</time></trkpt><trkpt lat="39.05818781869088" lon="16.155244234152626"><ele>102.2</ele><time>2026-05-01T12:16:17.001Z</time></trkpt><trkpt lat="39.05816725200393" lon="16.155149510050244"><ele>105.80000000000001</ele><time>2026-05-01T12:16:18.001Z</time></trkpt><trkpt lat="39.05814721363542" lon="16.155037329590346"><ele>109.4</ele><time>2026-05-01T12:16:19.001Z</time></trkpt><trkpt lat="39.058133858317746" lon="16.154911530657554"><ele>113.0</ele><time>2026-05-01T12:16:20.001Z</time></trkpt><trkpt lat="39.05812509731773" lon="16.154783659106247"><ele>113.0</ele><time>2026-05-01T12:16:21.001Z</time></trkpt><trkpt lat="39.05812112109467" lon="16.154636747982988"><ele>113.00000000000001</ele><time>2026-05-01T12:16:22.001Z</time></trkpt><trkpt lat="39.058121433696954" lon="16.15451141229443"><ele>113.00000000000001</ele><time>2026-05-01T12:16:23.001Z</time></trkpt><trkpt lat="39.05811937614877" lon="16.15438431048166"><ele>113.0</ele><time>2026-05-01T12:16:24.001Z</time></trkpt><trkpt lat="39.05811624749106" lon="16.154286271800817"><ele>113.0</ele><time>2026-05-01T12:16:25.001Z</time></trkpt><trkpt lat="39.05811236908828" lon="16.15419391510978"><ele>113.0</ele><time>2026-05-01T12:16:26.001Z</time></trkpt><trkpt lat="39.058108834625486" lon="16.154112768745346"><ele>113.0</ele><time>2026-05-01T12:16:27.001Z</time></trkpt><trkpt lat="39.058104221354014" lon="16.154031260519364"><ele>113.0</ele><time>2026-05-01T12:16:28.001Z</time></trkpt><trkpt lat="39.05809892922168" lon="16.153941458504324"><ele>113.0</ele><time>2026-05-01T12:16:29.001Z</time></trkpt><trkpt lat="39.058103871243134" lon="16.153851897698726"><ele>113.0</ele><time>2026-05-01T12:16:30.001Z</time></trkpt><trkpt lat="39.05810587754792" lon="16.153753484528025"><ele>113.0</ele><time>2026-05-01T12:16:31.001Z</time></trkpt><trkpt lat="39.05809964340587" lon="16.153645727653057"><ele>113.0</ele><time>2026-05-01T12:16:32.001Z</time></trkpt><trkpt lat="39.05810266536298" lon="16.153537006641326"><ele>111.60000000000001</ele><time>2026-05-01T12:16:33.001Z</time></trkpt><trkpt lat="39.05809622052136" lon="16.15342449359566"><ele>110.20000000000002</ele><time>2026-05-01T12:16:34.001Z</time></trkpt><trkpt lat="39.05807262433736" lon="16.153310706257045"><ele>108.8</ele><time>2026-05-01T12:16:35.001Z</time></trkpt><trkpt lat="39.05806929016971" lon="16.153200676669194"><ele>107.4</ele><time>2026-05-01T12:16:36.001Z</time></trkpt><trkpt lat="39.05805082790677" lon="16.153080734482188"><ele>106.0</ele><time>2026-05-01T12:16:37.001Z</time></trkpt><trkpt lat="39.05801729819599" lon="16.15296722268681"><ele>102.6</ele><time>2026-05-01T12:16:38.001Z</time></trkpt><trkpt lat="39.05798558130749" lon="16.15284331087336"><ele>99.19999999999999</ele><time>2026-05-01T12:16:39.001Z</time></trkpt><trkpt lat="39.057941498550434" lon="16.152726098501645"><ele>95.80000000000001</ele><time>2026-05-01T12:16:40.001Z</time></trkpt><trkpt lat="39.05789211705053" lon="16.152602016252782"><ele>92.4</ele><time>2026-05-01T12:16:41.001Z</time></trkpt><trkpt lat="39.05784604451755" lon="16.15247595614321"><ele>89.0</ele><time>2026-05-01T12:16:42.001Z</time></trkpt><trkpt lat="39.057801273032794" lon="16.15235240372437"><ele>85.60000000000001</ele><time>2026-05-01T12:16:43.001Z</time></trkpt><trkpt lat="39.05775437828429" lon="16.152232842047233"><ele>82.2</ele><time>2026-05-01T12:16:44.001Z</time></trkpt><trkpt lat="39.05771196616642" lon="16.152117579102928"><ele>78.80000000000001</ele><time>2026-05-01T12:16:45.001Z</time></trkpt><trkpt lat="39.05766181884937" lon="16.15200977544246"><ele>75.4</ele><time>2026-05-01T12:16:46.001Z</time></trkpt><trkpt lat="39.05761361215219" lon="16.15190615375963"><ele>72.0</ele><time>2026-05-01T12:16:47Z</time></trkpt><trkpt lat="39.057580076079795" lon="16.15178046391492"><ele>72.0</ele><time>2026-05-01T12:16:48Z</time></trkpt><trkpt lat="39.05754582986851" lon="16.15168628307859"><ele>72.0</ele><time>2026-05-01T12:16:49Z</time></trkpt><trkpt lat="39.05751224599157" lon="16.151592653892575"><ele>72.0</ele><time>2026-05-01T12:16:50Z</time></trkpt><trkpt lat="39.05747554964702" lon="16.151510515678286"><ele>72.0</ele><time>2026-05-01T12:16:51Z</time></trkpt><trkpt lat="39.0574392383495" lon="16.151415180923742"><ele>72.0</ele><time>2026-05-01T12:16:52Z</time></trkpt><trkpt lat="39.05740743605154" lon="16.151308182451015"><ele>72.0</ele><time>2026-05-01T12:16:53Z</time></trkpt><trkpt lat="39.05736971201183" lon="16.151200202401398"><ele>71.5</ele><time>2026-05-01T12:16:54Z</time></trkpt><trkpt lat="39.05733822892213" lon="16.15109322552569"><ele>71.0</ele><time>2026-05-01T12:16:55Z</time></trkpt><trkpt lat="39.05730182628552" lon="16.15099487712685"><ele>70.5</ele><time>2026-05-01T12:16:56Z</time></trkpt><trkpt lat="39.05726986516234" lon="16.150896030153117"><ele>70.0</ele><time>2026-05-01T12:16:57Z</time></trkpt><trkpt lat="39.05723522119575" lon="16.150780140777314"><ele>69.5</ele><time>2026-05-01T12:16:58Z</time></trkpt><trkpt lat="39.05719853467643" lon="16.150672875561384"><ele>69.0</ele><time>2026-05-01T12:16:59Z</time></trkpt><trkpt lat="39.05715791068185" lon="16.150567425093612"><ele>69.0</ele><time>2026-05-01T12:17:00Z</time></trkpt><trkpt lat="39.05712471821993" lon="16.15046191288598"><ele>69.0</ele><time>2026-05-01T12:17:01Z</time></trkpt><trkpt lat="39.05709633264432" lon="16.150361606938826"><ele>69.0</ele><time>2026-05-01T12:17:02Z</time></trkpt><trkpt lat="39.05706145457359" lon="16.15026590810321"><ele>69.0</ele><time>2026-05-01T12:17:03Z</time></trkpt><trkpt lat="39.05702031956739" lon="16.15018099070482"><ele>69.0</ele><time>2026-05-01T12:17:04Z</time></trkpt><trkpt lat="39.0569815906978" lon="16.15009734407778"><ele>69.0</ele><time>2026-05-01T12:17:05Z</time></trkpt><trkpt lat="39.05693798882255" lon="16.150011468198887"><ele>69.0</ele><time>2026-05-01T12:17:06Z</time></trkpt><trkpt lat="39.05688570104986" lon="16.149929563727653"><ele>69.0</ele><time>2026-05-01T12:17:07Z</time></trkpt><trkpt lat="39.05682373756125" lon="16.149855283696024"><ele>69.0</ele><time>2026-05-01T12:17:08Z</time></trkpt><trkpt lat="39.05675477065112" lon="16.14977794236453"><ele>69.0</ele><time>2026-05-01T12:17:09Z</time></trkpt><trkpt lat="39.056678937210506" lon="16.149693164055872"><ele>69.0</ele><time>2026-05-01T12:17:10Z</time></trkpt><trkpt lat="39.0566092611268" lon="16.149618796731197"><ele>69.0</ele><time>2026-05-01T12:17:11Z</time></trkpt><trkpt lat="39.05653431212379" lon="16.149548439346805"><ele>66.83333333333333</ele><time>2026-05-01T12:17:12Z</time></trkpt><trkpt lat="39.05646693067594" lon="16.149492290442076"><ele>64.66666666666667</ele><time>2026-05-01T12:17:13Z</time></trkpt><trkpt lat="39.056396606741764" lon="16.14944147202503"><ele>62.5</ele><time>2026-05-01T12:17:14Z</time></trkpt><trkpt lat="39.05632523671302" lon="16.149405143796255"><ele>60.333333333333336</ele><time>2026-05-01T12:17:15Z</time></trkpt><trkpt lat="39.056248655310675" lon="16.149356597177007"><ele>58.16666666666667</ele><time>2026-05-01T12:17:16Z</time></trkpt><trkpt lat="39.05616313508929" lon="16.149321520607895"><ele>56.0</ele><time>2026-05-01T12:17:17Z</time></trkpt><trkpt lat="39.05607944081017" lon="16.149290879589145"><ele>56.00000000000001</ele><time>2026-05-01T12:17:18Z</time></trkpt><trkpt lat="39.05599267304215" lon="16.14926968325909"><ele>56.0</ele><time>2026-05-01T12:17:19Z</time></trkpt><trkpt lat="39.055914877628574" lon="16.149253590723838"><ele>56.0</ele><time>2026-05-01T12:17:20Z</time></trkpt><trkpt lat="39.055833210115544" lon="16.149235764355975"><ele>56.0</ele><time>2026-05-01T12:17:21Z</time></trkpt><trkpt lat="39.05575671444745" lon="16.149215683328784"><ele>56.00000000000001</ele><time>2026-05-01T12:17:22Z</time></trkpt><trkpt lat="39.05568337052321" lon="16.149196429676365"><ele>56.0</ele><time>2026-05-01T12:17:23Z</time></trkpt><trkpt lat="39.055597788077456" lon="16.149175461223408"><ele>56.66666666666667</ele><time>2026-05-01T12:17:24Z</time></trkpt><trkpt lat="39.055528505981094" lon="16.149160469932557"><ele>57.333333333333336</ele><time>2026-05-01T12:17:25Z</time></trkpt><trkpt lat="39.05544084934932" lon="16.149144752674236"><ele>58.0</ele><time>2026-05-01T12:17:26Z</time></trkpt><trkpt lat="39.05534775971356" lon="16.149146290194604"><ele>58.66666666666667</ele><time>2026-05-01T12:17:27Z</time></trkpt><trkpt lat="39.055272471068534" lon="16.14912668252061"><ele>59.333333333333336</ele><time>2026-05-01T12:17:28Z</time></trkpt><trkpt lat="39.05519278342427" lon="16.149108639795152"><ele>60.0</ele><time>2026-05-01T12:17:29Z</time></trkpt><trkpt lat="39.055124625323984" lon="16.149113975433597"><ele>60.0</ele><time>2026-05-01T12:17:30.001Z</time></trkpt><trkpt lat="39.055037775523736" lon="16.149083034111364"><ele>60.0</ele><time>2026-05-01T12:17:31.001Z</time></trkpt><trkpt lat="39.05495439576254" lon="16.14907160245618"><ele>60.0</ele><time>2026-05-01T12:17:32.001Z</time></trkpt><trkpt lat="39.05487462308696" lon="16.14906066535223"><ele>60.0</ele><time>2026-05-01T12:17:33.001Z</time></trkpt><trkpt lat="39.054798275886185" lon="16.149048685860485"><ele>60.0</ele><time>2026-05-01T12:17:34.001Z</time></trkpt><trkpt lat="39.05471393640355" lon="16.149035106369247"><ele>60.0</ele><time>2026-05-01T12:17:35.001Z</time></trkpt><trkpt lat="39.05463518989949" lon="16.149022427393042"><ele>58.2</ele><time>2026-05-01T12:17:36.001Z</time></trkpt><trkpt lat="39.05455826934825" lon="16.14901107896529"><ele>56.4</ele><time>2026-05-01T12:17:37.001Z</time></trkpt><trkpt lat="39.05448871651084" lon="16.149001048748524"><ele>54.599999999999994</ele><time>2026-05-01T12:17:38.001Z</time></trkpt><trkpt lat="39.054422869723446" lon="16.148991552975442"><ele>52.8</ele><time>2026-05-01T12:17:39.001Z</time></trkpt><trkpt lat="39.05430633390639" lon="16.148969580203133"><ele>51.0</ele><time>2026-05-01T12:17:41.001Z</time></trkpt><trkpt lat="39.054187076146796" lon="16.148934083113115"><ele>51.5</ele><time>2026-05-01T12:17:43.001Z</time></trkpt><trkpt lat="39.05411359118126" lon="16.148923896151114"><ele>52.0</ele><time>2026-05-01T12:17:44.001Z</time></trkpt><trkpt lat="39.054036755306896" lon="16.148900545533856"><ele>52.5</ele><time>2026-05-01T12:17:45.001Z</time></trkpt><trkpt lat="39.05396335777101" lon="16.148893688620056"><ele>53.0</ele><time>2026-05-01T12:17:46.001Z</time></trkpt><trkpt lat="39.05387450379874" lon="16.14889181607616"><ele>53.5</ele><time>2026-05-01T12:17:47.001Z</time></trkpt><trkpt lat="39.05378693979048" lon="16.148861484731736"><ele>54.0</ele><time>2026-05-01T12:17:48.001Z</time></trkpt><trkpt lat="39.05369674887478" lon="16.148849048615673"><ele>54.0</ele><time>2026-05-01T12:17:49.001Z</time></trkpt><trkpt lat="39.053599561704786" lon="16.148851431297473"><ele>54.0</ele><time>2026-05-01T12:17:50.001Z</time></trkpt><trkpt lat="39.05350943409278" lon="16.148810061207524"><ele>54.0</ele><time>2026-05-01T12:17:51.001Z</time></trkpt><trkpt lat="39.05342428181757" lon="16.14878825872593"><ele>54.0</ele><time>2026-05-01T12:17:52.001Z</time></trkpt><trkpt lat="39.05334506397003" lon="16.148767616817807"><ele>54.0</ele><time>2026-05-01T12:17:53.001Z</time></trkpt><trkpt lat="39.053256983494734" lon="16.148768112049428"><ele>54.0</ele><time>2026-05-01T12:17:54.001Z</time></trkpt><trkpt lat="39.053168207843854" lon="16.148754164325084"><ele>54.6</ele><time>2026-05-01T12:17:55.001Z</time></trkpt><trkpt lat="39.05307063646832" lon="16.148738310561896"><ele>55.2</ele><time>2026-05-01T12:17:56.001Z</time></trkpt><trkpt lat="39.05297048337085" lon="16.148701563997268"><ele>55.800000000000004</ele><time>2026-05-01T12:17:57.001Z</time></trkpt><trkpt lat="39.052863929060656" lon="16.148684321252418"><ele>56.400000000000006</ele><time>2026-05-01T12:17:58.001Z</time></trkpt><trkpt lat="39.05275276897941" lon="16.148666697457735"><ele>57.0</ele><time>2026-05-01T12:17:59.001Z</time></trkpt><trkpt lat="39.05263894559963" lon="16.148646543818845"><ele>57.0</ele><time>2026-05-01T12:18:00.001Z</time></trkpt><trkpt lat="39.052524972950096" lon="16.148626457439107"><ele>57.0</ele><time>2026-05-01T12:18:01.001Z</time></trkpt><trkpt lat="39.05241588323112" lon="16.148604092920877"><ele>57.0</ele><time>2026-05-01T12:18:02.001Z</time></trkpt><trkpt lat="39.05230460690675" lon="16.148577865162"><ele>57.0</ele><time>2026-05-01T12:18:03.001Z</time></trkpt><trkpt lat="39.05220488304578" lon="16.148549303056786"><ele>57.0</ele><time>2026-05-01T12:18:04.001Z</time></trkpt><trkpt lat="39.052106241013206" lon="16.148513231692693"><ele>58.400000000000006</ele><time>2026-05-01T12:18:05.001Z</time></trkpt><trkpt lat="39.052013654399104" lon="16.148471990550004"><ele>59.800000000000004</ele><time>2026-05-01T12:18:06.001Z</time></trkpt><trkpt lat="39.05193033204322" lon="16.148426631989633"><ele>61.2</ele><time>2026-05-01T12:18:07.001Z</time></trkpt><trkpt lat="39.05185467959376" lon="16.148377050228355"><ele>62.6</ele><time>2026-05-01T12:18:08.001Z</time></trkpt><trkpt lat="39.05178172095431" lon="16.148320708648814"><ele>64.0</ele><time>2026-05-01T12:18:09.001Z</time></trkpt><trkpt lat="39.05169626440848" lon="16.148268662517065"><ele>63.800000000000004</ele><time>2026-05-01T12:18:10.001Z</time></trkpt><trkpt lat="39.05161407269454" lon="16.148193286821815"><ele>63.60000000000001</ele><time>2026-05-01T12:18:11.001Z</time></trkpt><trkpt lat="39.05152813923881" lon="16.148117236135878"><ele>63.4</ele><time>2026-05-01T12:18:12.001Z</time></trkpt><trkpt lat="39.05144130152923" lon="16.148041636228616"><ele>63.2</ele><time>2026-05-01T12:18:13.001Z</time></trkpt><trkpt lat="39.05135311783669" lon="16.147966453315192"><ele>63.0</ele><time>2026-05-01T12:18:14.001Z</time></trkpt><trkpt lat="39.05126416744653" lon="16.14787386332227"><ele>63.0</ele><time>2026-05-01T12:18:15.001Z</time></trkpt><trkpt lat="39.051172365810174" lon="16.14778742823444"><ele>63.0</ele><time>2026-05-01T12:18:16.001Z</time></trkpt><trkpt lat="39.05107396851694" lon="16.147697674040998"><ele>63.0</ele><time>2026-05-01T12:18:17.001Z</time></trkpt><trkpt lat="39.05096630978043" lon="16.14762741714864"><ele>63.0</ele><time>2026-05-01T12:18:18.001Z</time></trkpt><trkpt lat="39.05086087101382" lon="16.147542834366504"><ele>63.2</ele><time>2026-05-01T12:18:19.001Z</time></trkpt><trkpt lat="39.05075642246761" lon="16.147467523352663"><ele>63.4</ele><time>2026-05-01T12:18:20.001Z</time></trkpt><trkpt lat="39.05066294990012" lon="16.14739260011521"><ele>63.60000000000001</ele><time>2026-05-01T12:18:21.001Z</time></trkpt><trkpt lat="39.050590584781915" lon="16.147330378128913"><ele>63.800000000000004</ele><time>2026-05-01T12:18:22.001Z</time></trkpt><trkpt lat="39.050537204543225" lon="16.147264520652307"><ele>64.0</ele><time>2026-05-01T12:18:23.001Z</time></trkpt><trkpt lat="39.05047159496347" lon="16.147208079781038"><ele>63.99999999999999</ele><time>2026-05-01T12:18:24.001Z</time></trkpt><trkpt lat="39.050406672760026" lon="16.14715171405953"><ele>64.0</ele><time>2026-05-01T12:18:25.001Z</time></trkpt><trkpt lat="39.05033626749398" lon="16.147088380638365"><ele>64.0</ele><time>2026-05-01T12:18:26.001Z</time></trkpt><trkpt lat="39.05026618158564" lon="16.147025334494415"><ele>64.0</ele><time>2026-05-01T12:18:27.001Z</time></trkpt><trkpt lat="39.05019391273516" lon="16.146960324751763"><ele>63.99999999999999</ele><time>2026-05-01T12:18:28.001Z</time></trkpt><trkpt lat="39.05012226047619" lon="16.146904962099647"><ele>64.0</ele><time>2026-05-01T12:18:29.001Z</time></trkpt><trkpt lat="39.05004891447312" lon="16.146843635524515"><ele>63.99999999999999</ele><time>2026-05-01T12:18:30.001Z</time></trkpt><trkpt lat="39.04998397373028" lon="16.14678282033747"><ele>64.0</ele><time>2026-05-01T12:18:31.001Z</time></trkpt><trkpt lat="39.04990823130744" lon="16.14670330522963"><ele>64.0</ele><time>2026-05-01T12:18:32.001Z</time></trkpt><trkpt lat="39.04984467397681" lon="16.146642813721126"><ele>64.0</ele><time>2026-05-01T12:18:33.001Z</time></trkpt><trkpt lat="39.049767958753975" lon="16.146573050364882"><ele>63.99999999999999</ele><time>2026-05-01T12:18:34.001Z</time></trkpt><trkpt lat="39.04968250616923" lon="16.146511875677557"><ele>64.0</ele><time>2026-05-01T12:18:35.001Z</time></trkpt><trkpt lat="39.049599659272445" lon="16.146453960023248"><ele>63.6</ele><time>2026-05-01T12:18:36.001Z</time></trkpt><trkpt lat="39.049516583181244" lon="16.146385962593005"><ele>63.2</ele><time>2026-05-01T12:18:37.001Z</time></trkpt><trkpt lat="39.0494316093186" lon="16.14631079561524"><ele>62.800000000000004</ele><time>2026-05-01T12:18:38.001Z</time></trkpt><trkpt lat="39.04934722177975" lon="16.146232453046515"><ele>62.400000000000006</ele><time>2026-05-01T12:18:39.001Z</time></trkpt><trkpt lat="39.0492657061667" lon="16.146163117129674"><ele>62.0</ele><time>2026-05-01T12:18:40.001Z</time></trkpt><trkpt lat="39.04918847961931" lon="16.14609135976806"><ele>63.8</ele><time>2026-05-01T12:18:41.001Z</time></trkpt><trkpt lat="39.04911420213082" lon="16.146023684474926"><ele>65.6</ele><time>2026-05-01T12:18:42.001Z</time></trkpt><trkpt lat="39.049054485347185" lon="16.14595356341465"><ele>67.39999999999999</ele><time>2026-05-01T12:18:43.001Z</time></trkpt><trkpt lat="39.04899000296493" lon="16.145907475329086"><ele>69.2</ele><time>2026-05-01T12:18:44.001Z</time></trkpt><trkpt lat="39.04889116897239" lon="16.145841150640454"><ele>71.0</ele><time>2026-05-01T12:18:45.001Z</time></trkpt><trkpt lat="39.04881242688738" lon="16.145778415883765"><ele>67.39999999999999</ele><time>2026-05-01T12:18:46.001Z</time></trkpt><trkpt lat="39.04872692766862" lon="16.145705037830506"><ele>63.8</ele><time>2026-05-01T12:18:47.001Z</time></trkpt><trkpt lat="39.0486370183602" lon="16.145632471774874"><ele>60.199999999999996</ele><time>2026-05-01T12:18:48.001Z</time></trkpt><trkpt lat="39.048541937269164" lon="16.14555494876141"><ele>56.599999999999994</ele><time>2026-05-01T12:18:49.001Z</time></trkpt><trkpt lat="39.0484468079605" lon="16.145475909599654"><ele>53.0</ele><time>2026-05-01T12:18:50.001Z</time></trkpt><trkpt lat="39.048353697543526" lon="16.145394939343035"><ele>56.75</ele><time>2026-05-01T12:18:51.001Z</time></trkpt><trkpt lat="39.04825820900607" lon="16.14531689439907"><ele>60.5</ele><time>2026-05-01T12:18:52.001Z</time></trkpt><trkpt lat="39.04815947565884" lon="16.14523823601619"><ele>64.25</ele><time>2026-05-01T12:18:53.001Z</time></trkpt><trkpt lat="39.048050133898606" lon="16.145168927418325"><ele>68.0</ele><time>2026-05-01T12:18:54.001Z</time></trkpt><trkpt lat="39.04794726686755" lon="16.145117817026783"><ele>68.0</ele><time>2026-05-01T12:18:55.001Z</time></trkpt><trkpt lat="39.04784055609862" lon="16.145052448085732"><ele>68.0</ele><time>2026-05-01T12:18:56.001Z</time></trkpt><trkpt lat="39.04772172696476" lon="16.1449922298931"><ele>68.0</ele><time>2026-05-01T12:18:57.001Z</time></trkpt><trkpt lat="39.04759640524048" lon="16.144940028973274"><ele>68.0</ele><time>2026-05-01T12:18:58.001Z</time></trkpt><trkpt lat="39.04746768174667" lon="16.144889715216074"><ele>63.0</ele><time>2026-05-01T12:18:59.001Z</time></trkpt><trkpt lat="39.04733768904506" lon="16.144849516188287"><ele>58.0</ele><time>2026-05-01T12:19:00.001Z</time></trkpt><trkpt lat="39.047197507953996" lon="16.144821991921024"><ele>53.0</ele><time>2026-05-01T12:19:01.001Z</time></trkpt><trkpt lat="39.04708383124017" lon="16.14477724093873"><ele>48.0</ele><time>2026-05-01T12:19:02.001Z</time></trkpt><trkpt lat="39.0469855763984" lon="16.144752450367633"><ele>48.0</ele><time>2026-05-01T12:19:03.001Z</time></trkpt><trkpt lat="39.046891833188155" lon="16.144728798132654"><ele>48.0</ele><time>2026-05-01T12:19:04.001Z</time></trkpt><trkpt lat="39.046796051985076" lon="16.14472615291622"><ele>48.0</ele><time>2026-05-01T12:19:05.001Z</time></trkpt><trkpt lat="39.046716351290904" lon="16.144684401981"><ele>48.0</ele><time>2026-05-01T12:19:06.001Z</time></trkpt><trkpt lat="39.046640124237726" lon="16.14466501977196"><ele>48.0</ele><time>2026-05-01T12:19:07.001Z</time></trkpt><trkpt lat="39.04656809279109" lon="16.144646704381547"><ele>48.0</ele><time>2026-05-01T12:19:08.001Z</time></trkpt><trkpt lat="39.046488838065386" lon="16.144626022807532"><ele>49.599999999999994</ele><time>2026-05-01T12:19:09.001Z</time></trkpt><trkpt lat="39.04640118924519" lon="16.144601925473932"><ele>51.199999999999996</ele><time>2026-05-01T12:19:10.001Z</time></trkpt><trkpt lat="39.046307878520714" lon="16.14457098806174"><ele>52.8</ele><time>2026-05-01T12:19:11.001Z</time></trkpt><trkpt lat="39.04620835275919" lon="16.14455311570366"><ele>54.4</ele><time>2026-05-01T12:19:12.001Z</time></trkpt><trkpt lat="39.04610941880553" lon="16.14448971008473"><ele>56.0</ele><time>2026-05-01T12:19:13.001Z</time></trkpt><trkpt lat="39.0460079684842" lon="16.144435412850484"><ele>56.0</ele><time>2026-05-01T12:19:14.001Z</time></trkpt><trkpt lat="39.045904244658566" lon="16.144378586149124"><ele>56.0</ele><time>2026-05-01T12:19:15.001Z</time></trkpt><trkpt lat="39.045800400976105" lon="16.14430367834184"><ele>56.0</ele><time>2026-05-01T12:19:16.001Z</time></trkpt><trkpt lat="39.04569696721065" lon="16.144229385184325"><ele>56.0</ele><time>2026-05-01T12:19:17.001Z</time></trkpt><trkpt lat="39.045595733144665" lon="16.14415457451494"><ele>56.0</ele><time>2026-05-01T12:19:18.001Z</time></trkpt><trkpt lat="39.04548918820141" lon="16.144079005092742"><ele>56.0</ele><time>2026-05-01T12:19:19.001Z</time></trkpt><trkpt lat="39.04538087350433" lon="16.143999779032615"><ele>56.0</ele><time>2026-05-01T12:19:20.001Z</time></trkpt><trkpt lat="39.045273119658724" lon="16.143917460973487"><ele>56.0</ele><time>2026-05-01T12:19:21.001Z</time></trkpt><trkpt lat="39.04515785545661" lon="16.143828876604346"><ele>56.0</ele><time>2026-05-01T12:19:22.001Z</time></trkpt><trkpt lat="39.04504007448512" lon="16.143736847079598"><ele>56.0</ele><time>2026-05-01T12:19:23.001Z</time></trkpt><trkpt lat="39.04491440191057" lon="16.1436442420857"><ele>56.0</ele><time>2026-05-01T12:19:24.001Z</time></trkpt><trkpt lat="39.04479264557714" lon="16.143551029655804"><ele>56.0</ele><time>2026-05-01T12:19:25.001Z</time></trkpt><trkpt lat="39.04466240903735" lon="16.143457010783994"><ele>59.0</ele><time>2026-05-01T12:19:26.001Z</time></trkpt><trkpt lat="39.04453072395514" lon="16.143358756212812"><ele>62.0</ele><time>2026-05-01T12:19:27.001Z</time></trkpt><trkpt lat="39.0443997987088" lon="16.143260674912145"><ele>65.0</ele><time>2026-05-01T12:19:28.001Z</time></trkpt><trkpt lat="39.044267209645284" lon="16.143160122440772"><ele>64.75</ele><time>2026-05-01T12:19:29.001Z</time></trkpt><trkpt lat="39.04414143276234" lon="16.143064952436468"><ele>64.5</ele><time>2026-05-01T12:19:30.001Z</time></trkpt><trkpt lat="39.04400658914766" lon="16.142970022736943"><ele>64.25</ele><time>2026-05-01T12:19:31.001Z</time></trkpt><trkpt lat="39.04387942596001" lon="16.14288098421315"><ele>64.0</ele><time>2026-05-01T12:19:32.001Z</time></trkpt><trkpt lat="39.04376203712988" lon="16.142791429140544"><ele>64.0</ele><time>2026-05-01T12:19:33.001Z</time></trkpt><trkpt lat="39.04365271992478" lon="16.14270737314882"><ele>64.0</ele><time>2026-05-01T12:19:34.001Z</time></trkpt><trkpt lat="39.04354490675488" lon="16.142623008689615"><ele>64.0</ele><time>2026-05-01T12:19:35.001Z</time></trkpt><trkpt lat="39.04344414998828" lon="16.142544101110925"><ele>64.0</ele><time>2026-05-01T12:19:36.001Z</time></trkpt><trkpt lat="39.043348462310526" lon="16.142462634889167"><ele>68.4</ele><time>2026-05-01T12:19:37.001Z</time></trkpt><trkpt lat="39.043263352839766" lon="16.142379001336234"><ele>72.80000000000001</ele><time>2026-05-01T12:19:38.001Z</time></trkpt><trkpt lat="39.043182263080965" lon="16.142293056619597"><ele>77.19999999999999</ele><time>2026-05-01T12:19:39.001Z</time></trkpt><trkpt lat="39.043111439226585" lon="16.142202823887835"><ele>81.6</ele><time>2026-05-01T12:19:40.001Z</time></trkpt><trkpt lat="39.0430490916895" lon="16.142108690290254"><ele>86.0</ele><time>2026-05-01T12:19:41.001Z</time></trkpt><trkpt lat="39.04299789175666" lon="16.14201418945189"><ele>86.0</ele><time>2026-05-01T12:19:42.001Z</time></trkpt><trkpt lat="39.04295805761647" lon="16.14191697963415"><ele>86.0</ele><time>2026-05-01T12:19:43.001Z</time></trkpt><trkpt lat="39.042920228602036" lon="16.141814881722723"><ele>86.0</ele><time>2026-05-01T12:19:44.001Z</time></trkpt><trkpt lat="39.04288591020942" lon="16.141718679020336"><ele>86.0</ele><time>2026-05-01T12:19:45.001Z</time></trkpt><trkpt lat="39.04285671279534" lon="16.141622665651315"><ele>86.0</ele><time>2026-05-01T12:19:46.001Z</time></trkpt><trkpt lat="39.04282599440743" lon="16.141529258440126"><ele>86.0</ele><time>2026-05-01T12:19:47.001Z</time></trkpt><trkpt lat="39.042800321045135" lon="16.141441466129415"><ele>85.00000000000001</ele><time>2026-05-01T12:19:48.001Z</time></trkpt><trkpt lat="39.04277449839159" lon="16.14135346824276"><ele>84.0</ele><time>2026-05-01T12:19:49.001Z</time></trkpt><trkpt lat="39.04275230391944" lon="16.14126319663761"><ele>83.0</ele><time>2026-05-01T12:19:50.001Z</time></trkpt><trkpt lat="39.042737196416134" lon="16.141173167500583"><ele>82.0</ele><time>2026-05-01T12:19:51.001Z</time></trkpt><trkpt lat="39.04272386403029" lon="16.141087212593785"><ele>81.0</ele><time>2026-05-01T12:19:52.001Z</time></trkpt><trkpt lat="39.042714794990886" lon="16.140987731497372"><ele>80.00000000000001</ele><time>2026-05-01T12:19:53.001Z</time></trkpt><trkpt lat="39.04270331222624" lon="16.14088070891116"><ele>79.0</ele><time>2026-05-01T12:19:54.001Z</time></trkpt><trkpt lat="39.042690650438004" lon="16.140760769320966"><ele>76.8</ele><time>2026-05-01T12:19:55.001Z</time></trkpt><trkpt lat="39.042680902227865" lon="16.140637454999155"><ele>74.60000000000001</ele><time>2026-05-01T12:19:56.001Z</time></trkpt><trkpt lat="39.04267391725855" lon="16.14050626472142"><ele>72.4</ele><time>2026-05-01T12:19:57.001Z</time></trkpt><trkpt lat="39.04267357832668" lon="16.140376711781244"><ele>70.2</ele><time>2026-05-01T12:19:58.001Z</time></trkpt><trkpt lat="39.042671557076716" lon="16.14024834342813"><ele>68.0</ele><time>2026-05-01T12:19:59.001Z</time></trkpt><trkpt lat="39.04266636623707" lon="16.140126985103034"><ele>68.0</ele><time>2026-05-01T12:20:00.001Z</time></trkpt><trkpt lat="39.042657506629624" lon="16.14000277210488"><ele>68.0</ele><time>2026-05-01T12:20:01.001Z</time></trkpt><trkpt lat="39.042648868817885" lon="16.139878521741903"><ele>68.0</ele><time>2026-05-01T12:20:02.001Z</time></trkpt><trkpt lat="39.042633638712715" lon="16.13975165636028"><ele>68.0</ele><time>2026-05-01T12:20:03.001Z</time></trkpt><trkpt lat="39.04261523192937" lon="16.139631660841868"><ele>68.0</ele><time>2026-05-01T12:20:04.001Z</time></trkpt><trkpt lat="39.042586177397894" lon="16.139509598180435"><ele>66.0</ele><time>2026-05-01T12:20:05.001Z</time></trkpt><trkpt lat="39.042551644761275" lon="16.139391041597502"><ele>64.0</ele><time>2026-05-01T12:20:06.001Z</time></trkpt><trkpt lat="39.042508178041075" lon="16.139276121687175"><ele>62.0</ele><time>2026-05-01T12:20:07.001Z</time></trkpt><trkpt lat="39.04245805022674" lon="16.139162684209293"><ele>60.0</ele><time>2026-05-01T12:20:08.001Z</time></trkpt><trkpt lat="39.04240048783532" lon="16.139050192186676"><ele>58.0</ele><time>2026-05-01T12:20:09.001Z</time></trkpt><trkpt lat="39.04233721722414" lon="16.138945812756752"><ele>58.0</ele><time>2026-05-01T12:20:10.001Z</time></trkpt><trkpt lat="39.042265661015456" lon="16.138850055071657"><ele>58.0</ele><time>2026-05-01T12:20:11.001Z</time></trkpt><trkpt lat="39.0421873071278" lon="16.13875908269886"><ele>58.0</ele><time>2026-05-01T12:20:12.001Z</time></trkpt><trkpt lat="39.042108445562626" lon="16.13866694854663"><ele>58.0</ele><time>2026-05-01T12:20:13.001Z</time></trkpt><trkpt lat="39.0420234601553" lon="16.138579721556184"><ele>58.0</ele><time>2026-05-01T12:20:14.001Z</time></trkpt><trkpt lat="39.04193945978175" lon="16.138491785340673"><ele>58.0</ele><time>2026-05-01T12:20:15.001Z</time></trkpt><trkpt lat="39.041855047865575" lon="16.13840150208115"><ele>58.0</ele><time>2026-05-01T12:20:16.001Z</time></trkpt><trkpt lat="39.041769610288625" lon="16.13831318666001"><ele>58.0</ele><time>2026-05-01T12:20:17.001Z</time></trkpt><trkpt lat="39.04168630243856" lon="16.13823008362115"><ele>58.0</ele><time>2026-05-01T12:20:18.001Z</time></trkpt><trkpt lat="39.0416026454235" lon="16.138137262869236"><ele>58.0</ele><time>2026-05-01T12:20:19.001Z</time></trkpt><trkpt lat="39.041525711198915" lon="16.13804852562998"><ele>58.0</ele><time>2026-05-01T12:20:20.001Z</time></trkpt><trkpt lat="39.041444802161145" lon="16.13796218349687"><ele>58.0</ele><time>2026-05-01T12:20:21.001Z</time></trkpt><trkpt lat="39.04136886657706" lon="16.137880152263843"><ele>58.0</ele><time>2026-05-01T12:20:22.001Z</time></trkpt><trkpt lat="39.04130281334548" lon="16.13780464881193"><ele>58.0</ele><time>2026-05-01T12:20:23.001Z</time></trkpt><trkpt lat="39.04124348486512" lon="16.137728730252455"><ele>58.0</ele><time>2026-05-01T12:20:24.001Z</time></trkpt><trkpt lat="39.041186934366856" lon="16.137655717453168"><ele>58.0</ele><time>2026-05-01T12:20:25.001Z</time></trkpt><trkpt lat="39.04113169859525" lon="16.137602188802187"><ele>58.0</ele><time>2026-05-01T12:20:26.001Z</time></trkpt><trkpt lat="39.04104243527551" lon="16.13747826697034"><ele>58.0</ele><time>2026-05-01T12:20:28.001Z</time></trkpt><trkpt lat="39.04097068958785" lon="16.13745885308704"><ele>58.0</ele><time>2026-05-01T12:20:29.001Z</time></trkpt><trkpt lat="39.04087320603666" lon="16.137372131748815"><ele>58.0</ele><time>2026-05-01T12:20:31.001Z</time></trkpt><trkpt lat="39.04078902905022" lon="16.137275052077225"><ele>58.8</ele><time>2026-05-01T12:20:33.001Z</time></trkpt><trkpt lat="39.040701664502315" lon="16.13717945466814"><ele>59.599999999999994</ele><time>2026-05-01T12:20:35.001Z</time></trkpt><trkpt lat="39.04059950080646" lon="16.13707024650871"><ele>60.400000000000006</ele><time>2026-05-01T12:20:37.001Z</time></trkpt><trkpt lat="39.04053940859128" lon="16.13700366715655"><ele>61.2</ele><time>2026-05-01T12:20:38.001Z</time></trkpt><trkpt lat="39.04047307402125" lon="16.136933953676014"><ele>62.0</ele><time>2026-05-01T12:20:39.001Z</time></trkpt><trkpt lat="39.040405554588574" lon="16.136862967545643"><ele>62.00000000000001</ele><time>2026-05-01T12:20:40.001Z</time></trkpt><trkpt lat="39.04033048685858" lon="16.136792253153004"><ele>62.0</ele><time>2026-05-01T12:20:41.001Z</time></trkpt><trkpt lat="39.04027140380618" lon="16.13672440026914"><ele>62.0</ele><time>2026-05-01T12:20:42.001Z</time></trkpt><trkpt lat="39.04021167458162" lon="16.136649242669787"><ele>62.0</ele><time>2026-05-01T12:20:43.001Z</time></trkpt><trkpt lat="39.04014669583026" lon="16.136579265522926"><ele>62.00000000000001</ele><time>2026-05-01T12:20:44.001Z</time></trkpt><trkpt lat="39.04008291955974" lon="16.13650343578334"><ele>62.0</ele><time>2026-05-01T12:20:45.001Z</time></trkpt><trkpt lat="39.040021283722766" lon="16.136427866795486"><ele>64.16666666666667</ele><time>2026-05-01T12:20:46.001Z</time></trkpt><trkpt lat="39.03996119456728" lon="16.136354973335724"><ele>66.33333333333334</ele><time>2026-05-01T12:20:47.001Z</time></trkpt><trkpt lat="39.039902090030125" lon="16.136276328795212"><ele>68.5</ele><time>2026-05-01T12:20:48.001Z</time></trkpt><trkpt lat="39.03985038611878" lon="16.136200024045902"><ele>70.66666666666667</ele><time>2026-05-01T12:20:49.001Z</time></trkpt><trkpt lat="39.0397965048938" lon="16.136124244998943"><ele>72.83333333333333</ele><time>2026-05-01T12:20:50.001Z</time></trkpt><trkpt lat="39.03975139618304" lon="16.136049696900894"><ele>75.0</ele><time>2026-05-01T12:20:51.001Z</time></trkpt><trkpt lat="39.03970149857614" lon="16.13597832964438"><ele>75.0</ele><time>2026-05-01T12:20:52.001Z</time></trkpt><trkpt lat="39.039659223303595" lon="16.135912441732202"><ele>75.0</ele><time>2026-05-01T12:20:53.001Z</time></trkpt><trkpt lat="39.03961557868213" lon="16.13582682311987"><ele>75.0</ele><time>2026-05-01T12:20:54.001Z</time></trkpt><trkpt lat="39.039570794544574" lon="16.13574055181981"><ele>75.0</ele><time>2026-05-01T12:20:55.001Z</time></trkpt><trkpt lat="39.03952683256874" lon="16.135652030524966"><ele>75.0</ele><time>2026-05-01T12:20:56.001Z</time></trkpt><trkpt lat="39.039476799871856" lon="16.13555454610268"><ele>75.0</ele><time>2026-05-01T12:20:57.001Z</time></trkpt><trkpt lat="39.039427063414216" lon="16.135453547356114"><ele>71.6</ele><time>2026-05-01T12:20:58.001Z</time></trkpt><trkpt lat="39.039379440089306" lon="16.135346127017538"><ele>68.2</ele><time>2026-05-01T12:20:59.001Z</time></trkpt><trkpt lat="39.039326988530995" lon="16.135238729079013"><ele>64.8</ele><time>2026-05-01T12:21:00.001Z</time></trkpt><trkpt lat="39.03928255198473" lon="16.135113823787183"><ele>61.4</ele><time>2026-05-01T12:21:01.001Z</time></trkpt><trkpt lat="39.03924944790984" lon="16.134991979280123"><ele>58.0</ele><time>2026-05-01T12:21:02.001Z</time></trkpt><trkpt lat="39.039203936405215" lon="16.134862752092484"><ele>56.0</ele><time>2026-05-01T12:21:03.001Z</time></trkpt><trkpt lat="39.03915072630152" lon="16.134738492493696"><ele>54.0</ele><time>2026-05-01T12:21:04.001Z</time></trkpt><trkpt lat="39.039115419116996" lon="16.134615825736706"><ele>52.0</ele><time>2026-05-01T12:21:05.001Z</time></trkpt><trkpt lat="39.03908197630412" lon="16.134490939550073"><ele>50.0</ele><time>2026-05-01T12:21:06.001Z</time></trkpt><trkpt lat="39.03903984975933" lon="16.134359209962145"><ele>48.0</ele><time>2026-05-01T12:21:07.001Z</time></trkpt><trkpt lat="39.03900000508557" lon="16.13423906544627"><ele>53.0</ele><time>2026-05-01T12:21:08.001Z</time></trkpt><trkpt lat="39.0389689762785" lon="16.13412249461079"><ele>58.0</ele><time>2026-05-01T12:21:09.001Z</time></trkpt><trkpt lat="39.03892506654668" lon="16.13398118900139"><ele>63.0</ele><time>2026-05-01T12:21:10.001Z</time></trkpt><trkpt lat="39.03888582370788" lon="16.13385649069127"><ele>68.0</ele><time>2026-05-01T12:21:11.001Z</time></trkpt><trkpt lat="39.03884785858877" lon="16.133730613450176"><ele>73.0</ele><time>2026-05-01T12:21:12.001Z</time></trkpt><trkpt lat="39.03880888502424" lon="16.13360365000204"><ele>73.0</ele><time>2026-05-01T12:21:13.001Z</time></trkpt><trkpt lat="39.03876792935206" lon="16.133469190450494"><ele>73.0</ele><time>2026-05-01T12:21:14.001Z</time></trkpt><trkpt lat="39.03873338638502" lon="16.133339875176336"><ele>73.0</ele><time>2026-05-01T12:21:15.001Z</time></trkpt><trkpt lat="39.03869651655778" lon="16.13322686444853"><ele>73.0</ele><time>2026-05-01T12:21:16.001Z</time></trkpt><trkpt lat="39.03867004438942" lon="16.133125615179917"><ele>73.0</ele><time>2026-05-01T12:21:17.001Z</time></trkpt><trkpt lat="39.038637996604976" lon="16.133027750066933"><ele>72.6</ele><time>2026-05-01T12:21:18.001Z</time></trkpt><trkpt lat="39.03861102766506" lon="16.13292320332471"><ele>72.19999999999999</ele><time>2026-05-01T12:21:19.001Z</time></trkpt><trkpt lat="39.03858745449608" lon="16.132803078961906"><ele>71.8</ele><time>2026-05-01T12:21:20.001Z</time></trkpt><trkpt lat="39.03857835580738" lon="16.13266745579686"><ele>71.39999999999999</ele><time>2026-05-01T12:21:21.001Z</time></trkpt><trkpt lat="39.03857463843555" lon="16.132518098082986"><ele>71.0</ele><time>2026-05-01T12:21:22.001Z</time></trkpt><trkpt lat="39.03856972328604" lon="16.13235849657064"><ele>71.0</ele><time>2026-05-01T12:21:23.001Z</time></trkpt><trkpt lat="39.038581470128584" lon="16.132186693860486"><ele>71.0</ele><time>2026-05-01T12:21:24.001Z</time></trkpt><trkpt lat="39.038611961650005" lon="16.13200569330194"><ele>71.0</ele><time>2026-05-01T12:21:25.001Z</time></trkpt><trkpt lat="39.03864739467443" lon="16.13181744166221"><ele>71.0</ele><time>2026-05-01T12:21:26.001Z</time></trkpt><trkpt lat="39.03870209591559" lon="16.131624800803866"><ele>74.0</ele><time>2026-05-01T12:21:27.001Z</time></trkpt><trkpt lat="39.038769209718794" lon="16.131432878128532"><ele>77.0</ele><time>2026-05-01T12:21:28.001Z</time></trkpt><trkpt lat="39.038853083021685" lon="16.13125086550315"><ele>80.0</ele><time>2026-05-01T12:21:29.001Z</time></trkpt><trkpt lat="39.03894520151465" lon="16.131075232478292"><ele>80.0</ele><time>2026-05-01T12:21:30.001Z</time></trkpt><trkpt lat="39.03903825734221" lon="16.130909365574865"><ele>80.0</ele><time>2026-05-01T12:21:31.001Z</time></trkpt><trkpt lat="39.03912047792045" lon="16.130750579286058"><ele>80.0</ele><time>2026-05-01T12:21:32.001Z</time></trkpt><trkpt lat="39.03918196099616" lon="16.130630031597285"><ele>80.0</ele><time>2026-05-01T12:21:33.001Z</time></trkpt><trkpt lat="39.03926209297814" lon="16.130483566316183"><ele>77.0</ele><time>2026-05-01T12:21:34.001Z</time></trkpt><trkpt lat="39.03933191555435" lon="16.130364717810657"><ele>74.0</ele><time>2026-05-01T12:21:35.001Z</time></trkpt><trkpt lat="39.039400196235206" lon="16.130252779489176"><ele>71.0</ele><time>2026-05-01T12:21:36.001Z</time></trkpt><trkpt lat="39.0394596701839" lon="16.130147389811842"><ele>68.0</ele><time>2026-05-01T12:21:37.001Z</time></trkpt><trkpt lat="39.0395176531515" lon="16.130042739008754"><ele>65.0</ele><time>2026-05-01T12:21:38.001Z</time></trkpt><trkpt lat="39.0395658432383" lon="16.129941431155586"><ele>68.83333333333334</ele><time>2026-05-01T12:21:39.001Z</time></trkpt><trkpt lat="39.03961467710537" lon="16.129846258054013"><ele>72.66666666666667</ele><time>2026-05-01T12:21:40.001Z</time></trkpt><trkpt lat="39.039662513472045" lon="16.129759243969282"><ele>76.5</ele><time>2026-05-01T12:21:41.001Z</time></trkpt><trkpt lat="39.03970747181026" lon="16.12967676955348"><ele>80.33333333333333</ele><time>2026-05-01T12:21:42.001Z</time></trkpt><trkpt lat="39.03974055136756" lon="16.129599239336514"><ele>84.16666666666666</ele><time>2026-05-01T12:21:43.001Z</time></trkpt><trkpt lat="39.039787214339654" lon="16.129524500179944"><ele>88.0</ele><time>2026-05-01T12:21:44.001Z</time></trkpt><trkpt lat="39.039827129283516" lon="16.12945932317051"><ele>88.0</ele><time>2026-05-01T12:21:45.001Z</time></trkpt><trkpt lat="39.03987281650797" lon="16.12939444164498"><ele>88.0</ele><time>2026-05-01T12:21:46.001Z</time></trkpt><trkpt lat="39.039911757919384" lon="16.129314404375336"><ele>88.0</ele><time>2026-05-01T12:21:47.001Z</time></trkpt><trkpt lat="39.03995081952137" lon="16.1292111552848"><ele>88.0</ele><time>2026-05-01T12:21:48.001Z</time></trkpt><trkpt lat="39.03999239242207" lon="16.129097961024016"><ele>88.0</ele><time>2026-05-01T12:21:49.001Z</time></trkpt><trkpt lat="39.04002490268555" lon="16.128976889110128"><ele>88.0</ele><time>2026-05-01T12:21:50.001Z</time></trkpt><trkpt lat="39.04004727479935" lon="16.128841027581743"><ele>76.5</ele><time>2026-05-01T12:21:51.001Z</time></trkpt><trkpt lat="39.04006337933126" lon="16.128702135279184"><ele>65.0</ele><time>2026-05-01T12:21:52.001Z</time></trkpt><trkpt lat="39.04006111655406" lon="16.128555609473786"><ele>53.5</ele><time>2026-05-01T12:21:53.001Z</time></trkpt><trkpt lat="39.040052020655054" lon="16.128400273085706"><ele>42.0</ele><time>2026-05-01T12:21:54.001Z</time></trkpt><trkpt lat="39.04002648912629" lon="16.12824130645562"><ele>39.25</ele><time>2026-05-01T12:21:55.001Z</time></trkpt><trkpt lat="39.03999553727013" lon="16.1280720331754"><ele>36.5</ele><time>2026-05-01T12:21:56.001Z</time></trkpt><trkpt lat="39.03994650884315" lon="16.12790941719741"><ele>33.75</ele><time>2026-05-01T12:21:57.001Z</time></trkpt><trkpt lat="39.03988565263987" lon="16.127751499793444"><ele>31.0</ele><time>2026-05-01T12:21:58.001Z</time></trkpt><trkpt lat="39.039825077851084" lon="16.127603882803555"><ele>41.2</ele><time>2026-05-01T12:21:59.001Z</time></trkpt><trkpt lat="39.03977738934466" lon="16.127460647338776"><ele>51.4</ele><time>2026-05-01T12:22:00.001Z</time></trkpt><trkpt lat="39.03973994405876" lon="16.12733066126159"><ele>61.599999999999994</ele><time>2026-05-01T12:22:01.001Z</time></trkpt><trkpt lat="39.0397066231442" lon="16.12720250584919"><ele>71.8</ele><time>2026-05-01T12:22:02.001Z</time></trkpt><trkpt lat="39.03968289799987" lon="16.12707267807816"><ele>82.0</ele><time>2026-05-01T12:22:03.001Z</time></trkpt><trkpt lat="39.039665003123865" lon="16.12693237558754"><ele>82.8</ele><time>2026-05-01T12:22:04.001Z</time></trkpt><trkpt lat="39.03965008125799" lon="16.126787891402568"><ele>83.6</ele><time>2026-05-01T12:22:05.001Z</time></trkpt><trkpt lat="39.03963824206221" lon="16.12665261350803"><ele>84.39999999999999</ele><time>2026-05-01T12:22:06.001Z</time></trkpt><trkpt lat="39.039631571373974" lon="16.126514194237032"><ele>85.19999999999999</ele><time>2026-05-01T12:22:07.001Z</time></trkpt><trkpt lat="39.039640343160585" lon="16.126384841329124"><ele>86.0</ele><time>2026-05-01T12:22:08.001Z</time></trkpt><trkpt lat="39.03965727053624" lon="16.126262026372963"><ele>86.75</ele><time>2026-05-01T12:22:09.001Z</time></trkpt><trkpt lat="39.03967960132393" lon="16.12612901569514"><ele>87.5</ele><time>2026-05-01T12:22:10.001Z</time></trkpt><trkpt lat="39.03970566257065" lon="16.125993244676348"><ele>88.25</ele><time>2026-05-01T12:22:11.001Z</time></trkpt><trkpt lat="39.039745319956474" lon="16.12585009366126"><ele>89.0</ele><time>2026-05-01T12:22:12.001Z</time></trkpt><trkpt lat="39.039798519820685" lon="16.12571289173391"><ele>87.5</ele><time>2026-05-01T12:22:13.001Z</time></trkpt><trkpt lat="39.039865572772186" lon="16.12558014516293"><ele>86.0</ele><time>2026-05-01T12:22:14.001Z</time></trkpt><trkpt lat="39.039931549502725" lon="16.125454951154225"><ele>84.5</ele><time>2026-05-01T12:22:15.001Z</time></trkpt><trkpt lat="39.03999665496539" lon="16.12534524956184"><ele>83.0</ele><time>2026-05-01T12:22:16.001Z</time></trkpt><trkpt lat="39.0400636409952" lon="16.125229059860185"><ele>74.0</ele><time>2026-05-01T12:22:17.001Z</time></trkpt><trkpt lat="39.04013825152404" lon="16.125111774121162"><ele>65.0</ele><time>2026-05-01T12:22:18.001Z</time></trkpt><trkpt lat="39.04021947328661" lon="16.125007663454337"><ele>56.0</ele><time>2026-05-01T12:22:19.001Z</time></trkpt><trkpt lat="39.04029906530098" lon="16.124904359294817"><ele>47.0</ele><time>2026-05-01T12:22:20.001Z</time></trkpt><trkpt lat="39.04037389113298" lon="16.1248052741834"><ele>46.166666666666664</ele><time>2026-05-01T12:22:21.001Z</time></trkpt><trkpt lat="39.04044364842134" lon="16.124719319063743"><ele>45.33333333333333</ele><time>2026-05-01T12:22:22.001Z</time></trkpt><trkpt lat="39.040511076642844" lon="16.12463489693353"><ele>44.5</ele><time>2026-05-01T12:22:23.001Z</time></trkpt><trkpt lat="39.040572343177445" lon="16.124556940972777"><ele>43.666666666666664</ele><time>2026-05-01T12:22:24.001Z</time></trkpt><trkpt lat="39.0406301602552" lon="16.124483741758475"><ele>42.833333333333336</ele><time>2026-05-01T12:22:25.001Z</time></trkpt><trkpt lat="39.040679101366585" lon="16.124409201014675"><ele>42.0</ele><time>2026-05-01T12:22:26.001Z</time></trkpt><trkpt lat="39.04071927251896" lon="16.12433220460948"><ele>42.0</ele><time>2026-05-01T12:22:27.001Z</time></trkpt><trkpt lat="39.040783168592064" lon="16.124208007974346"><ele>42.0</ele><time>2026-05-01T12:22:29.001Z</time></trkpt><trkpt lat="39.04080572110979" lon="16.124086665770264"><ele>42.0</ele><time>2026-05-01T12:22:31.001Z</time></trkpt><trkpt lat="39.040750569338954" lon="16.123986658684327"><ele>42.0</ele><time>2026-05-01T12:22:35.001Z</time></trkpt><trkpt lat="39.040691895351365" lon="16.12393429259253"><ele>42.0</ele><time>2026-05-01T12:22:36.001Z</time></trkpt><trkpt lat="39.04060608591187" lon="16.123901886043935"><ele>38.2</ele><time>2026-05-01T12:22:37.001Z</time></trkpt><trkpt lat="39.040519473190855" lon="16.123892637264703"><ele>34.400000000000006</ele><time>2026-05-01T12:22:38.001Z</time></trkpt><trkpt lat="39.040423298142656" lon="16.123870413685875"><ele>30.6</ele><time>2026-05-01T12:22:39.001Z</time></trkpt><trkpt lat="39.0403183615405" lon="16.123857632062528"><ele>26.799999999999997</ele><time>2026-05-01T12:22:40.001Z</time></trkpt><trkpt lat="39.040207056513985" lon="16.123840409090104"><ele>23.0</ele><time>2026-05-01T12:22:41.001Z</time></trkpt><trkpt lat="39.04009070476847" lon="16.123854286062123"><ele>23.0</ele><time>2026-05-01T12:22:42.001Z</time></trkpt><trkpt lat="39.03997101690598" lon="16.123902155744616"><ele>23.0</ele><time>2026-05-01T12:22:43.001Z</time></trkpt><trkpt lat="39.03985992799484" lon="16.123935933784473"><ele>23.0</ele><time>2026-05-01T12:22:44.001Z</time></trkpt><trkpt lat="39.03975531764704" lon="16.12396197717253"><ele>23.0</ele><time>2026-05-01T12:22:45.001Z</time></trkpt><trkpt lat="39.039665328105734" lon="16.123976503201867"><ele>23.0</ele><time>2026-05-01T12:22:46.001Z</time></trkpt><trkpt lat="39.039546293408826" lon="16.12397409734711"><ele>23.75</ele><time>2026-05-01T12:22:47.001Z</time></trkpt><trkpt lat="39.03942693568856" lon="16.1239414458803"><ele>24.5</ele><time>2026-05-01T12:22:48.001Z</time></trkpt><trkpt lat="39.039307373042035" lon="16.12388905380082"><ele>25.25</ele><time>2026-05-01T12:22:49.001Z</time></trkpt><trkpt lat="39.03918208481808" lon="16.123827552318797"><ele>26.0</ele><time>2026-05-01T12:22:50.001Z</time></trkpt><trkpt lat="39.03904947684978" lon="16.123772470175766"><ele>30.75</ele><time>2026-05-01T12:22:51.001Z</time></trkpt><trkpt lat="39.038915520263245" lon="16.12370530981377"><ele>35.5</ele><time>2026-05-01T12:22:52.001Z</time></trkpt><trkpt lat="39.0387812318494" lon="16.123648031633124"><ele>40.25</ele><time>2026-05-01T12:22:53.001Z</time></trkpt><trkpt lat="39.03864176840566" lon="16.12358669674532"><ele>45.0</ele><time>2026-05-01T12:22:54.001Z</time></trkpt><trkpt lat="39.03850671192582" lon="16.12352525203327"><ele>45.0</ele><time>2026-05-01T12:22:55.001Z</time></trkpt><trkpt lat="39.03837783984957" lon="16.12346659682143"><ele>45.0</ele><time>2026-05-01T12:22:56.001Z</time></trkpt><trkpt lat="39.03826282042998" lon="16.12339894166911"><ele>45.0</ele><time>2026-05-01T12:22:57.001Z</time></trkpt><trkpt lat="39.038157871843254" lon="16.123312363909843"><ele>45.0</ele><time>2026-05-01T12:22:58.001Z</time></trkpt><trkpt lat="39.03807493114763" lon="16.123175259834376"><ele>47.33333333333333</ele><time>2026-05-01T12:22:59.001Z</time></trkpt><trkpt lat="39.03797192007125" lon="16.123042717542756"><ele>49.666666666666664</ele><time>2026-05-01T12:23:00.001Z</time></trkpt><trkpt lat="39.0378812431279" lon="16.122884834930108"><ele>52.0</ele><time>2026-05-01T12:23:01.001Z</time></trkpt><trkpt lat="39.03779783176277" lon="16.12272173727421"><ele>52.0</ele><time>2026-05-01T12:23:02.001Z</time></trkpt><trkpt lat="39.03772729496686" lon="16.122550389958377"><ele>52.0</ele><time>2026-05-01T12:23:03.001Z</time></trkpt><trkpt lat="39.03767283345503" lon="16.122383772778942"><ele>52.0</ele><time>2026-05-01T12:23:04.001Z</time></trkpt><trkpt lat="39.037613513100844" lon="16.122233209694738"><ele>52.0</ele><time>2026-05-01T12:23:05.001Z</time></trkpt><trkpt lat="39.037534757067014" lon="16.122106826008984"><ele>53.0</ele><time>2026-05-01T12:23:06.001Z</time></trkpt><trkpt lat="39.03743409972002" lon="16.121983575247715"><ele>54.0</ele><time>2026-05-01T12:23:07.001Z</time></trkpt><trkpt lat="39.037318109166456" lon="16.12185765203974"><ele>55.0</ele><time>2026-05-01T12:23:08.001Z</time></trkpt><trkpt lat="39.03720047414135" lon="16.121720358891963"><ele>56.0</ele><time>2026-05-01T12:23:09.001Z</time></trkpt><trkpt lat="39.03708321807244" lon="16.1215740236942"><ele>50.0</ele><time>2026-05-01T12:23:10.001Z</time></trkpt><trkpt lat="39.03696414709972" lon="16.121425002186424"><ele>44.0</ele><time>2026-05-01T12:23:11.001Z</time></trkpt><trkpt lat="39.03683792845683" lon="16.121272526660608"><ele>38.0</ele><time>2026-05-01T12:23:12.001Z</time></trkpt><trkpt lat="39.03671065756271" lon="16.12111105505786"><ele>40.33333333333333</ele><time>2026-05-01T12:23:13.001Z</time></trkpt><trkpt lat="39.03657650789224" lon="16.120949329543123"><ele>42.666666666666664</ele><time>2026-05-01T12:23:14.001Z</time></trkpt><trkpt lat="39.03643678948124" lon="16.12078661687197"><ele>45.0</ele><time>2026-05-01T12:23:15.001Z</time></trkpt><trkpt lat="39.03630422305054" lon="16.12062439076132"><ele>45.0</ele><time>2026-05-01T12:23:16.001Z</time></trkpt><trkpt lat="39.03616856942825" lon="16.12046122725301"><ele>45.0</ele><time>2026-05-01T12:23:17.001Z</time></trkpt><trkpt lat="39.03603782639451" lon="16.120292811984765"><ele>45.0</ele><time>2026-05-01T12:23:18.001Z</time></trkpt><trkpt lat="39.03590628029921" lon="16.1201319537536"><ele>44.333333333333336</ele><time>2026-05-01T12:23:19.001Z</time></trkpt><trkpt lat="39.03577183865743" lon="16.119967320802"><ele>43.66666666666667</ele><time>2026-05-01T12:23:20.001Z</time></trkpt><trkpt lat="39.03563519992254" lon="16.119811227879037"><ele>43.0</ele><time>2026-05-01T12:23:21.001Z</time></trkpt><trkpt lat="39.03550655093567" lon="16.119650764435917"><ele>43.0</ele><time>2026-05-01T12:23:22.001Z</time></trkpt><trkpt lat="39.03538021503029" lon="16.119503883466177"><ele>43.0</ele><time>2026-05-01T12:23:23.001Z</time></trkpt><trkpt lat="39.03526372405893" lon="16.11935970163296"><ele>43.0</ele><time>2026-05-01T12:23:24.001Z</time></trkpt><trkpt lat="39.0351513951364" lon="16.11921441550924"><ele>43.0</ele><time>2026-05-01T12:23:25.001Z</time></trkpt><trkpt lat="39.03504119702831" lon="16.11907932995752"><ele>43.0</ele><time>2026-05-01T12:23:26.001Z</time></trkpt><trkpt lat="39.034931585179294" lon="16.11895405558971"><ele>43.0</ele><time>2026-05-01T12:23:27.001Z</time></trkpt><trkpt lat="39.03480834229696" lon="16.118856002658806"><ele>43.0</ele><time>2026-05-01T12:23:28.001Z</time></trkpt><trkpt lat="39.034676072151115" lon="16.11878971882372"><ele>38.333333333333336</ele><time>2026-05-01T12:23:29.001Z</time></trkpt><trkpt lat="39.03452339518921" lon="16.11875000261434"><ele>33.666666666666664</ele><time>2026-05-01T12:23:30.001Z</time></trkpt><trkpt lat="39.034372439320215" lon="16.118721347504078"><ele>29.0</ele><time>2026-05-01T12:23:31.001Z</time></trkpt><trkpt lat="39.03423064234441" lon="16.11868980660497"><ele>29.0</ele><time>2026-05-01T12:23:32.001Z</time></trkpt><trkpt lat="39.03409880725401" lon="16.118658116132252"><ele>29.0</ele><time>2026-05-01T12:23:33.001Z</time></trkpt><trkpt lat="39.03398030438443" lon="16.118648879027962"><ele>29.0</ele><time>2026-05-01T12:23:34.001Z</time></trkpt><trkpt lat="39.03385875732587" lon="16.11868043552811"><ele>29.0</ele><time>2026-05-01T12:23:35.001Z</time></trkpt><trkpt lat="39.033730605232876" lon="16.118725806934073"><ele>29.0</ele><time>2026-05-01T12:23:36.001Z</time></trkpt><trkpt lat="39.03359463375209" lon="16.118756969020115"><ele>29.0</ele><time>2026-05-01T12:23:37.001Z</time></trkpt><trkpt lat="39.03345637358611" lon="16.11879347881487"><ele>29.0</ele><time>2026-05-01T12:23:38.001Z</time></trkpt><trkpt lat="39.03331457610165" lon="16.11883339515569"><ele>29.0</ele><time>2026-05-01T12:23:39.001Z</time></trkpt><trkpt lat="39.03317743569845" lon="16.118887630426457"><ele>29.0</ele><time>2026-05-01T12:23:40.001Z</time></trkpt><trkpt lat="39.03304287888798" lon="16.118949461967357"><ele>29.0</ele><time>2026-05-01T12:23:41.001Z</time></trkpt><trkpt lat="39.032926477811955" lon="16.11901593945069"><ele>29.0</ele><time>2026-05-01T12:23:42.001Z</time></trkpt><trkpt lat="39.03282329452532" lon="16.119071355726135"><ele>29.0</ele><time>2026-05-01T12:23:43.001Z</time></trkpt><trkpt lat="39.032727448345824" lon="16.11911440020542"><ele>29.333333333333332</ele><time>2026-05-01T12:23:44.001Z</time></trkpt><trkpt lat="39.032635150821285" lon="16.119149493371747"><ele>29.666666666666664</ele><time>2026-05-01T12:23:45.001Z</time></trkpt><trkpt lat="39.032553831449775" lon="16.119188293637208"><ele>30.0</ele><time>2026-05-01T12:23:46.001Z</time></trkpt><trkpt lat="39.032482186483584" lon="16.11923455489663"><ele>30.333333333333336</ele><time>2026-05-01T12:23:47.001Z</time></trkpt><trkpt lat="39.03241907227164" lon="16.119289774749337"><ele>30.666666666666668</ele><time>2026-05-01T12:23:48.001Z</time></trkpt><trkpt lat="39.03236750264098" lon="16.119353812797332"><ele>31.0</ele><time>2026-05-01T12:23:49.001Z</time></trkpt><trkpt lat="39.03229886570934" lon="16.119404812944953"><ele>31.0</ele><time>2026-05-01T12:23:50.001Z</time></trkpt><trkpt lat="39.03224184509324" lon="16.119486093098864"><ele>31.0</ele><time>2026-05-01T12:23:51.001Z</time></trkpt><trkpt lat="39.03217995963426" lon="16.119566118635245"><ele>31.0</ele><time>2026-05-01T12:23:52.001Z</time></trkpt><trkpt lat="39.032116301959235" lon="16.119649310251102"><ele>31.0</ele><time>2026-05-01T12:23:53.001Z</time></trkpt><trkpt lat="39.03205092057806" lon="16.119734755941202"><ele>31.0</ele><time>2026-05-01T12:23:54.001Z</time></trkpt><trkpt lat="39.03198166385233" lon="16.119819762841143"><ele>30.6</ele><time>2026-05-01T12:23:55.001Z</time></trkpt><trkpt lat="39.031919307921065" lon="16.11992415475776"><ele>30.200000000000003</ele><time>2026-05-01T12:23:56.001Z</time></trkpt><trkpt lat="39.03184168065649" lon="16.120017491497016"><ele>29.799999999999997</ele><time>2026-05-01T12:23:57.001Z</time></trkpt><trkpt lat="39.031762970584424" lon="16.120114882678152"><ele>29.4</ele><time>2026-05-01T12:23:58.001Z</time></trkpt><trkpt lat="39.03168388137737" lon="16.120219366592224"><ele>29.0</ele><time>2026-05-01T12:23:59.001Z</time></trkpt><trkpt lat="39.03160206250546" lon="16.120323123589426"><ele>29.0</ele><time>2026-05-01T12:24:00.001Z</time></trkpt><trkpt lat="39.031517432170375" lon="16.120425023129282"><ele>29.0</ele><time>2026-05-01T12:24:01.001Z</time></trkpt><trkpt lat="39.03143917977524" lon="16.120526202110135"><ele>29.0</ele><time>2026-05-01T12:24:02.001Z</time></trkpt><trkpt lat="39.03139187648279" lon="16.120649029458722"><ele>29.0</ele><time>2026-05-01T12:24:03.001Z</time></trkpt><trkpt lat="39.03134253362154" lon="16.120764430058586"><ele>29.0</ele><time>2026-05-01T12:24:04.001Z</time></trkpt><trkpt lat="39.03129061881382" lon="16.12087371799088"><ele>29.799999999999997</ele><time>2026-05-01T12:24:05.001Z</time></trkpt><trkpt lat="39.03125283420287" lon="16.120992150143792"><ele>30.599999999999998</ele><time>2026-05-01T12:24:06.001Z</time></trkpt><trkpt lat="39.03121722599549" lon="16.12110936201468"><ele>31.4</ele><time>2026-05-01T12:24:07.001Z</time></trkpt><trkpt lat="39.03118333184551" lon="16.121222383824826"><ele>32.199999999999996</ele><time>2026-05-01T12:24:08.001Z</time></trkpt><trkpt lat="39.0311476533926" lon="16.121341355421535"><ele>33.0</ele><time>2026-05-01T12:24:09.001Z</time></trkpt><trkpt lat="39.031115691042295" lon="16.121453165942416"><ele>34.199999999999996</ele><time>2026-05-01T12:24:10.001Z</time></trkpt><trkpt lat="39.03108929768395" lon="16.12156555035678"><ele>35.4</ele><time>2026-05-01T12:24:11.001Z</time></trkpt><trkpt lat="39.03105855598844" lon="16.12167909518833"><ele>36.599999999999994</ele><time>2026-05-01T12:24:12.001Z</time></trkpt><trkpt lat="39.03103859360657" lon="16.121800481233997"><ele>37.8</ele><time>2026-05-01T12:24:13.001Z</time></trkpt><trkpt lat="39.031035046073114" lon="16.12193361420333"><ele>39.0</ele><time>2026-05-01T12:24:14.001Z</time></trkpt><trkpt lat="39.0310367403673" lon="16.12206848075668"><ele>39.0</ele><time>2026-05-01T12:24:15.001Z</time></trkpt><trkpt lat="39.031028322659466" lon="16.12220587919787"><ele>39.0</ele><time>2026-05-01T12:24:16.001Z</time></trkpt><trkpt lat="39.03102405083645" lon="16.12235342438809"><ele>39.0</ele><time>2026-05-01T12:24:17.001Z</time></trkpt><trkpt lat="39.03101758463715" lon="16.122500986755366"><ele>39.0</ele><time>2026-05-01T12:24:18.001Z</time></trkpt><trkpt lat="39.031014101888886" lon="16.122656327085505"><ele>39.5</ele><time>2026-05-01T12:24:19.001Z</time></trkpt><trkpt lat="39.031011307620005" lon="16.12281169114908"><ele>40.0</ele><time>2026-05-01T12:24:20.001Z</time></trkpt><trkpt lat="39.031003942503936" lon="16.122972996572308"><ele>40.5</ele><time>2026-05-01T12:24:21.001Z</time></trkpt><trkpt lat="39.030981717644885" lon="16.123139724332994"><ele>41.0</ele><time>2026-05-01T12:24:22.001Z</time></trkpt><trkpt lat="39.03097454428603" lon="16.12329874622536"><ele>41.0</ele><time>2026-05-01T12:24:23.001Z</time></trkpt><trkpt lat="39.03098200466723" lon="16.12346548004502"><ele>41.0</ele><time>2026-05-01T12:24:24.001Z</time></trkpt><trkpt lat="39.030988265268576" lon="16.12362869974276"><ele>41.0</ele><time>2026-05-01T12:24:25.001Z</time></trkpt><trkpt lat="39.031011089295355" lon="16.123793981177947"><ele>41.0</ele><time>2026-05-01T12:24:26.001Z</time></trkpt><trkpt lat="39.03104009764001" lon="16.123954940195222"><ele>41.5</ele><time>2026-05-01T12:24:27.001Z</time></trkpt><trkpt lat="39.03106307276077" lon="16.12412042915825"><ele>42.0</ele><time>2026-05-01T12:24:28.001Z</time></trkpt><trkpt lat="39.03108311972755" lon="16.124290588393848"><ele>42.5</ele><time>2026-05-01T12:24:29.001Z</time></trkpt><trkpt lat="39.031103908043825" lon="16.124459592102646"><ele>43.0</ele><time>2026-05-01T12:24:30.001Z</time></trkpt><trkpt lat="39.0311257155421" lon="16.124631978310383"><ele>43.0</ele><time>2026-05-01T12:24:31.001Z</time></trkpt><trkpt lat="39.03116326756443" lon="16.124791525601417"><ele>43.0</ele><time>2026-05-01T12:24:32.001Z</time></trkpt><trkpt lat="39.031231072655615" lon="16.124948158669785"><ele>43.0</ele><time>2026-05-01T12:24:33.001Z</time></trkpt><trkpt lat="39.03128945685734" lon="16.125104031978395"><ele>43.0</ele><time>2026-05-01T12:24:34.001Z</time></trkpt><trkpt lat="39.03133781263578" lon="16.125250272543994"><ele>43.0</ele><time>2026-05-01T12:24:35.001Z</time></trkpt><trkpt lat="39.031348366964" lon="16.125404376500384"><ele>43.0</ele><time>2026-05-01T12:24:36.001Z</time></trkpt><trkpt lat="39.03137261275596" lon="16.125548070060667"><ele>43.0</ele><time>2026-05-01T12:24:37.001Z</time></trkpt><trkpt lat="39.03139535470626" lon="16.125678836155654"><ele>43.0</ele><time>2026-05-01T12:24:38.001Z</time></trkpt><trkpt lat="39.031413947400715" lon="16.125793588867058"><ele>43.0</ele><time>2026-05-01T12:24:39.001Z</time></trkpt><trkpt lat="39.03144354420595" lon="16.1258962131149"><ele>43.16666666666667</ele><time>2026-05-01T12:24:40.001Z</time></trkpt><trkpt lat="39.03143013814543" lon="16.125987087731044"><ele>43.333333333333336</ele><time>2026-05-01T12:24:41.001Z</time></trkpt><trkpt lat="39.03141392738883" lon="16.12606731410662"><ele>43.5</ele><time>2026-05-01T12:24:42.001Z</time></trkpt><trkpt lat="39.03137190979839" lon="16.126132147545434"><ele>43.666666666666664</ele><time>2026-05-01T12:24:43.001Z</time></trkpt><trkpt lat="39.031307066982805" lon="16.126180153125134"><ele>43.83333333333333</ele><time>2026-05-01T12:24:44.001Z</time></trkpt><trkpt lat="39.03123813128157" lon="16.12625873099001"><ele>44.0</ele><time>2026-05-01T12:24:45.001Z</time></trkpt><trkpt lat="39.03116452844755" lon="16.126342628715623"><ele>44.0</ele><time>2026-05-01T12:24:46.001Z</time></trkpt><trkpt lat="39.031088165422695" lon="16.126429672988568"><ele>44.0</ele><time>2026-05-01T12:24:47.001Z</time></trkpt><trkpt lat="39.031006191586215" lon="16.12652069982758"><ele>44.0</ele><time>2026-05-01T12:24:48.001Z</time></trkpt><trkpt lat="39.03092384538041" lon="16.12661185439543"><ele>44.0</ele><time>2026-05-01T12:24:49.001Z</time></trkpt><trkpt lat="39.03084133287709" lon="16.126703655823423"><ele>44.0</ele><time>2026-05-01T12:24:50.001Z</time></trkpt><trkpt lat="39.03075602213555" lon="16.126802094084173"><ele>47.0</ele><time>2026-05-01T12:24:51.001Z</time></trkpt><trkpt lat="39.03067058291938" lon="16.12690181818966"><ele>50.0</ele><time>2026-05-01T12:24:52.001Z</time></trkpt><trkpt lat="39.03058832012717" lon="16.126997834889778"><ele>53.00000000000001</ele><time>2026-05-01T12:24:53.001Z</time></trkpt><trkpt lat="39.030505689206905" lon="16.12708971297061"><ele>56.0</ele><time>2026-05-01T12:24:54.001Z</time></trkpt><trkpt lat="39.03041825583353" lon="16.127166410336805"><ele>59.0</ele><time>2026-05-01T12:24:55.001Z</time></trkpt><trkpt lat="39.030320827994416" lon="16.127218425522415"><ele>59.0</ele><time>2026-05-01T12:24:56.001Z</time></trkpt><trkpt lat="39.030222285653196" lon="16.127214612095084"><ele>59.0</ele><time>2026-05-01T12:24:57.001Z</time></trkpt><trkpt lat="39.03011582966895" lon="16.12717037349955"><ele>59.0</ele><time>2026-05-01T12:24:58.001Z</time></trkpt><trkpt lat="39.03001407062329" lon="16.127055991299752"><ele>59.0</ele><time>2026-05-01T12:24:59.001Z</time></trkpt><trkpt lat="39.02991483714259" lon="16.126933327805634"><ele>63.75</ele><time>2026-05-01T12:25:00.001Z</time></trkpt><trkpt lat="39.02991665092443" lon="16.12677499590013"><ele>68.5</ele><time>2026-05-01T12:25:02.001Z</time></trkpt><trkpt lat="39.0298622304001" lon="16.126640303590957"><ele>73.25</ele><time>2026-05-01T12:25:03.001Z</time></trkpt><trkpt lat="39.02982602175436" lon="16.12649103041495"><ele>78.0</ele><time>2026-05-01T12:25:04.001Z</time></trkpt><trkpt lat="39.02978615804956" lon="16.12634353216884"><ele>78.0</ele><time>2026-05-01T12:25:05.001Z</time></trkpt><trkpt lat="39.02974128130109" lon="16.12619694449831"><ele>78.0</ele><time>2026-05-01T12:25:06.001Z</time></trkpt><trkpt lat="39.02969034079674" lon="16.126041868666736"><ele>78.0</ele><time>2026-05-01T12:25:07.001Z</time></trkpt><trkpt lat="39.02962313760772" lon="16.12588218740173"><ele>78.0</ele><time>2026-05-01T12:25:08.001Z</time></trkpt><trkpt lat="39.02954326618357" lon="16.12571832681695"><ele>75.33333333333333</ele><time>2026-05-01T12:25:09.001Z</time></trkpt><trkpt lat="39.0294608417333" lon="16.125551914495524"><ele>72.66666666666666</ele><time>2026-05-01T12:25:10.001Z</time></trkpt><trkpt lat="39.02937707323882" lon="16.12538583281687"><ele>70.0</ele><time>2026-05-01T12:25:11.001Z</time></trkpt><trkpt lat="39.02929321750088" lon="16.12521445386736"><ele>70.0</ele><time>2026-05-01T12:25:12.001Z</time></trkpt><trkpt lat="39.029204002525816" lon="16.12504375337889"><ele>70.0</ele><time>2026-05-01T12:25:13.001Z</time></trkpt><trkpt lat="39.02911738906988" lon="16.124866599959503"><ele>70.0</ele><time>2026-05-01T12:25:14.001Z</time></trkpt><trkpt lat="39.029028413730444" lon="16.12468516059915"><ele>76.0</ele><time>2026-05-01T12:25:15.001Z</time></trkpt><trkpt lat="39.02894273618247" lon="16.124503535064555"><ele>82.0</ele><time>2026-05-01T12:25:16.001Z</time></trkpt><trkpt lat="39.028852422170914" lon="16.12432060144054"><ele>88.0</ele><time>2026-05-01T12:25:17.001Z</time></trkpt><trkpt lat="39.02876763156338" lon="16.124136770778573"><ele>83.66666666666666</ele><time>2026-05-01T12:25:18.001Z</time></trkpt><trkpt lat="39.02867809424934" lon="16.12395809655225"><ele>79.33333333333333</ele><time>2026-05-01T12:25:19.001Z</time></trkpt><trkpt lat="39.02858334447606" lon="16.12378338316694"><ele>75.0</ele><time>2026-05-01T12:25:20.001Z</time></trkpt><trkpt lat="39.02848821820991" lon="16.123614366661844"><ele>75.0</ele><time>2026-05-01T12:25:21.001Z</time></trkpt><trkpt lat="39.028388252358766" lon="16.12344927667864"><ele>75.0</ele><time>2026-05-01T12:25:22.001Z</time></trkpt><trkpt lat="39.02828751042698" lon="16.123290850226102"><ele>75.0</ele><time>2026-05-01T12:25:23.001Z</time></trkpt><trkpt lat="39.028177072315096" lon="16.123148995971402"><ele>75.25</ele><time>2026-05-01T12:25:24.001Z</time></trkpt><trkpt lat="39.02804564524905" lon="16.123043595006"><ele>75.5</ele><time>2026-05-01T12:25:25.001Z</time></trkpt><trkpt lat="39.027911487404005" lon="16.122969648231827"><ele>75.75</ele><time>2026-05-01T12:25:26.001Z</time></trkpt><trkpt lat="39.027796830938186" lon="16.122895847347095"><ele>76.0</ele><time>2026-05-01T12:25:27.001Z</time></trkpt><trkpt lat="39.0277078210138" lon="16.122792477236224"><ele>76.0</ele><time>2026-05-01T12:25:28.001Z</time></trkpt><trkpt lat="39.02764077718352" lon="16.122669865646024"><ele>76.0</ele><time>2026-05-01T12:25:29.001Z</time></trkpt><trkpt lat="39.02760876251353" lon="16.122537553789947"><ele>76.0</ele><time>2026-05-01T12:25:30.001Z</time></trkpt><trkpt lat="39.02760065969657" lon="16.12241047438888"><ele>76.0</ele><time>2026-05-01T12:25:31.001Z</time></trkpt><trkpt lat="39.02760738384064" lon="16.12229047416763"><ele>76.0</ele><time>2026-05-01T12:25:32.001Z</time></trkpt><trkpt lat="39.02762416704862" lon="16.122180137843383"><ele>73.6</ele><time>2026-05-01T12:25:33.001Z</time></trkpt><trkpt lat="39.0276432754242" lon="16.122071938358623"><ele>71.19999999999999</ele><time>2026-05-01T12:25:34.001Z</time></trkpt><trkpt lat="39.02765097518155" lon="16.12196806178081"><ele>68.80000000000001</ele><time>2026-05-01T12:25:35.001Z</time></trkpt><trkpt lat="39.027673972977404" lon="16.121874265876073"><ele>66.4</ele><time>2026-05-01T12:25:36.001Z</time></trkpt><trkpt lat="39.027644336833404" lon="16.12172647067959"><ele>64.0</ele><time>2026-05-01T12:25:38.001Z</time></trkpt><trkpt lat="39.02752656920269" lon="16.12169043916947"><ele>64.16666666666666</ele><time>2026-05-01T12:25:40.001Z</time></trkpt><trkpt lat="39.027457686801526" lon="16.121724392987808"><ele>64.33333333333333</ele><time>2026-05-01T12:25:41.001Z</time></trkpt><trkpt lat="39.02740502353162" lon="16.121786001073282"><ele>64.5</ele><time>2026-05-01T12:25:42.001Z</time></trkpt><trkpt lat="39.02738026153982" lon="16.121863280900232"><ele>64.66666666666667</ele><time>2026-05-01T12:25:43.001Z</time></trkpt><trkpt lat="39.027372035654444" lon="16.121974448497465"><ele>64.83333333333334</ele><time>2026-05-01T12:25:45.001Z</time></trkpt><trkpt lat="39.02738747093699" lon="16.122053426628128"><ele>65.0</ele><time>2026-05-01T12:26:57.001Z</time></trkpt><trkpt lat="39.02745951275417" lon="16.122132221200733"><ele>64.8</ele><time>2026-05-01T12:27:00.001Z</time></trkpt><trkpt lat="39.02749944798525" lon="16.12223909735065"><ele>64.6</ele><time>2026-05-01T12:27:02.001Z</time></trkpt><trkpt lat="39.02748766541341" lon="16.12238272761105"><ele>64.4</ele><time>2026-05-01T12:27:04.001Z</time></trkpt><trkpt lat="39.02747856611879" lon="16.122465484920024"><ele>64.2</ele><time>2026-05-01T12:27:05.001Z</time></trkpt><trkpt lat="39.02747519850694" lon="16.122628461412102"><ele>64.0</ele><time>2026-05-01T12:27:07.001Z</time></trkpt><trkpt lat="39.02747802292075" lon="16.122711405346298"><ele>65.71428571428571</ele><time>2026-05-01T12:27:08.001Z</time></trkpt><trkpt lat="39.02748988788588" lon="16.122795113611865"><ele>67.42857142857142</ele><time>2026-05-01T12:27:09.001Z</time></trkpt><trkpt lat="39.027507262146216" lon="16.122879666265245"><ele>69.14285714285714</ele><time>2026-05-01T12:27:10.001Z</time></trkpt><trkpt lat="39.027529053063795" lon="16.122960963011398"><ele>70.85714285714286</ele><time>2026-05-01T12:27:11.001Z</time></trkpt><trkpt lat="39.027563460841534" lon="16.123037699792526"><ele>72.57142857142858</ele><time>2026-05-01T12:27:12Z</time></trkpt><trkpt lat="39.02760442792379" lon="16.123109653880814"><ele>74.28571428571428</ele><time>2026-05-01T12:27:13Z</time></trkpt><trkpt lat="39.02765273634995" lon="16.12318768633411"><ele>76.0</ele><time>2026-05-01T12:27:14Z</time></trkpt><trkpt lat="39.02770208832802" lon="16.123275890593117"><ele>79.0</ele><time>2026-05-01T12:27:15Z</time></trkpt><trkpt lat="39.027757676618336" lon="16.123369777302248"><ele>82.0</ele><time>2026-05-01T12:27:16Z</time></trkpt><trkpt lat="39.02781718221237" lon="16.123467826631593"><ele>85.0</ele><time>2026-05-01T12:27:17.001Z</time></trkpt><trkpt lat="39.02787631903355" lon="16.123570085854958"><ele>88.0</ele><time>2026-05-01T12:27:18.001Z</time></trkpt><trkpt lat="39.027942974179446" lon="16.12367137514633"><ele>91.0</ele><time>2026-05-01T12:27:19.001Z</time></trkpt><trkpt lat="39.028005543125865" lon="16.12377562296426"><ele>91.0</ele><time>2026-05-01T12:27:20.001Z</time></trkpt><trkpt lat="39.028068369389544" lon="16.1238905413753"><ele>91.0</ele><time>2026-05-01T12:27:21.001Z</time></trkpt><trkpt lat="39.02812592146234" lon="16.124022231779197"><ele>91.0</ele><time>2026-05-01T12:27:22.001Z</time></trkpt><trkpt lat="39.028171100822256" lon="16.124174389973348"><ele>91.0</ele><time>2026-05-01T12:27:23.001Z</time></trkpt><trkpt lat="39.02821177518767" lon="16.12434116835454"><ele>95.5</ele><time>2026-05-01T12:27:24.001Z</time></trkpt><trkpt lat="39.028231523005985" lon="16.124518703712017"><ele>100.0</ele><time>2026-05-01T12:27:25.001Z</time></trkpt><trkpt lat="39.02824286401745" lon="16.124718387393695"><ele>104.5</ele><time>2026-05-01T12:27:26.001Z</time></trkpt><trkpt lat="39.028239584637696" lon="16.12491266550808"><ele>109.0</ele><time>2026-05-01T12:27:27.001Z</time></trkpt><trkpt lat="39.028234878006735" lon="16.125103721589074"><ele>114.0</ele><time>2026-05-01T12:27:28.001Z</time></trkpt><trkpt lat="39.028243634556645" lon="16.125294455619553"><ele>119.0</ele><time>2026-05-01T12:27:29.001Z</time></trkpt><trkpt lat="39.0282579039708" lon="16.125492670003776"><ele>124.0</ele><time>2026-05-01T12:27:30.001Z</time></trkpt><trkpt lat="39.02827575937042" lon="16.125696035622333"><ele>128.0</ele><time>2026-05-01T12:27:31.001Z</time></trkpt><trkpt lat="39.02830340289729" lon="16.1259017783906"><ele>132.0</ele><time>2026-05-01T12:27:32.001Z</time></trkpt><trkpt lat="39.02833849916919" lon="16.126109510742687"><ele>136.0</ele><time>2026-05-01T12:27:33.001Z</time></trkpt><trkpt lat="39.02837807730518" lon="16.126313702973103"><ele>128.33333333333334</ele><time>2026-05-01T12:27:34.001Z</time></trkpt><trkpt lat="39.028424640724005" lon="16.126517879126183"><ele>120.66666666666666</ele><time>2026-05-01T12:27:35.001Z</time></trkpt><trkpt lat="39.028460076254305" lon="16.126730825149615"><ele>113.0</ele><time>2026-05-01T12:27:36.001Z</time></trkpt><trkpt lat="39.02849819795026" lon="16.126927388361448"><ele>113.0</ele><time>2026-05-01T12:27:37.001Z</time></trkpt><trkpt lat="39.028523972276105" lon="16.127122472828987"><ele>113.0</ele><time>2026-05-01T12:27:38.001Z</time></trkpt><trkpt lat="39.02853217864905" lon="16.127325094243275"><ele>113.0</ele><time>2026-05-01T12:27:39.001Z</time></trkpt><trkpt lat="39.02849311322514" lon="16.127517716974364"><ele>116.0</ele><time>2026-05-01T12:27:40.001Z</time></trkpt><trkpt lat="39.028479435450144" lon="16.12770706719739"><ele>119.0</ele><time>2026-05-01T12:27:41Z</time></trkpt><trkpt lat="39.02845861958416" lon="16.12788734972146"><ele>122.0</ele><time>2026-05-01T12:27:42Z</time></trkpt><trkpt lat="39.028465667227294" lon="16.128074151903892"><ele>125.0</ele><time>2026-05-01T12:27:43Z</time></trkpt><trkpt lat="39.02851969008852" lon="16.128247951921196"><ele>129.0</ele><time>2026-05-01T12:27:44Z</time></trkpt><trkpt lat="39.028604510575036" lon="16.12841160408438"><ele>133.0</ele><time>2026-05-01T12:27:45Z</time></trkpt><trkpt lat="39.0287077709526" lon="16.128563066372386"><ele>137.0</ele><time>2026-05-01T12:27:46Z</time></trkpt><trkpt lat="39.02882263292213" lon="16.128701652267793"><ele>137.0</ele><time>2026-05-01T12:27:47Z</time></trkpt><trkpt lat="39.028947449529504" lon="16.128826936342236"><ele>137.0</ele><time>2026-05-01T12:27:48Z</time></trkpt><trkpt lat="39.02906684320956" lon="16.128962057958308"><ele>137.0</ele><time>2026-05-01T12:27:49Z</time></trkpt><trkpt lat="39.02914569297643" lon="16.129135919118806"><ele>135.0</ele><time>2026-05-01T12:27:50Z</time></trkpt><trkpt lat="39.029217299751004" lon="16.129318534064573"><ele>133.0</ele><time>2026-05-01T12:27:51Z</time></trkpt><trkpt lat="39.02925774733973" lon="16.12952005847254"><ele>131.0</ele><time>2026-05-01T12:27:52Z</time></trkpt><trkpt lat="39.029350835580296" lon="16.12969904729988"><ele>134.75</ele><time>2026-05-01T12:27:53Z</time></trkpt><trkpt lat="39.029307416281725" lon="16.12991221099438"><ele>138.5</ele><time>2026-05-01T12:27:54Z</time></trkpt><trkpt lat="39.02934677872049" lon="16.130075875192784"><ele>142.25</ele><time>2026-05-01T12:27:55Z</time></trkpt><trkpt lat="39.02941831907972" lon="16.13020920789261"><ele>146.0</ele><time>2026-05-01T12:27:56Z</time></trkpt><trkpt lat="39.02951709614237" lon="16.13032246498247"><ele>146.0</ele><time>2026-05-01T12:27:57Z</time></trkpt><trkpt lat="39.029612103993585" lon="16.130443738019263"><ele>146.0</ele><time>2026-05-01T12:27:58Z</time></trkpt><trkpt lat="39.02966533900527" lon="16.130592693540628"><ele>146.0</ele><time>2026-05-01T12:27:59Z</time></trkpt><trkpt lat="39.029710645717365" lon="16.13074646627078"><ele>146.0</ele><time>2026-05-01T12:28:00Z</time></trkpt><trkpt lat="39.02975191754112" lon="16.13091544758423"><ele>149.25</ele><time>2026-05-01T12:28:01Z</time></trkpt><trkpt lat="39.02977607365779" lon="16.131090694226046"><ele>152.5</ele><time>2026-05-01T12:28:02Z</time></trkpt><trkpt lat="39.029792148399174" lon="16.131273601626514"><ele>155.75</ele><time>2026-05-01T12:28:03Z</time></trkpt><trkpt lat="39.02983389409638" lon="16.131453800753448"><ele>159.0</ele><time>2026-05-01T12:28:04Z</time></trkpt><trkpt lat="39.02986073939642" lon="16.131643035633804"><ele>163.33333333333334</ele><time>2026-05-01T12:28:05Z</time></trkpt><trkpt lat="39.0298941620458" lon="16.131830971252377"><ele>167.66666666666669</ele><time>2026-05-01T12:28:06Z</time></trkpt><trkpt lat="39.02991979254062" lon="16.13202625979875"><ele>172.0</ele><time>2026-05-01T12:28:07Z</time></trkpt><trkpt lat="39.02996830848914" lon="16.13221185421018"><ele>168.0</ele><time>2026-05-01T12:28:08Z</time></trkpt><trkpt lat="39.0300466143976" lon="16.132376883197516"><ele>164.0</ele><time>2026-05-01T12:28:09Z</time></trkpt><trkpt lat="39.03011223069196" lon="16.13254679159823"><ele>160.0</ele><time>2026-05-01T12:28:10Z</time></trkpt><trkpt lat="39.030128382831776" lon="16.132732209666457"><ele>156.0</ele><time>2026-05-01T12:28:11Z</time></trkpt><trkpt lat="39.0301342572512" lon="16.13291611116792"><ele>156.0</ele><time>2026-05-01T12:28:12Z</time></trkpt><trkpt lat="39.030167792702485" lon="16.13309551946696"><ele>156.0</ele><time>2026-05-01T12:28:13Z</time></trkpt><trkpt lat="39.03021737008392" lon="16.133264183972607"><ele>156.0</ele><time>2026-05-01T12:28:14Z</time></trkpt><trkpt lat="39.030283167781576" lon="16.13343018000619"><ele>156.0</ele><time>2026-05-01T12:28:15Z</time></trkpt><trkpt lat="39.03036439196194" lon="16.133577394764817"><ele>159.0</ele><time>2026-05-01T12:28:16Z</time></trkpt><trkpt lat="39.0304677723406" lon="16.133697699189923"><ele>162.0</ele><time>2026-05-01T12:28:17Z</time></trkpt><trkpt lat="39.03060177711346" lon="16.133781132947377"><ele>165.0</ele><time>2026-05-01T12:28:18Z</time></trkpt><trkpt lat="39.030688056091236" lon="16.133920893905625"><ele>168.0</ele><time>2026-05-01T12:28:19Z</time></trkpt><trkpt lat="39.03077455900973" lon="16.134071766550434"><ele>165.25</ele><time>2026-05-01T12:28:20Z</time></trkpt><trkpt lat="39.03088469981373" lon="16.13417796073833"><ele>162.5</ele><time>2026-05-01T12:28:21Z</time></trkpt><trkpt lat="39.031008539576206" lon="16.13423512700548"><ele>159.75</ele><time>2026-05-01T12:28:22Z</time></trkpt><trkpt lat="39.03113615962129" lon="16.134243209068867"><ele>157.0</ele><time>2026-05-01T12:28:23Z</time></trkpt><trkpt lat="39.03124312631339" lon="16.134284024126533"><ele>157.0</ele><time>2026-05-01T12:28:24Z</time></trkpt><trkpt lat="39.03133525023726" lon="16.134364059829974"><ele>157.0</ele><time>2026-05-01T12:28:25Z</time></trkpt><trkpt lat="39.03145183925541" lon="16.134463435427158"><ele>157.0</ele><time>2026-05-01T12:28:26Z</time></trkpt><trkpt lat="39.031567136902126" lon="16.134568005808454"><ele>157.0</ele><time>2026-05-01T12:28:27Z</time></trkpt><trkpt lat="39.031681018864624" lon="16.134674285522394"><ele>158.5</ele><time>2026-05-01T12:28:28Z</time></trkpt><trkpt lat="39.03179154121317" lon="16.13479486357164"><ele>160.0</ele><time>2026-05-01T12:28:29Z</time></trkpt><trkpt lat="39.03188148689104" lon="16.13493618443075"><ele>161.5</ele><time>2026-05-01T12:28:30Z</time></trkpt><trkpt lat="39.0319873185275" lon="16.135073627222038"><ele>163.0</ele><time>2026-05-01T12:28:31Z</time></trkpt><trkpt lat="39.03208588107494" lon="16.135225422672832"><ele>163.0</ele><time>2026-05-01T12:28:32Z</time></trkpt><trkpt lat="39.032203979046116" lon="16.135350258140384"><ele>163.0</ele><time>2026-05-01T12:28:33Z</time></trkpt><trkpt lat="39.03232709338171" lon="16.135437366625847"><ele>163.0</ele><time>2026-05-01T12:28:34Z</time></trkpt><trkpt lat="39.032465740161555" lon="16.1355680641165"><ele>160.0</ele><time>2026-05-01T12:28:35Z</time></trkpt><trkpt lat="39.03260838486376" lon="16.135664759665673"><ele>157.0</ele><time>2026-05-01T12:28:36Z</time></trkpt><trkpt lat="39.03274235747634" lon="16.135788152895586"><ele>154.0</ele><time>2026-05-01T12:28:37Z</time></trkpt><trkpt lat="39.03287066892692" lon="16.135912368573223"><ele>160.66666666666669</ele><time>2026-05-01T12:28:38Z</time></trkpt><trkpt lat="39.03299437204333" lon="16.136039538302423"><ele>167.33333333333334</ele><time>2026-05-01T12:28:39Z</time></trkpt><trkpt lat="39.03311003958431" lon="16.13617271020243"><ele>174.0</ele><time>2026-05-01T12:28:40Z</time></trkpt><trkpt lat="39.033229656723826" lon="16.13628408141479"><ele>170.5</ele><time>2026-05-01T12:28:41Z</time></trkpt><trkpt lat="39.03335187980939" lon="16.13635118567593"><ele>167.0</ele><time>2026-05-01T12:28:42Z</time></trkpt><trkpt lat="39.03347123574065" lon="16.13640103545279"><ele>163.5</ele><time>2026-05-01T12:28:43Z</time></trkpt><trkpt lat="39.033578592258046" lon="16.13645577398414"><ele>160.0</ele><time>2026-05-01T12:28:44Z</time></trkpt><trkpt lat="39.03366715917849" lon="16.136534964860523"><ele>163.4</ele><time>2026-05-01T12:28:45Z</time></trkpt><trkpt lat="39.03371858342964" lon="16.13664285939543"><ele>166.8</ele><time>2026-05-01T12:28:46Z</time></trkpt><trkpt lat="39.03375083115357" lon="16.136764549063592"><ele>170.2</ele><time>2026-05-01T12:28:47Z</time></trkpt><trkpt lat="39.03377474455744" lon="16.13689573663951"><ele>173.6</ele><time>2026-05-01T12:28:48Z</time></trkpt><trkpt lat="39.033787582147944" lon="16.137033213510986"><ele>177.0</ele><time>2026-05-01T12:28:49Z</time></trkpt><trkpt lat="39.03379274526647" lon="16.137177820701446"><ele>177.0</ele><time>2026-05-01T12:28:50Z</time></trkpt><trkpt lat="39.03377692135121" lon="16.137324780588354"><ele>177.0</ele><time>2026-05-01T12:28:51Z</time></trkpt><trkpt lat="39.033768925565816" lon="16.13747427825464"><ele>177.0</ele><time>2026-05-01T12:28:52Z</time></trkpt><trkpt lat="39.03378895318103" lon="16.1376380905377"><ele>177.0</ele><time>2026-05-01T12:28:53Z</time></trkpt><trkpt lat="39.033825921697954" lon="16.13781523245252"><ele>180.0</ele><time>2026-05-01T12:28:54Z</time></trkpt><trkpt lat="39.03387985933422" lon="16.137983141298147"><ele>183.0</ele><time>2026-05-01T12:28:55Z</time></trkpt><trkpt lat="39.03394757599915" lon="16.138145878852065"><ele>186.0</ele><time>2026-05-01T12:28:56Z</time></trkpt><trkpt lat="39.034010305666065" lon="16.13830135371087"><ele>189.0</ele><time>2026-05-01T12:28:57Z</time></trkpt><trkpt lat="39.03403378949568" lon="16.138455624522113"><ele>190.6</ele><time>2026-05-01T12:28:58Z</time></trkpt><trkpt lat="39.03404343239589" lon="16.138598002403903"><ele>192.2</ele><time>2026-05-01T12:28:59Z</time></trkpt><trkpt lat="39.034044236227004" lon="16.13874038756008"><ele>193.79999999999998</ele><time>2026-05-01T12:29:00Z</time></trkpt><trkpt lat="39.034018606614524" lon="16.13887671606317"><ele>195.39999999999998</ele><time>2026-05-01T12:29:01Z</time></trkpt><trkpt lat="39.03398822489317" lon="16.139007698638636"><ele>197.0</ele><time>2026-05-01T12:29:02Z</time></trkpt><trkpt lat="39.03395703819254" lon="16.139130894467563"><ele>197.8</ele><time>2026-05-01T12:29:03Z</time></trkpt><trkpt lat="39.03393462150823" lon="16.139256570133725"><ele>198.6</ele><time>2026-05-01T12:29:04Z</time></trkpt><trkpt lat="39.03387228857736" lon="16.139348015726437"><ele>199.4</ele><time>2026-05-01T12:29:05Z</time></trkpt><trkpt lat="39.033826267309266" lon="16.13944990969771"><ele>200.20000000000002</ele><time>2026-05-01T12:29:06Z</time></trkpt><trkpt lat="39.03381168073147" lon="16.139564560932257"><ele>201.0</ele><time>2026-05-01T12:29:07Z</time></trkpt><trkpt lat="39.033813455224546" lon="16.139678171169653"><ele>201.0</ele><time>2026-05-01T12:29:08Z</time></trkpt><trkpt lat="39.03383808942149" lon="16.1397899772616"><ele>201.0</ele><time>2026-05-01T12:29:09Z</time></trkpt><trkpt lat="39.03387378725969" lon="16.13989448759898"><ele>201.0</ele><time>2026-05-01T12:29:10Z</time></trkpt><trkpt lat="39.03391262255224" lon="16.13999068203598"><ele>201.0</ele><time>2026-05-01T12:29:11Z</time></trkpt><trkpt lat="39.03395404512666" lon="16.140072330657283"><ele>201.0</ele><time>2026-05-01T12:29:12Z</time></trkpt><trkpt lat="39.03400164036259" lon="16.140148917218244"><ele>201.0</ele><time>2026-05-01T12:29:13Z</time></trkpt><trkpt lat="39.03403256275227" lon="16.140242475847465"><ele>202.5</ele><time>2026-05-01T12:29:14Z</time></trkpt><trkpt lat="39.03408872836608" lon="16.140314741780934"><ele>204.0</ele><time>2026-05-01T12:29:15Z</time></trkpt><trkpt lat="39.034108807965325" lon="16.140413130833682"><ele>205.5</ele><time>2026-05-01T12:29:16Z</time></trkpt><trkpt lat="39.034139914071375" lon="16.140502780240443"><ele>207.0</ele><time>2026-05-01T12:29:17Z</time></trkpt><trkpt lat="39.03417056017982" lon="16.14059118419683"><ele>208.5</ele><time>2026-05-01T12:29:18Z</time></trkpt><trkpt lat="39.034199081888794" lon="16.140678186131208"><ele>210.0</ele><time>2026-05-01T12:29:19Z</time></trkpt><trkpt lat="39.034225039460686" lon="16.140762332612688"><ele>211.5</ele><time>2026-05-01T12:29:20Z</time></trkpt><trkpt lat="39.03423013144251" lon="16.140909788644155"><ele>213.0</ele><time>2026-05-01T12:29:22Z</time></trkpt><trkpt lat="39.03420521685593" lon="16.14098534112246"><ele>214.5</ele><time>2026-05-01T12:29:23Z</time></trkpt><trkpt lat="39.034158268985436" lon="16.14104994833184"><ele>216.0</ele><time>2026-05-01T12:29:24Z</time></trkpt><trkpt lat="39.034116714936445" lon="16.141122857394926"><ele>217.5</ele><time>2026-05-01T12:29:25Z</time></trkpt><trkpt lat="39.03408215403438" lon="16.14120139765698"><ele>219.0</ele><time>2026-05-01T12:29:26Z</time></trkpt><trkpt lat="39.034034330378624" lon="16.141268963712367"><ele>219.0</ele><time>2026-05-01T12:29:27Z</time></trkpt><trkpt lat="39.03398044123935" lon="16.14133237167374"><ele>219.0</ele><time>2026-05-01T12:29:28Z</time></trkpt><trkpt lat="39.03392758693138" lon="16.14139828678336"><ele>219.0</ele><time>2026-05-01T12:29:29Z</time></trkpt><trkpt lat="39.03386328534879" lon="16.14144440675452"><ele>219.0</ele><time>2026-05-01T12:29:30Z</time></trkpt><trkpt lat="39.03381146103747" lon="16.14151355128547"><ele>219.0</ele><time>2026-05-01T12:29:31Z</time></trkpt><trkpt lat="39.03377727108774" lon="16.14159755136675"><ele>219.0</ele><time>2026-05-01T12:29:32Z</time></trkpt><trkpt lat="39.03374567531862" lon="16.141680328798888"><ele>219.0</ele><time>2026-05-01T12:29:33Z</time></trkpt><trkpt lat="39.03371022747637" lon="16.141759369932306"><ele>218.16666666666666</ele><time>2026-05-01T12:29:34Z</time></trkpt><trkpt lat="39.03366748204737" lon="16.141826556199234"><ele>217.33333333333331</ele><time>2026-05-01T12:29:35Z</time></trkpt><trkpt lat="39.03361308454094" lon="16.141872311486175"><ele>216.5</ele><time>2026-05-01T12:29:36Z</time></trkpt><trkpt lat="39.03349673287695" lon="16.141902881504684"><ele>215.66666666666666</ele><time>2026-05-01T12:29:38Z</time></trkpt><trkpt lat="39.03337748636219" lon="16.141938909162565"><ele>214.83333333333331</ele><time>2026-05-01T12:29:40Z</time></trkpt><trkpt lat="39.0333166022977" lon="16.141971962068915"><ele>214.0</ele><time>2026-05-01T12:29:41Z</time></trkpt><trkpt lat="39.033248674757175" lon="16.142022431698663"><ele>218.2</ele><time>2026-05-01T12:29:42Z</time></trkpt><trkpt lat="39.03317335967257" lon="16.14207659451817"><ele>222.39999999999998</ele><time>2026-05-01T12:29:43Z</time></trkpt><trkpt lat="39.03309257417457" lon="16.1421505093275"><ele>226.6</ele><time>2026-05-01T12:29:44Z</time></trkpt><trkpt lat="39.03299692110668" lon="16.142214040835015"><ele>230.8</ele><time>2026-05-01T12:29:45Z</time></trkpt><trkpt lat="39.032927563795624" lon="16.14231372818904"><ele>235.0</ele><time>2026-05-01T12:29:46Z</time></trkpt><trkpt lat="39.03286168710836" lon="16.14240307731766"><ele>235.0</ele><time>2026-05-01T12:29:47Z</time></trkpt><trkpt lat="39.03280931022913" lon="16.14249808025199"><ele>235.0</ele><time>2026-05-01T12:29:48Z</time></trkpt><trkpt lat="39.032809181455875" lon="16.14260728319761"><ele>235.0</ele><time>2026-05-01T12:29:49Z</time></trkpt><trkpt lat="39.03284909470799" lon="16.142704995902097"><ele>235.0</ele><time>2026-05-01T12:29:50Z</time></trkpt><trkpt lat="39.03292158903961" lon="16.14277348652442"><ele>235.0</ele><time>2026-05-01T12:29:51Z</time></trkpt><trkpt lat="39.03302580365342" lon="16.142767731824303"><ele>235.0</ele><time>2026-05-01T12:29:52Z</time></trkpt><trkpt lat="39.033120548530924" lon="16.14276519106666"><ele>235.0</ele><time>2026-05-01T12:29:53Z</time></trkpt><trkpt lat="39.03322139327648" lon="16.142772120233033"><ele>235.0</ele><time>2026-05-01T12:29:54Z</time></trkpt><trkpt lat="39.03332453854293" lon="16.142844093230263"><ele>235.0</ele><time>2026-05-01T12:29:55Z</time></trkpt><trkpt lat="39.03343420592512" lon="16.142905121077145"><ele>235.0</ele><time>2026-05-01T12:29:56Z</time></trkpt><trkpt lat="39.033553956630286" lon="16.142957106206747"><ele>233.0</ele><time>2026-05-01T12:29:57Z</time></trkpt><trkpt lat="39.03367331713351" lon="16.143003822753972"><ele>231.0</ele><time>2026-05-01T12:29:58Z</time></trkpt><trkpt lat="39.03377279756544" lon="16.14304022355119"><ele>229.0</ele><time>2026-05-01T12:29:59Z</time></trkpt><trkpt lat="39.033858061555975" lon="16.143084681408094"><ele>227.0</ele><time>2026-05-01T12:30:00Z</time></trkpt><trkpt lat="39.033926900088474" lon="16.143159976405936"><ele>225.0</ele><time>2026-05-01T12:30:01Z</time></trkpt><trkpt lat="39.03399462780119" lon="16.143248224591954"><ele>225.0</ele><time>2026-05-01T12:30:02Z</time></trkpt><trkpt lat="39.03403258977174" lon="16.143356658937854"><ele>225.0</ele><time>2026-05-01T12:30:03Z</time></trkpt><trkpt lat="39.03403583283175" lon="16.143476657862717"><ele>225.0</ele><time>2026-05-01T12:30:04Z</time></trkpt><trkpt lat="39.0340430072938" lon="16.1436209976545"><ele>225.0</ele><time>2026-05-01T12:30:05Z</time></trkpt><trkpt lat="39.03404533631357" lon="16.143775646841696"><ele>225.0</ele><time>2026-05-01T12:30:06Z</time></trkpt><trkpt lat="39.03402985483411" lon="16.143927997157785"><ele>230.0</ele><time>2026-05-01T12:30:07Z</time></trkpt><trkpt lat="39.033984911307506" lon="16.14406827874366"><ele>235.0</ele><time>2026-05-01T12:30:08Z</time></trkpt><trkpt lat="39.033940102151384" lon="16.144230955583524"><ele>240.0</ele><time>2026-05-01T12:30:09Z</time></trkpt><trkpt lat="39.0339141936534" lon="16.14439911771552"><ele>245.0</ele><time>2026-05-01T12:30:10Z</time></trkpt><trkpt lat="39.03394138210872" lon="16.144608324688786"><ele>245.0</ele><time>2026-05-01T12:30:11Z</time></trkpt><trkpt lat="39.03394838649862" lon="16.144821522187012"><ele>245.0</ele><time>2026-05-01T12:30:12Z</time></trkpt><trkpt lat="39.03397361460096" lon="16.145039417253937"><ele>245.0</ele><time>2026-05-01T12:30:13Z</time></trkpt><trkpt lat="39.0340081192974" lon="16.14524324953263"><ele>249.33333333333334</ele><time>2026-05-01T12:30:14Z</time></trkpt><trkpt lat="39.03402034958989" lon="16.145472952604454"><ele>253.66666666666669</ele><time>2026-05-01T12:30:15Z</time></trkpt><trkpt lat="39.03405353027635" lon="16.145700717882857"><ele>258.0</ele><time>2026-05-01T12:30:16Z</time></trkpt><trkpt lat="39.034132370384896" lon="16.14590905851539"><ele>247.33333333333331</ele><time>2026-05-01T12:30:17Z</time></trkpt><trkpt lat="39.03421870501906" lon="16.146105833191974"><ele>236.66666666666666</ele><time>2026-05-01T12:30:18Z</time></trkpt><trkpt lat="39.03430569636664" lon="16.146297576622697"><ele>226.0</ele><time>2026-05-01T12:30:19Z</time></trkpt><trkpt lat="39.034368394582536" lon="16.14649266009661"><ele>230.66666666666666</ele><time>2026-05-01T12:30:20Z</time></trkpt><trkpt lat="39.03441137030539" lon="16.146695992926396"><ele>235.33333333333331</ele><time>2026-05-01T12:30:21Z</time></trkpt><trkpt lat="39.03442731781357" lon="16.14690489798748"><ele>240.0</ele><time>2026-05-01T12:30:22Z</time></trkpt><trkpt lat="39.034435802439525" lon="16.14710496773391"><ele>240.0</ele><time>2026-05-01T12:30:23Z</time></trkpt><trkpt lat="39.03443025420493" lon="16.147303167006985"><ele>240.0</ele><time>2026-05-01T12:30:24Z</time></trkpt><trkpt lat="39.03446177931787" lon="16.147495584250485"><ele>240.0</ele><time>2026-05-01T12:30:25Z</time></trkpt><trkpt lat="39.034505908125254" lon="16.14768495259859"><ele>242.5</ele><time>2026-05-01T12:30:26Z</time></trkpt><trkpt lat="39.034571580629915" lon="16.147859771388198"><ele>245.0</ele><time>2026-05-01T12:30:27Z</time></trkpt><trkpt lat="39.03457103516331" lon="16.1480437040842"><ele>247.5</ele><time>2026-05-01T12:30:28Z</time></trkpt><trkpt lat="39.0345741165513" lon="16.148220023570886"><ele>250.0</ele><time>2026-05-01T12:30:29Z</time></trkpt><trkpt lat="39.03454450379212" lon="16.148378763907534"><ele>250.0</ele><time>2026-05-01T12:30:30Z</time></trkpt><trkpt lat="39.034473290860156" lon="16.148486973582592"><ele>250.0</ele><time>2026-05-01T12:30:31Z</time></trkpt><trkpt lat="39.034393598933306" lon="16.148601413900977"><ele>250.0</ele><time>2026-05-01T12:30:32Z</time></trkpt><trkpt lat="39.034302569343836" lon="16.14874149251104"><ele>250.0</ele><time>2026-05-01T12:30:33Z</time></trkpt><trkpt lat="39.03420381608111" lon="16.148893455388905"><ele>256.3333333333333</ele><time>2026-05-01T12:30:34Z</time></trkpt><trkpt lat="39.034113589646445" lon="16.149060669222692"><ele>262.6666666666667</ele><time>2026-05-01T12:30:35Z</time></trkpt><trkpt lat="39.034022097220415" lon="16.149216375023112"><ele>269.0</ele><time>2026-05-01T12:30:36Z</time></trkpt><trkpt lat="39.03397151164999" lon="16.149392258173762"><ele>269.0</ele><time>2026-05-01T12:30:37Z</time></trkpt><trkpt lat="39.03394655520958" lon="16.149605381927284"><ele>269.0</ele><time>2026-05-01T12:30:38Z</time></trkpt><trkpt lat="39.03393465151157" lon="16.149820514787574"><ele>269.0</ele><time>2026-05-01T12:30:39Z</time></trkpt><trkpt lat="39.03390264556617" lon="16.15003108681228"><ele>268.33333333333337</ele><time>2026-05-01T12:30:40Z</time></trkpt><trkpt lat="39.03388405467041" lon="16.150245632716512"><ele>267.6666666666667</ele><time>2026-05-01T12:30:41Z</time></trkpt><trkpt lat="39.03385780105299" lon="16.15045406633973"><ele>267.0</ele><time>2026-05-01T12:30:42Z</time></trkpt><trkpt lat="39.033844158040466" lon="16.150671446952355"><ele>270.0</ele><time>2026-05-01T12:30:43Z</time></trkpt><trkpt lat="39.03379793248831" lon="16.15086892016941"><ele>273.0</ele><time>2026-05-01T12:30:44Z</time></trkpt><trkpt lat="39.03378822966961" lon="16.15107456294223"><ele>276.0</ele><time>2026-05-01T12:30:45Z</time></trkpt><trkpt lat="39.033791068586176" lon="16.151267223583137"><ele>276.0</ele><time>2026-05-01T12:30:46Z</time></trkpt><trkpt lat="39.033840509716875" lon="16.151463797854042"><ele>276.0</ele><time>2026-05-01T12:30:47Z</time></trkpt><trkpt lat="39.03390597975547" lon="16.151649723280595"><ele>276.0</ele><time>2026-05-01T12:30:48Z</time></trkpt><trkpt lat="39.03394189717249" lon="16.15184246315511"><ele>274.5</ele><time>2026-05-01T12:30:49Z</time></trkpt><trkpt lat="39.03397075107927" lon="16.152035211147844"><ele>273.0</ele><time>2026-05-01T12:30:50Z</time></trkpt><trkpt lat="39.03402518036512" lon="16.15221109201473"><ele>271.5</ele><time>2026-05-01T12:30:51Z</time></trkpt><trkpt lat="39.034102931619444" lon="16.152367641172294"><ele>270.0</ele><time>2026-05-01T12:30:52Z</time></trkpt><trkpt lat="39.034193657298054" lon="16.152502608513178"><ele>270.0</ele><time>2026-05-01T12:30:53Z</time></trkpt><trkpt lat="39.03427945462789" lon="16.152616271870986"><ele>270.0</ele><time>2026-05-01T12:30:54Z</time></trkpt><trkpt lat="39.034335948941575" lon="16.152719975084565"><ele>270.0</ele><time>2026-05-01T12:30:55Z</time></trkpt><trkpt lat="39.034349918321425" lon="16.152831542371565"><ele>270.0</ele><time>2026-05-01T12:30:56Z</time></trkpt><trkpt lat="39.034333921759064" lon="16.152948451577956"><ele>270.0</ele><time>2026-05-01T12:30:57Z</time></trkpt><trkpt lat="39.034270852288664" lon="16.153043624633664"><ele>270.0</ele><time>2026-05-01T12:30:58Z</time></trkpt><trkpt lat="39.03423659205874" lon="16.153175759415618"><ele>270.0</ele><time>2026-05-01T12:30:59Z</time></trkpt><trkpt lat="39.03417110920891" lon="16.153289946432494"><ele>270.0</ele><time>2026-05-01T12:31:00Z</time></trkpt><trkpt lat="39.03413738509596" lon="16.15341407626937"><ele>270.0</ele><time>2026-05-01T12:31:01Z</time></trkpt><trkpt lat="39.034109174719255" lon="16.1535074213483"><ele>270.0</ele><time>2026-05-01T12:31:02Z</time></trkpt><trkpt lat="39.034126006427485" lon="16.15358580513661"><ele>272.4</ele><time>2026-05-01T12:31:03Z</time></trkpt><trkpt lat="39.0341908906028" lon="16.15366592966002"><ele>274.8</ele><time>2026-05-01T12:31:04Z</time></trkpt><trkpt lat="39.034278564314576" lon="16.15373605852532"><ele>277.2</ele><time>2026-05-01T12:31:05Z</time></trkpt><trkpt lat="39.03438763613419" lon="16.153776045849316"><ele>279.6</ele><time>2026-05-01T12:31:06Z</time></trkpt><trkpt lat="39.03451324069677" lon="16.153777746927144"><ele>282.0</ele><time>2026-05-01T12:31:07Z</time></trkpt><trkpt lat="39.034636338191426" lon="16.153759403972707"><ele>282.0</ele><time>2026-05-01T12:31:08Z</time></trkpt><trkpt lat="39.03476256871486" lon="16.15375357333899"><ele>282.0</ele><time>2026-05-01T12:31:09Z</time></trkpt><trkpt lat="39.03487741550261" lon="16.153762133222656"><ele>282.0</ele><time>2026-05-01T12:31:10Z</time></trkpt><trkpt lat="39.03497754349668" lon="16.15377836558643"><ele>282.0</ele><time>2026-05-01T12:31:11Z</time></trkpt><trkpt lat="39.03506785885663" lon="16.153816289013843"><ele>282.0</ele><time>2026-05-01T12:31:12Z</time></trkpt><trkpt lat="39.035151339834314" lon="16.153858360394345"><ele>282.0</ele><time>2026-05-01T12:31:13Z</time></trkpt><trkpt lat="39.03520875100985" lon="16.15389661733817"><ele>282.0</ele><time>2026-05-01T12:31:14Z</time></trkpt><trkpt lat="39.03519772415706" lon="16.153987057235902"><ele>282.0</ele><time>2026-05-01T12:31:17Z</time></trkpt><trkpt lat="39.03511936125213" lon="16.15394681314488"><ele>282.0</ele><time>2026-05-01T12:31:19Z</time></trkpt><trkpt lat="39.035054269784084" lon="16.15394503522844"><ele>282.0</ele><time>2026-05-01T12:31:20Z</time></trkpt><trkpt lat="39.03497981211742" lon="16.153965713575758"><ele>282.0</ele><time>2026-05-01T12:31:21Z</time></trkpt><trkpt lat="39.034893583945454" lon="16.15398669070959"><ele>282.0</ele><time>2026-05-01T12:31:22Z</time></trkpt><trkpt lat="39.034812299269035" lon="16.15400046038817"><ele>282.0</ele><time>2026-05-01T12:31:23Z</time></trkpt><trkpt lat="39.034728787438596" lon="16.154028315095793"><ele>282.0</ele><time>2026-05-01T12:31:24Z</time></trkpt><trkpt lat="39.034642945041426" lon="16.15405587017618"><ele>282.0</ele><time>2026-05-01T12:31:25Z</time></trkpt><trkpt lat="39.03456451228716" lon="16.154070596484406"><ele>282.0</ele><time>2026-05-01T12:31:26Z</time></trkpt><trkpt lat="39.0344930623705" lon="16.15409239538283"><ele>282.0</ele><time>2026-05-01T12:31:28Z</time></trkpt><trkpt lat="39.034544318229294" lon="16.154164898534173"><ele>282.0</ele><time>2026-05-01T12:31:31Z</time></trkpt><trkpt lat="39.03460943868674" lon="16.154217387585778"><ele>282.6666666666667</ele><time>2026-05-01T12:31:33Z</time></trkpt><trkpt lat="39.03466955797891" lon="16.154244044049335"><ele>283.3333333333333</ele><time>2026-05-01T12:31:34Z</time></trkpt><trkpt lat="39.034740226101235" lon="16.154270828488873"><ele>284.0</ele><time>2026-05-01T12:31:35Z</time></trkpt><trkpt lat="39.03483304259846" lon="16.154303566886306"><ele>284.66666666666663</ele><time>2026-05-01T12:31:36Z</time></trkpt><trkpt lat="39.03493334950825" lon="16.154336351653274"><ele>285.3333333333333</ele><time>2026-05-01T12:31:37Z</time></trkpt><trkpt lat="39.03501223581833" lon="16.154357700339833"><ele>286.0</ele><time>2026-05-01T12:31:38Z</time></trkpt><trkpt lat="39.035207094759286" lon="16.153989554688934"><ele>286.0</ele><time>2026-05-01T12:31:39Z</time></trkpt><trkpt lat="39.035303729682774" lon="16.154051280188867"><ele>286.0</ele><time>2026-05-01T12:31:41Z</time></trkpt><trkpt lat="39.035350474434836" lon="16.154203938408845"><ele>286.0</ele><time>2026-05-01T12:31:43Z</time></trkpt><trkpt lat="39.03532951616025" lon="16.154309770937523"><ele>286.0</ele><time>2026-05-01T12:31:44Z</time></trkpt><trkpt lat="39.035296939145375" lon="16.15443037743544"><ele>286.0</ele><time>2026-05-01T12:31:45Z</time></trkpt><trkpt lat="39.03526270187959" lon="16.154566975127775"><ele>286.0</ele><time>2026-05-01T12:31:46Z</time></trkpt><trkpt lat="39.035249793683526" lon="16.154724028587275"><ele>286.0</ele><time>2026-05-01T12:31:47Z</time></trkpt><trkpt lat="39.03523189368135" lon="16.154897034123344"><ele>286.0</ele><time>2026-05-01T12:31:48Z</time></trkpt><trkpt lat="39.035232558236416" lon="16.155077447668692"><ele>286.0</ele><time>2026-05-01T12:31:49Z</time></trkpt><trkpt lat="39.035231098124235" lon="16.15526117801382"><ele>286.75</ele><time>2026-05-01T12:31:50Z</time></trkpt><trkpt lat="39.035221009839816" lon="16.15544439928554"><ele>287.5</ele><time>2026-05-01T12:31:51Z</time></trkpt><trkpt lat="39.03520029058575" lon="16.155618803262282"><ele>288.25</ele><time>2026-05-01T12:31:52Z</time></trkpt><trkpt lat="39.03515801958357" lon="16.15578370197985"><ele>289.0</ele><time>2026-05-01T12:31:53Z</time></trkpt><trkpt lat="39.035074803263065" lon="16.155923800740563"><ele>287.0</ele><time>2026-05-01T12:31:54Z</time></trkpt><trkpt lat="39.034988083321444" lon="16.156050022457016"><ele>285.0</ele><time>2026-05-01T12:31:55Z</time></trkpt><trkpt lat="39.03490941110572" lon="16.15620321789884"><ele>283.0</ele><time>2026-05-01T12:31:56Z</time></trkpt><trkpt lat="39.03487472031507" lon="16.156389314350957"><ele>281.0</ele><time>2026-05-01T12:31:57Z</time></trkpt><trkpt lat="39.03484170765086" lon="16.15658574136657"><ele>289.25</ele><time>2026-05-01T12:31:58Z</time></trkpt><trkpt lat="39.03480694966297" lon="16.15677622818057"><ele>297.5</ele><time>2026-05-01T12:31:59Z</time></trkpt><trkpt lat="39.03474949888161" lon="16.15694868476762"><ele>305.75</ele><time>2026-05-01T12:32:00Z</time></trkpt><trkpt lat="39.03469329864808" lon="16.157106960762366"><ele>314.0</ele><time>2026-05-01T12:32:01Z</time></trkpt><trkpt lat="39.03468424572876" lon="16.157266141306437"><ele>312.5</ele><time>2026-05-01T12:32:02Z</time></trkpt><trkpt lat="39.03471014218002" lon="16.15741867345384"><ele>311.0</ele><time>2026-05-01T12:32:03Z</time></trkpt><trkpt lat="39.034729072338784" lon="16.157567338196294"><ele>309.5</ele><time>2026-05-01T12:32:04Z</time></trkpt><trkpt lat="39.034692464069565" lon="16.157720962569645"><ele>308.0</ele><time>2026-05-01T12:32:05Z</time></trkpt><trkpt lat="39.03464180879688" lon="16.157879584395037"><ele>308.0</ele><time>2026-05-01T12:32:06Z</time></trkpt><trkpt lat="39.0345886324793" lon="16.158049479123893"><ele>308.0</ele><time>2026-05-01T12:32:07Z</time></trkpt><trkpt lat="39.03455054994429" lon="16.158217690364044"><ele>308.0</ele><time>2026-05-01T12:32:08Z</time></trkpt><trkpt lat="39.034515706102425" lon="16.158375713652532"><ele>308.0</ele><time>2026-05-01T12:32:09Z</time></trkpt><trkpt lat="39.03448647273737" lon="16.15851800725918"><ele>305.0</ele><time>2026-05-01T12:32:10Z</time></trkpt><trkpt lat="39.03440987077492" lon="16.15860855201132"><ele>302.0</ele><time>2026-05-01T12:32:11Z</time></trkpt><trkpt lat="39.034311493918416" lon="16.158641757453335"><ele>299.0</ele><time>2026-05-01T12:32:12Z</time></trkpt><trkpt lat="39.034248735226114" lon="16.158731678220843"><ele>296.0</ele><time>2026-05-01T12:32:13Z</time></trkpt><trkpt lat="39.03423853044111" lon="16.158870684940542"><ele>293.0</ele><time>2026-05-01T12:32:14Z</time></trkpt><trkpt lat="39.03421307661556" lon="16.159013903238233"><ele>287.25</ele><time>2026-05-01T12:32:15Z</time></trkpt><trkpt lat="39.03419611870043" lon="16.159172206496102"><ele>281.5</ele><time>2026-05-01T12:32:16Z</time></trkpt><trkpt lat="39.03419594402447" lon="16.159318854566042"><ele>275.75</ele><time>2026-05-01T12:32:17Z</time></trkpt><trkpt lat="39.03416824640119" lon="16.1594495593416"><ele>270.0</ele><time>2026-05-01T12:32:18Z</time></trkpt><trkpt lat="39.03409072187625" lon="16.15955763799441"><ele>276.25</ele><time>2026-05-01T12:32:19Z</time></trkpt><trkpt lat="39.03403719355452" lon="16.159672445524453"><ele>282.5</ele><time>2026-05-01T12:32:20Z</time></trkpt><trkpt lat="39.0339423448402" lon="16.159801966367375"><ele>288.75</ele><time>2026-05-01T12:32:21Z</time></trkpt><trkpt lat="39.03386164109182" lon="16.159939476635525"><ele>295.0</ele><time>2026-05-01T12:32:22Z</time></trkpt><trkpt lat="39.03377872035369" lon="16.160092905545504"><ele>295.0</ele><time>2026-05-01T12:32:23Z</time></trkpt><trkpt lat="39.03368979095575" lon="16.160240311665312"><ele>295.0</ele><time>2026-05-01T12:32:24Z</time></trkpt><trkpt lat="39.033582674683885" lon="16.16037676406236"><ele>295.0</ele><time>2026-05-01T12:32:25Z</time></trkpt><trkpt lat="39.033480970651524" lon="16.160516317589583"><ele>295.0</ele><time>2026-05-01T12:32:26Z</time></trkpt><trkpt lat="39.03338400149719" lon="16.160652147224496"><ele>304.25</ele><time>2026-05-01T12:32:27Z</time></trkpt><trkpt lat="39.033292003690505" lon="16.16078423025934"><ele>313.5</ele><time>2026-05-01T12:32:28Z</time></trkpt><trkpt lat="39.03320209534236" lon="16.160897780242408"><ele>322.75</ele><time>2026-05-01T12:32:29Z</time></trkpt><trkpt lat="39.03311973012734" lon="16.161013223797525"><ele>332.0</ele><time>2026-05-01T12:32:30Z</time></trkpt><trkpt lat="39.03305150769057" lon="16.161156365510074"><ele>332.0</ele><time>2026-05-01T12:32:31Z</time></trkpt><trkpt lat="39.033000098127125" lon="16.16129753160789"><ele>332.0</ele><time>2026-05-01T12:32:32Z</time></trkpt><trkpt lat="39.03295745419907" lon="16.161432861817993"><ele>332.0</ele><time>2026-05-01T12:32:33Z</time></trkpt><trkpt lat="39.03292779594621" lon="16.161541740355162"><ele>332.0</ele><time>2026-05-01T12:32:34Z</time></trkpt><trkpt lat="39.03289783753687" lon="16.161625918727403"><ele>332.0</ele><time>2026-05-01T12:32:35Z</time></trkpt><trkpt lat="39.032931672144414" lon="16.161709319449304"><ele>326.40000000000003</ele><time>2026-05-01T12:32:36Z</time></trkpt><trkpt lat="39.032992237422945" lon="16.16177567382774"><ele>320.8</ele><time>2026-05-01T12:32:37Z</time></trkpt><trkpt lat="39.03310806188947" lon="16.16176924384041"><ele>315.2</ele><time>2026-05-01T12:32:38Z</time></trkpt><trkpt lat="39.03318519330034" lon="16.161827165416916"><ele>309.6</ele><time>2026-05-01T12:32:39Z</time></trkpt><trkpt lat="39.033276890084494" lon="16.16184904164055"><ele>304.0</ele><time>2026-05-01T12:32:40Z</time></trkpt><trkpt lat="39.03336564181367" lon="16.16190100129449"><ele>294.3333333333333</ele><time>2026-05-01T12:32:41Z</time></trkpt><trkpt lat="39.03344520125417" lon="16.161943624927115"><ele>284.66666666666663</ele><time>2026-05-01T12:32:42Z</time></trkpt><trkpt lat="39.033524016070906" lon="16.161981147030858"><ele>275.0</ele><time>2026-05-01T12:32:43Z</time></trkpt><trkpt lat="39.03359721600109" lon="16.162009851052606"><ele>265.3333333333333</ele><time>2026-05-01T12:32:44Z</time></trkpt><trkpt lat="39.03366294054645" lon="16.16202364191231"><ele>255.66666666666666</ele><time>2026-05-01T12:32:45Z</time></trkpt><trkpt lat="39.03374866124246" lon="16.16201256032795"><ele>246.0</ele><time>2026-05-01T12:32:47Z</time></trkpt><trkpt lat="39.033851998272716" lon="16.161967229529914"><ele>246.0</ele><time>2026-05-01T12:32:49Z</time></trkpt><trkpt lat="39.03390939969671" lon="16.161933036282118"><ele>246.0</ele><time>2026-05-01T12:32:50Z</time></trkpt><trkpt lat="39.034012830892955" lon="16.16184945341312"><ele>246.0</ele><time>2026-05-01T12:32:52Z</time></trkpt><trkpt lat="39.034067406096554" lon="16.161802803677368"><ele>246.0</ele><time>2026-05-01T12:32:53Z</time></trkpt><trkpt lat="39.034161846982734" lon="16.161733607440368"><ele>246.0</ele><time>2026-05-01T12:32:55Z</time></trkpt><trkpt lat="39.034233598339995" lon="16.16167620171608"><ele>246.0</ele><time>2026-05-01T12:32:57Z</time></trkpt><trkpt lat="39.03430828921062" lon="16.1616231914295"><ele>247.5</ele><time>2026-05-01T12:32:59Z</time></trkpt><trkpt lat="39.0343816875146" lon="16.161566734481998"><ele>249.0</ele><time>2026-05-01T12:33:01Z</time></trkpt><trkpt lat="39.03445790967089" lon="16.161543240180897"><ele>250.5</ele><time>2026-05-01T12:33:03Z</time></trkpt><trkpt lat="39.03452799434639" lon="16.16148158079733"><ele>252.0</ele><time>2026-05-01T12:33:06Z</time></trkpt><trkpt lat="39.034593194381614" lon="16.161425112321258"><ele>253.5</ele><time>2026-05-01T12:36:58Z</time></trkpt><trkpt lat="39.03463812566211" lon="16.161356262615477"><ele>255.0</ele><time>2026-05-01T12:37:01Z</time></trkpt><trkpt lat="39.034700751037875" lon="16.16127781911877"><ele>253.0</ele><time>2026-05-01T12:37:03Z</time></trkpt><trkpt lat="39.034761630007516" lon="16.161199102922566"><ele>251.0</ele><time>2026-05-01T12:37:05Z</time></trkpt><trkpt lat="39.03484925524536" lon="16.161095279537935"><ele>249.0</ele><time>2026-05-01T12:37:07Z</time></trkpt><trkpt lat="39.03493329892164" lon="16.160992056776937"><ele>247.0</ele><time>2026-05-01T12:37:09Z</time></trkpt><trkpt lat="39.034978739290885" lon="16.160932848731395"><ele>245.0</ele><time>2026-05-01T12:37:10Z</time></trkpt><trkpt lat="39.03502677057963" lon="16.160875689783676"><ele>245.00000000000003</ele><time>2026-05-01T12:37:11Z</time></trkpt><trkpt lat="39.0350753522075" lon="16.16081526827829"><ele>245.0</ele><time>2026-05-01T12:37:12Z</time></trkpt><trkpt lat="39.035135183716044" lon="16.160765021032617"><ele>245.0</ele><time>2026-05-01T12:37:13Z</time></trkpt><trkpt lat="39.035198598326836" lon="16.160718403200026"><ele>245.0</ele><time>2026-05-01T12:37:14Z</time></trkpt><trkpt lat="39.03525758766057" lon="16.1606802790862"><ele>245.00000000000003</ele><time>2026-05-01T12:37:15Z</time></trkpt><trkpt lat="39.03536475201311" lon="16.160609744141016"><ele>245.0</ele><time>2026-05-01T12:37:17Z</time></trkpt><trkpt lat="39.03547288864583" lon="16.160534390723928"><ele>243.8</ele><time>2026-05-01T12:37:19Z</time></trkpt><trkpt lat="39.0355764603742" lon="16.160449054179217"><ele>242.6</ele><time>2026-05-01T12:37:21Z</time></trkpt><trkpt lat="39.035661246145374" lon="16.160339603426266"><ele>241.39999999999998</ele><time>2026-05-01T12:37:23Z</time></trkpt><trkpt lat="39.03574105810492" lon="16.16021961612493"><ele>240.2</ele><time>2026-05-01T12:37:25Z</time></trkpt><trkpt lat="39.03578253199789" lon="16.160152050729142"><ele>239.0</ele><time>2026-05-01T12:37:26Z</time></trkpt><trkpt lat="39.03582890579779" lon="16.160077800555314"><ele>239.00000000000003</ele><time>2026-05-01T12:37:27Z</time></trkpt><trkpt lat="39.035877152464394" lon="16.160005892972666"><ele>239.0</ele><time>2026-05-01T12:37:28Z</time></trkpt><trkpt lat="39.03592459801836" lon="16.159928773645515"><ele>239.0</ele><time>2026-05-01T12:37:29Z</time></trkpt><trkpt lat="39.035975313760225" lon="16.159847560319445"><ele>239.0</ele><time>2026-05-01T12:37:30Z</time></trkpt><trkpt lat="39.03602812491451" lon="16.159772017869514"><ele>239.00000000000003</ele><time>2026-05-01T12:37:31Z</time></trkpt><trkpt lat="39.036082753931616" lon="16.15970346853401"><ele>239.0</ele><time>2026-05-01T12:37:32Z</time></trkpt><trkpt lat="39.036131014301944" lon="16.1596284988895"><ele>236.42857142857147</ele><time>2026-05-01T12:37:33Z</time></trkpt><trkpt lat="39.03618038481052" lon="16.159559525917786"><ele>233.85714285714286</ele><time>2026-05-01T12:37:34Z</time></trkpt><trkpt lat="39.036232901599355" lon="16.159488800691577"><ele>231.2857142857143</ele><time>2026-05-01T12:37:35Z</time></trkpt><trkpt lat="39.036286388995364" lon="16.159429776186048"><ele>228.71428571428572</ele><time>2026-05-01T12:37:36Z</time></trkpt><trkpt lat="39.036346501774645" lon="16.159382315968216"><ele>226.14285714285717</ele><time>2026-05-01T12:37:37Z</time></trkpt><trkpt lat="39.03639309338581" lon="16.159316269393617"><ele>223.57142857142858</ele><time>2026-05-01T12:37:38Z</time></trkpt><trkpt lat="39.03643607211647" lon="16.159249240588366"><ele>221.0</ele><time>2026-05-01T12:37:39Z</time></trkpt><trkpt lat="39.03647649624804" lon="16.159181274189077"><ele>221.00000000000003</ele><time>2026-05-01T12:37:40Z</time></trkpt><trkpt lat="39.03651357789806" lon="16.159112619726564"><ele>221.0</ele><time>2026-05-01T12:37:41Z</time></trkpt><trkpt lat="39.03654925519254" lon="16.15900551075376"><ele>221.0</ele><time>2026-05-01T12:37:43Z</time></trkpt><trkpt lat="39.03663885600499" lon="16.158982684906412"><ele>221.0</ele><time>2026-05-01T12:37:50.001Z</time></trkpt><trkpt lat="39.03672988341125" lon="16.159022344565585"><ele>221.00000000000003</ele><time>2026-05-01T12:37:52.001Z</time></trkpt><trkpt lat="39.03678924051537" lon="16.159056984846153"><ele>221.0</ele><time>2026-05-01T12:37:54Z</time></trkpt><trkpt lat="39.03686023694599" lon="16.159008419311583"><ele>222.66666666666669</ele><time>2026-05-01T12:37:58Z</time></trkpt><trkpt lat="39.036885383878364" lon="16.15889643539951"><ele>224.33333333333334</ele><time>2026-05-01T12:38:00Z</time></trkpt><trkpt lat="39.03692727243686" lon="16.158802966954777"><ele>226.0</ele><time>2026-05-01T12:38:02Z</time></trkpt><trkpt lat="39.03696724874841" lon="16.15870759895663"><ele>227.66666666666669</ele><time>2026-05-01T12:38:04Z</time></trkpt><trkpt lat="39.03702150668651" lon="16.158634911317428"><ele>229.33333333333334</ele><time>2026-05-01T12:38:06Z</time></trkpt><trkpt lat="39.0370815978607" lon="16.1585841906867"><ele>231.0</ele><time>2026-05-01T12:38:08Z</time></trkpt><trkpt lat="39.03722997977127" lon="16.158624714251875"><ele>231.0</ele><time>2026-05-01T12:38:11Z</time></trkpt><trkpt lat="39.037315173890484" lon="16.158653602356804"><ele>231.0</ele><time>2026-05-01T12:38:13Z</time></trkpt><trkpt lat="39.03739336094118" lon="16.158711151956965"><ele>231.0</ele><time>2026-05-01T12:38:16Z</time></trkpt><trkpt lat="39.03742696128014" lon="16.158811428571617"><ele>231.0</ele><time>2026-05-01T12:38:18Z</time></trkpt><trkpt lat="39.037417824504516" lon="16.158957459508674"><ele>231.0</ele><time>2026-05-01T12:38:20Z</time></trkpt><trkpt lat="39.03741737276064" lon="16.159049340934846"><ele>231.0</ele><time>2026-05-01T12:38:21Z</time></trkpt><trkpt lat="39.03741862235513" lon="16.159148044211864"><ele>230.83333333333334</ele><time>2026-05-01T12:38:22Z</time></trkpt><trkpt lat="39.037418017374414" lon="16.15923428989638"><ele>230.66666666666669</ele><time>2026-05-01T12:38:23Z</time></trkpt><trkpt lat="39.037470410988625" lon="16.159362415706205"><ele>230.5</ele><time>2026-05-01T12:38:25Z</time></trkpt><trkpt lat="39.03748734163189" lon="16.15944087339505"><ele>230.33333333333334</ele><time>2026-05-01T12:38:26Z</time></trkpt><trkpt lat="39.037539822493606" lon="16.159576508262013"><ele>230.16666666666669</ele><time>2026-05-01T12:38:28Z</time></trkpt><trkpt lat="39.03757232536782" lon="16.15964993293455"><ele>230.0</ele><time>2026-05-01T12:38:29Z</time></trkpt><trkpt lat="39.03760679870822" lon="16.159735233969123"><ele>230.00000000000003</ele><time>2026-05-01T12:38:30Z</time></trkpt><trkpt lat="39.037634644267726" lon="16.159823477557197"><ele>230.0</ele><time>2026-05-01T12:38:31Z</time></trkpt><trkpt lat="39.03766352560457" lon="16.15990522856238"><ele>230.0</ele><time>2026-05-01T12:38:32Z</time></trkpt><trkpt lat="39.03772090452559" lon="16.16003376980815"><ele>230.0</ele><time>2026-05-01T12:38:34Z</time></trkpt><trkpt lat="39.03777978617392" lon="16.16014699039471"><ele>230.00000000000003</ele><time>2026-05-01T12:38:36Z</time></trkpt><trkpt lat="39.0378100395609" lon="16.16023955226294"><ele>230.0</ele><time>2026-05-01T12:38:37Z</time></trkpt><trkpt lat="39.03778319518733" lon="16.160349505699095"><ele>232.1428571428571</ele><time>2026-05-01T12:38:38Z</time></trkpt><trkpt lat="39.03780551078986" lon="16.16045130669741"><ele>234.28571428571428</ele><time>2026-05-01T12:38:39Z</time></trkpt><trkpt lat="39.037815154371714" lon="16.160555420113063"><ele>236.42857142857142</ele><time>2026-05-01T12:38:40Z</time></trkpt><trkpt lat="39.03785901288484" lon="16.16062380570949"><ele>238.57142857142856</ele><time>2026-05-01T12:38:41Z</time></trkpt><trkpt lat="39.03792310770147" lon="16.160674403438396"><ele>240.71428571428572</ele><time>2026-05-01T12:38:42Z</time></trkpt><trkpt lat="39.03798715424155" lon="16.160721974261477"><ele>242.85714285714286</ele><time>2026-05-01T12:38:43Z</time></trkpt><trkpt lat="39.03803715574877" lon="16.160773508950204"><ele>245.0</ele><time>2026-05-01T12:38:44Z</time></trkpt><trkpt lat="39.03803270318308" lon="16.160854990071307"><ele>246.8</ele><time>2026-05-01T12:38:45Z</time></trkpt><trkpt lat="39.038058781007926" lon="16.160994541496287"><ele>248.6</ele><time>2026-05-01T12:38:47Z</time></trkpt><trkpt lat="39.038014679091894" lon="16.161093379249515"><ele>250.39999999999998</ele><time>2026-05-01T12:38:48Z</time></trkpt><trkpt lat="39.03809349917963" lon="16.161167427491797"><ele>252.2</ele><time>2026-05-01T12:38:49Z</time></trkpt><trkpt lat="39.0381488029263" lon="16.161239222064125"><ele>254.0</ele><time>2026-05-01T12:38:50Z</time></trkpt><trkpt lat="39.03819395593305" lon="16.161325120851355"><ele>254.0</ele><time>2026-05-01T12:38:51Z</time></trkpt><trkpt lat="39.038200852429284" lon="16.16143306784236"><ele>253.99999999999997</ele><time>2026-05-01T12:38:52Z</time></trkpt><trkpt lat="39.03818845461734" lon="16.161542283662108"><ele>253.99999999999997</ele><time>2026-05-01T12:38:53Z</time></trkpt><trkpt lat="39.03821075265489" lon="16.161648527731924"><ele>254.0</ele><time>2026-05-01T12:38:54Z</time></trkpt><trkpt lat="39.038270875331655" lon="16.161742660620916"><ele>254.0</ele><time>2026-05-01T12:38:55Z</time></trkpt><trkpt lat="39.038346990626906" lon="16.16182813067478"><ele>250.83333333333334</ele><time>2026-05-01T12:38:56Z</time></trkpt><trkpt lat="39.03843551402261" lon="16.161888890176222"><ele>247.66666666666669</ele><time>2026-05-01T12:38:57Z</time></trkpt><trkpt lat="39.03852352443392" lon="16.161945282607405"><ele>244.5</ele><time>2026-05-01T12:38:58Z</time></trkpt><trkpt lat="39.03860420342479" lon="16.161999679172077"><ele>241.33333333333331</ele><time>2026-05-01T12:38:59Z</time></trkpt><trkpt lat="39.03866394196568" lon="16.16207255967714"><ele>238.16666666666666</ele><time>2026-05-01T12:39:00Z</time></trkpt><trkpt lat="39.03868247533712" lon="16.162156840677234"><ele>235.0</ele><time>2026-05-01T12:39:01Z</time></trkpt><trkpt lat="39.038668846037325" lon="16.162258930420865"><ele>235.0</ele><time>2026-05-01T12:39:02Z</time></trkpt><trkpt lat="39.03860484105729" lon="16.162343811305"><ele>235.0</ele><time>2026-05-01T12:39:03Z</time></trkpt><trkpt lat="39.03858224940978" lon="16.162456460353095"><ele>235.0</ele><time>2026-05-01T12:39:04Z</time></trkpt><trkpt lat="39.03853988065429" lon="16.1625654456943"><ele>235.0</ele><time>2026-05-01T12:39:05Z</time></trkpt><trkpt lat="39.03851551211951" lon="16.16268413961738"><ele>235.0</ele><time>2026-05-01T12:39:06Z</time></trkpt><trkpt lat="39.038528202448354" lon="16.162789206465092"><ele>237.0</ele><time>2026-05-01T12:39:07Z</time></trkpt><trkpt lat="39.03857052421441" lon="16.162868920334347"><ele>238.99999999999997</ele><time>2026-05-01T12:39:08Z</time></trkpt><trkpt lat="39.03861016640988" lon="16.16293494558658"><ele>241.0</ele><time>2026-05-01T12:39:09Z</time></trkpt><trkpt lat="39.03858867296056" lon="16.163024607183694"><ele>243.0</ele><time>2026-05-01T12:39:11Z</time></trkpt><trkpt lat="39.03852640569942" lon="16.163042327325996"><ele>244.99999999999997</ele><time>2026-05-01T12:39:13Z</time></trkpt><trkpt lat="39.038547598897445" lon="16.163137391189917"><ele>247.0</ele><time>2026-05-01T12:39:16Z</time></trkpt><trkpt lat="39.03852628779098" lon="16.16321403110043"><ele>249.0</ele><time>2026-05-01T12:39:17Z</time></trkpt><trkpt lat="39.03856125247285" lon="16.16336390765816"><ele>250.16666666666666</ele><time>2026-05-01T12:39:19Z</time></trkpt><trkpt lat="39.038566374574366" lon="16.16346071068011"><ele>251.33333333333331</ele><time>2026-05-01T12:39:20Z</time></trkpt><trkpt lat="39.038558365839584" lon="16.163549176744684"><ele>252.5</ele><time>2026-05-01T12:39:21Z</time></trkpt><trkpt lat="39.038557436415886" lon="16.163655084439515"><ele>253.66666666666666</ele><time>2026-05-01T12:39:22Z</time></trkpt><trkpt lat="39.03855743642145" lon="16.163762739216207"><ele>254.83333333333331</ele><time>2026-05-01T12:39:23Z</time></trkpt><trkpt lat="39.03856824336799" lon="16.163865819462774"><ele>256.0</ele><time>2026-05-01T12:39:24Z</time></trkpt><trkpt lat="39.03852915100932" lon="16.163954699549063"><ele>255.99999999999997</ele><time>2026-05-01T12:39:25Z</time></trkpt><trkpt lat="39.03848827563834" lon="16.16402282454082"><ele>256.0</ele><time>2026-05-01T12:39:26Z</time></trkpt><trkpt lat="39.03843610939193" lon="16.164083343732536"><ele>256.0</ele><time>2026-05-01T12:39:27Z</time></trkpt><trkpt lat="39.0383599447275" lon="16.164095545259052"><ele>256.0</ele><time>2026-05-01T12:39:28Z</time></trkpt><trkpt lat="39.0382823651092" lon="16.164069103600465"><ele>255.99999999999997</ele><time>2026-05-01T12:39:29Z</time></trkpt><trkpt lat="39.03820285775265" lon="16.164018336214408"><ele>256.0</ele><time>2026-05-01T12:39:30Z</time></trkpt><trkpt lat="39.03812675170334" lon="16.163949727990484"><ele>260.16666666666663</ele><time>2026-05-01T12:39:31Z</time></trkpt><trkpt lat="39.038051548361" lon="16.16387786335888"><ele>264.3333333333333</ele><time>2026-05-01T12:39:32Z</time></trkpt><trkpt lat="39.037980574529904" lon="16.163811662965582"><ele>268.5</ele><time>2026-05-01T12:39:33Z</time></trkpt><trkpt lat="39.037916100886505" lon="16.163744218921032"><ele>272.6666666666667</ele><time>2026-05-01T12:39:34Z</time></trkpt><trkpt lat="39.03785882474152" lon="16.163683750830273"><ele>276.83333333333337</ele><time>2026-05-01T12:39:35Z</time></trkpt><trkpt lat="39.037801849620095" lon="16.163644471938674"><ele>281.0</ele><time>2026-05-01T12:39:36Z</time></trkpt><trkpt lat="39.03771369667658" lon="16.163615382667324"><ele>281.0</ele><time>2026-05-01T12:39:38Z</time></trkpt><trkpt lat="39.03765402292175" lon="16.163587698753897"><ele>281.0</ele><time>2026-05-01T12:39:42Z</time></trkpt><trkpt lat="39.0375833858294" lon="16.163681006784472"><ele>281.0</ele><time>2026-05-01T12:39:44Z</time></trkpt><trkpt lat="39.03750456292568" lon="16.163767387127923"><ele>281.0</ele><time>2026-05-01T12:39:46Z</time></trkpt><trkpt lat="39.03739826110064" lon="16.16377926337244"><ele>281.0</ele><time>2026-05-01T12:39:48Z</time></trkpt><trkpt lat="39.03728711781133" lon="16.163701057910494"><ele>286.6</ele><time>2026-05-01T12:39:50Z</time></trkpt><trkpt lat="39.03722673320297" lon="16.16357407339099"><ele>292.20000000000005</ele><time>2026-05-01T12:39:52Z</time></trkpt><trkpt lat="39.0372209256294" lon="16.163489684308026"><ele>297.79999999999995</ele><time>2026-05-01T12:39:53Z</time></trkpt><trkpt lat="39.037213166692275" lon="16.163321630596716"><ele>303.4</ele><time>2026-05-01T12:39:55Z</time></trkpt><trkpt lat="39.03720511397774" lon="16.163201585083723"><ele>309.0</ele><time>2026-05-01T12:39:57Z</time></trkpt><trkpt lat="39.03716863514465" lon="16.163108958310858"><ele>309.0</ele><time>2026-05-01T12:40:00Z</time></trkpt><trkpt lat="39.03708581042355" lon="16.163133768844514"><ele>309.0</ele><time>2026-05-01T12:40:04Z</time></trkpt><trkpt lat="39.0370998116964" lon="16.16330102365809"><ele>309.0</ele><time>2026-05-01T12:40:06Z</time></trkpt><trkpt lat="39.03712350157205" lon="16.16343035631883"><ele>309.0</ele><time>2026-05-01T12:40:08Z</time></trkpt><trkpt lat="39.03715486519853" lon="16.16359528424408"><ele>309.0</ele><time>2026-05-01T12:40:10Z</time></trkpt><trkpt lat="39.037134164370556" lon="16.163736191457797"><ele>309.0</ele><time>2026-05-01T12:40:12Z</time></trkpt><trkpt lat="39.037114162595614" lon="16.16382870573054"><ele>309.0</ele><time>2026-05-01T12:40:14Z</time></trkpt><trkpt lat="39.037048767784675" lon="16.163776821005666"><ele>309.0</ele><time>2026-05-01T12:40:18Z</time></trkpt><trkpt lat="39.03706175049905" lon="16.163627592396217"><ele>309.0</ele><time>2026-05-01T12:40:20Z</time></trkpt><trkpt lat="39.037058026821335" lon="16.163546322346118"><ele>309.0</ele><time>2026-05-01T12:40:21Z</time></trkpt><trkpt lat="39.03704507883425" lon="16.163459590259244"><ele>309.00000000000006</ele><time>2026-05-01T12:40:22Z</time></trkpt><trkpt lat="39.037034136628115" lon="16.16337228750998"><ele>309.0</ele><time>2026-05-01T12:40:23Z</time></trkpt><trkpt lat="39.03702231886276" lon="16.16328114675164"><ele>309.0</ele><time>2026-05-01T12:40:24Z</time></trkpt><trkpt lat="39.03700600590195" lon="16.163190304613522"><ele>309.0</ele><time>2026-05-01T12:40:25Z</time></trkpt><trkpt lat="39.03699349915628" lon="16.163093850094686"><ele>309.0</ele><time>2026-05-01T12:40:26Z</time></trkpt><trkpt lat="39.03698003714211" lon="16.162994981237368"><ele>309.00000000000006</ele><time>2026-05-01T12:40:27Z</time></trkpt><trkpt lat="39.03696805695996" lon="16.16289389258608"><ele>309.0</ele><time>2026-05-01T12:40:28Z</time></trkpt><trkpt lat="39.036958763134024" lon="16.162794977277116"><ele>309.1666666666667</ele><time>2026-05-01T12:40:29Z</time></trkpt><trkpt lat="39.03694853642011" lon="16.162693670699923"><ele>309.3333333333333</ele><time>2026-05-01T12:40:30Z</time></trkpt><trkpt lat="39.03693831494687" lon="16.162590092656526"><ele>309.5</ele><time>2026-05-01T12:40:31Z</time></trkpt><trkpt lat="39.036931773767726" lon="16.162484383516926"><ele>309.66666666666663</ele><time>2026-05-01T12:40:32Z</time></trkpt><trkpt lat="39.036925154331854" lon="16.16238236949626"><ele>309.8333333333333</ele><time>2026-05-01T12:40:33Z</time></trkpt><trkpt lat="39.036917414399134" lon="16.16228307352982"><ele>310.0</ele><time>2026-05-01T12:40:34Z</time></trkpt><trkpt lat="39.036907764770405" lon="16.162184956373473"><ele>310.0</ele><time>2026-05-01T12:40:35Z</time></trkpt><trkpt lat="39.036896078471045" lon="16.16209107526175"><ele>310.0</ele><time>2026-05-01T12:40:36Z</time></trkpt><trkpt lat="39.03688272911011" lon="16.161993568621018"><ele>310.0</ele><time>2026-05-01T12:40:37Z</time></trkpt><trkpt lat="39.03687688229236" lon="16.161894400209444"><ele>310.0</ele><time>2026-05-01T12:40:38Z</time></trkpt><trkpt lat="39.03687325946231" lon="16.16180081504923"><ele>310.0</ele><time>2026-05-01T12:40:39Z</time></trkpt><trkpt lat="39.036868414196334" lon="16.161712170125725"><ele>310.0</ele><time>2026-05-01T12:40:40Z</time></trkpt><trkpt lat="39.036858974618916" lon="16.161626308849044"><ele>310.0</ele><time>2026-05-01T12:40:41Z</time></trkpt><trkpt lat="39.036839004753304" lon="16.161543487294292"><ele>310.0</ele><time>2026-05-01T12:40:42Z</time></trkpt><trkpt lat="39.03681480487881" lon="16.161461059875283"><ele>310.0</ele><time>2026-05-01T12:40:43Z</time></trkpt><trkpt lat="39.03675351591885" lon="16.161333420395298"><ele>310.0</ele><time>2026-05-01T12:40:45Z</time></trkpt><trkpt lat="39.03666803090224" lon="16.161325431891246"><ele>310.0</ele><time>2026-05-01T12:40:47Z</time></trkpt><trkpt lat="39.0366270511436" lon="16.161416212713"><ele>310.0</ele><time>2026-05-01T12:40:50Z</time></trkpt><trkpt lat="39.0366533279677" lon="16.161527233805025"><ele>310.0</ele><time>2026-05-01T12:40:53Z</time></trkpt><trkpt lat="39.03672007415557" lon="16.16162993329984"><ele>310.0</ele><time>2026-05-01T12:40:55Z</time></trkpt><trkpt lat="39.03672726684267" lon="16.161712510608535"><ele>310.0</ele><time>2026-05-01T12:40:56Z</time></trkpt><trkpt lat="39.03667788462568" lon="16.161796296546466"><ele>310.0</ele><time>2026-05-01T12:40:57Z</time></trkpt><trkpt lat="39.036671603984246" lon="16.161892729795362"><ele>310.0</ele><time>2026-05-01T12:40:58Z</time></trkpt><trkpt lat="39.03664760724627" lon="16.161985063321364"><ele>310.0</ele><time>2026-05-01T12:40:59Z</time></trkpt><trkpt lat="39.03662586869501" lon="16.162084294663135"><ele>310.0</ele><time>2026-05-01T12:41:00Z</time></trkpt><trkpt lat="39.036599369158694" lon="16.16217704283147"><ele>309.5</ele><time>2026-05-01T12:41:01Z</time></trkpt><trkpt lat="39.036579754620156" lon="16.162285665105045"><ele>309.0</ele><time>2026-05-01T12:41:02Z</time></trkpt><trkpt lat="39.03657624101102" lon="16.162397632766126"><ele>308.5</ele><time>2026-05-01T12:41:03Z</time></trkpt><trkpt lat="39.036556750958525" lon="16.16250818143765"><ele>308.0</ele><time>2026-05-01T12:41:04Z</time></trkpt><trkpt lat="39.03654066040316" lon="16.16260439007492"><ele>307.5</ele><time>2026-05-01T12:41:05Z</time></trkpt><trkpt lat="39.03649229030543" lon="16.16267485165234"><ele>307.0</ele><time>2026-05-01T12:41:07Z</time></trkpt><trkpt lat="39.036434641979355" lon="16.162634184225816"><ele>306.99999999999994</ele><time>2026-05-01T12:41:09Z</time></trkpt><trkpt lat="39.03644909639017" lon="16.16252198283287"><ele>307.0</ele><time>2026-05-01T12:41:11Z</time></trkpt><trkpt lat="39.036460891973356" lon="16.162440045654854"><ele>307.0</ele><time>2026-05-01T12:41:12Z</time></trkpt><trkpt lat="39.036479222874455" lon="16.162354512101793"><ele>307.0</ele><time>2026-05-01T12:41:13Z</time></trkpt><trkpt lat="39.036478228970196" lon="16.162263672372486"><ele>307.0</ele><time>2026-05-01T12:41:14Z</time></trkpt><trkpt lat="39.03648147489376" lon="16.16217673926225"><ele>306.99999999999994</ele><time>2026-05-01T12:41:15Z</time></trkpt><trkpt lat="39.03647368076316" lon="16.16209292416089"><ele>307.0</ele><time>2026-05-01T12:41:16Z</time></trkpt><trkpt lat="39.03639877582388" lon="16.16204720267732"><ele>307.0</ele><time>2026-05-01T12:41:18Z</time></trkpt><trkpt lat="39.03634972749319" lon="16.162127873202074"><ele>307.0</ele><time>2026-05-01T12:41:20Z</time></trkpt><trkpt lat="39.03633743771892" lon="16.16221981716176"><ele>307.0</ele><time>2026-05-01T12:41:21Z</time></trkpt><trkpt lat="39.036335410711416" lon="16.16230211360348"><ele>307.0</ele><time>2026-05-01T12:41:22Z</time></trkpt><trkpt lat="39.036321865519625" lon="16.162391142209078"><ele>307.0</ele><time>2026-05-01T12:41:23Z</time></trkpt><trkpt lat="39.03627388865339" lon="16.16248895080593"><ele>307.0</ele><time>2026-05-01T12:41:24Z</time></trkpt><trkpt lat="39.03619907140881" lon="16.162591801038626"><ele>306.6</ele><time>2026-05-01T12:41:25Z</time></trkpt><trkpt lat="39.03608760712892" lon="16.16265900937"><ele>306.2</ele><time>2026-05-01T12:41:26Z</time></trkpt><trkpt lat="39.03598691748188" lon="16.162712052917083"><ele>305.8</ele><time>2026-05-01T12:41:28Z</time></trkpt><trkpt lat="39.0358926094591" lon="16.16277227668272"><ele>305.4</ele><time>2026-05-01T12:41:29Z</time></trkpt><trkpt lat="39.03580406280388" lon="16.162828489140377"><ele>305.0</ele><time>2026-05-01T12:41:30Z</time></trkpt><trkpt lat="39.03575602008736" lon="16.162917394136144"><ele>305.0</ele><time>2026-05-01T12:41:31Z</time></trkpt><trkpt lat="39.03575827782621" lon="16.163024261918135"><ele>305.0</ele><time>2026-05-01T12:41:32Z</time></trkpt><trkpt lat="39.035744310379634" lon="16.16311343687961"><ele>305.0</ele><time>2026-05-01T12:41:33Z</time></trkpt><trkpt lat="39.03571429039293" lon="16.163253490300445"><ele>305.0</ele><time>2026-05-01T12:41:35Z</time></trkpt><trkpt lat="39.035677603700826" lon="16.16335464874215"><ele>305.0</ele><time>2026-05-01T12:41:37Z</time></trkpt><trkpt lat="39.0355889713389" lon="16.16330678479543"><ele>305.0</ele><time>2026-05-01T12:41:38Z</time></trkpt><trkpt lat="39.03548216254516" lon="16.16334206480265"><ele>308.2</ele><time>2026-05-01T12:41:40Z</time></trkpt><trkpt lat="39.03540043430652" lon="16.163433956051403"><ele>311.4</ele><time>2026-05-01T12:41:42Z</time></trkpt><trkpt lat="39.035327280693295" lon="16.163526962878755"><ele>314.6</ele><time>2026-05-01T12:41:44Z</time></trkpt><trkpt lat="39.03525952244412" lon="16.16361533197257"><ele>317.8</ele><time>2026-05-01T12:41:46Z</time></trkpt><trkpt lat="39.03518704756038" lon="16.16368325928717"><ele>321.0</ele><time>2026-05-01T12:41:48Z</time></trkpt><trkpt lat="39.035101922804884" lon="16.16374819721307"><ele>321.0</ele><time>2026-05-01T12:41:50Z</time></trkpt><trkpt lat="39.035010921673084" lon="16.163833920617915"><ele>321.0</ele><time>2026-05-01T12:41:52Z</time></trkpt><trkpt lat="39.03489748552298" lon="16.16391145168991"><ele>321.0</ele><time>2026-05-01T12:41:54Z</time></trkpt><trkpt lat="39.034830308745306" lon="16.16394046786387"><ele>321.0</ele><time>2026-05-01T12:41:55Z</time></trkpt><trkpt lat="39.0347712281859" lon="16.163994069743133"><ele>321.0</ele><time>2026-05-01T12:41:56Z</time></trkpt><trkpt lat="39.03469953722318" lon="16.164022346300136"><ele>322.2857142857143</ele><time>2026-05-01T12:41:57Z</time></trkpt><trkpt lat="39.03462921495426" lon="16.16403751791602"><ele>323.57142857142856</ele><time>2026-05-01T12:41:58Z</time></trkpt><trkpt lat="39.03456240189639" lon="16.164044425136506"><ele>324.8571428571429</ele><time>2026-05-01T12:41:59Z</time></trkpt><trkpt lat="39.034497846484896" lon="16.164046960285628"><ele>326.1428571428571</ele><time>2026-05-01T12:42:00Z</time></trkpt><trkpt lat="39.03443477983742" lon="16.164049141750294"><ele>327.42857142857144</ele><time>2026-05-01T12:42:01Z</time></trkpt><trkpt lat="39.03436355162703" lon="16.164045092380526"><ele>328.7142857142857</ele><time>2026-05-01T12:42:02Z</time></trkpt><trkpt lat="39.034293581693454" lon="16.164035254546192"><ele>330.0</ele><time>2026-05-01T12:42:03Z</time></trkpt><trkpt lat="39.03422446224737" lon="16.164033452672527"><ele>327.6666666666667</ele><time>2026-05-01T12:42:04Z</time></trkpt><trkpt lat="39.03410039267748" lon="16.16404679366814"><ele>325.3333333333333</ele><time>2026-05-01T12:42:06Z</time></trkpt><trkpt lat="39.03403722394083" lon="16.16406691260829"><ele>323.0</ele><time>2026-05-01T12:42:07Z</time></trkpt><trkpt lat="39.033918542996545" lon="16.1641085836249"><ele>320.66666666666663</ele><time>2026-05-01T12:42:09Z</time></trkpt><trkpt lat="39.0338550453994" lon="16.164131695174937"><ele>318.3333333333333</ele><time>2026-05-01T12:42:10Z</time></trkpt><trkpt lat="39.03379100812969" lon="16.164157357494958"><ele>316.0</ele><time>2026-05-01T12:42:11Z</time></trkpt><trkpt lat="39.033670933206736" lon="16.16421184063465"><ele>316.00000000000006</ele><time>2026-05-01T12:42:13Z</time></trkpt><trkpt lat="39.03360728181519" lon="16.164235336381168"><ele>316.0</ele><time>2026-05-01T12:42:14Z</time></trkpt><trkpt lat="39.033539519182376" lon="16.16425802999281"><ele>316.0</ele><time>2026-05-01T12:42:15Z</time></trkpt><trkpt lat="39.03347408464336" lon="16.164282695159397"><ele>316.0</ele><time>2026-05-01T12:42:16Z</time></trkpt><trkpt lat="39.0334002775907" lon="16.164283389240737"><ele>316.0</ele><time>2026-05-01T12:42:17Z</time></trkpt><trkpt lat="39.0333279360887" lon="16.164311728579193"><ele>316.00000000000006</ele><time>2026-05-01T12:42:18Z</time></trkpt><trkpt lat="39.03325927112318" lon="16.164361069727672"><ele>316.0</ele><time>2026-05-01T12:42:19Z</time></trkpt><trkpt lat="39.033180915157544" lon="16.164386872863645"><ele>310.8</ele><time>2026-05-01T12:42:20Z</time></trkpt><trkpt lat="39.03310828282218" lon="16.16441515748437"><ele>305.6</ele><time>2026-05-01T12:42:21Z</time></trkpt><trkpt lat="39.03303946838904" lon="16.164416842440993"><ele>300.4</ele><time>2026-05-01T12:42:22Z</time></trkpt><trkpt lat="39.03292675638027" lon="16.164439133888155"><ele>295.2</ele><time>2026-05-01T12:42:24Z</time></trkpt><trkpt lat="39.03283426160144" lon="16.16435841156573"><ele>290.0</ele><time>2026-05-01T12:42:26Z</time></trkpt><trkpt lat="39.03282346584589" lon="16.164203343770428"><ele>290.0</ele><time>2026-05-01T12:42:28Z</time></trkpt><trkpt lat="39.03287049521806" lon="16.164112982045925"><ele>290.0</ele><time>2026-05-01T12:42:29Z</time></trkpt><trkpt lat="39.0329347045304" lon="16.164047467559964"><ele>290.0</ele><time>2026-05-01T12:42:30Z</time></trkpt><trkpt lat="39.033008711903996" lon="16.163984335802567"><ele>290.0</ele><time>2026-05-01T12:42:31Z</time></trkpt><trkpt lat="39.033078187920026" lon="16.1639195308362"><ele>290.0</ele><time>2026-05-01T12:42:32Z</time></trkpt><trkpt lat="39.03314805277781" lon="16.163849156484883"><ele>290.0</ele><time>2026-05-01T12:42:33Z</time></trkpt><trkpt lat="39.0332153931195" lon="16.16377262082435"><ele>289.4</ele><time>2026-05-01T12:42:34Z</time></trkpt><trkpt lat="39.033286762716514" lon="16.16369927132809"><ele>288.8</ele><time>2026-05-01T12:42:35Z</time></trkpt><trkpt lat="39.03336357464542" lon="16.16363355270606"><ele>288.2</ele><time>2026-05-01T12:42:36Z</time></trkpt><trkpt lat="39.03344193634631" lon="16.16356577045965"><ele>287.6</ele><time>2026-05-01T12:42:37Z</time></trkpt><trkpt lat="39.03353172096854" lon="16.163488297197485"><ele>287.0</ele><time>2026-05-01T12:42:38Z</time></trkpt><trkpt lat="39.033630169621375" lon="16.16340053876528"><ele>287.0</ele><time>2026-05-01T12:42:39Z</time></trkpt><trkpt lat="39.03373336908847" lon="16.163316202795386"><ele>287.0</ele><time>2026-05-01T12:42:40Z</time></trkpt><trkpt lat="39.03383868821933" lon="16.163237915981835"><ele>287.0</ele><time>2026-05-01T12:42:41Z</time></trkpt><trkpt lat="39.033934798724246" lon="16.16316197216616"><ele>287.0</ele><time>2026-05-01T12:42:42Z</time></trkpt><trkpt lat="39.034030441271575" lon="16.163088074185364"><ele>285.2</ele><time>2026-05-01T12:42:43Z</time></trkpt><trkpt lat="39.03412681292194" lon="16.163017078115093"><ele>283.4</ele><time>2026-05-01T12:42:44Z</time></trkpt><trkpt lat="39.03422471653608" lon="16.162943345705553"><ele>281.6</ele><time>2026-05-01T12:42:45Z</time></trkpt><trkpt lat="39.03432388098801" lon="16.16287159340326"><ele>279.8</ele><time>2026-05-01T12:42:46Z</time></trkpt><trkpt lat="39.03441159898221" lon="16.162804205835606"><ele>278.0</ele><time>2026-05-01T12:42:47Z</time></trkpt><trkpt lat="39.03447819665584" lon="16.16274077311413"><ele>278.0</ele><time>2026-05-01T12:42:48Z</time></trkpt><trkpt lat="39.034524951154225" lon="16.162668930119622"><ele>278.0</ele><time>2026-05-01T12:42:49Z</time></trkpt><trkpt lat="39.03453659271001" lon="16.16258189221715"><ele>278.0</ele><time>2026-05-01T12:42:50Z</time></trkpt><trkpt lat="39.03452346203194" lon="16.162483325081656"><ele>278.0</ele><time>2026-05-01T12:42:51Z</time></trkpt><trkpt lat="39.03450874095606" lon="16.162392162040394"><ele>278.0</ele><time>2026-05-01T12:42:52Z</time></trkpt><trkpt lat="39.03443391880928" lon="16.162329768971986"><ele>278.0</ele><time>2026-05-01T12:42:53Z</time></trkpt><trkpt lat="39.03435612997103" lon="16.16229880689471"><ele>278.0</ele><time>2026-05-01T12:42:54Z</time></trkpt><trkpt lat="39.03426236968792" lon="16.162348904305617"><ele>278.0</ele><time>2026-05-01T12:42:55Z</time></trkpt><trkpt lat="39.034183412090194" lon="16.162390919176097"><ele>278.0</ele><time>2026-05-01T12:42:56Z</time></trkpt><trkpt lat="39.03408956130688" lon="16.1624158847945"><ele>278.0</ele><time>2026-05-01T12:42:57Z</time></trkpt><trkpt lat="39.03398633088174" lon="16.16243868139881"><ele>278.0</ele><time>2026-05-01T12:42:58Z</time></trkpt><trkpt lat="39.033862996302794" lon="16.162462917812785"><ele>272.5</ele><time>2026-05-01T12:42:59Z</time></trkpt><trkpt lat="39.03373391981276" lon="16.162508045029654"><ele>267.0</ele><time>2026-05-01T12:43:00Z</time></trkpt><trkpt lat="39.03360197177494" lon="16.16253484798431"><ele>261.5</ele><time>2026-05-01T12:43:01Z</time></trkpt><trkpt lat="39.03348456260139" lon="16.162549584862585"><ele>256.0</ele><time>2026-05-01T12:43:02Z</time></trkpt><trkpt lat="39.03339074743544" lon="16.162594129619972"><ele>255.99999999999997</ele><time>2026-05-01T12:43:03Z</time></trkpt><trkpt lat="39.03331383600392" lon="16.162629132774466"><ele>256.0</ele><time>2026-05-01T12:43:04Z</time></trkpt><trkpt lat="39.03325030886391" lon="16.162644375757527"><ele>256.0</ele><time>2026-05-01T12:43:05Z</time></trkpt><trkpt lat="39.03314514224645" lon="16.162626529045728"><ele>256.0</ele><time>2026-05-01T12:43:07Z</time></trkpt><trkpt lat="39.03312263859654" lon="16.16247247987857"><ele>255.99999999999997</ele><time>2026-05-01T12:43:09Z</time></trkpt><trkpt lat="39.03314704109361" lon="16.162382838439292"><ele>256.0</ele><time>2026-05-01T12:43:10Z</time></trkpt><trkpt lat="39.033186209444196" lon="16.162290575019025"><ele>254.0</ele><time>2026-05-01T12:43:11Z</time></trkpt><trkpt lat="39.0332220484474" lon="16.162209160967226"><ele>252.00000000000003</ele><time>2026-05-01T12:43:12Z</time></trkpt><trkpt lat="39.033277689300576" lon="16.16206240041667"><ele>250.00000000000003</ele><time>2026-05-01T12:43:14Z</time></trkpt><trkpt lat="39.03330876348074" lon="16.161929608171477"><ele>248.0</ele><time>2026-05-01T12:43:16Z</time></trkpt><trkpt lat="39.03342531678204" lon="16.161915684579984"><ele>246.0</ele><time>2026-05-01T12:43:20Z</time></trkpt><trkpt lat="39.03351249921166" lon="16.161973771480874"><ele>246.0</ele><time>2026-05-01T12:43:22Z</time></trkpt><trkpt lat="39.03362199593172" lon="16.16201625969271"><ele>246.00000000000003</ele><time>2026-05-01T12:43:24Z</time></trkpt><trkpt lat="39.033725191465024" lon="16.162008807433132"><ele>246.00000000000003</ele><time>2026-05-01T12:43:26Z</time></trkpt><trkpt lat="39.033803605695766" lon="16.16195194930061"><ele>246.0</ele><time>2026-05-01T12:43:28Z</time></trkpt><trkpt lat="39.03382231237676" lon="16.161841339064793"><ele>246.0</ele><time>2026-05-01T12:43:30Z</time></trkpt><trkpt lat="39.03381415468599" lon="16.161702384832513"><ele>246.0</ele><time>2026-05-01T12:43:32Z</time></trkpt><trkpt lat="39.03385198490038" lon="16.161619342320325"><ele>246.00000000000003</ele><time>2026-05-01T12:43:33Z</time></trkpt><trkpt lat="39.033914788194124" lon="16.161541688455106"><ele>246.00000000000003</ele><time>2026-05-01T12:43:34Z</time></trkpt><trkpt lat="39.03399420910382" lon="16.16145935395053"><ele>246.0</ele><time>2026-05-01T12:43:35Z</time></trkpt><trkpt lat="39.03408133555867" lon="16.1613687488375"><ele>246.0</ele><time>2026-05-01T12:43:36Z</time></trkpt><trkpt lat="39.034169546544604" lon="16.1612723853708"><ele>241.5</ele><time>2026-05-01T12:43:37Z</time></trkpt><trkpt lat="39.03426294343452" lon="16.161160024142863"><ele>237.0</ele><time>2026-05-01T12:43:38Z</time></trkpt><trkpt lat="39.03436096386355" lon="16.161040067642173"><ele>232.5</ele><time>2026-05-01T12:43:39Z</time></trkpt><trkpt lat="39.034463025370826" lon="16.160920891181146"><ele>228.0</ele><time>2026-05-01T12:43:40Z</time></trkpt><trkpt lat="39.03456979436805" lon="16.160791635665547"><ele>232.33333333333331</ele><time>2026-05-01T12:43:41Z</time></trkpt><trkpt lat="39.03468251468644" lon="16.160651628742976"><ele>236.66666666666666</ele><time>2026-05-01T12:43:42Z</time></trkpt><trkpt lat="39.034795278947605" lon="16.160500293409964"><ele>241.0</ele><time>2026-05-01T12:43:43Z</time></trkpt><trkpt lat="39.03490600340767" lon="16.160338145886627"><ele>232.33333333333331</ele><time>2026-05-01T12:43:44Z</time></trkpt><trkpt lat="39.035021366355735" lon="16.16016974211773"><ele>223.66666666666669</ele><time>2026-05-01T12:43:45Z</time></trkpt><trkpt lat="39.03514316781583" lon="16.15999995308462"><ele>215.0</ele><time>2026-05-01T12:43:46Z</time></trkpt><trkpt lat="39.03526537896514" lon="16.1598292341865"><ele>214.33333333333334</ele><time>2026-05-01T12:43:47Z</time></trkpt><trkpt lat="39.035389277983086" lon="16.1596582580267"><ele>213.66666666666669</ele><time>2026-05-01T12:43:48Z</time></trkpt><trkpt lat="39.03550488545015" lon="16.159486942129483"><ele>213.0</ele><time>2026-05-01T12:43:49Z</time></trkpt><trkpt lat="39.035622925734465" lon="16.159312999022134"><ele>213.0</ele><time>2026-05-01T12:43:50Z</time></trkpt><trkpt lat="39.03573867953266" lon="16.15914205448095"><ele>213.0</ele><time>2026-05-01T12:43:51Z</time></trkpt><trkpt lat="39.03585263365178" lon="16.1589739917679"><ele>213.0</ele><time>2026-05-01T12:43:52Z</time></trkpt><trkpt lat="39.03596384268162" lon="16.158818961318953"><ele>210.0</ele><time>2026-05-01T12:43:53Z</time></trkpt><trkpt lat="39.036081409306256" lon="16.158676421076176"><ele>207.0</ele><time>2026-05-01T12:43:54Z</time></trkpt><trkpt lat="39.03620665984348" lon="16.15855532153204"><ele>204.0</ele><time>2026-05-01T12:43:55Z</time></trkpt><trkpt lat="39.036337147216706" lon="16.158434170450413"><ele>204.0</ele><time>2026-05-01T12:43:56Z</time></trkpt><trkpt lat="39.036460101288235" lon="16.15831116285529"><ele>204.0</ele><time>2026-05-01T12:43:57Z</time></trkpt><trkpt lat="39.03655757551505" lon="16.158167513921214"><ele>204.0</ele><time>2026-05-01T12:43:58Z</time></trkpt><trkpt lat="39.03662307215584" lon="16.158009544124475"><ele>204.0</ele><time>2026-05-01T12:43:59Z</time></trkpt><trkpt lat="39.0366605241338" lon="16.15784592139582"><ele>203.79999999999998</ele><time>2026-05-01T12:44:00Z</time></trkpt><trkpt lat="39.036692940505226" lon="16.157694584968162"><ele>203.6</ele><time>2026-05-01T12:44:01Z</time></trkpt><trkpt lat="39.03673444997973" lon="16.157566439493646"><ele>203.4</ele><time>2026-05-01T12:44:02Z</time></trkpt><trkpt lat="39.036796584670526" lon="16.15745561811384"><ele>203.2</ele><time>2026-05-01T12:44:03Z</time></trkpt><trkpt lat="39.03687825834704" lon="16.15736959701353"><ele>203.0</ele><time>2026-05-01T12:44:04Z</time></trkpt><trkpt lat="39.03696022246439" lon="16.157300140850502"><ele>203.00000000000003</ele><time>2026-05-01T12:44:05Z</time></trkpt><trkpt lat="39.03703236765646" lon="16.157240033012236"><ele>203.0</ele><time>2026-05-01T12:44:06Z</time></trkpt><trkpt lat="39.03711463720517" lon="16.157223832268826"><ele>203.0</ele><time>2026-05-01T12:44:07Z</time></trkpt><trkpt lat="39.037196197015" lon="16.15725481595164"><ele>203.0</ele><time>2026-05-01T12:44:08Z</time></trkpt><trkpt lat="39.03726048128219" lon="16.157309785468502"><ele>203.00000000000003</ele><time>2026-05-01T12:44:09Z</time></trkpt><trkpt lat="39.03731442723263" lon="16.157392790499955"><ele>203.0</ele><time>2026-05-01T12:44:10Z</time></trkpt><trkpt lat="39.037361645228835" lon="16.157491635744773"><ele>203.00000000000003</ele><time>2026-05-01T12:44:11Z</time></trkpt><trkpt lat="39.037406104453254" lon="16.15758980190031"><ele>203.0</ele><time>2026-05-01T12:44:12Z</time></trkpt><trkpt lat="39.037444958887946" lon="16.157689883134474"><ele>203.0</ele><time>2026-05-01T12:44:13Z</time></trkpt><trkpt lat="39.03748183124322" lon="16.157793392904264"><ele>203.0</ele><time>2026-05-01T12:44:14Z</time></trkpt><trkpt lat="39.03751634008572" lon="16.157902292602742"><ele>203.00000000000003</ele><time>2026-05-01T12:44:15Z</time></trkpt><trkpt lat="39.03754256645462" lon="16.158013399866622"><ele>203.0</ele><time>2026-05-01T12:44:16Z</time></trkpt><trkpt lat="39.03755236030889" lon="16.158137896818808"><ele>206.4</ele><time>2026-05-01T12:44:17Z</time></trkpt><trkpt lat="39.03756179175183" lon="16.158258952489764"><ele>209.8</ele><time>2026-05-01T12:44:18Z</time></trkpt><trkpt lat="39.037562204091834" lon="16.158360563896128"><ele>213.2</ele><time>2026-05-01T12:44:19Z</time></trkpt><trkpt lat="39.037575674465835" lon="16.158514142880577"><ele>216.6</ele><time>2026-05-01T12:44:21Z</time></trkpt><trkpt lat="39.03759840084337" lon="16.158632877534714"><ele>220.0</ele><time>2026-05-01T12:44:23Z</time></trkpt><trkpt lat="39.03761610920142" lon="16.15874144661548"><ele>219.99999999999997</ele><time>2026-05-01T12:44:25Z</time></trkpt><trkpt lat="39.03763044291006" lon="16.158869540422188"><ele>220.0</ele><time>2026-05-01T12:44:27Z</time></trkpt><trkpt lat="39.03765058412743" lon="16.158982735611747"><ele>220.0</ele><time>2026-05-01T12:44:29Z</time></trkpt><trkpt lat="39.037667329780895" lon="16.159092579951935"><ele>220.0</ele><time>2026-05-01T12:44:31Z</time></trkpt><trkpt lat="39.03768144987626" lon="16.15919896010546"><ele>219.99999999999997</ele><time>2026-05-01T12:44:33Z</time></trkpt><trkpt lat="39.037698582888005" lon="16.159293121940646"><ele>220.0</ele><time>2026-05-01T12:44:35Z</time></trkpt><trkpt lat="39.03770703939341" lon="16.159387961566413"><ele>221.42857142857142</ele><time>2026-05-01T12:44:37Z</time></trkpt><trkpt lat="39.03772198577989" lon="16.15948203655879"><ele>222.85714285714283</ele><time>2026-05-01T12:44:39Z</time></trkpt><trkpt lat="39.037754478040284" lon="16.159564176091184"><ele>224.28571428571428</ele><time>2026-05-01T12:44:41Z</time></trkpt><trkpt lat="39.037766979181725" lon="16.159663564642315"><ele>225.7142857142857</ele><time>2026-05-01T12:44:43Z</time></trkpt><trkpt lat="39.03779592968511" lon="16.159745239278333"><ele>227.14285714285714</ele><time>2026-05-01T12:44:45Z</time></trkpt><trkpt lat="39.037833665053235" lon="16.159848268959024"><ele>228.57142857142853</ele><time>2026-05-01T12:44:48Z</time></trkpt><trkpt lat="39.03786298562017" lon="16.15992403067404"><ele>229.99999999999997</ele><time>2026-05-01T12:44:50Z</time></trkpt><trkpt lat="39.037899226662866" lon="16.16001767362849"><ele>233.0</ele><time>2026-05-01T12:44:52Z</time></trkpt><trkpt lat="39.0379405183395" lon="16.16012436689372"><ele>236.0</ele><time>2026-05-01T12:44:54Z</time></trkpt><trkpt lat="39.03798606580395" lon="16.160241997795737"><ele>239.0</ele><time>2026-05-01T12:44:56Z</time></trkpt><trkpt lat="39.03805081238379" lon="16.16036280736231"><ele>242.0</ele><time>2026-05-01T12:44:58Z</time></trkpt><trkpt lat="39.038096786935576" lon="16.160490604300424"><ele>245.0</ele><time>2026-05-01T12:45:00Z</time></trkpt><trkpt lat="39.03814086744724" lon="16.16060716800732"><ele>246.50000000000003</ele><time>2026-05-01T12:45:02Z</time></trkpt><trkpt lat="39.038200032213965" lon="16.160730801185796"><ele>248.0</ele><time>2026-05-01T12:45:04Z</time></trkpt><trkpt lat="39.03824055946346" lon="16.160805374424992"><ele>249.5</ele><time>2026-05-01T12:45:05Z</time></trkpt><trkpt lat="39.038277939855796" lon="16.16088662433961"><ele>251.0</ele><time>2026-05-01T12:45:06Z</time></trkpt><trkpt lat="39.03832449198159" lon="16.1609778438113"><ele>252.50000000000003</ele><time>2026-05-01T12:45:07Z</time></trkpt><trkpt lat="39.038372113701435" lon="16.161069517215"><ele>254.0</ele><time>2026-05-01T12:45:08Z</time></trkpt><trkpt lat="39.038425832673816" lon="16.161164965131817"><ele>250.2</ele><time>2026-05-01T12:45:09Z</time></trkpt><trkpt lat="39.038471565702196" lon="16.1612823544528"><ele>246.39999999999998</ele><time>2026-05-01T12:45:10Z</time></trkpt><trkpt lat="39.038534347305614" lon="16.161385418163327"><ele>242.6</ele><time>2026-05-01T12:45:11Z</time></trkpt><trkpt lat="39.03861962563025" lon="16.16146199316708"><ele>238.8</ele><time>2026-05-01T12:45:12Z</time></trkpt><trkpt lat="39.03869638054055" lon="16.161554387488586"><ele>235.0</ele><time>2026-05-01T12:45:13Z</time></trkpt><trkpt lat="39.038794523270504" lon="16.16160275794443"><ele>234.99999999999997</ele><time>2026-05-01T12:45:14Z</time></trkpt><trkpt lat="39.038873816807985" lon="16.16166351745982"><ele>235.0</ele><time>2026-05-01T12:45:15Z</time></trkpt><trkpt lat="39.038944968387405" lon="16.161730690701585"><ele>235.0</ele><time>2026-05-01T12:45:16Z</time></trkpt><trkpt lat="39.0390098240549" lon="16.161804177473304"><ele>235.0</ele><time>2026-05-01T12:45:17Z</time></trkpt><trkpt lat="39.03905566159144" lon="16.161890782678224"><ele>234.99999999999997</ele><time>2026-05-01T12:45:18Z</time></trkpt><trkpt lat="39.03907716540918" lon="16.161968833147988"><ele>235.0</ele><time>2026-05-01T12:45:19Z</time></trkpt><trkpt lat="39.03905774066972" lon="16.16206006747393"><ele>235.0</ele><time>2026-05-01T12:45:21Z</time></trkpt><trkpt lat="39.03900624311563" lon="16.162115170599883"><ele>235.0</ele><time>2026-05-01T12:45:25Z</time></trkpt><trkpt lat="39.03896143249583" lon="16.16223844164711"><ele>235.0</ele><time>2026-05-01T12:45:28Z</time></trkpt><trkpt lat="39.03898755692162" lon="16.162358171621538"><ele>235.0</ele><time>2026-05-01T12:45:29Z</time></trkpt><trkpt lat="39.03903113836238" lon="16.16246599793752"><ele>235.0</ele><time>2026-05-01T12:45:30Z</time></trkpt><trkpt lat="39.03908873446787" lon="16.162572533057002"><ele>230.2</ele><time>2026-05-01T12:45:31Z</time></trkpt><trkpt lat="39.03914383598045" lon="16.16269145453532"><ele>225.4</ele><time>2026-05-01T12:45:32Z</time></trkpt><trkpt lat="39.03919499883557" lon="16.16281306365138"><ele>220.60000000000002</ele><time>2026-05-01T12:45:33Z</time></trkpt><trkpt lat="39.03924744170949" lon="16.162933342376576"><ele>215.8</ele><time>2026-05-01T12:45:34Z</time></trkpt><trkpt lat="39.039305471105756" lon="16.163050040993213"><ele>211.0</ele><time>2026-05-01T12:45:35Z</time></trkpt><trkpt lat="39.03936220447503" lon="16.163165246184395"><ele>213.4</ele><time>2026-05-01T12:45:36Z</time></trkpt><trkpt lat="39.03941970810827" lon="16.16328928435728"><ele>215.8</ele><time>2026-05-01T12:45:37Z</time></trkpt><trkpt lat="39.03947469355529" lon="16.163406722640104"><ele>218.20000000000002</ele><time>2026-05-01T12:45:38Z</time></trkpt><trkpt lat="39.039537742227466" lon="16.1634992331011"><ele>220.60000000000002</ele><time>2026-05-01T12:45:39Z</time></trkpt><trkpt lat="39.0396138546149" lon="16.163551418764815"><ele>223.0</ele><time>2026-05-01T12:45:40Z</time></trkpt><trkpt lat="39.03970388659767" lon="16.163554786177166"><ele>223.0</ele><time>2026-05-01T12:45:41Z</time></trkpt><trkpt lat="39.0397904949354" lon="16.16352010339043"><ele>223.0</ele><time>2026-05-01T12:45:42Z</time></trkpt><trkpt lat="39.03988846706729" lon="16.163480286526248"><ele>223.0</ele><time>2026-05-01T12:45:43Z</time></trkpt><trkpt lat="39.0399909241827" lon="16.163449475543793"><ele>223.0</ele><time>2026-05-01T12:45:44Z</time></trkpt><trkpt lat="39.04009257952827" lon="16.163428041115395"><ele>223.0</ele><time>2026-05-01T12:45:45Z</time></trkpt><trkpt lat="39.04018725501842" lon="16.163399005291527"><ele>218.8</ele><time>2026-05-01T12:45:46Z</time></trkpt><trkpt lat="39.04026918821858" lon="16.16334474412099"><ele>214.60000000000002</ele><time>2026-05-01T12:45:47Z</time></trkpt><trkpt lat="39.04032494044153" lon="16.16324899101264"><ele>210.39999999999998</ele><time>2026-05-01T12:45:48Z</time></trkpt><trkpt lat="39.040356721967235" lon="16.163122525101958"><ele>206.2</ele><time>2026-05-01T12:45:49Z</time></trkpt><trkpt lat="39.040373543931416" lon="16.162985751261953"><ele>202.0</ele><time>2026-05-01T12:45:50Z</time></trkpt><trkpt lat="39.040388269173334" lon="16.162838455516006"><ele>201.0</ele><time>2026-05-01T12:45:51Z</time></trkpt><trkpt lat="39.04040028795607" lon="16.162687487504993"><ele>200.0</ele><time>2026-05-01T12:45:52Z</time></trkpt><trkpt lat="39.04039863956921" lon="16.16253207555089"><ele>199.0</ele><time>2026-05-01T12:45:53Z</time></trkpt><trkpt lat="39.040394922041116" lon="16.162377103628554"><ele>198.0</ele><time>2026-05-01T12:45:54Z</time></trkpt><trkpt lat="39.04040775735114" lon="16.16221584307977"><ele>198.0</ele><time>2026-05-01T12:45:55Z</time></trkpt><trkpt lat="39.04043901409647" lon="16.162048193357577"><ele>198.0</ele><time>2026-05-01T12:45:56Z</time></trkpt><trkpt lat="39.04048209295493" lon="16.161883198587205"><ele>198.0</ele><time>2026-05-01T12:45:57Z</time></trkpt><trkpt lat="39.040520555387765" lon="16.161718666389554"><ele>198.0</ele><time>2026-05-01T12:45:58Z</time></trkpt><trkpt lat="39.04054820627553" lon="16.161555117738082"><ele>199.33333333333331</ele><time>2026-05-01T12:45:59Z</time></trkpt><trkpt lat="39.04055255537208" lon="16.16139791752354"><ele>200.66666666666666</ele><time>2026-05-01T12:46:00Z</time></trkpt><trkpt lat="39.04062633168048" lon="16.161218362362053"><ele>202.0</ele><time>2026-05-01T12:46:01Z</time></trkpt><trkpt lat="39.0404413890293" lon="16.161095277486552"><ele>202.0</ele><time>2026-05-01T12:46:02Z</time></trkpt><trkpt lat="39.04036484913339" lon="16.16094832945035"><ele>202.0</ele><time>2026-05-01T12:46:03Z</time></trkpt><trkpt lat="39.04031103450367" lon="16.160797912181305"><ele>202.0</ele><time>2026-05-01T12:46:04Z</time></trkpt><trkpt lat="39.04029439833857" lon="16.16062147028496"><ele>202.0</ele><time>2026-05-01T12:46:05Z</time></trkpt><trkpt lat="39.0403454390702" lon="16.160456475522345"><ele>204.5</ele><time>2026-05-01T12:46:06Z</time></trkpt><trkpt lat="39.04034768343403" lon="16.160306305848465"><ele>207.0</ele><time>2026-05-01T12:46:07Z</time></trkpt><trkpt lat="39.04030937342975" lon="16.160181468168226"><ele>209.5</ele><time>2026-05-01T12:46:07.999Z</time></trkpt><trkpt lat="39.0402091023975" lon="16.160083660676463"><ele>212.0</ele><time>2026-05-01T12:46:08.999Z</time></trkpt><trkpt lat="39.040111064839174" lon="16.159998469239024"><ele>212.0</ele><time>2026-05-01T12:46:09.999Z</time></trkpt><trkpt lat="39.04003902265566" lon="16.159875904216282"><ele>212.0</ele><time>2026-05-01T12:46:11Z</time></trkpt><trkpt lat="39.04000292930997" lon="16.159708709414186"><ele>212.0</ele><time>2026-05-01T12:46:12Z</time></trkpt><trkpt lat="39.039978220695616" lon="16.159538451770374"><ele>212.0</ele><time>2026-05-01T12:46:13Z</time></trkpt><trkpt lat="39.03996459852591" lon="16.15936886615441"><ele>212.75</ele><time>2026-05-01T12:46:14Z</time></trkpt><trkpt lat="39.03998655182059" lon="16.159201574592952"><ele>213.5</ele><time>2026-05-01T12:46:15Z</time></trkpt><trkpt lat="39.040047398926376" lon="16.15904477000722"><ele>214.25</ele><time>2026-05-01T12:46:16Z</time></trkpt><trkpt lat="39.0401189456369" lon="16.158891336216907"><ele>215.0</ele><time>2026-05-01T12:46:17Z</time></trkpt><trkpt lat="39.04018588050788" lon="16.158739016810966"><ele>215.0</ele><time>2026-05-01T12:46:18Z</time></trkpt><trkpt lat="39.040253366923864" lon="16.15859148404211"><ele>215.0</ele><time>2026-05-01T12:46:19Z</time></trkpt><trkpt lat="39.04033267643407" lon="16.158457185249667"><ele>215.0</ele><time>2026-05-01T12:46:20Z</time></trkpt><trkpt lat="39.04043957634943" lon="16.158359705970106"><ele>215.0</ele><time>2026-05-01T12:46:21Z</time></trkpt><trkpt lat="39.04054714406038" lon="16.158272427588514"><ele>215.4</ele><time>2026-05-01T12:46:22Z</time></trkpt><trkpt lat="39.0406389939189" lon="16.158174997095898"><ele>215.8</ele><time>2026-05-01T12:46:23Z</time></trkpt><trkpt lat="39.0407101923647" lon="16.15808236718039"><ele>216.2</ele><time>2026-05-01T12:46:24Z</time></trkpt><trkpt lat="39.04074519495903" lon="16.157960880722985"><ele>216.6</ele><time>2026-05-01T12:46:25Z</time></trkpt><trkpt lat="39.04073725849029" lon="16.157832349604657"><ele>217.0</ele><time>2026-05-01T12:46:26Z</time></trkpt><trkpt lat="39.04069624615945" lon="16.157706507314302"><ele>217.0</ele><time>2026-05-01T12:46:27Z</time></trkpt><trkpt lat="39.04063266382311" lon="16.15758426999012"><ele>217.0</ele><time>2026-05-01T12:46:28Z</time></trkpt><trkpt lat="39.040559378934454" lon="16.157450569640606"><ele>217.0</ele><time>2026-05-01T12:46:29Z</time></trkpt><trkpt lat="39.040484711462334" lon="16.157295667270716"><ele>217.0</ele><time>2026-05-01T12:46:30Z</time></trkpt><trkpt lat="39.04041405036092" lon="16.15713881600865"><ele>219.75</ele><time>2026-05-01T12:46:31Z</time></trkpt><trkpt lat="39.040338659593615" lon="16.156988252289217"><ele>222.5</ele><time>2026-05-01T12:46:32Z</time></trkpt><trkpt lat="39.04026897828689" lon="16.15684206777942"><ele>225.25</ele><time>2026-05-01T12:46:33Z</time></trkpt><trkpt lat="39.040217786814004" lon="16.156707780320975"><ele>228.0</ele><time>2026-05-01T12:46:34Z</time></trkpt><trkpt lat="39.04019136909402" lon="16.156577689190723"><ele>229.75</ele><time>2026-05-01T12:46:35Z</time></trkpt><trkpt lat="39.04018207729376" lon="16.15643385200905"><ele>231.5</ele><time>2026-05-01T12:46:36Z</time></trkpt><trkpt lat="39.04021001053284" lon="16.15627919003757"><ele>233.25</ele><time>2026-05-01T12:46:37Z</time></trkpt><trkpt lat="39.040222132527084" lon="16.156114642669284"><ele>235.0</ele><time>2026-05-01T12:46:38Z</time></trkpt><trkpt lat="39.04026616586876" lon="16.155949570783605"><ele>235.0</ele><time>2026-05-01T12:46:39Z</time></trkpt><trkpt lat="39.04031402894371" lon="16.15578768735717"><ele>235.0</ele><time>2026-05-01T12:46:40Z</time></trkpt><trkpt lat="39.04035301333088" lon="16.15561824683"><ele>235.0</ele><time>2026-05-01T12:46:41Z</time></trkpt><trkpt lat="39.040377415272985" lon="16.155447160390615"><ele>235.0</ele><time>2026-05-01T12:46:42Z</time></trkpt><trkpt lat="39.040386918468315" lon="16.155274816764802"><ele>234.0</ele><time>2026-05-01T12:46:43Z</time></trkpt><trkpt lat="39.0404013978521" lon="16.15510856448746"><ele>233.0</ele><time>2026-05-01T12:46:44Z</time></trkpt><trkpt lat="39.04043373687401" lon="16.154950602073384"><ele>232.0</ele><time>2026-05-01T12:46:45Z</time></trkpt><trkpt lat="39.04048639041148" lon="16.15479736800329"><ele>231.0</ele><time>2026-05-01T12:46:46Z</time></trkpt><trkpt lat="39.040551736219484" lon="16.154647449611975"><ele>228.5</ele><time>2026-05-01T12:46:47Z</time></trkpt><trkpt lat="39.04060799448256" lon="16.15449640359695"><ele>226.0</ele><time>2026-05-01T12:46:48Z</time></trkpt><trkpt lat="39.040642647689104" lon="16.15435663466645"><ele>223.5</ele><time>2026-05-01T12:46:49Z</time></trkpt><trkpt lat="39.04065680259888" lon="16.15421603169284"><ele>221.0</ele><time>2026-05-01T12:46:50Z</time></trkpt><trkpt lat="39.04065337004456" lon="16.15408334492224"><ele>221.0</ele><time>2026-05-01T12:46:51Z</time></trkpt><trkpt lat="39.04064050930863" lon="16.15395207812207"><ele>221.00000000000003</ele><time>2026-05-01T12:46:52Z</time></trkpt><trkpt lat="39.04062983308575" lon="16.153825175682698"><ele>221.00000000000003</ele><time>2026-05-01T12:46:53Z</time></trkpt><trkpt lat="39.040636927338554" lon="16.15369030454591"><ele>221.0</ele><time>2026-05-01T12:46:54Z</time></trkpt><trkpt lat="39.04066319209618" lon="16.153551043312483"><ele>221.0</ele><time>2026-05-01T12:46:55Z</time></trkpt><trkpt lat="39.04070396421587" lon="16.153408777001573"><ele>221.0</ele><time>2026-05-01T12:46:56Z</time></trkpt><trkpt lat="39.040755144583215" lon="16.153266988149287"><ele>221.0</ele><time>2026-05-01T12:46:57Z</time></trkpt><trkpt lat="39.04081150058342" lon="16.15312862430813"><ele>221.0</ele><time>2026-05-01T12:46:58Z</time></trkpt><trkpt lat="39.040860776537365" lon="16.152993588129906"><ele>221.0</ele><time>2026-05-01T12:46:59Z</time></trkpt><trkpt lat="39.04087047015261" lon="16.15285383264829"><ele>223.0</ele><time>2026-05-01T12:47:00Z</time></trkpt><trkpt lat="39.04084652951942" lon="16.152718215058993"><ele>225.00000000000003</ele><time>2026-05-01T12:47:01Z</time></trkpt><trkpt lat="39.04079333341674" lon="16.15259386302548"><ele>227.00000000000003</ele><time>2026-05-01T12:47:02Z</time></trkpt><trkpt lat="39.04073048252683" lon="16.152482066733313"><ele>229.0</ele><time>2026-05-01T12:47:03Z</time></trkpt><trkpt lat="39.040669396564404" lon="16.152355319959366"><ele>231.0</ele><time>2026-05-01T12:47:04Z</time></trkpt><trkpt lat="39.04062100620653" lon="16.152214316386065"><ele>234.75</ele><time>2026-05-01T12:47:05Z</time></trkpt><trkpt lat="39.04059418904948" lon="16.152060975102646"><ele>238.5</ele><time>2026-05-01T12:47:06Z</time></trkpt><trkpt lat="39.04056534026534" lon="16.151907478320986"><ele>242.25</ele><time>2026-05-01T12:47:07Z</time></trkpt><trkpt lat="39.04053375213202" lon="16.151756197185033"><ele>246.0</ele><time>2026-05-01T12:47:08Z</time></trkpt><trkpt lat="39.04049686937289" lon="16.151602451627383"><ele>249.0</ele><time>2026-05-01T12:47:09Z</time></trkpt><trkpt lat="39.04045552142081" lon="16.151452986848764"><ele>252.00000000000003</ele><time>2026-05-01T12:47:10Z</time></trkpt><trkpt lat="39.04040521821801" lon="16.151317354551242"><ele>255.00000000000003</ele><time>2026-05-01T12:47:11Z</time></trkpt><trkpt lat="39.04035421594518" lon="16.151201271538984"><ele>258.0</ele><time>2026-05-01T12:47:12Z</time></trkpt><trkpt lat="39.040317057232855" lon="16.151095190443538"><ele>261.0</ele><time>2026-05-01T12:47:13Z</time></trkpt><trkpt lat="39.04031188183946" lon="16.150972571786408"><ele>261.0</ele><time>2026-05-01T12:47:14Z</time></trkpt><trkpt lat="39.04034164284386" lon="16.150852081193484"><ele>261.0</ele><time>2026-05-01T12:47:15Z</time></trkpt><trkpt lat="39.04038716204034" lon="16.15073384198175"><ele>261.0</ele><time>2026-05-01T12:47:16Z</time></trkpt><trkpt lat="39.04041871215282" lon="16.15060887136353"><ele>261.0</ele><time>2026-05-01T12:47:17Z</time></trkpt><trkpt lat="39.040421451394785" lon="16.150467913408388"><ele>261.0</ele><time>2026-05-01T12:47:18Z</time></trkpt><trkpt lat="39.04039023978715" lon="16.15031900935437"><ele>262.0</ele><time>2026-05-01T12:47:19Z</time></trkpt><trkpt lat="39.0403299136102" lon="16.150172192577976"><ele>263.0</ele><time>2026-05-01T12:47:20Z</time></trkpt><trkpt lat="39.04026174830914" lon="16.150038242088165"><ele>264.0</ele><time>2026-05-01T12:47:21Z</time></trkpt><trkpt lat="39.04020797447348" lon="16.149902223663315"><ele>265.0</ele><time>2026-05-01T12:47:22Z</time></trkpt><trkpt lat="39.04016772577547" lon="16.149757698809342"><ele>266.5</ele><time>2026-05-01T12:47:23Z</time></trkpt><trkpt lat="39.04015611155237" lon="16.14960378563504"><ele>268.0</ele><time>2026-05-01T12:47:24Z</time></trkpt><trkpt lat="39.04017634008453" lon="16.149452125655966"><ele>269.5</ele><time>2026-05-01T12:47:25Z</time></trkpt><trkpt lat="39.04021349890929" lon="16.14929956194256"><ele>271.0</ele><time>2026-05-01T12:47:26Z</time></trkpt><trkpt lat="39.04023618271124" lon="16.14914695989232"><ele>270.8</ele><time>2026-05-01T12:47:27Z</time></trkpt><trkpt lat="39.04024810684562" lon="16.1490074323396"><ele>270.6</ele><time>2026-05-01T12:47:28Z</time></trkpt><trkpt lat="39.04026364587316" lon="16.148905345168725"><ele>270.4</ele><time>2026-05-01T12:47:29Z</time></trkpt><trkpt lat="39.04035020926109" lon="16.14882749548944"><ele>270.2</ele><time>2026-05-01T12:47:31Z</time></trkpt><trkpt lat="39.040447589135624" lon="16.148914881839303"><ele>270.0</ele><time>2026-05-01T12:47:33Z</time></trkpt><trkpt lat="39.040450098608574" lon="16.14900550456799"><ele>270.1666666666667</ele><time>2026-05-01T12:47:34Z</time></trkpt><trkpt lat="39.04039494609825" lon="16.149079730136343"><ele>270.3333333333333</ele><time>2026-05-01T12:47:35Z</time></trkpt><trkpt lat="39.040369405764515" lon="16.149177659723712"><ele>270.5</ele><time>2026-05-01T12:47:36Z</time></trkpt><trkpt lat="39.0403273806445" lon="16.149283932121183"><ele>270.66666666666663</ele><time>2026-05-01T12:47:37Z</time></trkpt><trkpt lat="39.04030261247645" lon="16.149403401783"><ele>270.8333333333333</ele><time>2026-05-01T12:47:38Z</time></trkpt><trkpt lat="39.04029089907132" lon="16.149530645448866"><ele>271.0</ele><time>2026-05-01T12:47:39Z</time></trkpt><trkpt lat="39.04030561574346" lon="16.149662888702924"><ele>271.0</ele><time>2026-05-01T12:47:40Z</time></trkpt><trkpt lat="39.04034841239097" lon="16.149789700743597"><ele>271.0</ele><time>2026-05-01T12:47:41Z</time></trkpt><trkpt lat="39.040416112851695" lon="16.149905636433367"><ele>271.0</ele><time>2026-05-01T12:47:42Z</time></trkpt><trkpt lat="39.04050569179573" lon="16.150007347926746"><ele>271.0</ele><time>2026-05-01T12:47:43Z</time></trkpt><trkpt lat="39.040612765384054" lon="16.150114789604228"><ele>269.5</ele><time>2026-05-01T12:47:44Z</time></trkpt><trkpt lat="39.040709621899886" lon="16.15024669049583"><ele>268.0</ele><time>2026-05-01T12:47:45Z</time></trkpt><trkpt lat="39.04082080203242" lon="16.15037100448096"><ele>266.5</ele><time>2026-05-01T12:47:46Z</time></trkpt><trkpt lat="39.04094581425305" lon="16.15049145673528"><ele>265.0</ele><time>2026-05-01T12:47:47Z</time></trkpt><trkpt lat="39.04107545713935" lon="16.150587887337085"><ele>271.0</ele><time>2026-05-01T12:47:48Z</time></trkpt><trkpt lat="39.04119358620318" lon="16.150672155842113"><ele>277.0</ele><time>2026-05-01T12:47:49Z</time></trkpt><trkpt lat="39.04129441349456" lon="16.150736980141737"><ele>283.0</ele><time>2026-05-01T12:47:50Z</time></trkpt><trkpt lat="39.0413675447415" lon="16.15085503240865"><ele>289.0</ele><time>2026-05-01T12:47:51Z</time></trkpt><trkpt lat="39.041406120645185" lon="16.15100293644786"><ele>289.0</ele><time>2026-05-01T12:47:52Z</time></trkpt><trkpt lat="39.04141999541271" lon="16.151165137138857"><ele>289.0</ele><time>2026-05-01T12:47:53Z</time></trkpt><trkpt lat="39.04144618133837" lon="16.15131748931921"><ele>289.0</ele><time>2026-05-01T12:47:54Z</time></trkpt><trkpt lat="39.04149283150366" lon="16.151462339975822"><ele>289.0</ele><time>2026-05-01T12:47:55Z</time></trkpt><trkpt lat="39.04154132406266" lon="16.15161125604488"><ele>286.0</ele><time>2026-05-01T12:47:56Z</time></trkpt><trkpt lat="39.04158539655647" lon="16.15176450144455"><ele>283.0</ele><time>2026-05-01T12:47:57Z</time></trkpt><trkpt lat="39.04162760393902" lon="16.151919640091553"><ele>280.0</ele><time>2026-05-01T12:47:58Z</time></trkpt><trkpt lat="39.041682438457144" lon="16.152066319629466"><ele>277.0</ele><time>2026-05-01T12:47:59Z</time></trkpt><trkpt lat="39.04175421382852" lon="16.152198781395704"><ele>281.75</ele><time>2026-05-01T12:48:00Z</time></trkpt><trkpt lat="39.04182528654575" lon="16.15232669455267"><ele>286.5</ele><time>2026-05-01T12:48:01Z</time></trkpt><trkpt lat="39.04186467467547" lon="16.152475137803027"><ele>291.25</ele><time>2026-05-01T12:48:02Z</time></trkpt><trkpt lat="39.04186140920457" lon="16.15263916740052"><ele>296.0</ele><time>2026-05-01T12:48:03Z</time></trkpt><trkpt lat="39.04183636866273" lon="16.152801746925107"><ele>296.0</ele><time>2026-05-01T12:48:04Z</time></trkpt><trkpt lat="39.04182220350053" lon="16.152954435969573"><ele>296.0</ele><time>2026-05-01T12:48:05Z</time></trkpt><trkpt lat="39.041820433092276" lon="16.15311477767661"><ele>296.0</ele><time>2026-05-01T12:48:06Z</time></trkpt><trkpt lat="39.041829132976126" lon="16.15327861407539"><ele>296.0</ele><time>2026-05-01T12:48:07Z</time></trkpt><trkpt lat="39.04186042684548" lon="16.153437750989298"><ele>296.0</ele><time>2026-05-01T12:48:08Z</time></trkpt><trkpt lat="39.0419037745101" lon="16.153593374776065"><ele>296.0</ele><time>2026-05-01T12:48:09Z</time></trkpt><trkpt lat="39.04195130086514" lon="16.153748385980983"><ele>296.0</ele><time>2026-05-01T12:48:10Z</time></trkpt><trkpt lat="39.041975473443344" lon="16.15391338128487"><ele>296.0</ele><time>2026-05-01T12:48:11Z</time></trkpt><trkpt lat="39.04197939379071" lon="16.154078346822608"><ele>296.2</ele><time>2026-05-01T12:48:12Z</time></trkpt><trkpt lat="39.04199304188831" lon="16.15423841728635"><ele>296.40000000000003</ele><time>2026-05-01T12:48:13Z</time></trkpt><trkpt lat="39.042024351782175" lon="16.154380337048664"><ele>296.6</ele><time>2026-05-01T12:48:14Z</time></trkpt><trkpt lat="39.04204802099836" lon="16.154511502882"><ele>296.8</ele><time>2026-05-01T12:48:15Z</time></trkpt><trkpt lat="39.04204638448066" lon="16.15464624997631"><ele>297.0</ele><time>2026-05-01T12:48:16Z</time></trkpt><trkpt lat="39.04202932532162" lon="16.154778566258617"><ele>298.2</ele><time>2026-05-01T12:48:17Z</time></trkpt><trkpt lat="39.042000628352675" lon="16.15490296227467"><ele>299.4</ele><time>2026-05-01T12:48:18Z</time></trkpt><trkpt lat="39.04197497338522" lon="16.155026584087803"><ele>300.6</ele><time>2026-05-01T12:48:19Z</time></trkpt><trkpt lat="39.0419636956801" lon="16.155155136188217"><ele>301.8</ele><time>2026-05-01T12:48:20Z</time></trkpt><trkpt lat="39.04196786343178" lon="16.155293165626933"><ele>303.0</ele><time>2026-05-01T12:48:21Z</time></trkpt><trkpt lat="39.041985172214495" lon="16.155435316285786"><ele>303.0</ele><time>2026-05-01T12:48:22Z</time></trkpt><trkpt lat="39.041998735620965" lon="16.15558072884855"><ele>303.0</ele><time>2026-05-01T12:48:23Z</time></trkpt><trkpt lat="39.04201302408122" lon="16.155702874540296"><ele>303.0</ele><time>2026-05-01T12:48:24Z</time></trkpt><trkpt lat="39.042035911910126" lon="16.155797904398113"><ele>303.0</ele><time>2026-05-01T12:48:25Z</time></trkpt><trkpt lat="39.04212873212721" lon="16.155855430434002"><ele>303.0</ele><time>2026-05-01T12:48:27Z</time></trkpt><trkpt lat="39.042209111128265" lon="16.155738354924114"><ele>303.0</ele><time>2026-05-01T12:48:29Z</time></trkpt><trkpt lat="39.04222064826837" lon="16.15565086235362"><ele>303.0</ele><time>2026-05-01T12:48:30Z</time></trkpt><trkpt lat="39.042213783649345" lon="16.155549272785407"><ele>303.0</ele><time>2026-05-01T12:48:31Z</time></trkpt><trkpt lat="39.04218628623354" lon="16.155431178107996"><ele>303.0</ele><time>2026-05-01T12:48:32Z</time></trkpt><trkpt lat="39.04218586337037" lon="16.15530427064264"><ele>303.0</ele><time>2026-05-01T12:48:33Z</time></trkpt><trkpt lat="39.042191301342974" lon="16.155164957591644"><ele>303.0</ele><time>2026-05-01T12:48:34Z</time></trkpt><trkpt lat="39.0422391559824" lon="16.155030893987927"><ele>303.0</ele><time>2026-05-01T12:48:35Z</time></trkpt><trkpt lat="39.042295824620616" lon="16.154901129650405"><ele>303.0</ele><time>2026-05-01T12:48:36Z</time></trkpt><trkpt lat="39.04234362079209" lon="16.15476721572617"><ele>303.0</ele><time>2026-05-01T12:48:37Z</time></trkpt><trkpt lat="39.04238924600326" lon="16.15462031267974"><ele>301.5</ele><time>2026-05-01T12:48:38Z</time></trkpt><trkpt lat="39.04243142640636" lon="16.154468792541376"><ele>300.0</ele><time>2026-05-01T12:48:39Z</time></trkpt><trkpt lat="39.042415975966705" lon="16.15429660274814"><ele>298.5</ele><time>2026-05-01T12:48:40Z</time></trkpt><trkpt lat="39.04243401471389" lon="16.154118499406042"><ele>297.0</ele><time>2026-05-01T12:48:41Z</time></trkpt><trkpt lat="39.04246064837436" lon="16.153938644189044"><ele>305.5</ele><time>2026-05-01T12:48:42Z</time></trkpt><trkpt lat="39.04249124089645" lon="16.15375106894678"><ele>314.0</ele><time>2026-05-01T12:48:43Z</time></trkpt><trkpt lat="39.04253878489586" lon="16.153575236784665"><ele>322.5</ele><time>2026-05-01T12:48:44Z</time></trkpt><trkpt lat="39.04257104625998" lon="16.153397760440026"><ele>331.0</ele><time>2026-05-01T12:48:45Z</time></trkpt><trkpt lat="39.04258819925958" lon="16.153225477041012"><ele>330.0</ele><time>2026-05-01T12:48:46Z</time></trkpt><trkpt lat="39.042630566186496" lon="16.153063187162036"><ele>329.0</ele><time>2026-05-01T12:48:47Z</time></trkpt><trkpt lat="39.042675330728315" lon="16.15290282316484"><ele>328.0</ele><time>2026-05-01T12:48:48Z</time></trkpt><trkpt lat="39.042748119707866" lon="16.152764069154973"><ele>327.0</ele><time>2026-05-01T12:48:49Z</time></trkpt><trkpt lat="39.042812225702285" lon="16.152626846864155"><ele>327.0</ele><time>2026-05-01T12:48:50Z</time></trkpt><trkpt lat="39.04288882216562" lon="16.152510591346118"><ele>327.0</ele><time>2026-05-01T12:48:51Z</time></trkpt><trkpt lat="39.04296985394066" lon="16.152435066560905"><ele>327.0</ele><time>2026-05-01T12:48:52Z</time></trkpt><trkpt lat="39.04304405408467" lon="16.152430325245366"><ele>327.0</ele><time>2026-05-01T12:48:53Z</time></trkpt><trkpt lat="39.04310937575989" lon="16.152430526170257"><ele>327.0</ele><time>2026-05-01T12:48:54Z</time></trkpt><trkpt lat="39.043158415456716" lon="16.15253413973709"><ele>327.0</ele><time>2026-05-01T12:48:55Z</time></trkpt><trkpt lat="39.0432464005253" lon="16.152595352639157"><ele>327.0</ele><time>2026-05-01T12:48:56Z</time></trkpt><trkpt lat="39.04333005065207" lon="16.152682704912078"><ele>327.0</ele><time>2026-05-01T12:48:57Z</time></trkpt><trkpt lat="39.04342406428041" lon="16.152734858189657"><ele>327.0</ele><time>2026-05-01T12:48:58Z</time></trkpt><trkpt lat="39.04349420297564" lon="16.15281137298621"><ele>327.0</ele><time>2026-05-01T12:48:59Z</time></trkpt><trkpt lat="39.04351375142522" lon="16.15293206557948"><ele>328.8</ele><time>2026-05-01T12:49:00Z</time></trkpt><trkpt lat="39.04352638077597" lon="16.15304984457029"><ele>330.6</ele><time>2026-05-01T12:49:01Z</time></trkpt><trkpt lat="39.04354801609262" lon="16.153196092573157"><ele>332.40000000000003</ele><time>2026-05-01T12:49:02Z</time></trkpt><trkpt lat="39.04355602794165" lon="16.153341214835837"><ele>334.20000000000005</ele><time>2026-05-01T12:49:03Z</time></trkpt><trkpt lat="39.04355691573602" lon="16.15348824564889"><ele>336.0</ele><time>2026-05-01T12:49:04Z</time></trkpt><trkpt lat="39.04356502911526" lon="16.153630778722487"><ele>339.5</ele><time>2026-05-01T12:49:05Z</time></trkpt><trkpt lat="39.04359387951695" lon="16.153778884047096"><ele>343.0</ele><time>2026-05-01T12:49:06Z</time></trkpt><trkpt lat="39.04365060406674" lon="16.153916837245365"><ele>346.5</ele><time>2026-05-01T12:49:07Z</time></trkpt><trkpt lat="39.04372084991504" lon="16.154053031249074"><ele>350.0</ele><time>2026-05-01T12:49:08Z</time></trkpt><trkpt lat="39.04380766548441" lon="16.154177955492155"><ele>352.0</ele><time>2026-05-01T12:49:09Z</time></trkpt><trkpt lat="39.043903617429145" lon="16.15429086641721"><ele>354.0</ele><time>2026-05-01T12:49:10Z</time></trkpt><trkpt lat="39.04397828050753" lon="16.154414638853424"><ele>356.0</ele><time>2026-05-01T12:49:11Z</time></trkpt><trkpt lat="39.04404338397277" lon="16.154544709607833"><ele>358.0</ele><time>2026-05-01T12:49:12Z</time></trkpt><trkpt lat="39.04407174286917" lon="16.154695616695466"><ele>358.0</ele><time>2026-05-01T12:49:13Z</time></trkpt><trkpt lat="39.044086596548446" lon="16.154849420087004"><ele>358.0</ele><time>2026-05-01T12:49:14Z</time></trkpt><trkpt lat="39.0441117829832" lon="16.154995571338002"><ele>358.0</ele><time>2026-05-01T12:49:15Z</time></trkpt><trkpt lat="39.044117176201304" lon="16.155140896501845"><ele>358.0</ele><time>2026-05-01T12:49:16Z</time></trkpt><trkpt lat="39.04412964643757" lon="16.15527274449643"><ele>357.4</ele><time>2026-05-01T12:49:17Z</time></trkpt><trkpt lat="39.04416075383388" lon="16.15539294441962"><ele>356.79999999999995</ele><time>2026-05-01T12:49:18Z</time></trkpt><trkpt lat="39.044213965432206" lon="16.155501092476086"><ele>356.2</ele><time>2026-05-01T12:49:19Z</time></trkpt><trkpt lat="39.04427965099347" lon="16.155594467721627"><ele>355.6</ele><time>2026-05-01T12:49:20Z</time></trkpt><trkpt lat="39.044347923482455" lon="16.1556811636358"><ele>355.0</ele><time>2026-05-01T12:49:21Z</time></trkpt><trkpt lat="39.044411125715165" lon="16.155766305410218"><ele>358.4</ele><time>2026-05-01T12:49:22Z</time></trkpt><trkpt lat="39.04446811492489" lon="16.15585501105298"><ele>361.8</ele><time>2026-05-01T12:49:23Z</time></trkpt><trkpt lat="39.04453229552009" lon="16.15593654262871"><ele>365.20000000000005</ele><time>2026-05-01T12:49:24Z</time></trkpt><trkpt lat="39.0446031319443" lon="16.156021144383935"><ele>368.6</ele><time>2026-05-01T12:49:25Z</time></trkpt><trkpt lat="39.04465948364168" lon="16.156119342368513"><ele>372.0</ele><time>2026-05-01T12:49:26Z</time></trkpt><trkpt lat="39.04473880627499" lon="16.156201855020733"><ele>372.0</ele><time>2026-05-01T12:49:27Z</time></trkpt><trkpt lat="39.044802106971844" lon="16.156301545639042"><ele>372.0</ele><time>2026-05-01T12:49:28Z</time></trkpt><trkpt lat="39.04486679213015" lon="16.156396457641787"><ele>372.0</ele><time>2026-05-01T12:49:29Z</time></trkpt><trkpt lat="39.0449379999241" lon="16.156481314192934"><ele>372.0</ele><time>2026-05-01T12:49:30Z</time></trkpt><trkpt lat="39.04501099411313" lon="16.15656713482212"><ele>372.0</ele><time>2026-05-01T12:49:31Z</time></trkpt><trkpt lat="39.0450947689125" lon="16.15663636428837"><ele>372.6</ele><time>2026-05-01T12:49:32Z</time></trkpt><trkpt lat="39.04518694556142" lon="16.156689408002148"><ele>373.20000000000005</ele><time>2026-05-01T12:49:33Z</time></trkpt><trkpt lat="39.04528398502117" lon="16.156746037961078"><ele>373.8</ele><time>2026-05-01T12:49:34Z</time></trkpt><trkpt lat="39.04537612254074" lon="16.156807563824103"><ele>374.4</ele><time>2026-05-01T12:49:35Z</time></trkpt><trkpt lat="39.04547323712622" lon="16.15687903955057"><ele>375.0</ele><time>2026-05-01T12:49:36Z</time></trkpt><trkpt lat="39.04556616395257" lon="16.156956840021287"><ele>375.0</ele><time>2026-05-01T12:49:37Z</time></trkpt><trkpt lat="39.04566727585776" lon="16.157023309062975"><ele>375.0</ele><time>2026-05-01T12:49:38Z</time></trkpt><trkpt lat="39.04576934324412" lon="16.15709184774374"><ele>375.0</ele><time>2026-05-01T12:49:39Z</time></trkpt><trkpt lat="39.04587265512525" lon="16.157154324651287"><ele>375.0</ele><time>2026-05-01T12:49:40Z</time></trkpt><trkpt lat="39.04597064169792" lon="16.157220957250864"><ele>376.8</ele><time>2026-05-01T12:49:41Z</time></trkpt><trkpt lat="39.04603596992727" lon="16.157327585826007"><ele>378.6</ele><time>2026-05-01T12:49:42Z</time></trkpt><trkpt lat="39.046091829448564" lon="16.157443738289757"><ele>380.4</ele><time>2026-05-01T12:49:43Z</time></trkpt><trkpt lat="39.04613087369255" lon="16.157569682253076"><ele>382.2</ele><time>2026-05-01T12:49:44Z</time></trkpt><trkpt lat="39.046175801842836" lon="16.15767782001526"><ele>384.0</ele><time>2026-05-01T12:49:45Z</time></trkpt><trkpt lat="39.046186586000886" lon="16.157805048916984"><ele>384.0</ele><time>2026-05-01T12:49:46Z</time></trkpt><trkpt lat="39.046181392896294" lon="16.1579439686087"><ele>384.0</ele><time>2026-05-01T12:49:47Z</time></trkpt><trkpt lat="39.046172206469045" lon="16.1580864170433"><ele>384.0</ele><time>2026-05-01T12:49:48Z</time></trkpt><trkpt lat="39.04616932724153" lon="16.158232590591343"><ele>384.0</ele><time>2026-05-01T12:49:49Z</time></trkpt><trkpt lat="39.04617593089008" lon="16.15837938529629"><ele>384.0</ele><time>2026-05-01T12:49:50Z</time></trkpt><trkpt lat="39.04619645801946" lon="16.15852390439721"><ele>387.5</ele><time>2026-05-01T12:49:51Z</time></trkpt><trkpt lat="39.04624187938141" lon="16.158659971191295"><ele>391.0</ele><time>2026-05-01T12:49:52Z</time></trkpt><trkpt lat="39.04631098291511" lon="16.158777933389516"><ele>394.5</ele><time>2026-05-01T12:49:53Z</time></trkpt><trkpt lat="39.0463894039253" lon="16.158878365130946"><ele>398.0</ele><time>2026-05-01T12:49:54Z</time></trkpt><trkpt lat="39.046469551690436" lon="16.158980045592433"><ele>397.75</ele><time>2026-05-01T12:49:55Z</time></trkpt><trkpt lat="39.04653487435256" lon="16.159096282194167"><ele>397.5</ele><time>2026-05-01T12:49:56Z</time></trkpt><trkpt lat="39.04658938638639" lon="16.159225365564037"><ele>397.25</ele><time>2026-05-01T12:49:57Z</time></trkpt><trkpt lat="39.04662521725544" lon="16.159362868048298"><ele>397.0</ele><time>2026-05-01T12:49:58Z</time></trkpt><trkpt lat="39.046651598002214" lon="16.159505169015986"><ele>395.25</ele><time>2026-05-01T12:49:59Z</time></trkpt><trkpt lat="39.04668734580055" lon="16.159642426263666"><ele>393.5</ele><time>2026-05-01T12:50:00Z</time></trkpt><trkpt lat="39.04673865913563" lon="16.159772086838522"><ele>391.75</ele><time>2026-05-01T12:50:01Z</time></trkpt><trkpt lat="39.04680649958366" lon="16.159894075277272"><ele>390.0</ele><time>2026-05-01T12:50:02Z</time></trkpt><trkpt lat="39.04688141870797" lon="16.160007017842663"><ele>390.0</ele><time>2026-05-01T12:50:03Z</time></trkpt><trkpt lat="39.04695785838332" lon="16.16011916214509"><ele>390.0</ele><time>2026-05-01T12:50:04Z</time></trkpt><trkpt lat="39.04702949044144" lon="16.160232422709377"><ele>390.0</ele><time>2026-05-01T12:50:05Z</time></trkpt><trkpt lat="39.0470966152473" lon="16.160349998222202"><ele>390.0</ele><time>2026-05-01T12:50:06Z</time></trkpt><trkpt lat="39.04715790359442" lon="16.160472589624796"><ele>390.0</ele><time>2026-05-01T12:50:07Z</time></trkpt><trkpt lat="39.04720575080064" lon="16.160597239072903"><ele>390.0</ele><time>2026-05-01T12:50:08Z</time></trkpt><trkpt lat="39.047240489095195" lon="16.16072167392432"><ele>390.0</ele><time>2026-05-01T12:50:09Z</time></trkpt><trkpt lat="39.04724699962538" lon="16.16084788432293"><ele>390.0</ele><time>2026-05-01T12:50:10Z</time></trkpt><trkpt lat="39.04723111200952" lon="16.160987515478812"><ele>390.0</ele><time>2026-05-01T12:50:11Z</time></trkpt><trkpt lat="39.04720353215216" lon="16.161127422843943"><ele>393.75</ele><time>2026-05-01T12:50:12Z</time></trkpt><trkpt lat="39.047182685728465" lon="16.161263595430437"><ele>397.5</ele><time>2026-05-01T12:50:13Z</time></trkpt><trkpt lat="39.04718859001987" lon="16.16141211787472"><ele>401.25</ele><time>2026-05-01T12:50:14Z</time></trkpt><trkpt lat="39.04721218093234" lon="16.161563355598414"><ele>405.0</ele><time>2026-05-01T12:50:15Z</time></trkpt><trkpt lat="39.04724103290888" lon="16.16171546215507"><ele>407.0</ele><time>2026-05-01T12:50:16Z</time></trkpt><trkpt lat="39.04727232530763" lon="16.161871999504317"><ele>409.0</ele><time>2026-05-01T12:50:17Z</time></trkpt><trkpt lat="39.047298279342954" lon="16.16202752650137"><ele>411.0</ele><time>2026-05-01T12:50:18Z</time></trkpt><trkpt lat="39.04732208522315" lon="16.16218595080118"><ele>413.0</ele><time>2026-05-01T12:50:19Z</time></trkpt><trkpt lat="39.04734420385592" lon="16.162345321777234"><ele>415.0</ele><time>2026-05-01T12:50:20Z</time></trkpt><trkpt lat="39.04736845565504" lon="16.162495130544283"><ele>417.0</ele><time>2026-05-01T12:50:21Z</time></trkpt><trkpt lat="39.04740177095672" lon="16.162650086893393"><ele>419.0</ele><time>2026-05-01T12:50:22Z</time></trkpt><trkpt lat="39.04743853155184" lon="16.162800985549012"><ele>421.0</ele><time>2026-05-01T12:50:23Z</time></trkpt><trkpt lat="39.047469911112735" lon="16.16293940955944"><ele>417.6666666666667</ele><time>2026-05-01T12:50:24Z</time></trkpt><trkpt lat="39.04749945574944" lon="16.163067448261316"><ele>414.33333333333337</ele><time>2026-05-01T12:50:25Z</time></trkpt><trkpt lat="39.04751663024461" lon="16.163188445187465"><ele>411.0</ele><time>2026-05-01T12:50:26Z</time></trkpt><trkpt lat="39.04752372947145" lon="16.16330047457774"><ele>407.66666666666663</ele><time>2026-05-01T12:50:27Z</time></trkpt><trkpt lat="39.04752585901445" lon="16.16340346836341"><ele>404.3333333333333</ele><time>2026-05-01T12:50:28Z</time></trkpt><trkpt lat="39.04751737396601" lon="16.163498500721115"><ele>401.0</ele><time>2026-05-01T12:50:29Z</time></trkpt><trkpt lat="39.04749148299022" lon="16.163593168672325"><ele>404.49999999999994</ele><time>2026-05-01T12:50:30Z</time></trkpt><trkpt lat="39.04745586170414" lon="16.163684266385996"><ele>408.0</ele><time>2026-05-01T12:50:31Z</time></trkpt><trkpt lat="39.047414359800996" lon="16.16376820331857"><ele>411.5</ele><time>2026-05-01T12:50:32Z</time></trkpt><trkpt lat="39.047380345834576" lon="16.16386540524281"><ele>415.0</ele><time>2026-05-01T12:50:33Z</time></trkpt><trkpt lat="39.04736238936953" lon="16.163969671145022"><ele>418.49999999999994</ele><time>2026-05-01T12:50:34Z</time></trkpt><trkpt lat="39.04735622421978" lon="16.164080873068595"><ele>422.0</ele><time>2026-05-01T12:50:35Z</time></trkpt><trkpt lat="39.04735021716664" lon="16.164187906518638"><ele>422.0</ele><time>2026-05-01T12:50:36Z</time></trkpt><trkpt lat="39.047336347212315" lon="16.164311050774845"><ele>422.0</ele><time>2026-05-01T12:50:37Z</time></trkpt><trkpt lat="39.047314001424425" lon="16.16442666682643"><ele>422.0</ele><time>2026-05-01T12:50:38Z</time></trkpt><trkpt lat="39.047275117913266" lon="16.16453849493994"><ele>422.0</ele><time>2026-05-01T12:50:39Z</time></trkpt><trkpt lat="39.04722197265515" lon="16.164644895835224"><ele>422.0</ele><time>2026-05-01T12:50:40Z</time></trkpt><trkpt lat="39.047154168575084" lon="16.164743810052112"><ele>422.0</ele><time>2026-05-01T12:50:41Z</time></trkpt><trkpt lat="39.04707935656152" lon="16.16483557576303"><ele>422.0</ele><time>2026-05-01T12:50:42Z</time></trkpt><trkpt lat="39.046988432466584" lon="16.164904684528526"><ele>422.0</ele><time>2026-05-01T12:50:43Z</time></trkpt><trkpt lat="39.04689421800648" lon="16.164966824871946"><ele>422.0</ele><time>2026-05-01T12:50:44Z</time></trkpt><trkpt lat="39.04680255149161" lon="16.165033007407338"><ele>422.0</ele><time>2026-05-01T12:50:45Z</time></trkpt><trkpt lat="39.04671946632046" lon="16.16511601438388"><ele>422.40000000000003</ele><time>2026-05-01T12:50:46Z</time></trkpt><trkpt lat="39.04664719417491" lon="16.165212189187276"><ele>422.8</ele><time>2026-05-01T12:50:47Z</time></trkpt><trkpt lat="39.04658471618305" lon="16.165317521178146"><ele>423.2</ele><time>2026-05-01T12:50:48Z</time></trkpt><trkpt lat="39.04653388008353" lon="16.16544045802269"><ele>423.6</ele><time>2026-05-01T12:50:49Z</time></trkpt><trkpt lat="39.0464925761758" lon="16.16557633898479"><ele>424.0</ele><time>2026-05-01T12:50:50Z</time></trkpt><trkpt lat="39.04646014263088" lon="16.165716704259744"><ele>424.0</ele><time>2026-05-01T12:50:51Z</time></trkpt><trkpt lat="39.04643477560933" lon="16.165853935380035"><ele>424.0</ele><time>2026-05-01T12:50:52Z</time></trkpt><trkpt lat="39.0464221528529" lon="16.16599038997388"><ele>424.0</ele><time>2026-05-01T12:50:53Z</time></trkpt><trkpt lat="39.046432613006054" lon="16.16612684298007"><ele>424.0</ele><time>2026-05-01T12:50:54Z</time></trkpt><trkpt lat="39.04646931233787" lon="16.16625713622748"><ele>424.0</ele><time>2026-05-01T12:50:55Z</time></trkpt><trkpt lat="39.046532901224396" lon="16.16638040034685"><ele>424.0</ele><time>2026-05-01T12:50:56Z</time></trkpt><trkpt lat="39.04661046048176" lon="16.166502224857037"><ele>424.0</ele><time>2026-05-01T12:50:57Z</time></trkpt><trkpt lat="39.046674356870774" lon="16.166641036206684"><ele>424.0</ele><time>2026-05-01T12:50:58Z</time></trkpt><trkpt lat="39.046753981430335" lon="16.166779422393184"><ele>424.0</ele><time>2026-05-01T12:50:59Z</time></trkpt><trkpt lat="39.046846697671526" lon="16.166906271547525"><ele>424.25</ele><time>2026-05-01T12:51:00Z</time></trkpt><trkpt lat="39.046925723116054" lon="16.167051564221204"><ele>424.5</ele><time>2026-05-01T12:51:01Z</time></trkpt><trkpt lat="39.04700498044013" lon="16.16719901799965"><ele>424.75</ele><time>2026-05-01T12:51:02Z</time></trkpt><trkpt lat="39.047082219686196" lon="16.167348575025752"><ele>425.0</ele><time>2026-05-01T12:51:03Z</time></trkpt><trkpt lat="39.04713520391227" lon="16.167518253275176"><ele>423.25</ele><time>2026-05-01T12:51:04Z</time></trkpt><trkpt lat="39.047201841790546" lon="16.167672345930196"><ele>421.5</ele><time>2026-05-01T12:51:05Z</time></trkpt><trkpt lat="39.04728609537242" lon="16.167809190728597"><ele>419.75</ele><time>2026-05-01T12:51:06Z</time></trkpt><trkpt lat="39.047365310524164" lon="16.167943158984308"><ele>418.0</ele><time>2026-05-01T12:51:07Z</time></trkpt><trkpt lat="39.04746261901396" lon="16.168057358558084"><ele>418.0</ele><time>2026-05-01T12:51:08Z</time></trkpt><trkpt lat="39.04756968027436" lon="16.168156603835225"><ele>418.0</ele><time>2026-05-01T12:51:09Z</time></trkpt><trkpt lat="39.04768176777785" lon="16.168250247131663"><ele>418.0</ele><time>2026-05-01T12:51:10Z</time></trkpt><trkpt lat="39.047791517529035" lon="16.168340623168667"><ele>418.0</ele><time>2026-05-01T12:51:11Z</time></trkpt><trkpt lat="39.04790669448742" lon="16.168430757825007"><ele>420.25</ele><time>2026-05-01T12:51:12Z</time></trkpt><trkpt lat="39.048012350689866" lon="16.168530125437442"><ele>422.5</ele><time>2026-05-01T12:51:13Z</time></trkpt><trkpt lat="39.04813063142936" lon="16.168614345914516"><ele>424.75</ele><time>2026-05-01T12:51:14Z</time></trkpt><trkpt lat="39.04826372449453" lon="16.16863661401461"><ele>427.0</ele><time>2026-05-01T12:51:15Z</time></trkpt><trkpt lat="39.048393764371305" lon="16.168656800766485"><ele>427.0</ele><time>2026-05-01T12:51:16Z</time></trkpt><trkpt lat="39.0485259210189" lon="16.168664754859826"><ele>427.0</ele><time>2026-05-01T12:51:17Z</time></trkpt><trkpt lat="39.04865377246407" lon="16.16866574433407"><ele>427.0</ele><time>2026-05-01T12:51:18Z</time></trkpt><trkpt lat="39.04877886005851" lon="16.168671600992464"><ele>427.0</ele><time>2026-05-01T12:51:19Z</time></trkpt><trkpt lat="39.04890196126401" lon="16.16868899228683"><ele>427.0</ele><time>2026-05-01T12:51:20Z</time></trkpt><trkpt lat="39.049022740687725" lon="16.16872912275806"><ele>427.0</ele><time>2026-05-01T12:51:21Z</time></trkpt><trkpt lat="39.0491363182457" lon="16.168794132677405"><ele>427.0</ele><time>2026-05-01T12:51:22Z</time></trkpt><trkpt lat="39.049243903833094" lon="16.16887367606895"><ele>427.0</ele><time>2026-05-01T12:51:23Z</time></trkpt><trkpt lat="39.04935782183867" lon="16.168945535192563"><ele>428.0</ele><time>2026-05-01T12:51:24Z</time></trkpt><trkpt lat="39.049475105861525" lon="16.169000706461066"><ele>429.0</ele><time>2026-05-01T12:51:25Z</time></trkpt><trkpt lat="39.04959982712071" lon="16.169030479202007"><ele>430.0</ele><time>2026-05-01T12:51:26Z</time></trkpt><trkpt lat="39.049725286546334" lon="16.16903343945544"><ele>431.0</ele><time>2026-05-01T12:51:27Z</time></trkpt><trkpt lat="39.049850091952806" lon="16.1690129170603"><ele>433.25</ele><time>2026-05-01T12:51:28Z</time></trkpt><trkpt lat="39.04997262594847" lon="16.168978166905877"><ele>435.5</ele><time>2026-05-01T12:51:29Z</time></trkpt><trkpt lat="39.05009463271725" lon="16.16894144875654"><ele>437.75</ele><time>2026-05-01T12:51:30Z</time></trkpt><trkpt lat="39.05021612394835" lon="16.168909196956808"><ele>440.0</ele><time>2026-05-01T12:51:31Z</time></trkpt><trkpt lat="39.05033088796194" lon="16.16885492309976"><ele>440.0</ele><time>2026-05-01T12:51:32Z</time></trkpt><trkpt lat="39.05045943167774" lon="16.16887853967013"><ele>440.0</ele><time>2026-05-01T12:51:33Z</time></trkpt><trkpt lat="39.050570748444585" lon="16.168903051922374"><ele>440.0</ele><time>2026-05-01T12:51:34Z</time></trkpt><trkpt lat="39.05067275426845" lon="16.16895983043968"><ele>440.0</ele><time>2026-05-01T12:51:35Z</time></trkpt><trkpt lat="39.05076954412773" lon="16.169045737687835"><ele>442.0</ele><time>2026-05-01T12:51:36Z</time></trkpt><trkpt lat="39.050867027594386" lon="16.169133580255036"><ele>444.0</ele><time>2026-05-01T12:51:37Z</time></trkpt><trkpt lat="39.05097083467496" lon="16.16920775055869"><ele>446.0</ele><time>2026-05-01T12:51:38Z</time></trkpt><trkpt lat="39.051077617247515" lon="16.169299557151216"><ele>448.0</ele><time>2026-05-01T12:51:39Z</time></trkpt><trkpt lat="39.05118739410772" lon="16.169398012169925"><ele>448.0</ele><time>2026-05-01T12:51:40Z</time></trkpt><trkpt lat="39.05130039292495" lon="16.1694962601698"><ele>448.0</ele><time>2026-05-01T12:51:41Z</time></trkpt><trkpt lat="39.051413002258265" lon="16.169595444603075"><ele>448.0</ele><time>2026-05-01T12:51:42Z</time></trkpt><trkpt lat="39.051516076287754" lon="16.16968880166984"><ele>448.0</ele><time>2026-05-01T12:51:43Z</time></trkpt><trkpt lat="39.0516009132239" lon="16.16979574172907"><ele>448.5</ele><time>2026-05-01T12:51:44Z</time></trkpt><trkpt lat="39.051655380358284" lon="16.169922906366217"><ele>449.0</ele><time>2026-05-01T12:51:45Z</time></trkpt><trkpt lat="39.051688960000114" lon="16.170067290241196"><ele>449.5</ele><time>2026-05-01T12:51:46Z</time></trkpt><trkpt lat="39.05172619235399" lon="16.17022289296443"><ele>450.0</ele><time>2026-05-01T12:51:47Z</time></trkpt><trkpt lat="39.05176702181319" lon="16.170383682102493"><ele>450.0</ele><time>2026-05-01T12:51:48Z</time></trkpt><trkpt lat="39.0518091305392" lon="16.17055111350409"><ele>450.0</ele><time>2026-05-01T12:51:49Z</time></trkpt><trkpt lat="39.051848197566144" lon="16.1707229279856"><ele>450.0</ele><time>2026-05-01T12:51:50Z</time></trkpt><trkpt lat="39.05188612283957" lon="16.17089756141863"><ele>450.0</ele><time>2026-05-01T12:51:51Z</time></trkpt><trkpt lat="39.05191506503218" lon="16.171076264341146"><ele>452.0</ele><time>2026-05-01T12:51:52Z</time></trkpt><trkpt lat="39.05192952430231" lon="16.171259195620515"><ele>454.0</ele><time>2026-05-01T12:51:53Z</time></trkpt><trkpt lat="39.05193224913364" lon="16.171447994758307"><ele>456.0</ele><time>2026-05-01T12:51:54Z</time></trkpt><trkpt lat="39.05191308513112" lon="16.171646694857195"><ele>458.0</ele><time>2026-05-01T12:51:55Z</time></trkpt><trkpt lat="39.05189849502844" lon="16.171843057549875"><ele>459.3333333333333</ele><time>2026-05-01T12:51:56Z</time></trkpt><trkpt lat="39.05191067929941" lon="16.172037628171537"><ele>460.66666666666663</ele><time>2026-05-01T12:51:57Z</time></trkpt><trkpt lat="39.05198069840085" lon="16.172226968870284"><ele>462.0</ele><time>2026-05-01T12:51:58Z</time></trkpt><trkpt lat="39.051992616658055" lon="16.172427239032544"><ele>462.33333333333337</ele><time>2026-05-01T12:51:59Z</time></trkpt><trkpt lat="39.05200428758454" lon="16.17263527781628"><ele>462.6666666666667</ele><time>2026-05-01T12:52:00Z</time></trkpt><trkpt lat="39.052015079334396" lon="16.17284814846816"><ele>463.0</ele><time>2026-05-01T12:52:01Z</time></trkpt><trkpt lat="39.052030284838104" lon="16.17306392322947"><ele>465.0</ele><time>2026-05-01T12:52:02Z</time></trkpt><trkpt lat="39.05204358682866" lon="16.173273428770816"><ele>467.0</ele><time>2026-05-01T12:52:03Z</time></trkpt><trkpt lat="39.052056702262135" lon="16.17348382566063"><ele>469.0</ele><time>2026-05-01T12:52:04Z</time></trkpt><trkpt lat="39.05207441394225" lon="16.173692666494212"><ele>469.0</ele><time>2026-05-01T12:52:05Z</time></trkpt><trkpt lat="39.05208702150134" lon="16.173899634783965"><ele>469.0</ele><time>2026-05-01T12:52:06Z</time></trkpt><trkpt lat="39.05210216813732" lon="16.17410354742767"><ele>469.0</ele><time>2026-05-01T12:52:07Z</time></trkpt><trkpt lat="39.05211683292625" lon="16.174306969814175"><ele>471.6666666666667</ele><time>2026-05-01T12:52:08Z</time></trkpt><trkpt lat="39.05213143778881" lon="16.17450955852097"><ele>474.33333333333337</ele><time>2026-05-01T12:52:09Z</time></trkpt><trkpt lat="39.05214641364522" lon="16.174707354515284"><ele>477.0</ele><time>2026-05-01T12:52:10Z</time></trkpt><trkpt lat="39.05215238449091" lon="16.174905286028558"><ele>479.75</ele><time>2026-05-01T12:52:11Z</time></trkpt><trkpt lat="39.0521300988755" lon="16.17507699115997"><ele>482.5</ele><time>2026-05-01T12:52:12Z</time></trkpt><trkpt lat="39.052136901160395" lon="16.175247149367646"><ele>485.25</ele><time>2026-05-01T12:52:13Z</time></trkpt><trkpt lat="39.052142506612384" lon="16.17541711161734"><ele>488.0</ele><time>2026-05-01T12:52:14Z</time></trkpt><trkpt lat="39.05217688777736" lon="16.175580602779828"><ele>491.0</ele><time>2026-05-01T12:52:15Z</time></trkpt><trkpt lat="39.05223109234448" lon="16.175747024533116"><ele>494.0</ele><time>2026-05-01T12:52:16Z</time></trkpt><trkpt lat="39.05229634639352" lon="16.175904302743724"><ele>497.0</ele><time>2026-05-01T12:52:17Z</time></trkpt><trkpt lat="39.05236343210286" lon="16.17605345913837"><ele>500.0</ele><time>2026-05-01T12:52:18Z</time></trkpt><trkpt lat="39.05245376899256" lon="16.176184327840065"><ele>496.5</ele><time>2026-05-01T12:52:19Z</time></trkpt><trkpt lat="39.05257552419525" lon="16.176278326182278"><ele>493.0</ele><time>2026-05-01T12:52:20Z</time></trkpt><trkpt lat="39.05266402248518" lon="16.176400286962544"><ele>489.5</ele><time>2026-05-01T12:52:21Z</time></trkpt><trkpt lat="39.05274648473053" lon="16.176535704690316"><ele>486.0</ele><time>2026-05-01T12:52:22Z</time></trkpt><trkpt lat="39.05282869313866" lon="16.17667756884321"><ele>486.0</ele><time>2026-05-01T12:52:23Z</time></trkpt><trkpt lat="39.05291171937278" lon="16.17681736263743"><ele>486.0</ele><time>2026-05-01T12:52:24Z</time></trkpt><trkpt lat="39.05298470913974" lon="16.17696466927267"><ele>486.0</ele><time>2026-05-01T12:52:25Z</time></trkpt><trkpt lat="39.05306379900117" lon="16.177094992578734"><ele>486.0</ele><time>2026-05-01T12:52:26Z</time></trkpt><trkpt lat="39.053162422822275" lon="16.177200936283803"><ele>486.0</ele><time>2026-05-01T12:52:27Z</time></trkpt><trkpt lat="39.05328498648405" lon="16.177271077376684"><ele>486.0</ele><time>2026-05-01T12:52:28Z</time></trkpt><trkpt lat="39.05340974493596" lon="16.177330534623014"><ele>486.0</ele><time>2026-05-01T12:52:29Z</time></trkpt><trkpt lat="39.05351217034959" lon="16.177436959995056"><ele>486.0</ele><time>2026-05-01T12:52:30Z</time></trkpt><trkpt lat="39.053629213639425" lon="16.177522470603538"><ele>485.4</ele><time>2026-05-01T12:52:31Z</time></trkpt><trkpt lat="39.05373068419879" lon="16.1776163725306"><ele>484.8</ele><time>2026-05-01T12:52:32Z</time></trkpt><trkpt lat="39.053823011142704" lon="16.17770078230936"><ele>484.19999999999993</ele><time>2026-05-01T12:52:33Z</time></trkpt><trkpt lat="39.05390041751457" lon="16.17778264691967"><ele>483.59999999999997</ele><time>2026-05-01T12:52:34Z</time></trkpt><trkpt lat="39.053963249275576" lon="16.17787524739117"><ele>483.0</ele><time>2026-05-01T12:52:35Z</time></trkpt><trkpt lat="39.054001574151094" lon="16.177983056029113"><ele>483.0</ele><time>2026-05-01T12:52:36Z</time></trkpt><trkpt lat="39.05402385145337" lon="16.1781250411755"><ele>482.99999999999994</ele><time>2026-05-01T12:52:37Z</time></trkpt><trkpt lat="39.05403719961872" lon="16.178260139358876"><ele>482.99999999999994</ele><time>2026-05-01T12:52:38Z</time></trkpt><trkpt lat="39.05408147508285" lon="16.17839675601974"><ele>483.0</ele><time>2026-05-01T12:52:39Z</time></trkpt><trkpt lat="39.05415804165119" lon="16.17850704910141"><ele>483.0</ele><time>2026-05-01T12:52:40Z</time></trkpt><trkpt lat="39.054259682774685" lon="16.178593600584144"><ele>482.25</ele><time>2026-05-01T12:52:41Z</time></trkpt><trkpt lat="39.054372207728896" lon="16.178652016341392"><ele>481.5</ele><time>2026-05-01T12:52:42Z</time></trkpt><trkpt lat="39.054487107652164" lon="16.178691149916986"><ele>480.75</ele><time>2026-05-01T12:52:43Z</time></trkpt><trkpt lat="39.05459058374371" lon="16.178735439898986"><ele>480.0</ele><time>2026-05-01T12:52:44Z</time></trkpt><trkpt lat="39.054702682037956" lon="16.17879719978379"><ele>480.0</ele><time>2026-05-01T12:52:45Z</time></trkpt><trkpt lat="39.054784669116394" lon="16.178879179205666"><ele>480.0</ele><time>2026-05-01T12:52:46Z</time></trkpt><trkpt lat="39.05483391556512" lon="16.17897588169613"><ele>480.0</ele><time>2026-05-01T12:52:47Z</time></trkpt><trkpt lat="39.054854319045" lon="16.179081193564784"><ele>480.0</ele><time>2026-05-01T12:52:48Z</time></trkpt><trkpt lat="39.05484546372481" lon="16.17919123296574"><ele>480.0</ele><time>2026-05-01T12:52:49Z</time></trkpt><trkpt lat="39.0548053690114" lon="16.179298689080923"><ele>482.6</ele><time>2026-05-01T12:52:50Z</time></trkpt><trkpt lat="39.05475138155473" lon="16.17940152819038"><ele>485.2</ele><time>2026-05-01T12:52:51Z</time></trkpt><trkpt lat="39.05469326510031" lon="16.179501723167114"><ele>487.79999999999995</ele><time>2026-05-01T12:52:52Z</time></trkpt><trkpt lat="39.05463364090955" lon="16.17961059360962"><ele>490.4</ele><time>2026-05-01T12:52:53Z</time></trkpt><trkpt lat="39.05457314133097" lon="16.179721364332984"><ele>493.0</ele><time>2026-05-01T12:52:54Z</time></trkpt><trkpt lat="39.05451174199412" lon="16.17983208344628"><ele>494.0</ele><time>2026-05-01T12:52:55Z</time></trkpt><trkpt lat="39.05445201871739" lon="16.179939811410005"><ele>494.99999999999994</ele><time>2026-05-01T12:52:56Z</time></trkpt><trkpt lat="39.05440089617144" lon="16.18005471043628"><ele>495.99999999999994</ele><time>2026-05-01T12:52:57Z</time></trkpt><trkpt lat="39.05437255664729" lon="16.18018203722812"><ele>497.0</ele><time>2026-05-01T12:52:58Z</time></trkpt><trkpt lat="39.054377309220605" lon="16.1803185083105"><ele>498.0</ele><time>2026-05-01T12:52:59Z</time></trkpt><trkpt lat="39.054409760344235" lon="16.180453505157725"><ele>498.0</ele><time>2026-05-01T12:53:00Z</time></trkpt><trkpt lat="39.054466494508645" lon="16.180573434950627"><ele>497.99999999999994</ele><time>2026-05-01T12:53:01Z</time></trkpt><trkpt lat="39.054542665099405" lon="16.18067863169264"><ele>497.99999999999994</ele><time>2026-05-01T12:53:02Z</time></trkpt><trkpt lat="39.05462212595742" lon="16.18078063946981"><ele>498.0</ele><time>2026-05-01T12:53:03Z</time></trkpt><trkpt lat="39.05469438093577" lon="16.180881530358032"><ele>498.0</ele><time>2026-05-01T12:53:04Z</time></trkpt><trkpt lat="39.05475660466708" lon="16.180982595606732"><ele>499.59999999999997</ele><time>2026-05-01T12:53:05Z</time></trkpt><trkpt lat="39.05480304736812" lon="16.18108832551799"><ele>501.19999999999993</ele><time>2026-05-01T12:53:06Z</time></trkpt><trkpt lat="39.054813270124555" lon="16.181209758430583"><ele>502.8</ele><time>2026-05-01T12:53:07Z</time></trkpt><trkpt lat="39.05480753707853" lon="16.181318254527028"><ele>504.4</ele><time>2026-05-01T12:53:08Z</time></trkpt><trkpt lat="39.05478155877237" lon="16.181434411353294"><ele>506.0</ele><time>2026-05-01T12:53:09Z</time></trkpt><trkpt lat="39.054747731321335" lon="16.181563698144238"><ele>508.0</ele><time>2026-05-01T12:53:10Z</time></trkpt><trkpt lat="39.05470488311043" lon="16.181699956002213"><ele>510.0</ele><time>2026-05-01T12:53:11Z</time></trkpt><trkpt lat="39.05467374537785" lon="16.181841090258125"><ele>512.0</ele><time>2026-05-01T12:53:12Z</time></trkpt><trkpt lat="39.05461905803529" lon="16.181979937772393"><ele>514.0</ele><time>2026-05-01T12:53:13Z</time></trkpt><trkpt lat="39.05456856193767" lon="16.182116630215344"><ele>514.0</ele><time>2026-05-01T12:53:14Z</time></trkpt><trkpt lat="39.05452195735392" lon="16.182248281989104"><ele>514.0</ele><time>2026-05-01T12:53:15Z</time></trkpt><trkpt lat="39.05448060116346" lon="16.182367666611427"><ele>514.0</ele><time>2026-05-01T12:53:16Z</time></trkpt><trkpt lat="39.05445905520933" lon="16.18249001570375"><ele>514.0</ele><time>2026-05-01T12:53:17Z</time></trkpt><trkpt lat="39.05445844960328" lon="16.182610512726445"><ele>514.0</ele><time>2026-05-01T12:53:18Z</time></trkpt><trkpt lat="39.05449266165039" lon="16.182723805373804"><ele>515.4</ele><time>2026-05-01T12:53:19Z</time></trkpt><trkpt lat="39.05455218983993" lon="16.182823761175303"><ele>516.8</ele><time>2026-05-01T12:53:20Z</time></trkpt><trkpt lat="39.054621329972335" lon="16.182922135850674"><ele>518.2</ele><time>2026-05-01T12:53:21Z</time></trkpt><trkpt lat="39.05469118272957" lon="16.183013303513206"><ele>519.6</ele><time>2026-05-01T12:53:22Z</time></trkpt><trkpt lat="39.05473081581688" lon="16.183128042911523"><ele>521.0</ele><time>2026-05-01T12:53:23Z</time></trkpt><trkpt lat="39.054765231720324" lon="16.183237141338573"><ele>522.4</ele><time>2026-05-01T12:53:24Z</time></trkpt><trkpt lat="39.054782651765585" lon="16.18335425338197"><ele>523.8</ele><time>2026-05-01T12:53:25Z</time></trkpt><trkpt lat="39.054783105123306" lon="16.18347219565524"><ele>525.1999999999999</ele><time>2026-05-01T12:53:26Z</time></trkpt><trkpt lat="39.054780188442756" lon="16.183591707169843"><ele>526.6</ele><time>2026-05-01T12:53:27Z</time></trkpt><trkpt lat="39.05478052835679" lon="16.183714983439106"><ele>528.0</ele><time>2026-05-01T12:53:28Z</time></trkpt><trkpt lat="39.05477229203318" lon="16.183832451487635"><ele>528.0</ele><time>2026-05-01T12:53:29Z</time></trkpt><trkpt lat="39.05475945396203" lon="16.18394897213279"><ele>528.0</ele><time>2026-05-01T12:53:30Z</time></trkpt><trkpt lat="39.05475114295203" lon="16.1840635784342"><ele>528.0</ele><time>2026-05-01T12:53:31Z</time></trkpt><trkpt lat="39.05473744740448" lon="16.184168642682224"><ele>528.0</ele><time>2026-05-01T12:53:32Z</time></trkpt><trkpt lat="39.05473364956197" lon="16.184270671434508"><ele>528.0</ele><time>2026-05-01T12:53:33Z</time></trkpt><trkpt lat="39.05474570324379" lon="16.18436116761688"><ele>528.0</ele><time>2026-05-01T12:53:34Z</time></trkpt><trkpt lat="39.05477980860125" lon="16.184437804381016"><ele>529.1666666666666</ele><time>2026-05-01T12:53:35Z</time></trkpt><trkpt lat="39.05484260560977" lon="16.184486022976607"><ele>530.3333333333334</ele><time>2026-05-01T12:53:36Z</time></trkpt><trkpt lat="39.05492034546249" lon="16.18452960387956"><ele>531.5</ele><time>2026-05-01T12:53:37Z</time></trkpt><trkpt lat="39.05499425778083" lon="16.18458321882062"><ele>532.6666666666667</ele><time>2026-05-01T12:53:38Z</time></trkpt><trkpt lat="39.05505986582287" lon="16.184662992352585"><ele>533.8333333333334</ele><time>2026-05-01T12:53:39Z</time></trkpt><trkpt lat="39.05510135900604" lon="16.184772046289524"><ele>535.0</ele><time>2026-05-01T12:53:40Z</time></trkpt><trkpt lat="39.05516147057919" lon="16.184858322090196"><ele>527.0</ele><time>2026-05-01T12:53:41Z</time></trkpt><trkpt lat="39.05522665531251" lon="16.18495258626167"><ele>519.0</ele><time>2026-05-01T12:53:42Z</time></trkpt><trkpt lat="39.055289901107344" lon="16.185044686602875"><ele>511.0</ele><time>2026-05-01T12:53:43Z</time></trkpt><trkpt lat="39.05536240942496" lon="16.18512575450714"><ele>503.0</ele><time>2026-05-01T12:53:44Z</time></trkpt><trkpt lat="39.05542203718411" lon="16.18522112278986"><ele>495.0</ele><time>2026-05-01T12:53:45Z</time></trkpt><trkpt lat="39.05548136289174" lon="16.18531571432851"><ele>495.0</ele><time>2026-05-01T12:53:46Z</time></trkpt><trkpt lat="39.05554480103584" lon="16.18540883507176"><ele>495.0</ele><time>2026-05-01T12:53:47Z</time></trkpt><trkpt lat="39.05560873385738" lon="16.185501664307782"><ele>495.0</ele><time>2026-05-01T12:53:48Z</time></trkpt><trkpt lat="39.05566902377847" lon="16.185595380821027"><ele>495.0</ele><time>2026-05-01T12:53:49Z</time></trkpt><trkpt lat="39.05572495971299" lon="16.185689338950212"><ele>495.0</ele><time>2026-05-01T12:53:50Z</time></trkpt><trkpt lat="39.05578359794588" lon="16.1857821279575"><ele>494.2</ele><time>2026-05-01T12:53:51Z</time></trkpt><trkpt lat="39.05584449286286" lon="16.18587310474465"><ele>493.4</ele><time>2026-05-01T12:53:52Z</time></trkpt><trkpt lat="39.05590856330782" lon="16.185960395932433"><ele>492.6</ele><time>2026-05-01T12:53:53Z</time></trkpt><trkpt lat="39.055969384624916" lon="16.186050649974934"><ele>491.8</ele><time>2026-05-01T12:53:54Z</time></trkpt><trkpt lat="39.05602836604509" lon="16.186143647667883"><ele>491.0</ele><time>2026-05-01T12:53:55Z</time></trkpt><trkpt lat="39.05608823386798" lon="16.186237747055166"><ele>491.0</ele><time>2026-05-01T12:53:56Z</time></trkpt><trkpt lat="39.05614939222137" lon="16.186330614353817"><ele>491.0</ele><time>2026-05-01T12:53:57Z</time></trkpt><trkpt lat="39.05621385851299" lon="16.186423275916578"><ele>491.0</ele><time>2026-05-01T12:53:58Z</time></trkpt><trkpt lat="39.056276408479754" lon="16.186513405280504"><ele>491.0</ele><time>2026-05-01T12:53:59Z</time></trkpt><trkpt lat="39.056336817970575" lon="16.186603116322317"><ele>491.0</ele><time>2026-05-01T12:54:00Z</time></trkpt><trkpt lat="39.05639350370454" lon="16.186686908165118"><ele>494.8333333333333</ele><time>2026-05-01T12:54:01Z</time></trkpt><trkpt lat="39.05644730017411" lon="16.186769565906758"><ele>498.66666666666663</ele><time>2026-05-01T12:54:02Z</time></trkpt><trkpt lat="39.05649614466975" lon="16.186851640805937"><ele>502.5</ele><time>2026-05-01T12:54:03Z</time></trkpt><trkpt lat="39.05653411359703" lon="16.186940910277293"><ele>506.33333333333337</ele><time>2026-05-01T12:54:04Z</time></trkpt><trkpt lat="39.05654735371391" lon="16.1870278261769"><ele>510.1666666666667</ele><time>2026-05-01T12:54:05Z</time></trkpt><trkpt lat="39.05655007141227" lon="16.18712423664523"><ele>514.0</ele><time>2026-05-01T12:54:06Z</time></trkpt><trkpt lat="39.05654523598832" lon="16.187219723772333"><ele>514.0</ele><time>2026-05-01T12:54:07Z</time></trkpt><trkpt lat="39.056539160540645" lon="16.18731992627946"><ele>514.0</ele><time>2026-05-01T12:54:08Z</time></trkpt><trkpt lat="39.0565443804212" lon="16.187415042439596"><ele>514.0</ele><time>2026-05-01T12:54:09Z</time></trkpt><trkpt lat="39.056562872878565" lon="16.187514940200078"><ele>514.0</ele><time>2026-05-01T12:54:10Z</time></trkpt><trkpt lat="39.05660634129425" lon="16.18760661691155"><ele>514.0</ele><time>2026-05-01T12:54:11Z</time></trkpt><trkpt lat="39.05665924229427" lon="16.187678498501278"><ele>514.0</ele><time>2026-05-01T12:54:12Z</time></trkpt><trkpt lat="39.05671032812846" lon="16.187764663941284"><ele>511.50000000000006</ele><time>2026-05-01T12:54:13Z</time></trkpt><trkpt lat="39.05676820945129" lon="16.18782931039186"><ele>509.0</ele><time>2026-05-01T12:54:14Z</time></trkpt><trkpt lat="39.05682252286395" lon="16.187889603519768"><ele>506.5</ele><time>2026-05-01T12:54:15Z</time></trkpt><trkpt lat="39.05688548428632" lon="16.187942156047697"><ele>504.0</ele><time>2026-05-01T12:54:16Z</time></trkpt><trkpt lat="39.05694019323137" lon="16.188023404145756"><ele>501.50000000000006</ele><time>2026-05-01T12:54:17Z</time></trkpt><trkpt lat="39.05697525440237" lon="16.18812727212465"><ele>499.0</ele><time>2026-05-01T12:54:18Z</time></trkpt><trkpt lat="39.05703182163489" lon="16.188217680844403"><ele>499.00000000000006</ele><time>2026-05-01T12:54:19Z</time></trkpt><trkpt lat="39.05706135060128" lon="16.188328467296746"><ele>499.0</ele><time>2026-05-01T12:54:20Z</time></trkpt><trkpt lat="39.05711846616558" lon="16.18841858222536"><ele>499.0</ele><time>2026-05-01T12:54:21Z</time></trkpt><trkpt lat="39.057162109019664" lon="16.188514002683455"><ele>499.0</ele><time>2026-05-01T12:54:22Z</time></trkpt><trkpt lat="39.057206236377816" lon="16.188616105753546"><ele>499.00000000000006</ele><time>2026-05-01T12:54:23Z</time></trkpt><trkpt lat="39.05725184677453" lon="16.188708233233964"><ele>499.0</ele><time>2026-05-01T12:54:24Z</time></trkpt><trkpt lat="39.05730226785066" lon="16.188802175211563"><ele>499.00000000000006</ele><time>2026-05-01T12:54:25Z</time></trkpt><trkpt lat="39.057343900326885" lon="16.18889980733402"><ele>499.0</ele><time>2026-05-01T12:54:26Z</time></trkpt><trkpt lat="39.057386371356735" lon="16.18899068828684"><ele>499.0</ele><time>2026-05-01T12:54:27Z</time></trkpt><trkpt lat="39.0574291967659" lon="16.18907885940511"><ele>499.0</ele><time>2026-05-01T12:54:28Z</time></trkpt><trkpt lat="39.05748498392053" lon="16.18915950222029"><ele>499.00000000000006</ele><time>2026-05-01T12:54:29Z</time></trkpt><trkpt lat="39.05754089516545" lon="16.189239746633596"><ele>499.0</ele><time>2026-05-01T12:54:30Z</time></trkpt><trkpt lat="39.057596601202604" lon="16.189312930659277"><ele>497.6666666666667</ele><time>2026-05-01T12:54:30.999Z</time></trkpt><trkpt lat="39.0576540545778" lon="16.189382615322298"><ele>496.33333333333337</ele><time>2026-05-01T12:54:31.999Z</time></trkpt><trkpt lat="39.057699036927815" lon="16.189457756177656"><ele>495.0</ele><time>2026-05-01T12:54:32.999Z</time></trkpt><trkpt lat="39.05775104720558" lon="16.18953155370032"><ele>493.66666666666663</ele><time>2026-05-01T12:54:33.999Z</time></trkpt><trkpt lat="39.057777019478145" lon="16.189626145820405"><ele>492.3333333333333</ele><time>2026-05-01T12:54:35Z</time></trkpt><trkpt lat="39.057775987144" lon="16.18972070143219"><ele>491.0</ele><time>2026-05-01T12:54:36Z</time></trkpt><trkpt lat="39.057797397604375" lon="16.189816648611096"><ele>492.99999999999994</ele><time>2026-05-01T12:54:37Z</time></trkpt><trkpt lat="39.05781823496127" lon="16.18990600151531"><ele>495.0</ele><time>2026-05-01T12:54:38Z</time></trkpt><trkpt lat="39.05788400085976" lon="16.18998611825175"><ele>497.0</ele><time>2026-05-01T12:54:39Z</time></trkpt><trkpt lat="39.05792953191128" lon="16.190080654160475"><ele>499.0</ele><time>2026-05-01T12:54:40Z</time></trkpt><trkpt lat="39.05797405740035" lon="16.190173286348838"><ele>500.99999999999994</ele><time>2026-05-01T12:54:41Z</time></trkpt><trkpt lat="39.05801721070044" lon="16.190261330753234"><ele>503.0</ele><time>2026-05-01T12:54:42Z</time></trkpt><trkpt lat="39.05806058105957" lon="16.190356541353"><ele>502.99999999999994</ele><time>2026-05-01T12:54:43Z</time></trkpt><trkpt lat="39.058099764001355" lon="16.19044572021381"><ele>503.0</ele><time>2026-05-01T12:54:44Z</time></trkpt><trkpt lat="39.05813872396328" lon="16.190536466852173"><ele>503.0</ele><time>2026-05-01T12:54:45Z</time></trkpt><trkpt lat="39.05817482210577" lon="16.19062196387027"><ele>503.0</ele><time>2026-05-01T12:54:46Z</time></trkpt><trkpt lat="39.05820839640522" lon="16.190704224210254"><ele>502.99999999999994</ele><time>2026-05-01T12:54:47Z</time></trkpt><trkpt lat="39.05824444447716" lon="16.190784655178252"><ele>503.0</ele><time>2026-05-01T12:54:48Z</time></trkpt><trkpt lat="39.058278819666356" lon="16.190869274060923"><ele>500.66666666666663</ele><time>2026-05-01T12:54:49Z</time></trkpt><trkpt lat="39.058311338066424" lon="16.19095078912931"><ele>498.3333333333333</ele><time>2026-05-01T12:54:50Z</time></trkpt><trkpt lat="39.05833017673809" lon="16.191039083247446"><ele>496.0</ele><time>2026-05-01T12:54:51Z</time></trkpt><trkpt lat="39.05838018261137" lon="16.191118846791337"><ele>493.66666666666663</ele><time>2026-05-01T12:54:52Z</time></trkpt><trkpt lat="39.058415401707364" lon="16.191207133649094"><ele>491.3333333333333</ele><time>2026-05-01T12:54:53Z</time></trkpt><trkpt lat="39.058452315295334" lon="16.19129383320439"><ele>489.0</ele><time>2026-05-01T12:54:54Z</time></trkpt><trkpt lat="39.058488872376735" lon="16.191380791191893"><ele>489.0</ele><time>2026-05-01T12:54:55Z</time></trkpt><trkpt lat="39.058530054159874" lon="16.191461701133218"><ele>489.0</ele><time>2026-05-01T12:54:56Z</time></trkpt><trkpt lat="39.058566854980555" lon="16.191534814874306"><ele>489.0</ele><time>2026-05-01T12:54:57Z</time></trkpt><trkpt lat="39.058597518546" lon="16.191607762831424"><ele>489.0</ele><time>2026-05-01T12:54:58Z</time></trkpt><trkpt lat="39.05863922327724" lon="16.191727636108816"><ele>489.0</ele><time>2026-05-01T12:55:00Z</time></trkpt><trkpt lat="39.0586265130323" lon="16.19187659279442"><ele>489.0</ele><time>2026-05-01T12:55:02Z</time></trkpt><trkpt lat="39.05864443085394" lon="16.1920243222175"><ele>490.6</ele><time>2026-05-01T12:55:04Z</time></trkpt><trkpt lat="39.05867283638188" lon="16.19218223471726"><ele>492.2</ele><time>2026-05-01T12:55:06Z</time></trkpt><trkpt lat="39.05869789320413" lon="16.192259459486063"><ele>493.80000000000007</ele><time>2026-05-01T12:55:07Z</time></trkpt><trkpt lat="39.05874410298586" lon="16.192401877310186"><ele>495.40000000000003</ele><time>2026-05-01T12:55:09Z</time></trkpt><trkpt lat="39.058792836004514" lon="16.192551167120953"><ele>497.0</ele><time>2026-05-01T12:55:11Z</time></trkpt><trkpt lat="39.058820702762134" lon="16.192623993123984"><ele>498.0</ele><time>2026-05-01T12:55:12Z</time></trkpt><trkpt lat="39.05885582799546" lon="16.1926992073353"><ele>499.0</ele><time>2026-05-01T12:55:13Z</time></trkpt><trkpt lat="39.05889936825985" lon="16.192770299590396"><ele>500.0</ele><time>2026-05-01T12:55:14Z</time></trkpt><trkpt lat="39.0589447236756" lon="16.192832270949804"><ele>501.0</ele><time>2026-05-01T12:55:15Z</time></trkpt><trkpt lat="39.05900979776421" lon="16.192886534396155"><ele>502.0</ele><time>2026-05-01T12:55:16Z</time></trkpt><trkpt lat="39.059053633740604" lon="16.19296013962014"><ele>503.0</ele><time>2026-05-01T12:55:17Z</time></trkpt><trkpt lat="39.059103505419635" lon="16.193034103905454"><ele>504.0</ele><time>2026-05-01T12:55:18Z</time></trkpt><trkpt lat="39.05914753063193" lon="16.19311225344169"><ele>501.5</ele><time>2026-05-01T12:55:19Z</time></trkpt><trkpt lat="39.05917317938613" lon="16.19321024626531"><ele>499.0</ele><time>2026-05-01T12:55:20Z</time></trkpt><trkpt lat="39.059215160117176" lon="16.19329902707475"><ele>496.5</ele><time>2026-05-01T12:55:21Z</time></trkpt><trkpt lat="39.05926303659303" lon="16.19338202461019"><ele>494.0</ele><time>2026-05-01T12:55:22Z</time></trkpt><trkpt lat="39.05932982830634" lon="16.193448968233618"><ele>491.5</ele><time>2026-05-01T12:55:23Z</time></trkpt><trkpt lat="39.05938298910262" lon="16.19352490202596"><ele>489.0</ele><time>2026-05-01T12:55:24Z</time></trkpt><trkpt lat="39.059429390162904" lon="16.19360449681224"><ele>489.0</ele><time>2026-05-01T12:55:25Z</time></trkpt><trkpt lat="39.05944770692459" lon="16.193701701808457"><ele>489.00000000000006</ele><time>2026-05-01T12:55:26Z</time></trkpt><trkpt lat="39.05948860126903" lon="16.193776405854752"><ele>489.0</ele><time>2026-05-01T12:55:27Z</time></trkpt><trkpt lat="39.05951068980985" lon="16.193872216286266"><ele>489.0</ele><time>2026-05-01T12:55:28Z</time></trkpt><trkpt lat="39.0595398452258" lon="16.193959641113338"><ele>489.00000000000006</ele><time>2026-05-01T12:55:29Z</time></trkpt><trkpt lat="39.05957364481507" lon="16.194047825503056"><ele>489.0</ele><time>2026-05-01T12:55:30Z</time></trkpt><trkpt lat="39.059605187346605" lon="16.1941232722357"><ele>489.0</ele><time>2026-05-01T12:55:31Z</time></trkpt><trkpt lat="39.05964318881993" lon="16.19419178913086"><ele>490.0</ele><time>2026-05-01T12:55:32Z</time></trkpt><trkpt lat="39.059692684428235" lon="16.19425479784591"><ele>491.0</ele><time>2026-05-01T12:55:33Z</time></trkpt><trkpt lat="39.0597411700244" lon="16.194323159465256"><ele>492.0</ele><time>2026-05-01T12:55:34Z</time></trkpt><trkpt lat="39.059791125788664" lon="16.194390497535416"><ele>493.0</ele><time>2026-05-01T12:55:35Z</time></trkpt><trkpt lat="39.059849283893286" lon="16.19445932432796"><ele>494.0</ele><time>2026-05-01T12:55:36Z</time></trkpt><trkpt lat="39.05990581865601" lon="16.194532560575272"><ele>495.0</ele><time>2026-05-01T12:55:37Z</time></trkpt><trkpt lat="39.059953964238865" lon="16.194609703151595"><ele>493.5</ele><time>2026-05-01T12:55:38Z</time></trkpt><trkpt lat="39.05999495701597" lon="16.19469785234666"><ele>492.0</ele><time>2026-05-01T12:55:39Z</time></trkpt><trkpt lat="39.06004236434138" lon="16.194776000138123"><ele>490.5</ele><time>2026-05-01T12:55:40Z</time></trkpt><trkpt lat="39.06007384402558" lon="16.19485691379795"><ele>489.0</ele><time>2026-05-01T12:55:41Z</time></trkpt><trkpt lat="39.06008255001261" lon="16.194948727594902"><ele>487.5</ele><time>2026-05-01T12:55:42Z</time></trkpt><trkpt lat="39.060108545913316" lon="16.195039987984554"><ele>486.0</ele><time>2026-05-01T12:55:43Z</time></trkpt><trkpt lat="39.06013780168618" lon="16.195139984730506"><ele>486.0</ele><time>2026-05-01T12:55:44Z</time></trkpt><trkpt lat="39.06016612273968" lon="16.19523473342919"><ele>486.0</ele><time>2026-05-01T12:55:45Z</time></trkpt><trkpt lat="39.06019282555417" lon="16.19532140866128"><ele>486.0</ele><time>2026-05-01T12:55:46Z</time></trkpt><trkpt lat="39.060221291110174" lon="16.195413902989934"><ele>486.0</ele><time>2026-05-01T12:55:47Z</time></trkpt><trkpt lat="39.0602493571431" lon="16.195505099000034"><ele>486.0</ele><time>2026-05-01T12:55:48Z</time></trkpt><trkpt lat="39.06027708764262" lon="16.19559614347999"><ele>486.0</ele><time>2026-05-01T12:55:49Z</time></trkpt><trkpt lat="39.060308107239486" lon="16.19568082499824"><ele>485.85714285714283</ele><time>2026-05-01T12:55:50Z</time></trkpt><trkpt lat="39.06034335460401" lon="16.195770560031043"><ele>485.7142857142858</ele><time>2026-05-01T12:55:51Z</time></trkpt><trkpt lat="39.06038158545151" lon="16.19585263468661"><ele>485.5714285714286</ele><time>2026-05-01T12:55:52Z</time></trkpt><trkpt lat="39.06042568155165" lon="16.195938799457164"><ele>485.42857142857144</ele><time>2026-05-01T12:55:53Z</time></trkpt><trkpt lat="39.06046563545766" lon="16.196017190621497"><ele>485.28571428571433</ele><time>2026-05-01T12:55:54Z</time></trkpt><trkpt lat="39.06050329036727" lon="16.19609699258576"><ele>485.1428571428572</ele><time>2026-05-01T12:55:55Z</time></trkpt><trkpt lat="39.060538468584845" lon="16.196176669697216"><ele>485.00000000000006</ele><time>2026-05-01T12:55:56Z</time></trkpt><trkpt lat="39.06057116739331" lon="16.196258663753074"><ele>485.0</ele><time>2026-05-01T12:55:57Z</time></trkpt><trkpt lat="39.06060703779994" lon="16.196393616593422"><ele>485.0</ele><time>2026-05-01T12:55:59Z</time></trkpt><trkpt lat="39.06061750166762" lon="16.1964756110849"><ele>485.0</ele><time>2026-05-01T12:56:00Z</time></trkpt><trkpt lat="39.06071271248024" lon="16.196644420756105"><ele>485.0</ele><time>2026-05-01T12:56:02Z</time></trkpt><trkpt lat="39.06075933560084" lon="16.196725769009923"><ele>485.0</ele><time>2026-05-01T12:56:03Z</time></trkpt><trkpt lat="39.06080538560597" lon="16.19680757187609"><ele>484.3333333333333</ele><time>2026-05-01T12:56:04Z</time></trkpt><trkpt lat="39.060862455579354" lon="16.196879340240937"><ele>483.66666666666663</ele><time>2026-05-01T12:56:05Z</time></trkpt><trkpt lat="39.060907186834804" lon="16.19696147763949"><ele>483.0</ele><time>2026-05-01T12:56:06Z</time></trkpt><trkpt lat="39.060959996200694" lon="16.197049461902537"><ele>482.33333333333337</ele><time>2026-05-01T12:56:07Z</time></trkpt><trkpt lat="39.06099519996566" lon="16.19715110046984"><ele>481.6666666666667</ele><time>2026-05-01T12:56:08Z</time></trkpt><trkpt lat="39.06104811139409" lon="16.197248061519787"><ele>481.0</ele><time>2026-05-01T12:56:09Z</time></trkpt><trkpt lat="39.06110261188861" lon="16.197347971372807"><ele>479.8</ele><time>2026-05-01T12:56:10Z</time></trkpt><trkpt lat="39.06115826728067" lon="16.197450006206886"><ele>478.6</ele><time>2026-05-01T12:56:11Z</time></trkpt><trkpt lat="39.06121316046186" lon="16.197550643688825"><ele>477.4</ele><time>2026-05-01T12:56:12Z</time></trkpt><trkpt lat="39.06126918101387" lon="16.197653348862193"><ele>476.2</ele><time>2026-05-01T12:56:13Z</time></trkpt><trkpt lat="39.06132595683541" lon="16.197760419264643"><ele>475.0</ele><time>2026-05-01T12:56:14Z</time></trkpt><trkpt lat="39.06138413462653" lon="16.197869499621312"><ele>475.0</ele><time>2026-05-01T12:56:15Z</time></trkpt><trkpt lat="39.06144294237975" lon="16.197979761189863"><ele>475.0</ele><time>2026-05-01T12:56:16Z</time></trkpt><trkpt lat="39.06151348778809" lon="16.198079525994974"><ele>475.0</ele><time>2026-05-01T12:56:17Z</time></trkpt><trkpt lat="39.061569987674005" lon="16.198191960917555"><ele>475.0</ele><time>2026-05-01T12:56:18Z</time></trkpt><trkpt lat="39.06162912448202" lon="16.19830449083969"><ele>475.0</ele><time>2026-05-01T12:56:19Z</time></trkpt><trkpt lat="39.06168885784255" lon="16.198419747567176"><ele>477.4</ele><time>2026-05-01T12:56:20Z</time></trkpt><trkpt lat="39.06175292892521" lon="16.19853189791426"><ele>479.8</ele><time>2026-05-01T12:56:21Z</time></trkpt><trkpt lat="39.06181808171018" lon="16.19865020633989"><ele>482.20000000000005</ele><time>2026-05-01T12:56:22Z</time></trkpt><trkpt lat="39.0618809678153" lon="16.198767251250416"><ele>484.6</ele><time>2026-05-01T12:56:23Z</time></trkpt><trkpt lat="39.061934300002044" lon="16.198894202816504"><ele>487.0</ele><time>2026-05-01T12:56:24Z</time></trkpt><trkpt lat="39.06197477192452" lon="16.199025321821257"><ele>487.0</ele><time>2026-05-01T12:56:25Z</time></trkpt><trkpt lat="39.061994048393565" lon="16.19917110360017"><ele>487.00000000000006</ele><time>2026-05-01T12:56:26Z</time></trkpt><trkpt lat="39.062041401248756" lon="16.19929294059936"><ele>487.00000000000006</ele><time>2026-05-01T12:56:27Z</time></trkpt><trkpt lat="39.06210364044077" lon="16.19940816526004"><ele>487.0</ele><time>2026-05-01T12:56:28Z</time></trkpt><trkpt lat="39.0621639929036" lon="16.19951280658136"><ele>487.0</ele><time>2026-05-01T12:56:29Z</time></trkpt><trkpt lat="39.062217787241806" lon="16.19961851383298"><ele>487.0</ele><time>2026-05-01T12:56:30Z</time></trkpt><trkpt lat="39.06222462939398" lon="16.199760052953543"><ele>487.00000000000006</ele><time>2026-05-01T12:56:31Z</time></trkpt><trkpt lat="39.06220030823617" lon="16.199892872789526"><ele>487.00000000000006</ele><time>2026-05-01T12:56:31.999Z</time></trkpt><trkpt lat="39.062181569915005" lon="16.200014774702204"><ele>487.0</ele><time>2026-05-01T12:56:32.999Z</time></trkpt><trkpt lat="39.06217871436629" lon="16.20013227404798"><ele>487.0</ele><time>2026-05-01T12:56:33.999Z</time></trkpt><trkpt lat="39.062206863477215" lon="16.200239258825682"><ele>486.8</ele><time>2026-05-01T12:56:34.999Z</time></trkpt><trkpt lat="39.06225973853233" lon="16.200337172754683"><ele>486.6</ele><time>2026-05-01T12:56:35.999Z</time></trkpt><trkpt lat="39.06230799583274" lon="16.200431763795066"><ele>486.40000000000003</ele><time>2026-05-01T12:56:36.999Z</time></trkpt><trkpt lat="39.062368395348564" lon="16.200524797014328"><ele>486.20000000000005</ele><time>2026-05-01T12:56:37.999Z</time></trkpt><trkpt lat="39.062405237562615" lon="16.200642978316253"><ele>486.0</ele><time>2026-05-01T12:56:38.999Z</time></trkpt><trkpt lat="39.062444855487094" lon="16.200768119917957"><ele>492.8</ele><time>2026-05-01T12:56:39.999Z</time></trkpt><trkpt lat="39.06249563446119" lon="16.20089108225642"><ele>499.6</ele><time>2026-05-01T12:56:41Z</time></trkpt><trkpt lat="39.06253096719" lon="16.201019529441357"><ele>506.4</ele><time>2026-05-01T12:56:42Z</time></trkpt><trkpt lat="39.062566566328464" lon="16.20114519282309"><ele>513.2</ele><time>2026-05-01T12:56:43Z</time></trkpt><trkpt lat="39.06260765165153" lon="16.20127186008592"><ele>520.0</ele><time>2026-05-01T12:56:44Z</time></trkpt><trkpt lat="39.06264304315589" lon="16.201400491187847"><ele>519.4</ele><time>2026-05-01T12:56:45Z</time></trkpt><trkpt lat="39.06264757679406" lon="16.20152958829398"><ele>518.8</ele><time>2026-05-01T12:56:46Z</time></trkpt><trkpt lat="39.06262521709073" lon="16.201651968646534"><ele>518.2</ele><time>2026-05-01T12:56:47Z</time></trkpt><trkpt lat="39.0625959146946" lon="16.201780307017334"><ele>517.6</ele><time>2026-05-01T12:56:48Z</time></trkpt><trkpt lat="39.06256589557776" lon="16.201912513227345"><ele>517.0</ele><time>2026-05-01T12:56:49Z</time></trkpt><trkpt lat="39.06253644408189" lon="16.202042220248526"><ele>517.0</ele><time>2026-05-01T12:56:50Z</time></trkpt><trkpt lat="39.06250895925126" lon="16.202177475549455"><ele>517.0</ele><time>2026-05-01T12:56:51Z</time></trkpt><trkpt lat="39.062482625782046" lon="16.20230343167546"><ele>517.0</ele><time>2026-05-01T12:56:52Z</time></trkpt><trkpt lat="39.06247112953787" lon="16.20243662205834"><ele>517.0</ele><time>2026-05-01T12:56:53Z</time></trkpt><trkpt lat="39.062419926956906" lon="16.20255670511114"><ele>517.0</ele><time>2026-05-01T12:56:54Z</time></trkpt><trkpt lat="39.06237103234902" lon="16.202677036320065"><ele>514.4</ele><time>2026-05-01T12:56:55Z</time></trkpt><trkpt lat="39.062313132316106" lon="16.202797774129685"><ele>511.80000000000007</ele><time>2026-05-01T12:56:56Z</time></trkpt><trkpt lat="39.06226110884091" lon="16.202923918935905"><ele>509.2</ele><time>2026-05-01T12:56:57Z</time></trkpt><trkpt lat="39.06219489434689" lon="16.203034647440177"><ele>506.6</ele><time>2026-05-01T12:56:58Z</time></trkpt><trkpt lat="39.06214117970834" lon="16.20315146156601"><ele>504.0</ele><time>2026-05-01T12:56:59Z</time></trkpt><trkpt lat="39.06210189188927" lon="16.203275008587386"><ele>504.0</ele><time>2026-05-01T12:57:00Z</time></trkpt><trkpt lat="39.06209077025575" lon="16.203407486718962"><ele>504.0</ele><time>2026-05-01T12:57:01Z</time></trkpt><trkpt lat="39.06209687412986" lon="16.203540053046677"><ele>504.0</ele><time>2026-05-01T12:57:02Z</time></trkpt><trkpt lat="39.06213045280907" lon="16.2036705373474"><ele>504.0</ele><time>2026-05-01T12:57:03Z</time></trkpt><trkpt lat="39.062182826061836" lon="16.203783126443327"><ele>504.0</ele><time>2026-05-01T12:57:04Z</time></trkpt><trkpt lat="39.062235370412594" lon="16.203893933108677"><ele>505.0</ele><time>2026-05-01T12:57:05Z</time></trkpt><trkpt lat="39.06226717389885" lon="16.204012427136167"><ele>506.0</ele><time>2026-05-01T12:57:06Z</time></trkpt><trkpt lat="39.062251798038545" lon="16.204134257136054"><ele>507.0</ele><time>2026-05-01T12:57:07Z</time></trkpt><trkpt lat="39.06224949404929" lon="16.20428622709271"><ele>508.0</ele><time>2026-05-01T12:57:08Z</time></trkpt><trkpt lat="39.0622535711913" lon="16.20441880432276"><ele>509.0</ele><time>2026-05-01T12:57:09Z</time></trkpt><trkpt lat="39.062175449314864" lon="16.20451192937587"><ele>509.0</ele><time>2026-05-01T12:57:10Z</time></trkpt><trkpt lat="39.0621149733061" lon="16.204628242984807"><ele>509.0</ele><time>2026-05-01T12:57:11Z</time></trkpt><trkpt lat="39.062075541858256" lon="16.20474565403571"><ele>509.0</ele><time>2026-05-01T12:57:12Z</time></trkpt><trkpt lat="39.06208039560554" lon="16.2048526412244"><ele>509.0</ele><time>2026-05-01T12:57:13Z</time></trkpt><trkpt lat="39.06212324005935" lon="16.204965072165926"><ele>509.0</ele><time>2026-05-01T12:57:14Z</time></trkpt><trkpt lat="39.06217415911433" lon="16.205076811073933"><ele>510.2</ele><time>2026-05-01T12:57:15Z</time></trkpt><trkpt lat="39.06218658740718" lon="16.20520337554738"><ele>511.4</ele><time>2026-05-01T12:57:16Z</time></trkpt><trkpt lat="39.062207844383884" lon="16.20533271293072"><ele>512.6</ele><time>2026-05-01T12:57:17Z</time></trkpt><trkpt lat="39.06220379245173" lon="16.20547039402373"><ele>513.8</ele><time>2026-05-01T12:57:18Z</time></trkpt><trkpt lat="39.062226489715584" lon="16.205600575738757"><ele>515.0</ele><time>2026-05-01T12:57:19Z</time></trkpt><trkpt lat="39.06228382881676" lon="16.2057181856233"><ele>515.6666666666666</ele><time>2026-05-01T12:57:20Z</time></trkpt><trkpt lat="39.062350384092504" lon="16.205829200591392"><ele>516.3333333333333</ele><time>2026-05-01T12:57:21Z</time></trkpt><trkpt lat="39.062410803715345" lon="16.20593248654152"><ele>517.0</ele><time>2026-05-01T12:57:22Z</time></trkpt><trkpt lat="39.06246664611744" lon="16.206017602373993"><ele>517.6666666666666</ele><time>2026-05-01T12:57:23Z</time></trkpt><trkpt lat="39.06252916740531" lon="16.206080146909468"><ele>518.3333333333334</ele><time>2026-05-01T12:57:24Z</time></trkpt><trkpt lat="39.06259655239674" lon="16.206075746413884"><ele>519.0</ele><time>2026-05-01T12:57:25Z</time></trkpt><trkpt lat="39.06264361668394" lon="16.20602163295216"><ele>518.3333333333334</ele><time>2026-05-01T12:57:26Z</time></trkpt><trkpt lat="39.06265000475967" lon="16.205934704371554"><ele>517.6666666666666</ele><time>2026-05-01T12:57:27Z</time></trkpt><trkpt lat="39.0626182326495" lon="16.20584681359599"><ele>517.0</ele><time>2026-05-01T12:57:28Z</time></trkpt><trkpt lat="39.06256502635395" lon="16.205771651105568"><ele>516.3333333333333</ele><time>2026-05-01T12:57:29Z</time></trkpt><trkpt lat="39.06250098552736" lon="16.205703474353196"><ele>515.6666666666666</ele><time>2026-05-01T12:57:30Z</time></trkpt><trkpt lat="39.062439295926076" lon="16.20562956793685"><ele>515.0</ele><time>2026-05-01T12:57:31Z</time></trkpt><trkpt lat="39.062391741784" lon="16.205537697283482"><ele>515.0</ele><time>2026-05-01T12:57:32Z</time></trkpt><trkpt lat="39.06237687110835" lon="16.205421024137653"><ele>515.0</ele><time>2026-05-01T12:57:33Z</time></trkpt><trkpt lat="39.06238821738611" lon="16.20528729009701"><ele>515.0</ele><time>2026-05-01T12:57:34Z</time></trkpt><trkpt lat="39.06239847861546" lon="16.205139586810713"><ele>515.0</ele><time>2026-05-01T12:57:35Z</time></trkpt><trkpt lat="39.06240222488954" lon="16.204995709551426"><ele>515.0</ele><time>2026-05-01T12:57:36Z</time></trkpt><trkpt lat="39.06240042138974" lon="16.20485405474858"><ele>513.8</ele><time>2026-05-01T12:57:37Z</time></trkpt><trkpt lat="39.06240749678896" lon="16.204722211019963"><ele>512.6</ele><time>2026-05-01T12:57:38Z</time></trkpt><trkpt lat="39.06244175919903" lon="16.204598468082597"><ele>511.4</ele><time>2026-05-01T12:57:39Z</time></trkpt><trkpt lat="39.062492349296456" lon="16.204480516240995"><ele>510.2</ele><time>2026-05-01T12:57:40Z</time></trkpt><trkpt lat="39.06252232951677" lon="16.204352168861703"><ele>509.0</ele><time>2026-05-01T12:57:41Z</time></trkpt><trkpt lat="39.062519172605064" lon="16.20421584872068"><ele>516.4</ele><time>2026-05-01T12:57:42Z</time></trkpt><trkpt lat="39.062515866786306" lon="16.20408134686729"><ele>523.8</ele><time>2026-05-01T12:57:43Z</time></trkpt><trkpt lat="39.06253825912475" lon="16.20395544251598"><ele>531.2</ele><time>2026-05-01T12:57:44Z</time></trkpt><trkpt lat="39.06257236638926" lon="16.20383168689376"><ele>538.6</ele><time>2026-05-01T12:57:45Z</time></trkpt><trkpt lat="39.062603148364374" lon="16.20371770996213"><ele>546.0</ele><time>2026-05-01T12:57:46Z</time></trkpt><trkpt lat="39.06262587960007" lon="16.203609638229956"><ele>546.0</ele><time>2026-05-01T12:57:47Z</time></trkpt><trkpt lat="39.06266476382228" lon="16.203503612958436"><ele>546.0</ele><time>2026-05-01T12:57:48Z</time></trkpt><trkpt lat="39.06272782735009" lon="16.203412819383452"><ele>546.0</ele><time>2026-05-01T12:57:49Z</time></trkpt><trkpt lat="39.062809145897305" lon="16.20333412916574"><ele>546.0</ele><time>2026-05-01T12:57:50Z</time></trkpt><trkpt lat="39.062890746370805" lon="16.203244853032388"><ele>546.0</ele><time>2026-05-01T12:57:51Z</time></trkpt><trkpt lat="39.062961978562456" lon="16.20313178161725"><ele>541.75</ele><time>2026-05-01T12:57:52Z</time></trkpt><trkpt lat="39.06302167556367" lon="16.20300582961875"><ele>537.5</ele><time>2026-05-01T12:57:53Z</time></trkpt><trkpt lat="39.06307543833653" lon="16.20287244913435"><ele>533.25</ele><time>2026-05-01T12:57:54Z</time></trkpt><trkpt lat="39.06312657126701" lon="16.20273554202196"><ele>529.0</ele><time>2026-05-01T12:57:55Z</time></trkpt><trkpt lat="39.06317618249948" lon="16.20259888866599"><ele>529.0</ele><time>2026-05-01T12:57:56Z</time></trkpt><trkpt lat="39.063225623427" lon="16.202465314565547"><ele>529.0</ele><time>2026-05-01T12:57:57Z</time></trkpt><trkpt lat="39.063263952476035" lon="16.202342134462373"><ele>529.0</ele><time>2026-05-01T12:57:58Z</time></trkpt><trkpt lat="39.063276877091035" lon="16.20222732656347"><ele>529.0</ele><time>2026-05-01T12:57:59Z</time></trkpt><trkpt lat="39.06325896387446" lon="16.202112958808296"><ele>529.0</ele><time>2026-05-01T12:58:00Z</time></trkpt><trkpt lat="39.063223042098336" lon="16.202015443262862"><ele>527.2857142857143</ele><time>2026-05-01T12:58:01Z</time></trkpt><trkpt lat="39.06321054118317" lon="16.201926107397252"><ele>525.5714285714286</ele><time>2026-05-01T12:58:02Z</time></trkpt><trkpt lat="39.06324863845454" lon="16.201856647628333"><ele>523.8571428571429</ele><time>2026-05-01T12:58:03Z</time></trkpt><trkpt lat="39.06331266514433" lon="16.201838866318877"><ele>522.1428571428571</ele><time>2026-05-01T12:58:04Z</time></trkpt><trkpt lat="39.063373525709004" lon="16.201870590775755"><ele>520.4285714285714</ele><time>2026-05-01T12:58:05Z</time></trkpt><trkpt lat="39.06340843736183" lon="16.201939128330856"><ele>518.7142857142858</ele><time>2026-05-01T12:58:06Z</time></trkpt><trkpt lat="39.06341623913199" lon="16.20202632483579"><ele>517.0</ele><time>2026-05-01T12:58:07Z</time></trkpt><trkpt lat="39.06336425866718" lon="16.202114712188447"><ele>519.4</ele><time>2026-05-01T12:58:08Z</time></trkpt><trkpt lat="39.06334840323372" lon="16.20221792256953"><ele>521.8000000000001</ele><time>2026-05-01T12:58:09Z</time></trkpt><trkpt lat="39.063338984672576" lon="16.202336962368978"><ele>524.2</ele><time>2026-05-01T12:58:10Z</time></trkpt><trkpt lat="39.063312976814025" lon="16.2024585340504"><ele>526.6</ele><time>2026-05-01T12:58:11Z</time></trkpt><trkpt lat="39.06327788232445" lon="16.202575663106437"><ele>529.0</ele><time>2026-05-01T12:58:12Z</time></trkpt><trkpt lat="39.0632419639739" lon="16.20269062202049"><ele>529.0</ele><time>2026-05-01T12:58:13Z</time></trkpt><trkpt lat="39.06320979373315" lon="16.20280503393382"><ele>529.0</ele><time>2026-05-01T12:58:14Z</time></trkpt><trkpt lat="39.06319894739405" lon="16.202925374090906"><ele>529.0</ele><time>2026-05-01T12:58:15Z</time></trkpt><trkpt lat="39.06321337842736" lon="16.20305144953333"><ele>529.0</ele><time>2026-05-01T12:58:16Z</time></trkpt><trkpt lat="39.06323825018013" lon="16.20318009417021"><ele>529.0</ele><time>2026-05-01T12:58:17Z</time></trkpt><trkpt lat="39.063261224189866" lon="16.20331054558563"><ele>532.4</ele><time>2026-05-01T12:58:18Z</time></trkpt><trkpt lat="39.06327698098704" lon="16.203441965312994"><ele>535.8</ele><time>2026-05-01T12:58:19Z</time></trkpt><trkpt lat="39.06324778771588" lon="16.203571057309826"><ele>539.2</ele><time>2026-05-01T12:58:20Z</time></trkpt><trkpt lat="39.06322453325384" lon="16.203694852747677"><ele>542.6</ele><time>2026-05-01T12:58:21Z</time></trkpt><trkpt lat="39.06320378383166" lon="16.203824484463738"><ele>546.0</ele><time>2026-05-01T12:58:22Z</time></trkpt><trkpt lat="39.0631767632333" lon="16.20395781069098"><ele>547.0</ele><time>2026-05-01T12:58:23Z</time></trkpt><trkpt lat="39.06315533599546" lon="16.204092251744363"><ele>548.0</ele><time>2026-05-01T12:58:24Z</time></trkpt><trkpt lat="39.063134289188966" lon="16.204228865513226"><ele>549.0</ele><time>2026-05-01T12:58:25Z</time></trkpt><trkpt lat="39.063124750749886" lon="16.204360929567024"><ele>550.0</ele><time>2026-05-01T12:58:26Z</time></trkpt><trkpt lat="39.0631406861036" lon="16.20449661895018"><ele>551.0</ele><time>2026-05-01T12:58:27Z</time></trkpt><trkpt lat="39.06318044203506" lon="16.204625199587394"><ele>551.0</ele><time>2026-05-01T12:58:28Z</time></trkpt><trkpt lat="39.06323289571741" lon="16.204739390561645"><ele>551.0</ele><time>2026-05-01T12:58:29Z</time></trkpt><trkpt lat="39.06327797305453" lon="16.20486586828278"><ele>551.0</ele><time>2026-05-01T12:58:30Z</time></trkpt><trkpt lat="39.06330732499139" lon="16.204996264390473"><ele>551.0</ele><time>2026-05-01T12:58:31Z</time></trkpt><trkpt lat="39.06331763679644" lon="16.205139554648788"><ele>551.0</ele><time>2026-05-01T12:58:32Z</time></trkpt><trkpt lat="39.06331560644686" lon="16.20527865456224"><ele>561.0</ele><time>2026-05-01T12:58:33Z</time></trkpt><trkpt lat="39.063328187314575" lon="16.205418076042868"><ele>571.0</ele><time>2026-05-01T12:58:34Z</time></trkpt><trkpt lat="39.0633709075272" lon="16.205549562289693"><ele>581.0</ele><time>2026-05-01T12:58:34.999Z</time></trkpt><trkpt lat="39.063431973651866" lon="16.205676698620927"><ele>591.0</ele><time>2026-05-01T12:58:35.999Z</time></trkpt><trkpt lat="39.06349102597517" lon="16.205813006665633"><ele>591.0</ele><time>2026-05-01T12:58:36.999Z</time></trkpt><trkpt lat="39.06351005028971" lon="16.2059697065222"><ele>591.0</ele><time>2026-05-01T12:58:37.999Z</time></trkpt><trkpt lat="39.06352998391041" lon="16.206129150198645"><ele>591.0</ele><time>2026-05-01T12:58:38.999Z</time></trkpt><trkpt lat="39.063527168754895" lon="16.206271143833007"><ele>591.0</ele><time>2026-05-01T12:58:39.999Z</time></trkpt><trkpt lat="39.063524936303494" lon="16.206395233569026"><ele>591.0</ele><time>2026-05-01T12:58:40.999Z</time></trkpt><trkpt lat="39.06350847486122" lon="16.20649898535108"><ele>591.0</ele><time>2026-05-01T12:58:41.999Z</time></trkpt><trkpt lat="39.0635333811234" lon="16.206575504110027"><ele>591.0</ele><time>2026-05-01T12:58:42.999Z</time></trkpt><trkpt lat="39.06359698814441" lon="16.206615900470783"><ele>591.0</ele><time>2026-05-01T12:58:43.999Z</time></trkpt><trkpt lat="39.063672923914176" lon="16.20659631120919"><ele>591.0</ele><time>2026-05-01T12:58:44.999Z</time></trkpt><trkpt lat="39.063726534285145" lon="16.206523305718182"><ele>591.0</ele><time>2026-05-01T12:58:46Z</time></trkpt><trkpt lat="39.06373877947203" lon="16.206422498324496"><ele>591.0</ele><time>2026-05-01T12:58:47Z</time></trkpt><trkpt lat="39.06371882558439" lon="16.206315962392246"><ele>591.0</ele><time>2026-05-01T12:58:48Z</time></trkpt><trkpt lat="39.06369378805129" lon="16.206204226946397"><ele>591.0</ele><time>2026-05-01T12:58:49Z</time></trkpt><trkpt lat="39.06368228441631" lon="16.2060783557025"><ele>591.0</ele><time>2026-05-01T12:58:50Z</time></trkpt><trkpt lat="39.063676049462515" lon="16.205942489655946"><ele>591.0</ele><time>2026-05-01T12:58:51Z</time></trkpt><trkpt lat="39.063669238136896" lon="16.20579796538665"><ele>591.75</ele><time>2026-05-01T12:58:52Z</time></trkpt><trkpt lat="39.063653406573664" lon="16.205650159160598"><ele>592.5</ele><time>2026-05-01T12:58:53Z</time></trkpt><trkpt lat="39.06362566482487" lon="16.205502208092415"><ele>593.25</ele><time>2026-05-01T12:58:54Z</time></trkpt><trkpt lat="39.063596027095564" lon="16.205360097791434"><ele>594.0</ele><time>2026-05-01T12:58:55Z</time></trkpt><trkpt lat="39.06359219815296" lon="16.20521749596033"><ele>594.0</ele><time>2026-05-01T12:58:56Z</time></trkpt><trkpt lat="39.06365769313755" lon="16.205086347515813"><ele>594.0</ele><time>2026-05-01T12:58:57Z</time></trkpt><trkpt lat="39.06368390510914" lon="16.204934284989132"><ele>594.0</ele><time>2026-05-01T12:58:58Z</time></trkpt><trkpt lat="39.063714733649746" lon="16.204791289049727"><ele>594.0</ele><time>2026-05-01T12:58:59Z</time></trkpt><trkpt lat="39.063713110204816" lon="16.204650739017826"><ele>593.0</ele><time>2026-05-01T12:59:00Z</time></trkpt><trkpt lat="39.06373159350639" lon="16.20453762783901"><ele>592.0</ele><time>2026-05-01T12:59:01Z</time></trkpt><trkpt lat="39.06374698405672" lon="16.204456714297724"><ele>591.0</ele><time>2026-05-01T12:59:02Z</time></trkpt><trkpt lat="39.06383992196829" lon="16.204505984296794"><ele>590.0</ele><time>2026-05-01T12:59:04Z</time></trkpt><trkpt lat="39.06387594098498" lon="16.204661208065804"><ele>589.0</ele><time>2026-05-01T12:59:06Z</time></trkpt><trkpt lat="39.06386109463586" lon="16.20476753059954"><ele>590.0</ele><time>2026-05-01T12:59:07Z</time></trkpt><trkpt lat="39.063836164769484" lon="16.204874255856218"><ele>591.0</ele><time>2026-05-01T12:59:08Z</time></trkpt><trkpt lat="39.06381020922542" lon="16.204981488711983"><ele>592.0</ele><time>2026-05-01T12:59:09Z</time></trkpt><trkpt lat="39.06378623135165" lon="16.205087032104583"><ele>593.0</ele><time>2026-05-01T12:59:10Z</time></trkpt><trkpt lat="39.06377581150802" lon="16.205224834021955"><ele>594.0</ele><time>2026-05-01T12:59:11Z</time></trkpt><trkpt lat="39.063797130228636" lon="16.205373880961982"><ele>594.0</ele><time>2026-05-01T12:59:12Z</time></trkpt><trkpt lat="39.06383637871076" lon="16.205548422346933"><ele>594.0</ele><time>2026-05-01T12:59:13Z</time></trkpt><trkpt lat="39.06389822804208" lon="16.205707306208406"><ele>594.0</ele><time>2026-05-01T12:59:14Z</time></trkpt><trkpt lat="39.06396497401694" lon="16.20589646086503"><ele>594.0</ele><time>2026-05-01T12:59:15Z</time></trkpt><trkpt lat="39.064005445202646" lon="16.20608544266219"><ele>593.25</ele><time>2026-05-01T12:59:16Z</time></trkpt><trkpt lat="39.06406136252082" lon="16.20625670704435"><ele>592.5</ele><time>2026-05-01T12:59:17Z</time></trkpt><trkpt lat="39.06407154880688" lon="16.206444744085942"><ele>591.75</ele><time>2026-05-01T12:59:18Z</time></trkpt><trkpt lat="39.064078258838904" lon="16.206632614571316"><ele>591.0</ele><time>2026-05-01T12:59:19Z</time></trkpt><trkpt lat="39.06408415661399" lon="16.206818224106595"><ele>590.25</ele><time>2026-05-01T12:59:20Z</time></trkpt><trkpt lat="39.06408996123044" lon="16.206990021263906"><ele>589.5</ele><time>2026-05-01T12:59:21Z</time></trkpt><trkpt lat="39.06411212870443" lon="16.207154340160557"><ele>588.75</ele><time>2026-05-01T12:59:22Z</time></trkpt><trkpt lat="39.06410853988479" lon="16.207310065256845"><ele>588.0</ele><time>2026-05-01T12:59:23Z</time></trkpt><trkpt lat="39.064067054986346" lon="16.207460809419842"><ele>589.3333333333334</ele><time>2026-05-01T12:59:24Z</time></trkpt><trkpt lat="39.06399549134942" lon="16.207578017423728"><ele>590.6666666666666</ele><time>2026-05-01T12:59:25Z</time></trkpt><trkpt lat="39.063918828746466" lon="16.20765505052135"><ele>592.0</ele><time>2026-05-01T12:59:26Z</time></trkpt><trkpt lat="39.06387418333582" lon="16.207752978865887"><ele>593.3333333333333</ele><time>2026-05-01T12:59:27Z</time></trkpt><trkpt lat="39.063851454682016" lon="16.2078395064824"><ele>594.6666666666666</ele><time>2026-05-01T12:59:28Z</time></trkpt><trkpt lat="39.063891982817694" lon="16.20791599803221"><ele>596.0</ele><time>2026-05-01T12:59:29Z</time></trkpt><trkpt lat="39.06396325596532" lon="16.20795185118928"><ele>596.0</ele><time>2026-05-01T12:59:30Z</time></trkpt><trkpt lat="39.06403535131406" lon="16.207983565041253"><ele>596.0</ele><time>2026-05-01T12:59:31Z</time></trkpt><trkpt lat="39.064120226264414" lon="16.208015800589017"><ele>596.0</ele><time>2026-05-01T12:59:32Z</time></trkpt><trkpt lat="39.064205993432424" lon="16.208060517271804"><ele>596.0</ele><time>2026-05-01T12:59:33Z</time></trkpt><trkpt lat="39.064295635398366" lon="16.208124839664983"><ele>596.0</ele><time>2026-05-01T12:59:34Z</time></trkpt><trkpt lat="39.06438269056007" lon="16.208214159866355"><ele>603.5</ele><time>2026-05-01T12:59:35Z</time></trkpt><trkpt lat="39.06444256899444" lon="16.2083627528402"><ele>611.0</ele><time>2026-05-01T12:59:36Z</time></trkpt><trkpt lat="39.06446074107937" lon="16.20854260215438"><ele>618.5</ele><time>2026-05-01T12:59:37Z</time></trkpt><trkpt lat="39.064492568928785" lon="16.20868822008112"><ele>626.0</ele><time>2026-05-01T12:59:38Z</time></trkpt><trkpt lat="39.064564272061695" lon="16.20880505365343"><ele>626.0</ele><time>2026-05-01T12:59:39Z</time></trkpt><trkpt lat="39.0646262842946" lon="16.208712540166818"><ele>626.0</ele><time>2026-05-01T12:59:40Z</time></trkpt><trkpt lat="39.064708209890696" lon="16.208689773906706"><ele>626.0</ele><time>2026-05-01T12:59:41Z</time></trkpt><trkpt lat="39.06479219660483" lon="16.20861602719239"><ele>626.0</ele><time>2026-05-01T12:59:42Z</time></trkpt><trkpt lat="39.064858841743394" lon="16.208508615570402"><ele>626.0</ele><time>2026-05-01T12:59:43Z</time></trkpt><trkpt lat="39.06488828662915" lon="16.208364784937977"><ele>626.0</ele><time>2026-05-01T12:59:44Z</time></trkpt><trkpt lat="39.06486083109873" lon="16.208218151165195"><ele>626.0</ele><time>2026-05-01T12:59:45Z</time></trkpt><trkpt lat="39.064799061196254" lon="16.208086146615234"><ele>626.0</ele><time>2026-05-01T12:59:46Z</time></trkpt><trkpt lat="39.06471559087575" lon="16.207977656542116"><ele>626.0</ele><time>2026-05-01T12:59:47Z</time></trkpt><trkpt lat="39.06463223036749" lon="16.207888022864562"><ele>626.8333333333333</ele><time>2026-05-01T12:59:48Z</time></trkpt><trkpt lat="39.06455380547615" lon="16.20781022504286"><ele>627.6666666666666</ele><time>2026-05-01T12:59:49Z</time></trkpt><trkpt lat="39.064485768723785" lon="16.207752854429476"><ele>628.5</ele><time>2026-05-01T12:59:50Z</time></trkpt><trkpt lat="39.064459129009805" lon="16.207673057181413"><ele>629.3333333333334</ele><time>2026-05-01T12:59:51Z</time></trkpt><trkpt lat="39.064533463075634" lon="16.20757287359443"><ele>630.1666666666667</ele><time>2026-05-01T12:59:53Z</time></trkpt><trkpt lat="39.06459810291155" lon="16.207565888744956"><ele>631.0</ele><time>2026-05-01T12:59:54Z</time></trkpt><trkpt lat="39.064664181497974" lon="16.207634885913205"><ele>631.0</ele><time>2026-05-01T12:59:55Z</time></trkpt><trkpt lat="39.064724525363005" lon="16.207700315386926"><ele>631.0</ele><time>2026-05-01T12:59:56Z</time></trkpt><trkpt lat="39.06477477720468" lon="16.207787170949363"><ele>631.0</ele><time>2026-05-01T12:59:57Z</time></trkpt><trkpt lat="39.06483217418786" lon="16.207891786060244"><ele>631.0</ele><time>2026-05-01T12:59:58Z</time></trkpt><trkpt lat="39.064893043890486" lon="16.208013297717027"><ele>631.0</ele><time>2026-05-01T12:59:59Z</time></trkpt><trkpt lat="39.06495533767171" lon="16.208143506053858"><ele>634.0</ele><time>2026-05-01T13:00:00Z</time></trkpt><trkpt lat="39.06502548355771" lon="16.208257621806663"><ele>637.0</ele><time>2026-05-01T13:00:01Z</time></trkpt><trkpt lat="39.0650726766395" lon="16.208373163326975"><ele>640.0</ele><time>2026-05-01T13:00:02Z</time></trkpt><trkpt lat="39.0651230039601" lon="16.20847794343191"><ele>643.0</ele><time>2026-05-01T13:00:03Z</time></trkpt><trkpt lat="39.06517450526641" lon="16.208555395906263"><ele>646.0</ele><time>2026-05-01T13:00:04Z</time></trkpt><trkpt lat="39.065214693092294" lon="16.208626892710523"><ele>646.0</ele><time>2026-05-01T13:00:05Z</time></trkpt><trkpt lat="39.06526166645509" lon="16.208705492367436"><ele>646.0</ele><time>2026-05-01T13:00:06Z</time></trkpt><trkpt lat="39.065306799593955" lon="16.20880547176112"><ele>646.0</ele><time>2026-05-01T13:00:07Z</time></trkpt><trkpt lat="39.0653174047504" lon="16.20893962926121"><ele>646.0</ele><time>2026-05-01T13:00:08Z</time></trkpt><trkpt lat="39.06531473612666" lon="16.209074372142684"><ele>646.0</ele><time>2026-05-01T13:00:09Z</time></trkpt><trkpt lat="39.06531189448622" lon="16.209214221963244"><ele>646.1999999999999</ele><time>2026-05-01T13:00:10Z</time></trkpt><trkpt lat="39.06532138639002" lon="16.209350581103184"><ele>646.4</ele><time>2026-05-01T13:00:11Z</time></trkpt><trkpt lat="39.06535000964839" lon="16.209483714382905"><ele>646.6</ele><time>2026-05-01T13:00:12Z</time></trkpt><trkpt lat="39.06540076704541" lon="16.209611096819533"><ele>646.8</ele><time>2026-05-01T13:00:13Z</time></trkpt><trkpt lat="39.06547077621399" lon="16.20972438336583"><ele>647.0</ele><time>2026-05-01T13:00:14Z</time></trkpt><trkpt lat="39.06554508314276" lon="16.209833136205113"><ele>648.75</ele><time>2026-05-01T13:00:15Z</time></trkpt><trkpt lat="39.06560979269611" lon="16.20994952883727"><ele>650.5</ele><time>2026-05-01T13:00:16Z</time></trkpt><trkpt lat="39.06562840097263" lon="16.21009631045444"><ele>652.25</ele><time>2026-05-01T13:00:17Z</time></trkpt><trkpt lat="39.06567644143349" lon="16.21022997777157"><ele>654.0</ele><time>2026-05-01T13:00:18Z</time></trkpt><trkpt lat="39.06572565038701" lon="16.210360858090098"><ele>655.25</ele><time>2026-05-01T13:00:19Z</time></trkpt><trkpt lat="39.06580272516491" lon="16.210474574537983"><ele>656.5</ele><time>2026-05-01T13:00:20Z</time></trkpt><trkpt lat="39.06589225133672" lon="16.21057332064304"><ele>657.75</ele><time>2026-05-01T13:00:21Z</time></trkpt><trkpt lat="39.06598316070719" lon="16.210661120597738"><ele>659.0</ele><time>2026-05-01T13:00:22Z</time></trkpt><trkpt lat="39.06607736920686" lon="16.21073960964885"><ele>659.0</ele><time>2026-05-01T13:00:23Z</time></trkpt><trkpt lat="39.06617187602097" lon="16.210810953516628"><ele>659.0</ele><time>2026-05-01T13:00:24Z</time></trkpt><trkpt lat="39.06625360667378" lon="16.210885006660497"><ele>659.0</ele><time>2026-05-01T13:00:25Z</time></trkpt><trkpt lat="39.06632072083263" lon="16.21097582024782"><ele>659.0</ele><time>2026-05-01T13:00:26Z</time></trkpt><trkpt lat="39.066347314703435" lon="16.21109719212534"><ele>659.0</ele><time>2026-05-01T13:00:27Z</time></trkpt><trkpt lat="39.066377408056994" lon="16.211224708024037"><ele>659.0</ele><time>2026-05-01T13:00:28Z</time></trkpt><trkpt lat="39.0664195455023" lon="16.21135318268373"><ele>659.0</ele><time>2026-05-01T13:00:28.999Z</time></trkpt><trkpt lat="39.06644625454368" lon="16.21149299626595"><ele>659.0</ele><time>2026-05-01T13:00:29.999Z</time></trkpt><trkpt lat="39.066478182204264" lon="16.21163240679772"><ele>659.0</ele><time>2026-05-01T13:00:30.999Z</time></trkpt><trkpt lat="39.06648191345614" lon="16.211774010142033"><ele>659.0</ele><time>2026-05-01T13:00:31.999Z</time></trkpt><trkpt lat="39.06649699974133" lon="16.211908563238246"><ele>660.2</ele><time>2026-05-01T13:00:32.999Z</time></trkpt><trkpt lat="39.06651927568474" lon="16.212040108256573"><ele>661.4000000000001</ele><time>2026-05-01T13:00:33.999Z</time></trkpt><trkpt lat="39.06652801453925" lon="16.21216967565901"><ele>662.6</ele><time>2026-05-01T13:00:34.999Z</time></trkpt><trkpt lat="39.06655943660029" lon="16.212294194965818"><ele>663.8</ele><time>2026-05-01T13:00:35.999Z</time></trkpt><trkpt lat="39.066620333948585" lon="16.212399611177602"><ele>665.0</ele><time>2026-05-01T13:00:36.999Z</time></trkpt><trkpt lat="39.06671434698464" lon="16.212479418290854"><ele>660.75</ele><time>2026-05-01T13:00:37.999Z</time></trkpt><trkpt lat="39.06682540780866" lon="16.21252001330612"><ele>656.5</ele><time>2026-05-01T13:00:38.999Z</time></trkpt><trkpt lat="39.066939365895884" lon="16.21252236549548"><ele>652.25</ele><time>2026-05-01T13:00:39.999Z</time></trkpt><trkpt lat="39.06705094140714" lon="16.212499724258585"><ele>648.0</ele><time>2026-05-01T13:00:40.999Z</time></trkpt><trkpt lat="39.067156726965436" lon="16.21247111452045"><ele>648.0</ele><time>2026-05-01T13:00:41.999Z</time></trkpt><trkpt lat="39.067261430323896" lon="16.212482994561068"><ele>648.0</ele><time>2026-05-01T13:00:42.999Z</time></trkpt><trkpt lat="39.067365847444165" lon="16.2125031921103"><ele>648.0</ele><time>2026-05-01T13:00:43.999Z</time></trkpt><trkpt lat="39.06745653668536" lon="16.212611289766297"><ele>648.0</ele><time>2026-05-01T13:00:44.999Z</time></trkpt><trkpt lat="39.067569634355294" lon="16.212676906477814"><ele>644.0</ele><time>2026-05-01T13:00:45.999Z</time></trkpt><trkpt lat="39.06767286950202" lon="16.21276170389918"><ele>640.0</ele><time>2026-05-01T13:00:46.999Z</time></trkpt><trkpt lat="39.067774593285186" lon="16.212835778567417"><ele>636.0</ele><time>2026-05-01T13:00:47.999Z</time></trkpt><trkpt lat="39.06787217898001" lon="16.21290784862206"><ele>632.0</ele><time>2026-05-01T13:00:48.999Z</time></trkpt><trkpt lat="39.06796013811409" lon="16.212993449137677"><ele>632.0</ele><time>2026-05-01T13:00:49.999Z</time></trkpt><trkpt lat="39.068016115086095" lon="16.21312129430671"><ele>632.0</ele><time>2026-05-01T13:00:50.999Z</time></trkpt><trkpt lat="39.068041429155784" lon="16.213254860279463"><ele>632.0</ele><time>2026-05-01T13:00:52Z</time></trkpt><trkpt lat="39.0680498495673" lon="16.2133969178928"><ele>632.0</ele><time>2026-05-01T13:00:53Z</time></trkpt><trkpt lat="39.06807575970285" lon="16.213541221812317"><ele>632.0</ele><time>2026-05-01T13:00:54Z</time></trkpt><trkpt lat="39.06808028092031" lon="16.21368524321394"><ele>633.0</ele><time>2026-05-01T13:00:55Z</time></trkpt><trkpt lat="39.06810847131513" lon="16.2138280878419"><ele>634.0</ele><time>2026-05-01T13:00:56Z</time></trkpt><trkpt lat="39.06815704139234" lon="16.213972566478148"><ele>635.0</ele><time>2026-05-01T13:00:57Z</time></trkpt><trkpt lat="39.06822265809494" lon="16.214108858012505"><ele>636.0</ele><time>2026-05-01T13:00:58Z</time></trkpt><trkpt lat="39.06830846315676" lon="16.21421769426853"><ele>636.0</ele><time>2026-05-01T13:00:59Z</time></trkpt><trkpt lat="39.06841588400297" lon="16.21429695219573"><ele>636.0</ele><time>2026-05-01T13:01:00Z</time></trkpt><trkpt lat="39.06853754030956" lon="16.21432293765858"><ele>636.0</ele><time>2026-05-01T13:01:01Z</time></trkpt><trkpt lat="39.06866102620216" lon="16.214313742691573"><ele>636.0</ele><time>2026-05-01T13:01:02Z</time></trkpt><trkpt lat="39.06878055882116" lon="16.214310488358205"><ele>636.0</ele><time>2026-05-01T13:01:03Z</time></trkpt><trkpt lat="39.06888827064941" lon="16.214372699300693"><ele>636.0</ele><time>2026-05-01T13:01:04Z</time></trkpt><trkpt lat="39.068995399448134" lon="16.214455124434256"><ele>636.0</ele><time>2026-05-01T13:01:05Z</time></trkpt><trkpt lat="39.069111329363686" lon="16.214533693474117"><ele>636.0</ele><time>2026-05-01T13:01:06Z</time></trkpt><trkpt lat="39.06919015472325" lon="16.214661852115047"><ele>634.75</ele><time>2026-05-01T13:01:07Z</time></trkpt><trkpt lat="39.06926865709758" lon="16.214782912488765"><ele>633.5</ele><time>2026-05-01T13:01:08Z</time></trkpt><trkpt lat="39.0693189378318" lon="16.214923589799152"><ele>632.25</ele><time>2026-05-01T13:01:09Z</time></trkpt><trkpt lat="39.069370819812065" lon="16.215075234259274"><ele>631.0</ele><time>2026-05-01T13:01:10Z</time></trkpt><trkpt lat="39.06943608089961" lon="16.215221495260938"><ele>631.0</ele><time>2026-05-01T13:01:11Z</time></trkpt><trkpt lat="39.069471000068525" lon="16.215385034435457"><ele>631.0</ele><time>2026-05-01T13:01:12Z</time></trkpt><trkpt lat="39.06953520139005" lon="16.215535764807846"><ele>631.0</ele><time>2026-05-01T13:01:13Z</time></trkpt><trkpt lat="39.069581253266506" lon="16.215696916616718"><ele>631.0</ele><time>2026-05-01T13:01:14Z</time></trkpt><trkpt lat="39.0696336211521" lon="16.215857822660066"><ele>633.75</ele><time>2026-05-01T13:01:15Z</time></trkpt><trkpt lat="39.06969189010538" lon="16.216011643159227"><ele>636.5</ele><time>2026-05-01T13:01:16Z</time></trkpt><trkpt lat="39.06975550847138" lon="16.216166386548654"><ele>639.25</ele><time>2026-05-01T13:01:17Z</time></trkpt><trkpt lat="39.06980782853089" lon="16.216327469005765"><ele>642.0</ele><time>2026-05-01T13:01:18Z</time></trkpt><trkpt lat="39.06983831772223" lon="16.216498976655963"><ele>644.25</ele><time>2026-05-01T13:01:19Z</time></trkpt><trkpt lat="39.069863469997834" lon="16.216670988822038"><ele>646.5</ele><time>2026-05-01T13:01:20Z</time></trkpt><trkpt lat="39.069895446753634" lon="16.216834644369673"><ele>648.75</ele><time>2026-05-01T13:01:21Z</time></trkpt><trkpt lat="39.06993097816975" lon="16.21699689701296"><ele>651.0</ele><time>2026-05-01T13:01:22Z</time></trkpt><trkpt lat="39.06997066158866" lon="16.217151247995794"><ele>641.75</ele><time>2026-05-01T13:01:23Z</time></trkpt><trkpt lat="39.070011520894944" lon="16.21730308954074"><ele>632.5</ele><time>2026-05-01T13:01:24Z</time></trkpt><trkpt lat="39.07005656979027" lon="16.2174600207913"><ele>623.25</ele><time>2026-05-01T13:01:25Z</time></trkpt><trkpt lat="39.07009861467024" lon="16.21762116360556"><ele>614.0</ele><time>2026-05-01T13:01:26Z</time></trkpt><trkpt lat="39.07014131217356" lon="16.21778696730108"><ele>614.0</ele><time>2026-05-01T13:01:27Z</time></trkpt><trkpt lat="39.07018195654995" lon="16.217952476935952"><ele>614.0</ele><time>2026-05-01T13:01:28Z</time></trkpt><trkpt lat="39.070223167806375" lon="16.21811994029809"><ele>614.0</ele><time>2026-05-01T13:01:29Z</time></trkpt><trkpt lat="39.0702669818691" lon="16.218284148794123"><ele>614.0</ele><time>2026-05-01T13:01:30Z</time></trkpt><trkpt lat="39.07031086580551" lon="16.21844871664833"><ele>613.75</ele><time>2026-05-01T13:01:31Z</time></trkpt><trkpt lat="39.07034217382917" lon="16.218615275647295"><ele>613.5</ele><time>2026-05-01T13:01:32Z</time></trkpt><trkpt lat="39.07035522943911" lon="16.218791173900748"><ele>613.25</ele><time>2026-05-01T13:01:33Z</time></trkpt><trkpt lat="39.07036549466628" lon="16.21896710642258"><ele>613.0</ele><time>2026-05-01T13:01:34Z</time></trkpt><trkpt lat="39.070384799323634" lon="16.219143812134067"><ele>615.0</ele><time>2026-05-01T13:01:35Z</time></trkpt><trkpt lat="39.07042128700113" lon="16.2193128949204"><ele>617.0</ele><time>2026-05-01T13:01:36Z</time></trkpt><trkpt lat="39.07047341008559" lon="16.219480450758844"><ele>619.0</ele><time>2026-05-01T13:01:37Z</time></trkpt><trkpt lat="39.07053006411903" lon="16.219642958522474"><ele>621.0</ele><time>2026-05-01T13:01:38Z</time></trkpt><trkpt lat="39.07058791346585" lon="16.219802994413033"><ele>624.25</ele><time>2026-05-01T13:01:39Z</time></trkpt><trkpt lat="39.07064394304592" lon="16.21996584202929"><ele>627.5</ele><time>2026-05-01T13:01:40Z</time></trkpt><trkpt lat="39.07069994614061" lon="16.220121301360376"><ele>630.75</ele><time>2026-05-01T13:01:41Z</time></trkpt><trkpt lat="39.07076762763008" lon="16.22026295879088"><ele>634.0</ele><time>2026-05-01T13:01:42Z</time></trkpt><trkpt lat="39.07086117995223" lon="16.22037443522816"><ele>624.75</ele><time>2026-05-01T13:01:43Z</time></trkpt><trkpt lat="39.07097639927257" lon="16.22045501206869"><ele>615.5</ele><time>2026-05-01T13:01:44Z</time></trkpt><trkpt lat="39.071094042855336" lon="16.220516459258665"><ele>606.25</ele><time>2026-05-01T13:01:45Z</time></trkpt><trkpt lat="39.0712083037809" lon="16.220570793878025"><ele>597.0</ele><time>2026-05-01T13:01:46Z</time></trkpt><trkpt lat="39.071319487214026" lon="16.220624493784054"><ele>595.25</ele><time>2026-05-01T13:01:47Z</time></trkpt><trkpt lat="39.07142880497564" lon="16.220688022139868"><ele>593.5</ele><time>2026-05-01T13:01:48Z</time></trkpt><trkpt lat="39.07153089101781" lon="16.220755272540973"><ele>591.75</ele><time>2026-05-01T13:01:49Z</time></trkpt><trkpt lat="39.07163207810186" lon="16.220835720122885"><ele>590.0</ele><time>2026-05-01T13:01:50Z</time></trkpt><trkpt lat="39.07172818685817" lon="16.22093609008709"><ele>590.0</ele><time>2026-05-01T13:01:51Z</time></trkpt><trkpt lat="39.07180376473392" lon="16.221069777288367"><ele>590.0</ele><time>2026-05-01T13:01:52Z</time></trkpt><trkpt lat="39.0718852531321" lon="16.22120361298353"><ele>590.0</ele><time>2026-05-01T13:01:53Z</time></trkpt><trkpt lat="39.07197698862301" lon="16.221331347823693"><ele>590.0</ele><time>2026-05-01T13:01:54Z</time></trkpt><trkpt lat="39.072056301089724" lon="16.22147533900702"><ele>594.25</ele><time>2026-05-01T13:01:55Z</time></trkpt><trkpt lat="39.072135982013215" lon="16.221609328744986"><ele>598.5</ele><time>2026-05-01T13:01:56Z</time></trkpt><trkpt lat="39.07222486918779" lon="16.22173679290352"><ele>602.75</ele><time>2026-05-01T13:01:57Z</time></trkpt><trkpt lat="39.0723172197318" lon="16.221859124213317"><ele>607.0</ele><time>2026-05-01T13:01:58Z</time></trkpt><trkpt lat="39.07240491303313" lon="16.221984298484916"><ele>605.0</ele><time>2026-05-01T13:01:59Z</time></trkpt><trkpt lat="39.072499773084886" lon="16.222112154356157"><ele>603.0</ele><time>2026-05-01T13:02:00Z</time></trkpt><trkpt lat="39.07259118245302" lon="16.22223821426906"><ele>601.0</ele><time>2026-05-01T13:02:01Z</time></trkpt><trkpt lat="39.07268430521847" lon="16.22236492252722"><ele>599.0</ele><time>2026-05-01T13:02:02Z</time></trkpt><trkpt lat="39.072780745394645" lon="16.222479337067433"><ele>599.0</ele><time>2026-05-01T13:02:03Z</time></trkpt><trkpt lat="39.07289097454309" lon="16.22257751872383"><ele>599.0</ele><time>2026-05-01T13:02:04Z</time></trkpt><trkpt lat="39.07301150877557" lon="16.222658037029976"><ele>599.0</ele><time>2026-05-01T13:02:05Z</time></trkpt><trkpt lat="39.07312279413543" lon="16.222749360638108"><ele>599.0</ele><time>2026-05-01T13:02:06Z</time></trkpt><trkpt lat="39.07322444259994" lon="16.222858187859835"><ele>595.5</ele><time>2026-05-01T13:02:07Z</time></trkpt><trkpt lat="39.07332076685948" lon="16.222969940957775"><ele>592.0</ele><time>2026-05-01T13:02:08Z</time></trkpt><trkpt lat="39.07341646782736" lon="16.22308100749585"><ele>588.5</ele><time>2026-05-01T13:02:09Z</time></trkpt><trkpt lat="39.0735093960662" lon="16.22319745875289"><ele>585.0</ele><time>2026-05-01T13:02:10Z</time></trkpt><trkpt lat="39.073579942953984" lon="16.223341094418416"><ele>585.0</ele><time>2026-05-01T13:02:11Z</time></trkpt><trkpt lat="39.073644580224325" lon="16.22349258722781"><ele>585.0</ele><time>2026-05-01T13:02:12Z</time></trkpt><trkpt lat="39.0737021782323" lon="16.223651430750948"><ele>585.0</ele><time>2026-05-01T13:02:13Z</time></trkpt><trkpt lat="39.07372361173372" lon="16.223809907164885"><ele>585.0</ele><time>2026-05-01T13:02:14Z</time></trkpt><trkpt lat="39.073726937352845" lon="16.223975865149313"><ele>585.75</ele><time>2026-05-01T13:02:15Z</time></trkpt><trkpt lat="39.07371444866961" lon="16.22413791505357"><ele>586.5</ele><time>2026-05-01T13:02:16Z</time></trkpt><trkpt lat="39.073684105144835" lon="16.224295280390876"><ele>587.25</ele><time>2026-05-01T13:02:17Z</time></trkpt><trkpt lat="39.073627179142356" lon="16.224431123424537"><ele>588.0</ele><time>2026-05-01T13:02:18Z</time></trkpt><trkpt lat="39.07354674276807" lon="16.22455169396063"><ele>588.0</ele><time>2026-05-01T13:02:19Z</time></trkpt><trkpt lat="39.07346801471505" lon="16.22467744684869"><ele>588.0</ele><time>2026-05-01T13:02:20Z</time></trkpt><trkpt lat="39.07338576141361" lon="16.224791162177038"><ele>588.0</ele><time>2026-05-01T13:02:21Z</time></trkpt><trkpt lat="39.07329316156385" lon="16.224881700754626"><ele>588.0</ele><time>2026-05-01T13:02:22Z</time></trkpt><trkpt lat="39.07322465813969" lon="16.224971568876356"><ele>589.8333333333334</ele><time>2026-05-01T13:02:23Z</time></trkpt><trkpt lat="39.07317341718444" lon="16.225048829849047"><ele>591.6666666666666</ele><time>2026-05-01T13:02:24Z</time></trkpt><trkpt lat="39.07316314541338" lon="16.22514422587604"><ele>593.5</ele><time>2026-05-01T13:02:25Z</time></trkpt><trkpt lat="39.07318566706983" lon="16.225248515442726"><ele>595.3333333333333</ele><time>2026-05-01T13:02:26Z</time></trkpt><trkpt lat="39.073237798113226" lon="16.22533064403112"><ele>597.1666666666666</ele><time>2026-05-01T13:02:27Z</time></trkpt><trkpt lat="39.073313785352525" lon="16.22539511786949"><ele>599.0</ele><time>2026-05-01T13:02:28Z</time></trkpt><trkpt lat="39.07340654107899" lon="16.225442964400642"><ele>595.4</ele><time>2026-05-01T13:02:29Z</time></trkpt><trkpt lat="39.073513064892225" lon="16.22548389127841"><ele>591.8</ele><time>2026-05-01T13:02:30Z</time></trkpt><trkpt lat="39.07361034901737" lon="16.225531200402692"><ele>588.2</ele><time>2026-05-01T13:02:31Z</time></trkpt><trkpt lat="39.0736959541877" lon="16.22558604885603"><ele>584.6</ele><time>2026-05-01T13:02:32Z</time></trkpt><trkpt lat="39.07375481929509" lon="16.225690257765457"><ele>581.0</ele><time>2026-05-01T13:02:33Z</time></trkpt><trkpt lat="39.0738108879085" lon="16.225808920016373"><ele>581.0</ele><time>2026-05-01T13:02:34Z</time></trkpt><trkpt lat="39.073891990500556" lon="16.225940688293473"><ele>581.0</ele><time>2026-05-01T13:02:35Z</time></trkpt><trkpt lat="39.07394951060728" lon="16.22606922173045"><ele>581.0</ele><time>2026-05-01T13:02:36Z</time></trkpt><trkpt lat="39.074007146491525" lon="16.226196341644812"><ele>581.0</ele><time>2026-05-01T13:02:36.999Z</time></trkpt><trkpt lat="39.074065764209365" lon="16.226320662428773"><ele>576.0</ele><time>2026-05-01T13:02:37.999Z</time></trkpt><trkpt lat="39.07411538019427" lon="16.22644459238375"><ele>571.0</ele><time>2026-05-01T13:02:38.999Z</time></trkpt><trkpt lat="39.07415760396101" lon="16.22657046820728"><ele>566.0</ele><time>2026-05-01T13:02:39.999Z</time></trkpt><trkpt lat="39.07420001902866" lon="16.226693169285728"><ele>561.0</ele><time>2026-05-01T13:02:40.999Z</time></trkpt><trkpt lat="39.07424039521671" lon="16.226796902017014"><ele>556.0</ele><time>2026-05-01T13:02:41.999Z</time></trkpt><trkpt lat="39.074280399301244" lon="16.22687100152886"><ele>556.0</ele><time>2026-05-01T13:02:42.999Z</time></trkpt><trkpt lat="39.07434043814372" lon="16.22690390973983"><ele>556.0</ele><time>2026-05-01T13:02:43.999Z</time></trkpt><trkpt lat="39.07441334264997" lon="16.22690025048012"><ele>556.0</ele><time>2026-05-01T13:02:44.999Z</time></trkpt><trkpt lat="39.07449294186362" lon="16.22686458560317"><ele>556.0</ele><time>2026-05-01T13:02:45.999Z</time></trkpt><trkpt lat="39.07460434732106" lon="16.22697090749484"><ele>556.0</ele><time>2026-05-01T13:02:46.999Z</time></trkpt><trkpt lat="39.07469663563481" lon="16.227050840691444"><ele>556.0</ele><time>2026-05-01T13:02:47.999Z</time></trkpt><trkpt lat="39.07478741424232" lon="16.22713758842944"><ele>556.0</ele><time>2026-05-01T13:02:48.999Z</time></trkpt><trkpt lat="39.07487562396581" lon="16.227243041594026"><ele>556.0</ele><time>2026-05-01T13:02:49.999Z</time></trkpt><trkpt lat="39.07494731228956" lon="16.22737354578622"><ele>556.0</ele><time>2026-05-01T13:02:50.999Z</time></trkpt><trkpt lat="39.07499837174302" lon="16.22752633903543"><ele>554.25</ele><time>2026-05-01T13:02:51.999Z</time></trkpt><trkpt lat="39.07503555570302" lon="16.22768498485363"><ele>552.5</ele><time>2026-05-01T13:02:52.999Z</time></trkpt><trkpt lat="39.075064708238294" lon="16.227843778323205"><ele>550.75</ele><time>2026-05-01T13:02:53.999Z</time></trkpt><trkpt lat="39.075094925134046" lon="16.22800315262636"><ele>549.0</ele><time>2026-05-01T13:02:54.999Z</time></trkpt><trkpt lat="39.07512695080944" lon="16.2281623132685"><ele>549.0</ele><time>2026-05-01T13:02:55.999Z</time></trkpt><trkpt lat="39.075160746906526" lon="16.22832501971203"><ele>549.0</ele><time>2026-05-01T13:02:56.999Z</time></trkpt><trkpt lat="39.07519283086799" lon="16.228488507439675"><ele>549.0</ele><time>2026-05-01T13:02:58Z</time></trkpt><trkpt lat="39.07523140208409" lon="16.228648145850055"><ele>549.0</ele><time>2026-05-01T13:02:59Z</time></trkpt><trkpt lat="39.07528304692927" lon="16.228799741664133"><ele>549.0</ele><time>2026-05-01T13:03:00Z</time></trkpt><trkpt lat="39.07534961964157" lon="16.22894675720118"><ele>549.0</ele><time>2026-05-01T13:03:01Z</time></trkpt><trkpt lat="39.075438814879455" lon="16.229064238389277"><ele>549.0</ele><time>2026-05-01T13:03:02Z</time></trkpt><trkpt lat="39.07553518082602" lon="16.229173077343873"><ele>549.0</ele><time>2026-05-01T13:03:03Z</time></trkpt><trkpt lat="39.07562320688595" lon="16.229288136295896"><ele>550.5</ele><time>2026-05-01T13:03:04Z</time></trkpt><trkpt lat="39.07570664910271" lon="16.22940513760271"><ele>552.0</ele><time>2026-05-01T13:03:05Z</time></trkpt><trkpt lat="39.07577706708852" lon="16.229525594368436"><ele>553.5</ele><time>2026-05-01T13:03:06Z</time></trkpt><trkpt lat="39.07580412854393" lon="16.22967168846635"><ele>555.0</ele><time>2026-05-01T13:03:07Z</time></trkpt><trkpt lat="39.07582127718731" lon="16.229817810122363"><ele>550.6</ele><time>2026-05-01T13:03:08Z</time></trkpt><trkpt lat="39.07585460666807" lon="16.22996254220629"><ele>546.2</ele><time>2026-05-01T13:03:09Z</time></trkpt><trkpt lat="39.07590758238447" lon="16.23008564502279"><ele>541.8</ele><time>2026-05-01T13:03:10Z</time></trkpt><trkpt lat="39.075964192122775" lon="16.230194222248592"><ele>537.4</ele><time>2026-05-01T13:03:11Z</time></trkpt><trkpt lat="39.076013101990185" lon="16.230292101923194"><ele>533.0</ele><time>2026-05-01T13:03:12Z</time></trkpt><trkpt lat="39.07599917952522" lon="16.230393946720525"><ele>533.0</ele><time>2026-05-01T13:03:13Z</time></trkpt><trkpt lat="39.07595658770691" lon="16.230460040384166"><ele>533.0</ele><time>2026-05-01T13:03:14Z</time></trkpt><trkpt lat="39.075899601893546" lon="16.23050846713305"><ele>533.0</ele><time>2026-05-01T13:03:15Z</time></trkpt><trkpt lat="39.07580783175888" lon="16.23052477667236"><ele>533.0</ele><time>2026-05-01T13:03:16Z</time></trkpt><trkpt lat="39.07572549268648" lon="16.230577700096056"><ele>533.0</ele><time>2026-05-01T13:03:17Z</time></trkpt><trkpt lat="39.075651490372955" lon="16.230651910670833"><ele>533.0</ele><time>2026-05-01T13:03:18Z</time></trkpt><trkpt lat="39.07558666095954" lon="16.230735403772997"><ele>534.0</ele><time>2026-05-01T13:03:19Z</time></trkpt><trkpt lat="39.07553662256663" lon="16.230824176770703"><ele>535.0</ele><time>2026-05-01T13:03:20Z</time></trkpt><trkpt lat="39.07549235559942" lon="16.230919826007675"><ele>536.0</ele><time>2026-05-01T13:03:21Z</time></trkpt><trkpt lat="39.07543994397122" lon="16.23101176841118"><ele>537.0</ele><time>2026-05-01T13:03:22Z</time></trkpt><trkpt lat="39.07540189203938" lon="16.231104776807157"><ele>538.0</ele><time>2026-05-01T13:03:23Z</time></trkpt><trkpt lat="39.07535328522845" lon="16.231197367992195"><ele>539.0</ele><time>2026-05-01T13:03:24Z</time></trkpt><trkpt lat="39.075305101219314" lon="16.23128343022207"><ele>539.0</ele><time>2026-05-01T13:03:25Z</time></trkpt><trkpt lat="39.07525266699408" lon="16.23137737211903"><ele>539.0</ele><time>2026-05-01T13:03:26Z</time></trkpt><trkpt lat="39.07519951413934" lon="16.23146992797795"><ele>539.0</ele><time>2026-05-01T13:03:27Z</time></trkpt><trkpt lat="39.07514810698277" lon="16.231567321494804"><ele>539.0</ele><time>2026-05-01T13:03:28Z</time></trkpt><trkpt lat="39.075096447500734" lon="16.231661165601103"><ele>539.0</ele><time>2026-05-01T13:03:29Z</time></trkpt><trkpt lat="39.075044300108075" lon="16.23175750881339"><ele>540.5</ele><time>2026-05-01T13:03:30Z</time></trkpt><trkpt lat="39.074992325416346" lon="16.231850530407787"><ele>542.0</ele><time>2026-05-01T13:03:31Z</time></trkpt><trkpt lat="39.07494043462726" lon="16.231944338493737"><ele>543.5</ele><time>2026-05-01T13:03:32Z</time></trkpt><trkpt lat="39.07489229986909" lon="16.23203615414937"><ele>545.0</ele><time>2026-05-01T13:03:33Z</time></trkpt><trkpt lat="39.074849013808596" lon="16.232123297316583"><ele>546.5</ele><time>2026-05-01T13:03:34Z</time></trkpt><trkpt lat="39.07480301951496" lon="16.232209367817276"><ele>548.0</ele><time>2026-05-01T13:03:35Z</time></trkpt><trkpt lat="39.074759150348754" lon="16.23229082268033"><ele>546.1666666666666</ele><time>2026-05-01T13:03:36Z</time></trkpt><trkpt lat="39.074710282555756" lon="16.232377244121782"><ele>544.3333333333333</ele><time>2026-05-01T13:03:37Z</time></trkpt><trkpt lat="39.0746605997362" lon="16.232463127779805"><ele>542.5</ele><time>2026-05-01T13:03:38Z</time></trkpt><trkpt lat="39.07460859094595" lon="16.232545751592475"><ele>540.6666666666666</ele><time>2026-05-01T13:03:39Z</time></trkpt><trkpt lat="39.07455792171947" lon="16.232635906392893"><ele>538.8333333333334</ele><time>2026-05-01T13:03:40Z</time></trkpt><trkpt lat="39.074510033760816" lon="16.232725645451854"><ele>537.0</ele><time>2026-05-01T13:03:41Z</time></trkpt><trkpt lat="39.07446315551705" lon="16.23281055670288"><ele>536.9999999999999</ele><time>2026-05-01T13:03:42Z</time></trkpt><trkpt lat="39.07442068245752" lon="16.232893340244217"><ele>537.0</ele><time>2026-05-01T13:03:43Z</time></trkpt><trkpt lat="39.07437936979845" lon="16.232973007208038"><ele>537.0</ele><time>2026-05-01T13:03:44Z</time></trkpt><trkpt lat="39.07433729016638" lon="16.233050273165205"><ele>537.0</ele><time>2026-05-01T13:03:45Z</time></trkpt><trkpt lat="39.07429602929091" lon="16.23312552593188"><ele>537.0</ele><time>2026-05-01T13:03:46Z</time></trkpt><trkpt lat="39.07425677195538" lon="16.233201807449912"><ele>536.9999999999999</ele><time>2026-05-01T13:03:47Z</time></trkpt><trkpt lat="39.07422160762813" lon="16.233270748201612"><ele>537.0</ele><time>2026-05-01T13:03:48Z</time></trkpt><trkpt lat="39.074185446402325" lon="16.233345277708327"><ele>537.5714285714286</ele><time>2026-05-01T13:03:49Z</time></trkpt><trkpt lat="39.0741542474693" lon="16.233424561067896"><ele>538.1428571428571</ele><time>2026-05-01T13:03:50Z</time></trkpt><trkpt lat="39.07412453184328" lon="16.233505448993828"><ele>538.7142857142858</ele><time>2026-05-01T13:03:51Z</time></trkpt><trkpt lat="39.0740918591451" lon="16.2335855349684"><ele>539.2857142857142</ele><time>2026-05-01T13:03:52Z</time></trkpt><trkpt lat="39.07406107083745" lon="16.233663669423468"><ele>539.8571428571429</ele><time>2026-05-01T13:03:53Z</time></trkpt><trkpt lat="39.07402620081393" lon="16.233746079884433"><ele>540.4285714285714</ele><time>2026-05-01T13:03:54Z</time></trkpt><trkpt lat="39.0739899707592" lon="16.233831057013013"><ele>541.0</ele><time>2026-05-01T13:03:55Z</time></trkpt><trkpt lat="39.07396110192337" lon="16.233916056495346"><ele>539.0000000000001</ele><time>2026-05-01T13:03:56Z</time></trkpt><trkpt lat="39.07393258793467" lon="16.233997145090164"><ele>537.0</ele><time>2026-05-01T13:03:57Z</time></trkpt><trkpt lat="39.07391514214251" lon="16.23408991342934"><ele>535.0</ele><time>2026-05-01T13:03:58Z</time></trkpt><trkpt lat="39.073895316684336" lon="16.23418176289249"><ele>533.0</ele><time>2026-05-01T13:03:59Z</time></trkpt><trkpt lat="39.0738775102833" lon="16.23427364348192"><ele>531.0</ele><time>2026-05-01T13:04:00Z</time></trkpt><trkpt lat="39.073844065267515" lon="16.2343622007783"><ele>529.0000000000001</ele><time>2026-05-01T13:04:01Z</time></trkpt><trkpt lat="39.07381316971794" lon="16.234447463342732"><ele>527.0</ele><time>2026-05-01T13:04:02Z</time></trkpt><trkpt lat="39.07376877154323" lon="16.23453324407458"><ele>527.0</ele><time>2026-05-01T13:04:03Z</time></trkpt><trkpt lat="39.07372594538381" lon="16.234612536387502"><ele>527.0</ele><time>2026-05-01T13:04:04Z</time></trkpt><trkpt lat="39.073687702664444" lon="16.234680266827738"><ele>527.0</ele><time>2026-05-01T13:04:05Z</time></trkpt><trkpt lat="39.073673244761714" lon="16.23482735890807"><ele>527.0</ele><time>2026-05-01T13:04:07Z</time></trkpt><trkpt lat="39.07373756862446" lon="16.23495518532369"><ele>527.0</ele><time>2026-05-01T13:04:09Z</time></trkpt><trkpt lat="39.07385652475782" lon="16.234923822940658"><ele>527.0</ele><time>2026-05-01T13:04:11Z</time></trkpt><trkpt lat="39.073940361923604" lon="16.234803422152243"><ele>527.0</ele><time>2026-05-01T13:04:13Z</time></trkpt><trkpt lat="39.07397978197109" lon="16.23473893634121"><ele>527.0</ele><time>2026-05-01T13:04:14Z</time></trkpt><trkpt lat="39.07402326583969" lon="16.23467058594948"><ele>527.0</ele><time>2026-05-01T13:04:15Z</time></trkpt><trkpt lat="39.074063662743754" lon="16.234604911351116"><ele>527.0</ele><time>2026-05-01T13:04:16Z</time></trkpt><trkpt lat="39.074105991274735" lon="16.234536446636895"><ele>527.0</ele><time>2026-05-01T13:04:17Z</time></trkpt><trkpt lat="39.074145951064736" lon="16.234468168249435"><ele>524.8571428571429</ele><time>2026-05-01T13:04:18Z</time></trkpt><trkpt lat="39.07418350062157" lon="16.234399069020245"><ele>522.7142857142858</ele><time>2026-05-01T13:04:19Z</time></trkpt><trkpt lat="39.074223388368566" lon="16.234333791000356"><ele>520.5714285714286</ele><time>2026-05-01T13:04:20Z</time></trkpt><trkpt lat="39.07426744399406" lon="16.234275125467445"><ele>518.4285714285714</ele><time>2026-05-01T13:04:21Z</time></trkpt><trkpt lat="39.07432198726966" lon="16.23423034681151"><ele>516.2857142857142</ele><time>2026-05-01T13:04:22Z</time></trkpt><trkpt lat="39.0743849707011" lon="16.234197982475056"><ele>514.1428571428571</ele><time>2026-05-01T13:04:23Z</time></trkpt><trkpt lat="39.07444822084916" lon="16.234179822217875"><ele>512.0</ele><time>2026-05-01T13:04:24Z</time></trkpt><trkpt lat="39.07451278363199" lon="16.23415772914279"><ele>512.0</ele><time>2026-05-01T13:04:25Z</time></trkpt><trkpt lat="39.07457431168258" lon="16.234117795100016"><ele>511.99999999999994</ele><time>2026-05-01T13:04:26Z</time></trkpt><trkpt lat="39.07463341687103" lon="16.234063424437963"><ele>512.0</ele><time>2026-05-01T13:04:27Z</time></trkpt><trkpt lat="39.074686768784545" lon="16.233999692450993"><ele>512.0</ele><time>2026-05-01T13:04:28Z</time></trkpt><trkpt lat="39.07473983446683" lon="16.233930424747047"><ele>511.99999999999994</ele><time>2026-05-01T13:04:29Z</time></trkpt><trkpt lat="39.07479088054293" lon="16.233865485515967"><ele>512.0</ele><time>2026-05-01T13:04:30Z</time></trkpt><trkpt lat="39.074843799565144" lon="16.233796919828862"><ele>512.0</ele><time>2026-05-01T13:04:31Z</time></trkpt><trkpt lat="39.07489485053486" lon="16.233726626080685"><ele>511.2857142857143</ele><time>2026-05-01T13:04:32Z</time></trkpt><trkpt lat="39.07494780433245" lon="16.23365987923989"><ele>510.57142857142856</ele><time>2026-05-01T13:04:33Z</time></trkpt><trkpt lat="39.07499863237521" lon="16.233591571802844"><ele>509.85714285714283</ele><time>2026-05-01T13:04:34Z</time></trkpt><trkpt lat="39.07504428213673" lon="16.233516544048477"><ele>509.1428571428571</ele><time>2026-05-01T13:04:35Z</time></trkpt><trkpt lat="39.075083579621875" lon="16.233442355706615"><ele>508.42857142857144</ele><time>2026-05-01T13:04:36Z</time></trkpt><trkpt lat="39.0751212864863" lon="16.23336826633148"><ele>507.71428571428567</ele><time>2026-05-01T13:04:37Z</time></trkpt><trkpt lat="39.07515635151814" lon="16.23329607616615"><ele>507.0</ele><time>2026-05-01T13:04:38Z</time></trkpt><trkpt lat="39.075193251175605" lon="16.233229117287525"><ele>507.0</ele><time>2026-05-01T13:04:39Z</time></trkpt><trkpt lat="39.075232946107924" lon="16.233157288376944"><ele>507.0</ele><time>2026-05-01T13:04:40Z</time></trkpt><trkpt lat="39.075306048980615" lon="16.233022329319756"><ele>507.0</ele><time>2026-05-01T13:04:42Z</time></trkpt><trkpt lat="39.075338986579446" lon="16.23295265040607"><ele>507.0</ele><time>2026-05-01T13:04:43Z</time></trkpt><trkpt lat="39.07537584771499" lon="16.23288455596774"><ele>507.0</ele><time>2026-05-01T13:04:44Z</time></trkpt><trkpt lat="39.07545859164086" lon="16.232770412027843"><ele>507.0</ele><time>2026-05-01T13:04:45.999Z</time></trkpt><trkpt lat="39.075572398656355" lon="16.232712560328444"><ele>505.57142857142856</ele><time>2026-05-01T13:04:47.999Z</time></trkpt><trkpt lat="39.07563778173065" lon="16.23269866024959"><ele>504.14285714285717</ele><time>2026-05-01T13:04:48.999Z</time></trkpt><trkpt lat="39.07570230229729" lon="16.232683136226427"><ele>502.7142857142857</ele><time>2026-05-01T13:04:49.999Z</time></trkpt><trkpt lat="39.075766792145565" lon="16.232655025601655"><ele>501.2857142857143</ele><time>2026-05-01T13:04:50.999Z</time></trkpt><trkpt lat="39.0758233162288" lon="16.232606464882817"><ele>499.8571428571429</ele><time>2026-05-01T13:04:51.999Z</time></trkpt><trkpt lat="39.075867093431434" lon="16.232542965993982"><ele>498.42857142857144</ele><time>2026-05-01T13:04:52.999Z</time></trkpt><trkpt lat="39.07590594572658" lon="16.232475288373642"><ele>497.0</ele><time>2026-05-01T13:04:53.999Z</time></trkpt><trkpt lat="39.07595247657025" lon="16.232396976448307"><ele>496.99999999999994</ele><time>2026-05-01T13:04:54.999Z</time></trkpt><trkpt lat="39.075997282386375" lon="16.232315255809468"><ele>497.0</ele><time>2026-05-01T13:04:55.999Z</time></trkpt><trkpt lat="39.076040230790554" lon="16.232231832480302"><ele>497.0</ele><time>2026-05-01T13:04:56.999Z</time></trkpt><trkpt lat="39.07608183538543" lon="16.232148714871528"><ele>497.0</ele><time>2026-05-01T13:04:57.999Z</time></trkpt><trkpt lat="39.07612491160501" lon="16.232071964189462"><ele>496.99999999999994</ele><time>2026-05-01T13:04:58.999Z</time></trkpt><trkpt lat="39.076166343627804" lon="16.231994531359625"><ele>497.0</ele><time>2026-05-01T13:04:59.999Z</time></trkpt><trkpt lat="39.07620449005672" lon="16.23191390638907"><ele>498.57142857142856</ele><time>2026-05-01T13:05:00.999Z</time></trkpt><trkpt lat="39.076244303904666" lon="16.231837473742754"><ele>500.1428571428571</ele><time>2026-05-01T13:05:01.999Z</time></trkpt><trkpt lat="39.076285866815354" lon="16.231762611657402"><ele>501.7142857142857</ele><time>2026-05-01T13:05:02.999Z</time></trkpt><trkpt lat="39.07632613826867" lon="16.23168463061371"><ele>503.2857142857143</ele><time>2026-05-01T13:05:04Z</time></trkpt><trkpt lat="39.07637331468989" lon="16.2316104123347"><ele>504.85714285714283</ele><time>2026-05-01T13:05:05Z</time></trkpt><trkpt lat="39.076422531172504" lon="16.231543191276067"><ele>506.42857142857144</ele><time>2026-05-01T13:05:06Z</time></trkpt><trkpt lat="39.076499695685214" lon="16.231502456913123"><ele>508.0</ele><time>2026-05-01T13:05:07Z</time></trkpt><trkpt lat="39.076563447638726" lon="16.23143300441617"><ele>506.4</ele><time>2026-05-01T13:05:08Z</time></trkpt><trkpt lat="39.07664047541145" lon="16.231378269494563"><ele>504.79999999999995</ele><time>2026-05-01T13:05:09Z</time></trkpt><trkpt lat="39.07672284263584" lon="16.231312974526524"><ele>503.2</ele><time>2026-05-01T13:05:10Z</time></trkpt><trkpt lat="39.076797814688256" lon="16.2312422474555"><ele>501.6</ele><time>2026-05-01T13:05:11Z</time></trkpt><trkpt lat="39.07686828722267" lon="16.231151590712564"><ele>500.0</ele><time>2026-05-01T13:05:12Z</time></trkpt><trkpt lat="39.07693152773422" lon="16.23104798391974"><ele>500.0</ele><time>2026-05-01T13:05:13Z</time></trkpt><trkpt lat="39.07699494648487" lon="16.230936759670318"><ele>500.0</ele><time>2026-05-01T13:05:14Z</time></trkpt><trkpt lat="39.07705668950628" lon="16.230820098820853"><ele>500.0</ele><time>2026-05-01T13:05:15Z</time></trkpt><trkpt lat="39.07711132485688" lon="16.230697042649666"><ele>500.0</ele><time>2026-05-01T13:05:16Z</time></trkpt><trkpt lat="39.07716044594763" lon="16.230559548596318"><ele>500.0</ele><time>2026-05-01T13:05:17Z</time></trkpt><trkpt lat="39.077193400652085" lon="16.23042066673855"><ele>500.5</ele><time>2026-05-01T13:05:18Z</time></trkpt><trkpt lat="39.077220286491084" lon="16.230275204778287"><ele>501.0</ele><time>2026-05-01T13:05:19Z</time></trkpt><trkpt lat="39.07724595586029" lon="16.23013364927054"><ele>501.5</ele><time>2026-05-01T13:05:20Z</time></trkpt><trkpt lat="39.07727492353679" lon="16.229991260362333"><ele>502.0</ele><time>2026-05-01T13:05:21Z</time></trkpt><trkpt lat="39.07729843637921" lon="16.229853767855996"><ele>502.20000000000005</ele><time>2026-05-01T13:05:22Z</time></trkpt><trkpt lat="39.077323156115916" lon="16.229711199047102"><ele>502.40000000000003</ele><time>2026-05-01T13:05:23Z</time></trkpt><trkpt lat="39.077342387380824" lon="16.229571195043338"><ele>502.59999999999997</ele><time>2026-05-01T13:05:24Z</time></trkpt><trkpt lat="39.07736771615052" lon="16.229429324254077"><ele>502.79999999999995</ele><time>2026-05-01T13:05:25Z</time></trkpt><trkpt lat="39.07739203288676" lon="16.229291368420004"><ele>503.0</ele><time>2026-05-01T13:05:26Z</time></trkpt><trkpt lat="39.07741856981364" lon="16.229151579655547"><ele>497.4</ele><time>2026-05-01T13:05:27Z</time></trkpt><trkpt lat="39.07744311241102" lon="16.229011762989725"><ele>491.79999999999995</ele><time>2026-05-01T13:05:28Z</time></trkpt><trkpt lat="39.0774697556154" lon="16.22887363885413"><ele>486.2</ele><time>2026-05-01T13:05:29Z</time></trkpt><trkpt lat="39.07748940299302" lon="16.22873637010509"><ele>480.6</ele><time>2026-05-01T13:05:30Z</time></trkpt><trkpt lat="39.07751060302293" lon="16.22859901306121"><ele>475.0</ele><time>2026-05-01T13:05:31Z</time></trkpt><trkpt lat="39.07753455911348" lon="16.228471612352894"><ele>475.0</ele><time>2026-05-01T13:05:32Z</time></trkpt><trkpt lat="39.077559470630945" lon="16.228340912461857"><ele>475.0</ele><time>2026-05-01T13:05:33Z</time></trkpt><trkpt lat="39.077576866913" lon="16.22822302764191"><ele>475.0</ele><time>2026-05-01T13:05:34Z</time></trkpt><trkpt lat="39.077582281511766" lon="16.22811433528824"><ele>475.0</ele><time>2026-05-01T13:05:35Z</time></trkpt><trkpt lat="39.07755955892331" lon="16.228013190088873"><ele>475.0</ele><time>2026-05-01T13:05:36Z</time></trkpt><trkpt lat="39.077518564205505" lon="16.22791121977771"><ele>473.1666666666667</ele><time>2026-05-01T13:05:37Z</time></trkpt><trkpt lat="39.07747765765014" lon="16.22782082612578"><ele>471.33333333333337</ele><time>2026-05-01T13:05:38Z</time></trkpt><trkpt lat="39.077440112330855" lon="16.227736683700293"><ele>469.5</ele><time>2026-05-01T13:05:39Z</time></trkpt><trkpt lat="39.07741185647011" lon="16.227648547771647"><ele>467.66666666666663</ele><time>2026-05-01T13:05:40Z</time></trkpt><trkpt lat="39.07736347043884" lon="16.227517880282818"><ele>465.8333333333333</ele><time>2026-05-01T13:05:42Z</time></trkpt><trkpt lat="39.07733735104705" lon="16.227443014060217"><ele>464.0</ele><time>2026-05-01T13:05:44Z</time></trkpt><trkpt lat="39.07730360747763" lon="16.22734609741244"><ele>468.2</ele><time>2026-05-01T13:07:16Z</time></trkpt><trkpt lat="39.0772681504537" lon="16.227264452101583"><ele>472.4</ele><time>2026-05-01T13:07:18Z</time></trkpt><trkpt lat="39.077225155497835" lon="16.2271763125018"><ele>476.6</ele><time>2026-05-01T13:07:20Z</time></trkpt><trkpt lat="39.077191641611996" lon="16.227063845844818"><ele>480.8</ele><time>2026-05-01T13:07:22Z</time></trkpt><trkpt lat="39.07714470440449" lon="16.22694472420061"><ele>485.0</ele><time>2026-05-01T13:07:24Z</time></trkpt><trkpt lat="39.077086634865324" lon="16.226810845524533"><ele>484.99999999999994</ele><time>2026-05-01T13:07:26Z</time></trkpt><trkpt lat="39.07705831437076" lon="16.22673742018233"><ele>485.0</ele><time>2026-05-01T13:07:27Z</time></trkpt><trkpt lat="39.07702977340017" lon="16.22666118322534"><ele>485.0</ele><time>2026-05-01T13:07:28Z</time></trkpt><trkpt lat="39.07700067104241" lon="16.226584447988362"><ele>485.0</ele><time>2026-05-01T13:07:29Z</time></trkpt><trkpt lat="39.07695203617197" lon="16.22645163338466"><ele>484.99999999999994</ele><time>2026-05-01T13:07:31Z</time></trkpt><trkpt lat="39.07691214049736" lon="16.226346056665832"><ele>485.0</ele><time>2026-05-01T13:07:33Z</time></trkpt><trkpt lat="39.07686992252222" lon="16.226259525655045"><ele>480.99999999999994</ele><time>2026-05-01T13:07:35Z</time></trkpt><trkpt lat="39.076812059904604" lon="16.226183497789513"><ele>477.0</ele><time>2026-05-01T13:07:37Z</time></trkpt><trkpt lat="39.07675559955514" lon="16.22611384252946"><ele>473.0</ele><time>2026-05-01T13:07:39Z</time></trkpt><trkpt lat="39.07670285906512" lon="16.22604878238811"><ele>469.0</ele><time>2026-05-01T13:07:41Z</time></trkpt><trkpt lat="39.076663100674416" lon="16.225973350345246"><ele>464.99999999999994</ele><time>2026-05-01T13:07:43Z</time></trkpt><trkpt lat="39.07670639427294" lon="16.22585317372549"><ele>461.0</ele><time>2026-05-01T13:07:45Z</time></trkpt><trkpt lat="39.0767811150233" lon="16.225889058680604"><ele>461.0</ele><time>2026-05-01T13:07:46Z</time></trkpt><trkpt lat="39.07684391784922" lon="16.225979461804922"><ele>461.0</ele><time>2026-05-01T13:07:48Z</time></trkpt><trkpt lat="39.07691277344507" lon="16.226045030178824"><ele>461.0</ele><time>2026-05-01T13:07:50Z</time></trkpt><trkpt lat="39.07697583434001" lon="16.226141568222335"><ele>461.0</ele><time>2026-05-01T13:07:52Z</time></trkpt><trkpt lat="39.07704214806732" lon="16.226257003238967"><ele>461.0</ele><time>2026-05-01T13:07:54Z</time></trkpt><trkpt lat="39.07708025643136" lon="16.226328698213745"><ele>460.99999999999994</ele><time>2026-05-01T13:07:55Z</time></trkpt><trkpt lat="39.077124924774246" lon="16.226403167090027"><ele>461.0</ele><time>2026-05-01T13:07:56Z</time></trkpt><trkpt lat="39.07718448891084" lon="16.22647718188188"><ele>461.0</ele><time>2026-05-01T13:07:57Z</time></trkpt><trkpt lat="39.07725335369892" lon="16.22653221546036"><ele>461.0</ele><time>2026-05-01T13:07:58Z</time></trkpt><trkpt lat="39.07732678975539" lon="16.226580612313846"><ele>460.99999999999994</ele><time>2026-05-01T13:07:59Z</time></trkpt><trkpt lat="39.07740398636402" lon="16.22663383734897"><ele>461.0</ele><time>2026-05-01T13:08:00Z</time></trkpt><trkpt lat="39.07747813140526" lon="16.226687784912365"><ele>458.66666666666663</ele><time>2026-05-01T13:08:01Z</time></trkpt><trkpt lat="39.077544074826704" lon="16.226752953545553"><ele>456.3333333333333</ele><time>2026-05-01T13:08:02Z</time></trkpt><trkpt lat="39.07760204674604" lon="16.226830547597075"><ele>454.0</ele><time>2026-05-01T13:08:03Z</time></trkpt><trkpt lat="39.07765746530139" lon="16.226910829168215"><ele>451.66666666666663</ele><time>2026-05-01T13:08:04Z</time></trkpt><trkpt lat="39.077716138682035" lon="16.226996128354646"><ele>449.3333333333333</ele><time>2026-05-01T13:08:05Z</time></trkpt><trkpt lat="39.07777878530992" lon="16.22708195630822"><ele>447.0</ele><time>2026-05-01T13:08:06Z</time></trkpt><trkpt lat="39.0778333158059" lon="16.22717828502026"><ele>447.0</ele><time>2026-05-01T13:08:07Z</time></trkpt><trkpt lat="39.077913807446684" lon="16.227212485113437"><ele>447.0</ele><time>2026-05-01T13:08:08Z</time></trkpt><trkpt lat="39.077978781884646" lon="16.227289767513952"><ele>447.0</ele><time>2026-05-01T13:08:09Z</time></trkpt><trkpt lat="39.07803827299501" lon="16.227366742937008"><ele>447.0</ele><time>2026-05-01T13:08:10Z</time></trkpt><trkpt lat="39.0780971113997" lon="16.227441257633735"><ele>447.0</ele><time>2026-05-01T13:08:11Z</time></trkpt><trkpt lat="39.07813669547382" lon="16.22753764855277"><ele>447.0</ele><time>2026-05-01T13:08:12Z</time></trkpt><trkpt lat="39.07817507377452" lon="16.22763532276677"><ele>446.20000000000005</ele><time>2026-05-01T13:08:13Z</time></trkpt><trkpt lat="39.078212664605864" lon="16.227741450035843"><ele>445.40000000000003</ele><time>2026-05-01T13:08:14Z</time></trkpt><trkpt lat="39.078248781533055" lon="16.22785403240027"><ele>444.59999999999997</ele><time>2026-05-01T13:08:15Z</time></trkpt><trkpt lat="39.078286036286094" lon="16.227972134782807"><ele>443.79999999999995</ele><time>2026-05-01T13:08:16Z</time></trkpt><trkpt lat="39.07833899338863" lon="16.228083938150455"><ele>443.0</ele><time>2026-05-01T13:08:17Z</time></trkpt><trkpt lat="39.078376115012844" lon="16.228207449135468"><ele>442.99999999999994</ele><time>2026-05-01T13:08:18Z</time></trkpt><trkpt lat="39.07841839901365" lon="16.228322486625007"><ele>443.0</ele><time>2026-05-01T13:08:19Z</time></trkpt><trkpt lat="39.078454807609724" lon="16.22842902708972"><ele>443.0</ele><time>2026-05-01T13:08:20Z</time></trkpt><trkpt lat="39.07847090429336" lon="16.228544936502395"><ele>443.0</ele><time>2026-05-01T13:08:21Z</time></trkpt><trkpt lat="39.078481184007465" lon="16.228651603130043"><ele>442.99999999999994</ele><time>2026-05-01T13:08:22Z</time></trkpt><trkpt lat="39.07846087623749" lon="16.228745861717492"><ele>443.0</ele><time>2026-05-01T13:08:23Z</time></trkpt><trkpt lat="39.07842546978659" lon="16.228840808595972"><ele>443.0</ele><time>2026-05-01T13:08:24Z</time></trkpt><trkpt lat="39.07839089976936" lon="16.22894207063843"><ele>442.99999999999994</ele><time>2026-05-01T13:08:25Z</time></trkpt><trkpt lat="39.07835382000898" lon="16.22905770968416"><ele>442.99999999999994</ele><time>2026-05-01T13:08:26Z</time></trkpt><trkpt lat="39.07831498942423" lon="16.229178808918984"><ele>443.0</ele><time>2026-05-01T13:08:27Z</time></trkpt><trkpt lat="39.07827533576055" lon="16.229302474956558"><ele>443.0</ele><time>2026-05-01T13:08:28Z</time></trkpt><trkpt lat="39.07823439175625" lon="16.229427453336505"><ele>449.0</ele><time>2026-05-01T13:08:29Z</time></trkpt><trkpt lat="39.078196481187845" lon="16.229554397185826"><ele>454.99999999999994</ele><time>2026-05-01T13:08:30Z</time></trkpt><trkpt lat="39.07819577095226" lon="16.229679347274644"><ele>460.99999999999994</ele><time>2026-05-01T13:08:31Z</time></trkpt><trkpt lat="39.07819750542956" lon="16.229798458003724"><ele>467.0</ele><time>2026-05-01T13:08:32Z</time></trkpt><trkpt lat="39.07822732913104" lon="16.22991162106884"><ele>473.0</ele><time>2026-05-01T13:08:33Z</time></trkpt><trkpt lat="39.07824636934707" lon="16.230019062598913"><ele>472.99999999999994</ele><time>2026-05-01T13:08:34Z</time></trkpt><trkpt lat="39.078219864282474" lon="16.23013042379074"><ele>473.0</ele><time>2026-05-01T13:08:35Z</time></trkpt><trkpt lat="39.07820279193604" lon="16.230242555988834"><ele>473.0</ele><time>2026-05-01T13:08:36Z</time></trkpt><trkpt lat="39.07818572922286" lon="16.23035532218139"><ele>473.0</ele><time>2026-05-01T13:08:37Z</time></trkpt><trkpt lat="39.078166545290436" lon="16.230465500373665"><ele>472.99999999999994</ele><time>2026-05-01T13:08:38Z</time></trkpt><trkpt lat="39.07814318669728" lon="16.230572863316734"><ele>473.0</ele><time>2026-05-01T13:08:39Z</time></trkpt><trkpt lat="39.078115189789216" lon="16.230688046252347"><ele>471.2</ele><time>2026-05-01T13:08:40Z</time></trkpt><trkpt lat="39.07808469504332" lon="16.23080531059821"><ele>469.4</ele><time>2026-05-01T13:08:41Z</time></trkpt><trkpt lat="39.07805935767134" lon="16.230936208778175"><ele>467.59999999999997</ele><time>2026-05-01T13:08:42Z</time></trkpt><trkpt lat="39.07802755404755" lon="16.231058288923915"><ele>465.79999999999995</ele><time>2026-05-01T13:08:43Z</time></trkpt><trkpt lat="39.07802424299921" lon="16.231193142377155"><ele>464.0</ele><time>2026-05-01T13:08:44Z</time></trkpt><trkpt lat="39.078038258184336" lon="16.2313207967922"><ele>464.0</ele><time>2026-05-01T13:08:45Z</time></trkpt><trkpt lat="39.07805285372176" lon="16.231445325968902"><ele>464.0</ele><time>2026-05-01T13:08:46Z</time></trkpt><trkpt lat="39.07806462806397" lon="16.231570480481047"><ele>464.0</ele><time>2026-05-01T13:08:47Z</time></trkpt><trkpt lat="39.07806245596163" lon="16.23169069362189"><ele>464.0</ele><time>2026-05-01T13:08:48Z</time></trkpt><trkpt lat="39.07803315236967" lon="16.231801047046304"><ele>464.0</ele><time>2026-05-01T13:08:49Z</time></trkpt><trkpt lat="39.07799665943098" lon="16.23191988452529"><ele>462.4</ele><time>2026-05-01T13:08:50Z</time></trkpt><trkpt lat="39.077964613313426" lon="16.23204224204468"><ele>460.79999999999995</ele><time>2026-05-01T13:08:51Z</time></trkpt><trkpt lat="39.077938199127026" lon="16.23216979100515"><ele>459.20000000000005</ele><time>2026-05-01T13:08:52Z</time></trkpt><trkpt lat="39.07793992770612" lon="16.232301565221412"><ele>457.6</ele><time>2026-05-01T13:08:52.999Z</time></trkpt><trkpt lat="39.077893914158565" lon="16.232413407649698"><ele>456.0</ele><time>2026-05-01T13:08:53.999Z</time></trkpt><trkpt lat="39.07785695205345" lon="16.232520454562852"><ele>455.1666666666667</ele><time>2026-05-01T13:08:54.999Z</time></trkpt><trkpt lat="39.077817896550094" lon="16.232615903300665"><ele>454.33333333333337</ele><time>2026-05-01T13:08:55.999Z</time></trkpt><trkpt lat="39.077833784004646" lon="16.232728403999893"><ele>453.5</ele><time>2026-05-01T13:08:56.999Z</time></trkpt><trkpt lat="39.077855979576384" lon="16.232830138185996"><ele>452.6666666666667</ele><time>2026-05-01T13:08:57.999Z</time></trkpt><trkpt lat="39.077902254571605" lon="16.23292980392354"><ele>451.83333333333337</ele><time>2026-05-01T13:08:58.999Z</time></trkpt><trkpt lat="39.07793705180873" lon="16.233039217783464"><ele>451.0</ele><time>2026-05-01T13:08:59.999Z</time></trkpt><trkpt lat="39.077981721134755" lon="16.233148470749935"><ele>449.4</ele><time>2026-05-01T13:09:00.999Z</time></trkpt><trkpt lat="39.078028848485204" lon="16.233263735506917"><ele>447.8</ele><time>2026-05-01T13:09:01.999Z</time></trkpt><trkpt lat="39.078086541840804" lon="16.233369641293507"><ele>446.19999999999993</ele><time>2026-05-01T13:09:02.999Z</time></trkpt><trkpt lat="39.078129654450066" lon="16.233473674082372"><ele>444.59999999999997</ele><time>2026-05-01T13:09:03.999Z</time></trkpt><trkpt lat="39.07816923409875" lon="16.233576251412835"><ele>443.0</ele><time>2026-05-01T13:09:04.999Z</time></trkpt><trkpt lat="39.07820922285914" lon="16.233682418613785"><ele>442.99999999999994</ele><time>2026-05-01T13:09:05.999Z</time></trkpt><trkpt lat="39.07822025423004" lon="16.23379377345569"><ele>443.0</ele><time>2026-05-01T13:09:06.999Z</time></trkpt><trkpt lat="39.07825434140392" lon="16.233896399642372"><ele>443.0</ele><time>2026-05-01T13:09:07.999Z</time></trkpt><trkpt lat="39.07827145246561" lon="16.23400638501676"><ele>443.0</ele><time>2026-05-01T13:09:08.999Z</time></trkpt><trkpt lat="39.078277834176745" lon="16.23411379681372"><ele>442.99999999999994</ele><time>2026-05-01T13:09:09.999Z</time></trkpt><trkpt lat="39.07824805911773" lon="16.234209397774226"><ele>443.0</ele><time>2026-05-01T13:09:10.999Z</time></trkpt><trkpt lat="39.078202159934975" lon="16.234291017619523"><ele>439.4</ele><time>2026-05-01T13:09:11.999Z</time></trkpt><trkpt lat="39.07814278776123" lon="16.23436765993286"><ele>435.79999999999995</ele><time>2026-05-01T13:09:12.999Z</time></trkpt><trkpt lat="39.078091107793995" lon="16.23446810831444"><ele>432.2</ele><time>2026-05-01T13:09:13.999Z</time></trkpt><trkpt lat="39.07802270625377" lon="16.23455567535788"><ele>428.6</ele><time>2026-05-01T13:09:14.999Z</time></trkpt><trkpt lat="39.07796090277771" lon="16.23465354639363"><ele>425.0</ele><time>2026-05-01T13:09:16Z</time></trkpt><trkpt lat="39.077892731094494" lon="16.23474198562629"><ele>421.0</ele><time>2026-05-01T13:09:17Z</time></trkpt><trkpt lat="39.077821754387976" lon="16.23483933479792"><ele>417.0</ele><time>2026-05-01T13:09:18Z</time></trkpt><trkpt lat="39.07774732892059" lon="16.234925189864693"><ele>413.0</ele><time>2026-05-01T13:09:19Z</time></trkpt><trkpt lat="39.077670014316325" lon="16.235001254466038"><ele>409.0</ele><time>2026-05-01T13:09:20Z</time></trkpt><trkpt lat="39.07759133133568" lon="16.235071586982546"><ele>405.0</ele><time>2026-05-01T13:09:21Z</time></trkpt><trkpt lat="39.07751843817148" lon="16.23514835180087"><ele>405.0</ele><time>2026-05-01T13:09:22Z</time></trkpt><trkpt lat="39.07745824236087" lon="16.23523955909297"><ele>405.0</ele><time>2026-05-01T13:09:23Z</time></trkpt><trkpt lat="39.07742686745949" lon="16.235352166312772"><ele>405.0</ele><time>2026-05-01T13:09:24Z</time></trkpt><trkpt lat="39.07740925266457" lon="16.23547811525697"><ele>405.0</ele><time>2026-05-01T13:09:25Z</time></trkpt><trkpt lat="39.07739469231671" lon="16.23559362740109"><ele>405.0</ele><time>2026-05-01T13:09:26Z</time></trkpt><trkpt lat="39.07737254594492" lon="16.235716153700483"><ele>409.2</ele><time>2026-05-01T13:09:27Z</time></trkpt><trkpt lat="39.07735103612044" lon="16.23583569103352"><ele>413.4</ele><time>2026-05-01T13:09:28Z</time></trkpt><trkpt lat="39.07732597518107" lon="16.23595631855949"><ele>417.6</ele><time>2026-05-01T13:09:29Z</time></trkpt><trkpt lat="39.07729500466139" lon="16.23607260513391"><ele>421.8</ele><time>2026-05-01T13:09:30Z</time></trkpt><trkpt lat="39.077255000816585" lon="16.23619123434813"><ele>426.0</ele><time>2026-05-01T13:09:31Z</time></trkpt><trkpt lat="39.077215614302695" lon="16.23630774700172"><ele>426.0</ele><time>2026-05-01T13:09:32Z</time></trkpt><trkpt lat="39.077156110545694" lon="16.236407901773102"><ele>426.0</ele><time>2026-05-01T13:09:33Z</time></trkpt><trkpt lat="39.07710078399012" lon="16.23650999109153"><ele>426.0</ele><time>2026-05-01T13:09:34Z</time></trkpt><trkpt lat="39.077042658275374" lon="16.236613935445465"><ele>426.0</ele><time>2026-05-01T13:09:35Z</time></trkpt><trkpt lat="39.07698328602823" lon="16.236714859402547"><ele>426.0</ele><time>2026-05-01T13:09:36Z</time></trkpt><trkpt lat="39.07695255896673" lon="16.236838591555305"><ele>422.0</ele><time>2026-05-01T13:09:37Z</time></trkpt><trkpt lat="39.07692701038018" lon="16.236966697001904"><ele>418.0</ele><time>2026-05-01T13:09:38Z</time></trkpt><trkpt lat="39.07692055524779" lon="16.237090750973984"><ele>414.0</ele><time>2026-05-01T13:09:39Z</time></trkpt><trkpt lat="39.07689218742723" lon="16.237209270241312"><ele>410.0</ele><time>2026-05-01T13:09:40Z</time></trkpt><trkpt lat="39.07688012634501" lon="16.237332026420898"><ele>406.0</ele><time>2026-05-01T13:09:41Z</time></trkpt><trkpt lat="39.076866341429245" lon="16.237453425332667"><ele>407.33333333333337</ele><time>2026-05-01T13:09:42Z</time></trkpt><trkpt lat="39.076848857789024" lon="16.237565752195792"><ele>408.6666666666667</ele><time>2026-05-01T13:09:43Z</time></trkpt><trkpt lat="39.07682594136389" lon="16.237672234612784"><ele>410.0</ele><time>2026-05-01T13:09:44Z</time></trkpt><trkpt lat="39.0767884906158" lon="16.237755878672964"><ele>411.33333333333337</ele><time>2026-05-01T13:09:45Z</time></trkpt><trkpt lat="39.07675027581506" lon="16.23782455049239"><ele>412.6666666666667</ele><time>2026-05-01T13:09:46Z</time></trkpt><trkpt lat="39.0766649364424" lon="16.23781179928554"><ele>414.0</ele><time>2026-05-01T13:09:47Z</time></trkpt><trkpt lat="39.07659039215255" lon="16.23783072024476"><ele>414.00000000000006</ele><time>2026-05-01T13:09:48Z</time></trkpt><trkpt lat="39.07651777586048" lon="16.237820431731528"><ele>414.0</ele><time>2026-05-01T13:09:49Z</time></trkpt><trkpt lat="39.07644488709962" lon="16.237823563943113"><ele>414.0</ele><time>2026-05-01T13:09:50Z</time></trkpt><trkpt lat="39.076370932396415" lon="16.237833948343354"><ele>414.0</ele><time>2026-05-01T13:09:51Z</time></trkpt><trkpt lat="39.07630653689653" lon="16.237863726801162"><ele>414.0</ele><time>2026-05-01T13:09:52Z</time></trkpt><trkpt lat="39.076239537003126" lon="16.237902520616"><ele>414.00000000000006</ele><time>2026-05-01T13:09:53Z</time></trkpt><trkpt lat="39.07618709688769" lon="16.23798152730359"><ele>414.0</ele><time>2026-05-01T13:09:54Z</time></trkpt><trkpt lat="39.07615558309085" lon="16.238075118720303"><ele>411.8333333333333</ele><time>2026-05-01T13:09:55Z</time></trkpt><trkpt lat="39.07614694444389" lon="16.23817687184625"><ele>409.66666666666663</ele><time>2026-05-01T13:09:56Z</time></trkpt><trkpt lat="39.07622457506387" lon="16.238272479832744"><ele>407.5</ele><time>2026-05-01T13:09:57Z</time></trkpt><trkpt lat="39.076234980406454" lon="16.238370593908574"><ele>405.3333333333333</ele><time>2026-05-01T13:09:58Z</time></trkpt><trkpt lat="39.07621873673177" lon="16.238456145346245"><ele>403.16666666666663</ele><time>2026-05-01T13:09:59Z</time></trkpt><trkpt lat="39.0762041280036" lon="16.238550725153363"><ele>401.0</ele><time>2026-05-01T13:10:00Z</time></trkpt><trkpt lat="39.076186915230906" lon="16.23864568198408"><ele>401.0</ele><time>2026-05-01T13:10:01Z</time></trkpt><trkpt lat="39.076165153618554" lon="16.23874540939276"><ele>401.0</ele><time>2026-05-01T13:10:02Z</time></trkpt><trkpt lat="39.07614046186092" lon="16.238842361240305"><ele>401.0</ele><time>2026-05-01T13:10:03Z</time></trkpt><trkpt lat="39.07611210463574" lon="16.23893410881134"><ele>401.0</ele><time>2026-05-01T13:10:04Z</time></trkpt><trkpt lat="39.0760755262335" lon="16.23901346855397"><ele>401.0</ele><time>2026-05-01T13:10:05Z</time></trkpt><trkpt lat="39.076028499111644" lon="16.239079296550656"><ele>401.0</ele><time>2026-05-01T13:10:06Z</time></trkpt><trkpt lat="39.07596477348148" lon="16.2391145623466"><ele>401.0</ele><time>2026-05-01T13:10:07Z</time></trkpt><trkpt lat="39.075897883416175" lon="16.239153950846138"><ele>397.66666666666663</ele><time>2026-05-01T13:10:08Z</time></trkpt><trkpt lat="39.07582238335967" lon="16.23913585470618"><ele>394.3333333333333</ele><time>2026-05-01T13:10:09Z</time></trkpt><trkpt lat="39.07574622182206" lon="16.23914543334439"><ele>391.0</ele><time>2026-05-01T13:10:10Z</time></trkpt><trkpt lat="39.07567969184554" lon="16.239167334371512"><ele>387.66666666666663</ele><time>2026-05-01T13:10:11Z</time></trkpt><trkpt lat="39.07560496646036" lon="16.239211379220322"><ele>384.3333333333333</ele><time>2026-05-01T13:10:12Z</time></trkpt><trkpt lat="39.07553915529907" lon="16.239252818542933"><ele>381.0</ele><time>2026-05-01T13:10:13Z</time></trkpt><trkpt lat="39.075473588169075" lon="16.23930291480061"><ele>381.0</ele><time>2026-05-01T13:10:14Z</time></trkpt><trkpt lat="39.075413484044525" lon="16.23937248323916"><ele>381.0</ele><time>2026-05-01T13:10:15Z</time></trkpt><trkpt lat="39.07537531852414" lon="16.239453993158698"><ele>381.0</ele><time>2026-05-01T13:10:16Z</time></trkpt><trkpt lat="39.07533833209397" lon="16.23952980577193"><ele>381.0</ele><time>2026-05-01T13:10:17Z</time></trkpt><trkpt lat="39.07529496076448" lon="16.23967606348011"><ele>381.0</ele><time>2026-05-01T13:10:19Z</time></trkpt><trkpt lat="39.07532425764555" lon="16.239768527085076"><ele>381.0</ele><time>2026-05-01T13:10:20Z</time></trkpt><trkpt lat="39.0753927347187" lon="16.239809001560022"><ele>381.0</ele><time>2026-05-01T13:10:21Z</time></trkpt><trkpt lat="39.075457655060134" lon="16.239823269216597"><ele>381.0</ele><time>2026-05-01T13:10:22Z</time></trkpt><trkpt lat="39.07552138612529" lon="16.23980059343568"><ele>381.0</ele><time>2026-05-01T13:10:23Z</time></trkpt><trkpt lat="39.07557705155533" lon="16.23974089614776"><ele>381.0</ele><time>2026-05-01T13:10:24Z</time></trkpt><trkpt lat="39.07563842350979" lon="16.239672738914877"><ele>381.0</ele><time>2026-05-01T13:10:25Z</time></trkpt><trkpt lat="39.07569909250607" lon="16.23960129585224"><ele>381.0</ele><time>2026-05-01T13:10:26Z</time></trkpt><trkpt lat="39.07576496837702" lon="16.23953257932786"><ele>379.8333333333333</ele><time>2026-05-01T13:10:27Z</time></trkpt><trkpt lat="39.07583571386715" lon="16.239465530207273"><ele>378.6666666666667</ele><time>2026-05-01T13:10:28Z</time></trkpt><trkpt lat="39.075905219897265" lon="16.239407748532496"><ele>377.5</ele><time>2026-05-01T13:10:29Z</time></trkpt><trkpt lat="39.07598719479181" lon="16.23936566946992"><ele>376.33333333333337</ele><time>2026-05-01T13:10:30Z</time></trkpt><trkpt lat="39.07607061482826" lon="16.239346037520956"><ele>375.1666666666667</ele><time>2026-05-01T13:10:31Z</time></trkpt><trkpt lat="39.076150483240674" lon="16.239321875095257"><ele>374.0</ele><time>2026-05-01T13:10:32Z</time></trkpt><trkpt lat="39.07622218638675" lon="16.2392855433342"><ele>374.0</ele><time>2026-05-01T13:10:33Z</time></trkpt><trkpt lat="39.07628938322973" lon="16.239242011224665"><ele>374.0</ele><time>2026-05-01T13:10:34Z</time></trkpt><trkpt lat="39.07635611645814" lon="16.23919671394844"><ele>374.0</ele><time>2026-05-01T13:10:35Z</time></trkpt><trkpt lat="39.07642224676702" lon="16.239143933314484"><ele>374.0</ele><time>2026-05-01T13:10:36Z</time></trkpt><trkpt lat="39.07648313181057" lon="16.239092732527492"><ele>374.0</ele><time>2026-05-01T13:10:37Z</time></trkpt><trkpt lat="39.07654143561897" lon="16.239025867654057"><ele>374.0</ele><time>2026-05-01T13:10:38Z</time></trkpt><trkpt lat="39.07658370218203" lon="16.238939274316238"><ele>372.83333333333337</ele><time>2026-05-01T13:10:39Z</time></trkpt><trkpt lat="39.076600564451184" lon="16.238845437843047"><ele>371.6666666666667</ele><time>2026-05-01T13:10:40Z</time></trkpt><trkpt lat="39.076610745934836" lon="16.238740228169775"><ele>370.5</ele><time>2026-05-01T13:10:41Z</time></trkpt><trkpt lat="39.07663915288996" lon="16.238639646841218"><ele>369.3333333333333</ele><time>2026-05-01T13:10:42Z</time></trkpt><trkpt lat="39.07667254152216" lon="16.238548668800195"><ele>368.16666666666663</ele><time>2026-05-01T13:10:43Z</time></trkpt><trkpt lat="39.07671548631474" lon="16.238467223909577"><ele>367.0</ele><time>2026-05-01T13:10:44Z</time></trkpt><trkpt lat="39.076763623918445" lon="16.23839940178417"><ele>367.0</ele><time>2026-05-01T13:10:45Z</time></trkpt><trkpt lat="39.07681499935001" lon="16.238347485190324"><ele>367.0</ele><time>2026-05-01T13:10:46Z</time></trkpt><trkpt lat="39.07693263184627" lon="16.23834871025502"><ele>367.0</ele><time>2026-05-01T13:10:48Z</time></trkpt><trkpt lat="39.07699682206563" lon="16.238394502021915"><ele>367.0</ele><time>2026-05-01T13:10:49Z</time></trkpt><trkpt lat="39.077057868357564" lon="16.238426201122095"><ele>367.0</ele><time>2026-05-01T13:10:50Z</time></trkpt><trkpt lat="39.077124727355674" lon="16.238434802207184"><ele>367.0</ele><time>2026-05-01T13:10:51Z</time></trkpt><trkpt lat="39.07719150406253" lon="16.238418099342972"><ele>367.0</ele><time>2026-05-01T13:10:52Z</time></trkpt><trkpt lat="39.07725368590604" lon="16.23837475421797"><ele>367.0</ele><time>2026-05-01T13:10:53Z</time></trkpt><trkpt lat="39.07731256270316" lon="16.238305090831386"><ele>367.0</ele><time>2026-05-01T13:10:54Z</time></trkpt><trkpt lat="39.0773754425558" lon="16.23822394257085"><ele>367.0</ele><time>2026-05-01T13:10:55Z</time></trkpt><trkpt lat="39.077441044218304" lon="16.238143128536308"><ele>367.0</ele><time>2026-05-01T13:10:56Z</time></trkpt><trkpt lat="39.077504797445854" lon="16.238059116500015"><ele>367.0</ele><time>2026-05-01T13:10:56.999Z</time></trkpt><trkpt lat="39.077570243502684" lon="16.237976007644587"><ele>365.0</ele><time>2026-05-01T13:10:57.999Z</time></trkpt><trkpt lat="39.077634408466736" lon="16.237888732804624"><ele>363.0</ele><time>2026-05-01T13:10:58.999Z</time></trkpt><trkpt lat="39.07770040673048" lon="16.23779715864963"><ele>361.0</ele><time>2026-05-01T13:10:59.999Z</time></trkpt><trkpt lat="39.07776640313518" lon="16.2377079484827"><ele>359.0</ele><time>2026-05-01T13:11:00.999Z</time></trkpt><trkpt lat="39.077831730935195" lon="16.23762077578283"><ele>357.0</ele><time>2026-05-01T13:11:01.999Z</time></trkpt><trkpt lat="39.07789161711221" lon="16.237531200077246"><ele>357.0</ele><time>2026-05-01T13:11:02.999Z</time></trkpt><trkpt lat="39.077952052125795" lon="16.237445425312597"><ele>357.0</ele><time>2026-05-01T13:11:03.999Z</time></trkpt><trkpt lat="39.07801584246273" lon="16.23735970314664"><ele>357.0</ele><time>2026-05-01T13:11:04.999Z</time></trkpt><trkpt lat="39.07807898929716" lon="16.237272733405938"><ele>357.0</ele><time>2026-05-01T13:11:05.999Z</time></trkpt><trkpt lat="39.078142744438004" lon="16.237183773619954"><ele>357.0</ele><time>2026-05-01T13:11:06.999Z</time></trkpt><trkpt lat="39.07820900918629" lon="16.237097422756204"><ele>353.8</ele><time>2026-05-01T13:11:07.999Z</time></trkpt><trkpt lat="39.078275131336795" lon="16.237014617989505"><ele>350.6</ele><time>2026-05-01T13:11:08.999Z</time></trkpt><trkpt lat="39.07833772927969" lon="16.23693175457424"><ele>347.40000000000003</ele><time>2026-05-01T13:11:09.999Z</time></trkpt><trkpt lat="39.078398167106315" lon="16.236846049792614"><ele>344.20000000000005</ele><time>2026-05-01T13:11:10.999Z</time></trkpt><trkpt lat="39.07845996102224" lon="16.236760260541278"><ele>341.0</ele><time>2026-05-01T13:11:11.999Z</time></trkpt><trkpt lat="39.07852206179299" lon="16.236674511984923"><ele>341.0</ele><time>2026-05-01T13:11:12.999Z</time></trkpt><trkpt lat="39.07858695226602" lon="16.23658841550838"><ele>341.0</ele><time>2026-05-01T13:11:13.999Z</time></trkpt><trkpt lat="39.078651015550044" lon="16.236504899454232"><ele>341.0</ele><time>2026-05-01T13:11:14.999Z</time></trkpt><trkpt lat="39.07871197344252" lon="16.236423477801008"><ele>341.0</ele><time>2026-05-01T13:11:15.999Z</time></trkpt><trkpt lat="39.07877803441076" lon="16.236355546955824"><ele>341.0</ele><time>2026-05-01T13:11:16.999Z</time></trkpt><trkpt lat="39.07885559608928" lon="16.236307680514667"><ele>341.0</ele><time>2026-05-01T13:11:17.999Z</time></trkpt><trkpt lat="39.0789385877437" lon="16.23628898141192"><ele>340.33333333333337</ele><time>2026-05-01T13:11:18.999Z</time></trkpt><trkpt lat="39.07902025068776" lon="16.23627097572476"><ele>339.6666666666667</ele><time>2026-05-01T13:11:19.999Z</time></trkpt><trkpt lat="39.079103838596076" lon="16.236247770844198"><ele>339.0</ele><time>2026-05-01T13:11:21Z</time></trkpt><trkpt lat="39.07918775385174" lon="16.23621168467831"><ele>338.3333333333333</ele><time>2026-05-01T13:11:22Z</time></trkpt><trkpt lat="39.079269199731755" lon="16.23616645099627"><ele>337.66666666666663</ele><time>2026-05-01T13:11:23Z</time></trkpt><trkpt lat="39.07935222230929" lon="16.23612365647735"><ele>337.0</ele><time>2026-05-01T13:11:24Z</time></trkpt><trkpt lat="39.07943694431513" lon="16.236083875554446"><ele>337.0</ele><time>2026-05-01T13:11:25Z</time></trkpt><trkpt lat="39.079510277728865" lon="16.23604435234531"><ele>337.0</ele><time>2026-05-01T13:11:26Z</time></trkpt><trkpt lat="39.079579707802786" lon="16.236000162782087"><ele>337.0</ele><time>2026-05-01T13:11:27Z</time></trkpt><trkpt lat="39.07964334277594" lon="16.23593805652744"><ele>337.0</ele><time>2026-05-01T13:11:28Z</time></trkpt><trkpt lat="39.07970745305376" lon="16.23586970149267"><ele>337.0</ele><time>2026-05-01T13:11:29Z</time></trkpt><trkpt lat="39.079760959918275" lon="16.235780339989017"><ele>337.0</ele><time>2026-05-01T13:11:30Z</time></trkpt><trkpt lat="39.079806487600266" lon="16.235678628824274"><ele>334.66666666666663</ele><time>2026-05-01T13:11:31Z</time></trkpt><trkpt lat="39.079853431275055" lon="16.235575614365292"><ele>332.3333333333333</ele><time>2026-05-01T13:11:32Z</time></trkpt><trkpt lat="39.07989531995058" lon="16.235473753864262"><ele>330.0</ele><time>2026-05-01T13:11:33Z</time></trkpt><trkpt lat="39.079922650749054" lon="16.235371134999518"><ele>327.6666666666667</ele><time>2026-05-01T13:11:34Z</time></trkpt><trkpt lat="39.07993841891847" lon="16.23526749872764"><ele>325.33333333333337</ele><time>2026-05-01T13:11:35Z</time></trkpt><trkpt lat="39.07994883087207" lon="16.235165300578448"><ele>323.0</ele><time>2026-05-01T13:11:36Z</time></trkpt><trkpt lat="39.07995082714668" lon="16.235065221707675"><ele>323.0</ele><time>2026-05-01T13:11:37Z</time></trkpt><trkpt lat="39.079949403936546" lon="16.234964639619527"><ele>323.0</ele><time>2026-05-01T13:11:38Z</time></trkpt><trkpt lat="39.07994831750069" lon="16.234869396141033"><ele>323.0</ele><time>2026-05-01T13:11:39Z</time></trkpt><trkpt lat="39.0799487033143" lon="16.234785667016357"><ele>323.0</ele><time>2026-05-01T13:11:40Z</time></trkpt><trkpt lat="39.079970130540765" lon="16.234660269985927"><ele>323.0</ele><time>2026-05-01T13:11:42Z</time></trkpt><trkpt lat="39.08004708578055" lon="16.234615077480942"><ele>323.0</ele><time>2026-05-01T13:11:44Z</time></trkpt><trkpt lat="39.08011769038452" lon="16.234714367411126"><ele>323.0</ele><time>2026-05-01T13:11:46Z</time></trkpt><trkpt lat="39.080083495458986" lon="16.234790791139098"><ele>323.0</ele><time>2026-05-01T13:11:47Z</time></trkpt><trkpt lat="39.080085034518" lon="16.234948153706902"><ele>323.0</ele><time>2026-05-01T13:11:49Z</time></trkpt><trkpt lat="39.080079082347766" lon="16.23503975341913"><ele>323.0</ele><time>2026-05-01T13:11:50Z</time></trkpt><trkpt lat="39.080074707726375" lon="16.23513882949885"><ele>323.0</ele><time>2026-05-01T13:11:51Z</time></trkpt><trkpt lat="39.080050955044484" lon="16.235233546824478"><ele>323.0</ele><time>2026-05-01T13:11:52Z</time></trkpt><trkpt lat="39.08004284920925" lon="16.23532728364753"><ele>323.00000000000006</ele><time>2026-05-01T13:11:53Z</time></trkpt><trkpt lat="39.08003481474623" lon="16.235420194557797"><ele>323.0</ele><time>2026-05-01T13:11:54Z</time></trkpt><trkpt lat="39.0800281995379" lon="16.235517362717886"><ele>323.0</ele><time>2026-05-01T13:11:55Z</time></trkpt><trkpt lat="39.080022107312224" lon="16.235610649907485"><ele>323.0</ele><time>2026-05-01T13:11:56Z</time></trkpt><trkpt lat="39.080015873589474" lon="16.235706103587056"><ele>323.0</ele><time>2026-05-01T13:11:57Z</time></trkpt><trkpt lat="39.08002585527589" lon="16.235799147257293"><ele>323.00000000000006</ele><time>2026-05-01T13:11:58Z</time></trkpt><trkpt lat="39.08000092059452" lon="16.235886781250322"><ele>323.0</ele><time>2026-05-01T13:11:59Z</time></trkpt><trkpt lat="39.07997671461433" lon="16.235966506167795"><ele>322.00000000000006</ele><time>2026-05-01T13:12:00Z</time></trkpt><trkpt lat="39.079941111019735" lon="16.236034851531183"><ele>321.0</ele><time>2026-05-01T13:12:01Z</time></trkpt><trkpt lat="39.07990000960129" lon="16.236117465773425"><ele>320.0</ele><time>2026-05-01T13:12:02Z</time></trkpt><trkpt lat="39.079831489555474" lon="16.236158741018443"><ele>319.0</ele><time>2026-05-01T13:12:03Z</time></trkpt><trkpt lat="39.079771199743895" lon="16.23621658341531"><ele>318.0</ele><time>2026-05-01T13:12:04Z</time></trkpt><trkpt lat="39.07970987524645" lon="16.236275418698938"><ele>317.00000000000006</ele><time>2026-05-01T13:12:05Z</time></trkpt><trkpt lat="39.07964822155245" lon="16.236333336141286"><ele>316.0</ele><time>2026-05-01T13:12:06Z</time></trkpt><trkpt lat="39.07958724994828" lon="16.236391116428585"><ele>316.5</ele><time>2026-05-01T13:12:07Z</time></trkpt><trkpt lat="39.079524947622595" lon="16.236452503689467"><ele>317.0</ele><time>2026-05-01T13:12:08Z</time></trkpt><trkpt lat="39.07947479767031" lon="16.23653061837767"><ele>317.5</ele><time>2026-05-01T13:12:09Z</time></trkpt><trkpt lat="39.07940928712484" lon="16.236588643657672"><ele>318.0</ele><time>2026-05-01T13:12:10Z</time></trkpt><trkpt lat="39.07936771650443" lon="16.23667691986811"><ele>318.5</ele><time>2026-05-01T13:12:11Z</time></trkpt><trkpt lat="39.07935020147111" lon="16.23678257379502"><ele>319.0</ele><time>2026-05-01T13:12:12Z</time></trkpt><trkpt lat="39.07934168170104" lon="16.236883512184367"><ele>319.0</ele><time>2026-05-01T13:12:13Z</time></trkpt><trkpt lat="39.07934358668607" lon="16.236981322498877"><ele>319.0</ele><time>2026-05-01T13:12:14Z</time></trkpt><trkpt lat="39.07933422898039" lon="16.237076148656346"><ele>319.0</ele><time>2026-05-01T13:12:15Z</time></trkpt><trkpt lat="39.07930886531425" lon="16.237160258421824"><ele>319.0</ele><time>2026-05-01T13:12:16Z</time></trkpt><trkpt lat="39.07927003249554" lon="16.237233770504016"><ele>319.0</ele><time>2026-05-01T13:12:17Z</time></trkpt><trkpt lat="39.079227316141925" lon="16.237312253919004"><ele>319.0</ele><time>2026-05-01T13:12:18Z</time></trkpt><trkpt lat="39.07919197947085" lon="16.237411693486653"><ele>319.0</ele><time>2026-05-01T13:12:19Z</time></trkpt><trkpt lat="39.07913922428551" lon="16.237494133408497"><ele>320.3333333333333</ele><time>2026-05-01T13:12:20Z</time></trkpt><trkpt lat="39.079088009168345" lon="16.23758273695598"><ele>321.66666666666663</ele><time>2026-05-01T13:12:21Z</time></trkpt><trkpt lat="39.079024918214216" lon="16.237660269846213"><ele>323.0</ele><time>2026-05-01T13:12:22Z</time></trkpt><trkpt lat="39.07897475159656" lon="16.237748902753236"><ele>324.3333333333333</ele><time>2026-05-01T13:12:23Z</time></trkpt><trkpt lat="39.07892628192856" lon="16.23783731475825"><ele>325.6666666666667</ele><time>2026-05-01T13:12:24Z</time></trkpt><trkpt lat="39.07888449570451" lon="16.237935515436398"><ele>327.0</ele><time>2026-05-01T13:12:25Z</time></trkpt><trkpt lat="39.07883749974277" lon="16.238025806272084"><ele>327.0</ele><time>2026-05-01T13:12:26Z</time></trkpt><trkpt lat="39.07878695300217" lon="16.23811516907754"><ele>327.0</ele><time>2026-05-01T13:12:27Z</time></trkpt><trkpt lat="39.07873495644392" lon="16.238204490898966"><ele>327.0</ele><time>2026-05-01T13:12:28Z</time></trkpt><trkpt lat="39.078686601310295" lon="16.238293479995342"><ele>327.0</ele><time>2026-05-01T13:12:29Z</time></trkpt><trkpt lat="39.07863885871304" lon="16.238383715518502"><ele>327.0</ele><time>2026-05-01T13:12:30Z</time></trkpt><trkpt lat="39.07859241972888" lon="16.23847182379909"><ele>327.0</ele><time>2026-05-01T13:12:31Z</time></trkpt><trkpt lat="39.07854809298378" lon="16.238564338136253"><ele>324.8</ele><time>2026-05-01T13:12:32Z</time></trkpt><trkpt lat="39.07850461705364" lon="16.238659822880877"><ele>322.6</ele><time>2026-05-01T13:12:33Z</time></trkpt><trkpt lat="39.07847386438028" lon="16.238766129738547"><ele>320.40000000000003</ele><time>2026-05-01T13:12:34Z</time></trkpt><trkpt lat="39.07843603116905" lon="16.238867040305134"><ele>318.20000000000005</ele><time>2026-05-01T13:12:35Z</time></trkpt><trkpt lat="39.07841692124507" lon="16.238983305686755"><ele>316.0</ele><time>2026-05-01T13:12:36Z</time></trkpt><trkpt lat="39.07840468409363" lon="16.23910814245244"><ele>313.5</ele><time>2026-05-01T13:12:37Z</time></trkpt><trkpt lat="39.078400659643684" lon="16.23922807235968"><ele>311.0</ele><time>2026-05-01T13:12:38Z</time></trkpt><trkpt lat="39.078397580588266" lon="16.239336914359825"><ele>308.5</ele><time>2026-05-01T13:12:39Z</time></trkpt><trkpt lat="39.07839683664467" lon="16.23944329883969"><ele>306.0</ele><time>2026-05-01T13:12:40Z</time></trkpt><trkpt lat="39.07838926488008" lon="16.239544017228575"><ele>303.5</ele><time>2026-05-01T13:12:41Z</time></trkpt><trkpt lat="39.078363731603964" lon="16.239633834422772"><ele>301.0</ele><time>2026-05-01T13:12:42Z</time></trkpt><trkpt lat="39.07833555303355" lon="16.23971493546575"><ele>301.0</ele><time>2026-05-01T13:12:43Z</time></trkpt><trkpt lat="39.078269409825616" lon="16.239769166487793"><ele>301.0</ele><time>2026-05-01T13:12:44Z</time></trkpt><trkpt lat="39.078188021145195" lon="16.239761184369357"><ele>301.0</ele><time>2026-05-01T13:12:45Z</time></trkpt><trkpt lat="39.078112511865406" lon="16.23977639115658"><ele>301.0</ele><time>2026-05-01T13:12:46Z</time></trkpt><trkpt lat="39.07803678843384" lon="16.23977795184058"><ele>301.0</ele><time>2026-05-01T13:12:47Z</time></trkpt><trkpt lat="39.07796861684296" lon="16.23981559618409"><ele>301.0</ele><time>2026-05-01T13:12:48Z</time></trkpt><trkpt lat="39.077892098558785" lon="16.239848959838977"><ele>301.3333333333333</ele><time>2026-05-01T13:12:49Z</time></trkpt><trkpt lat="39.07781631949355" lon="16.239907789841922"><ele>301.66666666666663</ele><time>2026-05-01T13:12:50Z</time></trkpt><trkpt lat="39.07774971870481" lon="16.239972343162552"><ele>302.0</ele><time>2026-05-01T13:12:51Z</time></trkpt><trkpt lat="39.07769242076683" lon="16.240053335333833"><ele>302.3333333333333</ele><time>2026-05-01T13:12:52Z</time></trkpt><trkpt lat="39.077616101141835" lon="16.24009465895264"><ele>302.6666666666667</ele><time>2026-05-01T13:12:53Z</time></trkpt><trkpt lat="39.07755049272525" lon="16.240163848661258"><ele>303.0</ele><time>2026-05-01T13:12:54Z</time></trkpt><trkpt lat="39.077505431633796" lon="16.24026552101005"><ele>303.0</ele><time>2026-05-01T13:12:55Z</time></trkpt><trkpt lat="39.077505642549845" lon="16.24038571967004"><ele>303.0</ele><time>2026-05-01T13:12:55.999Z</time></trkpt><trkpt lat="39.07750624737156" lon="16.240484041727964"><ele>303.0</ele><time>2026-05-01T13:12:56.999Z</time></trkpt><trkpt lat="39.077497113821714" lon="16.240579529920034"><ele>303.0</ele><time>2026-05-01T13:12:57.999Z</time></trkpt><trkpt lat="39.07747644474961" lon="16.240666326052065"><ele>303.0</ele><time>2026-05-01T13:12:58.999Z</time></trkpt><trkpt lat="39.077429052992265" lon="16.240731982571447"><ele>303.0</ele><time>2026-05-01T13:12:59.999Z</time></trkpt><trkpt lat="39.077363732869095" lon="16.24080394566046"><ele>305.6</ele><time>2026-05-01T13:13:00.999Z</time></trkpt><trkpt lat="39.077291206372" lon="16.240874661971098"><ele>308.20000000000005</ele><time>2026-05-01T13:13:01.999Z</time></trkpt><trkpt lat="39.07721383614939" lon="16.24094619126672"><ele>310.8</ele><time>2026-05-01T13:13:02.999Z</time></trkpt><trkpt lat="39.07713242670037" lon="16.241033108835914"><ele>313.40000000000003</ele><time>2026-05-01T13:13:03.999Z</time></trkpt><trkpt lat="39.077062799531866" lon="16.241145194294198"><ele>316.0</ele><time>2026-05-01T13:13:04.999Z</time></trkpt><trkpt lat="39.07701040208564" lon="16.241255879095437"><ele>316.0</ele><time>2026-05-01T13:13:05.999Z</time></trkpt><trkpt lat="39.076953535967725" lon="16.24135610396839"><ele>316.0</ele><time>2026-05-01T13:13:06.999Z</time></trkpt><trkpt lat="39.07689748741854" lon="16.241441238045898"><ele>316.0</ele><time>2026-05-01T13:13:07.999Z</time></trkpt><trkpt lat="39.076835298752" lon="16.241519964724898"><ele>316.0</ele><time>2026-05-01T13:13:08.999Z</time></trkpt><trkpt lat="39.076770295559314" lon="16.24159628517665"><ele>316.0</ele><time>2026-05-01T13:13:09.999Z</time></trkpt><trkpt lat="39.076709968025824" lon="16.241674786963802"><ele>316.0</ele><time>2026-05-01T13:13:10.999Z</time></trkpt><trkpt lat="39.07664965417352" lon="16.241759734501702"><ele>314.16666666666663</ele><time>2026-05-01T13:13:11.999Z</time></trkpt><trkpt lat="39.076599162548185" lon="16.241849955031316"><ele>312.3333333333333</ele><time>2026-05-01T13:13:12.999Z</time></trkpt><trkpt lat="39.076556111550765" lon="16.241948030038515"><ele>310.5</ele><time>2026-05-01T13:13:13.999Z</time></trkpt><trkpt lat="39.076518189936124" lon="16.24204464283271"><ele>308.6666666666667</ele><time>2026-05-01T13:13:14.999Z</time></trkpt><trkpt lat="39.07648235255434" lon="16.242140700391463"><ele>306.83333333333337</ele><time>2026-05-01T13:13:15.999Z</time></trkpt><trkpt lat="39.07645264685357" lon="16.242234304847806"><ele>305.0</ele><time>2026-05-01T13:13:16.999Z</time></trkpt><trkpt lat="39.07642040886627" lon="16.242329095784967"><ele>299.5</ele><time>2026-05-01T13:13:17.999Z</time></trkpt><trkpt lat="39.07638452588351" lon="16.242413067816493"><ele>294.0</ele><time>2026-05-01T13:13:18.999Z</time></trkpt><trkpt lat="39.07633843809872" lon="16.242487991204833"><ele>288.5</ele><time>2026-05-01T13:13:19.999Z</time></trkpt><trkpt lat="39.07628132415727" lon="16.242553534868595"><ele>283.0</ele><time>2026-05-01T13:13:20.999Z</time></trkpt><trkpt lat="39.076214018490475" lon="16.242599142162813"><ele>277.5</ele><time>2026-05-01T13:13:21.999Z</time></trkpt><trkpt lat="39.07614094303327" lon="16.242617517091727"><ele>272.0</ele><time>2026-05-01T13:13:22.999Z</time></trkpt><trkpt lat="39.07606251998624" lon="16.242627709569433"><ele>272.0</ele><time>2026-05-01T13:13:23.999Z</time></trkpt><trkpt lat="39.07597839853423" lon="16.242634932309674"><ele>272.0</ele><time>2026-05-01T13:13:24.999Z</time></trkpt><trkpt lat="39.075895259450725" lon="16.24265104123031"><ele>272.0</ele><time>2026-05-01T13:13:25.999Z</time></trkpt><trkpt lat="39.07581946808607" lon="16.24264217147913"><ele>272.0</ele><time>2026-05-01T13:13:27Z</time></trkpt><trkpt lat="39.07572708963472" lon="16.2426660599707"><ele>272.0</ele><time>2026-05-01T13:13:28Z</time></trkpt><trkpt lat="39.07564762711999" lon="16.2426666608341"><ele>272.0</ele><time>2026-05-01T13:13:29Z</time></trkpt><trkpt lat="39.075574022025" lon="16.242670813583622"><ele>271.99999999999994</ele><time>2026-05-01T13:13:30Z</time></trkpt><trkpt lat="39.07550417576401" lon="16.242675031222756"><ele>272.0</ele><time>2026-05-01T13:13:31Z</time></trkpt><trkpt lat="39.07543542681471" lon="16.242688819758776"><ele>272.0</ele><time>2026-05-01T13:13:32Z</time></trkpt><trkpt lat="39.075362836420574" lon="16.24270042625371"><ele>272.0</ele><time>2026-05-01T13:13:33Z</time></trkpt><trkpt lat="39.075299414273445" lon="16.242744143427373"><ele>272.0</ele><time>2026-05-01T13:13:34Z</time></trkpt><trkpt lat="39.07525291297212" lon="16.24283817549967"><ele>271.99999999999994</ele><time>2026-05-01T13:13:35Z</time></trkpt><trkpt lat="39.07521390717819" lon="16.242921649569794"><ele>272.0</ele><time>2026-05-01T13:13:36Z</time></trkpt><trkpt lat="39.07518002362451" lon="16.24299796444474"><ele>271.99999999999994</ele><time>2026-05-01T13:13:37Z</time></trkpt><trkpt lat="39.07514740863657" lon="16.243070950755744"><ele>272.0</ele><time>2026-05-01T13:13:38Z</time></trkpt><trkpt lat="39.07511810562902" lon="16.243149820712272"><ele>272.0</ele><time>2026-05-01T13:13:39Z</time></trkpt><trkpt lat="39.07511283655649" lon="16.243248849646516"><ele>272.0</ele><time>2026-05-01T13:13:40Z</time></trkpt><trkpt lat="39.075158164820046" lon="16.243332986428566"><ele>272.0</ele><time>2026-05-01T13:13:41Z</time></trkpt><trkpt lat="39.07519877468226" lon="16.243410909970077"><ele>271.99999999999994</ele><time>2026-05-01T13:13:42Z</time></trkpt><trkpt lat="39.075248109141285" lon="16.243480610061955"><ele>272.0</ele><time>2026-05-01T13:13:43Z</time></trkpt><trkpt lat="39.07528538636658" lon="16.243563766461325"><ele>271.99999999999994</ele><time>2026-05-01T13:13:44Z</time></trkpt><trkpt lat="39.07533492909616" lon="16.24363364133321"><ele>272.0</ele><time>2026-05-01T13:13:45Z</time></trkpt><trkpt lat="39.07539155299433" lon="16.243698387362336"><ele>272.0</ele><time>2026-05-01T13:13:46Z</time></trkpt><trkpt lat="39.07545291837187" lon="16.243752505730683"><ele>272.0</ele><time>2026-05-01T13:13:47Z</time></trkpt><trkpt lat="39.07551596614387" lon="16.243801163638917"><ele>272.0</ele><time>2026-05-01T13:13:48Z</time></trkpt><trkpt lat="39.07557516145992" lon="16.243851473622307"><ele>271.99999999999994</ele><time>2026-05-01T13:13:49Z</time></trkpt><trkpt lat="39.07562820356014" lon="16.243903878416152"><ele>272.0</ele><time>2026-05-01T13:13:50Z</time></trkpt><trkpt lat="39.075675621728905" lon="16.243967011657155"><ele>274.0</ele><time>2026-05-01T13:13:51Z</time></trkpt><trkpt lat="39.07570175578421" lon="16.244044934527775"><ele>276.0</ele><time>2026-05-01T13:13:52Z</time></trkpt><trkpt lat="39.07569383655314" lon="16.244127156369295"><ele>278.0</ele><time>2026-05-01T13:13:53Z</time></trkpt><trkpt lat="39.07562613484776" lon="16.24426084407967"><ele>280.0</ele><time>2026-05-01T13:13:55Z</time></trkpt><trkpt lat="39.075567013183644" lon="16.244297977525203"><ele>282.0</ele><time>2026-05-01T13:13:56Z</time></trkpt><trkpt lat="39.07550617781435" lon="16.24435933174971"><ele>284.0</ele><time>2026-05-01T13:13:57Z</time></trkpt><trkpt lat="39.075452137946364" lon="16.24442227445283"><ele>284.0</ele><time>2026-05-01T13:13:58Z</time></trkpt><trkpt lat="39.07540419909412" lon="16.244498077179824"><ele>284.0</ele><time>2026-05-01T13:13:59Z</time></trkpt><trkpt lat="39.07537977911179" lon="16.244594113748587"><ele>284.0</ele><time>2026-05-01T13:14:00Z</time></trkpt><trkpt lat="39.07534502718464" lon="16.244682875730618"><ele>284.0</ele><time>2026-05-01T13:14:01Z</time></trkpt><trkpt lat="39.07529773512174" lon="16.244768676926086"><ele>284.0</ele><time>2026-05-01T13:14:02Z</time></trkpt><trkpt lat="39.07526644875232" lon="16.244861751118876"><ele>284.0</ele><time>2026-05-01T13:14:03Z</time></trkpt><trkpt lat="39.075245181996834" lon="16.244961173291475"><ele>282.6666666666667</ele><time>2026-05-01T13:14:04Z</time></trkpt><trkpt lat="39.07520828951062" lon="16.245054943287467"><ele>281.33333333333337</ele><time>2026-05-01T13:14:05Z</time></trkpt><trkpt lat="39.075177961785315" lon="16.245154845449736"><ele>280.0</ele><time>2026-05-01T13:14:06Z</time></trkpt><trkpt lat="39.07514980592831" lon="16.245254786737732"><ele>278.6666666666667</ele><time>2026-05-01T13:14:07Z</time></trkpt><trkpt lat="39.075122872264494" lon="16.24535393056013"><ele>277.3333333333333</ele><time>2026-05-01T13:14:08Z</time></trkpt><trkpt lat="39.075078798887546" lon="16.245447076094187"><ele>276.0</ele><time>2026-05-01T13:14:09Z</time></trkpt><trkpt lat="39.0750447231426" lon="16.24555144889951"><ele>279.3333333333333</ele><time>2026-05-01T13:14:10Z</time></trkpt><trkpt lat="39.075010926745435" lon="16.2456549663615"><ele>282.6666666666667</ele><time>2026-05-01T13:14:11Z</time></trkpt><trkpt lat="39.074992485916866" lon="16.245764629543302"><ele>286.0</ele><time>2026-05-01T13:14:12Z</time></trkpt><trkpt lat="39.074943010082485" lon="16.245858953043836"><ele>289.33333333333337</ele><time>2026-05-01T13:14:13Z</time></trkpt><trkpt lat="39.074923421135324" lon="16.245969058418712"><ele>292.6666666666667</ele><time>2026-05-01T13:14:14Z</time></trkpt><trkpt lat="39.074888169929054" lon="16.24607152768692"><ele>296.0</ele><time>2026-05-01T13:14:15Z</time></trkpt><trkpt lat="39.07483949224982" lon="16.246167019204933"><ele>296.0</ele><time>2026-05-01T13:14:16Z</time></trkpt><trkpt lat="39.07481444620129" lon="16.246279534937436"><ele>296.0</ele><time>2026-05-01T13:14:17Z</time></trkpt><trkpt lat="39.07477675010571" lon="16.246374759948758"><ele>296.0</ele><time>2026-05-01T13:14:18Z</time></trkpt><trkpt lat="39.074747864717516" lon="16.24646376958556"><ele>296.0</ele><time>2026-05-01T13:14:19Z</time></trkpt><trkpt lat="39.0747090012595" lon="16.246536439954653"><ele>296.0</ele><time>2026-05-01T13:14:20Z</time></trkpt><trkpt lat="39.07469523651005" lon="16.24668754756246"><ele>296.0</ele><time>2026-05-01T13:14:22Z</time></trkpt><trkpt lat="39.07472173718188" lon="16.24676758933492"><ele>292.57142857142856</ele><time>2026-05-01T13:14:23Z</time></trkpt><trkpt lat="39.07478105237377" lon="16.246836926041272"><ele>289.1428571428571</ele><time>2026-05-01T13:14:24Z</time></trkpt><trkpt lat="39.07484930166137" lon="16.246887238647275"><ele>285.71428571428567</ele><time>2026-05-01T13:14:25Z</time></trkpt><trkpt lat="39.07491247311561" lon="16.246927150474544"><ele>282.2857142857143</ele><time>2026-05-01T13:14:26Z</time></trkpt><trkpt lat="39.0749780458358" lon="16.246968579491423"><ele>278.85714285714283</ele><time>2026-05-01T13:14:27Z</time></trkpt><trkpt lat="39.07504074624074" lon="16.24698673464799"><ele>275.4285714285714</ele><time>2026-05-01T13:14:28Z</time></trkpt><trkpt lat="39.075095323013926" lon="16.24704415411005"><ele>272.0</ele><time>2026-05-01T13:14:29Z</time></trkpt><trkpt lat="39.07516022658245" lon="16.24706813012398"><ele>266.0</ele><time>2026-05-01T13:14:30Z</time></trkpt><trkpt lat="39.07521622392957" lon="16.24710756173526"><ele>260.0</ele><time>2026-05-01T13:14:31Z</time></trkpt><trkpt lat="39.07532277633459" lon="16.247180204760326"><ele>254.0</ele><time>2026-05-01T13:14:33Z</time></trkpt><trkpt lat="39.075423132132016" lon="16.24724180909338"><ele>248.0</ele><time>2026-05-01T13:14:35Z</time></trkpt><trkpt lat="39.07552197810047" lon="16.247300733506894"><ele>242.0</ele><time>2026-05-01T13:14:37Z</time></trkpt><trkpt lat="39.07563260524223" lon="16.24738942929689"><ele>241.33333333333334</ele><time>2026-05-01T13:14:39Z</time></trkpt><trkpt lat="39.07565497209974" lon="16.247477243190563"><ele>240.66666666666669</ele><time>2026-05-01T13:14:40Z</time></trkpt><trkpt lat="39.075635012057546" lon="16.247627172899602"><ele>240.0</ele><time>2026-05-01T13:14:42Z</time></trkpt><trkpt lat="39.07560484418865" lon="16.24770023946422"><ele>239.33333333333331</ele><time>2026-05-01T13:14:43Z</time></trkpt><trkpt lat="39.07554984898268" lon="16.24775801842715"><ele>238.66666666666666</ele><time>2026-05-01T13:14:44Z</time></trkpt><trkpt lat="39.07551221954485" lon="16.247832945904918"><ele>238.0</ele><time>2026-05-01T13:14:45Z</time></trkpt><trkpt lat="39.07548903722552" lon="16.247930126576293"><ele>237.99999999999997</ele><time>2026-05-01T13:14:46Z</time></trkpt><trkpt lat="39.07551145728698" lon="16.24803933193365"><ele>238.0</ele><time>2026-05-01T13:14:47Z</time></trkpt><trkpt lat="39.075536570660105" lon="16.248148471085493"><ele>238.0</ele><time>2026-05-01T13:14:48Z</time></trkpt><trkpt lat="39.07555832253959" lon="16.24825937194496"><ele>238.0</ele><time>2026-05-01T13:14:49Z</time></trkpt><trkpt lat="39.075567274440694" lon="16.248375883841234"><ele>237.99999999999997</ele><time>2026-05-01T13:14:50Z</time></trkpt><trkpt lat="39.075584462371104" lon="16.248492528360206"><ele>238.0</ele><time>2026-05-01T13:14:51Z</time></trkpt><trkpt lat="39.075602503153675" lon="16.24861489263756"><ele>238.4</ele><time>2026-05-01T13:14:51.999Z</time></trkpt><trkpt lat="39.07561880080394" lon="16.24873908243801"><ele>238.8</ele><time>2026-05-01T13:14:52.999Z</time></trkpt><trkpt lat="39.075613130807994" lon="16.248857763663246"><ele>239.2</ele><time>2026-05-01T13:14:53.999Z</time></trkpt><trkpt lat="39.07561888282887" lon="16.24897948631048"><ele>239.6</ele><time>2026-05-01T13:14:54.999Z</time></trkpt><trkpt lat="39.075635437501354" lon="16.249107480432002"><ele>240.0</ele><time>2026-05-01T13:14:55.999Z</time></trkpt><trkpt lat="39.0756199365281" lon="16.249238504837194"><ele>240.0</ele><time>2026-05-01T13:14:56.999Z</time></trkpt><trkpt lat="39.07561993653026" lon="16.249367172289436"><ele>240.0</ele><time>2026-05-01T13:14:57.999Z</time></trkpt><trkpt lat="39.07564011051837" lon="16.249496172928943"><ele>240.0</ele><time>2026-05-01T13:14:58.999Z</time></trkpt><trkpt lat="39.07565144835643" lon="16.249626751100738"><ele>240.0</ele><time>2026-05-01T13:14:59.999Z</time></trkpt><trkpt lat="39.07569037553583" lon="16.249753399774047"><ele>240.0</ele><time>2026-05-01T13:15:00.999Z</time></trkpt><trkpt lat="39.075744076340825" lon="16.249865323453438"><ele>243.4</ele><time>2026-05-01T13:15:01.999Z</time></trkpt><trkpt lat="39.075833005763215" lon="16.249934105889395"><ele>246.8</ele><time>2026-05-01T13:15:02.999Z</time></trkpt><trkpt lat="39.07591972689379" lon="16.24999865176963"><ele>250.2</ele><time>2026-05-01T13:15:03.999Z</time></trkpt><trkpt lat="39.07600413999152" lon="16.250055912092453"><ele>253.6</ele><time>2026-05-01T13:15:04.999Z</time></trkpt><trkpt lat="39.076085623993734" lon="16.25012025788886"><ele>257.0</ele><time>2026-05-01T13:15:05.999Z</time></trkpt><trkpt lat="39.07616270014647" lon="16.25018971266198"><ele>257.0</ele><time>2026-05-01T13:15:06.999Z</time></trkpt><trkpt lat="39.07624193201904" lon="16.250260749465436"><ele>257.0</ele><time>2026-05-01T13:15:07.999Z</time></trkpt><trkpt lat="39.076321051748735" lon="16.25033117594446"><ele>257.0</ele><time>2026-05-01T13:15:08.999Z</time></trkpt><trkpt lat="39.07640671374204" lon="16.25039627051003"><ele>257.0</ele><time>2026-05-01T13:15:09.999Z</time></trkpt><trkpt lat="39.07649097685518" lon="16.250459377448028"><ele>257.0</ele><time>2026-05-01T13:15:10.999Z</time></trkpt><trkpt lat="39.07657032316687" lon="16.250520918859344"><ele>259.42857142857144</ele><time>2026-05-01T13:15:11.999Z</time></trkpt><trkpt lat="39.07663946125834" lon="16.250572603303763"><ele>261.8571428571429</ele><time>2026-05-01T13:15:12.999Z</time></trkpt><trkpt lat="39.076692842943295" lon="16.250627610709508"><ele>264.28571428571433</ele><time>2026-05-01T13:15:13.999Z</time></trkpt><trkpt lat="39.076734341354026" lon="16.25069895247134"><ele>266.7142857142857</ele><time>2026-05-01T13:15:14.999Z</time></trkpt><trkpt lat="39.07675912051464" lon="16.250773710248314"><ele>269.14285714285717</ele><time>2026-05-01T13:15:15.999Z</time></trkpt><trkpt lat="39.07675096547943" lon="16.25086730647203"><ele>271.5714285714286</ele><time>2026-05-01T13:15:16.999Z</time></trkpt><trkpt lat="39.076727650162944" lon="16.25096179237598"><ele>274.0</ele><time>2026-05-01T13:15:17.999Z</time></trkpt><trkpt lat="39.07668543734767" lon="16.25104461691599"><ele>274.0</ele><time>2026-05-01T13:15:18.999Z</time></trkpt><trkpt lat="39.07660847396746" lon="16.251076833315818"><ele>274.0</ele><time>2026-05-01T13:15:19.999Z</time></trkpt><trkpt lat="39.07653414025284" lon="16.25109389303412"><ele>274.0</ele><time>2026-05-01T13:15:20.999Z</time></trkpt><trkpt lat="39.076456363565505" lon="16.2511260969735"><ele>274.0</ele><time>2026-05-01T13:15:21.999Z</time></trkpt><trkpt lat="39.0763749493552" lon="16.251116600340936"><ele>274.0</ele><time>2026-05-01T13:15:22.999Z</time></trkpt><trkpt lat="39.07629502612579" lon="16.251075123879012"><ele>274.0</ele><time>2026-05-01T13:15:23.999Z</time></trkpt><trkpt lat="39.076214669947255" lon="16.251039170306534"><ele>274.0</ele><time>2026-05-01T13:15:24.999Z</time></trkpt><trkpt lat="39.076124585304264" lon="16.251015538885262"><ele>274.0</ele><time>2026-05-01T13:15:25.999Z</time></trkpt><trkpt lat="39.07603232308132" lon="16.250970425476623"><ele>274.0</ele><time>2026-05-01T13:15:26.999Z</time></trkpt><trkpt lat="39.0759280803726" lon="16.25092850160546"><ele>274.0</ele><time>2026-05-01T13:15:27.999Z</time></trkpt><trkpt lat="39.07582513309503" lon="16.250888619502643"><ele>274.0</ele><time>2026-05-01T13:15:28.999Z</time></trkpt><trkpt lat="39.075725539258535" lon="16.250847595689944"><ele>278.0</ele><time>2026-05-01T13:15:29.999Z</time></trkpt><trkpt lat="39.07563211367264" lon="16.250782756725627"><ele>282.0</ele><time>2026-05-01T13:15:30.999Z</time></trkpt><trkpt lat="39.0755358504198" lon="16.25073785025748"><ele>286.0</ele><time>2026-05-01T13:15:31.999Z</time></trkpt><trkpt lat="39.0754513584087" lon="16.250719003096968"><ele>290.0</ele><time>2026-05-01T13:15:33Z</time></trkpt><trkpt lat="39.075365115897604" lon="16.250671785644943"><ele>294.0</ele><time>2026-05-01T13:15:34Z</time></trkpt><trkpt lat="39.07527650199654" lon="16.25063226295318"><ele>286.2</ele><time>2026-05-01T13:15:35Z</time></trkpt><trkpt lat="39.07519011108763" lon="16.2505924910717"><ele>278.4</ele><time>2026-05-01T13:15:36Z</time></trkpt><trkpt lat="39.07510382488619" lon="16.250550720192297"><ele>270.6</ele><time>2026-05-01T13:15:37Z</time></trkpt><trkpt lat="39.07501557800845" lon="16.250514522734562"><ele>262.8</ele><time>2026-05-01T13:15:38Z</time></trkpt><trkpt lat="39.074922406278255" lon="16.250489852897573"><ele>255.0</ele><time>2026-05-01T13:15:39Z</time></trkpt><trkpt lat="39.074833367546695" lon="16.25051407677674"><ele>254.2</ele><time>2026-05-01T13:15:40Z</time></trkpt><trkpt lat="39.07473828863272" lon="16.250570889059315"><ele>253.4</ele><time>2026-05-01T13:15:41Z</time></trkpt><trkpt lat="39.07465449105601" lon="16.250633851509566"><ele>252.60000000000002</ele><time>2026-05-01T13:15:42Z</time></trkpt><trkpt lat="39.07455711837843" lon="16.250669929203053"><ele>251.8</ele><time>2026-05-01T13:15:43Z</time></trkpt><trkpt lat="39.07446264353293" lon="16.250722354531394"><ele>251.0</ele><time>2026-05-01T13:15:44Z</time></trkpt><trkpt lat="39.074376476472246" lon="16.25079342173993"><ele>255.33333333333334</ele><time>2026-05-01T13:15:45Z</time></trkpt><trkpt lat="39.07429376907666" lon="16.25085628437894"><ele>259.6666666666667</ele><time>2026-05-01T13:15:46Z</time></trkpt><trkpt lat="39.074230239507806" lon="16.250935401837037"><ele>264.0</ele><time>2026-05-01T13:15:47Z</time></trkpt><trkpt lat="39.074165622444866" lon="16.25099840437617"><ele>268.3333333333333</ele><time>2026-05-01T13:15:48Z</time></trkpt><trkpt lat="39.07410095414335" lon="16.251061384387977"><ele>272.66666666666663</ele><time>2026-05-01T13:15:49Z</time></trkpt><trkpt lat="39.07402376963977" lon="16.251098655983625"><ele>277.0</ele><time>2026-05-01T13:15:50Z</time></trkpt><trkpt lat="39.07392968237525" lon="16.251088666868718"><ele>277.0</ele><time>2026-05-01T13:15:51Z</time></trkpt><trkpt lat="39.07383688544571" lon="16.251082916493967"><ele>277.0</ele><time>2026-05-01T13:15:52Z</time></trkpt><trkpt lat="39.073746913309186" lon="16.251089366878816"><ele>277.0</ele><time>2026-05-01T13:15:53Z</time></trkpt><trkpt lat="39.07365925297125" lon="16.2510749217441"><ele>277.0</ele><time>2026-05-01T13:15:54Z</time></trkpt><trkpt lat="39.073574181952395" lon="16.251114615812597"><ele>277.0</ele><time>2026-05-01T13:15:55Z</time></trkpt><trkpt lat="39.07349425055482" lon="16.251156009672883"><ele>277.0</ele><time>2026-05-01T13:15:56Z</time></trkpt><trkpt lat="39.073409308031174" lon="16.251200268293896"><ele>277.0</ele><time>2026-05-01T13:15:57Z</time></trkpt><trkpt lat="39.07331813778864" lon="16.251235927157175"><ele>277.0</ele><time>2026-05-01T13:15:58Z</time></trkpt><trkpt lat="39.073227819966085" lon="16.251272186867062"><ele>277.0</ele><time>2026-05-01T13:15:59Z</time></trkpt><trkpt lat="39.073136319152816" lon="16.25131148680623"><ele>277.0</ele><time>2026-05-01T13:16:00Z</time></trkpt><trkpt lat="39.073051227721464" lon="16.251360676270966"><ele>277.0</ele><time>2026-05-01T13:16:01Z</time></trkpt><trkpt lat="39.07298716341944" lon="16.25143378644632"><ele>276.66666666666663</ele><time>2026-05-01T13:16:02Z</time></trkpt><trkpt lat="39.07293974258136" lon="16.25152710999464"><ele>276.3333333333333</ele><time>2026-05-01T13:16:03Z</time></trkpt><trkpt lat="39.07289501873238" lon="16.25162510820708"><ele>276.0</ele><time>2026-05-01T13:16:04Z</time></trkpt><trkpt lat="39.072853972869076" lon="16.251721632913235"><ele>275.6666666666667</ele><time>2026-05-01T13:16:05Z</time></trkpt><trkpt lat="39.07282973469454" lon="16.251816788962483"><ele>275.33333333333337</ele><time>2026-05-01T13:16:06Z</time></trkpt><trkpt lat="39.07284559677074" lon="16.25192381646841"><ele>275.0</ele><time>2026-05-01T13:16:07Z</time></trkpt><trkpt lat="39.07288255747488" lon="16.252029368407026"><ele>275.0</ele><time>2026-05-01T13:16:08Z</time></trkpt><trkpt lat="39.072916928124386" lon="16.252138392065103"><ele>275.0</ele><time>2026-05-01T13:16:09Z</time></trkpt><trkpt lat="39.07292407852668" lon="16.252258635160665"><ele>275.0</ele><time>2026-05-01T13:16:10Z</time></trkpt><trkpt lat="39.07295505797491" lon="16.25237593475771"><ele>275.0</ele><time>2026-05-01T13:16:11Z</time></trkpt><trkpt lat="39.0729645135221" lon="16.252497801007156"><ele>275.0</ele><time>2026-05-01T13:16:12Z</time></trkpt><trkpt lat="39.07297919915894" lon="16.25261618428859"><ele>275.6</ele><time>2026-05-01T13:16:13Z</time></trkpt><trkpt lat="39.0730066296023" lon="16.252728176281863"><ele>276.2</ele><time>2026-05-01T13:16:14Z</time></trkpt><trkpt lat="39.073063064789004" lon="16.252827646932044"><ele>276.8</ele><time>2026-05-01T13:16:15Z</time></trkpt><trkpt lat="39.07313650071751" lon="16.252908348215698"><ele>277.4</ele><time>2026-05-01T13:16:16Z</time></trkpt><trkpt lat="39.07321701499146" lon="16.252977013871963"><ele>278.0</ele><time>2026-05-01T13:16:17Z</time></trkpt><trkpt lat="39.07329698344365" lon="16.25304778046074"><ele>281.2</ele><time>2026-05-01T13:16:18Z</time></trkpt><trkpt lat="39.073374813575874" lon="16.253127628105915"><ele>284.4</ele><time>2026-05-01T13:16:19Z</time></trkpt><trkpt lat="39.07344639056114" lon="16.253213930895264"><ele>287.59999999999997</ele><time>2026-05-01T13:16:20Z</time></trkpt><trkpt lat="39.07351346794578" lon="16.253299426994342"><ele>290.8</ele><time>2026-05-01T13:16:21Z</time></trkpt><trkpt lat="39.07356973777457" lon="16.253377035091578"><ele>294.0</ele><time>2026-05-01T13:16:22Z</time></trkpt><trkpt lat="39.0736098166631" lon="16.253476408452617"><ele>294.0</ele><time>2026-05-01T13:16:23Z</time></trkpt><trkpt lat="39.073595392175285" lon="16.25359429709804"><ele>294.0</ele><time>2026-05-01T13:16:24Z</time></trkpt><trkpt lat="39.073598117468975" lon="16.253711904121342"><ele>294.0</ele><time>2026-05-01T13:16:25Z</time></trkpt><trkpt lat="39.073596459084804" lon="16.253834783019677"><ele>294.0</ele><time>2026-05-01T13:16:26Z</time></trkpt><trkpt lat="39.07362723508615" lon="16.25395571923924"><ele>294.0</ele><time>2026-05-01T13:16:27Z</time></trkpt><trkpt lat="39.07366318111701" lon="16.254066115995677"><ele>296.0</ele><time>2026-05-01T13:16:28Z</time></trkpt><trkpt lat="39.07369279044345" lon="16.254167303787373"><ele>298.0</ele><time>2026-05-01T13:16:29Z</time></trkpt><trkpt lat="39.07371011410321" lon="16.254262392044847"><ele>300.0</ele><time>2026-05-01T13:16:30Z</time></trkpt><trkpt lat="39.0736930280287" lon="16.25435368375193"><ele>302.0</ele><time>2026-05-01T13:16:31Z</time></trkpt><trkpt lat="39.073600259737155" lon="16.254389240139695"><ele>304.0</ele><time>2026-05-01T13:16:32Z</time></trkpt><trkpt lat="39.073528189153436" lon="16.254453702067007"><ele>306.0</ele><time>2026-05-01T13:16:33Z</time></trkpt><trkpt lat="39.073464074244455" lon="16.25453863204975"><ele>306.0</ele><time>2026-05-01T13:16:34Z</time></trkpt><trkpt lat="39.07338235569625" lon="16.254589432752834"><ele>306.0</ele><time>2026-05-01T13:16:35Z</time></trkpt><trkpt lat="39.07329084485614" lon="16.254619074191428"><ele>306.0</ele><time>2026-05-01T13:16:36Z</time></trkpt><trkpt lat="39.0731993270069" lon="16.25461559934417"><ele>306.0</ele><time>2026-05-01T13:16:37Z</time></trkpt><trkpt lat="39.07311185296042" lon="16.254586957151822"><ele>306.0</ele><time>2026-05-01T13:16:38Z</time></trkpt><trkpt lat="39.07303607900483" lon="16.25451872610929"><ele>304.6666666666667</ele><time>2026-05-01T13:16:39Z</time></trkpt><trkpt lat="39.072991737248046" lon="16.254418766489852"><ele>303.3333333333333</ele><time>2026-05-01T13:16:40Z</time></trkpt><trkpt lat="39.072962702553866" lon="16.254312666243525"><ele>302.0</ele><time>2026-05-01T13:16:41Z</time></trkpt><trkpt lat="39.07291516649443" lon="16.25422202724016"><ele>300.66666666666663</ele><time>2026-05-01T13:16:42Z</time></trkpt><trkpt lat="39.07285395697302" lon="16.25416329514314"><ele>299.3333333333333</ele><time>2026-05-01T13:16:43Z</time></trkpt><trkpt lat="39.0727726218576" lon="16.25413270365009"><ele>298.0</ele><time>2026-05-01T13:16:44Z</time></trkpt><trkpt lat="39.072704164803476" lon="16.25415079315895"><ele>298.0</ele><time>2026-05-01T13:16:45Z</time></trkpt><trkpt lat="39.07264854331671" lon="16.254312298254703"><ele>298.0</ele><time>2026-05-01T13:16:47Z</time></trkpt><trkpt lat="39.072688685097084" lon="16.25441873606294"><ele>298.0</ele><time>2026-05-01T13:16:48Z</time></trkpt><trkpt lat="39.072728637320154" lon="16.254510775521275"><ele>298.0</ele><time>2026-05-01T13:16:49Z</time></trkpt><trkpt lat="39.072777922982375" lon="16.254598778055026"><ele>298.0</ele><time>2026-05-01T13:16:50Z</time></trkpt><trkpt lat="39.072789955582586" lon="16.25470462022294"><ele>298.3333333333333</ele><time>2026-05-01T13:16:50.999Z</time></trkpt><trkpt lat="39.072808754481" lon="16.254812733505922"><ele>298.66666666666663</ele><time>2026-05-01T13:16:51.999Z</time></trkpt><trkpt lat="39.072835074429086" lon="16.25491413847139"><ele>299.0</ele><time>2026-05-01T13:16:52.999Z</time></trkpt><trkpt lat="39.072859248797876" lon="16.255016747817145"><ele>299.3333333333333</ele><time>2026-05-01T13:16:53.999Z</time></trkpt><trkpt lat="39.072903302245194" lon="16.255093303535613"><ele>299.6666666666667</ele><time>2026-05-01T13:16:54.999Z</time></trkpt><trkpt lat="39.072965814143046" lon="16.25512787054889"><ele>300.0</ele><time>2026-05-01T13:16:55.999Z</time></trkpt><trkpt lat="39.07304429002388" lon="16.255117649838922"><ele>300.0</ele><time>2026-05-01T13:16:56.999Z</time></trkpt><trkpt lat="39.07312706039292" lon="16.255082255800016"><ele>300.0</ele><time>2026-05-01T13:16:57.999Z</time></trkpt><trkpt lat="39.073211689623335" lon="16.25504051342405"><ele>300.0</ele><time>2026-05-01T13:16:58.999Z</time></trkpt><trkpt lat="39.07330171216273" lon="16.254996593476278"><ele>300.0</ele><time>2026-05-01T13:16:59.999Z</time></trkpt><trkpt lat="39.073396269135834" lon="16.25494850379247"><ele>300.0</ele><time>2026-05-01T13:17:00.999Z</time></trkpt><trkpt lat="39.0734868909106" lon="16.254905635090523"><ele>304.0</ele><time>2026-05-01T13:17:01.999Z</time></trkpt><trkpt lat="39.07356269595329" lon="16.254858538289493"><ele>308.0</ele><time>2026-05-01T13:17:02.999Z</time></trkpt><trkpt lat="39.073630645749915" lon="16.2548243253405"><ele>312.0</ele><time>2026-05-01T13:17:03.999Z</time></trkpt><trkpt lat="39.07370740638502" lon="16.254828966589884"><ele>316.0</ele><time>2026-05-01T13:17:04.999Z</time></trkpt><trkpt lat="39.07378147925852" lon="16.254879509414742"><ele>320.0</ele><time>2026-05-01T13:17:05.999Z</time></trkpt><trkpt lat="39.07385714551143" lon="16.254922090243003"><ele>324.0</ele><time>2026-05-01T13:17:06.999Z</time></trkpt><trkpt lat="39.07393506536344" lon="16.25490015925746"><ele>324.0</ele><time>2026-05-01T13:17:07.999Z</time></trkpt><trkpt lat="39.074006760502954" lon="16.254830281740894"><ele>324.0</ele><time>2026-05-01T13:17:08.999Z</time></trkpt><trkpt lat="39.07406192734254" lon="16.254731613822482"><ele>324.0</ele><time>2026-05-01T13:17:09.999Z</time></trkpt><trkpt lat="39.07410433575169" lon="16.254622076621075"><ele>324.0</ele><time>2026-05-01T13:17:10.999Z</time></trkpt><trkpt lat="39.07413550151648" lon="16.254505799612893"><ele>324.0</ele><time>2026-05-01T13:17:11.999Z</time></trkpt><trkpt lat="39.074163262579226" lon="16.254385385995644"><ele>324.6666666666667</ele><time>2026-05-01T13:17:12.999Z</time></trkpt><trkpt lat="39.074196025580704" lon="16.25426492783499"><ele>325.3333333333333</ele><time>2026-05-01T13:17:13.999Z</time></trkpt><trkpt lat="39.07422291466402" lon="16.254159764327863"><ele>326.0</ele><time>2026-05-01T13:17:14.999Z</time></trkpt><trkpt lat="39.07426495863189" lon="16.254075559627413"><ele>326.66666666666663</ele><time>2026-05-01T13:17:15.999Z</time></trkpt><trkpt lat="39.074327264587154" lon="16.254002685172523"><ele>327.3333333333333</ele><time>2026-05-01T13:17:16.999Z</time></trkpt><trkpt lat="39.07440233042877" lon="16.25394758966142"><ele>328.0</ele><time>2026-05-01T13:17:17.999Z</time></trkpt><trkpt lat="39.07447466943094" lon="16.25389453663631"><ele>328.0</ele><time>2026-05-01T13:17:18.999Z</time></trkpt><trkpt lat="39.074531705195895" lon="16.25385482390613"><ele>328.0</ele><time>2026-05-01T13:17:19.999Z</time></trkpt><trkpt lat="39.074643588856915" lon="16.253875267097776"><ele>328.0</ele><time>2026-05-01T13:17:21.999Z</time></trkpt><trkpt lat="39.074689421497546" lon="16.25394259597864"><ele>328.0</ele><time>2026-05-01T13:17:22.999Z</time></trkpt><trkpt lat="39.074718344484" lon="16.254017522147265"><ele>328.0</ele><time>2026-05-01T13:17:23.999Z</time></trkpt><trkpt lat="39.07464606190553" lon="16.254138663826254"><ele>328.0</ele><time>2026-05-01T13:17:27.999Z</time></trkpt><trkpt lat="39.07456835139021" lon="16.254238293041276"><ele>328.0</ele><time>2026-05-01T13:17:29.999Z</time></trkpt><trkpt lat="39.07447437057754" lon="16.254357406552728"><ele>328.0</ele><time>2026-05-01T13:17:31.999Z</time></trkpt><trkpt lat="39.074424446361625" lon="16.254424741068476"><ele>328.0</ele><time>2026-05-01T13:17:32.999Z</time></trkpt><trkpt lat="39.07438061606468" lon="16.254506886040865"><ele>328.0</ele><time>2026-05-01T13:17:33.999Z</time></trkpt><trkpt lat="39.074341673378754" lon="16.254601818395084"><ele>328.0</ele><time>2026-05-01T13:17:34.999Z</time></trkpt><trkpt lat="39.07431581915205" lon="16.25470492241425"><ele>328.0</ele><time>2026-05-01T13:17:35.999Z</time></trkpt><trkpt lat="39.074281352779494" lon="16.254815894516824"><ele>330.0</ele><time>2026-05-01T13:17:36.999Z</time></trkpt><trkpt lat="39.074262168322626" lon="16.254925094616933"><ele>332.0</ele><time>2026-05-01T13:17:37.999Z</time></trkpt><trkpt lat="39.07423882075671" lon="16.25504734412289"><ele>334.0</ele><time>2026-05-01T13:17:39Z</time></trkpt><trkpt lat="39.07422699902864" lon="16.2551727738577"><ele>336.0</ele><time>2026-05-01T13:17:40Z</time></trkpt><trkpt lat="39.07417535229161" lon="16.255280317734385"><ele>338.0</ele><time>2026-05-01T13:17:41Z</time></trkpt><trkpt lat="39.07411390408955" lon="16.25538525075986"><ele>338.0</ele><time>2026-05-01T13:17:42Z</time></trkpt><trkpt lat="39.07404780932278" lon="16.255479813929945"><ele>338.0</ele><time>2026-05-01T13:17:43Z</time></trkpt><trkpt lat="39.07398311262647" lon="16.25556017456729"><ele>338.0</ele><time>2026-05-01T13:17:44Z</time></trkpt><trkpt lat="39.07392094788409" lon="16.255632617263505"><ele>338.0</ele><time>2026-05-01T13:17:45Z</time></trkpt><trkpt lat="39.07385650683105" lon="16.255686135694006"><ele>338.0</ele><time>2026-05-01T13:17:46Z</time></trkpt><trkpt lat="39.073780737143515" lon="16.255715642658178"><ele>338.0</ele><time>2026-05-01T13:17:47Z</time></trkpt><trkpt lat="39.073714806493676" lon="16.25575738573476"><ele>338.0</ele><time>2026-05-01T13:17:48Z</time></trkpt><trkpt lat="39.07365723063634" lon="16.25582569551211"><ele>338.0</ele><time>2026-05-01T13:17:49Z</time></trkpt><trkpt lat="39.07362063368374" lon="16.255914234352748"><ele>338.0</ele><time>2026-05-01T13:17:50Z</time></trkpt><trkpt lat="39.07357849035337" lon="16.255997311700728"><ele>338.0</ele><time>2026-05-01T13:17:51Z</time></trkpt><trkpt lat="39.07354727857409" lon="16.256076724871757"><ele>338.0</ele><time>2026-05-01T13:17:52Z</time></trkpt><trkpt lat="39.0735088694054" lon="16.256156738550704"><ele>338.0</ele><time>2026-05-01T13:17:53Z</time></trkpt><trkpt lat="39.07343772595679" lon="16.25621562574082"><ele>338.0</ele><time>2026-05-01T13:17:54Z</time></trkpt><trkpt lat="39.0733742223999" lon="16.25627073221895"><ele>338.0</ele><time>2026-05-01T13:17:55Z</time></trkpt><trkpt lat="39.07331848247193" lon="16.256325991462887"><ele>338.0</ele><time>2026-05-01T13:17:56Z</time></trkpt><trkpt lat="39.073281314781134" lon="16.25643390505078"><ele>338.0</ele><time>2026-05-01T13:17:57Z</time></trkpt><trkpt lat="39.07326088675102" lon="16.256551727130624"><ele>338.0</ele><time>2026-05-01T13:17:58Z</time></trkpt><trkpt lat="39.07324142536022" lon="16.256665947917252"><ele>338.0</ele><time>2026-05-01T13:17:59Z</time></trkpt><trkpt lat="39.07321738423016" lon="16.256779065425317"><ele>339.0</ele><time>2026-05-01T13:18:00Z</time></trkpt><trkpt lat="39.07317798558723" lon="16.256871054326464"><ele>340.0</ele><time>2026-05-01T13:18:01Z</time></trkpt><trkpt lat="39.07312865756837" lon="16.256964476986813"><ele>341.0</ele><time>2026-05-01T13:18:02Z</time></trkpt><trkpt lat="39.07305701171821" lon="16.257045933210694"><ele>342.0</ele><time>2026-05-01T13:18:03Z</time></trkpt><trkpt lat="39.07298579331624" lon="16.257124757623465"><ele>343.0</ele><time>2026-05-01T13:18:04Z</time></trkpt><trkpt lat="39.072908525901774" lon="16.257198695630663"><ele>343.0</ele><time>2026-05-01T13:18:05Z</time></trkpt><trkpt lat="39.07282117621197" lon="16.257253712718786"><ele>343.0</ele><time>2026-05-01T13:18:06Z</time></trkpt><trkpt lat="39.072743548623215" lon="16.25733459108997"><ele>343.0</ele><time>2026-05-01T13:18:07Z</time></trkpt><trkpt lat="39.072687132969826" lon="16.25744402710574"><ele>343.0</ele><time>2026-05-01T13:18:08Z</time></trkpt><trkpt lat="39.07262993140162" lon="16.25755131949298"><ele>343.0</ele><time>2026-05-01T13:18:09Z</time></trkpt><trkpt lat="39.07256542647719" lon="16.25764587645287"><ele>343.4</ele><time>2026-05-01T13:18:10Z</time></trkpt><trkpt lat="39.07252215323936" lon="16.257757799236995"><ele>343.79999999999995</ele><time>2026-05-01T13:18:11Z</time></trkpt><trkpt lat="39.072485806945444" lon="16.25786389094645"><ele>344.2</ele><time>2026-05-01T13:18:12Z</time></trkpt><trkpt lat="39.07244963415987" lon="16.257969477109228"><ele>344.6</ele><time>2026-05-01T13:18:13Z</time></trkpt><trkpt lat="39.07240251851368" lon="16.258063242845427"><ele>345.0</ele><time>2026-05-01T13:18:14Z</time></trkpt><trkpt lat="39.07234512639518" lon="16.258148971292375"><ele>341.8</ele><time>2026-05-01T13:18:15Z</time></trkpt><trkpt lat="39.0722838285331" lon="16.258242359490154"><ele>338.6</ele><time>2026-05-01T13:18:16Z</time></trkpt><trkpt lat="39.07221960257477" lon="16.258321415327625"><ele>335.4</ele><time>2026-05-01T13:18:17Z</time></trkpt><trkpt lat="39.07214589474918" lon="16.25839867047308"><ele>332.2</ele><time>2026-05-01T13:18:18Z</time></trkpt><trkpt lat="39.07206885518036" lon="16.258466238535075"><ele>329.0</ele><time>2026-05-01T13:18:19Z</time></trkpt><trkpt lat="39.07198065783425" lon="16.2585289504555"><ele>329.0</ele><time>2026-05-01T13:18:20Z</time></trkpt><trkpt lat="39.07189332565872" lon="16.25858639259997"><ele>329.0</ele><time>2026-05-01T13:18:21Z</time></trkpt><trkpt lat="39.07180717188334" lon="16.258655800691827"><ele>329.0</ele><time>2026-05-01T13:18:22Z</time></trkpt><trkpt lat="39.0717164862619" lon="16.25872410413416"><ele>329.0</ele><time>2026-05-01T13:18:23Z</time></trkpt><trkpt lat="39.07162496417632" lon="16.258803010518502"><ele>329.0</ele><time>2026-05-01T13:18:24Z</time></trkpt><trkpt lat="39.071540306123985" lon="16.258903097382184"><ele>328.0</ele><time>2026-05-01T13:18:25Z</time></trkpt><trkpt lat="39.07146091773318" lon="16.259007403214824"><ele>327.0</ele><time>2026-05-01T13:18:26Z</time></trkpt><trkpt lat="39.07139175901657" lon="16.2591209091706"><ele>326.0</ele><time>2026-05-01T13:18:27Z</time></trkpt><trkpt lat="39.07133776232521" lon="16.259231632633224"><ele>325.0</ele><time>2026-05-01T13:18:28Z</time></trkpt><trkpt lat="39.07129559702448" lon="16.259346469395012"><ele>324.0</ele><time>2026-05-01T13:18:29Z</time></trkpt><trkpt lat="39.071251937222804" lon="16.2594673790426"><ele>324.0</ele><time>2026-05-01T13:18:30Z</time></trkpt><trkpt lat="39.07121236589716" lon="16.25958153862003"><ele>324.0</ele><time>2026-05-01T13:18:31Z</time></trkpt><trkpt lat="39.07117683845927" lon="16.25969998927817"><ele>324.0</ele><time>2026-05-01T13:18:32Z</time></trkpt><trkpt lat="39.07114212324196" lon="16.259815954418738"><ele>324.0</ele><time>2026-05-01T13:18:33Z</time></trkpt><trkpt lat="39.07111213073936" lon="16.259929756851097"><ele>324.0</ele><time>2026-05-01T13:18:34Z</time></trkpt><trkpt lat="39.071093389794484" lon="16.26005909361493"><ele>325.79999999999995</ele><time>2026-05-01T13:18:35Z</time></trkpt><trkpt lat="39.07108493822085" lon="16.26019245357013"><ele>327.59999999999997</ele><time>2026-05-01T13:18:36Z</time></trkpt><trkpt lat="39.07107356497581" lon="16.26032365532468"><ele>329.4</ele><time>2026-05-01T13:18:37Z</time></trkpt><trkpt lat="39.07105839294382" lon="16.260460826662374"><ele>331.2</ele><time>2026-05-01T13:18:38Z</time></trkpt><trkpt lat="39.07103789217536" lon="16.26059879424335"><ele>333.0</ele><time>2026-05-01T13:18:39Z</time></trkpt><trkpt lat="39.071023359676126" lon="16.260741386739692"><ele>333.25</ele><time>2026-05-01T13:18:40Z</time></trkpt><trkpt lat="39.07100745491283" lon="16.260883708613658"><ele>333.5</ele><time>2026-05-01T13:18:41Z</time></trkpt><trkpt lat="39.07099000505277" lon="16.261027846441184"><ele>333.75</ele><time>2026-05-01T13:18:42Z</time></trkpt><trkpt lat="39.070947479923284" lon="16.261170621990157"><ele>334.0</ele><time>2026-05-01T13:18:43Z</time></trkpt><trkpt lat="39.070918255211765" lon="16.26131580068162"><ele>334.25</ele><time>2026-05-01T13:18:44Z</time></trkpt><trkpt lat="39.07087151269922" lon="16.261459992434155"><ele>334.5</ele><time>2026-05-01T13:18:45Z</time></trkpt><trkpt lat="39.07083572099401" lon="16.261604831672"><ele>334.75</ele><time>2026-05-01T13:18:46Z</time></trkpt><trkpt lat="39.070832204756115" lon="16.261761235110843"><ele>335.0</ele><time>2026-05-01T13:18:47Z</time></trkpt><trkpt lat="39.07083223042673" lon="16.26191632903354"><ele>335.0</ele><time>2026-05-01T13:18:47.999Z</time></trkpt><trkpt lat="39.07084269760979" lon="16.262061325753734"><ele>335.0</ele><time>2026-05-01T13:18:48.999Z</time></trkpt><trkpt lat="39.07084429034286" lon="16.262208814371533"><ele>335.0</ele><time>2026-05-01T13:18:49.999Z</time></trkpt><trkpt lat="39.07082579507017" lon="16.26235006263356"><ele>335.0</ele><time>2026-05-01T13:18:50.999Z</time></trkpt><trkpt lat="39.07078405408789" lon="16.262488195054424"><ele>335.25</ele><time>2026-05-01T13:18:51.999Z</time></trkpt><trkpt lat="39.07072573920974" lon="16.2626186558717"><ele>335.5</ele><time>2026-05-01T13:18:52.999Z</time></trkpt><trkpt lat="39.070659042203296" lon="16.262751028678792"><ele>335.75</ele><time>2026-05-01T13:18:53.999Z</time></trkpt><trkpt lat="39.07059337602182" lon="16.262881716165616"><ele>336.0</ele><time>2026-05-01T13:18:54.999Z</time></trkpt><trkpt lat="39.07053573170114" lon="16.262996438694472"><ele>336.0</ele><time>2026-05-01T13:18:55.999Z</time></trkpt><trkpt lat="39.07049041553501" lon="16.26310121778393"><ele>336.0</ele><time>2026-05-01T13:18:56.999Z</time></trkpt><trkpt lat="39.070440574313615" lon="16.263186248855266"><ele>336.0</ele><time>2026-05-01T13:18:57.999Z</time></trkpt><trkpt lat="39.070375148857046" lon="16.263244668377872"><ele>336.0</ele><time>2026-05-01T13:18:59.999Z</time></trkpt><trkpt lat="39.0703136720388" lon="16.263277542636175"><ele>336.0</ele><time>2026-05-01T13:19:01.999Z</time></trkpt><trkpt lat="39.07021776328232" lon="16.26333203491405"><ele>336.0</ele><time>2026-05-01T13:19:03.999Z</time></trkpt><trkpt lat="39.070117734285155" lon="16.263410194654913"><ele>337.3333333333333</ele><time>2026-05-01T13:19:05.999Z</time></trkpt><trkpt lat="39.0700642582125" lon="16.263463036353144"><ele>338.6666666666667</ele><time>2026-05-01T13:19:06.999Z</time></trkpt><trkpt lat="39.07001433315481" lon="16.263529152026475"><ele>340.0</ele><time>2026-05-01T13:19:07.999Z</time></trkpt><trkpt lat="39.06997999997479" lon="16.263618235331517"><ele>341.33333333333337</ele><time>2026-05-01T13:19:08.999Z</time></trkpt><trkpt lat="39.06996198452077" lon="16.26372406335448"><ele>342.6666666666667</ele><time>2026-05-01T13:19:09.999Z</time></trkpt><trkpt lat="39.069952437307016" lon="16.263836368049425"><ele>344.0</ele><time>2026-05-01T13:19:10.999Z</time></trkpt><trkpt lat="39.06994720305522" lon="16.2639538726939"><ele>346.0</ele><time>2026-05-01T13:19:11.999Z</time></trkpt><trkpt lat="39.06994117462445" lon="16.26407387111807"><ele>348.0</ele><time>2026-05-01T13:19:12.999Z</time></trkpt><trkpt lat="39.0699358530341" lon="16.26419687429759"><ele>350.0</ele><time>2026-05-01T13:19:13.999Z</time></trkpt><trkpt lat="39.069931524674814" lon="16.26431526447954"><ele>352.0</ele><time>2026-05-01T13:19:14.999Z</time></trkpt><trkpt lat="39.069924658392985" lon="16.264423889229352"><ele>354.0</ele><time>2026-05-01T13:19:15.999Z</time></trkpt><trkpt lat="39.06992047014978" lon="16.264527358820065"><ele>356.0</ele><time>2026-05-01T13:19:16.999Z</time></trkpt><trkpt lat="39.06991656960864" lon="16.26462078773135"><ele>356.0</ele><time>2026-05-01T13:19:17.999Z</time></trkpt><trkpt lat="39.06991303714616" lon="16.264713612875813"><ele>356.0</ele><time>2026-05-01T13:19:18.999Z</time></trkpt><trkpt lat="39.069915188514976" lon="16.264819201572173"><ele>356.0</ele><time>2026-05-01T13:19:19.999Z</time></trkpt><trkpt lat="39.06991924860421" lon="16.264915407902247"><ele>356.0</ele><time>2026-05-01T13:19:20.999Z</time></trkpt><trkpt lat="39.06992715698386" lon="16.26506340530911"><ele>356.0</ele><time>2026-05-01T13:19:22.999Z</time></trkpt><trkpt lat="39.0699515991931" lon="16.26523320064167"><ele>355.5</ele><time>2026-05-01T13:19:24.999Z</time></trkpt><trkpt lat="39.06998128730213" lon="16.265330326810346"><ele>355.0</ele><time>2026-05-01T13:19:25.999Z</time></trkpt><trkpt lat="39.06997976797256" lon="16.265438370362805"><ele>354.5</ele><time>2026-05-01T13:19:26.999Z</time></trkpt><trkpt lat="39.07000557813013" lon="16.265539848337706"><ele>354.0</ele><time>2026-05-01T13:19:27.999Z</time></trkpt><trkpt lat="39.07002193667941" lon="16.265652008513317"><ele>353.5</ele><time>2026-05-01T13:19:28.999Z</time></trkpt><trkpt lat="39.07003822360665" lon="16.265765263977716"><ele>353.0</ele><time>2026-05-01T13:19:29.999Z</time></trkpt><trkpt lat="39.070038295171464" lon="16.26588242492626"><ele>353.0</ele><time>2026-05-01T13:19:30.999Z</time></trkpt><trkpt lat="39.07006345533801" lon="16.2660071756398"><ele>353.0</ele><time>2026-05-01T13:19:31.999Z</time></trkpt><trkpt lat="39.07005040610811" lon="16.2661291715845"><ele>353.0</ele><time>2026-05-01T13:19:32.999Z</time></trkpt><trkpt lat="39.07004030327327" lon="16.266250847466342"><ele>353.0</ele><time>2026-05-01T13:19:33.999Z</time></trkpt><trkpt lat="39.070027580102725" lon="16.26637938246258"><ele>353.0</ele><time>2026-05-01T13:19:34.999Z</time></trkpt><trkpt lat="39.07001269207927" lon="16.26650586142702"><ele>354.4</ele><time>2026-05-01T13:19:35.999Z</time></trkpt><trkpt lat="39.06999824656011" lon="16.26663403362167"><ele>355.79999999999995</ele><time>2026-05-01T13:19:36.999Z</time></trkpt><trkpt lat="39.06998529962068" lon="16.26675867534629"><ele>357.2</ele><time>2026-05-01T13:19:37.999Z</time></trkpt><trkpt lat="39.06997567197316" lon="16.266875759409686"><ele>358.6</ele><time>2026-05-01T13:19:38.999Z</time></trkpt><trkpt lat="39.06996832736182" lon="16.266992704773443"><ele>360.0</ele><time>2026-05-01T13:19:39.999Z</time></trkpt><trkpt lat="39.06996980583336" lon="16.267097189979662"><ele>360.0</ele><time>2026-05-01T13:19:40.999Z</time></trkpt><trkpt lat="39.06999903732188" lon="16.26720507371544"><ele>360.0</ele><time>2026-05-01T13:19:41.999Z</time></trkpt><trkpt lat="39.07007380002221" lon="16.26727274288391"><ele>360.0</ele><time>2026-05-01T13:19:42.999Z</time></trkpt><trkpt lat="39.07017243981544" lon="16.267299214743197"><ele>360.0</ele><time>2026-05-01T13:19:43.999Z</time></trkpt><trkpt lat="39.07027227475683" lon="16.26727668973339"><ele>360.0</ele><time>2026-05-01T13:19:45Z</time></trkpt><trkpt lat="39.07036773641015" lon="16.26726982303982"><ele>360.0</ele><time>2026-05-01T13:19:46Z</time></trkpt><trkpt lat="39.07046249415699" lon="16.2672689291348"><ele>360.0</ele><time>2026-05-01T13:19:47Z</time></trkpt><trkpt lat="39.07056460532139" lon="16.267287173608324"><ele>360.0</ele><time>2026-05-01T13:19:48Z</time></trkpt><trkpt lat="39.070667045347975" lon="16.267270217808225"><ele>360.0</ele><time>2026-05-01T13:19:49Z</time></trkpt><trkpt lat="39.07077445119668" lon="16.26727278819578"><ele>360.0</ele><time>2026-05-01T13:19:50Z</time></trkpt><trkpt lat="39.07088010022126" lon="16.267275577918422"><ele>356.6</ele><time>2026-05-01T13:19:51Z</time></trkpt><trkpt lat="39.07098207741569" lon="16.267276992664907"><ele>353.2</ele><time>2026-05-01T13:19:52Z</time></trkpt><trkpt lat="39.07107843306914" lon="16.26726344830725"><ele>349.79999999999995</ele><time>2026-05-01T13:19:53Z</time></trkpt><trkpt lat="39.071166829565946" lon="16.26721610273361"><ele>346.4</ele><time>2026-05-01T13:19:54Z</time></trkpt><trkpt lat="39.0712344876363" lon="16.26712425235718"><ele>343.0</ele><time>2026-05-01T13:19:55Z</time></trkpt><trkpt lat="39.07127264710898" lon="16.26700025925498"><ele>343.0</ele><time>2026-05-01T13:19:56Z</time></trkpt><trkpt lat="39.071295868053326" lon="16.266869183700294"><ele>343.0</ele><time>2026-05-01T13:19:57Z</time></trkpt><trkpt lat="39.07132622286988" lon="16.266741765831313"><ele>343.0</ele><time>2026-05-01T13:19:58Z</time></trkpt><trkpt lat="39.07135394632185" lon="16.266612982041426"><ele>343.0</ele><time>2026-05-01T13:19:59Z</time></trkpt><trkpt lat="39.07137318532801" lon="16.266485494454866"><ele>343.0</ele><time>2026-05-01T13:20:00Z</time></trkpt><trkpt lat="39.071387169187375" lon="16.266363440163705"><ele>341.59999999999997</ele><time>2026-05-01T13:20:01Z</time></trkpt><trkpt lat="39.07140991682498" lon="16.266247203145255"><ele>340.2</ele><time>2026-05-01T13:20:02Z</time></trkpt><trkpt lat="39.07144684422115" lon="16.266138600876854"><ele>338.8</ele><time>2026-05-01T13:20:03Z</time></trkpt><trkpt lat="39.07150167460296" lon="16.266039575529245"><ele>337.4</ele><time>2026-05-01T13:20:04Z</time></trkpt><trkpt lat="39.071563540727425" lon="16.2659463072128"><ele>336.0</ele><time>2026-05-01T13:20:05Z</time></trkpt><trkpt lat="39.07162196558504" lon="16.265850904405546"><ele>339.3333333333333</ele><time>2026-05-01T13:20:06Z</time></trkpt><trkpt lat="39.071687635421966" lon="16.265768191618342"><ele>342.6666666666667</ele><time>2026-05-01T13:20:07Z</time></trkpt><trkpt lat="39.07176008367924" lon="16.265720708153086"><ele>346.0</ele><time>2026-05-01T13:20:08Z</time></trkpt><trkpt lat="39.07183314501026" lon="16.265716764203027"><ele>349.33333333333337</ele><time>2026-05-01T13:20:09Z</time></trkpt><trkpt lat="39.071900957766836" lon="16.265746359224558"><ele>352.6666666666667</ele><time>2026-05-01T13:20:10Z</time></trkpt><trkpt lat="39.07197014979622" lon="16.265798311263126"><ele>356.0</ele><time>2026-05-01T13:20:11Z</time></trkpt><trkpt lat="39.07204462089446" lon="16.2658550218283"><ele>356.0</ele><time>2026-05-01T13:20:12Z</time></trkpt><trkpt lat="39.07212827249595" lon="16.265904541413214"><ele>356.0</ele><time>2026-05-01T13:20:13Z</time></trkpt><trkpt lat="39.07222512912339" lon="16.26593690644989"><ele>356.0</ele><time>2026-05-01T13:20:14Z</time></trkpt><trkpt lat="39.07232614863685" lon="16.26595972523"><ele>356.0</ele><time>2026-05-01T13:20:15Z</time></trkpt><trkpt lat="39.07243125632911" lon="16.265979142582793"><ele>356.0</ele><time>2026-05-01T13:20:16Z</time></trkpt><trkpt lat="39.07253959888852" lon="16.265999733001333"><ele>357.4</ele><time>2026-05-01T13:20:17Z</time></trkpt><trkpt lat="39.07264800881182" lon="16.266025086942207"><ele>358.8</ele><time>2026-05-01T13:20:18Z</time></trkpt><trkpt lat="39.07275300549241" lon="16.266055550832096"><ele>360.2</ele><time>2026-05-01T13:20:19Z</time></trkpt><trkpt lat="39.072857400437755" lon="16.266088096133352"><ele>361.59999999999997</ele><time>2026-05-01T13:20:20Z</time></trkpt><trkpt lat="39.072959047561305" lon="16.266113131360797"><ele>363.0</ele><time>2026-05-01T13:20:21Z</time></trkpt><trkpt lat="39.073059964898334" lon="16.266110682043845"><ele>363.0</ele><time>2026-05-01T13:20:22Z</time></trkpt><trkpt lat="39.07315634669715" lon="16.26607076718619"><ele>363.0</ele><time>2026-05-01T13:20:23Z</time></trkpt><trkpt lat="39.07324200528988" lon="16.2660153165632"><ele>363.0</ele><time>2026-05-01T13:20:24Z</time></trkpt><trkpt lat="39.07330490515659" lon="16.265952075898507"><ele>363.0</ele><time>2026-05-01T13:20:25Z</time></trkpt><trkpt lat="39.07333776171483" lon="16.2658561564632"><ele>363.0</ele><time>2026-05-01T13:20:26Z</time></trkpt><trkpt lat="39.07332692054196" lon="16.265749266689884"><ele>363.0</ele><time>2026-05-01T13:20:27Z</time></trkpt><trkpt lat="39.07329050755719" lon="16.265640183762873"><ele>361.2</ele><time>2026-05-01T13:20:28Z</time></trkpt><trkpt lat="39.073251467972796" lon="16.265531833182937"><ele>359.4</ele><time>2026-05-01T13:20:29Z</time></trkpt><trkpt lat="39.07322290872853" lon="16.265421458159686"><ele>357.59999999999997</ele><time>2026-05-01T13:20:30Z</time></trkpt><trkpt lat="39.073197169367894" lon="16.26530837183813"><ele>355.79999999999995</ele><time>2026-05-01T13:20:31Z</time></trkpt><trkpt lat="39.07316863082017" lon="16.265200897584183"><ele>354.0</ele><time>2026-05-01T13:20:32Z</time></trkpt><trkpt lat="39.07314295706811" lon="16.265093578386125"><ele>354.0</ele><time>2026-05-01T13:20:33Z</time></trkpt><trkpt lat="39.0731325028064" lon="16.264979620597696"><ele>354.0</ele><time>2026-05-01T13:20:34Z</time></trkpt><trkpt lat="39.07314553764337" lon="16.264858527087334"><ele>354.0</ele><time>2026-05-01T13:20:35Z</time></trkpt><trkpt lat="39.07319903711443" lon="16.264747965379584"><ele>354.0</ele><time>2026-05-01T13:20:36Z</time></trkpt><trkpt lat="39.073245060600065" lon="16.26463625877572"><ele>354.0</ele><time>2026-05-01T13:20:37Z</time></trkpt><trkpt lat="39.073321434370165" lon="16.264545401920298"><ele>358.4</ele><time>2026-05-01T13:20:38Z</time></trkpt><trkpt lat="39.0734047370772" lon="16.264465708550357"><ele>362.79999999999995</ele><time>2026-05-01T13:20:39Z</time></trkpt><trkpt lat="39.07348762219063" lon="16.264391004399684"><ele>367.20000000000005</ele><time>2026-05-01T13:20:40Z</time></trkpt><trkpt lat="39.07357105574374" lon="16.264326206698605"><ele>371.6</ele><time>2026-05-01T13:20:41Z</time></trkpt><trkpt lat="39.07366207461949" lon="16.26428729364333"><ele>376.0</ele><time>2026-05-01T13:20:42Z</time></trkpt><trkpt lat="39.073755690007374" lon="16.26426738332777"><ele>376.0</ele><time>2026-05-01T13:20:43Z</time></trkpt><trkpt lat="39.073839372359345" lon="16.26423949529153"><ele>376.0</ele><time>2026-05-01T13:20:44Z</time></trkpt><trkpt lat="39.07390641936833" lon="16.264182427686325"><ele>376.0</ele><time>2026-05-01T13:20:45Z</time></trkpt><trkpt lat="39.07395177884522" lon="16.26409087310416"><ele>376.0</ele><time>2026-05-01T13:20:45.999Z</time></trkpt><trkpt lat="39.07397226728407" lon="16.2639780642077"><ele>376.0</ele><time>2026-05-01T13:20:46.999Z</time></trkpt><trkpt lat="39.07394834775411" lon="16.263865151675542"><ele>376.0</ele><time>2026-05-01T13:20:47.999Z</time></trkpt><trkpt lat="39.073889900314875" lon="16.263772834233947"><ele>377.66666666666663</ele><time>2026-05-01T13:20:48.999Z</time></trkpt><trkpt lat="39.073837574848795" lon="16.26368135541346"><ele>379.3333333333333</ele><time>2026-05-01T13:20:49.999Z</time></trkpt><trkpt lat="39.07379285500913" lon="16.26358651262613"><ele>381.0</ele><time>2026-05-01T13:20:50.999Z</time></trkpt><trkpt lat="39.073750693984536" lon="16.263492050069186"><ele>382.66666666666663</ele><time>2026-05-01T13:20:51.999Z</time></trkpt><trkpt lat="39.07370698272707" lon="16.263412334305684"><ele>384.3333333333333</ele><time>2026-05-01T13:20:52.999Z</time></trkpt><trkpt lat="39.07367118296349" lon="16.263345085391958"><ele>386.0</ele><time>2026-05-01T13:20:53.999Z</time></trkpt><trkpt lat="39.07365789470116" lon="16.263204357236532"><ele>386.00000000000006</ele><time>2026-05-01T13:20:55.999Z</time></trkpt><trkpt lat="39.07369806396018" lon="16.26313957009351"><ele>386.0</ele><time>2026-05-01T13:20:56.999Z</time></trkpt><trkpt lat="39.073757874084336" lon="16.26309579304965"><ele>386.0</ele><time>2026-05-01T13:20:57.999Z</time></trkpt><trkpt lat="39.07382134454669" lon="16.263053918034686"><ele>386.0</ele><time>2026-05-01T13:20:58.999Z</time></trkpt><trkpt lat="39.0738931332457" lon="16.263019415325346"><ele>386.0</ele><time>2026-05-01T13:20:59.999Z</time></trkpt><trkpt lat="39.07396861473704" lon="16.262995490723522"><ele>386.00000000000006</ele><time>2026-05-01T13:21:00.999Z</time></trkpt><trkpt lat="39.074045373683774" lon="16.262969835494587"><ele>386.0</ele><time>2026-05-01T13:21:01.999Z</time></trkpt><trkpt lat="39.074120897200594" lon="16.26294330709133"><ele>389.3333333333333</ele><time>2026-05-01T13:21:02.999Z</time></trkpt><trkpt lat="39.07419480117246" lon="16.262913580301046"><ele>392.66666666666663</ele><time>2026-05-01T13:21:03.999Z</time></trkpt><trkpt lat="39.07425690070942" lon="16.262856662887266"><ele>396.0</ele><time>2026-05-01T13:21:04.999Z</time></trkpt><trkpt lat="39.07427919102934" lon="16.262763447611295"><ele>399.33333333333337</ele><time>2026-05-01T13:21:05.999Z</time></trkpt><trkpt lat="39.07427987383731" lon="16.26266107014714"><ele>402.6666666666667</ele><time>2026-05-01T13:21:06.999Z</time></trkpt><trkpt lat="39.0742846478949" lon="16.262559451620113"><ele>406.0</ele><time>2026-05-01T13:21:07.999Z</time></trkpt><trkpt lat="39.074231319310236" lon="16.262462613528594"><ele>406.00000000000006</ele><time>2026-05-01T13:21:08.999Z</time></trkpt><trkpt lat="39.07413963331809" lon="16.26241561016714"><ele>406.0</ele><time>2026-05-01T13:21:09.999Z</time></trkpt><trkpt lat="39.07406943251253" lon="16.262374810588597"><ele>406.0</ele><time>2026-05-01T13:21:10.999Z</time></trkpt><trkpt lat="39.074003812332755" lon="16.2623399391257"><ele>406.0</ele><time>2026-05-01T13:21:11.999Z</time></trkpt><trkpt lat="39.0739783535611" lon="16.26224936927774"><ele>406.00000000000006</ele><time>2026-05-01T13:21:12.999Z</time></trkpt><trkpt lat="39.07397423174764" lon="16.26215200073416"><ele>406.0</ele><time>2026-05-01T13:21:13.999Z</time></trkpt><trkpt lat="39.07397410665052" lon="16.262055557236742"><ele>401.83333333333337</ele><time>2026-05-01T13:21:14.999Z</time></trkpt><trkpt lat="39.07396154486757" lon="16.26195754282789"><ele>397.6666666666667</ele><time>2026-05-01T13:21:15.999Z</time></trkpt><trkpt lat="39.07395533764197" lon="16.261850404514327"><ele>393.5</ele><time>2026-05-01T13:21:16.999Z</time></trkpt><trkpt lat="39.07394569822277" lon="16.261743098551744"><ele>389.33333333333337</ele><time>2026-05-01T13:21:17.999Z</time></trkpt><trkpt lat="39.073939592142544" lon="16.26163924449539"><ele>385.1666666666667</ele><time>2026-05-01T13:21:18.999Z</time></trkpt><trkpt lat="39.07393725347384" lon="16.26154416002204"><ele>381.0</ele><time>2026-05-01T13:21:19.999Z</time></trkpt><trkpt lat="39.07396507168622" lon="16.261464452283533"><ele>381.0</ele><time>2026-05-01T13:21:20.999Z</time></trkpt><trkpt lat="39.074025129299955" lon="16.261429352679272"><ele>381.0</ele><time>2026-05-01T13:21:21.999Z</time></trkpt><trkpt lat="39.07412354103654" lon="16.261432048812576"><ele>381.0</ele><time>2026-05-01T13:21:23.999Z</time></trkpt><trkpt lat="39.07414241531934" lon="16.26156193625198"><ele>381.0</ele><time>2026-05-01T13:21:24.999Z</time></trkpt><trkpt lat="39.07412505765811" lon="16.26164241968018"><ele>381.0</ele><time>2026-05-01T13:21:25.999Z</time></trkpt><trkpt lat="39.07409445509276" lon="16.261809794537616"><ele>381.0</ele><time>2026-05-01T13:21:27.999Z</time></trkpt><trkpt lat="39.07407290435602" lon="16.261906043032567"><ele>381.0</ele><time>2026-05-01T13:21:28.999Z</time></trkpt><trkpt lat="39.07406908446749" lon="16.262011058736334"><ele>381.0</ele><time>2026-05-01T13:21:29.999Z</time></trkpt><trkpt lat="39.07409128365024" lon="16.2621226228214"><ele>381.0</ele><time>2026-05-01T13:21:30.999Z</time></trkpt><trkpt lat="39.07414849518084" lon="16.262216505982504"><ele>381.0</ele><time>2026-05-01T13:21:31.999Z</time></trkpt><trkpt lat="39.074234264637724" lon="16.262291134245714"><ele>381.0</ele><time>2026-05-01T13:21:32.999Z</time></trkpt><trkpt lat="39.07433008718213" lon="16.262358711840776"><ele>386.0</ele><time>2026-05-01T13:21:33.999Z</time></trkpt><trkpt lat="39.074421050515475" lon="16.26243318077717"><ele>391.0</ele><time>2026-05-01T13:21:34.999Z</time></trkpt><trkpt lat="39.07451276900607" lon="16.262503413833894"><ele>396.0</ele><time>2026-05-01T13:21:35.999Z</time></trkpt><trkpt lat="39.07459844607188" lon="16.262569002130885"><ele>401.0</ele><time>2026-05-01T13:21:36.999Z</time></trkpt><trkpt lat="39.07466600114397" lon="16.262641149618442"><ele>406.0</ele><time>2026-05-01T13:21:37.999Z</time></trkpt><trkpt lat="39.07470234825734" lon="16.262740924920916"><ele>406.00000000000006</ele><time>2026-05-01T13:21:38.999Z</time></trkpt><trkpt lat="39.07471037861955" lon="16.262850411265845"><ele>406.0</ele><time>2026-05-01T13:21:39.999Z</time></trkpt><trkpt lat="39.07466794775076" lon="16.262932833557397"><ele>406.0</ele><time>2026-05-01T13:21:40.999Z</time></trkpt><trkpt lat="39.074631141927945" lon="16.2630409440652"><ele>406.0</ele><time>2026-05-01T13:21:41.999Z</time></trkpt><trkpt lat="39.07456713005456" lon="16.26310844859618"><ele>406.00000000000006</ele><time>2026-05-01T13:21:42.999Z</time></trkpt><trkpt lat="39.07449435683399" lon="16.263163861712226"><ele>406.0</ele><time>2026-05-01T13:21:43.999Z</time></trkpt><trkpt lat="39.07445141172846" lon="16.263247043078184"><ele>406.20000000000005</ele><time>2026-05-01T13:21:44.999Z</time></trkpt><trkpt lat="39.074416652150845" lon="16.263343399759027"><ele>406.40000000000003</ele><time>2026-05-01T13:21:45.999Z</time></trkpt><trkpt lat="39.07441010003997" lon="16.263460325683063"><ele>406.6</ele><time>2026-05-01T13:21:46.999Z</time></trkpt><trkpt lat="39.074431026592556" lon="16.263581588771167"><ele>406.8</ele><time>2026-05-01T13:21:47.999Z</time></trkpt><trkpt lat="39.07448051161877" lon="16.263695288778017"><ele>407.0</ele><time>2026-05-01T13:21:48.999Z</time></trkpt><trkpt lat="39.07454462211325" lon="16.263804302937558"><ele>407.0</ele><time>2026-05-01T13:21:49.999Z</time></trkpt><trkpt lat="39.074610315598804" lon="16.263916967688232"><ele>407.0</ele><time>2026-05-01T13:21:51Z</time></trkpt><trkpt lat="39.07467249661911" lon="16.26403891017994"><ele>407.0</ele><time>2026-05-01T13:21:52Z</time></trkpt><trkpt lat="39.07473082126305" lon="16.264163754844095"><ele>407.0</ele><time>2026-05-01T13:21:53Z</time></trkpt><trkpt lat="39.074785763293555" lon="16.264280105843344"><ele>407.0</ele><time>2026-05-01T13:21:54Z</time></trkpt><trkpt lat="39.074837174639036" lon="16.26438611763914"><ele>406.3333333333333</ele><time>2026-05-01T13:21:55Z</time></trkpt><trkpt lat="39.07487145774053" lon="16.26448191729054"><ele>405.66666666666663</ele><time>2026-05-01T13:21:56Z</time></trkpt><trkpt lat="39.07486825354729" lon="16.26456540075231"><ele>405.0</ele><time>2026-05-01T13:21:57Z</time></trkpt><trkpt lat="39.07483029173863" lon="16.2646358123443"><ele>404.33333333333337</ele><time>2026-05-01T13:21:58Z</time></trkpt><trkpt lat="39.07476485322236" lon="16.264683790722746"><ele>403.6666666666667</ele><time>2026-05-01T13:21:59Z</time></trkpt><trkpt lat="39.07468852548801" lon="16.26471441091658"><ele>403.0</ele><time>2026-05-01T13:22:00Z</time></trkpt><trkpt lat="39.07461343209007" lon="16.26475570370397"><ele>404.83333333333337</ele><time>2026-05-01T13:22:01Z</time></trkpt><trkpt lat="39.07453682995566" lon="16.2648016987954"><ele>406.6666666666667</ele><time>2026-05-01T13:22:02Z</time></trkpt><trkpt lat="39.074460425326805" lon="16.264852308527697"><ele>408.5</ele><time>2026-05-01T13:22:03Z</time></trkpt><trkpt lat="39.07439559673139" lon="16.26492725520144"><ele>410.33333333333337</ele><time>2026-05-01T13:22:04Z</time></trkpt><trkpt lat="39.07435596377683" lon="16.265030487535775"><ele>412.1666666666667</ele><time>2026-05-01T13:22:05Z</time></trkpt><trkpt lat="39.07433625662356" lon="16.265144108016536"><ele>414.0</ele><time>2026-05-01T13:22:06Z</time></trkpt><trkpt lat="39.07432315946186" lon="16.26525496812706"><ele>414.0</ele><time>2026-05-01T13:22:07Z</time></trkpt><trkpt lat="39.07432354544473" lon="16.265366122932825"><ele>414.0</ele><time>2026-05-01T13:22:08Z</time></trkpt><trkpt lat="39.07434127696499" lon="16.265469806189977"><ele>414.0</ele><time>2026-05-01T13:22:09Z</time></trkpt><trkpt lat="39.074392122618164" lon="16.265542901947896"><ele>414.0</ele><time>2026-05-01T13:22:10Z</time></trkpt><trkpt lat="39.07446799354773" lon="16.265589293513774"><ele>414.0</ele><time>2026-05-01T13:22:11Z</time></trkpt><trkpt lat="39.074547351099234" lon="16.26561394887193"><ele>414.0</ele><time>2026-05-01T13:22:12Z</time></trkpt><trkpt lat="39.074627769141266" lon="16.26564957944316"><ele>413.0</ele><time>2026-05-01T13:22:13Z</time></trkpt><trkpt lat="39.07471242903047" lon="16.26569294788631"><ele>412.0</ele><time>2026-05-01T13:22:14Z</time></trkpt><trkpt lat="39.074799435249695" lon="16.265741596366738"><ele>411.0</ele><time>2026-05-01T13:22:15Z</time></trkpt><trkpt lat="39.07488896415505" lon="16.265787048012825"><ele>410.0</ele><time>2026-05-01T13:22:16Z</time></trkpt><trkpt lat="39.074982715926026" lon="16.265819990684232"><ele>409.0</ele><time>2026-05-01T13:22:17Z</time></trkpt><trkpt lat="39.075080348462045" lon="16.265837296572105"><ele>414.4</ele><time>2026-05-01T13:22:18Z</time></trkpt><trkpt lat="39.075178848532175" lon="16.265828284491896"><ele>419.79999999999995</ele><time>2026-05-01T13:22:19Z</time></trkpt><trkpt lat="39.07527795112269" lon="16.26580504832406"><ele>425.20000000000005</ele><time>2026-05-01T13:22:20Z</time></trkpt><trkpt lat="39.07538174044151" lon="16.265780633212884"><ele>430.6</ele><time>2026-05-01T13:22:21Z</time></trkpt><trkpt lat="39.07548531628548" lon="16.265754394254436"><ele>436.0</ele><time>2026-05-01T13:22:22Z</time></trkpt><trkpt lat="39.07559048563824" lon="16.265735551992925"><ele>436.0</ele><time>2026-05-01T13:22:23Z</time></trkpt><trkpt lat="39.07569677002762" lon="16.265727603579037"><ele>436.0</ele><time>2026-05-01T13:22:24Z</time></trkpt><trkpt lat="39.075802077049616" lon="16.26573153815682"><ele>436.0</ele><time>2026-05-01T13:22:25Z</time></trkpt><trkpt lat="39.075901987876655" lon="16.26573569807278"><ele>436.0</ele><time>2026-05-01T13:22:26Z</time></trkpt><trkpt lat="39.07599297638862" lon="16.26571873935967"><ele>436.0</ele><time>2026-05-01T13:22:27Z</time></trkpt><trkpt lat="39.076081877499895" lon="16.265689390537005"><ele>437.8</ele><time>2026-05-01T13:22:28Z</time></trkpt><trkpt lat="39.0761737640331" lon="16.265686725106267"><ele>439.6</ele><time>2026-05-01T13:22:29Z</time></trkpt><trkpt lat="39.07625738821942" lon="16.26573687310756"><ele>441.4</ele><time>2026-05-01T13:22:30Z</time></trkpt><trkpt lat="39.07632141714268" lon="16.265834204247614"><ele>443.2</ele><time>2026-05-01T13:22:31Z</time></trkpt><trkpt lat="39.07636798069228" lon="16.26594633730812"><ele>445.0</ele><time>2026-05-01T13:22:32Z</time></trkpt><trkpt lat="39.07641526922382" lon="16.266057045876916"><ele>445.0</ele><time>2026-05-01T13:22:33Z</time></trkpt><trkpt lat="39.07645652457769" lon="16.266171670021176"><ele>445.0</ele><time>2026-05-01T13:22:34Z</time></trkpt><trkpt lat="39.07647847070041" lon="16.266293619049144"><ele>445.0</ele><time>2026-05-01T13:22:35Z</time></trkpt><trkpt lat="39.07643696452315" lon="16.266409345019014"><ele>445.0</ele><time>2026-05-01T13:22:36Z</time></trkpt><trkpt lat="39.07638499709003" lon="16.266506371946647"><ele>445.0</ele><time>2026-05-01T13:22:37Z</time></trkpt><trkpt lat="39.07638586595441" lon="16.266618941906223"><ele>444.00000000000006</ele><time>2026-05-01T13:22:38Z</time></trkpt><trkpt lat="39.076406696125645" lon="16.266720664042495"><ele>443.0</ele><time>2026-05-01T13:22:39Z</time></trkpt><trkpt lat="39.076466184293686" lon="16.266789296936476"><ele>442.0</ele><time>2026-05-01T13:22:40Z</time></trkpt><trkpt lat="39.07654829349245" lon="16.266808969390876"><ele>441.0</ele><time>2026-05-01T13:22:41Z</time></trkpt><trkpt lat="39.076613103122526" lon="16.266865182191655"><ele>440.00000000000006</ele><time>2026-05-01T13:22:42Z</time></trkpt><trkpt lat="39.076653711339304" lon="16.267007316100173"><ele>439.0</ele><time>2026-05-01T13:22:44Z</time></trkpt><trkpt lat="39.076610358587914" lon="16.267153086936514"><ele>439.0</ele><time>2026-05-01T13:22:45.999Z</time></trkpt><trkpt lat="39.07654204122228" lon="16.267272381999938"><ele>439.0</ele><time>2026-05-01T13:22:46.999Z</time></trkpt><trkpt lat="39.07651483340508" lon="16.267378487276098"><ele>439.0</ele><time>2026-05-01T13:22:47.999Z</time></trkpt><trkpt lat="39.076496974311695" lon="16.26749167740144"><ele>439.0</ele><time>2026-05-01T13:22:48.999Z</time></trkpt><trkpt lat="39.076498579918706" lon="16.267607114517617"><ele>439.0</ele><time>2026-05-01T13:22:49.999Z</time></trkpt><trkpt lat="39.07649491720742" lon="16.267725919134165"><ele>438.4</ele><time>2026-05-01T13:22:50.999Z</time></trkpt><trkpt lat="39.076486420947795" lon="16.267844013996104"><ele>437.79999999999995</ele><time>2026-05-01T13:22:51.999Z</time></trkpt><trkpt lat="39.07649898031816" lon="16.267958209641456"><ele>437.20000000000005</ele><time>2026-05-01T13:22:52.999Z</time></trkpt><trkpt lat="39.07654095511997" lon="16.268052037280018"><ele>436.6</ele><time>2026-05-01T13:22:53.999Z</time></trkpt><trkpt lat="39.07662042329889" lon="16.268111116592006"><ele>436.0</ele><time>2026-05-01T13:22:54.999Z</time></trkpt><trkpt lat="39.0767124739337" lon="16.268087989195298"><ele>440.83333333333337</ele><time>2026-05-01T13:22:55.999Z</time></trkpt><trkpt lat="39.07680794720961" lon="16.26810169321792"><ele>445.6666666666667</ele><time>2026-05-01T13:22:56.999Z</time></trkpt><trkpt lat="39.07690330735063" lon="16.268087361732068"><ele>450.5</ele><time>2026-05-01T13:22:57.999Z</time></trkpt><trkpt lat="39.07699584064789" lon="16.26808237135611"><ele>455.33333333333337</ele><time>2026-05-01T13:22:58.999Z</time></trkpt><trkpt lat="39.077083448462744" lon="16.268080453887524"><ele>460.1666666666667</ele><time>2026-05-01T13:22:59.999Z</time></trkpt><trkpt lat="39.077153847598794" lon="16.268086328923975"><ele>465.0</ele><time>2026-05-01T13:23:00.999Z</time></trkpt><trkpt lat="39.077231916668836" lon="16.2681098450599"><ele>463.3333333333333</ele><time>2026-05-01T13:23:01.999Z</time></trkpt><trkpt lat="39.0773039956822" lon="16.268174071035975"><ele>461.66666666666663</ele><time>2026-05-01T13:23:02.999Z</time></trkpt><trkpt lat="39.07734851665951" lon="16.268267794783974"><ele>460.0</ele><time>2026-05-01T13:23:03.999Z</time></trkpt><trkpt lat="39.07735303924419" lon="16.268377365327495"><ele>458.3333333333333</ele><time>2026-05-01T13:23:04.999Z</time></trkpt><trkpt lat="39.07728811982879" lon="16.268485590000214"><ele>456.66666666666663</ele><time>2026-05-01T13:23:05.999Z</time></trkpt><trkpt lat="39.07729833894556" lon="16.268587788230498"><ele>455.0</ele><time>2026-05-01T13:23:06.999Z</time></trkpt><trkpt lat="39.07729951326068" lon="16.268700284037443"><ele>455.0</ele><time>2026-05-01T13:23:07.999Z</time></trkpt><trkpt lat="39.077366234827366" lon="16.268777629302512"><ele>455.0</ele><time>2026-05-01T13:23:08.999Z</time></trkpt><trkpt lat="39.077438718251585" lon="16.268859948525566"><ele>455.0</ele><time>2026-05-01T13:23:09.999Z</time></trkpt><trkpt lat="39.07749261874953" lon="16.26895525077081"><ele>455.0</ele><time>2026-05-01T13:23:10.999Z</time></trkpt><trkpt lat="39.07750166442513" lon="16.269078886414498"><ele>455.0</ele><time>2026-05-01T13:23:11.999Z</time></trkpt><trkpt lat="39.0774702165038" lon="16.2692019778396"><ele>456.6</ele><time>2026-05-01T13:23:12.999Z</time></trkpt><trkpt lat="39.077446315856136" lon="16.26931834514814"><ele>458.2</ele><time>2026-05-01T13:23:13.999Z</time></trkpt><trkpt lat="39.07738472756146" lon="16.269403314144995"><ele>459.79999999999995</ele><time>2026-05-01T13:23:14.999Z</time></trkpt><trkpt lat="39.0772969160706" lon="16.269450517810878"><ele>461.4</ele><time>2026-05-01T13:23:15.999Z</time></trkpt><trkpt lat="39.07720499606187" lon="16.269412931846997"><ele>463.0</ele><time>2026-05-01T13:23:16.999Z</time></trkpt><trkpt lat="39.077131558566194" lon="16.269353955922934"><ele>463.00000000000006</ele><time>2026-05-01T13:23:17.999Z</time></trkpt><trkpt lat="39.077050876283735" lon="16.269328577227416"><ele>463.0</ele><time>2026-05-01T13:23:18.999Z</time></trkpt><trkpt lat="39.07697122032584" lon="16.269290804007447"><ele>463.0</ele><time>2026-05-01T13:23:19.999Z</time></trkpt><trkpt lat="39.07689067897281" lon="16.26930534513355"><ele>463.0</ele><time>2026-05-01T13:23:20.999Z</time></trkpt><trkpt lat="39.07682339077628" lon="16.269371910423818"><ele>463.00000000000006</ele><time>2026-05-01T13:23:21.999Z</time></trkpt><trkpt lat="39.07679261440248" lon="16.269480969064013"><ele>463.0</ele><time>2026-05-01T13:23:22.999Z</time></trkpt><trkpt lat="39.07681338736031" lon="16.269599853116688"><ele>463.0</ele><time>2026-05-01T13:23:23.999Z</time></trkpt><trkpt lat="39.07685449624717" lon="16.26970781284778"><ele>462.99999999999994</ele><time>2026-05-01T13:23:24.999Z</time></trkpt><trkpt lat="39.076851582003286" lon="16.26981464089572"><ele>462.99999999999994</ele><time>2026-05-01T13:23:25.999Z</time></trkpt><trkpt lat="39.07682581506604" lon="16.26991172419882"><ele>463.0</ele><time>2026-05-01T13:23:26.999Z</time></trkpt><trkpt lat="39.07672945515554" lon="16.269961023560022"><ele>463.0</ele><time>2026-05-01T13:23:27.999Z</time></trkpt><trkpt lat="39.07665253523079" lon="16.27002671358232"><ele>463.0</ele><time>2026-05-01T13:23:28.999Z</time></trkpt><trkpt lat="39.07657760476859" lon="16.27009612687148"><ele>462.99999999999994</ele><time>2026-05-01T13:23:29.999Z</time></trkpt><trkpt lat="39.076513081965096" lon="16.270178567997114"><ele>462.99999999999994</ele><time>2026-05-01T13:23:30.999Z</time></trkpt><trkpt lat="39.076487629934256" lon="16.270296882533007"><ele>463.0</ele><time>2026-05-01T13:23:31.999Z</time></trkpt><trkpt lat="39.07649606489628" lon="16.270430357165978"><ele>463.0</ele><time>2026-05-01T13:23:32.999Z</time></trkpt><trkpt lat="39.07650921683583" lon="16.270559667682182"><ele>465.59999999999997</ele><time>2026-05-01T13:23:33.999Z</time></trkpt><trkpt lat="39.07649589691842" lon="16.270686871985987"><ele>468.19999999999993</ele><time>2026-05-01T13:23:34.999Z</time></trkpt><trkpt lat="39.076511784745236" lon="16.27081198452864"><ele>470.8</ele><time>2026-05-01T13:23:35.999Z</time></trkpt><trkpt lat="39.076518855675474" lon="16.270938228721587"><ele>473.4</ele><time>2026-05-01T13:23:36.999Z</time></trkpt><trkpt lat="39.07654439928304" lon="16.271058264164143"><ele>476.0</ele><time>2026-05-01T13:23:37.999Z</time></trkpt><trkpt lat="39.07658565415658" lon="16.271175080757843"><ele>479.0</ele><time>2026-05-01T13:23:38.999Z</time></trkpt><trkpt lat="39.07662502812463" lon="16.271285484068333"><ele>482.0</ele><time>2026-05-01T13:23:39.999Z</time></trkpt><trkpt lat="39.076639619920535" lon="16.271402332776482"><ele>485.0</ele><time>2026-05-01T13:23:40.999Z</time></trkpt><trkpt lat="39.076665337178376" lon="16.27150821904204"><ele>488.0</ele><time>2026-05-01T13:23:41.999Z</time></trkpt><trkpt lat="39.07663206472374" lon="16.271612386128993"><ele>491.0</ele><time>2026-05-01T13:23:42.999Z</time></trkpt><trkpt lat="39.07656677794378" lon="16.271705576041605"><ele>492.8</ele><time>2026-05-01T13:23:43.999Z</time></trkpt><trkpt lat="39.07646978388742" lon="16.271745483726587"><ele>494.6</ele><time>2026-05-01T13:23:44.999Z</time></trkpt><trkpt lat="39.07637502692476" lon="16.271799891120676"><ele>496.4</ele><time>2026-05-01T13:23:45.999Z</time></trkpt><trkpt lat="39.07628192747895" lon="16.27184742145859"><ele>498.2</ele><time>2026-05-01T13:23:46.999Z</time></trkpt><trkpt lat="39.076184413318636" lon="16.271904588468228"><ele>500.0</ele><time>2026-05-01T13:23:47.999Z</time></trkpt><trkpt lat="39.07607715541035" lon="16.271914161970667"><ele>500.0</ele><time>2026-05-01T13:23:48.999Z</time></trkpt><trkpt lat="39.07596454132449" lon="16.27188590843444"><ele>500.0</ele><time>2026-05-01T13:23:49.999Z</time></trkpt><trkpt lat="39.075861750695516" lon="16.27184755693443"><ele>500.0</ele><time>2026-05-01T13:23:50.999Z</time></trkpt><trkpt lat="39.075756587802" lon="16.271809159196206"><ele>500.0</ele><time>2026-05-01T13:23:51.999Z</time></trkpt><trkpt lat="39.07565122969332" lon="16.271783779194816"><ele>500.0</ele><time>2026-05-01T13:23:52.999Z</time></trkpt><trkpt lat="39.07554180209388" lon="16.27177117110344"><ele>499.4</ele><time>2026-05-01T13:23:53.999Z</time></trkpt><trkpt lat="39.07543406375086" lon="16.27177593912155"><ele>498.8</ele><time>2026-05-01T13:23:54.999Z</time></trkpt><trkpt lat="39.075329565241944" lon="16.271787411222054"><ele>498.20000000000005</ele><time>2026-05-01T13:23:55.999Z</time></trkpt><trkpt lat="39.07523665425607" lon="16.271804470496875"><ele>497.6</ele><time>2026-05-01T13:23:57Z</time></trkpt><trkpt lat="39.07515736514508" lon="16.271836858535377"><ele>497.0</ele><time>2026-05-01T13:23:58Z</time></trkpt><trkpt lat="39.07509642779292" lon="16.271895727501946"><ele>497.0</ele><time>2026-05-01T13:23:59Z</time></trkpt><trkpt lat="39.07504052030612" lon="16.27198626152294"><ele>497.00000000000006</ele><time>2026-05-01T13:24:00Z</time></trkpt><trkpt lat="39.07498361370846" lon="16.27208792799368"><ele>497.00000000000006</ele><time>2026-05-01T13:24:01Z</time></trkpt><trkpt lat="39.074922010732394" lon="16.27218822341101"><ele>497.0</ele><time>2026-05-01T13:24:02Z</time></trkpt><trkpt lat="39.07485017821094" lon="16.272281790823122"><ele>497.0</ele><time>2026-05-01T13:24:03Z</time></trkpt><trkpt lat="39.074784738639224" lon="16.272377953472454"><ele>495.40000000000003</ele><time>2026-05-01T13:24:04Z</time></trkpt><trkpt lat="39.0747321237578" lon="16.27247478007461"><ele>493.80000000000007</ele><time>2026-05-01T13:24:05Z</time></trkpt><trkpt lat="39.07470108152059" lon="16.272579215701473"><ele>492.2</ele><time>2026-05-01T13:24:06Z</time></trkpt><trkpt lat="39.07470684448847" lon="16.27269129153537"><ele>490.6</ele><time>2026-05-01T13:24:07Z</time></trkpt><trkpt lat="39.07475912364246" lon="16.272788921649518"><ele>489.0</ele><time>2026-05-01T13:24:08Z</time></trkpt><trkpt lat="39.074837375706394" lon="16.272867116752096"><ele>489.0</ele><time>2026-05-01T13:24:09Z</time></trkpt><trkpt lat="39.07491499594086" lon="16.272941170082483"><ele>489.0</ele><time>2026-05-01T13:24:10Z</time></trkpt><trkpt lat="39.07499254853722" lon="16.27301219839978"><ele>489.0</ele><time>2026-05-01T13:24:11Z</time></trkpt><trkpt lat="39.0750800378923" lon="16.273064303642425"><ele>489.0</ele><time>2026-05-01T13:24:12Z</time></trkpt><trkpt lat="39.075178123030064" lon="16.273071455639958"><ele>489.0</ele><time>2026-05-01T13:24:13Z</time></trkpt><trkpt lat="39.075274362217556" lon="16.27304143032006"><ele>491.6</ele><time>2026-05-01T13:24:14Z</time></trkpt><trkpt lat="39.07536793053426" lon="16.27300433907847"><ele>494.2</ele><time>2026-05-01T13:24:15Z</time></trkpt><trkpt lat="39.07546374251091" lon="16.272988870413357"><ele>496.80000000000007</ele><time>2026-05-01T13:24:16Z</time></trkpt><trkpt lat="39.075556776578175" lon="16.273016189359257"><ele>499.40000000000003</ele><time>2026-05-01T13:24:17Z</time></trkpt><trkpt lat="39.07563576983824" lon="16.27309128770462"><ele>502.0</ele><time>2026-05-01T13:24:18Z</time></trkpt><trkpt lat="39.07568625832589" lon="16.273201819578233"><ele>502.00000000000006</ele><time>2026-05-01T13:24:19Z</time></trkpt><trkpt lat="39.07566472830521" lon="16.273323950261304"><ele>502.0</ele><time>2026-05-01T13:24:20Z</time></trkpt><trkpt lat="39.075617494160426" lon="16.27341440230134"><ele>502.0</ele><time>2026-05-01T13:24:21Z</time></trkpt><trkpt lat="39.075598963025115" lon="16.273518615729333"><ele>502.0</ele><time>2026-05-01T13:24:22Z</time></trkpt><trkpt lat="39.0755991080427" lon="16.273627160409802"><ele>502.00000000000006</ele><time>2026-05-01T13:24:23Z</time></trkpt><trkpt lat="39.07561218144816" lon="16.27374096039994"><ele>502.0</ele><time>2026-05-01T13:24:24Z</time></trkpt><trkpt lat="39.075638903681224" lon="16.273854021672406"><ele>502.40000000000003</ele><time>2026-05-01T13:24:25Z</time></trkpt><trkpt lat="39.07565318434023" lon="16.2739667282354"><ele>502.80000000000007</ele><time>2026-05-01T13:24:26Z</time></trkpt><trkpt lat="39.075669372098496" lon="16.274060927557155"><ele>503.2</ele><time>2026-05-01T13:24:27Z</time></trkpt><trkpt lat="39.07578252685056" lon="16.27406600950079"><ele>503.6</ele><time>2026-05-01T13:24:32Z</time></trkpt><trkpt lat="39.07578920354081" lon="16.273904175417524"><ele>504.0</ele><time>2026-05-01T13:24:34Z</time></trkpt><trkpt lat="39.07578892366749" lon="16.273809239604923"><ele>508.6</ele><time>2026-05-01T13:24:35Z</time></trkpt><trkpt lat="39.07582555078916" lon="16.2737235727425"><ele>513.2</ele><time>2026-05-01T13:24:36Z</time></trkpt><trkpt lat="39.07585693475765" lon="16.273609231610173"><ele>517.8000000000001</ele><time>2026-05-01T13:24:37Z</time></trkpt><trkpt lat="39.07589589622688" lon="16.27347840895275"><ele>522.4</ele><time>2026-05-01T13:24:38Z</time></trkpt><trkpt lat="39.075972260600075" lon="16.273369975994644"><ele>527.0</ele><time>2026-05-01T13:24:39Z</time></trkpt><trkpt lat="39.076052784689026" lon="16.273268897263844"><ele>527.0</ele><time>2026-05-01T13:24:40Z</time></trkpt><trkpt lat="39.076141839106484" lon="16.273188783710804"><ele>527.0</ele><time>2026-05-01T13:24:41Z</time></trkpt><trkpt lat="39.07623484210405" lon="16.273128223665932"><ele>527.0</ele><time>2026-05-01T13:24:42Z</time></trkpt><trkpt lat="39.07632988911253" lon="16.273084157848793"><ele>527.0</ele><time>2026-05-01T13:24:43Z</time></trkpt><trkpt lat="39.076435769568285" lon="16.273044938619133"><ele>527.0</ele><time>2026-05-01T13:24:44Z</time></trkpt><trkpt lat="39.0765307221388" lon="16.272989301706104"><ele>527.5</ele><time>2026-05-01T13:24:45Z</time></trkpt><trkpt lat="39.07662654407639" lon="16.272918597903022"><ele>528.0</ele><time>2026-05-01T13:24:46Z</time></trkpt><trkpt lat="39.07671957433559" lon="16.27283958090795"><ele>528.5</ele><time>2026-05-01T13:24:47Z</time></trkpt><trkpt lat="39.076823327748365" lon="16.27276217375254"><ele>529.0</ele><time>2026-05-01T13:24:48Z</time></trkpt><trkpt lat="39.07694007023935" lon="16.27269159315998"><ele>529.0</ele><time>2026-05-01T13:24:49Z</time></trkpt><trkpt lat="39.07706174246395" lon="16.272624727357645"><ele>529.0</ele><time>2026-05-01T13:24:50Z</time></trkpt><trkpt lat="39.07717604912399" lon="16.272572338030614"><ele>529.0</ele><time>2026-05-01T13:24:50.999Z</time></trkpt><trkpt lat="39.07728794219921" lon="16.27251502954818"><ele>529.0</ele><time>2026-05-01T13:24:51.999Z</time></trkpt><trkpt lat="39.07739674627145" lon="16.272435495393328"><ele>528.0</ele><time>2026-05-01T13:24:52.999Z</time></trkpt><trkpt lat="39.077498978738404" lon="16.272340614675535"><ele>527.0</ele><time>2026-05-01T13:24:53.999Z</time></trkpt><trkpt lat="39.0775937418943" lon="16.272235434831703"><ele>526.0</ele><time>2026-05-01T13:24:54.999Z</time></trkpt><trkpt lat="39.07767391673117" lon="16.272132220656115"><ele>525.0</ele><time>2026-05-01T13:24:55.999Z</time></trkpt><trkpt lat="39.07773407525979" lon="16.272025848429326"><ele>525.0</ele><time>2026-05-01T13:24:56.999Z</time></trkpt><trkpt lat="39.077787985068966" lon="16.27191427547"><ele>525.0</ele><time>2026-05-01T13:24:57.999Z</time></trkpt><trkpt lat="39.077819105530324" lon="16.271787116382615"><ele>525.0</ele><time>2026-05-01T13:24:58.999Z</time></trkpt><trkpt lat="39.07787970890405" lon="16.271676652412594"><ele>525.0</ele><time>2026-05-01T13:24:59.999Z</time></trkpt><trkpt lat="39.07794559732561" lon="16.27157327081372"><ele>525.0</ele><time>2026-05-01T13:25:00.999Z</time></trkpt><trkpt lat="39.078033457222304" lon="16.27150331521209"><ele>524.2</ele><time>2026-05-01T13:25:01.999Z</time></trkpt><trkpt lat="39.07812237234078" lon="16.271425864919262"><ele>523.4</ele><time>2026-05-01T13:25:02.999Z</time></trkpt><trkpt lat="39.07820852593004" lon="16.271384638104298"><ele>522.6</ele><time>2026-05-01T13:25:03.999Z</time></trkpt><trkpt lat="39.07828070863113" lon="16.27132459900252"><ele>521.8</ele><time>2026-05-01T13:25:04.999Z</time></trkpt><trkpt lat="39.078326324370984" lon="16.271226708122946"><ele>521.0</ele><time>2026-05-01T13:25:05.999Z</time></trkpt><trkpt lat="39.07837135026804" lon="16.27112125275871"><ele>521.0</ele><time>2026-05-01T13:25:06.999Z</time></trkpt><trkpt lat="39.0784165364575" lon="16.271014189524635"><ele>521.0</ele><time>2026-05-01T13:25:07.999Z</time></trkpt><trkpt lat="39.07849342087441" lon="16.27092864573501"><ele>521.0</ele><time>2026-05-01T13:25:08.999Z</time></trkpt><trkpt lat="39.07856392200864" lon="16.270840753300778"><ele>521.0</ele><time>2026-05-01T13:25:09.999Z</time></trkpt><trkpt lat="39.07866166752846" lon="16.270782581703383"><ele>521.0</ele><time>2026-05-01T13:25:10.999Z</time></trkpt><trkpt lat="39.0787593702903" lon="16.270730241461994"><ele>521.0</ele><time>2026-05-01T13:25:11.999Z</time></trkpt><trkpt lat="39.07885921893022" lon="16.270677137537763"><ele>521.0</ele><time>2026-05-01T13:25:12.999Z</time></trkpt><trkpt lat="39.078964848718115" lon="16.270623271455655"><ele>521.0</ele><time>2026-05-01T13:25:13.999Z</time></trkpt><trkpt lat="39.0790829604213" lon="16.270596390373104"><ele>521.0</ele><time>2026-05-01T13:25:14.999Z</time></trkpt><trkpt lat="39.07920331792548" lon="16.270596783236915"><ele>516.0</ele><time>2026-05-01T13:25:15.999Z</time></trkpt><trkpt lat="39.07932107672946" lon="16.27061183416528"><ele>511.0</ele><time>2026-05-01T13:25:16.999Z</time></trkpt><trkpt lat="39.07943409401418" lon="16.270629059802303"><ele>506.0</ele><time>2026-05-01T13:25:17.999Z</time></trkpt><trkpt lat="39.07954434936259" lon="16.27064382941266"><ele>501.0</ele><time>2026-05-01T13:25:18.999Z</time></trkpt><trkpt lat="39.07966220187204" lon="16.27062334498306"><ele>503.25</ele><time>2026-05-01T13:25:19.999Z</time></trkpt><trkpt lat="39.07976113420415" lon="16.270570227388"><ele>505.5</ele><time>2026-05-01T13:25:20.999Z</time></trkpt><trkpt lat="39.079872699067785" lon="16.270496093034996"><ele>507.75</ele><time>2026-05-01T13:25:21.999Z</time></trkpt><trkpt lat="39.079975463281116" lon="16.270460245222235"><ele>510.0</ele><time>2026-05-01T13:25:22.999Z</time></trkpt><trkpt lat="39.08008701602585" lon="16.270404206120592"><ele>510.0</ele><time>2026-05-01T13:25:23.999Z</time></trkpt><trkpt lat="39.08020562558818" lon="16.270390189285106"><ele>510.0</ele><time>2026-05-01T13:25:24.999Z</time></trkpt><trkpt lat="39.08032088880692" lon="16.270381457997434"><ele>510.0</ele><time>2026-05-01T13:25:25.999Z</time></trkpt><trkpt lat="39.08043411589529" lon="16.270354835042824"><ele>510.0</ele><time>2026-05-01T13:25:26.999Z</time></trkpt><trkpt lat="39.08053880483885" lon="16.270317673569362"><ele>510.0</ele><time>2026-05-01T13:25:27.999Z</time></trkpt><trkpt lat="39.080643208333285" lon="16.270267500727893"><ele>510.0</ele><time>2026-05-01T13:25:28.999Z</time></trkpt><trkpt lat="39.08073770662729" lon="16.270204019746835"><ele>510.0</ele><time>2026-05-01T13:25:29.999Z</time></trkpt><trkpt lat="39.08083725067745" lon="16.270142561916906"><ele>510.0</ele><time>2026-05-01T13:25:30.999Z</time></trkpt><trkpt lat="39.08093265711049" lon="16.270072599310158"><ele>510.0</ele><time>2026-05-01T13:25:31.999Z</time></trkpt><trkpt lat="39.08101589302468" lon="16.269983334287232"><ele>506.0</ele><time>2026-05-01T13:25:32.999Z</time></trkpt><trkpt lat="39.08109192569842" lon="16.269869832770897"><ele>502.0</ele><time>2026-05-01T13:25:33.999Z</time></trkpt><trkpt lat="39.08114806341873" lon="16.269753170181477"><ele>498.0</ele><time>2026-05-01T13:25:34.999Z</time></trkpt><trkpt lat="39.081178382623584" lon="16.269632187456125"><ele>494.0</ele><time>2026-05-01T13:25:35.999Z</time></trkpt><trkpt lat="39.08119442750004" lon="16.269510136737217"><ele>490.0</ele><time>2026-05-01T13:25:36.999Z</time></trkpt><trkpt lat="39.08117765283169" lon="16.269392219431605"><ele>490.0</ele><time>2026-05-01T13:25:37.999Z</time></trkpt><trkpt lat="39.08112613141953" lon="16.269270990573176"><ele>490.0</ele><time>2026-05-01T13:25:38.999Z</time></trkpt><trkpt lat="39.081068598562624" lon="16.26916085918264"><ele>490.0</ele><time>2026-05-01T13:25:39.999Z</time></trkpt><trkpt lat="39.08100619302081" lon="16.269043858933475"><ele>490.0</ele><time>2026-05-01T13:25:40.999Z</time></trkpt><trkpt lat="39.0809422891434" lon="16.26893835810132"><ele>490.0</ele><time>2026-05-01T13:25:41.999Z</time></trkpt><trkpt lat="39.08091057312905" lon="16.26882421486146"><ele>489.50000000000006</ele><time>2026-05-01T13:25:42.999Z</time></trkpt><trkpt lat="39.08089166714338" lon="16.268720260140494"><ele>489.0</ele><time>2026-05-01T13:25:43.999Z</time></trkpt><trkpt lat="39.08090195770335" lon="16.268635811990343"><ele>488.5</ele><time>2026-05-01T13:25:44.999Z</time></trkpt><trkpt lat="39.080928553643645" lon="16.268554310097354"><ele>488.0</ele><time>2026-05-01T13:25:45.999Z</time></trkpt><trkpt lat="39.08101630495495" lon="16.268499752368722"><ele>487.50000000000006</ele><time>2026-05-01T13:25:46.999Z</time></trkpt><trkpt lat="39.08111442982926" lon="16.268457930692325"><ele>487.0</ele><time>2026-05-01T13:25:47.999Z</time></trkpt><trkpt lat="39.08118239430714" lon="16.268366473006065"><ele>487.0</ele><time>2026-05-01T13:25:48.999Z</time></trkpt><trkpt lat="39.08125511563622" lon="16.268265263647905"><ele>487.00000000000006</ele><time>2026-05-01T13:25:49.999Z</time></trkpt><trkpt lat="39.08133210470091" lon="16.26816787749321"><ele>487.00000000000006</ele><time>2026-05-01T13:25:50.999Z</time></trkpt><trkpt lat="39.08139115513518" lon="16.268050087367993"><ele>487.0</ele><time>2026-05-01T13:25:51.999Z</time></trkpt><trkpt lat="39.081468709171936" lon="16.267973290474686"><ele>487.0</ele><time>2026-05-01T13:25:52.999Z</time></trkpt><trkpt lat="39.081538152317265" lon="16.267894643257094"><ele>481.25</ele><time>2026-05-01T13:25:53.999Z</time></trkpt><trkpt lat="39.081682732783115" lon="16.26795578306174"><ele>475.5</ele><time>2026-05-01T13:25:54.999Z</time></trkpt><trkpt lat="39.08178825532736" lon="16.26791501702249"><ele>469.75</ele><time>2026-05-01T13:25:55.999Z</time></trkpt><trkpt lat="39.08188569454563" lon="16.267882655714892"><ele>464.0</ele><time>2026-05-01T13:25:56.999Z</time></trkpt><trkpt lat="39.08196689477848" lon="16.2678332594532"><ele>464.0</ele><time>2026-05-01T13:25:57.999Z</time></trkpt><trkpt lat="39.08204264821923" lon="16.26777134861265"><ele>464.0</ele><time>2026-05-01T13:25:58.999Z</time></trkpt><trkpt lat="39.08211409309124" lon="16.26768748000624"><ele>464.0</ele><time>2026-05-01T13:25:59.999Z</time></trkpt><trkpt lat="39.08217412625747" lon="16.267594118101552"><ele>464.0</ele><time>2026-05-01T13:26:00.999Z</time></trkpt><trkpt lat="39.08220715406756" lon="16.267494293054984"><ele>464.0</ele><time>2026-05-01T13:26:01.999Z</time></trkpt><trkpt lat="39.082206275365564" lon="16.267383195339395"><ele>462.6</ele><time>2026-05-01T13:26:03Z</time></trkpt><trkpt lat="39.082190023118066" lon="16.26727021131738"><ele>461.2</ele><time>2026-05-01T13:26:04Z</time></trkpt><trkpt lat="39.08215694229311" lon="16.267144223270314"><ele>459.80000000000007</ele><time>2026-05-01T13:26:05Z</time></trkpt><trkpt lat="39.08212829420899" lon="16.26701458703195"><ele>458.40000000000003</ele><time>2026-05-01T13:26:06Z</time></trkpt><trkpt lat="39.08211847043533" lon="16.266868999174015"><ele>457.0</ele><time>2026-05-01T13:26:07Z</time></trkpt><trkpt lat="39.08212148504446" lon="16.26673265191369"><ele>457.0</ele><time>2026-05-01T13:26:08Z</time></trkpt><trkpt lat="39.0821234384523" lon="16.26660633486742"><ele>457.00000000000006</ele><time>2026-05-01T13:26:09Z</time></trkpt><trkpt lat="39.08211430867982" lon="16.26648202130029"><ele>457.00000000000006</ele><time>2026-05-01T13:26:10Z</time></trkpt><trkpt lat="39.08208898117152" lon="16.266372925355675"><ele>457.0</ele><time>2026-05-01T13:26:11Z</time></trkpt><trkpt lat="39.082049292346035" lon="16.266267310422624"><ele>457.0</ele><time>2026-05-01T13:26:12Z</time></trkpt><trkpt lat="39.08198392228154" lon="16.266170262896903"><ele>453.1666666666667</ele><time>2026-05-01T13:26:13Z</time></trkpt><trkpt lat="39.08190434352343" lon="16.26607848352039"><ele>449.33333333333337</ele><time>2026-05-01T13:26:14Z</time></trkpt><trkpt lat="39.081834667955306" lon="16.26599126959567"><ele>445.5</ele><time>2026-05-01T13:26:15Z</time></trkpt><trkpt lat="39.08179390194342" lon="16.26590513752405"><ele>441.66666666666663</ele><time>2026-05-01T13:26:16Z</time></trkpt><trkpt lat="39.08179239441687" lon="16.26580747657853"><ele>437.8333333333333</ele><time>2026-05-01T13:26:17Z</time></trkpt><trkpt lat="39.0818245505542" lon="16.265710683026356"><ele>434.0</ele><time>2026-05-01T13:26:18Z</time></trkpt><trkpt lat="39.08188259519751" lon="16.265644978506586"><ele>434.0</ele><time>2026-05-01T13:26:19Z</time></trkpt><trkpt lat="39.08197578420655" lon="16.265626227044976"><ele>434.0</ele><time>2026-05-01T13:26:20Z</time></trkpt><trkpt lat="39.082056659138026" lon="16.265574201860737"><ele>434.0</ele><time>2026-05-01T13:26:21Z</time></trkpt><trkpt lat="39.08214037951065" lon="16.265526360536843"><ele>434.0</ele><time>2026-05-01T13:26:22Z</time></trkpt><trkpt lat="39.08221949580945" lon="16.265439809278483"><ele>434.0</ele><time>2026-05-01T13:26:23Z</time></trkpt><trkpt lat="39.0822911519182" lon="16.265332747259755"><ele>432.79999999999995</ele><time>2026-05-01T13:26:24Z</time></trkpt><trkpt lat="39.082353827908065" lon="16.265220098144425"><ele>431.59999999999997</ele><time>2026-05-01T13:26:25Z</time></trkpt><trkpt lat="39.082416793750845" lon="16.26511654067186"><ele>430.4</ele><time>2026-05-01T13:26:26Z</time></trkpt><trkpt lat="39.08248825673497" lon="16.265033512783692"><ele>429.2</ele><time>2026-05-01T13:26:27Z</time></trkpt><trkpt lat="39.08258593904673" lon="16.264965846468773"><ele>428.0</ele><time>2026-05-01T13:26:28Z</time></trkpt><trkpt lat="39.08270614759108" lon="16.26493163815632"><ele>419.25</ele><time>2026-05-01T13:26:29Z</time></trkpt><trkpt lat="39.08282970384106" lon="16.264929310801474"><ele>410.5</ele><time>2026-05-01T13:26:30Z</time></trkpt><trkpt lat="39.082948342920666" lon="16.264934592170086"><ele>401.75</ele><time>2026-05-01T13:26:31Z</time></trkpt><trkpt lat="39.08306441604479" lon="16.26493335372094"><ele>393.0</ele><time>2026-05-01T13:26:32Z</time></trkpt><trkpt lat="39.08316332690844" lon="16.26490130891658"><ele>393.0</ele><time>2026-05-01T13:26:33Z</time></trkpt><trkpt lat="39.083263343419105" lon="16.26483304281255"><ele>393.0</ele><time>2026-05-01T13:26:34Z</time></trkpt><trkpt lat="39.08335909401542" lon="16.264745399404536"><ele>393.0</ele><time>2026-05-01T13:26:35Z</time></trkpt><trkpt lat="39.0834550839762" lon="16.264661980053933"><ele>393.0</ele><time>2026-05-01T13:26:36Z</time></trkpt><trkpt lat="39.08354698550646" lon="16.264566625421363"><ele>388.4</ele><time>2026-05-01T13:26:37Z</time></trkpt><trkpt lat="39.08363215184289" lon="16.26445878012645"><ele>383.79999999999995</ele><time>2026-05-01T13:26:38Z</time></trkpt><trkpt lat="39.083706277021335" lon="16.264341857039053"><ele>379.2</ele><time>2026-05-01T13:26:39Z</time></trkpt><trkpt lat="39.08376764675804" lon="16.26422459791812"><ele>374.6</ele><time>2026-05-01T13:26:40Z</time></trkpt><trkpt lat="39.08380967644245" lon="16.264106563043015"><ele>370.0</ele><time>2026-05-01T13:26:41Z</time></trkpt><trkpt lat="39.08383436371572" lon="16.263989239758523"><ele>367.0</ele><time>2026-05-01T13:26:42Z</time></trkpt><trkpt lat="39.0838615574511" lon="16.26386920907735"><ele>364.0</ele><time>2026-05-01T13:26:43Z</time></trkpt><trkpt lat="39.083881536317264" lon="16.263747643052735"><ele>361.0</ele><time>2026-05-01T13:26:44Z</time></trkpt><trkpt lat="39.08390566156521" lon="16.26363014884103"><ele>358.0</ele><time>2026-05-01T13:26:45Z</time></trkpt><trkpt lat="39.08393767051697" lon="16.263516914082672"><ele>355.0</ele><time>2026-05-01T13:26:46Z</time></trkpt><trkpt lat="39.083978674411675" lon="16.263405542204048"><ele>355.0</ele><time>2026-05-01T13:26:47Z</time></trkpt><trkpt lat="39.08402959102041" lon="16.263303678637655"><ele>355.0</ele><time>2026-05-01T13:26:48Z</time></trkpt><trkpt lat="39.084069341405105" lon="16.26320793428123"><ele>355.0</ele><time>2026-05-01T13:26:49Z</time></trkpt><trkpt lat="39.08410550923933" lon="16.263101984406802"><ele>355.0</ele><time>2026-05-01T13:26:49.999Z</time></trkpt><trkpt lat="39.084119761687504" lon="16.262984994221128"><ele>355.0</ele><time>2026-05-01T13:26:50.999Z</time></trkpt><trkpt lat="39.08412276467265" lon="16.26286681626532"><ele>352.6</ele><time>2026-05-01T13:26:51.999Z</time></trkpt><trkpt lat="39.08412619062152" lon="16.26274517071019"><ele>350.2</ele><time>2026-05-01T13:26:52.999Z</time></trkpt><trkpt lat="39.08413358161886" lon="16.262626692924126"><ele>347.79999999999995</ele><time>2026-05-01T13:26:53.999Z</time></trkpt><trkpt lat="39.084150127997994" lon="16.262517559916933"><ele>345.4</ele><time>2026-05-01T13:26:54.999Z</time></trkpt><trkpt lat="39.08418637073564" lon="16.262410054745022"><ele>343.0</ele><time>2026-05-01T13:26:55.999Z</time></trkpt><trkpt lat="39.08424013199792" lon="16.262309547508178"><ele>341.79999999999995</ele><time>2026-05-01T13:26:56.999Z</time></trkpt><trkpt lat="39.08430131292107" lon="16.26221320187715"><ele>340.6</ele><time>2026-05-01T13:26:57.999Z</time></trkpt><trkpt lat="39.084374506036795" lon="16.26213445169545"><ele>339.4</ele><time>2026-05-01T13:26:58.999Z</time></trkpt><trkpt lat="39.08445649037264" lon="16.26207651814087"><ele>338.20000000000005</ele><time>2026-05-01T13:26:59.999Z</time></trkpt><trkpt lat="39.08454005628014" lon="16.262031452550772"><ele>337.0</ele><time>2026-05-01T13:27:00.999Z</time></trkpt><trkpt lat="39.08461438659795" lon="16.261987049941663"><ele>337.0</ele><time>2026-05-01T13:27:01.999Z</time></trkpt><trkpt lat="39.08468708030354" lon="16.261925713160892"><ele>337.0</ele><time>2026-05-01T13:27:02.999Z</time></trkpt><trkpt lat="39.084744896123745" lon="16.261837235248116"><ele>337.0</ele><time>2026-05-01T13:27:03.999Z</time></trkpt><trkpt lat="39.08479069911076" lon="16.26172662470924"><ele>337.0</ele><time>2026-05-01T13:27:04.999Z</time></trkpt><trkpt lat="39.08483665309414" lon="16.261614765150245"><ele>337.0</ele><time>2026-05-01T13:27:05.999Z</time></trkpt><trkpt lat="39.084891463923846" lon="16.26150689623811"><ele>336.20000000000005</ele><time>2026-05-01T13:27:06.999Z</time></trkpt><trkpt lat="39.08495281328783" lon="16.261414794885468"><ele>335.4</ele><time>2026-05-01T13:27:07.999Z</time></trkpt><trkpt lat="39.08501210375967" lon="16.261326977568256"><ele>334.6</ele><time>2026-05-01T13:27:08.999Z</time></trkpt><trkpt lat="39.0850634809394" lon="16.261233971878468"><ele>333.79999999999995</ele><time>2026-05-01T13:27:09.999Z</time></trkpt><trkpt lat="39.08509804438269" lon="16.261124270914586"><ele>333.0</ele><time>2026-05-01T13:27:10.999Z</time></trkpt><trkpt lat="39.08512231662975" lon="16.26099873628021"><ele>333.0</ele><time>2026-05-01T13:27:11.999Z</time></trkpt><trkpt lat="39.0851385372896" lon="16.260865231361713"><ele>333.0</ele><time>2026-05-01T13:27:12.999Z</time></trkpt><trkpt lat="39.08514465152391" lon="16.26073867869596"><ele>333.0</ele><time>2026-05-01T13:27:13.999Z</time></trkpt><trkpt lat="39.08514893424521" lon="16.26061988616163"><ele>333.0</ele><time>2026-05-01T13:27:14.999Z</time></trkpt><trkpt lat="39.08515591533756" lon="16.260505627974606"><ele>333.0</ele><time>2026-05-01T13:27:15.999Z</time></trkpt><trkpt lat="39.08516102496103" lon="16.260400146875472"><ele>329.59999999999997</ele><time>2026-05-01T13:27:16.999Z</time></trkpt><trkpt lat="39.08517028830112" lon="16.26031091528618"><ele>326.2</ele><time>2026-05-01T13:27:17.999Z</time></trkpt><trkpt lat="39.0852139859895" lon="16.260210709749245"><ele>322.8</ele><time>2026-05-01T13:27:19.999Z</time></trkpt><trkpt lat="39.085300104642094" lon="16.26024771340832"><ele>319.4</ele><time>2026-05-01T13:27:21.999Z</time></trkpt><trkpt lat="39.08535743510308" lon="16.26039164488951"><ele>316.0</ele><time>2026-05-01T13:27:23.999Z</time></trkpt><trkpt lat="39.08538517212689" lon="16.260486891127364"><ele>316.0</ele><time>2026-05-01T13:27:24.999Z</time></trkpt><trkpt lat="39.08542274392957" lon="16.260598911405985"><ele>316.0</ele><time>2026-05-01T13:27:25.999Z</time></trkpt><trkpt lat="39.08546617987608" lon="16.26072319898389"><ele>316.0</ele><time>2026-05-01T13:27:26.999Z</time></trkpt><trkpt lat="39.085516566190826" lon="16.260856746219286"><ele>316.0</ele><time>2026-05-01T13:27:27.999Z</time></trkpt><trkpt lat="39.085565989557644" lon="16.261003888233358"><ele>316.0</ele><time>2026-05-01T13:27:28.999Z</time></trkpt><trkpt lat="39.08561214883767" lon="16.26115358524147"><ele>318.8</ele><time>2026-05-01T13:27:29.999Z</time></trkpt><trkpt lat="39.08562381643726" lon="16.26130126117182"><ele>321.6</ele><time>2026-05-01T13:27:30.999Z</time></trkpt><trkpt lat="39.08560630879732" lon="16.26144124763908"><ele>324.4</ele><time>2026-05-01T13:27:31.999Z</time></trkpt><trkpt lat="39.085550204648506" lon="16.26156129340627"><ele>327.2</ele><time>2026-05-01T13:27:32.999Z</time></trkpt><trkpt lat="39.08548204665238" lon="16.26166450094686"><ele>330.0</ele><time>2026-05-01T13:27:33.999Z</time></trkpt><trkpt lat="39.08540095987507" lon="16.261764162397377"><ele>330.0</ele><time>2026-05-01T13:27:34.999Z</time></trkpt><trkpt lat="39.08532815037465" lon="16.261862691426543"><ele>330.0</ele><time>2026-05-01T13:27:35.999Z</time></trkpt><trkpt lat="39.08527789348371" lon="16.26196508479299"><ele>330.0</ele><time>2026-05-01T13:27:36.999Z</time></trkpt><trkpt lat="39.08525584324938" lon="16.26208903683239"><ele>330.0</ele><time>2026-05-01T13:27:37.999Z</time></trkpt><trkpt lat="39.08525415405237" lon="16.26221912297883"><ele>330.0</ele><time>2026-05-01T13:27:38.999Z</time></trkpt><trkpt lat="39.085246763848275" lon="16.262327060663203"><ele>327.0</ele><time>2026-05-01T13:27:39.999Z</time></trkpt><trkpt lat="39.0852124528048" lon="16.26242982964841"><ele>324.0</ele><time>2026-05-01T13:27:40.999Z</time></trkpt><trkpt lat="39.08517354250658" lon="16.262531877932595"><ele>321.0</ele><time>2026-05-01T13:27:41.999Z</time></trkpt><trkpt lat="39.08514450060801" lon="16.262643391140074"><ele>318.0</ele><time>2026-05-01T13:27:42.999Z</time></trkpt><trkpt lat="39.08509200546735" lon="16.262735973607793"><ele>315.0</ele><time>2026-05-01T13:27:43.999Z</time></trkpt><trkpt lat="39.08504978690423" lon="16.26282206401251"><ele>312.0</ele><time>2026-05-01T13:27:44.999Z</time></trkpt><trkpt lat="39.08501420824955" lon="16.26293938406412"><ele>312.0</ele><time>2026-05-01T13:27:45.999Z</time></trkpt><trkpt lat="39.08500920504227" lon="16.263054986481865"><ele>312.0</ele><time>2026-05-01T13:27:46.999Z</time></trkpt><trkpt lat="39.0850030143872" lon="16.26316405118807"><ele>312.0</ele><time>2026-05-01T13:27:47.999Z</time></trkpt><trkpt lat="39.08501231051928" lon="16.263273829970764"><ele>312.0</ele><time>2026-05-01T13:27:48.999Z</time></trkpt><trkpt lat="39.085025568279534" lon="16.263368665247818"><ele>312.0</ele><time>2026-05-01T13:27:49.999Z</time></trkpt><trkpt lat="39.08507344147319" lon="16.263452543509025"><ele>312.0</ele><time>2026-05-01T13:27:50.999Z</time></trkpt><trkpt lat="39.08511939803468" lon="16.263523302771105"><ele>310.3333333333333</ele><time>2026-05-01T13:27:51.999Z</time></trkpt><trkpt lat="39.08518406969652" lon="16.263548385208047"><ele>308.6666666666667</ele><time>2026-05-01T13:27:52.999Z</time></trkpt><trkpt lat="39.08526087683485" lon="16.2635477027113"><ele>307.0</ele><time>2026-05-01T13:27:53.999Z</time></trkpt><trkpt lat="39.08533224935896" lon="16.263522797141107"><ele>305.33333333333337</ele><time>2026-05-01T13:27:54.999Z</time></trkpt><trkpt lat="39.085398889659515" lon="16.263472032073736"><ele>303.6666666666667</ele><time>2026-05-01T13:27:55.999Z</time></trkpt><trkpt lat="39.08546122861555" lon="16.263404927402163"><ele>302.0</ele><time>2026-05-01T13:27:56.999Z</time></trkpt><trkpt lat="39.08551990247752" lon="16.263322886128098"><ele>302.0</ele><time>2026-05-01T13:27:57.999Z</time></trkpt><trkpt lat="39.08558125941089" lon="16.263238230122123"><ele>302.0</ele><time>2026-05-01T13:27:58.999Z</time></trkpt><trkpt lat="39.085647046735154" lon="16.263164486181047"><ele>302.0</ele><time>2026-05-01T13:27:59.999Z</time></trkpt><trkpt lat="39.08571581349512" lon="16.263100145844497"><ele>302.0</ele><time>2026-05-01T13:28:00.999Z</time></trkpt><trkpt lat="39.08579427350954" lon="16.26304354006367"><ele>302.0</ele><time>2026-05-01T13:28:01.999Z</time></trkpt><trkpt lat="39.085877090158334" lon="16.263009032965464"><ele>302.0</ele><time>2026-05-01T13:28:02.999Z</time></trkpt><trkpt lat="39.08596484185988" lon="16.262983624364352"><ele>296.4</ele><time>2026-05-01T13:28:03.999Z</time></trkpt><trkpt lat="39.08605437504049" lon="16.262959120115028"><ele>290.79999999999995</ele><time>2026-05-01T13:28:04.999Z</time></trkpt><trkpt lat="39.086144487428285" lon="16.262928841326637"><ele>285.2</ele><time>2026-05-01T13:28:05.999Z</time></trkpt><trkpt lat="39.08623838296073" lon="16.262896269421024"><ele>279.59999999999997</ele><time>2026-05-01T13:28:06.999Z</time></trkpt><trkpt lat="39.0863325900789" lon="16.262855854839923"><ele>274.0</ele><time>2026-05-01T13:28:07.999Z</time></trkpt><trkpt lat="39.08642567967043" lon="16.262809925087673"><ele>274.0</ele><time>2026-05-01T13:28:09Z</time></trkpt><trkpt lat="39.08651541331423" lon="16.26274145594242"><ele>274.0</ele><time>2026-05-01T13:28:10Z</time></trkpt><trkpt lat="39.08660340337456" lon="16.26266668712583"><ele>274.0</ele><time>2026-05-01T13:28:11Z</time></trkpt><trkpt lat="39.0866949331765" lon="16.26259691975707"><ele>274.0</ele><time>2026-05-01T13:28:12Z</time></trkpt><trkpt lat="39.086788788065526" lon="16.2625363874849"><ele>274.0</ele><time>2026-05-01T13:28:13Z</time></trkpt><trkpt lat="39.086884774755575" lon="16.262494723745874"><ele>273.4</ele><time>2026-05-01T13:28:14Z</time></trkpt><trkpt lat="39.086973288367226" lon="16.26244469088992"><ele>272.79999999999995</ele><time>2026-05-01T13:28:15Z</time></trkpt><trkpt lat="39.08705999316281" lon="16.26236902480185"><ele>272.20000000000005</ele><time>2026-05-01T13:28:16Z</time></trkpt><trkpt lat="39.08713798397424" lon="16.262294239315953"><ele>271.6</ele><time>2026-05-01T13:28:17Z</time></trkpt><trkpt lat="39.08722037410849" lon="16.262226756725646"><ele>271.0</ele><time>2026-05-01T13:28:18Z</time></trkpt><trkpt lat="39.0873044903856" lon="16.262171964957606"><ele>267.40000000000003</ele><time>2026-05-01T13:28:19Z</time></trkpt><trkpt lat="39.087394991950205" lon="16.262125471413597"><ele>263.8</ele><time>2026-05-01T13:28:20Z</time></trkpt><trkpt lat="39.08749100244762" lon="16.262112209637205"><ele>260.20000000000005</ele><time>2026-05-01T13:28:21Z</time></trkpt><trkpt lat="39.08759387772549" lon="16.26211175728296"><ele>256.6</ele><time>2026-05-01T13:28:22Z</time></trkpt><trkpt lat="39.087676213834186" lon="16.262122558544696"><ele>253.0</ele><time>2026-05-01T13:28:23Z</time></trkpt><trkpt lat="39.087753085968174" lon="16.262153327464596"><ele>250.8</ele><time>2026-05-01T13:28:24Z</time></trkpt><trkpt lat="39.08783339267717" lon="16.262210303619838"><ele>248.60000000000002</ele><time>2026-05-01T13:28:25Z</time></trkpt><trkpt lat="39.08790963522358" lon="16.26228915153941"><ele>246.39999999999998</ele><time>2026-05-01T13:28:26Z</time></trkpt><trkpt lat="39.08798791614639" lon="16.262381485457748"><ele>244.2</ele><time>2026-05-01T13:28:27Z</time></trkpt><trkpt lat="39.088067394200586" lon="16.26246653003648"><ele>242.0</ele><time>2026-05-01T13:28:28Z</time></trkpt><trkpt lat="39.088127822172936" lon="16.262558261434144"><ele>242.0</ele><time>2026-05-01T13:28:29Z</time></trkpt><trkpt lat="39.08818293487701" lon="16.262660433557866"><ele>242.0</ele><time>2026-05-01T13:28:30Z</time></trkpt><trkpt lat="39.08822975106032" lon="16.26277735507865"><ele>242.0</ele><time>2026-05-01T13:28:31Z</time></trkpt><trkpt lat="39.08825779009272" lon="16.262910668405155"><ele>242.0</ele><time>2026-05-01T13:28:32Z</time></trkpt><trkpt lat="39.08827470332966" lon="16.2630487577575"><ele>242.0</ele><time>2026-05-01T13:28:33Z</time></trkpt><trkpt lat="39.08830823052574" lon="16.26318257202257"><ele>244.0</ele><time>2026-05-01T13:28:34Z</time></trkpt><trkpt lat="39.08836069843602" lon="16.26330509484966"><ele>246.0</ele><time>2026-05-01T13:28:35Z</time></trkpt><trkpt lat="39.08843110035918" lon="16.2634193461181"><ele>248.0</ele><time>2026-05-01T13:28:36Z</time></trkpt><trkpt lat="39.08850035727111" lon="16.2635339148946"><ele>250.0</ele><time>2026-05-01T13:28:37Z</time></trkpt><trkpt lat="39.08855601162105" lon="16.263658652356728"><ele>252.0</ele><time>2026-05-01T13:28:38Z</time></trkpt><trkpt lat="39.08860440889229" lon="16.263795144838507"><ele>252.0</ele><time>2026-05-01T13:28:39Z</time></trkpt><trkpt lat="39.08864843927936" lon="16.26393055695639"><ele>252.0</ele><time>2026-05-01T13:28:40Z</time></trkpt><trkpt lat="39.088695064438035" lon="16.264070309364847"><ele>252.0</ele><time>2026-05-01T13:28:41Z</time></trkpt><trkpt lat="39.08874644371155" lon="16.264205483178575"><ele>252.0</ele><time>2026-05-01T13:28:42Z</time></trkpt><trkpt lat="39.088791958205235" lon="16.26433544042828"><ele>254.0</ele><time>2026-05-01T13:28:43Z</time></trkpt><trkpt lat="39.08883561417817" lon="16.264448319906368"><ele>256.0</ele><time>2026-05-01T13:28:44Z</time></trkpt><trkpt lat="39.088884767961495" lon="16.264554672060534"><ele>258.0</ele><time>2026-05-01T13:28:45Z</time></trkpt><trkpt lat="39.08894933144536" lon="16.264619547164283"><ele>260.0</ele><time>2026-05-01T13:28:46Z</time></trkpt><trkpt lat="39.08902779322514" lon="16.26466035649714"><ele>262.0</ele><time>2026-05-01T13:28:47Z</time></trkpt><trkpt lat="39.08910884751367" lon="16.264671569946007"><ele>264.0</ele><time>2026-05-01T13:28:48Z</time></trkpt><trkpt lat="39.08918890212606" lon="16.264665623887563"><ele>257.8333333333333</ele><time>2026-05-01T13:28:49Z</time></trkpt><trkpt lat="39.089262719360676" lon="16.2646508679061"><ele>251.66666666666669</ele><time>2026-05-01T13:28:50Z</time></trkpt><trkpt lat="39.08934260484522" lon="16.264623917390864"><ele>245.5</ele><time>2026-05-01T13:28:51Z</time></trkpt><trkpt lat="39.0894181112124" lon="16.264600534395157"><ele>239.33333333333334</ele><time>2026-05-01T13:28:52Z</time></trkpt><trkpt lat="39.08949568281501" lon="16.264549528688253"><ele>233.16666666666669</ele><time>2026-05-01T13:28:53Z</time></trkpt><trkpt lat="39.08956951355095" lon="16.264492086982585"><ele>227.0</ele><time>2026-05-01T13:28:54Z</time></trkpt><trkpt lat="39.08964711992913" lon="16.264429245907955"><ele>227.0</ele><time>2026-05-01T13:28:55Z</time></trkpt><trkpt lat="39.089724472623054" lon="16.264355638216927"><ele>227.0</ele><time>2026-05-01T13:28:56Z</time></trkpt><trkpt lat="39.08980064378153" lon="16.264282036212737"><ele>227.0</ele><time>2026-05-01T13:28:56.999Z</time></trkpt><trkpt lat="39.089880001278836" lon="16.26422765510369"><ele>227.0</ele><time>2026-05-01T13:28:57.999Z</time></trkpt><trkpt lat="39.08996057546962" lon="16.264170109829656"><ele>227.0</ele><time>2026-05-01T13:28:58.999Z</time></trkpt><trkpt lat="39.090047497830625" lon="16.264116674278398"><ele>227.8</ele><time>2026-05-01T13:28:59.999Z</time></trkpt><trkpt lat="39.09013709997044" lon="16.26405100355592"><ele>228.6</ele><time>2026-05-01T13:29:00.999Z</time></trkpt><trkpt lat="39.09020865193567" lon="16.263961483298257"><ele>229.40000000000003</ele><time>2026-05-01T13:29:01.999Z</time></trkpt><trkpt lat="39.09024837186342" lon="16.263861162710068"><ele>230.20000000000002</ele><time>2026-05-01T13:29:02.999Z</time></trkpt><trkpt lat="39.09024536525234" lon="16.263742611709457"><ele>231.0</ele><time>2026-05-01T13:29:03.999Z</time></trkpt><trkpt lat="39.09021844401165" lon="16.263608888508553"><ele>232.75</ele><time>2026-05-01T13:29:04.999Z</time></trkpt><trkpt lat="39.090190097375725" lon="16.26345262855366"><ele>234.5</ele><time>2026-05-01T13:29:05.999Z</time></trkpt><trkpt lat="39.090179980394815" lon="16.263283264925384"><ele>236.25</ele><time>2026-05-01T13:29:06.999Z</time></trkpt><trkpt lat="39.09017898398638" lon="16.263108205157064"><ele>238.0</ele><time>2026-05-01T13:29:07.999Z</time></trkpt><trkpt lat="39.090196970685504" lon="16.262947730272383"><ele>239.4</ele><time>2026-05-01T13:29:08.999Z</time></trkpt><trkpt lat="39.09022833816717" lon="16.26280054396945"><ele>240.8</ele><time>2026-05-01T13:29:09.999Z</time></trkpt><trkpt lat="39.09025320763728" lon="16.262656580666366"><ele>242.2</ele><time>2026-05-01T13:29:10.999Z</time></trkpt><trkpt lat="39.09026245889755" lon="16.26252006810583"><ele>243.6</ele><time>2026-05-01T13:29:11.999Z</time></trkpt><trkpt lat="39.09027123842571" lon="16.26241126380927"><ele>245.0</ele><time>2026-05-01T13:29:12.999Z</time></trkpt><trkpt lat="39.09027062474278" lon="16.262275386435093"><ele>246.00000000000003</ele><time>2026-05-01T13:29:14.999Z</time></trkpt><trkpt lat="39.090286754028625" lon="16.262185083518165"><ele>247.0</ele><time>2026-05-01T13:29:16.999Z</time></trkpt><trkpt lat="39.09031128845752" lon="16.262100510353115"><ele>248.0</ele><time>2026-05-01T13:29:19.999Z</time></trkpt><trkpt lat="39.0903252220741" lon="16.261950595565363"><ele>249.0</ele><time>2026-05-01T13:29:22.999Z</time></trkpt><trkpt lat="39.09030598794079" lon="16.26185019726374"><ele>250.00000000000003</ele><time>2026-05-01T13:29:23.999Z</time></trkpt><trkpt lat="39.09027603559423" lon="16.26173865218302"><ele>251.0</ele><time>2026-05-01T13:29:24.999Z</time></trkpt><trkpt lat="39.09023697586503" lon="16.26161307942201"><ele>251.0</ele><time>2026-05-01T13:29:25.999Z</time></trkpt><trkpt lat="39.09019847038556" lon="16.26148725433877"><ele>251.0</ele><time>2026-05-01T13:29:26.999Z</time></trkpt><trkpt lat="39.09015384864259" lon="16.26134208026991"><ele>251.0</ele><time>2026-05-01T13:29:27.999Z</time></trkpt><trkpt lat="39.090103511294586" lon="16.26118966006819"><ele>251.0</ele><time>2026-05-01T13:29:28.999Z</time></trkpt><trkpt lat="39.09005724494911" lon="16.26103041225245"><ele>254.0</ele><time>2026-05-01T13:29:29.999Z</time></trkpt><trkpt lat="39.09001108467433" lon="16.260862224560174"><ele>257.0</ele><time>2026-05-01T13:29:30.999Z</time></trkpt><trkpt lat="39.08996232788617" lon="16.26069754678778"><ele>260.0</ele><time>2026-05-01T13:29:31.999Z</time></trkpt><trkpt lat="39.08991100178862" lon="16.260527386896488"><ele>263.0</ele><time>2026-05-01T13:29:32.999Z</time></trkpt><trkpt lat="39.08985972629227" lon="16.26036428166811"><ele>256.75</ele><time>2026-05-01T13:29:33.999Z</time></trkpt><trkpt lat="39.08980940806187" lon="16.260200630857952"><ele>250.5</ele><time>2026-05-01T13:29:34.999Z</time></trkpt><trkpt lat="39.0897626626938" lon="16.260038813051484"><ele>244.25</ele><time>2026-05-01T13:29:35.999Z</time></trkpt><trkpt lat="39.089709854203285" lon="16.259833904776787"><ele>238.0</ele><time>2026-05-01T13:29:36.999Z</time></trkpt><trkpt lat="39.08964629698377" lon="16.25963255082191"><ele>236.66666666666666</ele><time>2026-05-01T13:29:37.999Z</time></trkpt><trkpt lat="39.08958831807562" lon="16.259435565465836"><ele>235.33333333333331</ele><time>2026-05-01T13:29:38.999Z</time></trkpt><trkpt lat="39.089532250273436" lon="16.259245385775902"><ele>234.0</ele><time>2026-05-01T13:29:39.999Z</time></trkpt><trkpt lat="39.089474853216835" lon="16.25904403711812"><ele>234.33333333333331</ele><time>2026-05-01T13:29:40.999Z</time></trkpt><trkpt lat="39.08941820997376" lon="16.25883456882576"><ele>234.66666666666666</ele><time>2026-05-01T13:29:41.999Z</time></trkpt><trkpt lat="39.08935841547709" lon="16.258634113929553"><ele>235.0</ele><time>2026-05-01T13:29:42.999Z</time></trkpt><trkpt lat="39.08929884727752" lon="16.258439741978545"><ele>235.0</ele><time>2026-05-01T13:29:43.999Z</time></trkpt><trkpt lat="39.08924348497429" lon="16.258232616830746"><ele>235.0</ele><time>2026-05-01T13:29:44.999Z</time></trkpt><trkpt lat="39.089189030857725" lon="16.25802934536014"><ele>235.0</ele><time>2026-05-01T13:29:45.999Z</time></trkpt><trkpt lat="39.0891362532362" lon="16.257829925763343"><ele>234.66666666666666</ele><time>2026-05-01T13:29:46.999Z</time></trkpt><trkpt lat="39.08909568384467" lon="16.25761792954296"><ele>234.33333333333331</ele><time>2026-05-01T13:29:47.999Z</time></trkpt><trkpt lat="39.08906172431028" lon="16.25740711686582"><ele>234.0</ele><time>2026-05-01T13:29:48.999Z</time></trkpt><trkpt lat="39.089035004565126" lon="16.257194145505768"><ele>227.33333333333331</ele><time>2026-05-01T13:29:49.999Z</time></trkpt><trkpt lat="39.08902034984311" lon="16.256976022609294"><ele>220.66666666666666</ele><time>2026-05-01T13:29:50.999Z</time></trkpt><trkpt lat="39.08901491390124" lon="16.256754060188076"><ele>214.0</ele><time>2026-05-01T13:29:51.999Z</time></trkpt><trkpt lat="39.08902511726439" lon="16.256526357425727"><ele>213.66666666666666</ele><time>2026-05-01T13:29:52.999Z</time></trkpt><trkpt lat="39.08904480066212" lon="16.25629080290137"><ele>213.33333333333331</ele><time>2026-05-01T13:29:53.999Z</time></trkpt><trkpt lat="39.08906827804003" lon="16.25605597058818"><ele>213.0</ele><time>2026-05-01T13:29:54.999Z</time></trkpt><trkpt lat="39.089095010748075" lon="16.25581172097011"><ele>216.66666666666669</ele><time>2026-05-01T13:29:55.999Z</time></trkpt><trkpt lat="39.08912871806633" lon="16.255570027923298"><ele>220.33333333333334</ele><time>2026-05-01T13:29:56.999Z</time></trkpt><trkpt lat="39.08917020881367" lon="16.255323187688376"><ele>224.0</ele><time>2026-05-01T13:29:57.999Z</time></trkpt><trkpt lat="39.08920613881809" lon="16.255073381399235"><ele>224.0</ele><time>2026-05-01T13:29:58.999Z</time></trkpt><trkpt lat="39.08923796909729" lon="16.254822793570046"><ele>224.0</ele><time>2026-05-01T13:29:59.999Z</time></trkpt><trkpt lat="39.08927083021219" lon="16.254571957807304"><ele>224.0</ele><time>2026-05-01T13:30:00.999Z</time></trkpt><trkpt lat="39.08930429285054" lon="16.25431897873411"><ele>222.0</ele><time>2026-05-01T13:30:01.999Z</time></trkpt><trkpt lat="39.08934011509258" lon="16.254068509735042"><ele>220.0</ele><time>2026-05-01T13:30:02.999Z</time></trkpt><trkpt lat="39.08937651939103" lon="16.25382213703808"><ele>218.0</ele><time>2026-05-01T13:30:03.999Z</time></trkpt><trkpt lat="39.089410996108576" lon="16.253579537317183"><ele>217.0</ele><time>2026-05-01T13:30:04.999Z</time></trkpt><trkpt lat="39.08944306472053" lon="16.253335637818655"><ele>216.0</ele><time>2026-05-01T13:30:05.999Z</time></trkpt><trkpt lat="39.08947706053112" lon="16.253095221344047"><ele>215.0</ele><time>2026-05-01T13:30:06.999Z</time></trkpt><trkpt lat="39.08951417709982" lon="16.25286264212966"><ele>214.0</ele><time>2026-05-01T13:30:07.999Z</time></trkpt><trkpt lat="39.089544993673485" lon="16.25262030658888"><ele>213.0</ele><time>2026-05-01T13:30:08.999Z</time></trkpt><trkpt lat="39.089576835446735" lon="16.25238840017687"><ele>212.0</ele><time>2026-05-01T13:30:09.999Z</time></trkpt><trkpt lat="39.08961591055393" lon="16.25215260070221"><ele>210.66666666666669</ele><time>2026-05-01T13:30:10.999Z</time></trkpt><trkpt lat="39.0896707690005" lon="16.251933635008236"><ele>209.33333333333331</ele><time>2026-05-01T13:30:11.999Z</time></trkpt><trkpt lat="39.08970912221986" lon="16.251712581710418"><ele>208.0</ele><time>2026-05-01T13:30:12.999Z</time></trkpt><trkpt lat="39.08972547051015" lon="16.251427754061027"><ele>207.0</ele><time>2026-05-01T13:30:13.999Z</time></trkpt><trkpt lat="39.08975961190637" lon="16.25119154561097"><ele>206.0</ele><time>2026-05-01T13:30:15Z</time></trkpt><trkpt lat="39.0897865579739" lon="16.250947346346095"><ele>205.0</ele><time>2026-05-01T13:30:16Z</time></trkpt><trkpt lat="39.08981839094515" lon="16.250707008063475"><ele>204.33333333333331</ele><time>2026-05-01T13:30:17Z</time></trkpt><trkpt lat="39.0898516194378" lon="16.250458693416956"><ele>203.66666666666669</ele><time>2026-05-01T13:30:18Z</time></trkpt><trkpt lat="39.089885052509786" lon="16.25021947241926"><ele>203.0</ele><time>2026-05-01T13:30:19Z</time></trkpt><trkpt lat="39.089916404036046" lon="16.249978751843596"><ele>207.0</ele><time>2026-05-01T13:30:20Z</time></trkpt><trkpt lat="39.08994327440091" lon="16.24973758470936"><ele>211.0</ele><time>2026-05-01T13:30:21Z</time></trkpt><trkpt lat="39.089974635032355" lon="16.249497681409274"><ele>215.0</ele><time>2026-05-01T13:30:22Z</time></trkpt><trkpt lat="39.090003992538826" lon="16.249261803810494"><ele>215.0</ele><time>2026-05-01T13:30:23Z</time></trkpt><trkpt lat="39.09003795558474" lon="16.24902905049689"><ele>215.0</ele><time>2026-05-01T13:30:24Z</time></trkpt><trkpt lat="39.090070648723724" lon="16.248791335308777"><ele>215.0</ele><time>2026-05-01T13:30:25Z</time></trkpt><trkpt lat="39.09010490101324" lon="16.248557481390336"><ele>214.33333333333334</ele><time>2026-05-01T13:30:26Z</time></trkpt><trkpt lat="39.09014492538054" lon="16.248328321545262"><ele>213.66666666666669</ele><time>2026-05-01T13:30:27Z</time></trkpt><trkpt lat="39.090185699155846" lon="16.248099723596287"><ele>213.0</ele><time>2026-05-01T13:30:28Z</time></trkpt><trkpt lat="39.0902405359721" lon="16.247869567111163"><ele>213.0</ele><time>2026-05-01T13:30:29Z</time></trkpt><trkpt lat="39.09029743847213" lon="16.247648058068997"><ele>213.0</ele><time>2026-05-01T13:30:30Z</time></trkpt><trkpt lat="39.09036766932838" lon="16.247431624339537"><ele>213.0</ele><time>2026-05-01T13:30:31Z</time></trkpt><trkpt lat="39.09043853777759" lon="16.247215444931957"><ele>210.0</ele><time>2026-05-01T13:30:32Z</time></trkpt><trkpt lat="39.09052435428847" lon="16.247007683106936"><ele>207.0</ele><time>2026-05-01T13:30:33Z</time></trkpt><trkpt lat="39.09062098354391" lon="16.24680634735259"><ele>204.0</ele><time>2026-05-01T13:30:34Z</time></trkpt><trkpt lat="39.09072572770306" lon="16.24660871429996"><ele>204.66666666666669</ele><time>2026-05-01T13:30:35Z</time></trkpt><trkpt lat="39.090846530125155" lon="16.246421242740784"><ele>205.33333333333334</ele><time>2026-05-01T13:30:36Z</time></trkpt><trkpt lat="39.090956794594604" lon="16.246229473003396"><ele>206.0</ele><time>2026-05-01T13:30:37Z</time></trkpt><trkpt lat="39.091067079930255" lon="16.24603987875012"><ele>206.0</ele><time>2026-05-01T13:30:38Z</time></trkpt><trkpt lat="39.09117546473532" lon="16.245856117760816"><ele>206.0</ele><time>2026-05-01T13:30:39Z</time></trkpt><trkpt lat="39.09128872807337" lon="16.245673645539643"><ele>206.0</ele><time>2026-05-01T13:30:40Z</time></trkpt><trkpt lat="39.09139681261192" lon="16.24549318460278"><ele>208.66666666666669</ele><time>2026-05-01T13:30:41Z</time></trkpt><trkpt lat="39.09150345133205" lon="16.24531846970487"><ele>211.33333333333331</ele><time>2026-05-01T13:30:42Z</time></trkpt><trkpt lat="39.09160546683831" lon="16.245144076488632"><ele>214.0</ele><time>2026-05-01T13:30:43Z</time></trkpt><trkpt lat="39.091708921919185" lon="16.244974927180714"><ele>214.0</ele><time>2026-05-01T13:30:44Z</time></trkpt><trkpt lat="39.091807430097575" lon="16.24480671790899"><ele>214.0</ele><time>2026-05-01T13:30:45Z</time></trkpt><trkpt lat="39.09190971595118" lon="16.244644205542848"><ele>214.0</ele><time>2026-05-01T13:30:46Z</time></trkpt><trkpt lat="39.09201028456511" lon="16.244494700146525"><ele>213.33333333333331</ele><time>2026-05-01T13:30:47Z</time></trkpt><trkpt lat="39.0921315107306" lon="16.244357186332078"><ele>212.66666666666669</ele><time>2026-05-01T13:30:48Z</time></trkpt><trkpt lat="39.092258877099006" lon="16.244234634940298"><ele>212.0</ele><time>2026-05-01T13:30:49Z</time></trkpt><trkpt lat="39.092390134068125" lon="16.244125686642143"><ele>209.0</ele><time>2026-05-01T13:30:50Z</time></trkpt><trkpt lat="39.09253901242683" lon="16.244031173759723"><ele>206.0</ele><time>2026-05-01T13:30:51Z</time></trkpt><trkpt lat="39.09269419728202" lon="16.24395348713268"><ele>203.0</ele><time>2026-05-01T13:30:52Z</time></trkpt><trkpt lat="39.09285864382281" lon="16.243891236630677"><ele>200.33333333333334</ele><time>2026-05-01T13:30:53Z</time></trkpt><trkpt lat="39.09303066023442" lon="16.243847750588973"><ele>197.66666666666669</ele><time>2026-05-01T13:30:54Z</time></trkpt><trkpt lat="39.09320665517478" lon="16.243825179812134"><ele>195.0</ele><time>2026-05-01T13:30:55Z</time></trkpt><trkpt lat="39.09338315031344" lon="16.243822040916374"><ele>192.33333333333334</ele><time>2026-05-01T13:30:56Z</time></trkpt><trkpt lat="39.0935628282802" lon="16.243846726207657"><ele>189.66666666666669</ele><time>2026-05-01T13:30:57Z</time></trkpt><trkpt lat="39.09373969213341" lon="16.243893213405904"><ele>187.0</ele><time>2026-05-01T13:30:58Z</time></trkpt><trkpt lat="39.093914915140154" lon="16.243961547809818"><ele>185.66666666666669</ele><time>2026-05-01T13:30:59Z</time></trkpt><trkpt lat="39.094078698886904" lon="16.244058736148286"><ele>184.33333333333334</ele><time>2026-05-01T13:31:00Z</time></trkpt><trkpt lat="39.0942401564537" lon="16.24418194866678"><ele>183.0</ele><time>2026-05-01T13:31:01Z</time></trkpt><trkpt lat="39.09439253925493" lon="16.24431980071491"><ele>183.0</ele><time>2026-05-01T13:31:02Z</time></trkpt><trkpt lat="39.09453409513928" lon="16.24448633178682"><ele>183.0</ele><time>2026-05-01T13:31:03Z</time></trkpt><trkpt lat="39.094659252057596" lon="16.244666284212144"><ele>183.0</ele><time>2026-05-01T13:31:03.999Z</time></trkpt><trkpt lat="39.09479099734185" lon="16.244848778781947"><ele>183.33333333333334</ele><time>2026-05-01T13:31:04.999Z</time></trkpt><trkpt lat="39.09491791443151" lon="16.245030844423276"><ele>183.66666666666669</ele><time>2026-05-01T13:31:05.999Z</time></trkpt><trkpt lat="39.095050763304485" lon="16.245213518334634"><ele>184.0</ele><time>2026-05-01T13:31:06.999Z</time></trkpt><trkpt lat="39.09518202489261" lon="16.24539880109935"><ele>182.0</ele><time>2026-05-01T13:31:07.999Z</time></trkpt><trkpt lat="39.09531597790387" lon="16.245585976142642"><ele>180.0</ele><time>2026-05-01T13:31:08.999Z</time></trkpt><trkpt lat="39.09544581872133" lon="16.24577046618081"><ele>178.0</ele><time>2026-05-01T13:31:09.999Z</time></trkpt><trkpt lat="39.095574055705285" lon="16.245955770486873"><ele>178.0</ele><time>2026-05-01T13:31:10.999Z</time></trkpt><trkpt lat="39.0956986334518" lon="16.246142890575612"><ele>178.0</ele><time>2026-05-01T13:31:11.999Z</time></trkpt><trkpt lat="39.09582865428866" lon="16.246322070493502"><ele>178.0</ele><time>2026-05-01T13:31:12.999Z</time></trkpt><trkpt lat="39.095956638651224" lon="16.246496787720684"><ele>176.33333333333334</ele><time>2026-05-01T13:31:13.999Z</time></trkpt><trkpt lat="39.09608714041094" lon="16.246672818642633"><ele>174.66666666666666</ele><time>2026-05-01T13:31:14.999Z</time></trkpt><trkpt lat="39.09620896031956" lon="16.24685255474791"><ele>173.0</ele><time>2026-05-01T13:31:15.999Z</time></trkpt><trkpt lat="39.09632159264336" lon="16.247028017525896"><ele>173.0</ele><time>2026-05-01T13:31:16.999Z</time></trkpt><trkpt lat="39.09644066582133" lon="16.247203237786078"><ele>173.0</ele><time>2026-05-01T13:31:17.999Z</time></trkpt><trkpt lat="39.09655826197043" lon="16.24736794637577"><ele>173.0</ele><time>2026-05-01T13:31:18.999Z</time></trkpt><trkpt lat="39.0966755109783" lon="16.247527247524705"><ele>173.33333333333331</ele><time>2026-05-01T13:31:19.999Z</time></trkpt><trkpt lat="39.09678808256431" lon="16.247684796488702"><ele>173.66666666666666</ele><time>2026-05-01T13:31:20.999Z</time></trkpt><trkpt lat="39.09689795279066" lon="16.247842024994604"><ele>174.0</ele><time>2026-05-01T13:31:21.999Z</time></trkpt><trkpt lat="39.097005860400685" lon="16.24798889743355"><ele>179.33333333333334</ele><time>2026-05-01T13:31:22.999Z</time></trkpt><trkpt lat="39.09711394919686" lon="16.248137696665648"><ele>184.66666666666669</ele><time>2026-05-01T13:31:23.999Z</time></trkpt><trkpt lat="39.0972166804331" lon="16.248286507949395"><ele>190.0</ele><time>2026-05-01T13:31:24.999Z</time></trkpt><trkpt lat="39.0973144707065" lon="16.248434100133093"><ele>190.0</ele><time>2026-05-01T13:31:25.999Z</time></trkpt><trkpt lat="39.09741752609803" lon="16.248578648340423"><ele>190.0</ele><time>2026-05-01T13:31:26.999Z</time></trkpt><trkpt lat="39.09752633724528" lon="16.248717148868106"><ele>190.0</ele><time>2026-05-01T13:31:27.999Z</time></trkpt><trkpt lat="39.097638915382774" lon="16.248850786628836"><ele>188.66666666666669</ele><time>2026-05-01T13:31:28.999Z</time></trkpt><trkpt lat="39.097759424112226" lon="16.248971316435934"><ele>187.33333333333334</ele><time>2026-05-01T13:31:29.999Z</time></trkpt><trkpt lat="39.09788815836817" lon="16.249078207138766"><ele>186.0</ele><time>2026-05-01T13:31:30.999Z</time></trkpt><trkpt lat="39.09802489429575" lon="16.24917043498993"><ele>186.0</ele><time>2026-05-01T13:31:31.999Z</time></trkpt><trkpt lat="39.09816593277935" lon="16.24924940688929"><ele>186.0</ele><time>2026-05-01T13:31:32.999Z</time></trkpt><trkpt lat="39.098313500274955" lon="16.24931099411454"><ele>186.0</ele><time>2026-05-01T13:31:33.999Z</time></trkpt><trkpt lat="39.09846636208805" lon="16.249356970182443"><ele>180.66666666666666</ele><time>2026-05-01T13:31:34.999Z</time></trkpt><trkpt lat="39.09862016735579" lon="16.249388554279243"><ele>175.33333333333331</ele><time>2026-05-01T13:31:35.999Z</time></trkpt><trkpt lat="39.098773658850455" lon="16.249406340813778"><ele>170.0</ele><time>2026-05-01T13:31:36.999Z</time></trkpt><trkpt lat="39.09892794922963" lon="16.249405796423495"><ele>170.0</ele><time>2026-05-01T13:31:37.999Z</time></trkpt><trkpt lat="39.09908211580804" lon="16.249380742791953"><ele>170.0</ele><time>2026-05-01T13:31:38.999Z</time></trkpt><trkpt lat="39.09923416578599" lon="16.249339579736457"><ele>170.0</ele><time>2026-05-01T13:31:39.999Z</time></trkpt><trkpt lat="39.099382775278244" lon="16.249285485310036"><ele>171.0</ele><time>2026-05-01T13:31:40.999Z</time></trkpt><trkpt lat="39.099531075011136" lon="16.249221260495272"><ele>172.0</ele><time>2026-05-01T13:31:41.999Z</time></trkpt><trkpt lat="39.09967315038219" lon="16.249156770964298"><ele>173.0</ele><time>2026-05-01T13:31:42.999Z</time></trkpt><trkpt lat="39.09981595753107" lon="16.249090740230614"><ele>172.33333333333331</ele><time>2026-05-01T13:31:43.999Z</time></trkpt><trkpt lat="39.09995545630967" lon="16.2490234586955"><ele>171.66666666666666</ele><time>2026-05-01T13:31:44.999Z</time></trkpt><trkpt lat="39.10009911960945" lon="16.248962099397197"><ele>171.0</ele><time>2026-05-01T13:31:45.999Z</time></trkpt><trkpt lat="39.10023900569246" lon="16.24889336823297"><ele>170.33333333333334</ele><time>2026-05-01T13:31:46.999Z</time></trkpt><trkpt lat="39.100379583206475" lon="16.24882760154325"><ele>169.66666666666669</ele><time>2026-05-01T13:31:47.999Z</time></trkpt><trkpt lat="39.10052197497916" lon="16.248761573981984"><ele>169.0</ele><time>2026-05-01T13:31:48.999Z</time></trkpt><trkpt lat="39.10066293709704" lon="16.248696624582703"><ele>169.5</ele><time>2026-05-01T13:31:49.999Z</time></trkpt><trkpt lat="39.100800929394524" lon="16.248634427079907"><ele>170.0</ele><time>2026-05-01T13:31:50.999Z</time></trkpt><trkpt lat="39.100934888754736" lon="16.248569388540812"><ele>170.5</ele><time>2026-05-01T13:31:51.999Z</time></trkpt><trkpt lat="39.10106997157416" lon="16.248503141486783"><ele>171.0</ele><time>2026-05-01T13:31:52.999Z</time></trkpt><trkpt lat="39.101201726844685" lon="16.248441777318256"><ele>171.0</ele><time>2026-05-01T13:31:53.999Z</time></trkpt><trkpt lat="39.10133202265684" lon="16.24838017322794"><ele>171.0</ele><time>2026-05-01T13:31:54.999Z</time></trkpt><trkpt lat="39.10146262535932" lon="16.248328852180045"><ele>171.0</ele><time>2026-05-01T13:31:55.999Z</time></trkpt><trkpt lat="39.10158588831284" lon="16.248275051708358"><ele>171.0</ele><time>2026-05-01T13:31:56.999Z</time></trkpt><trkpt lat="39.101708483326796" lon="16.248218356528312"><ele>171.75</ele><time>2026-05-01T13:31:57.999Z</time></trkpt><trkpt lat="39.10182838490039" lon="16.248159786473483"><ele>172.5</ele><time>2026-05-01T13:31:58.999Z</time></trkpt><trkpt lat="39.1019448177659" lon="16.24810009987167"><ele>173.25</ele><time>2026-05-01T13:31:59.999Z</time></trkpt><trkpt lat="39.102060696394325" lon="16.248043556255347"><ele>174.0</ele><time>2026-05-01T13:32:00.999Z</time></trkpt><trkpt lat="39.10217772194242" lon="16.24799211147779"><ele>175.0</ele><time>2026-05-01T13:32:01.999Z</time></trkpt><trkpt lat="39.10229634800111" lon="16.24793939885588"><ele>176.0</ele><time>2026-05-01T13:32:02.999Z</time></trkpt><trkpt lat="39.1024147147243" lon="16.247883252845607"><ele>177.0</ele><time>2026-05-01T13:32:03.999Z</time></trkpt><trkpt lat="39.1025323297836" lon="16.247828050678127"><ele>178.0</ele><time>2026-05-01T13:32:04.999Z</time></trkpt><trkpt lat="39.1026511905689" lon="16.247769981675006"><ele>179.5</ele><time>2026-05-01T13:32:05.999Z</time></trkpt><trkpt lat="39.10276729945035" lon="16.247715528389527"><ele>181.0</ele><time>2026-05-01T13:32:06.999Z</time></trkpt><trkpt lat="39.10288637506944" lon="16.247660533116477"><ele>182.5</ele><time>2026-05-01T13:32:07.999Z</time></trkpt><trkpt lat="39.10300694578254" lon="16.247605405922993"><ele>184.0</ele><time>2026-05-01T13:32:08.999Z</time></trkpt><trkpt lat="39.10312676474091" lon="16.247555580585274"><ele>184.0</ele><time>2026-05-01T13:32:09.999Z</time></trkpt><trkpt lat="39.103245789741194" lon="16.24750652879028"><ele>184.0</ele><time>2026-05-01T13:32:10.999Z</time></trkpt><trkpt lat="39.1033501048951" lon="16.24745992158882"><ele>184.0</ele><time>2026-05-01T13:32:11.999Z</time></trkpt><trkpt lat="39.10344734852442" lon="16.2474258653689"><ele>184.0</ele><time>2026-05-01T13:32:12.999Z</time></trkpt><trkpt lat="39.10353550088243" lon="16.2474107343057"><ele>184.0</ele><time>2026-05-01T13:32:13.999Z</time></trkpt><trkpt lat="39.10360343312037" lon="16.247373691194124"><ele>185.79999999999998</ele><time>2026-05-01T13:32:14.999Z</time></trkpt><trkpt lat="39.10369025630322" lon="16.24745176708655"><ele>187.6</ele><time>2026-05-01T13:32:15.999Z</time></trkpt><trkpt lat="39.10376534677389" lon="16.24749939994572"><ele>189.4</ele><time>2026-05-01T13:32:16.999Z</time></trkpt><trkpt lat="39.10383436453138" lon="16.247567278179805"><ele>191.2</ele><time>2026-05-01T13:32:17.999Z</time></trkpt><trkpt lat="39.1038991100431" lon="16.247655549206986"><ele>193.0</ele><time>2026-05-01T13:32:18.999Z</time></trkpt><trkpt lat="39.103954529437814" lon="16.247759261231305"><ele>193.0</ele><time>2026-05-01T13:32:19.999Z</time></trkpt><trkpt lat="39.10400337985174" lon="16.247881260029953"><ele>193.0</ele><time>2026-05-01T13:32:21Z</time></trkpt><trkpt lat="39.10404812745913" lon="16.248019072351966"><ele>193.0</ele><time>2026-05-01T13:32:22Z</time></trkpt><trkpt lat="39.10409299429414" lon="16.248157945236944"><ele>193.0</ele><time>2026-05-01T13:32:23Z</time></trkpt><trkpt lat="39.10413474144085" lon="16.24830831146605"><ele>194.5</ele><time>2026-05-01T13:32:24Z</time></trkpt><trkpt lat="39.10417938314176" lon="16.248467293808368"><ele>196.0</ele><time>2026-05-01T13:32:25Z</time></trkpt><trkpt lat="39.104227793016975" lon="16.248630542214514"><ele>197.5</ele><time>2026-05-01T13:32:26Z</time></trkpt><trkpt lat="39.10427553358538" lon="16.248793548601295"><ele>199.0</ele><time>2026-05-01T13:32:27Z</time></trkpt><trkpt lat="39.10432439796991" lon="16.248956540344196"><ele>197.25</ele><time>2026-05-01T13:32:28Z</time></trkpt><trkpt lat="39.10436858337569" lon="16.24911088266212"><ele>195.5</ele><time>2026-05-01T13:32:29Z</time></trkpt><trkpt lat="39.10441124249633" lon="16.24926213438624"><ele>193.75</ele><time>2026-05-01T13:32:30Z</time></trkpt><trkpt lat="39.1044563936266" lon="16.24941216975774"><ele>192.0</ele><time>2026-05-01T13:32:31Z</time></trkpt><trkpt lat="39.10449958820827" lon="16.249561176703462"><ele>192.0</ele><time>2026-05-01T13:32:32Z</time></trkpt><trkpt lat="39.10454486624927" lon="16.249704166089074"><ele>192.0</ele><time>2026-05-01T13:32:33Z</time></trkpt><trkpt lat="39.10459566006698" lon="16.249846207058226"><ele>192.0</ele><time>2026-05-01T13:32:34Z</time></trkpt><trkpt lat="39.104654626013975" lon="16.24998119171604"><ele>192.0</ele><time>2026-05-01T13:32:35Z</time></trkpt><trkpt lat="39.104720890994884" lon="16.25011080984736"><ele>190.5</ele><time>2026-05-01T13:32:36Z</time></trkpt><trkpt lat="39.10478210134749" lon="16.25025095950756"><ele>189.0</ele><time>2026-05-01T13:32:37Z</time></trkpt><trkpt lat="39.10486414471071" lon="16.25037421803452"><ele>187.5</ele><time>2026-05-01T13:32:38Z</time></trkpt><trkpt lat="39.10496414785314" lon="16.25047368645163"><ele>186.0</ele><time>2026-05-01T13:32:39Z</time></trkpt><trkpt lat="39.10505852305014" lon="16.250578938336904"><ele>188.25</ele><time>2026-05-01T13:32:40Z</time></trkpt><trkpt lat="39.10515908533235" lon="16.250677102774677"><ele>190.5</ele><time>2026-05-01T13:32:41Z</time></trkpt><trkpt lat="39.10526429620727" lon="16.250766536755442"><ele>192.75</ele><time>2026-05-01T13:32:42Z</time></trkpt><trkpt lat="39.105370975115356" lon="16.250852606618867"><ele>195.0</ele><time>2026-05-01T13:32:43Z</time></trkpt><trkpt lat="39.10547953237436" lon="16.250944528635692"><ele>195.0</ele><time>2026-05-01T13:32:44Z</time></trkpt><trkpt lat="39.105591691999884" lon="16.251035144354983"><ele>195.0</ele><time>2026-05-01T13:32:45Z</time></trkpt><trkpt lat="39.10570605325343" lon="16.251126954231744"><ele>195.0</ele><time>2026-05-01T13:32:45.999Z</time></trkpt><trkpt lat="39.10581618059874" lon="16.251215586349936"><ele>195.0</ele><time>2026-05-01T13:32:46.999Z</time></trkpt><trkpt lat="39.105932026796246" lon="16.25130268330358"><ele>194.0</ele><time>2026-05-01T13:32:47.999Z</time></trkpt><trkpt lat="39.106049551956495" lon="16.251392192727806"><ele>193.0</ele><time>2026-05-01T13:32:48.999Z</time></trkpt><trkpt lat="39.10616329008386" lon="16.25148372470079"><ele>192.0</ele><time>2026-05-01T13:32:49.999Z</time></trkpt><trkpt lat="39.106273548518644" lon="16.25157279888366"><ele>191.0</ele><time>2026-05-01T13:32:50.999Z</time></trkpt><trkpt lat="39.10638379031146" lon="16.2516679162579"><ele>191.0</ele><time>2026-05-01T13:32:51.999Z</time></trkpt><trkpt lat="39.10648451755448" lon="16.251766204054103"><ele>191.0</ele><time>2026-05-01T13:32:52.999Z</time></trkpt><trkpt lat="39.10657847379803" lon="16.25187194602999"><ele>191.0</ele><time>2026-05-01T13:32:53.999Z</time></trkpt><trkpt lat="39.10666391532097" lon="16.25198198914517"><ele>191.0</ele><time>2026-05-01T13:32:54.999Z</time></trkpt><trkpt lat="39.106747450833865" lon="16.252096994256696"><ele>189.5</ele><time>2026-05-01T13:32:55.999Z</time></trkpt><trkpt lat="39.10682383736994" lon="16.252217308709255"><ele>188.0</ele><time>2026-05-01T13:32:56.999Z</time></trkpt><trkpt lat="39.10689552070628" lon="16.25233689620947"><ele>186.5</ele><time>2026-05-01T13:32:57.999Z</time></trkpt><trkpt lat="39.10696686808928" lon="16.252458919281516"><ele>185.0</ele><time>2026-05-01T13:32:58.999Z</time></trkpt><trkpt lat="39.10703398049637" lon="16.252579304996726"><ele>185.0</ele><time>2026-05-01T13:32:59.999Z</time></trkpt><trkpt lat="39.10710268822946" lon="16.252701921989267"><ele>185.0</ele><time>2026-05-01T13:33:00.999Z</time></trkpt><trkpt lat="39.107169967860536" lon="16.252817066764585"><ele>185.0</ele><time>2026-05-01T13:33:01.999Z</time></trkpt><trkpt lat="39.1072365147678" lon="16.25293901768049"><ele>185.0</ele><time>2026-05-01T13:33:02.999Z</time></trkpt><trkpt lat="39.107307170559" lon="16.253066583571158"><ele>184.5</ele><time>2026-05-01T13:33:03.999Z</time></trkpt><trkpt lat="39.10737675734917" lon="16.253196582630448"><ele>184.0</ele><time>2026-05-01T13:33:04.999Z</time></trkpt><trkpt lat="39.107447279700594" lon="16.25332108501755"><ele>183.5</ele><time>2026-05-01T13:33:05.999Z</time></trkpt><trkpt lat="39.10751377595248" lon="16.253437221828783"><ele>183.0</ele><time>2026-05-01T13:33:06.999Z</time></trkpt><trkpt lat="39.107562683128684" lon="16.253569559022672"><ele>183.0</ele><time>2026-05-01T13:33:07.999Z</time></trkpt><trkpt lat="39.10766408415117" lon="16.253623990834466"><ele>183.0</ele><time>2026-05-01T13:33:08.999Z</time></trkpt><trkpt lat="39.10775627455519" lon="16.253662377974088"><ele>183.0</ele><time>2026-05-01T13:33:09.999Z</time></trkpt><trkpt lat="39.10786081458946" lon="16.2536864677574"><ele>183.0</ele><time>2026-05-01T13:33:10.999Z</time></trkpt><trkpt lat="39.1079718374353" lon="16.25369696138917"><ele>183.0</ele><time>2026-05-01T13:33:11.999Z</time></trkpt><trkpt lat="39.10808432586347" lon="16.253699126528357"><ele>183.0</ele><time>2026-05-01T13:33:12.999Z</time></trkpt><trkpt lat="39.10819805971742" lon="16.25369899034042"><ele>183.0</ele><time>2026-05-01T13:33:13.999Z</time></trkpt><trkpt lat="39.10831246439223" lon="16.253702218475393"><ele>183.0</ele><time>2026-05-01T13:33:14.999Z</time></trkpt><trkpt lat="39.108427785924405" lon="16.25370683524672"><ele>183.0</ele><time>2026-05-01T13:33:15.999Z</time></trkpt><trkpt lat="39.10854131905553" lon="16.25370911694855"><ele>184.4</ele><time>2026-05-01T13:33:16.999Z</time></trkpt><trkpt lat="39.10865391175786" lon="16.253716471025335"><ele>185.8</ele><time>2026-05-01T13:33:17.999Z</time></trkpt><trkpt lat="39.108766252130174" lon="16.253718852922894"><ele>187.2</ele><time>2026-05-01T13:33:18.999Z</time></trkpt><trkpt lat="39.10887697377092" lon="16.253720959268954"><ele>188.6</ele><time>2026-05-01T13:33:19.999Z</time></trkpt><trkpt lat="39.10898409946841" lon="16.253731585469467"><ele>190.0</ele><time>2026-05-01T13:33:20.999Z</time></trkpt><trkpt lat="39.109090309119296" lon="16.253751783636257"><ele>191.6</ele><time>2026-05-01T13:33:21.999Z</time></trkpt><trkpt lat="39.109192754753906" lon="16.253787116464483"><ele>193.2</ele><time>2026-05-01T13:33:22.999Z</time></trkpt><trkpt lat="39.10929268757982" lon="16.253840993211462"><ele>194.8</ele><time>2026-05-01T13:33:23.999Z</time></trkpt><trkpt lat="39.10939244710672" lon="16.253904468998208"><ele>196.4</ele><time>2026-05-01T13:33:24.999Z</time></trkpt><trkpt lat="39.1094923238453" lon="16.253975050503048"><ele>198.0</ele><time>2026-05-01T13:33:25.999Z</time></trkpt><trkpt lat="39.10959186518109" lon="16.254049114664554"><ele>197.0</ele><time>2026-05-01T13:33:26.999Z</time></trkpt><trkpt lat="39.10969414915333" lon="16.254130812659444"><ele>196.0</ele><time>2026-05-01T13:33:27.999Z</time></trkpt><trkpt lat="39.10979641375804" lon="16.25421056266508"><ele>195.0</ele><time>2026-05-01T13:33:28.999Z</time></trkpt><trkpt lat="39.10989771302097" lon="16.254290261326457"><ele>194.0</ele><time>2026-05-01T13:33:29.999Z</time></trkpt><trkpt lat="39.110000352718174" lon="16.254372130984965"><ele>194.0</ele><time>2026-05-01T13:33:30.999Z</time></trkpt><trkpt lat="39.11010293370298" lon="16.25445257568531"><ele>194.0</ele><time>2026-05-01T13:33:31.999Z</time></trkpt><trkpt lat="39.1102061909468" lon="16.254536801492957"><ele>194.0</ele><time>2026-05-01T13:33:32.999Z</time></trkpt><trkpt lat="39.11030944784807" lon="16.254624081775344"><ele>194.0</ele><time>2026-05-01T13:33:33.999Z</time></trkpt><trkpt lat="39.11041384661396" lon="16.254717546617197"><ele>195.0</ele><time>2026-05-01T13:33:34.999Z</time></trkpt><trkpt lat="39.1105170000885" lon="16.254816965386784"><ele>196.0</ele><time>2026-05-01T13:33:35.999Z</time></trkpt><trkpt lat="39.11061832317155" lon="16.254920477147863"><ele>197.0</ele><time>2026-05-01T13:33:36.999Z</time></trkpt><trkpt lat="39.11072249599822" lon="16.255024505405334"><ele>198.0</ele><time>2026-05-01T13:33:37.999Z</time></trkpt><trkpt lat="39.11083169041898" lon="16.25512823754806"><ele>198.0</ele><time>2026-05-01T13:33:38.999Z</time></trkpt><trkpt lat="39.11094472070532" lon="16.255231640277096"><ele>198.0</ele><time>2026-05-01T13:33:39.999Z</time></trkpt><trkpt lat="39.11105398988474" lon="16.25534130809858"><ele>198.0</ele><time>2026-05-01T13:33:40.999Z</time></trkpt><trkpt lat="39.11116554567503" lon="16.255449725554566"><ele>198.0</ele><time>2026-05-01T13:33:41.999Z</time></trkpt><trkpt lat="39.111282905249865" lon="16.2555581231077"><ele>197.0</ele><time>2026-05-01T13:33:42.999Z</time></trkpt><trkpt lat="39.11138644283364" lon="16.25568565852484"><ele>196.0</ele><time>2026-05-01T13:33:43.999Z</time></trkpt><trkpt lat="39.11148858717074" lon="16.255784129186452"><ele>195.0</ele><time>2026-05-01T13:33:44.999Z</time></trkpt><trkpt lat="39.11158512512048" lon="16.25587635277215"><ele>194.0</ele><time>2026-05-01T13:33:45.999Z</time></trkpt><trkpt lat="39.111673617771665" lon="16.25596089060969"><ele>194.0</ele><time>2026-05-01T13:33:46.999Z</time></trkpt><trkpt lat="39.11176174734253" lon="16.256045917210642"><ele>194.0</ele><time>2026-05-01T13:33:47.999Z</time></trkpt><trkpt lat="39.111855589581765" lon="16.25612670804395"><ele>194.0</ele><time>2026-05-01T13:33:48.999Z</time></trkpt><trkpt lat="39.11194903325033" lon="16.25619131787422"><ele>194.0</ele><time>2026-05-01T13:33:49.999Z</time></trkpt><trkpt lat="39.112042417199774" lon="16.25624648545541"><ele>194.0</ele><time>2026-05-01T13:33:50.999Z</time></trkpt><trkpt lat="39.11215635999415" lon="16.25630866835197"><ele>194.0</ele><time>2026-05-01T13:33:52.999Z</time></trkpt><trkpt lat="39.11225210154434" lon="16.256350121845603"><ele>194.0</ele><time>2026-05-01T13:33:53.999Z</time></trkpt><trkpt lat="39.11234824348768" lon="16.256389171980214"><ele>194.0</ele><time>2026-05-01T13:33:54.999Z</time></trkpt><trkpt lat="39.11244216960679" lon="16.25642673859677"><ele>194.0</ele><time>2026-05-01T13:33:55.999Z</time></trkpt><trkpt lat="39.1125336020346" lon="16.25646225626589"><ele>194.0</ele><time>2026-05-01T13:33:56.999Z</time></trkpt><trkpt lat="39.112621798995825" lon="16.2564896240727"><ele>194.39999999999998</ele><time>2026-05-01T13:33:57.999Z</time></trkpt><trkpt lat="39.112704188279146" lon="16.256527132988552"><ele>194.8</ele><time>2026-05-01T13:33:58.999Z</time></trkpt><trkpt lat="39.11278629719843" lon="16.256559502080858"><ele>195.2</ele><time>2026-05-01T13:33:59.999Z</time></trkpt><trkpt lat="39.11286945306798" lon="16.25660591061616"><ele>195.60000000000002</ele><time>2026-05-01T13:34:00.999Z</time></trkpt><trkpt lat="39.11295513677964" lon="16.256656269148834"><ele>196.0</ele><time>2026-05-01T13:34:01.999Z</time></trkpt><trkpt lat="39.113037306303156" lon="16.256714434585064"><ele>196.0</ele><time>2026-05-01T13:34:02.999Z</time></trkpt><trkpt lat="39.11312097715178" lon="16.25677349070988"><ele>196.0</ele><time>2026-05-01T13:34:03.999Z</time></trkpt><trkpt lat="39.11320997212777" lon="16.256828360736613"><ele>196.0</ele><time>2026-05-01T13:34:04.999Z</time></trkpt><trkpt lat="39.11329355669579" lon="16.256882048351063"><ele>196.0</ele><time>2026-05-01T13:34:05.999Z</time></trkpt><trkpt lat="39.1133769827459" lon="16.256935375603323"><ele>196.0</ele><time>2026-05-01T13:34:06.999Z</time></trkpt><trkpt lat="39.11345788115385" lon="16.256994470240222"><ele>199.20000000000002</ele><time>2026-05-01T13:34:07.999Z</time></trkpt><trkpt lat="39.11354306657893" lon="16.25705295167601"><ele>202.4</ele><time>2026-05-01T13:34:08.999Z</time></trkpt><trkpt lat="39.11363129530413" lon="16.257113347464145"><ele>205.6</ele><time>2026-05-01T13:34:09.999Z</time></trkpt><trkpt lat="39.11372237579784" lon="16.257171960718104"><ele>208.8</ele><time>2026-05-01T13:34:10.999Z</time></trkpt><trkpt lat="39.11381424545018" lon="16.257224789665727"><ele>212.0</ele><time>2026-05-01T13:34:11.999Z</time></trkpt><trkpt lat="39.11390552295031" lon="16.257275047715154"><ele>213.0</ele><time>2026-05-01T13:34:12.999Z</time></trkpt><trkpt lat="39.1139999370113" lon="16.257331186800663"><ele>214.0</ele><time>2026-05-01T13:34:13.999Z</time></trkpt><trkpt lat="39.11409645733973" lon="16.257391397390062"><ele>215.0</ele><time>2026-05-01T13:34:14.999Z</time></trkpt><trkpt lat="39.114191338053026" lon="16.25745682585775"><ele>216.0</ele><time>2026-05-01T13:34:15.999Z</time></trkpt><trkpt lat="39.114288417894436" lon="16.257515614213705"><ele>217.0</ele><time>2026-05-01T13:34:16.999Z</time></trkpt><trkpt lat="39.11438411683072" lon="16.257579056547176"><ele>217.0</ele><time>2026-05-01T13:34:17.999Z</time></trkpt><trkpt lat="39.11448061264351" lon="16.25765148559576"><ele>217.0</ele><time>2026-05-01T13:34:18.999Z</time></trkpt><trkpt lat="39.1145752192991" lon="16.2577303671122"><ele>217.0</ele><time>2026-05-01T13:34:19.999Z</time></trkpt><trkpt lat="39.114669157195635" lon="16.257819575503778"><ele>217.0</ele><time>2026-05-01T13:34:20.999Z</time></trkpt><trkpt lat="39.11476434436952" lon="16.257915880320166"><ele>217.0</ele><time>2026-05-01T13:34:21.999Z</time></trkpt><trkpt lat="39.11486635388921" lon="16.25801276378527"><ele>217.0</ele><time>2026-05-01T13:34:22.999Z</time></trkpt><trkpt lat="39.1149664737736" lon="16.258106104920945"><ele>217.0</ele><time>2026-05-01T13:34:23.999Z</time></trkpt><trkpt lat="39.11506147148037" lon="16.258221407604637"><ele>217.0</ele><time>2026-05-01T13:34:24.999Z</time></trkpt><trkpt lat="39.11517700566834" lon="16.25830186906952"><ele>217.2</ele><time>2026-05-01T13:34:25.999Z</time></trkpt><trkpt lat="39.11527512078753" lon="16.258400022944667"><ele>217.39999999999998</ele><time>2026-05-01T13:34:26.999Z</time></trkpt><trkpt lat="39.115367764083" lon="16.258488305305526"><ele>217.60000000000002</ele><time>2026-05-01T13:34:27.999Z</time></trkpt><trkpt lat="39.115451608545825" lon="16.25857167982746"><ele>217.8</ele><time>2026-05-01T13:34:28.999Z</time></trkpt><trkpt lat="39.11553384569367" lon="16.25863891027623"><ele>218.0</ele><time>2026-05-01T13:34:29.999Z</time></trkpt><trkpt lat="39.11561866367947" lon="16.258692322752353"><ele>218.0</ele><time>2026-05-01T13:34:30.999Z</time></trkpt><trkpt lat="39.11570925049304" lon="16.25872523122895"><ele>218.0</ele><time>2026-05-01T13:34:31.999Z</time></trkpt><trkpt lat="39.115799950009766" lon="16.258729423153753"><ele>218.0</ele><time>2026-05-01T13:34:32.999Z</time></trkpt><trkpt lat="39.11589012563462" lon="16.258712397930775"><ele>218.0</ele><time>2026-05-01T13:34:33.999Z</time></trkpt><trkpt lat="39.115987657344235" lon="16.258679050573225"><ele>218.0</ele><time>2026-05-01T13:34:34.999Z</time></trkpt><trkpt lat="39.116086540347375" lon="16.258632994291318"><ele>217.2</ele><time>2026-05-01T13:34:35.999Z</time></trkpt><trkpt lat="39.11618773033017" lon="16.25857886434311"><ele>216.4</ele><time>2026-05-01T13:34:36.999Z</time></trkpt><trkpt lat="39.11629155150448" lon="16.258528168999423"><ele>215.59999999999997</ele><time>2026-05-01T13:34:37.999Z</time></trkpt><trkpt lat="39.11639628557598" lon="16.258481465132654"><ele>214.79999999999998</ele><time>2026-05-01T13:34:38.999Z</time></trkpt><trkpt lat="39.11649515854425" lon="16.258438028333682"><ele>214.0</ele><time>2026-05-01T13:34:39.999Z</time></trkpt><trkpt lat="39.11658977736068" lon="16.25839386283885"><ele>214.0</ele><time>2026-05-01T13:34:40.999Z</time></trkpt><trkpt lat="39.116682216314715" lon="16.25835225794606"><ele>213.99999999999997</ele><time>2026-05-01T13:34:41.999Z</time></trkpt><trkpt lat="39.11677445390423" lon="16.258316444610536"><ele>213.99999999999997</ele><time>2026-05-01T13:34:42.999Z</time></trkpt><trkpt lat="39.116867486569056" lon="16.258293851381175"><ele>214.0</ele><time>2026-05-01T13:34:43.999Z</time></trkpt><trkpt lat="39.11697125047786" lon="16.258291664405103"><ele>214.0</ele><time>2026-05-01T13:34:44.999Z</time></trkpt><trkpt lat="39.11707912216709" lon="16.25831134451349"><ele>214.0</ele><time>2026-05-01T13:34:45.999Z</time></trkpt><trkpt lat="39.11718443901136" lon="16.258349160217996"><ele>213.99999999999997</ele><time>2026-05-01T13:34:46.999Z</time></trkpt><trkpt lat="39.11728741946806" lon="16.258397431413233"><ele>213.99999999999997</ele><time>2026-05-01T13:34:47.999Z</time></trkpt><trkpt lat="39.117382024188366" lon="16.258452998801392"><ele>214.0</ele><time>2026-05-01T13:34:48.999Z</time></trkpt><trkpt lat="39.1174724621754" lon="16.258514281707136"><ele>214.0</ele><time>2026-05-01T13:34:49.999Z</time></trkpt><trkpt lat="39.11755527958439" lon="16.258589606972613"><ele>214.2</ele><time>2026-05-01T13:34:50.999Z</time></trkpt><trkpt lat="39.117626399936086" lon="16.258682054396093"><ele>214.39999999999998</ele><time>2026-05-01T13:34:51.999Z</time></trkpt><trkpt lat="39.11767526362479" lon="16.25879579071382"><ele>214.6</ele><time>2026-05-01T13:34:52.999Z</time></trkpt><trkpt lat="39.11772541101014" lon="16.258906970775794"><ele>214.8</ele><time>2026-05-01T13:34:53.999Z</time></trkpt><trkpt lat="39.11777499924426" lon="16.259019948208923"><ele>215.0</ele><time>2026-05-01T13:34:54.999Z</time></trkpt><trkpt lat="39.117824734615176" lon="16.259131550134555"><ele>212.2</ele><time>2026-05-01T13:34:55.999Z</time></trkpt><trkpt lat="39.11787807737896" lon="16.259242962397323"><ele>209.4</ele><time>2026-05-01T13:34:56.999Z</time></trkpt><trkpt lat="39.117929879311866" lon="16.25935598673672"><ele>206.60000000000002</ele><time>2026-05-01T13:34:57.999Z</time></trkpt><trkpt lat="39.11798534294283" lon="16.25946784733233"><ele>203.8</ele><time>2026-05-01T13:34:58.999Z</time></trkpt><trkpt lat="39.1180424166311" lon="16.259578734942547"><ele>201.0</ele><time>2026-05-01T13:34:59.999Z</time></trkpt><trkpt lat="39.11810000919159" lon="16.25968792622604"><ele>202.4</ele><time>2026-05-01T13:35:00.999Z</time></trkpt><trkpt lat="39.11815703057643" lon="16.259797027907783"><ele>203.8</ele><time>2026-05-01T13:35:01.999Z</time></trkpt><trkpt lat="39.11821059038451" lon="16.259899281268673"><ele>205.20000000000002</ele><time>2026-05-01T13:35:02.999Z</time></trkpt><trkpt lat="39.11826712804986" lon="16.26000735729941"><ele>206.60000000000002</ele><time>2026-05-01T13:35:03.999Z</time></trkpt><trkpt lat="39.118322995514056" lon="16.260108637194154"><ele>208.0</ele><time>2026-05-01T13:35:04.999Z</time></trkpt><trkpt lat="39.118380792450886" lon="16.260211159246605"><ele>208.0</ele><time>2026-05-01T13:35:05.999Z</time></trkpt><trkpt lat="39.11843578364752" lon="16.260313192602155"><ele>208.0</ele><time>2026-05-01T13:35:06.999Z</time></trkpt><trkpt lat="39.11848776170919" lon="16.260414047965327"><ele>208.0</ele><time>2026-05-01T13:35:07.999Z</time></trkpt><trkpt lat="39.11854217712044" lon="16.260516142675417"><ele>208.0</ele><time>2026-05-01T13:35:08.999Z</time></trkpt><trkpt lat="39.11860238916183" lon="16.26061311169506"><ele>208.0</ele><time>2026-05-01T13:35:09.999Z</time></trkpt><trkpt lat="39.118672006934624" lon="16.260702452452875"><ele>209.60000000000002</ele><time>2026-05-01T13:35:10.999Z</time></trkpt><trkpt lat="39.11874811305017" lon="16.26078151581845"><ele>211.20000000000002</ele><time>2026-05-01T13:35:11.999Z</time></trkpt><trkpt lat="39.11883097611127" lon="16.260851054620428"><ele>212.8</ele><time>2026-05-01T13:35:12.999Z</time></trkpt><trkpt lat="39.11891796603792" lon="16.260913444796596"><ele>214.4</ele><time>2026-05-01T13:35:13.999Z</time></trkpt><trkpt lat="39.11901503540515" lon="16.26097034522062"><ele>216.0</ele><time>2026-05-01T13:35:14.999Z</time></trkpt><trkpt lat="39.119112264080144" lon="16.261029471716146"><ele>216.0</ele><time>2026-05-01T13:35:15.999Z</time></trkpt><trkpt lat="39.11921373514171" lon="16.261098801904907"><ele>216.0</ele><time>2026-05-01T13:35:16.999Z</time></trkpt><trkpt lat="39.1193097012261" lon="16.261180801056472"><ele>216.0</ele><time>2026-05-01T13:35:17.999Z</time></trkpt><trkpt lat="39.11940238025606" lon="16.261272134112318"><ele>216.0</ele><time>2026-05-01T13:35:18.999Z</time></trkpt><trkpt lat="39.119488787650326" lon="16.26137389477728"><ele>212.20000000000002</ele><time>2026-05-01T13:35:19.999Z</time></trkpt><trkpt lat="39.119562100537756" lon="16.26148105916332"><ele>208.40000000000003</ele><time>2026-05-01T13:35:20.999Z</time></trkpt><trkpt lat="39.1196270532544" lon="16.26157472029028"><ele>204.6</ele><time>2026-05-01T13:35:21.999Z</time></trkpt><trkpt lat="39.119687169139524" lon="16.26166378123526"><ele>200.8</ele><time>2026-05-01T13:35:22.999Z</time></trkpt><trkpt lat="39.1197454810792" lon="16.261744412494874"><ele>197.0</ele><time>2026-05-01T13:35:23.999Z</time></trkpt><trkpt lat="39.11979003128457" lon="16.26181261210522"><ele>197.00000000000003</ele><time>2026-05-01T13:35:24.999Z</time></trkpt><trkpt lat="39.119837135163195" lon="16.26188262223334"><ele>197.0</ele><time>2026-05-01T13:35:25.999Z</time></trkpt><trkpt lat="39.11989919830725" lon="16.26196389586062"><ele>197.0</ele><time>2026-05-01T13:35:27.999Z</time></trkpt><trkpt lat="39.11994721877436" lon="16.26201746869864"><ele>197.0</ele><time>2026-05-01T13:35:30.999Z</time></trkpt><trkpt lat="39.12002730726929" lon="16.262060224617343"><ele>197.00000000000003</ele><time>2026-05-01T13:35:54.999Z</time></trkpt><trkpt lat="39.12012377588162" lon="16.26213698123931"><ele>197.0</ele><time>2026-05-01T13:35:56.999Z</time></trkpt><trkpt lat="39.120176928511746" lon="16.26218094497936"><ele>197.33333333333334</ele><time>2026-05-01T13:35:57.999Z</time></trkpt><trkpt lat="39.12023642005429" lon="16.262225198691052"><ele>197.66666666666669</ele><time>2026-05-01T13:35:58.999Z</time></trkpt><trkpt lat="39.120292357695206" lon="16.262279180338247"><ele>198.0</ele><time>2026-05-01T13:35:59.999Z</time></trkpt><trkpt lat="39.12034749810538" lon="16.262350029063263"><ele>198.33333333333331</ele><time>2026-05-01T13:36:00.999Z</time></trkpt><trkpt lat="39.12039173595729" lon="16.26242374648024"><ele>198.66666666666666</ele><time>2026-05-01T13:36:01.999Z</time></trkpt><trkpt lat="39.12042939926564" lon="16.26251475012391"><ele>199.0</ele><time>2026-05-01T13:36:02.999Z</time></trkpt><trkpt lat="39.12041975717166" lon="16.26263414757145"><ele>199.0</ele><time>2026-05-01T13:36:03.999Z</time></trkpt><trkpt lat="39.12041015840156" lon="16.262741422697534"><ele>199.0</ele><time>2026-05-01T13:36:04.999Z</time></trkpt><trkpt lat="39.120407780295324" lon="16.262859521769368"><ele>199.0</ele><time>2026-05-01T13:36:05.999Z</time></trkpt><trkpt lat="39.120384229926074" lon="16.262983754649717"><ele>199.0</ele><time>2026-05-01T13:36:06.999Z</time></trkpt><trkpt lat="39.120368145616766" lon="16.263114919268915"><ele>199.0</ele><time>2026-05-01T13:36:07.999Z</time></trkpt><trkpt lat="39.12035232296556" lon="16.263254818665597"><ele>198.0</ele><time>2026-05-01T13:36:08.999Z</time></trkpt><trkpt lat="39.12033435728983" lon="16.263397271544907"><ele>197.0</ele><time>2026-05-01T13:36:09.999Z</time></trkpt><trkpt lat="39.120317070708204" lon="16.263544568290808"><ele>196.0</ele><time>2026-05-01T13:36:10.999Z</time></trkpt><trkpt lat="39.12030277502121" lon="16.263690966580373"><ele>195.0</ele><time>2026-05-01T13:36:11.999Z</time></trkpt><trkpt lat="39.120273955047395" lon="16.263833550686684"><ele>196.4</ele><time>2026-05-01T13:36:12.999Z</time></trkpt><trkpt lat="39.120258704300845" lon="16.26397515946665"><ele>197.8</ele><time>2026-05-01T13:36:13.999Z</time></trkpt><trkpt lat="39.12024062756224" lon="16.264112459709146"><ele>199.2</ele><time>2026-05-01T13:36:14.999Z</time></trkpt><trkpt lat="39.1202196337171" lon="16.26425295283697"><ele>200.6</ele><time>2026-05-01T13:36:15.999Z</time></trkpt><trkpt lat="39.12019899468908" lon="16.26439411590975"><ele>202.0</ele><time>2026-05-01T13:36:16.999Z</time></trkpt><trkpt lat="39.120186368906765" lon="16.26454491559028"><ele>202.0</ele><time>2026-05-01T13:36:17.999Z</time></trkpt><trkpt lat="39.12018803061844" lon="16.264691193036985"><ele>202.0</ele><time>2026-05-01T13:36:18.999Z</time></trkpt><trkpt lat="39.12019961240225" lon="16.26484553899763"><ele>202.0</ele><time>2026-05-01T13:36:19.999Z</time></trkpt><trkpt lat="39.120218432576976" lon="16.2650001049064"><ele>202.0</ele><time>2026-05-01T13:36:20.999Z</time></trkpt><trkpt lat="39.120233930707236" lon="16.26515032870331"><ele>206.25</ele><time>2026-05-01T13:36:21.999Z</time></trkpt><trkpt lat="39.120256089358215" lon="16.265299711385502"><ele>210.5</ele><time>2026-05-01T13:36:22.999Z</time></trkpt><trkpt lat="39.120273196376395" lon="16.265448908150105"><ele>214.75</ele><time>2026-05-01T13:36:23.999Z</time></trkpt><trkpt lat="39.12029406863407" lon="16.26559237577801"><ele>219.0</ele><time>2026-05-01T13:36:24.999Z</time></trkpt><trkpt lat="39.12031240675833" lon="16.265725020202062"><ele>219.5</ele><time>2026-05-01T13:36:25.999Z</time></trkpt><trkpt lat="39.12033327335532" lon="16.265845173166685"><ele>220.0</ele><time>2026-05-01T13:36:26.999Z</time></trkpt><trkpt lat="39.120359361177876" lon="16.265954108667962"><ele>220.5</ele><time>2026-05-01T13:36:27.999Z</time></trkpt><trkpt lat="39.12038253633477" lon="16.26605455302492"><ele>221.0</ele><time>2026-05-01T13:36:28.999Z</time></trkpt><trkpt lat="39.12040147456231" lon="16.266150558234475"><ele>221.5</ele><time>2026-05-01T13:36:29.999Z</time></trkpt><trkpt lat="39.12042096421086" lon="16.26623390758112"><ele>222.0</ele><time>2026-05-01T13:36:30.999Z</time></trkpt><trkpt lat="39.12044481934999" lon="16.266314878270197"><ele>222.0</ele><time>2026-05-01T13:36:31.999Z</time></trkpt><trkpt lat="39.12047093098684" lon="16.266393376169347"><ele>222.0</ele><time>2026-05-01T13:36:32.999Z</time></trkpt><trkpt lat="39.12049974414414" lon="16.266472544232652"><ele>222.0</ele><time>2026-05-01T13:36:33.999Z</time></trkpt><trkpt lat="39.12053745746986" lon="16.266554980057848"><ele>222.0</ele><time>2026-05-01T13:36:34.999Z</time></trkpt><trkpt lat="39.12058178976698" lon="16.266630045747203"><ele>222.0</ele><time>2026-05-01T13:36:35.999Z</time></trkpt><trkpt lat="39.120633343752516" lon="16.266707983814104"><ele>222.0</ele><time>2026-05-01T13:36:36.999Z</time></trkpt><trkpt lat="39.12069113671155" lon="16.266788325853884"><ele>222.0</ele><time>2026-05-01T13:36:37.999Z</time></trkpt><trkpt lat="39.120747670173245" lon="16.266870266089718"><ele>220.33333333333334</ele><time>2026-05-01T13:36:38.999Z</time></trkpt><trkpt lat="39.12080429491742" lon="16.266951653641282"><ele>218.66666666666669</ele><time>2026-05-01T13:36:39.999Z</time></trkpt><trkpt lat="39.120865613851045" lon="16.267026786052707"><ele>217.0</ele><time>2026-05-01T13:36:40.999Z</time></trkpt><trkpt lat="39.1209310593788" lon="16.267104820438533"><ele>215.33333333333334</ele><time>2026-05-01T13:36:41.999Z</time></trkpt><trkpt lat="39.12100797706524" lon="16.267161023090114"><ele>213.66666666666669</ele><time>2026-05-01T13:36:42.999Z</time></trkpt><trkpt lat="39.12108588453973" lon="16.26720915931923"><ele>212.0</ele><time>2026-05-01T13:36:43.999Z</time></trkpt><trkpt lat="39.12116567352936" lon="16.267251231522184"><ele>213.16666666666669</ele><time>2026-05-01T13:36:44.999Z</time></trkpt><trkpt lat="39.121241678632195" lon="16.267289136548758"><ele>214.33333333333334</ele><time>2026-05-01T13:36:45.999Z</time></trkpt><trkpt lat="39.12131552118213" lon="16.2673305522908"><ele>215.5</ele><time>2026-05-01T13:36:46.999Z</time></trkpt><trkpt lat="39.121386384071286" lon="16.267378153070432"><ele>216.66666666666669</ele><time>2026-05-01T13:36:47.999Z</time></trkpt><trkpt lat="39.121452777390985" lon="16.26743486419563"><ele>217.83333333333334</ele><time>2026-05-01T13:36:48.999Z</time></trkpt><trkpt lat="39.12151425600315" lon="16.267495320977375"><ele>219.0</ele><time>2026-05-01T13:36:49.999Z</time></trkpt><trkpt lat="39.121574295784384" lon="16.267559030848453"><ele>219.0</ele><time>2026-05-01T13:36:50.999Z</time></trkpt><trkpt lat="39.12163079179329" lon="16.267622372688972"><ele>219.0</ele><time>2026-05-01T13:36:51.999Z</time></trkpt><trkpt lat="39.12167997721037" lon="16.267676655795718"><ele>219.0</ele><time>2026-05-01T13:36:52.999Z</time></trkpt><trkpt lat="39.121748724752194" lon="16.26775463405014"><ele>219.0</ele><time>2026-05-01T13:36:54.999Z</time></trkpt><trkpt lat="39.12180078601025" lon="16.267839355280703"><ele>219.0</ele><time>2026-05-01T13:37:22.999Z</time></trkpt><trkpt lat="39.12183924642205" lon="16.26792386559789"><ele>219.0</ele><time>2026-05-01T13:37:24.999Z</time></trkpt><trkpt lat="39.12188185732973" lon="16.26804258025727"><ele>223.79999999999998</ele><time>2026-05-01T13:37:26.999Z</time></trkpt><trkpt lat="39.121924013229446" lon="16.268171451838036"><ele>228.59999999999997</ele><time>2026-05-01T13:37:28.999Z</time></trkpt><trkpt lat="39.12195821692636" lon="16.26830174562006"><ele>233.4</ele><time>2026-05-01T13:37:30.999Z</time></trkpt><trkpt lat="39.122003014456816" lon="16.268428225105485"><ele>238.2</ele><time>2026-05-01T13:37:32.999Z</time></trkpt><trkpt lat="39.12205858796883" lon="16.268559644614548"><ele>243.0</ele><time>2026-05-01T13:37:34.999Z</time></trkpt><trkpt lat="39.12211577539577" lon="16.26869873930512"><ele>243.0</ele><time>2026-05-01T13:37:36.999Z</time></trkpt><trkpt lat="39.12217767960928" lon="16.268830227001335"><ele>243.0</ele><time>2026-05-01T13:37:38.999Z</time></trkpt><trkpt lat="39.12221050415142" lon="16.268901941452615"><ele>243.0</ele><time>2026-05-01T13:37:39.999Z</time></trkpt><trkpt lat="39.122280198380864" lon="16.269023206759513"><ele>243.0</ele><time>2026-05-01T13:37:41.999Z</time></trkpt><trkpt lat="39.12235390335472" lon="16.26908727917058"><ele>243.0</ele><time>2026-05-01T13:37:43.999Z</time></trkpt><trkpt lat="39.12243074423675" lon="16.269126655366815"><ele>241.5</ele><time>2026-05-01T13:37:46.999Z</time></trkpt><trkpt lat="39.1225221325412" lon="16.26915195880643"><ele>240.0</ele><time>2026-05-01T13:37:49.999Z</time></trkpt><trkpt lat="39.12259320170495" lon="16.269177028963032"><ele>238.5</ele><time>2026-05-01T13:37:51.999Z</time></trkpt><trkpt lat="39.12266575869482" lon="16.269189097825684"><ele>237.0</ele><time>2026-05-01T13:37:53.999Z</time></trkpt><trkpt lat="39.122737252281844" lon="16.26921797007559"><ele>235.5</ele><time>2026-05-01T13:37:56.999Z</time></trkpt><trkpt lat="39.12280311326426" lon="16.269233183059526"><ele>234.0</ele><time>2026-05-01T13:37:58.999Z</time></trkpt><trkpt lat="39.12287378429184" lon="16.26926179908488"><ele>234.0</ele><time>2026-05-01T13:38:00.999Z</time></trkpt><trkpt lat="39.122940954214755" lon="16.26928139703711"><ele>234.00000000000003</ele><time>2026-05-01T13:38:02.999Z</time></trkpt><trkpt lat="39.123011370900166" lon="16.269299952131"><ele>234.0</ele><time>2026-05-01T13:38:04.999Z</time></trkpt><trkpt lat="39.12308424943149" lon="16.269317686460287"><ele>234.0</ele><time>2026-05-01T13:38:06.999Z</time></trkpt><trkpt lat="39.12315994702051" lon="16.26934280812741"><ele>234.00000000000003</ele><time>2026-05-01T13:38:08.999Z</time></trkpt><trkpt lat="39.12323230829566" lon="16.26936180458986"><ele>234.0</ele><time>2026-05-01T13:38:10.999Z</time></trkpt><trkpt lat="39.123306816841904" lon="16.269382778016023"><ele>234.0</ele><time>2026-05-01T13:38:12.999Z</time></trkpt><trkpt lat="39.123379544213996" lon="16.269345087252333"><ele>234.83333333333334</ele><time>2026-05-01T13:38:14.999Z</time></trkpt><trkpt lat="39.123451315379654" lon="16.26932328158198"><ele>235.66666666666669</ele><time>2026-05-01T13:38:16.999Z</time></trkpt><trkpt lat="39.12353311953537" lon="16.26930134368067"><ele>236.5</ele><time>2026-05-01T13:38:18.999Z</time></trkpt><trkpt lat="39.12361484359843" lon="16.269275150261556"><ele>237.33333333333334</ele><time>2026-05-01T13:38:20.999Z</time></trkpt><trkpt lat="39.12369635545742" lon="16.269259223626122"><ele>238.16666666666669</ele><time>2026-05-01T13:38:22.999Z</time></trkpt><trkpt lat="39.12378834438228" lon="16.269257479558505"><ele>239.0</ele><time>2026-05-01T13:38:24.999Z</time></trkpt><trkpt lat="39.12386879514667" lon="16.269270572695163"><ele>239.00000000000003</ele><time>2026-05-01T13:38:26.999Z</time></trkpt><trkpt lat="39.12396456125198" lon="16.269350987681804"><ele>239.0</ele><time>2026-05-01T13:38:28.999Z</time></trkpt><trkpt lat="39.12402559873829" lon="16.26937669999211"><ele>239.0</ele><time>2026-05-01T13:38:29.999Z</time></trkpt><trkpt lat="39.12407980917519" lon="16.269423089928253"><ele>239.0</ele><time>2026-05-01T13:38:30.999Z</time></trkpt><trkpt lat="39.12415785712139" lon="16.2695084912944"><ele>239.00000000000003</ele><time>2026-05-01T13:38:32.999Z</time></trkpt><trkpt lat="39.124224045293424" lon="16.269567461748778"><ele>239.0</ele><time>2026-05-01T13:38:34.999Z</time></trkpt><trkpt lat="39.12427855262824" lon="16.269631877212547"><ele>237.0</ele><time>2026-05-01T13:38:37.999Z</time></trkpt><trkpt lat="39.1243673554396" lon="16.26969109553657"><ele>234.99999999999997</ele><time>2026-05-01T13:39:29.999Z</time></trkpt><trkpt lat="39.12447808822717" lon="16.269776350438175"><ele>232.99999999999997</ele><time>2026-05-01T13:39:31.999Z</time></trkpt><trkpt lat="39.124546067243976" lon="16.269830103006395"><ele>231.0</ele><time>2026-05-01T13:39:32.999Z</time></trkpt><trkpt lat="39.124611277753026" lon="16.269891449914013"><ele>229.0</ele><time>2026-05-01T13:39:33.999Z</time></trkpt><trkpt lat="39.124665581301656" lon="16.269976087626805"><ele>229.83333333333331</ele><time>2026-05-01T13:39:34.999Z</time></trkpt><trkpt lat="39.12470989052172" lon="16.27007378161475"><ele>230.66666666666666</ele><time>2026-05-01T13:39:35.999Z</time></trkpt><trkpt lat="39.12473513087438" lon="16.270170393479113"><ele>231.5</ele><time>2026-05-01T13:39:36.999Z</time></trkpt><trkpt lat="39.12475945813765" lon="16.27028654531963"><ele>232.33333333333331</ele><time>2026-05-01T13:39:37.999Z</time></trkpt><trkpt lat="39.1247880525897" lon="16.27037925043788"><ele>233.16666666666666</ele><time>2026-05-01T13:39:38.999Z</time></trkpt><trkpt lat="39.12484071856797" lon="16.270450504904918"><ele>234.0</ele><time>2026-05-01T13:39:39.999Z</time></trkpt><trkpt lat="39.12491027380465" lon="16.270500061052566"><ele>234.0</ele><time>2026-05-01T13:39:40.999Z</time></trkpt><trkpt lat="39.12498713200266" lon="16.270533694466927"><ele>234.0</ele><time>2026-05-01T13:39:41.999Z</time></trkpt><trkpt lat="39.12506361069753" lon="16.27056749259802"><ele>234.0</ele><time>2026-05-01T13:39:42.999Z</time></trkpt><trkpt lat="39.125130317341956" lon="16.270611297051584"><ele>234.0</ele><time>2026-05-01T13:39:43.999Z</time></trkpt><trkpt lat="39.12518922204615" lon="16.270680460996555"><ele>234.0</ele><time>2026-05-01T13:39:44.999Z</time></trkpt><trkpt lat="39.12523091301862" lon="16.2707773604551"><ele>234.0</ele><time>2026-05-01T13:39:45.999Z</time></trkpt><trkpt lat="39.12524238925587" lon="16.270884336776227"><ele>239.5</ele><time>2026-05-01T13:39:46.999Z</time></trkpt><trkpt lat="39.1252878957599" lon="16.270971134940474"><ele>245.0</ele><time>2026-05-01T13:39:47.999Z</time></trkpt><trkpt lat="39.1253250202729" lon="16.27105911780142"><ele>250.5</ele><time>2026-05-01T13:39:48.999Z</time></trkpt><trkpt lat="39.125379482563766" lon="16.271125697116727"><ele>256.0</ele><time>2026-05-01T13:39:49.999Z</time></trkpt><trkpt lat="39.12545454062952" lon="16.27115355705223"><ele>261.5</ele><time>2026-05-01T13:39:50.999Z</time></trkpt><trkpt lat="39.1255303953373" lon="16.271147916869914"><ele>267.0</ele><time>2026-05-01T13:39:51.999Z</time></trkpt><trkpt lat="39.1256096498035" lon="16.271125448736388"><ele>267.0</ele><time>2026-05-01T13:39:52.999Z</time></trkpt><trkpt lat="39.12568198765763" lon="16.27110631155194"><ele>267.0</ele><time>2026-05-01T13:39:53.999Z</time></trkpt><trkpt lat="39.125759510251996" lon="16.271112966622397"><ele>267.0</ele><time>2026-05-01T13:39:54.999Z</time></trkpt><trkpt lat="39.12584080187304" lon="16.27110096984648"><ele>267.0</ele><time>2026-05-01T13:39:55.999Z</time></trkpt><trkpt lat="39.12592146902069" lon="16.271070967591367"><ele>267.0</ele><time>2026-05-01T13:39:56.999Z</time></trkpt><trkpt lat="39.12600490713236" lon="16.271064986886596"><ele>267.0</ele><time>2026-05-01T13:39:57.999Z</time></trkpt><trkpt lat="39.12609204665572" lon="16.2710530707967"><ele>264.6666666666667</ele><time>2026-05-01T13:39:58.999Z</time></trkpt><trkpt lat="39.12618159522065" lon="16.271050526483403"><ele>262.3333333333333</ele><time>2026-05-01T13:39:59.999Z</time></trkpt><trkpt lat="39.12627096060581" lon="16.27103332582127"><ele>260.0</ele><time>2026-05-01T13:40:00.999Z</time></trkpt><trkpt lat="39.12635872498532" lon="16.271049311485367"><ele>257.66666666666663</ele><time>2026-05-01T13:40:01.999Z</time></trkpt><trkpt lat="39.12644052414135" lon="16.27106026524883"><ele>255.33333333333331</ele><time>2026-05-01T13:40:02.999Z</time></trkpt><trkpt lat="39.126514490335744" lon="16.271094095421024"><ele>253.0</ele><time>2026-05-01T13:40:03.999Z</time></trkpt><trkpt lat="39.12657727444132" lon="16.271141934381752"><ele>252.49999999999997</ele><time>2026-05-01T13:40:04.999Z</time></trkpt><trkpt lat="39.12663670393508" lon="16.2712177646055"><ele>252.0</ele><time>2026-05-01T13:40:05.999Z</time></trkpt><trkpt lat="39.12667355291886" lon="16.271315322905483"><ele>251.5</ele><time>2026-05-01T13:40:06.999Z</time></trkpt><trkpt lat="39.126700598708624" lon="16.271413163335655"><ele>251.0</ele><time>2026-05-01T13:40:07.999Z</time></trkpt><trkpt lat="39.126727691251865" lon="16.27150539854311"><ele>250.49999999999997</ele><time>2026-05-01T13:40:08.999Z</time></trkpt><trkpt lat="39.126767629407674" lon="16.271601863757073"><ele>250.0</ele><time>2026-05-01T13:40:09.999Z</time></trkpt><trkpt lat="39.1268169187727" lon="16.271690662202126"><ele>255.49999999999997</ele><time>2026-05-01T13:40:10.999Z</time></trkpt><trkpt lat="39.12687371413724" lon="16.27177242796031"><ele>261.0</ele><time>2026-05-01T13:40:11.999Z</time></trkpt><trkpt lat="39.126927869431526" lon="16.271856312397514"><ele>266.5</ele><time>2026-05-01T13:40:12.999Z</time></trkpt><trkpt lat="39.12697774229906" lon="16.27193863985366"><ele>272.0</ele><time>2026-05-01T13:40:13.999Z</time></trkpt><trkpt lat="39.12702957399075" lon="16.272023793531833"><ele>277.5</ele><time>2026-05-01T13:40:14.999Z</time></trkpt><trkpt lat="39.12707384876448" lon="16.272114594559277"><ele>283.0</ele><time>2026-05-01T13:40:15.999Z</time></trkpt><trkpt lat="39.127117431615424" lon="16.272205843742185"><ele>281.8</ele><time>2026-05-01T13:40:16.999Z</time></trkpt><trkpt lat="39.1272053688849" lon="16.272387547509528"><ele>280.6</ele><time>2026-05-01T13:40:18.999Z</time></trkpt><trkpt lat="39.12724427458512" lon="16.272484045264214"><ele>279.4</ele><time>2026-05-01T13:40:19.999Z</time></trkpt><trkpt lat="39.127289215840094" lon="16.27257761836835"><ele>278.2</ele><time>2026-05-01T13:40:20.999Z</time></trkpt><trkpt lat="39.127356523693045" lon="16.27266474284998"><ele>277.0</ele><time>2026-05-01T13:40:21.999Z</time></trkpt><trkpt lat="39.12743479008186" lon="16.272729117268597"><ele>277.0</ele><time>2026-05-01T13:40:22.999Z</time></trkpt><trkpt lat="39.127522339655656" lon="16.272765243126365"><ele>277.0</ele><time>2026-05-01T13:40:23.999Z</time></trkpt><trkpt lat="39.12761655225129" lon="16.272763785672442"><ele>277.0</ele><time>2026-05-01T13:40:24.999Z</time></trkpt><trkpt lat="39.12770719859675" lon="16.2727387116505"><ele>277.0</ele><time>2026-05-01T13:40:25.999Z</time></trkpt><trkpt lat="39.12780095356599" lon="16.272708590000782"><ele>277.0</ele><time>2026-05-01T13:40:26.999Z</time></trkpt><trkpt lat="39.12789603326867" lon="16.272687991287423"><ele>277.0</ele><time>2026-05-01T13:40:27.999Z</time></trkpt><trkpt lat="39.12799427166664" lon="16.272670204525216"><ele>277.0</ele><time>2026-05-01T13:40:28.999Z</time></trkpt><trkpt lat="39.12808812980045" lon="16.272650430115334"><ele>277.0</ele><time>2026-05-01T13:40:29.999Z</time></trkpt><trkpt lat="39.1281643816472" lon="16.27263925647139"><ele>277.0</ele><time>2026-05-01T13:40:30.999Z</time></trkpt><trkpt lat="39.12823700578642" lon="16.2726504491633"><ele>277.0</ele><time>2026-05-01T13:40:31.999Z</time></trkpt><trkpt lat="39.128298325015116" lon="16.272706613930453"><ele>277.0</ele><time>2026-05-01T13:40:32.999Z</time></trkpt><trkpt lat="39.1283422231284" lon="16.272797681068877"><ele>275.8</ele><time>2026-05-01T13:40:33.999Z</time></trkpt><trkpt lat="39.12839321631879" lon="16.27289559088221"><ele>274.6</ele><time>2026-05-01T13:40:34.999Z</time></trkpt><trkpt lat="39.1284412174081" lon="16.273003042468847"><ele>273.40000000000003</ele><time>2026-05-01T13:40:35.999Z</time></trkpt><trkpt lat="39.12849607103241" lon="16.273105383390636"><ele>272.2</ele><time>2026-05-01T13:40:36.999Z</time></trkpt><trkpt lat="39.1285590694979" lon="16.273194167064236"><ele>271.0</ele><time>2026-05-01T13:40:37.999Z</time></trkpt><trkpt lat="39.12862200944641" lon="16.27328431200186"><ele>276.16666666666663</ele><time>2026-05-01T13:40:38.999Z</time></trkpt><trkpt lat="39.12866469631941" lon="16.273384069491264"><ele>281.3333333333333</ele><time>2026-05-01T13:40:39.999Z</time></trkpt><trkpt lat="39.12867387894138" lon="16.27350011269932"><ele>286.5</ele><time>2026-05-01T13:40:40.999Z</time></trkpt><trkpt lat="39.12863251888739" lon="16.273601988916063"><ele>291.6666666666667</ele><time>2026-05-01T13:40:41.999Z</time></trkpt><trkpt lat="39.128606395494096" lon="16.273700770107766"><ele>296.83333333333337</ele><time>2026-05-01T13:40:42.999Z</time></trkpt><trkpt lat="39.12856997839553" lon="16.27380192727162"><ele>302.0</ele><time>2026-05-01T13:40:43.999Z</time></trkpt><trkpt lat="39.12855655016577" lon="16.27390906566461"><ele>305.0</ele><time>2026-05-01T13:40:44.999Z</time></trkpt><trkpt lat="39.12856398672777" lon="16.274025599648482"><ele>308.0</ele><time>2026-05-01T13:40:45.999Z</time></trkpt><trkpt lat="39.12857321436145" lon="16.27414508175879"><ele>311.0</ele><time>2026-05-01T13:40:46.999Z</time></trkpt><trkpt lat="39.128553317027865" lon="16.2742564556827"><ele>314.0</ele><time>2026-05-01T13:40:47.999Z</time></trkpt><trkpt lat="39.12850216840522" lon="16.274354836192167"><ele>317.0</ele><time>2026-05-01T13:40:48.999Z</time></trkpt><trkpt lat="39.128434745695486" lon="16.274434332229934"><ele>317.0</ele><time>2026-05-01T13:40:49.999Z</time></trkpt><trkpt lat="39.12835897605705" lon="16.27449347775923"><ele>317.0</ele><time>2026-05-01T13:40:50.999Z</time></trkpt><trkpt lat="39.12829062343207" lon="16.2745579817045"><ele>317.0</ele><time>2026-05-01T13:40:51.999Z</time></trkpt><trkpt lat="39.12824155843797" lon="16.27464133049652"><ele>317.0</ele><time>2026-05-01T13:40:52.999Z</time></trkpt><trkpt lat="39.12823078679885" lon="16.274731002270087"><ele>317.0</ele><time>2026-05-01T13:40:53.999Z</time></trkpt><trkpt lat="39.128301529956914" lon="16.27487554723534"><ele>317.5</ele><time>2026-05-01T13:40:55.999Z</time></trkpt><trkpt lat="39.12839169607842" lon="16.274871357776505"><ele>318.0</ele><time>2026-05-01T13:40:56.999Z</time></trkpt><trkpt lat="39.128460846560195" lon="16.2748913371603"><ele>318.5</ele><time>2026-05-01T13:40:57.999Z</time></trkpt><trkpt lat="39.12853143170026" lon="16.274895707003576"><ele>319.0</ele><time>2026-05-01T13:40:58.999Z</time></trkpt><trkpt lat="39.12862834232247" lon="16.274985160986347"><ele>319.5</ele><time>2026-05-01T13:41:00.999Z</time></trkpt><trkpt lat="39.12864300925017" lon="16.2750927398169"><ele>320.0</ele><time>2026-05-01T13:41:01.999Z</time></trkpt><trkpt lat="39.12862988386283" lon="16.275188562827346"><ele>320.0</ele><time>2026-05-01T13:41:02.999Z</time></trkpt><trkpt lat="39.12859908693689" lon="16.275278311438356"><ele>320.0</ele><time>2026-05-01T13:41:03.999Z</time></trkpt><trkpt lat="39.128569175224186" lon="16.275379118079645"><ele>320.0</ele><time>2026-05-01T13:41:04.999Z</time></trkpt><trkpt lat="39.128546394363184" lon="16.275489755549362"><ele>320.0</ele><time>2026-05-01T13:41:05.999Z</time></trkpt><trkpt lat="39.12852196878574" lon="16.275607136823407"><ele>320.0</ele><time>2026-05-01T13:41:06.999Z</time></trkpt><trkpt lat="39.12849342748026" lon="16.275730501984018"><ele>320.0</ele><time>2026-05-01T13:41:07.999Z</time></trkpt><trkpt lat="39.128467965926845" lon="16.27585633730797"><ele>321.2</ele><time>2026-05-01T13:41:08.999Z</time></trkpt><trkpt lat="39.128448779142815" lon="16.275979095415813"><ele>322.4</ele><time>2026-05-01T13:41:09.999Z</time></trkpt><trkpt lat="39.12843596756069" lon="16.276092331794615"><ele>323.6</ele><time>2026-05-01T13:41:10.999Z</time></trkpt><trkpt lat="39.128422948746675" lon="16.27620489178986"><ele>324.8</ele><time>2026-05-01T13:41:11.999Z</time></trkpt><trkpt lat="39.12841093784752" lon="16.276317822403215"><ele>326.0</ele><time>2026-05-01T13:41:12.999Z</time></trkpt><trkpt lat="39.128396600750044" lon="16.27643751178489"><ele>326.0</ele><time>2026-05-01T13:41:13.999Z</time></trkpt><trkpt lat="39.12838206208144" lon="16.276556337560194"><ele>326.0</ele><time>2026-05-01T13:41:14.999Z</time></trkpt><trkpt lat="39.128370077069306" lon="16.27667564583306"><ele>326.0</ele><time>2026-05-01T13:41:15.999Z</time></trkpt><trkpt lat="39.12835732084547" lon="16.27679296653179"><ele>326.0</ele><time>2026-05-01T13:41:16.999Z</time></trkpt><trkpt lat="39.128341544429375" lon="16.27691058710718"><ele>326.0</ele><time>2026-05-01T13:41:17.999Z</time></trkpt><trkpt lat="39.1283294299037" lon="16.277024293190806"><ele>326.0</ele><time>2026-05-01T13:41:18.999Z</time></trkpt><trkpt lat="39.128318751300505" lon="16.277132794534452"><ele>326.0</ele><time>2026-05-01T13:41:19.999Z</time></trkpt><trkpt lat="39.12830744594122" lon="16.27724424868584"><ele>326.0</ele><time>2026-05-01T13:41:20.999Z</time></trkpt><trkpt lat="39.128305965532086" lon="16.27734397239088"><ele>326.0</ele><time>2026-05-01T13:41:21.999Z</time></trkpt><trkpt lat="39.12830945896279" lon="16.277451417292614"><ele>326.0</ele><time>2026-05-01T13:41:22.999Z</time></trkpt><trkpt lat="39.12830647506151" lon="16.27754916227573"><ele>326.0</ele><time>2026-05-01T13:41:23.999Z</time></trkpt><trkpt lat="39.12829323027152" lon="16.277636624174974"><ele>323.5714285714286</ele><time>2026-05-01T13:41:24.999Z</time></trkpt><trkpt lat="39.12826563069036" lon="16.277719454200135"><ele>321.1428571428571</ele><time>2026-05-01T13:41:25.999Z</time></trkpt><trkpt lat="39.128225522375786" lon="16.27779906881024"><ele>318.7142857142857</ele><time>2026-05-01T13:41:26.999Z</time></trkpt><trkpt lat="39.12818417554357" lon="16.27787624510543"><ele>316.28571428571433</ele><time>2026-05-01T13:41:27.999Z</time></trkpt><trkpt lat="39.12815206993707" lon="16.27794989597434"><ele>313.8571428571429</ele><time>2026-05-01T13:41:28.999Z</time></trkpt><trkpt lat="39.128127391799474" lon="16.278035383029344"><ele>311.42857142857144</ele><time>2026-05-01T13:41:29.999Z</time></trkpt><trkpt lat="39.12810825129055" lon="16.278121755327668"><ele>309.0</ele><time>2026-05-01T13:41:30.999Z</time></trkpt><trkpt lat="39.12809871800713" lon="16.278204293478705"><ele>309.59999999999997</ele><time>2026-05-01T13:41:31.999Z</time></trkpt><trkpt lat="39.12812223727953" lon="16.278340761045207"><ele>310.2</ele><time>2026-05-01T13:41:33.999Z</time></trkpt><trkpt lat="39.12821219524435" lon="16.278437056683764"><ele>310.79999999999995</ele><time>2026-05-01T13:41:35.999Z</time></trkpt><trkpt lat="39.12828377204606" lon="16.278408959547892"><ele>311.4</ele><time>2026-05-01T13:41:36.999Z</time></trkpt><trkpt lat="39.12834024366055" lon="16.27837167418421"><ele>312.0</ele><time>2026-05-01T13:41:37.999Z</time></trkpt><trkpt lat="39.12845161282094" lon="16.278289524857527"><ele>312.0</ele><time>2026-05-01T13:41:39.999Z</time></trkpt><trkpt lat="39.12851797179984" lon="16.27823721008778"><ele>312.0</ele><time>2026-05-01T13:41:40.999Z</time></trkpt><trkpt lat="39.128591589186485" lon="16.278179173154996"><ele>312.0</ele><time>2026-05-01T13:41:41.999Z</time></trkpt><trkpt lat="39.12866610646031" lon="16.278120426683557"><ele>312.0</ele><time>2026-05-01T13:41:42.999Z</time></trkpt><trkpt lat="39.12871750647517" lon="16.278068759160703"><ele>312.0</ele><time>2026-05-01T13:41:43.999Z</time></trkpt><trkpt lat="39.12878981698984" lon="16.278002047053974"><ele>312.0</ele><time>2026-05-01T13:41:44.999Z</time></trkpt><trkpt lat="39.12886042710171" lon="16.277923150905693"><ele>311.4</ele><time>2026-05-01T13:41:45.999Z</time></trkpt><trkpt lat="39.128919827998004" lon="16.277827557360595"><ele>310.79999999999995</ele><time>2026-05-01T13:41:46.999Z</time></trkpt><trkpt lat="39.12897081326618" lon="16.27772057715149"><ele>310.2</ele><time>2026-05-01T13:41:47.999Z</time></trkpt><trkpt lat="39.12902317391647" lon="16.277616733129467"><ele>309.59999999999997</ele><time>2026-05-01T13:41:48.999Z</time></trkpt><trkpt lat="39.12907942581244" lon="16.277502479902736"><ele>309.0</ele><time>2026-05-01T13:41:49.999Z</time></trkpt><trkpt lat="39.12914187312118" lon="16.277394118578094"><ele>308.4</ele><time>2026-05-01T13:41:50.999Z</time></trkpt><trkpt lat="39.12920618601616" lon="16.277286131675346"><ele>307.79999999999995</ele><time>2026-05-01T13:41:51.999Z</time></trkpt><trkpt lat="39.129277369178205" lon="16.277182975669525"><ele>307.20000000000005</ele><time>2026-05-01T13:41:52.999Z</time></trkpt><trkpt lat="39.12935398551636" lon="16.277086758351775"><ele>306.6</ele><time>2026-05-01T13:41:53.999Z</time></trkpt><trkpt lat="39.129430705466916" lon="16.2769872781948"><ele>306.0</ele><time>2026-05-01T13:41:54.999Z</time></trkpt><trkpt lat="39.12950874037598" lon="16.276894246785403"><ele>300.75</ele><time>2026-05-01T13:41:55.999Z</time></trkpt><trkpt lat="39.129596988803016" lon="16.276818743511562"><ele>295.5</ele><time>2026-05-01T13:41:56.999Z</time></trkpt><trkpt lat="39.129693629293534" lon="16.276724448246814"><ele>290.25</ele><time>2026-05-01T13:41:57.999Z</time></trkpt><trkpt lat="39.12979092359377" lon="16.27663005441745"><ele>285.0</ele><time>2026-05-01T13:41:58.999Z</time></trkpt><trkpt lat="39.12989122453523" lon="16.276533357498778"><ele>281.5</ele><time>2026-05-01T13:41:59.999Z</time></trkpt><trkpt lat="39.129981440515984" lon="16.276420245915947"><ele>278.0</ele><time>2026-05-01T13:42:00.999Z</time></trkpt><trkpt lat="39.130084008247024" lon="16.276331086070094"><ele>274.5</ele><time>2026-05-01T13:42:01.999Z</time></trkpt><trkpt lat="39.13018263397007" lon="16.276236028010416"><ele>271.0</ele><time>2026-05-01T13:42:02.999Z</time></trkpt><trkpt lat="39.13029680554302" lon="16.27616344607412"><ele>271.0</ele><time>2026-05-01T13:42:03.999Z</time></trkpt><trkpt lat="39.13041131813032" lon="16.276090589754737"><ele>271.0</ele><time>2026-05-01T13:42:04.999Z</time></trkpt><trkpt lat="39.130530649959304" lon="16.276011400721472"><ele>271.0</ele><time>2026-05-01T13:42:05.999Z</time></trkpt><trkpt lat="39.13065261631855" lon="16.27596874115895"><ele>271.0</ele><time>2026-05-01T13:42:06.999Z</time></trkpt><trkpt lat="39.13076793955824" lon="16.275931198314872"><ele>274.0</ele><time>2026-05-01T13:42:07.999Z</time></trkpt><trkpt lat="39.13083118229292" lon="16.27589621203746"><ele>277.0</ele><time>2026-05-01T13:42:08.999Z</time></trkpt><trkpt lat="39.13091573894012" lon="16.275964284373682"><ele>280.0</ele><time>2026-05-01T13:42:10.999Z</time></trkpt><trkpt lat="39.13089745724632" lon="16.276044197972674"><ele>283.0</ele><time>2026-05-01T13:42:11.999Z</time></trkpt><trkpt lat="39.13087855370615" lon="16.276135250048412"><ele>286.0</ele><time>2026-05-01T13:42:12.999Z</time></trkpt><trkpt lat="39.130926013112955" lon="16.276054598835163"><ele>289.0</ele><time>2026-05-01T13:42:13.999Z</time></trkpt><trkpt lat="39.13089480893047" lon="16.276135706654003"><ele>289.0</ele><time>2026-05-01T13:42:16.999Z</time></trkpt><trkpt lat="39.130867207116005" lon="16.276241532725326"><ele>289.0</ele><time>2026-05-01T13:42:18.999Z</time></trkpt><trkpt lat="39.130842153257504" lon="16.27635336419736"><ele>289.0</ele><time>2026-05-01T13:42:20.999Z</time></trkpt><trkpt lat="39.13083898097263" lon="16.276458758125585"><ele>289.0</ele><time>2026-05-01T13:42:22.999Z</time></trkpt><trkpt lat="39.13083896253274" lon="16.276588585943617"><ele>289.0</ele><time>2026-05-01T13:42:24.999Z</time></trkpt><trkpt lat="39.130822249624316" lon="16.27644097383158"><ele>289.0</ele><time>2026-05-01T13:42:40.999Z</time></trkpt><trkpt lat="39.13086594954206" lon="16.27633975565903"><ele>289.0</ele><time>2026-05-01T13:42:41.999Z</time></trkpt><trkpt lat="39.13088717594986" lon="16.27623965348416"><ele>289.0</ele><time>2026-05-01T13:42:42.999Z</time></trkpt><trkpt lat="39.130919035144615" lon="16.27614582438859"><ele>289.0</ele><time>2026-05-01T13:42:43.999Z</time></trkpt><trkpt lat="39.13094743892425" lon="16.27606883082657"><ele>289.0</ele><time>2026-05-01T13:42:44.999Z</time></trkpt><trkpt lat="39.13098161108054" lon="16.275983375938395"><ele>289.0</ele><time>2026-05-01T13:42:46.999Z</time></trkpt><trkpt lat="39.13093761310473" lon="16.275919325019085"><ele>289.0</ele><time>2026-05-01T13:42:54.999Z</time></trkpt><trkpt lat="39.13088328731869" lon="16.275870205224344"><ele>289.0</ele><time>2026-05-01T13:43:01.999Z</time></trkpt><trkpt lat="39.13089589878679" lon="16.27576874396513"><ele>289.0</ele><time>2026-05-01T13:43:06.999Z</time></trkpt><trkpt lat="39.13102744711478" lon="16.27573533587984"><ele>289.0</ele><time>2026-05-01T13:43:10.999Z</time></trkpt><trkpt lat="39.13110217610888" lon="16.275728806118597"><ele>289.0</ele><time>2026-05-01T13:43:16.999Z</time></trkpt><trkpt lat="39.13117112383164" lon="16.275741071072392"><ele>289.0</ele><time>2026-05-01T13:43:19.999Z</time></trkpt><trkpt lat="39.13123912833372" lon="16.275691070301008"><ele>289.0</ele><time>2026-05-01T13:43:23.999Z</time></trkpt><trkpt lat="39.13124011882646" lon="16.275603201869295"><ele>252.0</ele><time>2026-05-01T13:43:27.999Z</time></trkpt><trkpt lat="39.13118993160248" lon="16.275536713895736"><ele>252.0</ele><time>2026-05-01T13:43:30.999Z</time></trkpt><trkpt lat="39.13118869181473" lon="16.27545504097105"><ele>252.0</ele><time>2026-05-01T13:43:56.999Z</time></trkpt></trkseg><trkseg><trkpt lat="39.131071084014835" lon="16.275653334835308"><ele>289.0</ele><time>2026-05-01T15:33:19Z</time></trkpt><trkpt lat="39.13097320728831" lon="16.27566067415519"><ele>289.0</ele><time>2026-05-01T15:33:21Z</time></trkpt><trkpt lat="39.130893771043716" lon="16.275708344038524"><ele>289.0</ele><time>2026-05-01T15:33:23Z</time></trkpt><trkpt lat="39.130905200207636" lon="16.275809869890967"><ele>289.0</ele><time>2026-05-01T15:33:25Z</time></trkpt><trkpt lat="39.13098363250239" lon="16.275857850322584"><ele>289.0</ele><time>2026-05-01T15:33:28Z</time></trkpt><trkpt lat="39.131014456340196" lon="16.275953809652936"><ele>289.0</ele><time>2026-05-01T15:33:32Z</time></trkpt><trkpt lat="39.130927940317235" lon="16.275964154217068"><ele>289.0</ele><time>2026-05-01T15:33:54Z</time></trkpt><trkpt lat="39.13086822956152" lon="16.27586853305791"><ele>289.0</ele><time>2026-05-01T15:33:56Z</time></trkpt><trkpt lat="39.13079980945171" lon="16.275853724112572"><ele>289.0</ele><time>2026-05-01T15:33:57Z</time></trkpt><trkpt lat="39.1307276661687" lon="16.2758854288869"><ele>289.0</ele><time>2026-05-01T15:33:58Z</time></trkpt><trkpt lat="39.13065111959869" lon="16.27592649816686"><ele>289.0</ele><time>2026-05-01T15:33:59Z</time></trkpt><trkpt lat="39.13056911713137" lon="16.27596982967577"><ele>289.0</ele><time>2026-05-01T15:34:00Z</time></trkpt><trkpt lat="39.130483833884604" lon="16.276010552404717"><ele>285.4</ele><time>2026-05-01T15:34:01Z</time></trkpt><trkpt lat="39.130398201615016" lon="16.276055582640296"><ele>281.79999999999995</ele><time>2026-05-01T15:34:02Z</time></trkpt><trkpt lat="39.130309049517074" lon="16.27610988488867"><ele>278.20000000000005</ele><time>2026-05-01T15:34:03Z</time></trkpt><trkpt lat="39.13022107290918" lon="16.276179284154534"><ele>274.6</ele><time>2026-05-01T15:34:04Z</time></trkpt><trkpt lat="39.130132509703884" lon="16.276261414697107"><ele>271.0</ele><time>2026-05-01T15:34:05Z</time></trkpt><trkpt lat="39.130042692626425" lon="16.27634826837374"><ele>274.5</ele><time>2026-05-01T15:34:06Z</time></trkpt><trkpt lat="39.129948298474666" lon="16.276438177579994"><ele>278.0</ele><time>2026-05-01T15:34:07Z</time></trkpt><trkpt lat="39.12985099036963" lon="16.276529668293062"><ele>281.5</ele><time>2026-05-01T15:34:08Z</time></trkpt><trkpt lat="39.1297516107047" lon="16.276621720138756"><ele>285.0</ele><time>2026-05-01T15:34:09Z</time></trkpt><trkpt lat="39.12964872886895" lon="16.276717667120955"><ele>285.0</ele><time>2026-05-01T15:34:10Z</time></trkpt><trkpt lat="39.12954724424284" lon="16.27681629677837"><ele>285.0</ele><time>2026-05-01T15:34:11Z</time></trkpt><trkpt lat="39.12945185843384" lon="16.27692171003698"><ele>285.0</ele><time>2026-05-01T15:34:12Z</time></trkpt><trkpt lat="39.12936389641874" lon="16.27703232806755"><ele>285.0</ele><time>2026-05-01T15:34:13Z</time></trkpt><trkpt lat="39.12928252013652" lon="16.277145202851706"><ele>285.0</ele><time>2026-05-01T15:34:14Z</time></trkpt><trkpt lat="39.12921095947502" lon="16.277257440852168"><ele>285.0</ele><time>2026-05-01T15:34:15Z</time></trkpt><trkpt lat="39.12913892307277" lon="16.277365862228393"><ele>285.0</ele><time>2026-05-01T15:34:16Z</time></trkpt><trkpt lat="39.129073491308155" lon="16.27747409201067"><ele>285.0</ele><time>2026-05-01T15:34:17Z</time></trkpt><trkpt lat="39.129014473500696" lon="16.277585661091823"><ele>285.0</ele><time>2026-05-01T15:34:18Z</time></trkpt><trkpt lat="39.12895819888567" lon="16.27769201014505"><ele>289.8</ele><time>2026-05-01T15:34:19Z</time></trkpt><trkpt lat="39.12890032203137" lon="16.277795178158254"><ele>294.6</ele><time>2026-05-01T15:34:20Z</time></trkpt><trkpt lat="39.12884723697169" lon="16.277899187475153"><ele>299.4</ele><time>2026-05-01T15:34:21Z</time></trkpt><trkpt lat="39.128778264757955" lon="16.277986282991748"><ele>304.2</ele><time>2026-05-01T15:34:22Z</time></trkpt><trkpt lat="39.12869482034579" lon="16.278062632005618"><ele>309.0</ele><time>2026-05-01T15:34:23Z</time></trkpt><trkpt lat="39.12860630655234" lon="16.278135958136275"><ele>309.5</ele><time>2026-05-01T15:34:24Z</time></trkpt><trkpt lat="39.12852178661422" lon="16.27820465288065"><ele>310.0</ele><time>2026-05-01T15:34:25Z</time></trkpt><trkpt lat="39.12844199132059" lon="16.278266308332896"><ele>310.5</ele><time>2026-05-01T15:34:26Z</time></trkpt><trkpt lat="39.12836402615418" lon="16.27832348708775"><ele>311.0</ele><time>2026-05-01T15:34:27Z</time></trkpt><trkpt lat="39.12829473217233" lon="16.278371146057932"><ele>311.5</ele><time>2026-05-01T15:34:28Z</time></trkpt><trkpt lat="39.12822836866055" lon="16.278391155891384"><ele>312.0</ele><time>2026-05-01T15:34:29Z</time></trkpt><trkpt lat="39.12813295336805" lon="16.27831566050454"><ele>311.5</ele><time>2026-05-01T15:34:31Z</time></trkpt><trkpt lat="39.12811301655563" lon="16.27823831594133"><ele>311.0</ele><time>2026-05-01T15:34:32Z</time></trkpt><trkpt lat="39.12814902181761" lon="16.278081816234447"><ele>310.5</ele><time>2026-05-01T15:34:34Z</time></trkpt><trkpt lat="39.128179514035835" lon="16.2780044562544"><ele>310.0</ele><time>2026-05-01T15:34:35Z</time></trkpt><trkpt lat="39.128209677767146" lon="16.277923452342577"><ele>309.5</ele><time>2026-05-01T15:34:36Z</time></trkpt><trkpt lat="39.12824570726135" lon="16.27784222341073"><ele>309.0</ele><time>2026-05-01T15:34:37Z</time></trkpt><trkpt lat="39.12829215331722" lon="16.27775963237523"><ele>309.0</ele><time>2026-05-01T15:34:38Z</time></trkpt><trkpt lat="39.12833322663333" lon="16.277671521553742"><ele>309.0</ele><time>2026-05-01T15:34:39Z</time></trkpt><trkpt lat="39.12835544176251" lon="16.27757054597748"><ele>309.0</ele><time>2026-05-01T15:34:40Z</time></trkpt><trkpt lat="39.12835692059565" lon="16.27746500052923"><ele>309.0</ele><time>2026-05-01T15:34:41Z</time></trkpt><trkpt lat="39.128351269485" lon="16.277361429922827"><ele>309.0</ele><time>2026-05-01T15:34:42Z</time></trkpt><trkpt lat="39.1283500992625" lon="16.277255412817336"><ele>309.0</ele><time>2026-05-01T15:34:43Z</time></trkpt><trkpt lat="39.12835644442753" lon="16.27714817044412"><ele>312.4</ele><time>2026-05-01T15:34:44Z</time></trkpt><trkpt lat="39.128370181938884" lon="16.27703752247671"><ele>315.79999999999995</ele><time>2026-05-01T15:34:45Z</time></trkpt><trkpt lat="39.12838628950361" lon="16.276922322686318"><ele>319.20000000000005</ele><time>2026-05-01T15:34:46Z</time></trkpt><trkpt lat="39.12840268045709" lon="16.276798442328055"><ele>322.6</ele><time>2026-05-01T15:34:47Z</time></trkpt><trkpt lat="39.128422639198014" lon="16.27665946810136"><ele>326.0</ele><time>2026-05-01T15:34:48Z</time></trkpt><trkpt lat="39.1284407101098" lon="16.27651102153282"><ele>327.0</ele><time>2026-05-01T15:34:49Z</time></trkpt><trkpt lat="39.12845472042506" lon="16.276362196638367"><ele>328.0</ele><time>2026-05-01T15:34:50Z</time></trkpt><trkpt lat="39.128468299992555" lon="16.276208419817785"><ele>329.0</ele><time>2026-05-01T15:34:51Z</time></trkpt><trkpt lat="39.128485323094644" lon="16.276057893743694"><ele>330.0</ele><time>2026-05-01T15:34:52Z</time></trkpt><trkpt lat="39.12850682558008" lon="16.275913514888476"><ele>330.0</ele><time>2026-05-01T15:34:53Z</time></trkpt><trkpt lat="39.12852924033923" lon="16.27577715674517"><ele>330.0</ele><time>2026-05-01T15:34:54Z</time></trkpt><trkpt lat="39.12855745598525" lon="16.27564219794431"><ele>330.0</ele><time>2026-05-01T15:34:55Z</time></trkpt><trkpt lat="39.128589988990285" lon="16.275506712398055"><ele>330.0</ele><time>2026-05-01T15:34:56Z</time></trkpt><trkpt lat="39.1286231819519" lon="16.275376745718376"><ele>330.0</ele><time>2026-05-01T15:34:57Z</time></trkpt><trkpt lat="39.12865911113308" lon="16.275252647967914"><ele>328.3333333333333</ele><time>2026-05-01T15:34:58Z</time></trkpt><trkpt lat="39.128684020015314" lon="16.275130640054574"><ele>326.6666666666667</ele><time>2026-05-01T15:34:59Z</time></trkpt><trkpt lat="39.1286872851461" lon="16.275025567648065"><ele>325.0</ele><time>2026-05-01T15:35:00Z</time></trkpt><trkpt lat="39.12866062641184" lon="16.274934938905165"><ele>323.33333333333337</ele><time>2026-05-01T15:35:01Z</time></trkpt><trkpt lat="39.12860866753022" lon="16.27487336102149"><ele>321.6666666666667</ele><time>2026-05-01T15:35:02Z</time></trkpt><trkpt lat="39.12853892524224" lon="16.27483606995666"><ele>320.0</ele><time>2026-05-01T15:35:03Z</time></trkpt><trkpt lat="39.12845859721882" lon="16.27483384919954"><ele>320.0</ele><time>2026-05-01T15:35:04Z</time></trkpt><trkpt lat="39.128380963540685" lon="16.274840114737845"><ele>320.0</ele><time>2026-05-01T15:35:05Z</time></trkpt><trkpt lat="39.12831611640209" lon="16.27481850762567"><ele>320.0</ele><time>2026-05-01T15:35:06Z</time></trkpt><trkpt lat="39.12827137847242" lon="16.27475636416305"><ele>320.0</ele><time>2026-05-01T15:35:07Z</time></trkpt><trkpt lat="39.128265263044696" lon="16.274667416981053"><ele>320.0</ele><time>2026-05-01T15:35:08Z</time></trkpt><trkpt lat="39.12829808044045" lon="16.274591239877346"><ele>320.0</ele><time>2026-05-01T15:35:09Z</time></trkpt><trkpt lat="39.128368285081734" lon="16.274545311801432"><ele>320.0</ele><time>2026-05-01T15:35:10Z</time></trkpt><trkpt lat="39.128435474386535" lon="16.274467758066386"><ele>319.4</ele><time>2026-05-01T15:35:11Z</time></trkpt><trkpt lat="39.128515449228644" lon="16.274399157927135"><ele>318.8</ele><time>2026-05-01T15:35:12Z</time></trkpt><trkpt lat="39.128577914288336" lon="16.274304296054947"><ele>318.2</ele><time>2026-05-01T15:35:13Z</time></trkpt><trkpt lat="39.12861561829434" lon="16.274184411308614"><ele>317.6</ele><time>2026-05-01T15:35:14Z</time></trkpt><trkpt lat="39.128625394440874" lon="16.27404650392663"><ele>317.0</ele><time>2026-05-01T15:35:15Z</time></trkpt><trkpt lat="39.128619921811094" lon="16.273896997123288"><ele>314.0</ele><time>2026-05-01T15:35:16Z</time></trkpt><trkpt lat="39.128625161711525" lon="16.273747692471265"><ele>311.0</ele><time>2026-05-01T15:35:17Z</time></trkpt><trkpt lat="39.12866191383795" lon="16.273619686554433"><ele>308.0</ele><time>2026-05-01T15:35:18Z</time></trkpt><trkpt lat="39.128704365315606" lon="16.27348997526205"><ele>305.0</ele><time>2026-05-01T15:35:19Z</time></trkpt><trkpt lat="39.12871177171056" lon="16.27336714821636"><ele>302.0</ele><time>2026-05-01T15:35:20Z</time></trkpt><trkpt lat="39.12867249444002" lon="16.273250844747956"><ele>302.0</ele><time>2026-05-01T15:35:21Z</time></trkpt><trkpt lat="39.128593864516496" lon="16.273162383935457"><ele>302.0</ele><time>2026-05-01T15:35:22Z</time></trkpt><trkpt lat="39.12852266286727" lon="16.273054400144247"><ele>302.0</ele><time>2026-05-01T15:35:23Z</time></trkpt><trkpt lat="39.12844422608863" lon="16.27293676908629"><ele>302.0</ele><time>2026-05-01T15:35:24Z</time></trkpt><trkpt lat="39.12838231364337" lon="16.272799884358143"><ele>297.83333333333337</ele><time>2026-05-01T15:35:25Z</time></trkpt><trkpt lat="39.128321087120746" lon="16.27267710894379"><ele>293.6666666666667</ele><time>2026-05-01T15:35:26Z</time></trkpt><trkpt lat="39.128254667796654" lon="16.27259856478659"><ele>289.5</ele><time>2026-05-01T15:35:27Z</time></trkpt><trkpt lat="39.12818202413999" lon="16.27257638388381"><ele>285.3333333333333</ele><time>2026-05-01T15:35:28Z</time></trkpt><trkpt lat="39.128105075398906" lon="16.27259322956593"><ele>281.16666666666663</ele><time>2026-05-01T15:35:29Z</time></trkpt><trkpt lat="39.12801811000192" lon="16.272623766711213"><ele>277.0</ele><time>2026-05-01T15:35:30Z</time></trkpt><trkpt lat="39.12791815958871" lon="16.272655287689552"><ele>277.0</ele><time>2026-05-01T15:35:31Z</time></trkpt><trkpt lat="39.127810359842016" lon="16.272682554203687"><ele>277.0</ele><time>2026-05-01T15:35:32Z</time></trkpt><trkpt lat="39.127699397037084" lon="16.272701552413675"><ele>277.0</ele><time>2026-05-01T15:35:33Z</time></trkpt><trkpt lat="39.127597950316655" lon="16.272721962901958"><ele>277.0</ele><time>2026-05-01T15:35:34Z</time></trkpt><trkpt lat="39.127506445738305" lon="16.272720357132204"><ele>277.0</ele><time>2026-05-01T15:35:35Z</time></trkpt><trkpt lat="39.127425127203075" lon="16.272687677154146"><ele>278.2</ele><time>2026-05-01T15:35:36Z</time></trkpt><trkpt lat="39.12734924071041" lon="16.272625718591158"><ele>279.4</ele><time>2026-05-01T15:35:37Z</time></trkpt><trkpt lat="39.1272957042291" lon="16.272525346806415"><ele>280.6</ele><time>2026-05-01T15:35:38Z</time></trkpt><trkpt lat="39.127247569956495" lon="16.272415574823842"><ele>281.8</ele><time>2026-05-01T15:35:39Z</time></trkpt><trkpt lat="39.1271964671025" lon="16.27229511003262"><ele>283.0</ele><time>2026-05-01T15:35:40Z</time></trkpt><trkpt lat="39.12713579303865" lon="16.2721669214389"><ele>283.0</ele><time>2026-05-01T15:35:41Z</time></trkpt><trkpt lat="39.12706836980848" lon="16.27203398523927"><ele>283.0</ele><time>2026-05-01T15:35:42Z</time></trkpt><trkpt lat="39.12699207125623" lon="16.27189997485708"><ele>283.0</ele><time>2026-05-01T15:35:43Z</time></trkpt><trkpt lat="39.12691667213127" lon="16.271762865487926"><ele>283.0</ele><time>2026-05-01T15:35:44Z</time></trkpt><trkpt lat="39.12683873833457" lon="16.271627726436172"><ele>283.0</ele><time>2026-05-01T15:35:45Z</time></trkpt><trkpt lat="39.126768346690966" lon="16.27149024872022"><ele>283.0</ele><time>2026-05-01T15:35:46Z</time></trkpt><trkpt lat="39.126712778477916" lon="16.271347239320868"><ele>283.0</ele><time>2026-05-01T15:35:47Z</time></trkpt><trkpt lat="39.12667470952739" lon="16.27122633063002"><ele>283.0</ele><time>2026-05-01T15:35:48Z</time></trkpt><trkpt lat="39.12663315397777" lon="16.271143098405144"><ele>283.0</ele><time>2026-05-01T15:35:49Z</time></trkpt><trkpt lat="39.126577848588745" lon="16.271082239208745"><ele>277.0</ele><time>2026-05-01T15:35:50Z</time></trkpt><trkpt lat="39.126508340445895" lon="16.27103072742479"><ele>271.0</ele><time>2026-05-01T15:35:51Z</time></trkpt><trkpt lat="39.12641723865613" lon="16.270991898167665"><ele>265.0</ele><time>2026-05-01T15:35:52Z</time></trkpt><trkpt lat="39.12631422050728" lon="16.270982209960632"><ele>259.0</ele><time>2026-05-01T15:35:53Z</time></trkpt><trkpt lat="39.126213606942514" lon="16.271000818138436"><ele>253.0</ele><time>2026-05-01T15:35:54Z</time></trkpt><trkpt lat="39.12609823795017" lon="16.271024850984606"><ele>253.0</ele><time>2026-05-01T15:35:55Z</time></trkpt><trkpt lat="39.125973703279456" lon="16.27105070714362"><ele>253.0</ele><time>2026-05-01T15:35:56Z</time></trkpt><trkpt lat="39.12584506991991" lon="16.271065786405593"><ele>253.0</ele><time>2026-05-01T15:35:57Z</time></trkpt><trkpt lat="39.125714015045425" lon="16.271083015226758"><ele>253.0</ele><time>2026-05-01T15:35:58Z</time></trkpt><trkpt lat="39.12560092507777" lon="16.27110486721974"><ele>255.8</ele><time>2026-05-01T15:35:59Z</time></trkpt><trkpt lat="39.12550319043019" lon="16.27111057010052"><ele>258.6</ele><time>2026-05-01T15:36:00Z</time></trkpt><trkpt lat="39.12541671018737" lon="16.271101211659655"><ele>261.4</ele><time>2026-05-01T15:36:01Z</time></trkpt><trkpt lat="39.12534146804751" lon="16.27104065187981"><ele>264.2</ele><time>2026-05-01T15:36:02Z</time></trkpt><trkpt lat="39.12529092745264" lon="16.27094662513818"><ele>267.0</ele><time>2026-05-01T15:36:03Z</time></trkpt><trkpt lat="39.12526321778519" lon="16.27083782609459"><ele>267.0</ele><time>2026-05-01T15:36:04Z</time></trkpt><trkpt lat="39.12523429506067" lon="16.270712411698298"><ele>267.0</ele><time>2026-05-01T15:36:05Z</time></trkpt><trkpt lat="39.12518314772966" lon="16.270606402771268"><ele>267.0</ele><time>2026-05-01T15:36:06Z</time></trkpt><trkpt lat="39.125103853692565" lon="16.27052799767477"><ele>267.0</ele><time>2026-05-01T15:36:07Z</time></trkpt><trkpt lat="39.12500653575451" lon="16.270473940314368"><ele>267.0</ele><time>2026-05-01T15:36:08Z</time></trkpt><trkpt lat="39.12490903655248" lon="16.27043097061708"><ele>266.0</ele><time>2026-05-01T15:36:09Z</time></trkpt><trkpt lat="39.1248293431108" lon="16.270357314567978"><ele>265.0</ele><time>2026-05-01T15:36:10Z</time></trkpt><trkpt lat="39.124775986763666" lon="16.270241799025005"><ele>264.0</ele><time>2026-05-01T15:36:11Z</time></trkpt><trkpt lat="39.124748776377054" lon="16.270107844434378"><ele>263.0</ele><time>2026-05-01T15:36:12Z</time></trkpt><trkpt lat="39.12471914212488" lon="16.269971519212657"><ele>262.0</ele><time>2026-05-01T15:36:13Z</time></trkpt><trkpt lat="39.124659959927435" lon="16.269857214526322"><ele>253.75</ele><time>2026-05-01T15:36:14Z</time></trkpt><trkpt lat="39.12456367014001" lon="16.269754534915258"><ele>245.5</ele><time>2026-05-01T15:36:15Z</time></trkpt><trkpt lat="39.124454202342" lon="16.269669022873074"><ele>237.25</ele><time>2026-05-01T15:36:16Z</time></trkpt><trkpt lat="39.124341593123326" lon="16.269586052540383"><ele>229.0</ele><time>2026-05-01T15:36:17Z</time></trkpt><trkpt lat="39.12423965706025" lon="16.269507144551802"><ele>229.0</ele><time>2026-05-01T15:36:18Z</time></trkpt><trkpt lat="39.12414225356479" lon="16.269422279239574"><ele>228.99999999999997</ele><time>2026-05-01T15:36:19Z</time></trkpt><trkpt lat="39.124045471399064" lon="16.269344371968696"><ele>228.99999999999997</ele><time>2026-05-01T15:36:20Z</time></trkpt><trkpt lat="39.123959052344816" lon="16.26927822470752"><ele>229.0</ele><time>2026-05-01T15:36:21Z</time></trkpt><trkpt lat="39.123874146467514" lon="16.26922579669796"><ele>229.0</ele><time>2026-05-01T15:36:22Z</time></trkpt><trkpt lat="39.12377639801055" lon="16.269207910780032"><ele>231.0</ele><time>2026-05-01T15:36:23Z</time></trkpt><trkpt lat="39.12367169694578" lon="16.269226557241087"><ele>232.99999999999997</ele><time>2026-05-01T15:36:24Z</time></trkpt><trkpt lat="39.123569591818416" lon="16.269266496146024"><ele>234.99999999999997</ele><time>2026-05-01T15:36:25Z</time></trkpt><trkpt lat="39.12346240857658" lon="16.26930474328283"><ele>237.0</ele><time>2026-05-01T15:36:26Z</time></trkpt><trkpt lat="39.12335245714258" lon="16.269334749471323"><ele>239.0</ele><time>2026-05-01T15:36:27Z</time></trkpt><trkpt lat="39.123232423159976" lon="16.269339157112967"><ele>237.75</ele><time>2026-05-01T15:36:28Z</time></trkpt><trkpt lat="39.12311672847099" lon="16.269309966453985"><ele>236.5</ele><time>2026-05-01T15:36:29Z</time></trkpt><trkpt lat="39.12300200634144" lon="16.269264743369483"><ele>235.25</ele><time>2026-05-01T15:36:30Z</time></trkpt><trkpt lat="39.1228890269875" lon="16.269215166139933"><ele>234.0</ele><time>2026-05-01T15:36:31Z</time></trkpt><trkpt lat="39.12277050859952" lon="16.269178470951044"><ele>234.0</ele><time>2026-05-01T15:36:32Z</time></trkpt><trkpt lat="39.12266038575796" lon="16.269149031469283"><ele>233.99999999999997</ele><time>2026-05-01T15:36:33Z</time></trkpt><trkpt lat="39.1225556355521" lon="16.269118233236238"><ele>233.99999999999997</ele><time>2026-05-01T15:36:34Z</time></trkpt><trkpt lat="39.12245901174521" lon="16.269084128230432"><ele>234.0</ele><time>2026-05-01T15:36:35Z</time></trkpt><trkpt lat="39.122368071260865" lon="16.269022606208956"><ele>234.0</ele><time>2026-05-01T15:36:36Z</time></trkpt><trkpt lat="39.122293041688266" lon="16.26894055874594"><ele>236.25</ele><time>2026-05-01T15:36:37Z</time></trkpt><trkpt lat="39.12223925765576" lon="16.268819448950726"><ele>238.5</ele><time>2026-05-01T15:36:38Z</time></trkpt><trkpt lat="39.12219240773243" lon="16.268688877748097"><ele>240.75</ele><time>2026-05-01T15:36:39Z</time></trkpt><trkpt lat="39.12213503307206" lon="16.268559606605862"><ele>243.0</ele><time>2026-05-01T15:36:40Z</time></trkpt><trkpt lat="39.122075503045295" lon="16.268429844805055"><ele>243.0</ele><time>2026-05-01T15:36:41Z</time></trkpt><trkpt lat="39.12201935868413" lon="16.268291483651847"><ele>243.0</ele><time>2026-05-01T15:36:42Z</time></trkpt><trkpt lat="39.121968955164974" lon="16.268141646251184"><ele>243.0</ele><time>2026-05-01T15:36:43Z</time></trkpt><trkpt lat="39.12192760826823" lon="16.26799735200946"><ele>243.0</ele><time>2026-05-01T15:36:44Z</time></trkpt><trkpt lat="39.121887873108115" lon="16.267868514409244"><ele>239.25</ele><time>2026-05-01T15:36:45Z</time></trkpt><trkpt lat="39.121812126852205" lon="16.267745728263588"><ele>235.5</ele><time>2026-05-01T15:36:46Z</time></trkpt><trkpt lat="39.12172130130114" lon="16.267642818417475"><ele>231.75</ele><time>2026-05-01T15:36:47Z</time></trkpt><trkpt lat="39.12162435771117" lon="16.267552611635143"><ele>228.0</ele><time>2026-05-01T15:36:48Z</time></trkpt><trkpt lat="39.121525638996424" lon="16.267455800290065"><ele>228.0</ele><time>2026-05-01T15:36:49Z</time></trkpt><trkpt lat="39.12142621672473" lon="16.26736578203686"><ele>228.0</ele><time>2026-05-01T15:36:50Z</time></trkpt><trkpt lat="39.121312999450424" lon="16.26728843974149"><ele>228.0</ele><time>2026-05-01T15:36:51Z</time></trkpt><trkpt lat="39.12119437563024" lon="16.267230960934207"><ele>228.0</ele><time>2026-05-01T15:36:52Z</time></trkpt><trkpt lat="39.121075977688434" lon="16.267166780183743"><ele>226.5</ele><time>2026-05-01T15:36:53Z</time></trkpt><trkpt lat="39.12096739521029" lon="16.267075876102556"><ele>225.0</ele><time>2026-05-01T15:36:54Z</time></trkpt><trkpt lat="39.12087990588961" lon="16.26696187987002"><ele>223.5</ele><time>2026-05-01T15:36:55Z</time></trkpt><trkpt lat="39.12078443170329" lon="16.26685434946372"><ele>222.0</ele><time>2026-05-01T15:36:56Z</time></trkpt><trkpt lat="39.120694236159075" lon="16.26675768756428"><ele>222.0</ele><time>2026-05-01T15:36:57Z</time></trkpt><trkpt lat="39.12061922196004" lon="16.266634795474616"><ele>222.0</ele><time>2026-05-01T15:36:58Z</time></trkpt><trkpt lat="39.12054967735902" lon="16.2665100213797"><ele>222.0</ele><time>2026-05-01T15:36:59Z</time></trkpt><trkpt lat="39.12049361149684" lon="16.266371852866985"><ele>222.0</ele><time>2026-05-01T15:37:00Z</time></trkpt><trkpt lat="39.12044519325673" lon="16.266234203291948"><ele>222.0</ele><time>2026-05-01T15:37:01Z</time></trkpt><trkpt lat="39.120412377400214" lon="16.266090888723603"><ele>222.0</ele><time>2026-05-01T15:37:02Z</time></trkpt><trkpt lat="39.12037855351838" lon="16.26593722014675"><ele>222.0</ele><time>2026-05-01T15:37:03.001Z</time></trkpt><trkpt lat="39.12035016986544" lon="16.26578823294979"><ele>222.0</ele><time>2026-05-01T15:37:04.001Z</time></trkpt><trkpt lat="39.12032582510274" lon="16.26563803780311"><ele>221.25</ele><time>2026-05-01T15:37:05Z</time></trkpt><trkpt lat="39.12030519319399" lon="16.26548242261991"><ele>220.5</ele><time>2026-05-01T15:37:06.001Z</time></trkpt><trkpt lat="39.120288701266915" lon="16.265326554784977"><ele>219.75</ele><time>2026-05-01T15:37:07.001Z</time></trkpt><trkpt lat="39.120272328739176" lon="16.265164664245074"><ele>219.0</ele><time>2026-05-01T15:37:08Z</time></trkpt><trkpt lat="39.12025568856545" lon="16.265007318743084"><ele>219.0</ele><time>2026-05-01T15:37:09.001Z</time></trkpt><trkpt lat="39.12024302513833" lon="16.264842816485494"><ele>219.0</ele><time>2026-05-01T15:37:10.001Z</time></trkpt><trkpt lat="39.12023011631789" lon="16.264685575485803"><ele>219.0</ele><time>2026-05-01T15:37:11.001Z</time></trkpt><trkpt lat="39.12022420523401" lon="16.264525728921654"><ele>219.0</ele><time>2026-05-01T15:37:12.001Z</time></trkpt><trkpt lat="39.12023488883204" lon="16.26436791673695"><ele>214.75</ele><time>2026-05-01T15:37:13.001Z</time></trkpt><trkpt lat="39.12025000548155" lon="16.264209655231216"><ele>210.5</ele><time>2026-05-01T15:37:14.001Z</time></trkpt><trkpt lat="39.12027293053551" lon="16.264066770566306"><ele>206.25</ele><time>2026-05-01T15:37:15.001Z</time></trkpt><trkpt lat="39.12029313544373" lon="16.263928098980458"><ele>202.0</ele><time>2026-05-01T15:37:16.001Z</time></trkpt><trkpt lat="39.12031766265148" lon="16.263787745764933"><ele>200.25</ele><time>2026-05-01T15:37:17.001Z</time></trkpt><trkpt lat="39.120339638703655" lon="16.26364608048459"><ele>198.5</ele><time>2026-05-01T15:37:18.001Z</time></trkpt><trkpt lat="39.120363790421294" lon="16.26351082317627"><ele>196.75</ele><time>2026-05-01T15:37:19Z</time></trkpt><trkpt lat="39.12038064772629" lon="16.263363656490263"><ele>195.0</ele><time>2026-05-01T15:37:20Z</time></trkpt><trkpt lat="39.12039566416708" lon="16.263212339849087"><ele>196.0</ele><time>2026-05-01T15:37:21Z</time></trkpt><trkpt lat="39.12041371104996" lon="16.26305572943034"><ele>197.0</ele><time>2026-05-01T15:37:22Z</time></trkpt><trkpt lat="39.120433218097624" lon="16.262895382698606"><ele>198.0</ele><time>2026-05-01T15:37:23Z</time></trkpt><trkpt lat="39.12045134213729" lon="16.26273457373386"><ele>199.0</ele><time>2026-05-01T15:37:24Z</time></trkpt><trkpt lat="39.12045830200584" lon="16.262597075817624"><ele>199.0</ele><time>2026-05-01T15:37:25Z</time></trkpt><trkpt lat="39.120445499871344" lon="16.26245461943762"><ele>199.0</ele><time>2026-05-01T15:37:26Z</time></trkpt><trkpt lat="39.12038948008985" lon="16.262335967869724"><ele>199.0</ele><time>2026-05-01T15:37:27Z</time></trkpt><trkpt lat="39.120307227702476" lon="16.262235882962084"><ele>199.0</ele><time>2026-05-01T15:37:28Z</time></trkpt><trkpt lat="39.12021306878179" lon="16.262154934613882"><ele>199.0</ele><time>2026-05-01T15:37:29Z</time></trkpt><trkpt lat="39.12010671620113" lon="16.26208118762665"><ele>198.5</ele><time>2026-05-01T15:37:30Z</time></trkpt><trkpt lat="39.120001349480766" lon="16.262002132492903"><ele>198.0</ele><time>2026-05-01T15:37:31Z</time></trkpt><trkpt lat="39.11990137079841" lon="16.261903518268547"><ele>197.5</ele><time>2026-05-01T15:37:32Z</time></trkpt><trkpt lat="39.11980962712068" lon="16.261780881652726"><ele>197.0</ele><time>2026-05-01T15:37:33Z</time></trkpt><trkpt lat="39.11972233883845" lon="16.26164839726923"><ele>197.0</ele><time>2026-05-01T15:37:34Z</time></trkpt><trkpt lat="39.11963297279214" lon="16.261512906890964"><ele>197.0</ele><time>2026-05-01T15:37:35Z</time></trkpt><trkpt lat="39.119541375506415" lon="16.261384784777174"><ele>197.0</ele><time>2026-05-01T15:37:36Z</time></trkpt><trkpt lat="39.11943672690845" lon="16.261266570151417"><ele>197.0</ele><time>2026-05-01T15:37:37Z</time></trkpt><trkpt lat="39.11932751527865" lon="16.261159158916776"><ele>197.25</ele><time>2026-05-01T15:37:38Z</time></trkpt><trkpt lat="39.11921437764898" lon="16.261059093873108"><ele>197.5</ele><time>2026-05-01T15:37:39Z</time></trkpt><trkpt lat="39.11909819581515" lon="16.260984721919524"><ele>197.75</ele><time>2026-05-01T15:37:40Z</time></trkpt><trkpt lat="39.11898957959384" lon="16.260911792765842"><ele>198.0</ele><time>2026-05-01T15:37:41Z</time></trkpt><trkpt lat="39.11888490640057" lon="16.260850517991624"><ele>198.0</ele><time>2026-05-01T15:37:42Z</time></trkpt><trkpt lat="39.118783276514264" lon="16.260780004319113"><ele>198.0</ele><time>2026-05-01T15:37:43Z</time></trkpt><trkpt lat="39.11870541436068" lon="16.260692789148788"><ele>198.0</ele><time>2026-05-01T15:37:44Z</time></trkpt><trkpt lat="39.11863618044229" lon="16.260597944922832"><ele>198.0</ele><time>2026-05-01T15:37:45Z</time></trkpt><trkpt lat="39.118574913639065" lon="16.260499913779196"><ele>198.0</ele><time>2026-05-01T15:37:46Z</time></trkpt><trkpt lat="39.11851698806121" lon="16.2603982020969"><ele>200.0</ele><time>2026-05-01T15:37:47Z</time></trkpt><trkpt lat="39.118462379049596" lon="16.260295994938314"><ele>202.0</ele><time>2026-05-01T15:37:48Z</time></trkpt><trkpt lat="39.118407649299" lon="16.260195502196556"><ele>204.0</ele><time>2026-05-01T15:37:49Z</time></trkpt><trkpt lat="39.118354774817874" lon="16.26009073139489"><ele>206.0</ele><time>2026-05-01T15:37:50Z</time></trkpt><trkpt lat="39.118300772737" lon="16.25998269147495"><ele>208.0</ele><time>2026-05-01T15:37:51Z</time></trkpt><trkpt lat="39.11824331859633" lon="16.25987353599722"><ele>206.60000000000002</ele><time>2026-05-01T15:37:52Z</time></trkpt><trkpt lat="39.11818141781726" lon="16.2597652804336"><ele>205.20000000000002</ele><time>2026-05-01T15:37:53Z</time></trkpt><trkpt lat="39.1181220811041" lon="16.259651814410947"><ele>203.8</ele><time>2026-05-01T15:37:54Z</time></trkpt><trkpt lat="39.118063039024484" lon="16.259536351565206"><ele>202.4</ele><time>2026-05-01T15:37:55Z</time></trkpt><trkpt lat="39.118002984080036" lon="16.259417775110926"><ele>201.0</ele><time>2026-05-01T15:37:56Z</time></trkpt><trkpt lat="39.117944672309726" lon="16.259300288014316"><ele>201.0</ele><time>2026-05-01T15:37:57Z</time></trkpt><trkpt lat="39.117885241854594" lon="16.259180853934662"><ele>201.0</ele><time>2026-05-01T15:37:58Z</time></trkpt><trkpt lat="39.11782733905548" lon="16.25905955503583"><ele>201.0</ele><time>2026-05-01T15:37:59Z</time></trkpt><trkpt lat="39.117771257371516" lon="16.25893286141363"><ele>201.0</ele><time>2026-05-01T15:38:00Z</time></trkpt><trkpt lat="39.11771803006519" lon="16.258803336410104"><ele>201.0</ele><time>2026-05-01T15:38:01Z</time></trkpt><trkpt lat="39.11765991049754" lon="16.258677136522707"><ele>204.25</ele><time>2026-05-01T15:38:02Z</time></trkpt><trkpt lat="39.11758772697681" lon="16.25856785634294"><ele>207.5</ele><time>2026-05-01T15:38:03Z</time></trkpt><trkpt lat="39.11749613015201" lon="16.258479044949755"><ele>210.75</ele><time>2026-05-01T15:38:04Z</time></trkpt><trkpt lat="39.11739662240375" lon="16.258413249306955"><ele>214.0</ele><time>2026-05-01T15:38:05Z</time></trkpt><trkpt lat="39.117288940664096" lon="16.258358810873894"><ele>214.0</ele><time>2026-05-01T15:38:06Z</time></trkpt><trkpt lat="39.117181235679546" lon="16.258310251388927"><ele>213.99999999999997</ele><time>2026-05-01T15:38:07Z</time></trkpt><trkpt lat="39.117070741837054" lon="16.258273601467778"><ele>213.99999999999997</ele><time>2026-05-01T15:38:08Z</time></trkpt><trkpt lat="39.11696051083515" lon="16.258257522887533"><ele>214.0</ele><time>2026-05-01T15:38:09Z</time></trkpt><trkpt lat="39.11685118652136" lon="16.258257688110383"><ele>214.0</ele><time>2026-05-01T15:38:10Z</time></trkpt><trkpt lat="39.11674418070624" lon="16.258285566201614"><ele>214.0</ele><time>2026-05-01T15:38:11Z</time></trkpt><trkpt lat="39.116640746947354" lon="16.25832986893213"><ele>213.99999999999997</ele><time>2026-05-01T15:38:12Z</time></trkpt><trkpt lat="39.116541222762194" lon="16.258383472246184"><ele>213.99999999999997</ele><time>2026-05-01T15:38:13Z</time></trkpt><trkpt lat="39.116441856797614" lon="16.258429053241876"><ele>214.0</ele><time>2026-05-01T15:38:14Z</time></trkpt><trkpt lat="39.116344925028145" lon="16.258475127352234"><ele>214.0</ele><time>2026-05-01T15:38:15Z</time></trkpt><trkpt lat="39.11624536058645" lon="16.258519400463225"><ele>216.0</ele><time>2026-05-01T15:38:16Z</time></trkpt><trkpt lat="39.11614780724277" lon="16.25856209658756"><ele>217.99999999999997</ele><time>2026-05-01T15:38:17Z</time></trkpt><trkpt lat="39.116050501854" lon="16.25860679974559"><ele>219.99999999999997</ele><time>2026-05-01T15:38:18Z</time></trkpt><trkpt lat="39.115951601368714" lon="16.258647003786862"><ele>222.0</ele><time>2026-05-01T15:38:19Z</time></trkpt><trkpt lat="39.115850624542226" lon="16.258671674714297"><ele>224.0</ele><time>2026-05-01T15:38:20Z</time></trkpt><trkpt lat="39.11574821843" lon="16.25866846855106"><ele>222.79999999999998</ele><time>2026-05-01T15:38:21Z</time></trkpt><trkpt lat="39.11564978854507" lon="16.258647251537333"><ele>221.59999999999997</ele><time>2026-05-01T15:38:22Z</time></trkpt><trkpt lat="39.11555644639717" lon="16.258608935336046"><ele>220.4</ele><time>2026-05-01T15:38:23Z</time></trkpt><trkpt lat="39.11547096753509" lon="16.258534715947665"><ele>219.2</ele><time>2026-05-01T15:38:24Z</time></trkpt><trkpt lat="39.115393721405994" lon="16.258456650371343"><ele>218.0</ele><time>2026-05-01T15:38:25Z</time></trkpt><trkpt lat="39.11531437532598" lon="16.258379965472713"><ele>218.0</ele><time>2026-05-01T15:38:26Z</time></trkpt><trkpt lat="39.115237627211" lon="16.258303700060107"><ele>218.0</ele><time>2026-05-01T15:38:27Z</time></trkpt><trkpt lat="39.11515688462165" lon="16.258225800004602"><ele>218.0</ele><time>2026-05-01T15:38:28Z</time></trkpt><trkpt lat="39.11507415301197" lon="16.25815452578343"><ele>218.0</ele><time>2026-05-01T15:38:29Z</time></trkpt><trkpt lat="39.11499486614176" lon="16.258076959765294"><ele>218.0</ele><time>2026-05-01T15:38:30Z</time></trkpt><trkpt lat="39.11491698866575" lon="16.258000179297067"><ele>217.8</ele><time>2026-05-01T15:38:31Z</time></trkpt><trkpt lat="39.11483723802291" lon="16.257921100086136"><ele>217.60000000000002</ele><time>2026-05-01T15:38:32Z</time></trkpt><trkpt lat="39.11475885075249" lon="16.25784507998061"><ele>217.39999999999998</ele><time>2026-05-01T15:38:33Z</time></trkpt><trkpt lat="39.11467828437872" lon="16.257770856067857"><ele>217.2</ele><time>2026-05-01T15:38:34Z</time></trkpt><trkpt lat="39.11459552306102" lon="16.25769795949377"><ele>217.0</ele><time>2026-05-01T15:38:35Z</time></trkpt><trkpt lat="39.11450958426345" lon="16.25762197942072"><ele>217.0</ele><time>2026-05-01T15:38:36Z</time></trkpt><trkpt lat="39.114418330213574" lon="16.25755614721489"><ele>217.0</ele><time>2026-05-01T15:38:37Z</time></trkpt><trkpt lat="39.1143216746385" lon="16.257497700970188"><ele>217.0</ele><time>2026-05-01T15:38:38Z</time></trkpt><trkpt lat="39.11422605107747" lon="16.257440909845798"><ele>217.0</ele><time>2026-05-01T15:38:39Z</time></trkpt><trkpt lat="39.11413053770748" lon="16.257382225784813"><ele>217.0</ele><time>2026-05-01T15:38:40Z</time></trkpt><trkpt lat="39.11403265362591" lon="16.257317854962988"><ele>215.75</ele><time>2026-05-01T15:38:41Z</time></trkpt><trkpt lat="39.113931991619324" lon="16.25725302683006"><ele>214.5</ele><time>2026-05-01T15:38:42Z</time></trkpt><trkpt lat="39.11382915367355" lon="16.257188369706597"><ele>213.25</ele><time>2026-05-01T15:38:43Z</time></trkpt><trkpt lat="39.11372775861838" lon="16.257120250494847"><ele>212.0</ele><time>2026-05-01T15:38:44Z</time></trkpt><trkpt lat="39.11362646351963" lon="16.25705049888646"><ele>212.0</ele><time>2026-05-01T15:38:45Z</time></trkpt><trkpt lat="39.113524292232206" lon="16.25698292197569"><ele>212.0</ele><time>2026-05-01T15:38:46Z</time></trkpt><trkpt lat="39.113423759416605" lon="16.25691966813722"><ele>212.0</ele><time>2026-05-01T15:38:47Z</time></trkpt><trkpt lat="39.11332763996206" lon="16.256856554916585"><ele>212.0</ele><time>2026-05-01T15:38:48Z</time></trkpt><trkpt lat="39.113231222462886" lon="16.256789405466336"><ele>212.0</ele><time>2026-05-01T15:38:49Z</time></trkpt><trkpt lat="39.11313277846707" lon="16.256725301834035"><ele>208.0</ele><time>2026-05-01T15:38:50Z</time></trkpt><trkpt lat="39.113030033323234" lon="16.25666208387494"><ele>204.0</ele><time>2026-05-01T15:38:51Z</time></trkpt><trkpt lat="39.112926273810785" lon="16.256598726122412"><ele>200.0</ele><time>2026-05-01T15:38:52Z</time></trkpt><trkpt lat="39.11282073413106" lon="16.256538254991277"><ele>196.0</ele><time>2026-05-01T15:38:53Z</time></trkpt><trkpt lat="39.112715769255786" lon="16.256483304862748"><ele>195.5</ele><time>2026-05-01T15:38:54Z</time></trkpt><trkpt lat="39.11260440372942" lon="16.256438413123398"><ele>195.0</ele><time>2026-05-01T15:38:55Z</time></trkpt><trkpt lat="39.112491887652695" lon="16.25639266326471"><ele>194.5</ele><time>2026-05-01T15:38:56Z</time></trkpt><trkpt lat="39.11237950416794" lon="16.25635029200058"><ele>194.0</ele><time>2026-05-01T15:38:57Z</time></trkpt><trkpt lat="39.11227332037542" lon="16.256305557002527"><ele>194.0</ele><time>2026-05-01T15:38:58Z</time></trkpt><trkpt lat="39.1121640855891" lon="16.256261679746896"><ele>194.0</ele><time>2026-05-01T15:38:59Z</time></trkpt><trkpt lat="39.112061212635524" lon="16.2561999971398"><ele>194.0</ele><time>2026-05-01T15:39:00Z</time></trkpt><trkpt lat="39.11196001040607" lon="16.2561374507802"><ele>194.0</ele><time>2026-05-01T15:39:01Z</time></trkpt><trkpt lat="39.111864717314965" lon="16.256070794970196"><ele>194.0</ele><time>2026-05-01T15:39:02Z</time></trkpt><trkpt lat="39.11176909120022" lon="16.25599136441359"><ele>194.0</ele><time>2026-05-01T15:39:03Z</time></trkpt><trkpt lat="39.11167431095332" lon="16.25590877089659"><ele>194.0</ele><time>2026-05-01T15:39:04Z</time></trkpt><trkpt lat="39.11157835945771" lon="16.255815749447958"><ele>194.0</ele><time>2026-05-01T15:39:05Z</time></trkpt><trkpt lat="39.11148369214565" lon="16.255719023449316"><ele>194.0</ele><time>2026-05-01T15:39:06Z</time></trkpt><trkpt lat="39.111381314249286" lon="16.255617780939687"><ele>195.0</ele><time>2026-05-01T15:39:07Z</time></trkpt><trkpt lat="39.11127912124345" lon="16.255515133610874"><ele>196.0</ele><time>2026-05-01T15:39:08.001Z</time></trkpt><trkpt lat="39.111180750577994" lon="16.25541345151467"><ele>197.0</ele><time>2026-05-01T15:39:09.001Z</time></trkpt><trkpt lat="39.11107968484842" lon="16.25531747884162"><ele>198.0</ele><time>2026-05-01T15:39:10.001Z</time></trkpt><trkpt lat="39.110981394320454" lon="16.255224199623857"><ele>198.0</ele><time>2026-05-01T15:39:11.001Z</time></trkpt><trkpt lat="39.11088530883094" lon="16.25512977535281"><ele>198.0</ele><time>2026-05-01T15:39:12.001Z</time></trkpt><trkpt lat="39.110788341683666" lon="16.25503367181923"><ele>198.0</ele><time>2026-05-01T15:39:13.001Z</time></trkpt><trkpt lat="39.1106955242202" lon="16.254939879948957"><ele>198.0</ele><time>2026-05-01T15:39:14.001Z</time></trkpt><trkpt lat="39.11058668507636" lon="16.254845002644604"><ele>197.0</ele><time>2026-05-01T15:39:15.001Z</time></trkpt><trkpt lat="39.11048616149505" lon="16.254744820096843"><ele>196.0</ele><time>2026-05-01T15:39:16.001Z</time></trkpt><trkpt lat="39.110385603398456" lon="16.254644107428092"><ele>195.0</ele><time>2026-05-01T15:39:17.001Z</time></trkpt><trkpt lat="39.11028779773792" lon="16.25455159015802"><ele>194.0</ele><time>2026-05-01T15:39:18.001Z</time></trkpt><trkpt lat="39.11018584634516" lon="16.254464358348198"><ele>194.0</ele><time>2026-05-01T15:39:19.001Z</time></trkpt><trkpt lat="39.110081593697295" lon="16.254383799761886"><ele>194.0</ele><time>2026-05-01T15:39:20.001Z</time></trkpt><trkpt lat="39.10997644285203" lon="16.25430304332444"><ele>194.0</ele><time>2026-05-01T15:39:21.001Z</time></trkpt><trkpt lat="39.109870908503474" lon="16.25422732393015"><ele>194.0</ele><time>2026-05-01T15:39:22.001Z</time></trkpt><trkpt lat="39.10976536826379" lon="16.25414955105"><ele>195.0</ele><time>2026-05-01T15:39:23.001Z</time></trkpt><trkpt lat="39.109660618434035" lon="16.254072139114527"><ele>196.0</ele><time>2026-05-01T15:39:24.001Z</time></trkpt><trkpt lat="39.10955774528442" lon="16.25398964653064"><ele>197.0</ele><time>2026-05-01T15:39:25Z</time></trkpt><trkpt lat="39.10945818606958" lon="16.253910321436464"><ele>198.0</ele><time>2026-05-01T15:39:26Z</time></trkpt><trkpt lat="39.10936138045343" lon="16.253837466357897"><ele>198.0</ele><time>2026-05-01T15:39:27Z</time></trkpt><trkpt lat="39.10926354490839" lon="16.253776861434847"><ele>198.0</ele><time>2026-05-01T15:39:28Z</time></trkpt><trkpt lat="39.10916388166175" lon="16.25373395688351"><ele>198.0</ele><time>2026-05-01T15:39:29Z</time></trkpt><trkpt lat="39.109064960073106" lon="16.25370242433417"><ele>198.0</ele><time>2026-05-01T15:39:30Z</time></trkpt><trkpt lat="39.10896496701968" lon="16.25369546453346"><ele>198.0</ele><time>2026-05-01T15:39:31Z</time></trkpt><trkpt lat="39.10886381768998" lon="16.253689642946195"><ele>196.4</ele><time>2026-05-01T15:39:32Z</time></trkpt><trkpt lat="39.10876442746336" lon="16.253683168387163"><ele>194.8</ele><time>2026-05-01T15:39:33Z</time></trkpt><trkpt lat="39.10866844104613" lon="16.253679851183865"><ele>193.2</ele><time>2026-05-01T15:39:34Z</time></trkpt><trkpt lat="39.10856815582925" lon="16.253675042700916"><ele>191.6</ele><time>2026-05-01T15:39:35Z</time></trkpt><trkpt lat="39.108464899544586" lon="16.25367081654183"><ele>190.0</ele><time>2026-05-01T15:39:36Z</time></trkpt><trkpt lat="39.10835617209442" lon="16.253667172097703"><ele>190.0</ele><time>2026-05-01T15:39:37Z</time></trkpt><trkpt lat="39.10824717034007" lon="16.253664527659915"><ele>190.0</ele><time>2026-05-01T15:39:38Z</time></trkpt><trkpt lat="39.10813581479599" lon="16.25366117778125"><ele>190.0</ele><time>2026-05-01T15:39:39Z</time></trkpt><trkpt lat="39.10802424981987" lon="16.25365665297079"><ele>190.0</ele><time>2026-05-01T15:39:40Z</time></trkpt><trkpt lat="39.107913903222446" lon="16.25364600204879"><ele>190.0</ele><time>2026-05-01T15:39:41Z</time></trkpt><trkpt lat="39.10780565174592" lon="16.25362774825447"><ele>188.6</ele><time>2026-05-01T15:39:42Z</time></trkpt><trkpt lat="39.107703851221224" lon="16.253588309466867"><ele>187.2</ele><time>2026-05-01T15:39:43Z</time></trkpt><trkpt lat="39.107611449527965" lon="16.253524972354825"><ele>185.8</ele><time>2026-05-01T15:39:44Z</time></trkpt><trkpt lat="39.107539865865" lon="16.253441691536704"><ele>184.4</ele><time>2026-05-01T15:39:45Z</time></trkpt><trkpt lat="39.10748212424694" lon="16.25333973100575"><ele>183.0</ele><time>2026-05-01T15:39:46Z</time></trkpt><trkpt lat="39.10743190472591" lon="16.253231314089966"><ele>183.4</ele><time>2026-05-01T15:39:47Z</time></trkpt><trkpt lat="39.107375291237645" lon="16.253119378344365"><ele>183.8</ele><time>2026-05-01T15:39:48Z</time></trkpt><trkpt lat="39.107316413659746" lon="16.25300980950805"><ele>184.2</ele><time>2026-05-01T15:39:49Z</time></trkpt><trkpt lat="39.10725617865091" lon="16.252896065828285"><ele>184.6</ele><time>2026-05-01T15:39:50Z</time></trkpt><trkpt lat="39.107193523109146" lon="16.252788122170305"><ele>185.0</ele><time>2026-05-01T15:39:51Z</time></trkpt><trkpt lat="39.10713075064161" lon="16.252673283935696"><ele>185.0</ele><time>2026-05-01T15:39:52Z</time></trkpt><trkpt lat="39.10706605974331" lon="16.25256125828944"><ele>185.0</ele><time>2026-05-01T15:39:53Z</time></trkpt><trkpt lat="39.10699939867952" lon="16.25244965245811"><ele>185.0</ele><time>2026-05-01T15:39:54Z</time></trkpt><trkpt lat="39.10693777827461" lon="16.2523313897215"><ele>185.0</ele><time>2026-05-01T15:39:55Z</time></trkpt><trkpt lat="39.10687253011862" lon="16.252214295757277"><ele>185.0</ele><time>2026-05-01T15:39:56Z</time></trkpt><trkpt lat="39.10680256256869" lon="16.25210266738706"><ele>186.5</ele><time>2026-05-01T15:39:57Z</time></trkpt><trkpt lat="39.106730032107386" lon="16.251987327005583"><ele>188.0</ele><time>2026-05-01T15:39:58Z</time></trkpt><trkpt lat="39.106651911540936" lon="16.25188257504521"><ele>189.5</ele><time>2026-05-01T15:39:59Z</time></trkpt><trkpt lat="39.10656432513607" lon="16.25178473316671"><ele>191.0</ele><time>2026-05-01T15:40:00Z</time></trkpt><trkpt lat="39.10647047233648" lon="16.251697660321494"><ele>191.0</ele><time>2026-05-01T15:40:01Z</time></trkpt><trkpt lat="39.10637390817357" lon="16.25161443757346"><ele>191.0</ele><time>2026-05-01T15:40:02Z</time></trkpt><trkpt lat="39.106274339874865" lon="16.25153371120772"><ele>191.0</ele><time>2026-05-01T15:40:03Z</time></trkpt><trkpt lat="39.10618067391275" lon="16.251454559339752"><ele>191.0</ele><time>2026-05-01T15:40:04Z</time></trkpt><trkpt lat="39.10608274887992" lon="16.251380691705116"><ele>192.0</ele><time>2026-05-01T15:40:05Z</time></trkpt><trkpt lat="39.10598304250254" lon="16.251304534920234"><ele>193.0</ele><time>2026-05-01T15:40:06Z</time></trkpt><trkpt lat="39.10588694057486" lon="16.25122335084482"><ele>194.0</ele><time>2026-05-01T15:40:07Z</time></trkpt><trkpt lat="39.105791363229706" lon="16.25114285234073"><ele>195.0</ele><time>2026-05-01T15:40:08Z</time></trkpt><trkpt lat="39.10569423380513" lon="16.251066059192432"><ele>195.0</ele><time>2026-05-01T15:40:09Z</time></trkpt><trkpt lat="39.105597917452435" lon="16.25098728648082"><ele>195.0</ele><time>2026-05-01T15:40:10Z</time></trkpt><trkpt lat="39.10550074766705" lon="16.25091129171147"><ele>195.0</ele><time>2026-05-01T15:40:11Z</time></trkpt><trkpt lat="39.105404406481505" lon="16.250836753511507"><ele>195.0</ele><time>2026-05-01T15:40:12Z</time></trkpt><trkpt lat="39.10530842219177" lon="16.250759170278233"><ele>195.0</ele><time>2026-05-01T15:40:13Z</time></trkpt><trkpt lat="39.105214531624505" lon="16.250676290237095"><ele>195.0</ele><time>2026-05-01T15:40:14Z</time></trkpt><trkpt lat="39.10511999688638" lon="16.250585895190724"><ele>195.0</ele><time>2026-05-01T15:40:15Z</time></trkpt><trkpt lat="39.10503043303315" lon="16.250489029178077"><ele>195.0</ele><time>2026-05-01T15:40:16Z</time></trkpt><trkpt lat="39.10494203535197" lon="16.250383723557732"><ele>192.75</ele><time>2026-05-01T15:40:17Z</time></trkpt><trkpt lat="39.104858094159106" lon="16.250267155970782"><ele>190.5</ele><time>2026-05-01T15:40:18Z</time></trkpt><trkpt lat="39.104779169709865" lon="16.250140668451706"><ele>188.25</ele><time>2026-05-01T15:40:19Z</time></trkpt><trkpt lat="39.104703897584294" lon="16.250005062896204"><ele>186.0</ele><time>2026-05-01T15:40:20Z</time></trkpt><trkpt lat="39.104636417439394" lon="16.249860457820617"><ele>187.5</ele><time>2026-05-01T15:40:21Z</time></trkpt><trkpt lat="39.10457633405584" lon="16.249708055781575"><ele>189.0</ele><time>2026-05-01T15:40:22Z</time></trkpt><trkpt lat="39.10452456694439" lon="16.24954532155851"><ele>190.5</ele><time>2026-05-01T15:40:23Z</time></trkpt><trkpt lat="39.10447649816998" lon="16.249378352752"><ele>192.0</ele><time>2026-05-01T15:40:24Z</time></trkpt><trkpt lat="39.10443052509943" lon="16.249212104115486"><ele>192.0</ele><time>2026-05-01T15:40:25Z</time></trkpt><trkpt lat="39.10438411639343" lon="16.249051472302245"><ele>192.0</ele><time>2026-05-01T15:40:26Z</time></trkpt><trkpt lat="39.10433662748673" lon="16.248901104618252"><ele>192.0</ele><time>2026-05-01T15:40:27Z</time></trkpt><trkpt lat="39.104294769580996" lon="16.248755911686374"><ele>192.0</ele><time>2026-05-01T15:40:28Z</time></trkpt><trkpt lat="39.10425817040264" lon="16.2486149456342"><ele>193.39999999999998</ele><time>2026-05-01T15:40:29Z</time></trkpt><trkpt lat="39.104223284867025" lon="16.248485942485235"><ele>194.79999999999998</ele><time>2026-05-01T15:40:30Z</time></trkpt><trkpt lat="39.104188617535655" lon="16.248362507005293"><ele>196.2</ele><time>2026-05-01T15:40:31Z</time></trkpt><trkpt lat="39.10415568714937" lon="16.24824782765693"><ele>197.6</ele><time>2026-05-01T15:40:32Z</time></trkpt><trkpt lat="39.10412596151834" lon="16.248138810850808"><ele>199.0</ele><time>2026-05-01T15:40:33Z</time></trkpt><trkpt lat="39.104098936608565" lon="16.2480387896113"><ele>198.14285714285714</ele><time>2026-05-01T15:40:34Z</time></trkpt><trkpt lat="39.10407424552914" lon="16.247943322480637"><ele>197.28571428571428</ele><time>2026-05-01T15:40:35Z</time></trkpt><trkpt lat="39.10405064409231" lon="16.247856244845167"><ele>196.42857142857144</ele><time>2026-05-01T15:40:36Z</time></trkpt><trkpt lat="39.10403072207333" lon="16.24777285157473"><ele>195.57142857142856</ele><time>2026-05-01T15:40:37Z</time></trkpt><trkpt lat="39.103980877022224" lon="16.247705867224056"><ele>194.71428571428572</ele><time>2026-05-01T15:40:38Z</time></trkpt><trkpt lat="39.10399386582079" lon="16.247602659289658"><ele>193.85714285714286</ele><time>2026-05-01T15:40:39Z</time></trkpt><trkpt lat="39.10398334682851" lon="16.247515593392873"><ele>193.0</ele><time>2026-05-01T15:40:40Z</time></trkpt><trkpt lat="39.10398552404187" lon="16.247424454453714"><ele>192.99999999999997</ele><time>2026-05-01T15:40:41Z</time></trkpt><trkpt lat="39.104001892277154" lon="16.247331040273366"><ele>193.0</ele><time>2026-05-01T15:40:42Z</time></trkpt><trkpt lat="39.104037549770084" lon="16.24724183639544"><ele>193.0</ele><time>2026-05-01T15:40:43Z</time></trkpt><trkpt lat="39.1040851696508" lon="16.24716372121894"><ele>193.0</ele><time>2026-05-01T15:40:44Z</time></trkpt><trkpt lat="39.10413232624397" lon="16.24708495408276"><ele>192.99999999999997</ele><time>2026-05-01T15:40:45Z</time></trkpt><trkpt lat="39.104189623058765" lon="16.24701453849608"><ele>193.0</ele><time>2026-05-01T15:40:46Z</time></trkpt><trkpt lat="39.104307905010174" lon="16.247031136090833"><ele>194.0</ele><time>2026-05-01T15:40:47Z</time></trkpt><trkpt lat="39.10439870930753" lon="16.2470214133187"><ele>195.0</ele><time>2026-05-01T15:40:48Z</time></trkpt><trkpt lat="39.10449666628419" lon="16.24703080843813"><ele>196.0</ele><time>2026-05-01T15:40:49Z</time></trkpt><trkpt lat="39.10459924381609" lon="16.247076664854408"><ele>197.0</ele><time>2026-05-01T15:40:50Z</time></trkpt><trkpt lat="39.10470269195462" lon="16.247157261350463"><ele>198.0</ele><time>2026-05-01T15:40:51Z</time></trkpt><trkpt lat="39.10480052440558" lon="16.247233632625868"><ele>200.0</ele><time>2026-05-01T15:40:52Z</time></trkpt><trkpt lat="39.10491173109081" lon="16.247314219435857"><ele>202.0</ele><time>2026-05-01T15:40:53Z</time></trkpt><trkpt lat="39.10500319928622" lon="16.247336389181942"><ele>204.0</ele><time>2026-05-01T15:40:54Z</time></trkpt><trkpt lat="39.10515924735019" lon="16.24743080772016"><ele>206.0</ele><time>2026-05-01T15:40:55Z</time></trkpt><trkpt lat="39.10530326872094" lon="16.247520912511916"><ele>208.33333333333334</ele><time>2026-05-01T15:40:56Z</time></trkpt><trkpt lat="39.10544787567117" lon="16.247609811783697"><ele>210.66666666666669</ele><time>2026-05-01T15:40:57Z</time></trkpt><trkpt lat="39.105590823012776" lon="16.247666878496368"><ele>213.0</ele><time>2026-05-01T15:40:58Z</time></trkpt><trkpt lat="39.10573335414783" lon="16.247727606397085"><ele>212.25</ele><time>2026-05-01T15:40:59Z</time></trkpt><trkpt lat="39.1058806947805" lon="16.247756314221988"><ele>211.5</ele><time>2026-05-01T15:41:00Z</time></trkpt><trkpt lat="39.10603044573082" lon="16.247761907627552"><ele>210.75</ele><time>2026-05-01T15:41:01Z</time></trkpt><trkpt lat="39.10617466335117" lon="16.247773611601986"><ele>210.0</ele><time>2026-05-01T15:41:02Z</time></trkpt><trkpt lat="39.106320589519505" lon="16.247788561234817"><ele>210.0</ele><time>2026-05-01T15:41:03Z</time></trkpt><trkpt lat="39.10645657857756" lon="16.247803803448477"><ele>210.0</ele><time>2026-05-01T15:41:04Z</time></trkpt><trkpt lat="39.10657320743397" lon="16.24781741616451"><ele>210.0</ele><time>2026-05-01T15:41:05Z</time></trkpt><trkpt lat="39.10667006113275" lon="16.247836038782427"><ele>210.0</ele><time>2026-05-01T15:41:06Z</time></trkpt><trkpt lat="39.106747997693915" lon="16.247870018770254"><ele>210.0</ele><time>2026-05-01T15:41:07Z</time></trkpt><trkpt lat="39.106802241294595" lon="16.24792818747306"><ele>211.66666666666666</ele><time>2026-05-01T15:41:08Z</time></trkpt><trkpt lat="39.106797138250116" lon="16.24802189267483"><ele>213.33333333333331</ele><time>2026-05-01T15:41:09Z</time></trkpt><trkpt lat="39.106771206764456" lon="16.248143249400208"><ele>215.0</ele><time>2026-05-01T15:41:11Z</time></trkpt><trkpt lat="39.106714646424" lon="16.248204516863893"><ele>216.66666666666666</ele><time>2026-05-01T15:41:12Z</time></trkpt><trkpt lat="39.10662379757022" lon="16.248220355643998"><ele>218.33333333333331</ele><time>2026-05-01T15:41:13Z</time></trkpt><trkpt lat="39.106531613813424" lon="16.248223839839383"><ele>220.0</ele><time>2026-05-01T15:41:14Z</time></trkpt><trkpt lat="39.10642305960372" lon="16.24822411326091"><ele>220.33333333333331</ele><time>2026-05-01T15:41:15Z</time></trkpt><trkpt lat="39.10630060182987" lon="16.248234302117893"><ele>220.66666666666669</ele><time>2026-05-01T15:41:16Z</time></trkpt><trkpt lat="39.1060542005291" lon="16.24822556837176"><ele>221.0</ele><time>2026-05-01T15:41:18Z</time></trkpt><trkpt lat="39.105916395715674" lon="16.24822419617095"><ele>221.0</ele><time>2026-05-01T15:41:19Z</time></trkpt><trkpt lat="39.10577382985301" lon="16.248219276064823"><ele>221.0</ele><time>2026-05-01T15:41:20Z</time></trkpt><trkpt lat="39.10563165186532" lon="16.248208731796467"><ele>221.0</ele><time>2026-05-01T15:41:21Z</time></trkpt><trkpt lat="39.105487401442396" lon="16.248190700845655"><ele>221.0</ele><time>2026-05-01T15:41:22Z</time></trkpt><trkpt lat="39.105355227018016" lon="16.248146201234313"><ele>219.0</ele><time>2026-05-01T15:41:23Z</time></trkpt><trkpt lat="39.10523315566349" lon="16.248067461073315"><ele>217.0</ele><time>2026-05-01T15:41:24Z</time></trkpt><trkpt lat="39.10511764743984" lon="16.24794789544274"><ele>215.0</ele><time>2026-05-01T15:41:25Z</time></trkpt><trkpt lat="39.10501197982985" lon="16.247822487894137"><ele>213.0</ele><time>2026-05-01T15:41:26Z</time></trkpt><trkpt lat="39.10489541076257" lon="16.247713647717138"><ele>210.66666666666669</ele><time>2026-05-01T15:41:27Z</time></trkpt><trkpt lat="39.104827417089275" lon="16.24751315346113"><ele>208.33333333333334</ele><time>2026-05-01T15:41:28Z</time></trkpt><trkpt lat="39.10473464616609" lon="16.24734570405249"><ele>206.0</ele><time>2026-05-01T15:41:29Z</time></trkpt><trkpt lat="39.10463450977197" lon="16.24717545898066"><ele>203.33333333333334</ele><time>2026-05-01T15:41:30Z</time></trkpt><trkpt lat="39.104531799288026" lon="16.24699708268305"><ele>200.66666666666669</ele><time>2026-05-01T15:41:31Z</time></trkpt><trkpt lat="39.10442509290512" lon="16.246811599327543"><ele>198.0</ele><time>2026-05-01T15:41:32Z</time></trkpt><trkpt lat="39.10431228093059" lon="16.246623480345825"><ele>193.0</ele><time>2026-05-01T15:41:33Z</time></trkpt><trkpt lat="39.10419954484154" lon="16.246426075886987"><ele>188.0</ele><time>2026-05-01T15:41:34Z</time></trkpt><trkpt lat="39.104078043015825" lon="16.246221921083485"><ele>183.0</ele><time>2026-05-01T15:41:35Z</time></trkpt><trkpt lat="39.10396319174389" lon="16.24601043417391"><ele>183.0</ele><time>2026-05-01T15:41:36Z</time></trkpt><trkpt lat="39.10383545797491" lon="16.245804542812067"><ele>183.0</ele><time>2026-05-01T15:41:37Z</time></trkpt><trkpt lat="39.103697080739174" lon="16.245593296153853"><ele>183.0</ele><time>2026-05-01T15:41:38Z</time></trkpt><trkpt lat="39.10355138072966" lon="16.245381665013014"><ele>181.5</ele><time>2026-05-01T15:41:39Z</time></trkpt><trkpt lat="39.10339830385267" lon="16.245163641590267"><ele>180.0</ele><time>2026-05-01T15:41:40Z</time></trkpt><trkpt lat="39.10324149151632" lon="16.244949243067918"><ele>185.5</ele><time>2026-05-01T15:41:41Z</time></trkpt><trkpt lat="39.10307993264397" lon="16.244725752329437"><ele>191.0</ele><time>2026-05-01T15:41:42Z</time></trkpt><trkpt lat="39.10291555820359" lon="16.244496388789837"><ele>191.0</ele><time>2026-05-01T15:41:43Z</time></trkpt><trkpt lat="39.102746702422436" lon="16.24426736988212"><ele>191.0</ele><time>2026-05-01T15:41:44Z</time></trkpt><trkpt lat="39.10257765059428" lon="16.24403418364311"><ele>199.5</ele><time>2026-05-01T15:41:45Z</time></trkpt><trkpt lat="39.10240853154028" lon="16.24379809199131"><ele>208.0</ele><time>2026-05-01T15:41:46Z</time></trkpt><trkpt lat="39.10224108705063" lon="16.24355364826933"><ele>208.0</ele><time>2026-05-01T15:41:47Z</time></trkpt><trkpt lat="39.1020752245488" lon="16.24331235676038"><ele>208.0</ele><time>2026-05-01T15:41:48Z</time></trkpt><trkpt lat="39.101906620808855" lon="16.243073436361804"><ele>215.5</ele><time>2026-05-01T15:41:49Z</time></trkpt><trkpt lat="39.10173792432761" lon="16.242831793330883"><ele>223.0</ele><time>2026-05-01T15:41:50Z</time></trkpt><trkpt lat="39.10157093467016" lon="16.242584736335846"><ele>223.0</ele><time>2026-05-01T15:41:51Z</time></trkpt><trkpt lat="39.101403912191124" lon="16.242323164762634"><ele>223.0</ele><time>2026-05-01T15:41:52Z</time></trkpt><trkpt lat="39.10123687464059" lon="16.24207181716686"><ele>227.5</ele><time>2026-05-01T15:41:53Z</time></trkpt><trkpt lat="39.101069726040734" lon="16.241808207588722"><ele>232.0</ele><time>2026-05-01T15:41:54Z</time></trkpt><trkpt lat="39.1009022370573" lon="16.241551609308523"><ele>235.0</ele><time>2026-05-01T15:41:55Z</time></trkpt><trkpt lat="39.10073288954665" lon="16.241287857427398"><ele>238.0</ele><time>2026-05-01T15:41:56Z</time></trkpt><trkpt lat="39.100570084083245" lon="16.2410369538125"><ele>238.0</ele><time>2026-05-01T15:41:57Z</time></trkpt><trkpt lat="39.10040632619361" lon="16.240774015322792"><ele>238.0</ele><time>2026-05-01T15:41:58Z</time></trkpt><trkpt lat="39.10023177307921" lon="16.24049763780079"><ele>225.5</ele><time>2026-05-01T15:41:59.069Z</time></trkpt><trkpt lat="39.1000649487218" lon="16.240234699411285"><ele>213.0</ele><time>2026-05-01T15:42:00.065Z</time></trkpt><trkpt lat="39.098563474984985" lon="16.238479247340322"><ele>192.0</ele><time>2026-05-01T15:42:03.626Z</time></trkpt><trkpt lat="39.097991982656275" lon="16.23791670865554"><ele>192.0</ele><time>2026-05-01T15:42:04.626Z</time></trkpt><trkpt lat="39.0978626" lon="16.237793"><ele>192.0</ele><time>2026-05-01T15:42:05.622Z</time></trkpt><trkpt lat="39.09698294210049" lon="16.236877919950825"><ele>182.0</ele><time>2026-05-01T15:42:13Z</time></trkpt><trkpt lat="39.09665142871917" lon="16.23652851037566"><ele>172.0</ele><time>2026-05-01T15:42:14Z</time></trkpt><trkpt lat="39.096412479966716" lon="16.236283302682928"><ele>171.0</ele><time>2026-05-01T15:42:15Z</time></trkpt><trkpt lat="39.096205142787554" lon="16.23601384121269"><ele>170.0</ele><time>2026-05-01T15:42:16Z</time></trkpt><trkpt lat="39.096002627334244" lon="16.235737811305263"><ele>170.0</ele><time>2026-05-01T15:42:17Z</time></trkpt><trkpt lat="39.09579277523488" lon="16.235466308158976"><ele>170.0</ele><time>2026-05-01T15:42:18Z</time></trkpt><trkpt lat="39.095586927176974" lon="16.23519660906397"><ele>170.0</ele><time>2026-05-01T15:42:19Z</time></trkpt><trkpt lat="39.09537732759079" lon="16.234936384892755"><ele>170.0</ele><time>2026-05-01T15:42:20Z</time></trkpt><trkpt lat="39.095162173023986" lon="16.23468959523398"><ele>170.0</ele><time>2026-05-01T15:42:21Z</time></trkpt><trkpt lat="39.09493989997737" lon="16.234451512008818"><ele>170.0</ele><time>2026-05-01T15:42:22Z</time></trkpt><trkpt lat="39.09471131597577" lon="16.234220127567653"><ele>170.0</ele><time>2026-05-01T15:42:23Z</time></trkpt><trkpt lat="39.094476518029616" lon="16.233998269889668"><ele>170.0</ele><time>2026-05-01T15:42:24Z</time></trkpt><trkpt lat="39.09423431089534" lon="16.233789727150242"><ele>166.5</ele><time>2026-05-01T15:42:25Z</time></trkpt><trkpt lat="39.093984685667316" lon="16.233590446194643"><ele>163.0</ele><time>2026-05-01T15:42:26Z</time></trkpt><trkpt lat="39.09373254583709" lon="16.23339913307544"><ele>163.0</ele><time>2026-05-01T15:42:27Z</time></trkpt><trkpt lat="39.09348127844771" lon="16.233204972537823"><ele>163.0</ele><time>2026-05-01T15:42:28Z</time></trkpt><trkpt lat="39.093228312509936" lon="16.23300613203257"><ele>161.0</ele><time>2026-05-01T15:42:29Z</time></trkpt><trkpt lat="39.092982237245764" lon="16.232806765699472"><ele>159.0</ele><time>2026-05-01T15:42:30Z</time></trkpt><trkpt lat="39.092737271103296" lon="16.232597035014713"><ele>159.0</ele><time>2026-05-01T15:42:31Z</time></trkpt><trkpt lat="39.092499039465544" lon="16.232374480266344"><ele>159.0</ele><time>2026-05-01T15:42:32Z</time></trkpt><trkpt lat="39.092265542496534" lon="16.23213539296369"><ele>159.5</ele><time>2026-05-01T15:42:33Z</time></trkpt><trkpt lat="39.092041737027294" lon="16.231885413652225"><ele>160.0</ele><time>2026-05-01T15:42:34Z</time></trkpt><trkpt lat="39.09182537103397" lon="16.231625116440682"><ele>158.5</ele><time>2026-05-01T15:42:35Z</time></trkpt><trkpt lat="39.091613291248315" lon="16.231349016919733"><ele>157.0</ele><time>2026-05-01T15:42:36Z</time></trkpt><trkpt lat="39.09141332467835" lon="16.2310632131309"><ele>156.5</ele><time>2026-05-01T15:42:37Z</time></trkpt><trkpt lat="39.09122215729036" lon="16.23076731789895"><ele>156.0</ele><time>2026-05-01T15:42:38Z</time></trkpt><trkpt lat="39.091037994802555" lon="16.230458960528093"><ele>155.5</ele><time>2026-05-01T15:42:39Z</time></trkpt><trkpt lat="39.09086032882786" lon="16.230139850176474"><ele>155.0</ele><time>2026-05-01T15:42:40Z</time></trkpt><trkpt lat="39.09069453927501" lon="16.22981502813721"><ele>156.0</ele><time>2026-05-01T15:42:41Z</time></trkpt><trkpt lat="39.09054075902361" lon="16.229474429214726"><ele>157.0</ele><time>2026-05-01T15:42:42Z</time></trkpt><trkpt lat="39.09040080153046" lon="16.229124262117747"><ele>157.5</ele><time>2026-05-01T15:42:43Z</time></trkpt><trkpt lat="39.090272262983746" lon="16.228764945372617"><ele>158.0</ele><time>2026-05-01T15:42:44Z</time></trkpt><trkpt lat="39.090155402722246" lon="16.228398475229085"><ele>156.5</ele><time>2026-05-01T15:42:45Z</time></trkpt><trkpt lat="39.090049365178196" lon="16.228028933199987"><ele>155.0</ele><time>2026-05-01T15:42:46Z</time></trkpt><trkpt lat="39.08995016526177" lon="16.22765184365525"><ele>153.5</ele><time>2026-05-01T15:42:47Z</time></trkpt><trkpt lat="39.0898611770889" lon="16.227272602005545"><ele>152.0</ele><time>2026-05-01T15:42:48Z</time></trkpt><trkpt lat="39.089777713049266" lon="16.22690110986258"><ele>152.0</ele><time>2026-05-01T15:42:49Z</time></trkpt><trkpt lat="39.089694395611424" lon="16.226522739010353"><ele>152.0</ele><time>2026-05-01T15:42:50Z</time></trkpt><trkpt lat="39.08960668903041" lon="16.226150050897424"><ele>152.0</ele><time>2026-05-01T15:42:51Z</time></trkpt><trkpt lat="39.08951643268384" lon="16.225780681260005"><ele>152.0</ele><time>2026-05-01T15:42:52Z</time></trkpt><trkpt lat="39.0894149675416" lon="16.225417351149943"><ele>152.0</ele><time>2026-05-01T15:42:53Z</time></trkpt><trkpt lat="39.08930264854148" lon="16.225063294683242"><ele>152.0</ele><time>2026-05-01T15:42:54Z</time></trkpt><trkpt lat="39.08917477578673" lon="16.22472026300363"><ele>150.5</ele><time>2026-05-01T15:42:55Z</time></trkpt><trkpt lat="39.08903613800851" lon="16.224378754349647"><ele>149.0</ele><time>2026-05-01T15:42:56Z</time></trkpt><trkpt lat="39.088885536724405" lon="16.224049161083204"><ele>148.5</ele><time>2026-05-01T15:42:57Z</time></trkpt><trkpt lat="39.08872407995455" lon="16.223729492072234"><ele>148.0</ele><time>2026-05-01T15:42:58Z</time></trkpt><trkpt lat="39.088550561274324" lon="16.223420719267786"><ele>147.0</ele><time>2026-05-01T15:42:59Z</time></trkpt><trkpt lat="39.08836961374795" lon="16.223124822859877"><ele>146.0</ele><time>2026-05-01T15:43:00Z</time></trkpt><trkpt lat="39.088171269396256" lon="16.22283555130369"><ele>146.0</ele><time>2026-05-01T15:43:01Z</time></trkpt><trkpt lat="39.08796580722115" lon="16.22256212918531"><ele>146.0</ele><time>2026-05-01T15:43:02Z</time></trkpt><trkpt lat="39.08775086967482" lon="16.22228651259102"><ele>146.0</ele><time>2026-05-01T15:43:03Z</time></trkpt><trkpt lat="39.08753723600363" lon="16.22203282561712"><ele>146.0</ele><time>2026-05-01T15:43:04Z</time></trkpt><trkpt lat="39.087318602179856" lon="16.221776375898322"><ele>147.5</ele><time>2026-05-01T15:43:05Z</time></trkpt><trkpt lat="39.087098666611034" lon="16.221515173816023"><ele>149.0</ele><time>2026-05-01T15:43:06Z</time></trkpt><trkpt lat="39.08687736361839" lon="16.22125747306435"><ele>149.0</ele><time>2026-05-01T15:43:07Z</time></trkpt><trkpt lat="39.08665896342193" lon="16.221002165830996"><ele>149.0</ele><time>2026-05-01T15:43:08Z</time></trkpt><trkpt lat="39.08643554152875" lon="16.220740186418517"><ele>147.5</ele><time>2026-05-01T15:43:09Z</time></trkpt><trkpt lat="39.08621473120572" lon="16.22047596440163"><ele>146.0</ele><time>2026-05-01T15:43:10Z</time></trkpt><trkpt lat="39.085994770903575" lon="16.220213251450463"><ele>146.0</ele><time>2026-05-01T15:43:11Z</time></trkpt><trkpt lat="39.08578183872991" lon="16.2199598360344"><ele>146.0</ele><time>2026-05-01T15:43:12Z</time></trkpt><trkpt lat="39.08557759351151" lon="16.21971267971452"><ele>145.0</ele><time>2026-05-01T15:43:13Z</time></trkpt><trkpt lat="39.085374715387374" lon="16.2194732891117"><ele>144.0</ele><time>2026-05-01T15:43:14Z</time></trkpt><trkpt lat="39.08516647573837" lon="16.219232477764272"><ele>143.5</ele><time>2026-05-01T15:43:15Z</time></trkpt><trkpt lat="39.08495106268101" lon="16.218980175860104"><ele>143.0</ele><time>2026-05-01T15:43:16Z</time></trkpt><trkpt lat="39.084736034040546" lon="16.218718388997132"><ele>143.0</ele><time>2026-05-01T15:43:17Z</time></trkpt><trkpt lat="39.0845209992709" lon="16.21845388697792"><ele>143.0</ele><time>2026-05-01T15:43:18Z</time></trkpt><trkpt lat="39.08430692265716" lon="16.218178092234552"><ele>142.0</ele><time>2026-05-01T15:43:19Z</time></trkpt><trkpt lat="39.084098311544935" lon="16.21789129569439"><ele>141.0</ele><time>2026-05-01T15:43:20Z</time></trkpt><trkpt lat="39.083890047446836" lon="16.21759128183616"><ele>141.5</ele><time>2026-05-01T15:43:21Z</time></trkpt><trkpt lat="39.083694896595695" lon="16.217289471026863"><ele>142.0</ele><time>2026-05-01T15:43:22Z</time></trkpt><trkpt lat="39.083500573596986" lon="16.21698440626677"><ele>142.0</ele><time>2026-05-01T15:43:23Z</time></trkpt><trkpt lat="39.08331617884185" lon="16.216674529632897"><ele>142.0</ele><time>2026-05-01T15:43:24Z</time></trkpt><trkpt lat="39.08313311008851" lon="16.216358625750726"><ele>149.5</ele><time>2026-05-01T15:43:25Z</time></trkpt><trkpt lat="39.08295672358182" lon="16.216043724076208"><ele>157.0</ele><time>2026-05-01T15:43:26Z</time></trkpt><trkpt lat="39.0827841220662" lon="16.215722617383477"><ele>151.5</ele><time>2026-05-01T15:43:27Z</time></trkpt><trkpt lat="39.0826211796716" lon="16.215395278936708"><ele>146.0</ele><time>2026-05-01T15:43:28Z</time></trkpt><trkpt lat="39.082461559208234" lon="16.215064448719097"><ele>150.0</ele><time>2026-05-01T15:43:29Z</time></trkpt><trkpt lat="39.08230842312484" lon="16.214726981375243"><ele>154.0</ele><time>2026-05-01T15:43:30Z</time></trkpt><trkpt lat="39.0821596491496" lon="16.21438224578732"><ele>154.0</ele><time>2026-05-01T15:43:31Z</time></trkpt><trkpt lat="39.082021521933626" lon="16.21403744305407"><ele>154.0</ele><time>2026-05-01T15:43:32Z</time></trkpt><trkpt lat="39.08188103166954" lon="16.213686945112872"><ele>150.0</ele><time>2026-05-01T15:43:33Z</time></trkpt><trkpt lat="39.08174763623745" lon="16.213334349328775"><ele>146.0</ele><time>2026-05-01T15:43:34Z</time></trkpt><trkpt lat="39.081622865948894" lon="16.212981022538806"><ele>153.0</ele><time>2026-05-01T15:43:35Z</time></trkpt><trkpt lat="39.08150558453905" lon="16.212621616601133"><ele>160.0</ele><time>2026-05-01T15:43:36Z</time></trkpt><trkpt lat="39.08139091292159" lon="16.21225505109244"><ele>160.0</ele><time>2026-05-01T15:43:37Z</time></trkpt><trkpt lat="39.08128582071971" lon="16.21188399293181"><ele>160.0</ele><time>2026-05-01T15:43:38Z</time></trkpt><trkpt lat="39.08119256171606" lon="16.21151328122041"><ele>156.5</ele><time>2026-05-01T15:43:39Z</time></trkpt><trkpt lat="39.081101437464405" lon="16.21113923588745"><ele>153.0</ele><time>2026-05-01T15:43:40Z</time></trkpt><trkpt lat="39.08101676135856" lon="16.210757858449636"><ele>149.5</ele><time>2026-05-01T15:43:41Z</time></trkpt><trkpt lat="39.080938209199644" lon="16.210378800763753"><ele>146.0</ele><time>2026-05-01T15:43:42Z</time></trkpt><trkpt lat="39.080866700206336" lon="16.21000301528833"><ele>144.0</ele><time>2026-05-01T15:43:43Z</time></trkpt><trkpt lat="39.08078987823788" lon="16.209622059650012"><ele>142.0</ele><time>2026-05-01T15:43:44Z</time></trkpt><trkpt lat="39.080711271042524" lon="16.20923729280177"><ele>152.5</ele><time>2026-05-01T15:43:45Z</time></trkpt><trkpt lat="39.080633425208624" lon="16.208865645363296"><ele>163.0</ele><time>2026-05-01T15:43:46Z</time></trkpt><trkpt lat="39.08055447104155" lon="16.208481701661523"><ele>153.5</ele><time>2026-05-01T15:43:47Z</time></trkpt><trkpt lat="39.08047907506835" lon="16.208103465711094"><ele>144.0</ele><time>2026-05-01T15:43:48Z</time></trkpt><trkpt lat="39.08039890727461" lon="16.207722416546396"><ele>144.0</ele><time>2026-05-01T15:43:49Z</time></trkpt><trkpt lat="39.080322992733365" lon="16.20734255758999"><ele>144.0</ele><time>2026-05-01T15:43:50Z</time></trkpt><trkpt lat="39.080257077582694" lon="16.206960516192627"><ele>140.0</ele><time>2026-05-01T15:43:51Z</time></trkpt><trkpt lat="39.08020171016463" lon="16.2065745150264"><ele>136.0</ele><time>2026-05-01T15:43:52Z</time></trkpt><trkpt lat="39.08015908814848" lon="16.206181346536756"><ele>134.0</ele><time>2026-05-01T15:43:53Z</time></trkpt><trkpt lat="39.08013141627374" lon="16.20579068976217"><ele>132.0</ele><time>2026-05-01T15:43:54Z</time></trkpt><trkpt lat="39.08008385357124" lon="16.205413933417006"><ele>130.5</ele><time>2026-05-01T15:43:55Z</time></trkpt><trkpt lat="39.080122898366994" lon="16.205011517677733"><ele>129.0</ele><time>2026-05-01T15:43:56Z</time></trkpt><trkpt lat="39.08014083855124" lon="16.204623245218237"><ele>129.0</ele><time>2026-05-01T15:43:57Z</time></trkpt><trkpt lat="39.08017810781953" lon="16.204231789499204"><ele>129.0</ele><time>2026-05-01T15:43:58Z</time></trkpt><trkpt lat="39.08022201559593" lon="16.203846249895413"><ele>132.5</ele><time>2026-05-01T15:43:59Z</time></trkpt><trkpt lat="39.08028233051936" lon="16.20346521112399"><ele>136.0</ele><time>2026-05-01T15:44:00Z</time></trkpt><trkpt lat="39.08035313027288" lon="16.20308429667902"><ele>140.0</ele><time>2026-05-01T15:44:01Z</time></trkpt><trkpt lat="39.080424153283744" lon="16.202705989403714"><ele>144.0</ele><time>2026-05-01T15:44:02Z</time></trkpt><trkpt lat="39.08049606318537" lon="16.202327764087226"><ele>144.5</ele><time>2026-05-01T15:44:03Z</time></trkpt><trkpt lat="39.08056511013887" lon="16.201941679401994"><ele>145.0</ele><time>2026-05-01T15:44:04Z</time></trkpt><trkpt lat="39.08062972500614" lon="16.201558374670796"><ele>145.0</ele><time>2026-05-01T15:44:05Z</time></trkpt><trkpt lat="39.08068459722111" lon="16.20117433356104"><ele>145.0</ele><time>2026-05-01T15:44:06Z</time></trkpt><trkpt lat="39.08073135680148" lon="16.200783383535857"><ele>143.5</ele><time>2026-05-01T15:44:07Z</time></trkpt><trkpt lat="39.08076120710034" lon="16.20039508347863"><ele>142.0</ele><time>2026-05-01T15:44:08Z</time></trkpt><trkpt lat="39.080770026657994" lon="16.200006706491724"><ele>142.0</ele><time>2026-05-01T15:44:09Z</time></trkpt><trkpt lat="39.080762854601836" lon="16.199623119355"><ele>142.0</ele><time>2026-05-01T15:44:10Z</time></trkpt><trkpt lat="39.08074267208621" lon="16.199231979289777"><ele>138.5</ele><time>2026-05-01T15:44:11Z</time></trkpt><trkpt lat="39.08071239488563" lon="16.198840195117274"><ele>135.0</ele><time>2026-05-01T15:44:12Z</time></trkpt><trkpt lat="39.080668749566" lon="16.198452335968025"><ele>131.0</ele><time>2026-05-01T15:44:13Z</time></trkpt><trkpt lat="39.080608855173935" lon="16.198067983663062"><ele>127.0</ele><time>2026-05-01T15:44:14Z</time></trkpt><trkpt lat="39.080532671926974" lon="16.197689524896735"><ele>123.0</ele><time>2026-05-01T15:44:15Z</time></trkpt><trkpt lat="39.08044366995551" lon="16.19731392433321"><ele>119.0</ele><time>2026-05-01T15:44:16Z</time></trkpt><trkpt lat="39.08034076127906" lon="16.196952843568344"><ele>119.0</ele><time>2026-05-01T15:44:17Z</time></trkpt><trkpt lat="39.08022305929979" lon="16.19658989468489"><ele>119.0</ele><time>2026-05-01T15:44:18Z</time></trkpt><trkpt lat="39.08009403933627" lon="16.19623622096281"><ele>117.5</ele><time>2026-05-01T15:44:19Z</time></trkpt><trkpt lat="39.07994663648937" lon="16.195894885654813"><ele>116.0</ele><time>2026-05-01T15:44:20Z</time></trkpt><trkpt lat="39.079789839475886" lon="16.195563773051028"><ele>119.0</ele><time>2026-05-01T15:44:21Z</time></trkpt><trkpt lat="39.07961355839505" lon="16.195233784500093"><ele>122.0</ele><time>2026-05-01T15:44:22Z</time></trkpt><trkpt lat="39.07943320229823" lon="16.194925094897762"><ele>119.0</ele><time>2026-05-01T15:44:23Z</time></trkpt><trkpt lat="39.07924068887332" lon="16.19462096135496"><ele>116.0</ele><time>2026-05-01T15:44:24Z</time></trkpt><trkpt lat="39.07903858675768" lon="16.19432795925649"><ele>116.0</ele><time>2026-05-01T15:44:25Z</time></trkpt><trkpt lat="39.07882637629287" lon="16.1940539438166"><ele>116.0</ele><time>2026-05-01T15:44:26Z</time></trkpt><trkpt lat="39.078602093134926" lon="16.193787706631174"><ele>117.5</ele><time>2026-05-01T15:44:27Z</time></trkpt><trkpt lat="39.07837259141144" lon="16.19353321222326"><ele>119.0</ele><time>2026-05-01T15:44:28Z</time></trkpt><trkpt lat="39.078136547466585" lon="16.193287548374588"><ele>115.0</ele><time>2026-05-01T15:44:29Z</time></trkpt><trkpt lat="39.07789430739474" lon="16.193054572473326"><ele>111.0</ele><time>2026-05-01T15:44:30Z</time></trkpt><trkpt lat="39.07764677173623" lon="16.19283266888806"><ele>117.5</ele><time>2026-05-01T15:44:31Z</time></trkpt><trkpt lat="39.07739375275805" lon="16.192620491470603"><ele>124.0</ele><time>2026-05-01T15:44:32Z</time></trkpt><trkpt lat="39.07714032912449" lon="16.19240548725878"><ele>118.0</ele><time>2026-05-01T15:44:33Z</time></trkpt><trkpt lat="39.07688580615756" lon="16.192185097482394"><ele>112.0</ele><time>2026-05-01T15:44:34Z</time></trkpt><trkpt lat="39.07663287142311" lon="16.191965016610585"><ele>114.5</ele><time>2026-05-01T15:44:35Z</time></trkpt><trkpt lat="39.07637964190638" lon="16.191744212165837"><ele>117.0</ele><time>2026-05-01T15:44:36Z</time></trkpt><trkpt lat="39.07612523014949" lon="16.19152777066606"><ele>116.5</ele><time>2026-05-01T15:44:37Z</time></trkpt><trkpt lat="39.075868132631804" lon="16.191312218442537"><ele>116.0</ele><time>2026-05-01T15:44:38Z</time></trkpt><trkpt lat="39.075610943630636" lon="16.191105229919014"><ele>116.0</ele><time>2026-05-01T15:44:39Z</time></trkpt><trkpt lat="39.07534750059817" lon="16.190906004862867"><ele>116.0</ele><time>2026-05-01T15:44:40Z</time></trkpt><trkpt lat="39.075079152464944" lon="16.19071760160224"><ele>113.0</ele><time>2026-05-01T15:44:41Z</time></trkpt><trkpt lat="39.07480893071656" lon="16.190542938018552"><ele>110.0</ele><time>2026-05-01T15:44:42Z</time></trkpt><trkpt lat="39.07453517733545" lon="16.190373836930895"><ele>110.0</ele><time>2026-05-01T15:44:43Z</time></trkpt><trkpt lat="39.07426180614647" lon="16.190217573397266"><ele>110.0</ele><time>2026-05-01T15:44:44Z</time></trkpt><trkpt lat="39.073986046054806" lon="16.19005422574789"><ele>108.5</ele><time>2026-05-01T15:44:45Z</time></trkpt><trkpt lat="39.073711118789355" lon="16.18987670097398"><ele>107.0</ele><time>2026-05-01T15:44:46Z</time></trkpt><trkpt lat="39.07345168989911" lon="16.18966828469795"><ele>121.0</ele><time>2026-05-01T15:44:47Z</time></trkpt><trkpt lat="39.07321233737771" lon="16.18942131390879"><ele>135.0</ele><time>2026-05-01T15:44:48Z</time></trkpt><trkpt lat="39.07300214856628" lon="16.189143749486448"><ele>126.5</ele><time>2026-05-01T15:44:49Z</time></trkpt><trkpt lat="39.072816458837316" lon="16.188838258692957"><ele>118.0</ele><time>2026-05-01T15:44:50Z</time></trkpt><trkpt lat="39.07264656991355" lon="16.188512619936414"><ele>118.0</ele><time>2026-05-01T15:44:51Z</time></trkpt><trkpt lat="39.072476172650106" lon="16.18819122902081"><ele>118.0</ele><time>2026-05-01T15:44:52Z</time></trkpt><trkpt lat="39.07229768771941" lon="16.18788270337437"><ele>116.0</ele><time>2026-05-01T15:44:53Z</time></trkpt><trkpt lat="39.07210204550567" lon="16.187581271112354"><ele>114.0</ele><time>2026-05-01T15:44:54Z</time></trkpt><trkpt lat="39.07189315656044" lon="16.187300194311508"><ele>114.0</ele><time>2026-05-01T15:44:55Z</time></trkpt><trkpt lat="39.07166610186765" lon="16.187061799438855"><ele>114.0</ele><time>2026-05-01T15:44:56Z</time></trkpt><trkpt lat="39.07142426210979" lon="16.186865767311733"><ele>118.5</ele><time>2026-05-01T15:44:57Z</time></trkpt><trkpt lat="39.07116101812961" lon="16.1866584447347"><ele>123.0</ele><time>2026-05-01T15:44:58Z</time></trkpt><trkpt lat="39.07091337350025" lon="16.186478092297236"><ele>114.0</ele><time>2026-05-01T15:44:59Z</time></trkpt><trkpt lat="39.07064634697455" lon="16.186295900605195"><ele>105.0</ele><time>2026-05-01T15:45:00Z</time></trkpt><trkpt lat="39.0703343266682" lon="16.186166814142275"><ele>105.0</ele><time>2026-05-01T15:45:01Z</time></trkpt><trkpt lat="39.06995098032054" lon="16.18619711178505"><ele>105.0</ele><time>2026-05-01T15:45:02Z</time></trkpt><trkpt lat="39.0696489803331" lon="16.18612854976578"><ele>110.0</ele><time>2026-05-01T15:45:03Z</time></trkpt><trkpt lat="39.06936325517501" lon="16.186024247673068"><ele>115.0</ele><time>2026-05-01T15:45:04Z</time></trkpt><trkpt lat="39.06910199687898" lon="16.185863881783124"><ele>118.5</ele><time>2026-05-01T15:45:05Z</time></trkpt><trkpt lat="39.06885651435907" lon="16.185647754418405"><ele>122.0</ele><time>2026-05-01T15:45:06Z</time></trkpt><trkpt lat="39.06863281159414" lon="16.18539248554299"><ele>122.0</ele><time>2026-05-01T15:45:07Z</time></trkpt><trkpt lat="39.06842908183795" lon="16.18511770488278"><ele>122.0</ele><time>2026-05-01T15:45:08Z</time></trkpt><trkpt lat="39.06826212500701" lon="16.18479804151045"><ele>126.5</ele><time>2026-05-01T15:45:09Z</time></trkpt><trkpt lat="39.0681158726112" lon="16.18446553178109"><ele>131.0</ele><time>2026-05-01T15:45:10Z</time></trkpt><trkpt lat="39.067994939030825" lon="16.18411051505901"><ele>134.5</ele><time>2026-05-01T15:45:11Z</time></trkpt><trkpt lat="39.06789441298759" lon="16.183742362764008"><ele>138.0</ele><time>2026-05-01T15:45:12Z</time></trkpt><trkpt lat="39.06779984030875" lon="16.18336451934126"><ele>134.5</ele><time>2026-05-01T15:45:13Z</time></trkpt><trkpt lat="39.06770300820011" lon="16.182988923907676"><ele>131.0</ele><time>2026-05-01T15:45:14Z</time></trkpt><trkpt lat="39.06759026624355" lon="16.182621522370653"><ele>129.5</ele><time>2026-05-01T15:45:15Z</time></trkpt><trkpt lat="39.06745245574354" lon="16.182273599738384"><ele>128.0</ele><time>2026-05-01T15:45:16Z</time></trkpt><trkpt lat="39.067280928982996" lon="16.181945511031703"><ele>128.0</ele><time>2026-05-01T15:45:17Z</time></trkpt><trkpt lat="39.067101789907206" lon="16.181636210510128"><ele>128.0</ele><time>2026-05-01T15:45:18Z</time></trkpt><trkpt lat="39.06689428185286" lon="16.18135450919163"><ele>126.0</ele><time>2026-05-01T15:45:19Z</time></trkpt><trkpt lat="39.06667684368346" lon="16.18109848771483"><ele>124.0</ele><time>2026-05-01T15:45:20Z</time></trkpt><trkpt lat="39.066453262825725" lon="16.180842044134543"><ele>124.5</ele><time>2026-05-01T15:45:21Z</time></trkpt><trkpt lat="39.066234994081995" lon="16.18057710385788"><ele>125.0</ele><time>2026-05-01T15:45:22Z</time></trkpt><trkpt lat="39.066019419746745" lon="16.180307803657065"><ele>125.0</ele><time>2026-05-01T15:45:23Z</time></trkpt><trkpt lat="39.06579552635324" lon="16.18004080425395"><ele>125.0</ele><time>2026-05-01T15:45:24Z</time></trkpt><trkpt lat="39.065583755716496" lon="16.179762037020538"><ele>128.5</ele><time>2026-05-01T15:45:25Z</time></trkpt><trkpt lat="39.065376706604646" lon="16.179468034320646"><ele>132.0</ele><time>2026-05-01T15:45:26Z</time></trkpt><trkpt lat="39.06518261812912" lon="16.1791635045329"><ele>130.0</ele><time>2026-05-01T15:45:27Z</time></trkpt><trkpt lat="39.065000416187814" lon="16.178853508751306"><ele>128.0</ele><time>2026-05-01T15:45:28Z</time></trkpt><trkpt lat="39.064828093527474" lon="16.1785278894262"><ele>133.0</ele><time>2026-05-01T15:45:29Z</time></trkpt><trkpt lat="39.064661218852564" lon="16.178198789320035"><ele>138.0</ele><time>2026-05-01T15:45:30Z</time></trkpt><trkpt lat="39.06450604460611" lon="16.1778623977006"><ele>138.0</ele><time>2026-05-01T15:45:31Z</time></trkpt><trkpt lat="39.06437154735237" lon="16.177511936005253"><ele>138.0</ele><time>2026-05-01T15:45:32Z</time></trkpt><trkpt lat="39.064248273227385" lon="16.177157267859197"><ele>138.5</ele><time>2026-05-01T15:45:33Z</time></trkpt><trkpt lat="39.06413731396105" lon="16.176795463655885"><ele>139.0</ele><time>2026-05-01T15:45:34Z</time></trkpt><trkpt lat="39.064035483088226" lon="16.1764271251391"><ele>144.0</ele><time>2026-05-01T15:45:35Z</time></trkpt><trkpt lat="39.063936778543294" lon="16.176065312876005"><ele>149.0</ele><time>2026-05-01T15:45:36Z</time></trkpt><trkpt lat="39.063833908069384" lon="16.175695240584673"><ele>148.0</ele><time>2026-05-01T15:45:37Z</time></trkpt><trkpt lat="39.06372620562753" lon="16.175324238154925"><ele>147.0</ele><time>2026-05-01T15:45:38Z</time></trkpt><trkpt lat="39.063617145917796" lon="16.174959133981016"><ele>146.0</ele><time>2026-05-01T15:45:39Z</time></trkpt><trkpt lat="39.063502574410585" lon="16.174596566742892"><ele>145.0</ele><time>2026-05-01T15:45:40Z</time></trkpt><trkpt lat="39.06338665565405" lon="16.174245203049143"><ele>151.5</ele><time>2026-05-01T15:45:41Z</time></trkpt><trkpt lat="39.063253165865156" lon="16.173884395050045"><ele>158.0</ele><time>2026-05-01T15:45:42Z</time></trkpt><trkpt lat="39.063119253176076" lon="16.173530155418884"><ele>155.0</ele><time>2026-05-01T15:45:43Z</time></trkpt><trkpt lat="39.0629858297342" lon="16.17318154471597"><ele>152.0</ele><time>2026-05-01T15:45:44Z</time></trkpt><trkpt lat="39.062855175258576" lon="16.172830179692436"><ele>152.0</ele><time>2026-05-01T15:45:45Z</time></trkpt><trkpt lat="39.062719930328704" lon="16.172473164658193"><ele>152.0</ele><time>2026-05-01T15:45:46Z</time></trkpt><trkpt lat="39.062588789017546" lon="16.17211620431713"><ele>147.0</ele><time>2026-05-01T15:45:47Z</time></trkpt><trkpt lat="39.06246698899455" lon="16.17175725797383"><ele>142.0</ele><time>2026-05-01T15:45:48Z</time></trkpt><trkpt lat="39.062348960203934" lon="16.171393212253626"><ele>152.0</ele><time>2026-05-01T15:45:49Z</time></trkpt><trkpt lat="39.062254902033054" lon="16.171024841980334"><ele>162.0</ele><time>2026-05-01T15:45:50Z</time></trkpt><trkpt lat="39.06217198992337" lon="16.170648715097826"><ele>162.0</ele><time>2026-05-01T15:45:51Z</time></trkpt><trkpt lat="39.06210369867258" lon="16.17027043466805"><ele>162.0</ele><time>2026-05-01T15:45:52Z</time></trkpt><trkpt lat="39.06204213369552" lon="16.169888673989355"><ele>161.0</ele><time>2026-05-01T15:45:53Z</time></trkpt><trkpt lat="39.06197620380172" lon="16.169506392769403"><ele>160.0</ele><time>2026-05-01T15:45:54Z</time></trkpt><trkpt lat="39.06190334279357" lon="16.169125737663002"><ele>158.0</ele><time>2026-05-01T15:45:55Z</time></trkpt><trkpt lat="39.06182562216007" lon="16.168748843862907"><ele>156.0</ele><time>2026-05-01T15:45:56Z</time></trkpt><trkpt lat="39.06173644065002" lon="16.16837527117874"><ele>152.0</ele><time>2026-05-01T15:45:57Z</time></trkpt><trkpt lat="39.06163801447023" lon="16.168005479625613"><ele>148.0</ele><time>2026-05-01T15:45:58Z</time></trkpt><trkpt lat="39.06152799266058" lon="16.167641638237818"><ele>153.5</ele><time>2026-05-01T15:45:59Z</time></trkpt><trkpt lat="39.06141068396963" lon="16.167278532458322"><ele>159.0</ele><time>2026-05-01T15:46:00Z</time></trkpt><trkpt lat="39.061279911670205" lon="16.166921571974463"><ele>159.0</ele><time>2026-05-01T15:46:01Z</time></trkpt><trkpt lat="39.06113782187272" lon="16.166569208168415"><ele>159.0</ele><time>2026-05-01T15:46:02Z</time></trkpt><trkpt lat="39.06099005962247" lon="16.166215112827825"><ele>160.5</ele><time>2026-05-01T15:46:03Z</time></trkpt><trkpt lat="39.060845774522804" lon="16.16586176915665"><ele>162.0</ele><time>2026-05-01T15:46:04Z</time></trkpt><trkpt lat="39.06070047959962" lon="16.165503765661633"><ele>162.0</ele><time>2026-05-01T15:46:05Z</time></trkpt><trkpt lat="39.060563894412105" lon="16.165142106250254"><ele>162.0</ele><time>2026-05-01T15:46:06Z</time></trkpt><trkpt lat="39.06044088348236" lon="16.16477201860415"><ele>158.0</ele><time>2026-05-01T15:46:07Z</time></trkpt><trkpt lat="39.06032566141367" lon="16.16439843070452"><ele>154.0</ele><time>2026-05-01T15:46:08Z</time></trkpt><trkpt lat="39.06021415242136" lon="16.164021107711743"><ele>152.5</ele><time>2026-05-01T15:46:09Z</time></trkpt><trkpt lat="39.060106863155134" lon="16.163645145710955"><ele>151.0</ele><time>2026-05-01T15:46:10Z</time></trkpt><trkpt lat="39.06000036583705" lon="16.163281283856765"><ele>160.0</ele><time>2026-05-01T15:46:11Z</time></trkpt><trkpt lat="39.059886293803174" lon="16.16291692531511"><ele>169.0</ele><time>2026-05-01T15:46:12Z</time></trkpt><trkpt lat="39.05977705917312" lon="16.162554963165174"><ele>164.0</ele><time>2026-05-01T15:46:13Z</time></trkpt><trkpt lat="39.059667708319175" lon="16.162188499651812"><ele>159.0</ele><time>2026-05-01T15:46:14Z</time></trkpt><trkpt lat="39.059556809143395" lon="16.161819237527535"><ele>152.0</ele><time>2026-05-01T15:46:15Z</time></trkpt><trkpt lat="39.05944284712848" lon="16.161451269156554"><ele>145.0</ele><time>2026-05-01T15:46:16Z</time></trkpt><trkpt lat="39.05932561568807" lon="16.16107652225635"><ele>146.0</ele><time>2026-05-01T15:46:17Z</time></trkpt><trkpt lat="39.05920513548781" lon="16.16069413256601"><ele>147.0</ele><time>2026-05-01T15:46:18Z</time></trkpt><trkpt lat="39.05908248677615" lon="16.160310601898516"><ele>147.0</ele><time>2026-05-01T15:46:19Z</time></trkpt><trkpt lat="39.058961568949286" lon="16.15993620775622"><ele>147.0</ele><time>2026-05-01T15:46:20Z</time></trkpt><trkpt lat="39.0588436274136" lon="16.15955188652025"><ele>147.5</ele><time>2026-05-01T15:46:21Z</time></trkpt><trkpt lat="39.0587215355254" lon="16.159168593003507"><ele>148.0</ele><time>2026-05-01T15:46:22Z</time></trkpt><trkpt lat="39.058596353264996" lon="16.158789871015244"><ele>148.0</ele><time>2026-05-01T15:46:23Z</time></trkpt><trkpt lat="39.05845673700143" lon="16.158416000796006"><ele>148.0</ele><time>2026-05-01T15:46:24Z</time></trkpt><trkpt lat="39.05830212319958" lon="16.158053292263762"><ele>148.0</ele><time>2026-05-01T15:46:25Z</time></trkpt><trkpt lat="39.05813847762316" lon="16.15770297928629"><ele>148.0</ele><time>2026-05-01T15:46:26Z</time></trkpt><trkpt lat="39.05796189939768" lon="16.157358294179982"><ele>148.0</ele><time>2026-05-01T15:46:27Z</time></trkpt><trkpt lat="39.05777731035957" lon="16.157022568828815"><ele>148.0</ele><time>2026-05-01T15:46:28Z</time></trkpt><trkpt lat="39.05757967748566" lon="16.156701038054937"><ele>153.0</ele><time>2026-05-01T15:46:29Z</time></trkpt><trkpt lat="39.05736472083417" lon="16.156400413057344"><ele>158.0</ele><time>2026-05-01T15:46:30Z</time></trkpt><trkpt lat="39.05713598323741" lon="16.15611164993397"><ele>158.0</ele><time>2026-05-01T15:46:31Z</time></trkpt><trkpt lat="39.05689549548101" lon="16.155841474268886"><ele>158.0</ele><time>2026-05-01T15:46:32Z</time></trkpt><trkpt lat="39.05664380365051" lon="16.155582270853724"><ele>154.0</ele><time>2026-05-01T15:46:33Z</time></trkpt><trkpt lat="39.05638797134452" lon="16.15534419615056"><ele>150.0</ele><time>2026-05-01T15:46:34Z</time></trkpt><trkpt lat="39.056118758507615" lon="16.155111883503235"><ele>150.0</ele><time>2026-05-01T15:46:35Z</time></trkpt><trkpt lat="39.055842101811706" lon="16.15490317292566"><ele>150.0</ele><time>2026-05-01T15:46:36Z</time></trkpt><trkpt lat="39.055561164888914" lon="16.154707732294565"><ele>148.0</ele><time>2026-05-01T15:46:37Z</time></trkpt><trkpt lat="39.05527422421413" lon="16.15451769934538"><ele>146.0</ele><time>2026-05-01T15:46:38Z</time></trkpt><trkpt lat="39.054986229288204" lon="16.154334586850847"><ele>144.0</ele><time>2026-05-01T15:46:39Z</time></trkpt><trkpt lat="39.05469637342632" lon="16.154157704985614"><ele>142.0</ele><time>2026-05-01T15:46:40Z</time></trkpt><trkpt lat="39.05440567158117" lon="16.15398545769365"><ele>147.5</ele><time>2026-05-01T15:46:41Z</time></trkpt><trkpt lat="39.05411504229905" lon="16.153809722132717"><ele>153.0</ele><time>2026-05-01T15:46:42Z</time></trkpt><trkpt lat="39.053825871985005" lon="16.153633156954864"><ele>153.0</ele><time>2026-05-01T15:46:43Z</time></trkpt><trkpt lat="39.053535626165136" lon="16.153457146911276"><ele>153.0</ele><time>2026-05-01T15:46:44Z</time></trkpt><trkpt lat="39.05324715864892" lon="16.153276872538793"><ele>149.5</ele><time>2026-05-01T15:46:45Z</time></trkpt><trkpt lat="39.05295669494309" lon="16.153097569855074"><ele>146.0</ele><time>2026-05-01T15:46:46Z</time></trkpt><trkpt lat="39.052669162324555" lon="16.152919223146903"><ele>145.5</ele><time>2026-05-01T15:46:47Z</time></trkpt><trkpt lat="39.052377597582876" lon="16.152743272062956"><ele>145.0</ele><time>2026-05-01T15:46:48Z</time></trkpt><trkpt lat="39.05208785591517" lon="16.152564077121056"><ele>145.0</ele><time>2026-05-01T15:46:49Z</time></trkpt><trkpt lat="39.05180373342989" lon="16.152382803738206"><ele>145.0</ele><time>2026-05-01T15:46:50Z</time></trkpt><trkpt lat="39.0515150405506" lon="16.15219532575961"><ele>148.0</ele><time>2026-05-01T15:46:51Z</time></trkpt><trkpt lat="39.05123524382684" lon="16.151993957840016"><ele>151.0</ele><time>2026-05-01T15:46:52Z</time></trkpt><trkpt lat="39.05096009771534" lon="16.151778829673948"><ele>150.5</ele><time>2026-05-01T15:46:53Z</time></trkpt><trkpt lat="39.050696795710785" lon="16.151552360760423"><ele>150.0</ele><time>2026-05-01T15:46:54Z</time></trkpt><trkpt lat="39.050434019473215" lon="16.15131172174853"><ele>150.0</ele><time>2026-05-01T15:46:55Z</time></trkpt><trkpt lat="39.050179697717155" lon="16.151065899588694"><ele>150.0</ele><time>2026-05-01T15:46:56Z</time></trkpt><trkpt lat="39.04992625376463" lon="16.15081148744943"><ele>151.5</ele><time>2026-05-01T15:46:57Z</time></trkpt><trkpt lat="39.049678230540295" lon="16.150552765409767"><ele>153.0</ele><time>2026-05-01T15:46:58Z</time></trkpt><trkpt lat="39.04943214288537" lon="16.150289034253678"><ele>153.0</ele><time>2026-05-01T15:46:59Z</time></trkpt><trkpt lat="39.04918639998185" lon="16.150023794100434"><ele>153.0</ele><time>2026-05-01T15:47:00Z</time></trkpt><trkpt lat="39.048938277626895" lon="16.149761522104384"><ele>153.0</ele><time>2026-05-01T15:47:01Z</time></trkpt><trkpt lat="39.04868756389368" lon="16.14950323807738"><ele>153.0</ele><time>2026-05-01T15:47:02Z</time></trkpt><trkpt lat="39.04843832325663" lon="16.14924486648314"><ele>152.5</ele><time>2026-05-01T15:47:03Z</time></trkpt><trkpt lat="39.04818831976434" lon="16.148988101879336"><ele>152.0</ele><time>2026-05-01T15:47:04Z</time></trkpt><trkpt lat="39.04793743067201" lon="16.148733844831096"><ele>152.0</ele><time>2026-05-01T15:47:05Z</time></trkpt><trkpt lat="39.04768496633888" lon="16.148476375273937"><ele>152.0</ele><time>2026-05-01T15:47:06Z</time></trkpt><trkpt lat="39.04742841801166" lon="16.148231847966116"><ele>149.0</ele><time>2026-05-01T15:47:07Z</time></trkpt><trkpt lat="39.04716483828933" lon="16.147996233379175"><ele>146.0</ele><time>2026-05-01T15:47:08Z</time></trkpt><trkpt lat="39.04689063897665" lon="16.147779914021534"><ele>157.0</ele><time>2026-05-01T15:47:09Z</time></trkpt><trkpt lat="39.04660654245601" lon="16.147586293139472"><ele>168.0</ele><time>2026-05-01T15:47:10Z</time></trkpt><trkpt lat="39.04631751537055" lon="16.147408180192148"><ele>161.0</ele><time>2026-05-01T15:47:11Z</time></trkpt><trkpt lat="39.04602565563174" lon="16.147246887696536"><ele>154.0</ele><time>2026-05-01T15:47:12Z</time></trkpt><trkpt lat="39.04572769328931" lon="16.147089314139578"><ele>154.0</ele><time>2026-05-01T15:47:13Z</time></trkpt><trkpt lat="39.04542995630529" lon="16.146929711972287"><ele>154.0</ele><time>2026-05-01T15:47:14Z</time></trkpt><trkpt lat="39.04513819692765" lon="16.146764001804517"><ele>155.0</ele><time>2026-05-01T15:47:15Z</time></trkpt><trkpt lat="39.04484463093502" lon="16.14659152793748"><ele>156.0</ele><time>2026-05-01T15:47:16Z</time></trkpt><trkpt lat="39.04455918015148" lon="16.14640602612837"><ele>154.0</ele><time>2026-05-01T15:47:17Z</time></trkpt><trkpt lat="39.04427723984704" lon="16.146209281448936"><ele>152.0</ele><time>2026-05-01T15:47:18Z</time></trkpt><trkpt lat="39.044011008838176" lon="16.145987740368724"><ele>152.0</ele><time>2026-05-01T15:47:19Z</time></trkpt><trkpt lat="39.04374331883967" lon="16.145760625546554"><ele>152.0</ele><time>2026-05-01T15:47:20Z</time></trkpt><trkpt lat="39.04348750529888" lon="16.145508157036915"><ele>159.0</ele><time>2026-05-01T15:47:21Z</time></trkpt><trkpt lat="39.04324669448174" lon="16.14523682419804"><ele>166.0</ele><time>2026-05-01T15:47:22Z</time></trkpt><trkpt lat="39.043014218537714" lon="16.144951663835748"><ele>157.0</ele><time>2026-05-01T15:47:23Z</time></trkpt><trkpt lat="39.042797338361055" lon="16.144648257191545"><ele>148.0</ele><time>2026-05-01T15:47:24Z</time></trkpt><trkpt lat="39.04259237407245" lon="16.14433278516904"><ele>154.5</ele><time>2026-05-01T15:47:25Z</time></trkpt><trkpt lat="39.04239426614062" lon="16.144008309551054"><ele>161.0</ele><time>2026-05-01T15:47:26Z</time></trkpt><trkpt lat="39.04220601726593" lon="16.143674839719885"><ele>161.0</ele><time>2026-05-01T15:47:27Z</time></trkpt><trkpt lat="39.042030028065525" lon="16.14332938781317"><ele>161.0</ele><time>2026-05-01T15:47:28Z</time></trkpt><trkpt lat="39.04186422862636" lon="16.142969764901057"><ele>166.5</ele><time>2026-05-01T15:47:29Z</time></trkpt><trkpt lat="39.04171758054808" lon="16.14260727979208"><ele>172.0</ele><time>2026-05-01T15:47:30Z</time></trkpt><trkpt lat="39.0415732922247" lon="16.142237544613117"><ele>172.0</ele><time>2026-05-01T15:47:31Z</time></trkpt><trkpt lat="39.0414370111259" lon="16.1418671145713"><ele>172.0</ele><time>2026-05-01T15:47:32Z</time></trkpt><trkpt lat="39.04129194992633" lon="16.141506607698123"><ele>163.5</ele><time>2026-05-01T15:47:33Z</time></trkpt><trkpt lat="39.04113112516333" lon="16.141147630329975"><ele>155.0</ele><time>2026-05-01T15:47:34Z</time></trkpt><trkpt lat="39.040961373828374" lon="16.14079933050019"><ele>151.5</ele><time>2026-05-01T15:47:35Z</time></trkpt><trkpt lat="39.04077843521874" lon="16.14045927131084"><ele>148.0</ele><time>2026-05-01T15:47:36Z</time></trkpt><trkpt lat="39.04058125124265" lon="16.140132006967043"><ele>137.0</ele><time>2026-05-01T15:47:37Z</time></trkpt><trkpt lat="39.040375738892635" lon="16.139820633718884"><ele>126.0</ele><time>2026-05-01T15:47:38Z</time></trkpt><trkpt lat="39.04015452956315" lon="16.13952312089034"><ele>127.0</ele><time>2026-05-01T15:47:39Z</time></trkpt><trkpt lat="39.03992214880331" lon="16.139236112770615"><ele>128.0</ele><time>2026-05-01T15:47:40Z</time></trkpt><trkpt lat="39.03968671552943" lon="16.13895812407881"><ele>128.0</ele><time>2026-05-01T15:47:41Z</time></trkpt><trkpt lat="39.03944073232179" lon="16.13869223770894"><ele>128.0</ele><time>2026-05-01T15:47:42Z</time></trkpt><trkpt lat="39.039191939472715" lon="16.13843491948934"><ele>130.5</ele><time>2026-05-01T15:47:43Z</time></trkpt><trkpt lat="39.038940864061566" lon="16.138174938191828"><ele>133.0</ele><time>2026-05-01T15:47:44Z</time></trkpt><trkpt lat="39.03868882331461" lon="16.137915182366605"><ele>133.0</ele><time>2026-05-01T15:47:45Z</time></trkpt><trkpt lat="39.03844159223105" lon="16.13765845678215"><ele>133.0</ele><time>2026-05-01T15:47:46Z</time></trkpt><trkpt lat="39.03818986252913" lon="16.13740310318376"><ele>130.5</ele><time>2026-05-01T15:47:47Z</time></trkpt><trkpt lat="39.03793398415717" lon="16.13715268874391"><ele>128.0</ele><time>2026-05-01T15:47:48Z</time></trkpt><trkpt lat="39.03766886038463" lon="16.13691640953896"><ele>124.0</ele><time>2026-05-01T15:47:49Z</time></trkpt><trkpt lat="39.03740103720675" lon="16.13669001459157"><ele>120.0</ele><time>2026-05-01T15:47:50Z</time></trkpt><trkpt lat="39.03712390726737" lon="16.136479638517624"><ele>120.0</ele><time>2026-05-01T15:47:51Z</time></trkpt><trkpt lat="39.03684148494511" lon="16.13628120960389"><ele>120.0</ele><time>2026-05-01T15:47:52Z</time></trkpt><trkpt lat="39.03655485998536" lon="16.136091579280343"><ele>105.5</ele><time>2026-05-01T15:47:53Z</time></trkpt><trkpt lat="39.03626427956872" lon="16.135909874769915"><ele>91.0</ele><time>2026-05-01T15:47:54Z</time></trkpt><trkpt lat="39.03597776132846" lon="16.135736413937018"><ele>87.5</ele><time>2026-05-01T15:47:55Z</time></trkpt><trkpt lat="39.03568521722584" lon="16.135562704045938"><ele>84.0</ele><time>2026-05-01T15:47:56Z</time></trkpt><trkpt lat="39.03539320816771" lon="16.135387240177213"><ele>84.0</ele><time>2026-05-01T15:47:57Z</time></trkpt><trkpt lat="39.03510517554367" lon="16.13520697936976"><ele>84.0</ele><time>2026-05-01T15:47:58Z</time></trkpt><trkpt lat="39.03481782911218" lon="16.13502957304285"><ele>89.0</ele><time>2026-05-01T15:47:59Z</time></trkpt><trkpt lat="39.034527966264484" lon="16.134848314682618"><ele>94.0</ele><time>2026-05-01T15:48:00Z</time></trkpt><trkpt lat="39.03423848222869" lon="16.1346732633399"><ele>106.0</ele><time>2026-05-01T15:48:01Z</time></trkpt><trkpt lat="39.033949942790095" lon="16.134496948382626"><ele>118.0</ele><time>2026-05-01T15:48:02Z</time></trkpt><trkpt lat="39.033661128823574" lon="16.13431676645172"><ele>118.0</ele><time>2026-05-01T15:48:03Z</time></trkpt><trkpt lat="39.033374410118206" lon="16.134132121043088"><ele>118.0</ele><time>2026-05-01T15:48:04Z</time></trkpt><trkpt lat="39.03310069736166" lon="16.133928457833296"><ele>114.0</ele><time>2026-05-01T15:48:05Z</time></trkpt><trkpt lat="39.03283121164034" lon="16.133700017666754"><ele>110.0</ele><time>2026-05-01T15:48:06Z</time></trkpt><trkpt lat="39.03257661093934" lon="16.133457544213442"><ele>109.5</ele><time>2026-05-01T15:48:07Z</time></trkpt><trkpt lat="39.03233042227288" lon="16.13319821761806"><ele>109.0</ele><time>2026-05-01T15:48:08Z</time></trkpt><trkpt lat="39.03209268000314" lon="16.13292213454864"><ele>109.0</ele><time>2026-05-01T15:48:09Z</time></trkpt><trkpt lat="39.03186660149434" lon="16.132631498022874"><ele>109.0</ele><time>2026-05-01T15:48:10Z</time></trkpt><trkpt lat="39.03164870680887" lon="16.132329577499807"><ele>116.5</ele><time>2026-05-01T15:48:11Z</time></trkpt><trkpt lat="39.03144592954808" lon="16.132012849561686"><ele>124.0</ele><time>2026-05-01T15:48:12Z</time></trkpt><trkpt lat="39.031259567858584" lon="16.13168274413052"><ele>116.5</ele><time>2026-05-01T15:48:13Z</time></trkpt><trkpt lat="39.031079218213776" lon="16.13134131903474"><ele>109.0</ele><time>2026-05-01T15:48:14Z</time></trkpt><trkpt lat="39.03089785716773" lon="16.130998822353433"><ele>112.5</ele><time>2026-05-01T15:48:15Z</time></trkpt><trkpt lat="39.03071869205353" lon="16.130654905764047"><ele>116.0</ele><time>2026-05-01T15:48:16Z</time></trkpt><trkpt lat="39.03054088159108" lon="16.13031134946011"><ele>116.0</ele><time>2026-05-01T15:48:17Z</time></trkpt><trkpt lat="39.03035830351002" lon="16.12997315140134"><ele>116.0</ele><time>2026-05-01T15:48:18Z</time></trkpt><trkpt lat="39.030176505783416" lon="16.12963328800855"><ele>116.0</ele><time>2026-05-01T15:48:19Z</time></trkpt><trkpt lat="39.02999469116124" lon="16.12929294758871"><ele>116.0</ele><time>2026-05-01T15:48:20Z</time></trkpt><trkpt lat="39.02981116565237" lon="16.128958823500813"><ele>116.0</ele><time>2026-05-01T15:48:21Z</time></trkpt><trkpt lat="39.0296248584456" lon="16.12862461725862"><ele>116.0</ele><time>2026-05-01T15:48:22Z</time></trkpt><trkpt lat="39.029432534264714" lon="16.128296137975756"><ele>120.5</ele><time>2026-05-01T15:48:23Z</time></trkpt><trkpt lat="39.02923583815027" lon="16.127968985084685"><ele>125.0</ele><time>2026-05-01T15:48:24Z</time></trkpt><trkpt lat="39.02903490068893" lon="16.127648825328006"><ele>119.0</ele><time>2026-05-01T15:48:25Z</time></trkpt><trkpt lat="39.02882414134132" lon="16.127335059372196"><ele>113.0</ele><time>2026-05-01T15:48:26Z</time></trkpt><trkpt lat="39.02860056683771" lon="16.127036964546402"><ele>113.0</ele><time>2026-05-01T15:48:27Z</time></trkpt><trkpt lat="39.028365619887005" lon="16.126741060109406"><ele>113.0</ele><time>2026-05-01T15:48:28Z</time></trkpt><trkpt lat="39.02811720060946" lon="16.126443376546224"><ele>124.5</ele><time>2026-05-01T15:48:29Z</time></trkpt><trkpt lat="39.027861508601056" lon="16.12613882301368"><ele>136.0</ele><time>2026-05-01T15:48:30Z</time></trkpt><trkpt lat="39.02761040220656" lon="16.125835366607085"><ele>141.0</ele><time>2026-05-01T15:48:31Z</time></trkpt><trkpt lat="39.02736078986621" lon="16.125528376685395"><ele>146.0</ele><time>2026-05-01T15:48:32Z</time></trkpt><trkpt lat="39.027120562314124" lon="16.12521287818938"><ele>146.0</ele><time>2026-05-01T15:48:33Z</time></trkpt><trkpt lat="39.02687943554026" lon="16.124898594460326"><ele>146.0</ele><time>2026-05-01T15:48:34Z</time></trkpt><trkpt lat="39.02662283752091" lon="16.124548457560103"><ele>146.0</ele><time>2026-05-01T15:48:35.072Z</time></trkpt><trkpt lat="39.026378747445314" lon="16.12424422525046"><ele>146.0</ele><time>2026-05-01T15:48:36.068Z</time></trkpt><trkpt lat="39.026137783964494" lon="16.123944357953608"><ele>135.0</ele><time>2026-05-01T15:48:37.063Z</time></trkpt><trkpt lat="39.0258974408599" lon="16.123647877125727"><ele>124.0</ele><time>2026-05-01T15:48:38.034Z</time></trkpt><trkpt lat="39.02565106521955" lon="16.123340207363167"><ele>110.5</ele><time>2026-05-01T15:48:39.026Z</time></trkpt><trkpt lat="39.025406112032165" lon="16.123032388939595"><ele>97.0</ele><time>2026-05-01T15:48:40.024Z</time></trkpt><trkpt lat="39.02262676692599" lon="16.12291378918548"><ele>47.0</ele><time>2026-05-01T15:48:49.792Z</time></trkpt><trkpt lat="39.021884281469184" lon="16.122254323328903"><ele>51.0</ele><time>2026-05-01T15:48:51Z</time></trkpt><trkpt lat="39.02157955559113" lon="16.122151384099286"><ele>55.0</ele><time>2026-05-01T15:48:52Z</time></trkpt><trkpt lat="39.02126987976503" lon="16.122052396273705"><ele>55.0</ele><time>2026-05-01T15:48:53Z</time></trkpt><trkpt lat="39.02095568240706" lon="16.121956730762637"><ele>55.0</ele><time>2026-05-01T15:48:54Z</time></trkpt><trkpt lat="39.02064242362225" lon="16.12187950934606"><ele>55.5</ele><time>2026-05-01T15:48:55Z</time></trkpt><trkpt lat="39.02033007520271" lon="16.121812499021857"><ele>56.0</ele><time>2026-05-01T15:48:56Z</time></trkpt><trkpt lat="39.02000929286046" lon="16.12177381327318"><ele>56.0</ele><time>2026-05-01T15:48:57Z</time></trkpt><trkpt lat="39.01968472812068" lon="16.12175245474828"><ele>56.0</ele><time>2026-05-01T15:48:58Z</time></trkpt><trkpt lat="39.01936168512297" lon="16.12174620099073"><ele>55.0</ele><time>2026-05-01T15:48:59Z</time></trkpt><trkpt lat="39.01904194673002" lon="16.121765439846698"><ele>54.0</ele><time>2026-05-01T15:49:00Z</time></trkpt><trkpt lat="39.018721082335155" lon="16.12180878983365"><ele>54.0</ele><time>2026-05-01T15:49:01Z</time></trkpt><trkpt lat="39.018402539352735" lon="16.121869933727726"><ele>54.0</ele><time>2026-05-01T15:49:02Z</time></trkpt><trkpt lat="39.018088001697826" lon="16.121955090377572"><ele>48.5</ele><time>2026-05-01T15:49:03Z</time></trkpt><trkpt lat="39.01777808703212" lon="16.12204747220702"><ele>43.0</ele><time>2026-05-01T15:49:04Z</time></trkpt><trkpt lat="39.017467552551075" lon="16.122162813662097"><ele>43.5</ele><time>2026-05-01T15:49:05Z</time></trkpt><trkpt lat="39.01716206655184" lon="16.1223012810821"><ele>44.0</ele><time>2026-05-01T15:49:06Z</time></trkpt><trkpt lat="39.01686146668416" lon="16.12244555363762"><ele>35.5</ele><time>2026-05-01T15:49:07Z</time></trkpt><trkpt lat="39.01656934863026" lon="16.12261525056379"><ele>27.0</ele><time>2026-05-01T15:49:08Z</time></trkpt><trkpt lat="39.0162840691609" lon="16.122803074103505"><ele>27.0</ele><time>2026-05-01T15:49:09Z</time></trkpt><trkpt lat="39.01599749791389" lon="16.122990976211643"><ele>27.0</ele><time>2026-05-01T15:49:10Z</time></trkpt><trkpt lat="39.01570969391485" lon="16.123177374636253"><ele>32.0</ele><time>2026-05-01T15:49:11Z</time></trkpt><trkpt lat="39.01543382040293" lon="16.123367550942962"><ele>37.0</ele><time>2026-05-01T15:49:12Z</time></trkpt><trkpt lat="39.01514261469632" lon="16.12354217405878"><ele>35.0</ele><time>2026-05-01T15:49:13Z</time></trkpt><trkpt lat="39.0148444660162" lon="16.123703278005472"><ele>33.0</ele><time>2026-05-01T15:49:14Z</time></trkpt><trkpt lat="39.01453614945687" lon="16.12382999812182"><ele>33.0</ele><time>2026-05-01T15:49:15Z</time></trkpt><trkpt lat="39.01422964862539" lon="16.123955524574736"><ele>33.0</ele><time>2026-05-01T15:49:16Z</time></trkpt><trkpt lat="39.01392772643872" lon="16.124088802992095"><ele>29.5</ele><time>2026-05-01T15:49:17Z</time></trkpt><trkpt lat="39.01363056353212" lon="16.124225683807104"><ele>26.0</ele><time>2026-05-01T15:49:18Z</time></trkpt><trkpt lat="39.013331909841945" lon="16.12437951351781"><ele>18.5</ele><time>2026-05-01T15:49:19Z</time></trkpt><trkpt lat="39.013037500424204" lon="16.12453933502735"><ele>11.0</ele><time>2026-05-01T15:49:20Z</time></trkpt><trkpt lat="39.01275028368764" lon="16.124723914090005"><ele>12.5</ele><time>2026-05-01T15:49:21Z</time></trkpt><trkpt lat="39.01247006917992" lon="16.12492665142529"><ele>14.0</ele><time>2026-05-01T15:49:22Z</time></trkpt><trkpt lat="39.01219851930093" lon="16.12514516940145"><ele>14.0</ele><time>2026-05-01T15:49:23Z</time></trkpt><trkpt lat="39.01192997794463" lon="16.125380800288212"><ele>14.0</ele><time>2026-05-01T15:49:24Z</time></trkpt><trkpt lat="39.01167125874587" lon="16.12561917027265"><ele>13.0</ele><time>2026-05-01T15:49:25Z</time></trkpt><trkpt lat="39.01141877189545" lon="16.12587037956157"><ele>12.0</ele><time>2026-05-01T15:49:26Z</time></trkpt><trkpt lat="39.01117325265257" lon="16.12613320216447"><ele>12.0</ele><time>2026-05-01T15:49:27Z</time></trkpt><trkpt lat="39.010937358568974" lon="16.126409255704175"><ele>12.0</ele><time>2026-05-01T15:49:28Z</time></trkpt><trkpt lat="39.01070990229071" lon="16.126696579642584"><ele>10.0</ele><time>2026-05-01T15:49:29Z</time></trkpt><trkpt lat="39.01049689589893" lon="16.126996687925438"><ele>8.0</ele><time>2026-05-01T15:49:30Z</time></trkpt><trkpt lat="39.010294460882285" lon="16.12731345829959"><ele>6.5</ele><time>2026-05-01T15:49:31Z</time></trkpt><trkpt lat="39.01010129708552" lon="16.127642858755394"><ele>5.0</ele><time>2026-05-01T15:49:31.999Z</time></trkpt><trkpt lat="39.009914740855244" lon="16.127977263912307"><ele>7.0</ele><time>2026-05-01T15:49:32.999Z</time></trkpt><trkpt lat="39.00973879085818" lon="16.12832313626358"><ele>9.0</ele><time>2026-05-01T15:49:33.999Z</time></trkpt><trkpt lat="39.00957155080436" lon="16.1286758136179"><ele>9.0</ele><time>2026-05-01T15:49:34.999Z</time></trkpt><trkpt lat="39.00942027436129" lon="16.12903415927276"><ele>9.0</ele><time>2026-05-01T15:49:36Z</time></trkpt><trkpt lat="39.00927546014108" lon="16.129399311468873"><ele>7.0</ele><time>2026-05-01T15:49:37Z</time></trkpt><trkpt lat="39.009123183188606" lon="16.129764806274867"><ele>5.0</ele><time>2026-05-01T15:49:38Z</time></trkpt><trkpt lat="39.00896643326317" lon="16.130123891238927"><ele>5.0</ele><time>2026-05-01T15:49:39Z</time></trkpt><trkpt lat="39.00880239185118" lon="16.13047980130439"><ele>5.0</ele><time>2026-05-01T15:49:40Z</time></trkpt><trkpt lat="39.00862539161567" lon="16.130824013399053"><ele>5.5</ele><time>2026-05-01T15:49:41Z</time></trkpt><trkpt lat="39.00843113697395" lon="16.13114976261865"><ele>6.0</ele><time>2026-05-01T15:49:42Z</time></trkpt><trkpt lat="39.008226743792186" lon="16.131465992867465"><ele>7.5</ele><time>2026-05-01T15:49:43Z</time></trkpt><trkpt lat="39.008001839767466" lon="16.131763412835262"><ele>9.0</ele><time>2026-05-01T15:49:44Z</time></trkpt><trkpt lat="39.00777424867911" lon="16.13205107492379"><ele>9.0</ele><time>2026-05-01T15:49:45Z</time></trkpt><trkpt lat="39.00753393216335" lon="16.132319106815242"><ele>9.0</ele><time>2026-05-01T15:49:46Z</time></trkpt><trkpt lat="39.00728369220173" lon="16.132580497092686"><ele>8.0</ele><time>2026-05-01T15:49:47Z</time></trkpt><trkpt lat="39.00702382099009" lon="16.132828140391823"><ele>7.0</ele><time>2026-05-01T15:49:48Z</time></trkpt><trkpt lat="39.0067560751504" lon="16.133056457291254"><ele>7.0</ele><time>2026-05-01T15:49:49Z</time></trkpt><trkpt lat="39.006479823258005" lon="16.13325875403167"><ele>7.0</ele><time>2026-05-01T15:49:50Z</time></trkpt><trkpt lat="39.00619442927581" lon="16.133449286649107"><ele>7.0</ele><time>2026-05-01T15:49:51Z</time></trkpt><trkpt lat="39.005903230914576" lon="16.13361864181869"><ele>7.0</ele><time>2026-05-01T15:49:52Z</time></trkpt><trkpt lat="39.00560500700844" lon="16.13376551457574"><ele>6.0</ele><time>2026-05-01T15:49:53Z</time></trkpt><trkpt lat="39.005308216611716" lon="16.13389954661575"><ele>5.0</ele><time>2026-05-01T15:49:54Z</time></trkpt><trkpt lat="39.00499889657447" lon="16.134008930924736"><ele>5.5</ele><time>2026-05-01T15:49:55Z</time></trkpt><trkpt lat="39.00468404602086" lon="16.13410267184288"><ele>6.0</ele><time>2026-05-01T15:49:56Z</time></trkpt><trkpt lat="39.0043752878796" lon="16.134182919885852"><ele>5.0</ele><time>2026-05-01T15:49:57Z</time></trkpt><trkpt lat="39.00408428079754" lon="16.134238715725544"><ele>4.0</ele><time>2026-05-01T15:49:58Z</time></trkpt><trkpt lat="39.00381433255526" lon="16.13429539834779"><ele>4.0</ele><time>2026-05-01T15:49:59Z</time></trkpt><trkpt lat="39.003554270293705" lon="16.134356716010565"><ele>4.0</ele><time>2026-05-01T15:50:00Z</time></trkpt><trkpt lat="39.003318964328436" lon="16.134410915234287"><ele>4.333333333333333</ele><time>2026-05-01T15:50:01Z</time></trkpt><trkpt lat="39.003088652993256" lon="16.134462393156525"><ele>4.666666666666667</ele><time>2026-05-01T15:50:02Z</time></trkpt><trkpt lat="39.002880734633244" lon="16.13451188655301"><ele>5.0</ele><time>2026-05-01T15:50:03Z</time></trkpt><trkpt lat="39.002702818614516" lon="16.13454597604032"><ele>5.0</ele><time>2026-05-01T15:50:04Z</time></trkpt><trkpt lat="39.00236367972494" lon="16.13457843628381"><ele>5.0</ele><time>2026-05-01T15:50:06Z</time></trkpt><trkpt lat="39.00219966027301" lon="16.134572292934482"><ele>5.0</ele><time>2026-05-01T15:50:07Z</time></trkpt><trkpt lat="39.00203660298316" lon="16.13453765420935"><ele>5.0</ele><time>2026-05-01T15:50:08Z</time></trkpt><trkpt lat="39.00184755259798" lon="16.134517281097178"><ele>5.0</ele><time>2026-05-01T15:50:09Z</time></trkpt><trkpt lat="39.001743229043676" lon="16.13437902301347"><ele>4.75</ele><time>2026-05-01T15:50:10Z</time></trkpt><trkpt lat="39.001617888882464" lon="16.134272787319006"><ele>4.5</ele><time>2026-05-01T15:50:11Z</time></trkpt><trkpt lat="39.001506057650225" lon="16.1341524564496"><ele>4.25</ele><time>2026-05-01T15:50:12Z</time></trkpt><trkpt lat="39.00140747403558" lon="16.13402019312821"><ele>4.0</ele><time>2026-05-01T15:50:13Z</time></trkpt><trkpt lat="39.00132169348098" lon="16.13388129986102"><ele>4.0</ele><time>2026-05-01T15:50:14Z</time></trkpt><trkpt lat="39.001252231105596" lon="16.1337353589272"><ele>4.0</ele><time>2026-05-01T15:50:15Z</time></trkpt><trkpt lat="39.0011827859513" lon="16.133593287879105"><ele>4.0</ele><time>2026-05-01T15:50:16Z</time></trkpt><trkpt lat="39.001121362931265" lon="16.13345020282874"><ele>4.0</ele><time>2026-05-01T15:50:17Z</time></trkpt><trkpt lat="39.001064715172745" lon="16.133319161766984"><ele>4.4</ele><time>2026-05-01T15:50:18Z</time></trkpt><trkpt lat="39.001017813452904" lon="16.13319604602187"><ele>4.800000000000001</ele><time>2026-05-01T15:50:19Z</time></trkpt><trkpt lat="39.00098552717901" lon="16.133075879715882"><ele>5.199999999999999</ele><time>2026-05-01T15:50:20Z</time></trkpt><trkpt lat="39.000979279398884" lon="16.132959687793864"><ele>5.6</ele><time>2026-05-01T15:50:21Z</time></trkpt><trkpt lat="39.00100834176251" lon="16.13283866608523"><ele>6.0</ele><time>2026-05-01T15:50:22Z</time></trkpt><trkpt lat="39.00105995849534" lon="16.13271871437898"><ele>6.0</ele><time>2026-05-01T15:50:23Z</time></trkpt><trkpt lat="39.00112710012488" lon="16.132603828557762"><ele>6.0</ele><time>2026-05-01T15:50:24Z</time></trkpt><trkpt lat="39.00119726849183" lon="16.132493228912015"><ele>6.0</ele><time>2026-05-01T15:50:25Z</time></trkpt><trkpt lat="39.001282412344715" lon="16.132401821655577"><ele>6.0</ele><time>2026-05-01T15:50:26Z</time></trkpt><trkpt lat="39.00137725758721" lon="16.13232735083509"><ele>6.0</ele><time>2026-05-01T15:50:27Z</time></trkpt><trkpt lat="39.00147634636671" lon="16.13225941138984"><ele>6.0</ele><time>2026-05-01T15:50:28Z</time></trkpt><trkpt lat="39.0015754026451" lon="16.132186043604587"><ele>6.0</ele><time>2026-05-01T15:50:29Z</time></trkpt><trkpt lat="39.00167406556998" lon="16.132110887434873"><ele>6.0</ele><time>2026-05-01T15:50:30Z</time></trkpt><trkpt lat="39.00176853925976" lon="16.132037801945664"><ele>6.0</ele><time>2026-05-01T15:50:31Z</time></trkpt><trkpt lat="39.00187175121213" lon="16.13197137827877"><ele>5.5</ele><time>2026-05-01T15:50:32Z</time></trkpt><trkpt lat="39.001979206316555" lon="16.131892018618192"><ele>5.0</ele><time>2026-05-01T15:50:33Z</time></trkpt><trkpt lat="39.00208300861518" lon="16.1318188099678"><ele>4.5</ele><time>2026-05-01T15:50:34Z</time></trkpt><trkpt lat="39.00218479574978" lon="16.131741292528652"><ele>4.0</ele><time>2026-05-01T15:50:35Z</time></trkpt><trkpt lat="39.00229069246887" lon="16.131666449543875"><ele>4.0</ele><time>2026-05-01T15:50:36Z</time></trkpt><trkpt lat="39.00239373405879" lon="16.131586306293972"><ele>4.0</ele><time>2026-05-01T15:50:37Z</time></trkpt><trkpt lat="39.00249566838251" lon="16.131501482960644"><ele>4.0</ele><time>2026-05-01T15:50:38Z</time></trkpt><trkpt lat="39.002604201343665" lon="16.13142813465837"><ele>4.0</ele><time>2026-05-01T15:50:39Z</time></trkpt><trkpt lat="39.002713859365414" lon="16.131345717304225"><ele>4.25</ele><time>2026-05-01T15:50:40Z</time></trkpt><trkpt lat="39.00282425851794" lon="16.131263124461835"><ele>4.5</ele><time>2026-05-01T15:50:41Z</time></trkpt><trkpt lat="39.002936016582744" lon="16.131178938007814"><ele>4.75</ele><time>2026-05-01T15:50:42Z</time></trkpt><trkpt lat="39.00304918192007" lon="16.13109582574675"><ele>5.0</ele><time>2026-05-01T15:50:43Z</time></trkpt><trkpt lat="39.003160841013944" lon="16.131011806257145"><ele>5.0</ele><time>2026-05-01T15:50:44Z</time></trkpt><trkpt lat="39.00326804697628" lon="16.13092957021453"><ele>5.0</ele><time>2026-05-01T15:50:45Z</time></trkpt><trkpt lat="39.003377843445605" lon="16.130852352407473"><ele>5.0</ele><time>2026-05-01T15:50:46Z</time></trkpt><trkpt lat="39.00348625402771" lon="16.13076993887597"><ele>5.0</ele><time>2026-05-01T15:50:47Z</time></trkpt><trkpt lat="39.003600484704904" lon="16.130683221240766"><ele>6.25</ele><time>2026-05-01T15:50:48Z</time></trkpt><trkpt lat="39.003710229776026" lon="16.13060056961373"><ele>7.5</ele><time>2026-05-01T15:50:49Z</time></trkpt><trkpt lat="39.003822973474904" lon="16.130516802128508"><ele>8.75</ele><time>2026-05-01T15:50:50Z</time></trkpt><trkpt lat="39.00393706816158" lon="16.130426379382374"><ele>10.0</ele><time>2026-05-01T15:50:51Z</time></trkpt><trkpt lat="39.004053514746985" lon="16.130338426393884"><ele>8.75</ele><time>2026-05-01T15:50:52Z</time></trkpt><trkpt lat="39.00416855647093" lon="16.130249680868534"><ele>7.5</ele><time>2026-05-01T15:50:53Z</time></trkpt><trkpt lat="39.00429111816002" lon="16.13016728607989"><ele>6.25</ele><time>2026-05-01T15:50:54Z</time></trkpt><trkpt lat="39.004411891456506" lon="16.13008299624004"><ele>5.0</ele><time>2026-05-01T15:50:55Z</time></trkpt><trkpt lat="39.004531130074625" lon="16.13000608434561"><ele>5.0</ele><time>2026-05-01T15:50:56Z</time></trkpt><trkpt lat="39.00465155913217" lon="16.12991546816495"><ele>5.0</ele><time>2026-05-01T15:50:57Z</time></trkpt><trkpt lat="39.00477326533347" lon="16.129823262647903"><ele>5.0</ele><time>2026-05-01T15:50:58Z</time></trkpt><trkpt lat="39.00489306699532" lon="16.12973276013702"><ele>5.0</ele><time>2026-05-01T15:50:59Z</time></trkpt><trkpt lat="39.005017374251224" lon="16.12964005459064"><ele>4.75</ele><time>2026-05-01T15:51:00Z</time></trkpt><trkpt lat="39.005137405866044" lon="16.129550242167422"><ele>4.5</ele><time>2026-05-01T15:51:01Z</time></trkpt><trkpt lat="39.00524390568918" lon="16.129462118965197"><ele>4.25</ele><time>2026-05-01T15:51:02Z</time></trkpt><trkpt lat="39.005351066013034" lon="16.129376446114343"><ele>4.0</ele><time>2026-05-01T15:51:03Z</time></trkpt><trkpt lat="39.0054518265682" lon="16.129292112327768"><ele>4.0</ele><time>2026-05-01T15:51:04Z</time></trkpt><trkpt lat="39.00554881570848" lon="16.129206627901215"><ele>4.0</ele><time>2026-05-01T15:51:05Z</time></trkpt><trkpt lat="39.005639496190064" lon="16.129121638813942"><ele>4.0</ele><time>2026-05-01T15:51:06Z</time></trkpt><trkpt lat="39.00573101900131" lon="16.12903454034867"><ele>4.0</ele><time>2026-05-01T15:51:07Z</time></trkpt><trkpt lat="39.00581549539097" lon="16.128944974538264"><ele>4.2</ele><time>2026-05-01T15:51:08Z</time></trkpt><trkpt lat="39.0059018543856" lon="16.12885913109762"><ele>4.4</ele><time>2026-05-01T15:51:09Z</time></trkpt><trkpt lat="39.00599257024373" lon="16.128766604280557"><ele>4.6</ele><time>2026-05-01T15:51:10Z</time></trkpt><trkpt lat="39.00607572802912" lon="16.128682645582753"><ele>4.8</ele><time>2026-05-01T15:51:11Z</time></trkpt><trkpt lat="39.00616468306949" lon="16.128591899039435"><ele>5.0</ele><time>2026-05-01T15:51:12Z</time></trkpt><trkpt lat="39.00625340752317" lon="16.128502844627512"><ele>5.0</ele><time>2026-05-01T15:51:13Z</time></trkpt><trkpt lat="39.006345587934014" lon="16.12840962088865"><ele>5.0</ele><time>2026-05-01T15:51:14Z</time></trkpt><trkpt lat="39.00643732038777" lon="16.128316774765953"><ele>5.0</ele><time>2026-05-01T15:51:15Z</time></trkpt><trkpt lat="39.00653397224502" lon="16.128221873356576"><ele>5.0</ele><time>2026-05-01T15:51:16Z</time></trkpt><trkpt lat="39.00663043167477" lon="16.128124255081392"><ele>4.5</ele><time>2026-05-01T15:51:17Z</time></trkpt><trkpt lat="39.006728196174215" lon="16.128023361810122"><ele>4.0</ele><time>2026-05-01T15:51:18Z</time></trkpt><trkpt lat="39.00682729844939" lon="16.127921223251132"><ele>3.5</ele><time>2026-05-01T15:51:19Z</time></trkpt><trkpt lat="39.006928645388456" lon="16.12781563927835"><ele>3.0</ele><time>2026-05-01T15:51:20Z</time></trkpt><trkpt lat="39.00703184901175" lon="16.127713234153937"><ele>3.0</ele><time>2026-05-01T15:51:21Z</time></trkpt><trkpt lat="39.00713252925039" lon="16.12760928948438"><ele>3.0</ele><time>2026-05-01T15:51:22Z</time></trkpt><trkpt lat="39.00723445327859" lon="16.127507184923214"><ele>3.0</ele><time>2026-05-01T15:51:23Z</time></trkpt><trkpt lat="39.00733477815229" lon="16.12740282224657"><ele>3.0</ele><time>2026-05-01T15:51:24Z</time></trkpt><trkpt lat="39.007433303250465" lon="16.127299967671902"><ele>3.25</ele><time>2026-05-01T15:51:25Z</time></trkpt><trkpt lat="39.00753378032033" lon="16.12719728036694"><ele>3.5</ele><time>2026-05-01T15:51:26Z</time></trkpt><trkpt lat="39.00763418446461" lon="16.127093784354038"><ele>3.75</ele><time>2026-05-01T15:51:27Z</time></trkpt><trkpt lat="39.00773695594818" lon="16.126989268117384"><ele>4.0</ele><time>2026-05-01T15:51:28Z</time></trkpt><trkpt lat="39.007838990375696" lon="16.126888026317992"><ele>4.0</ele><time>2026-05-01T15:51:29Z</time></trkpt><trkpt lat="39.00794353125319" lon="16.126784701394502"><ele>4.0</ele><time>2026-05-01T15:51:29.999Z</time></trkpt><trkpt lat="39.00804743532353" lon="16.12668112772448"><ele>4.0</ele><time>2026-05-01T15:51:30.999Z</time></trkpt><trkpt lat="39.008153232626114" lon="16.126576593501813"><ele>4.0</ele><time>2026-05-01T15:51:31.999Z</time></trkpt><trkpt lat="39.00825775871814" lon="16.126469693864976"><ele>4.25</ele><time>2026-05-01T15:51:32.999Z</time></trkpt><trkpt lat="39.00836246406681" lon="16.126362335916475"><ele>4.5</ele><time>2026-05-01T15:51:33.999Z</time></trkpt><trkpt lat="39.008468574429294" lon="16.126256151906066"><ele>4.75</ele><time>2026-05-01T15:51:34.999Z</time></trkpt><trkpt lat="39.008574425389476" lon="16.126148874673806"><ele>5.0</ele><time>2026-05-01T15:51:35.999Z</time></trkpt><trkpt lat="39.008678671760585" lon="16.126042678434423"><ele>5.0</ele><time>2026-05-01T15:51:36.999Z</time></trkpt><trkpt lat="39.008783049579314" lon="16.12593233137523"><ele>5.0</ele><time>2026-05-01T15:51:37.999Z</time></trkpt><trkpt lat="39.00888888976321" lon="16.12582607007424"><ele>5.0</ele><time>2026-05-01T15:51:38.999Z</time></trkpt><trkpt lat="39.008991002409196" lon="16.125727742916855"><ele>5.0</ele><time>2026-05-01T15:51:39.999Z</time></trkpt><trkpt lat="39.00909492864334" lon="16.12562539463644"><ele>5.0</ele><time>2026-05-01T15:51:40.999Z</time></trkpt><trkpt lat="39.00919671916059" lon="16.125526290872656"><ele>5.0</ele><time>2026-05-01T15:51:42Z</time></trkpt><trkpt lat="39.00929837657679" lon="16.12543003548199"><ele>5.0</ele><time>2026-05-01T15:51:43Z</time></trkpt><trkpt lat="39.00940143528874" lon="16.1253334316777"><ele>5.0</ele><time>2026-05-01T15:51:44Z</time></trkpt><trkpt lat="39.009502618151295" lon="16.125238647073544"><ele>5.0</ele><time>2026-05-01T15:51:45Z</time></trkpt><trkpt lat="39.00960920448071" lon="16.125147319287322"><ele>5.0</ele><time>2026-05-01T15:51:46Z</time></trkpt><trkpt lat="39.009712863174975" lon="16.125058072434705"><ele>5.0</ele><time>2026-05-01T15:51:47Z</time></trkpt><trkpt lat="39.00981373185419" lon="16.124974461816855"><ele>5.0</ele><time>2026-05-01T15:51:48Z</time></trkpt><trkpt lat="39.00991646310549" lon="16.124886943416783"><ele>4.75</ele><time>2026-05-01T15:51:49Z</time></trkpt><trkpt lat="39.01001926659786" lon="16.124797997485533"><ele>4.5</ele><time>2026-05-01T15:51:50Z</time></trkpt><trkpt lat="39.01012597259146" lon="16.124714013677654"><ele>4.25</ele><time>2026-05-01T15:51:51Z</time></trkpt><trkpt lat="39.01023206711609" lon="16.124626597253013"><ele>4.0</ele><time>2026-05-01T15:51:52Z</time></trkpt><trkpt lat="39.01033848903353" lon="16.124544240462164"><ele>4.0</ele><time>2026-05-01T15:51:53Z</time></trkpt><trkpt lat="39.01045223385" lon="16.124457979043854"><ele>4.0</ele><time>2026-05-01T15:51:54Z</time></trkpt><trkpt lat="39.010559860577374" lon="16.124372092255726"><ele>4.0</ele><time>2026-05-01T15:51:55Z</time></trkpt><trkpt lat="39.01067148803966" lon="16.124289194197186"><ele>4.0</ele><time>2026-05-01T15:51:56Z</time></trkpt><trkpt lat="39.01078097854137" lon="16.124202733846506"><ele>4.0</ele><time>2026-05-01T15:51:57Z</time></trkpt><trkpt lat="39.010890425071224" lon="16.12411572892209"><ele>4.0</ele><time>2026-05-01T15:51:58Z</time></trkpt><trkpt lat="39.011002197684" lon="16.124029691393424"><ele>4.0</ele><time>2026-05-01T15:51:59Z</time></trkpt><trkpt lat="39.01110969489219" lon="16.123944559414515"><ele>4.0</ele><time>2026-05-01T15:52:00Z</time></trkpt><trkpt lat="39.01122328365466" lon="16.1238574112046"><ele>3.75</ele><time>2026-05-01T15:52:01Z</time></trkpt><trkpt lat="39.01133462458511" lon="16.123773511258463"><ele>3.5</ele><time>2026-05-01T15:52:02Z</time></trkpt><trkpt lat="39.01144249094944" lon="16.12368596320677"><ele>3.25</ele><time>2026-05-01T15:52:03Z</time></trkpt><trkpt lat="39.011553496559735" lon="16.123601360196954"><ele>3.0</ele><time>2026-05-01T15:52:04Z</time></trkpt><trkpt lat="39.011662022102506" lon="16.12351295924798"><ele>3.25</ele><time>2026-05-01T15:52:05Z</time></trkpt><trkpt lat="39.011773532535464" lon="16.123423324927085"><ele>3.5</ele><time>2026-05-01T15:52:06Z</time></trkpt><trkpt lat="39.011889260976986" lon="16.123337296524415"><ele>3.75</ele><time>2026-05-01T15:52:07Z</time></trkpt><trkpt lat="39.01200419251582" lon="16.123254640519516"><ele>4.0</ele><time>2026-05-01T15:52:08Z</time></trkpt><trkpt lat="39.01211750674584" lon="16.123164009366675"><ele>4.0</ele><time>2026-05-01T15:52:09Z</time></trkpt><trkpt lat="39.01223151454212" lon="16.12307303600527"><ele>4.0</ele><time>2026-05-01T15:52:10Z</time></trkpt><trkpt lat="39.01234701731559" lon="16.122984591980657"><ele>4.0</ele><time>2026-05-01T15:52:11Z</time></trkpt><trkpt lat="39.012465948696025" lon="16.122894247294607"><ele>4.0</ele><time>2026-05-01T15:52:12Z</time></trkpt><trkpt lat="39.012584549328515" lon="16.12280500092886"><ele>4.0</ele><time>2026-05-01T15:52:13Z</time></trkpt><trkpt lat="39.01270158818472" lon="16.122706648381516"><ele>4.0</ele><time>2026-05-01T15:52:14Z</time></trkpt><trkpt lat="39.012820042224746" lon="16.122611434305423"><ele>4.0</ele><time>2026-05-01T15:52:15Z</time></trkpt><trkpt lat="39.012938194532225" lon="16.122519433870433"><ele>4.0</ele><time>2026-05-01T15:52:16Z</time></trkpt><trkpt lat="39.013056591796676" lon="16.122427192857838"><ele>4.0</ele><time>2026-05-01T15:52:17Z</time></trkpt><trkpt lat="39.01317333987457" lon="16.122331391822627"><ele>4.0</ele><time>2026-05-01T15:52:18Z</time></trkpt><trkpt lat="39.013293067097734" lon="16.122238724739372"><ele>4.0</ele><time>2026-05-01T15:52:19Z</time></trkpt><trkpt lat="39.01341149887241" lon="16.122146231870808"><ele>4.0</ele><time>2026-05-01T15:52:20Z</time></trkpt><trkpt lat="39.01352996087299" lon="16.12205525362871"><ele>4.0</ele><time>2026-05-01T15:52:21Z</time></trkpt><trkpt lat="39.01365007647633" lon="16.121964171740288"><ele>4.0</ele><time>2026-05-01T15:52:22Z</time></trkpt><trkpt lat="39.01376929881889" lon="16.121874229916024"><ele>4.0</ele><time>2026-05-01T15:52:23Z</time></trkpt><trkpt lat="39.01388835765167" lon="16.121794263100508"><ele>4.0</ele><time>2026-05-01T15:52:24Z</time></trkpt><trkpt lat="39.01400175647813" lon="16.12170870725822"><ele>4.0</ele><time>2026-05-01T15:52:25Z</time></trkpt><trkpt lat="39.0141189300521" lon="16.121629105412566"><ele>4.0</ele><time>2026-05-01T15:52:26Z</time></trkpt><trkpt lat="39.014232708336195" lon="16.121552287582958"><ele>4.0</ele><time>2026-05-01T15:52:27Z</time></trkpt><trkpt lat="39.01434477775631" lon="16.12146923674966"><ele>4.0</ele><time>2026-05-01T15:52:28Z</time></trkpt><trkpt lat="39.01445722335827" lon="16.121390109066173"><ele>4.5</ele><time>2026-05-01T15:52:29Z</time></trkpt><trkpt lat="39.01456738138443" lon="16.1213128293499"><ele>5.0</ele><time>2026-05-01T15:52:30Z</time></trkpt><trkpt lat="39.01467422361816" lon="16.121230723473705"><ele>5.5</ele><time>2026-05-01T15:52:31Z</time></trkpt><trkpt lat="39.014788044686256" lon="16.121150185940632"><ele>6.0</ele><time>2026-05-01T15:52:32Z</time></trkpt><trkpt lat="39.014901939087814" lon="16.121067077629206"><ele>6.5</ele><time>2026-05-01T15:52:33Z</time></trkpt><trkpt lat="39.015008896785204" lon="16.120989130753035"><ele>7.0</ele><time>2026-05-01T15:52:34Z</time></trkpt><trkpt lat="39.015122788852516" lon="16.120906752531898"><ele>7.5</ele><time>2026-05-01T15:52:35Z</time></trkpt><trkpt lat="39.01524105183443" lon="16.12082077556166"><ele>8.0</ele><time>2026-05-01T15:52:36Z</time></trkpt><trkpt lat="39.015355390569475" lon="16.120739855477506"><ele>7.25</ele><time>2026-05-01T15:52:37Z</time></trkpt><trkpt lat="39.015470129250154" lon="16.120659508466506"><ele>6.5</ele><time>2026-05-01T15:52:38Z</time></trkpt><trkpt lat="39.015583019372635" lon="16.120582802726524"><ele>5.75</ele><time>2026-05-01T15:52:39Z</time></trkpt><trkpt lat="39.01569514727918" lon="16.120511567336802"><ele>5.0</ele><time>2026-05-01T15:52:40Z</time></trkpt><trkpt lat="39.015801635660644" lon="16.120435221330563"><ele>5.0</ele><time>2026-05-01T15:52:41Z</time></trkpt><trkpt lat="39.01590295664638" lon="16.120362087872287"><ele>5.0</ele><time>2026-05-01T15:52:42Z</time></trkpt><trkpt lat="39.01600112211425" lon="16.12029036057687"><ele>5.0</ele><time>2026-05-01T15:52:43Z</time></trkpt><trkpt lat="39.0160977532642" lon="16.12022322756168"><ele>5.0</ele><time>2026-05-01T15:52:44Z</time></trkpt><trkpt lat="39.01618909946115" lon="16.120160611592972"><ele>5.0</ele><time>2026-05-01T15:52:45Z</time></trkpt><trkpt lat="39.016280439681" lon="16.120094398671966"><ele>5.0</ele><time>2026-05-01T15:52:46Z</time></trkpt><trkpt lat="39.01636364740581" lon="16.120038841350745"><ele>5.0</ele><time>2026-05-01T15:52:47Z</time></trkpt><trkpt lat="39.0164420962081" lon="16.119981339738555"><ele>5.0</ele><time>2026-05-01T15:52:48Z</time></trkpt><trkpt lat="39.01650569510531" lon="16.119932510757984"><ele>5.0</ele><time>2026-05-01T15:52:49Z</time></trkpt><trkpt lat="39.01660983561059" lon="16.119852166353517"><ele>5.0</ele><time>2026-05-01T15:52:51Z</time></trkpt><trkpt lat="39.01666408947467" lon="16.119810374506283"><ele>5.0</ele><time>2026-05-01T15:52:52Z</time></trkpt><trkpt lat="39.01671773689351" lon="16.119764346797925"><ele>4.75</ele><time>2026-05-01T15:52:53Z</time></trkpt><trkpt lat="39.01680798104626" lon="16.11971285036932"><ele>4.5</ele><time>2026-05-01T15:52:55Z</time></trkpt><trkpt lat="39.016703115844386" lon="16.1195671505021"><ele>4.25</ele><time>2026-05-01T15:52:57Z</time></trkpt><trkpt lat="39.016664539675695" lon="16.119451827123406"><ele>4.0</ele><time>2026-05-01T15:52:59Z</time></trkpt><trkpt lat="39.01661356657893" lon="16.11932517773802"><ele>4.0</ele><time>2026-05-01T15:53:01Z</time></trkpt><trkpt lat="39.016544190627485" lon="16.119183199754186"><ele>4.0</ele><time>2026-05-01T15:53:03Z</time></trkpt><trkpt lat="39.01648618846659" lon="16.119071551602552"><ele>4.0</ele><time>2026-05-01T15:53:05Z</time></trkpt><trkpt lat="39.016463591236786" lon="16.118968700812296"><ele>4.0</ele><time>2026-05-01T15:53:06Z</time></trkpt><trkpt lat="39.016399180307985" lon="16.118866331792088"><ele>4.0</ele><time>2026-05-01T15:53:07Z</time></trkpt><trkpt lat="39.01635306729939" lon="16.11874536404158"><ele>4.0</ele><time>2026-05-01T15:53:08Z</time></trkpt><trkpt lat="39.01629535265457" lon="16.11861500385418"><ele>4.0</ele><time>2026-05-01T15:53:09Z</time></trkpt><trkpt lat="39.01622552942951" lon="16.118500864254237"><ele>4.0</ele><time>2026-05-01T15:53:10Z</time></trkpt><trkpt lat="39.01617930409734" lon="16.1183864141601"><ele>4.0</ele><time>2026-05-01T15:53:11Z</time></trkpt><trkpt lat="39.01613970599648" lon="16.118290272815393"><ele>4.0</ele><time>2026-05-01T15:53:12Z</time></trkpt><trkpt lat="39.01610328761204" lon="16.118223057713074"><ele>4.166666666666666</ele><time>2026-05-01T15:53:13Z</time></trkpt><trkpt lat="39.01602993009518" lon="16.118088103750665"><ele>4.333333333333333</ele><time>2026-05-01T15:53:15Z</time></trkpt><trkpt lat="39.015989441285306" lon="16.118003905807083"><ele>4.5</ele><time>2026-05-01T15:53:16Z</time></trkpt><trkpt lat="39.01594688457202" lon="16.117920552475358"><ele>4.666666666666667</ele><time>2026-05-01T15:53:17Z</time></trkpt><trkpt lat="39.01590167676055" lon="16.1178371508336"><ele>4.833333333333334</ele><time>2026-05-01T15:53:18Z</time></trkpt><trkpt lat="39.01586321450839" lon="16.117760317795504"><ele>5.0</ele><time>2026-05-01T15:53:19Z</time></trkpt><trkpt lat="39.015823775462934" lon="16.117687561360523"><ele>5.0</ele><time>2026-05-01T15:53:20Z</time></trkpt><trkpt lat="39.01578062401241" lon="16.117606266935123"><ele>5.0</ele><time>2026-05-01T15:53:21Z</time></trkpt><trkpt lat="39.01573345302857" lon="16.117520726200045"><ele>5.0</ele><time>2026-05-01T15:53:22Z</time></trkpt><trkpt lat="39.015686769398336" lon="16.117429780881668"><ele>5.0</ele><time>2026-05-01T15:53:23Z</time></trkpt><trkpt lat="39.015633382773345" lon="16.117344874477027"><ele>5.0</ele><time>2026-05-01T15:53:24Z</time></trkpt><trkpt lat="39.0155825309761" lon="16.117259793851893"><ele>5.0</ele><time>2026-05-01T15:53:25Z</time></trkpt><trkpt lat="39.01553784638295" lon="16.1171745057937"><ele>4.4</ele><time>2026-05-01T15:53:26Z</time></trkpt><trkpt lat="39.01549760120324" lon="16.117100808855323"><ele>3.8</ele><time>2026-05-01T15:53:27Z</time></trkpt><trkpt lat="39.015424584344544" lon="16.116981808656075"><ele>3.2</ele><time>2026-05-01T15:53:28.999Z</time></trkpt><trkpt lat="39.01535671144713" lon="16.116862209934165"><ele>2.6</ele><time>2026-05-01T15:53:30.999Z</time></trkpt><trkpt lat="39.01530988408699" lon="16.11677213580446"><ele>2.0</ele><time>2026-05-01T15:53:32.999Z</time></trkpt><trkpt lat="39.01542314996096" lon="16.116603695332046"><ele>2.0</ele><time>2026-05-01T15:53:38.999Z</time></trkpt><trkpt lat="39.01551921300184" lon="16.11650821343662"><ele>2.0</ele><time>2026-05-01T15:53:40.999Z</time></trkpt><trkpt lat="39.015625169457195" lon="16.116418772467707"><ele>2.0</ele><time>2026-05-01T15:53:42.999Z</time></trkpt><trkpt lat="39.015684116530934" lon="16.11636337736244"><ele>2.0</ele><time>2026-05-01T15:53:43.999Z</time></trkpt><trkpt lat="39.01574216715845" lon="16.116308824692304"><ele>2.0</ele><time>2026-05-01T15:53:44.999Z</time></trkpt><trkpt lat="39.0158169614223" lon="16.116238537308266"><ele>2.4000000000000004</ele><time>2026-05-01T15:53:45.999Z</time></trkpt><trkpt lat="39.01589809576871" lon="16.11616229186692"><ele>2.8000000000000003</ele><time>2026-05-01T15:53:46.999Z</time></trkpt><trkpt lat="39.0159841289646" lon="16.116081442798933"><ele>3.2</ele><time>2026-05-01T15:53:48Z</time></trkpt><trkpt lat="39.01607464927213" lon="16.115996376969175"><ele>3.6</ele><time>2026-05-01T15:53:49Z</time></trkpt><trkpt lat="39.01616786409532" lon="16.11590877898902"><ele>4.0</ele><time>2026-05-01T15:53:50Z</time></trkpt><trkpt lat="39.01626392131467" lon="16.115818509901732"><ele>3.6</ele><time>2026-05-01T15:53:51Z</time></trkpt><trkpt lat="39.016346560293336" lon="16.115715803472757"><ele>3.2</ele><time>2026-05-01T15:53:52Z</time></trkpt><trkpt lat="39.01643262186898" lon="16.11563900648806"><ele>2.8000000000000003</ele><time>2026-05-01T15:53:53Z</time></trkpt><trkpt lat="39.01651687600419" lon="16.115569178805693"><ele>2.4000000000000004</ele><time>2026-05-01T15:53:54Z</time></trkpt><trkpt lat="39.016593145379346" lon="16.115507056500075"><ele>2.0</ele><time>2026-05-01T15:53:55Z</time></trkpt><trkpt lat="39.01668207192896" lon="16.115430672302907"><ele>2.0</ele><time>2026-05-01T15:53:56Z</time></trkpt><trkpt lat="39.016766495867124" lon="16.11533404996285"><ele>2.0</ele><time>2026-05-01T15:53:57Z</time></trkpt><trkpt lat="39.016873089791304" lon="16.11526319287293"><ele>2.0</ele><time>2026-05-01T15:53:58Z</time></trkpt><trkpt lat="39.01696970807391" lon="16.11516518803224"><ele>2.0</ele><time>2026-05-01T15:53:59Z</time></trkpt><trkpt lat="39.01706055307321" lon="16.115061031907125"><ele>2.0</ele><time>2026-05-01T15:54:00Z</time></trkpt><trkpt lat="39.01718017976321" lon="16.11496001494899"><ele>2.0</ele><time>2026-05-01T15:54:01Z</time></trkpt><trkpt lat="39.01728513792301" lon="16.11485467810019"><ele>2.0</ele><time>2026-05-01T15:54:02Z</time></trkpt><trkpt lat="39.01738545017303" lon="16.114749554444963"><ele>2.0</ele><time>2026-05-01T15:54:03Z</time></trkpt><trkpt lat="39.01747497302989" lon="16.11465400598084"><ele>1.9999999999999998</ele><time>2026-05-01T15:54:04Z</time></trkpt><trkpt lat="39.017541488814274" lon="16.11455272753923"><ele>2.0</ele><time>2026-05-01T15:54:05Z</time></trkpt><trkpt lat="39.01760686903118" lon="16.11449342090112"><ele>2.0</ele><time>2026-05-01T15:54:06Z</time></trkpt><trkpt lat="39.017641973756064" lon="16.1144256492488"><ele>2.0</ele><time>2026-05-01T15:54:07Z</time></trkpt><trkpt lat="39.017654616912104" lon="16.1143442719375"><ele>1.9999999999999998</ele><time>2026-05-01T15:54:09Z</time></trkpt><trkpt lat="39.017695931592016" lon="16.114410691360483"><ele>2.0</ele><time>2026-05-01T15:54:10Z</time></trkpt><trkpt lat="39.017591622960126" lon="16.11437443448094"><ele>2.0</ele><time>2026-05-01T15:54:11Z</time></trkpt><trkpt lat="39.01768739293854" lon="16.114249802426727"><ele>2.0</ele><time>2026-05-01T15:54:15Z</time></trkpt><trkpt lat="39.017747606934236" lon="16.114202268558525"><ele>2.0</ele><time>2026-05-01T15:54:16Z</time></trkpt><trkpt lat="39.01782522180781" lon="16.114146820557856"><ele>2.0</ele><time>2026-05-01T15:54:17Z</time></trkpt><trkpt lat="39.017902603736516" lon="16.114072704036644"><ele>2.0</ele><time>2026-05-01T15:54:18Z</time></trkpt><trkpt lat="39.017986042704436" lon="16.113989750060288"><ele>2.0</ele><time>2026-05-01T15:54:19Z</time></trkpt><trkpt lat="39.01807798473323" lon="16.113903412082106"><ele>2.0</ele><time>2026-05-01T15:54:20Z</time></trkpt><trkpt lat="39.01817652616196" lon="16.11380875879537"><ele>2.0</ele><time>2026-05-01T15:54:21Z</time></trkpt><trkpt lat="39.018279573755585" lon="16.113711484583565"><ele>2.0</ele><time>2026-05-01T15:54:22Z</time></trkpt><trkpt lat="39.018387457916816" lon="16.11359916223729"><ele>2.0</ele><time>2026-05-01T15:54:23Z</time></trkpt><trkpt lat="39.01850010552346" lon="16.113487495553095"><ele>2.0</ele><time>2026-05-01T15:54:24Z</time></trkpt><trkpt lat="39.01862043031971" lon="16.113384174376627"><ele>2.0</ele><time>2026-05-01T15:54:25Z</time></trkpt><trkpt lat="39.01874085395488" lon="16.113278279455454"><ele>2.0</ele><time>2026-05-01T15:54:26Z</time></trkpt><trkpt lat="39.01886330377433" lon="16.113160171633478"><ele>2.0</ele><time>2026-05-01T15:54:27Z</time></trkpt><trkpt lat="39.01898581061301" lon="16.113043931495596"><ele>2.0</ele><time>2026-05-01T15:54:28Z</time></trkpt><trkpt lat="39.019112789084005" lon="16.112923849783066"><ele>2.0</ele><time>2026-05-01T15:54:29Z</time></trkpt><trkpt lat="39.019240884792666" lon="16.11280131475611"><ele>2.0</ele><time>2026-05-01T15:54:30Z</time></trkpt><trkpt lat="39.019372543386034" lon="16.11267640273831"><ele>2.0</ele><time>2026-05-01T15:54:31Z</time></trkpt><trkpt lat="39.019504007140114" lon="16.112554648989178"><ele>2.0</ele><time>2026-05-01T15:54:32Z</time></trkpt><trkpt lat="39.01963394893831" lon="16.112431821455193"><ele>2.0</ele><time>2026-05-01T15:54:33Z</time></trkpt><trkpt lat="39.01977732135303" lon="16.112285300977383"><ele>2.0</ele><time>2026-05-01T15:54:34Z</time></trkpt><trkpt lat="39.01992465040748" lon="16.11214159122549"><ele>2.0</ele><time>2026-05-01T15:54:35Z</time></trkpt><trkpt lat="39.02007148560598" lon="16.112013245526175"><ele>1.6666666666666665</ele><time>2026-05-01T15:54:36Z</time></trkpt><trkpt lat="39.020229577336366" lon="16.111867462566437"><ele>1.3333333333333333</ele><time>2026-05-01T15:54:37Z</time></trkpt><trkpt lat="39.02039173964651" lon="16.111720944302817"><ele>1.0</ele><time>2026-05-01T15:54:38Z</time></trkpt><trkpt lat="39.02055707800005" lon="16.111569099770026"><ele>1.0</ele><time>2026-05-01T15:54:39Z</time></trkpt><trkpt lat="39.02072094491587" lon="16.111419576689055"><ele>1.0</ele><time>2026-05-01T15:54:40Z</time></trkpt><trkpt lat="39.02088600921956" lon="16.11126251681095"><ele>1.0</ele><time>2026-05-01T15:54:41Z</time></trkpt><trkpt lat="39.021050777880895" lon="16.111102257532032"><ele>1.0</ele><time>2026-05-01T15:54:42Z</time></trkpt><trkpt lat="39.02121891847834" lon="16.110941202203943"><ele>1.0</ele><time>2026-05-01T15:54:43Z</time></trkpt><trkpt lat="39.02138666678508" lon="16.11078350189239"><ele>1.0</ele><time>2026-05-01T15:54:44Z</time></trkpt><trkpt lat="39.02156228476705" lon="16.110625606368785"><ele>1.0</ele><time>2026-05-01T15:54:45Z</time></trkpt><trkpt lat="39.021731588393315" lon="16.11047157126418"><ele>1.0</ele><time>2026-05-01T15:54:46Z</time></trkpt><trkpt lat="39.02190121127563" lon="16.11031300593451"><ele>1.0</ele><time>2026-05-01T15:54:47Z</time></trkpt><trkpt lat="39.02207028637527" lon="16.11015504280931"><ele>1.0</ele><time>2026-05-01T15:54:48Z</time></trkpt><trkpt lat="39.022236533582785" lon="16.109997434264727"><ele>1.0</ele><time>2026-05-01T15:54:49Z</time></trkpt><trkpt lat="39.02240388183056" lon="16.10983971223168"><ele>1.0</ele><time>2026-05-01T15:54:50Z</time></trkpt><trkpt lat="39.02257138297945" lon="16.109677794141056"><ele>1.6666666666666665</ele><time>2026-05-01T15:54:51Z</time></trkpt><trkpt lat="39.0227381410811" lon="16.1095190647725"><ele>2.3333333333333335</ele><time>2026-05-01T15:54:52Z</time></trkpt><trkpt lat="39.02290318898715" lon="16.1093687113576"><ele>3.0</ele><time>2026-05-01T15:54:53Z</time></trkpt><trkpt lat="39.02306709766893" lon="16.109213632417898"><ele>2.6666666666666665</ele><time>2026-05-01T15:54:54Z</time></trkpt><trkpt lat="39.02322926057751" lon="16.10905883840985"><ele>2.333333333333333</ele><time>2026-05-01T15:54:55Z</time></trkpt><trkpt lat="39.02339416549216" lon="16.108908430129365"><ele>2.0</ele><time>2026-05-01T15:54:56Z</time></trkpt><trkpt lat="39.023557039435815" lon="16.10875560577256"><ele>2.0</ele><time>2026-05-01T15:54:57Z</time></trkpt><trkpt lat="39.02372251991318" lon="16.108602280166156"><ele>2.0</ele><time>2026-05-01T15:54:58Z</time></trkpt><trkpt lat="39.023888628255314" lon="16.108450334774282"><ele>2.0</ele><time>2026-05-01T15:54:59Z</time></trkpt><trkpt lat="39.0240565670427" lon="16.10829763841236"><ele>2.0</ele><time>2026-05-01T15:55:00Z</time></trkpt><trkpt lat="39.024214659475895" lon="16.108144184960175"><ele>2.0</ele><time>2026-05-01T15:55:01Z</time></trkpt><trkpt lat="39.02437880893273" lon="16.107989855186954"><ele>2.0</ele><time>2026-05-01T15:55:02Z</time></trkpt><trkpt lat="39.02454276040616" lon="16.107833536125597"><ele>2.0</ele><time>2026-05-01T15:55:03Z</time></trkpt><trkpt lat="39.02470318711376" lon="16.10768099104044"><ele>2.0</ele><time>2026-05-01T15:55:04Z</time></trkpt><trkpt lat="39.02486953254672" lon="16.107526141525774"><ele>2.0</ele><time>2026-05-01T15:55:05Z</time></trkpt><trkpt lat="39.0250335596277" lon="16.107373967001905"><ele>2.333333333333333</ele><time>2026-05-01T15:55:06Z</time></trkpt><trkpt lat="39.02519545458008" lon="16.107222171925386"><ele>2.6666666666666665</ele><time>2026-05-01T15:55:07Z</time></trkpt><trkpt lat="39.02535849967589" lon="16.107066131039442"><ele>3.0</ele><time>2026-05-01T15:55:08Z</time></trkpt><trkpt lat="39.02552095613986" lon="16.106912686980653"><ele>3.0</ele><time>2026-05-01T15:55:09Z</time></trkpt><trkpt lat="39.02568412957301" lon="16.106768390596244"><ele>3.0</ele><time>2026-05-01T15:55:10Z</time></trkpt><trkpt lat="39.025846228240304" lon="16.106617890483072"><ele>3.0</ele><time>2026-05-01T15:55:11Z</time></trkpt><trkpt lat="39.02600575500343" lon="16.10646455792247"><ele>3.0</ele><time>2026-05-01T15:55:12Z</time></trkpt><trkpt lat="39.02616676654237" lon="16.106313339637783"><ele>3.0</ele><time>2026-05-01T15:55:13Z</time></trkpt><trkpt lat="39.02631942259395" lon="16.106165757440067"><ele>3.0</ele><time>2026-05-01T15:55:14Z</time></trkpt><trkpt lat="39.02646692294147" lon="16.106030493317284"><ele>3.0</ele><time>2026-05-01T15:55:15Z</time></trkpt><trkpt lat="39.02660411273961" lon="16.10590114763944"><ele>3.0</ele><time>2026-05-01T15:55:16Z</time></trkpt><trkpt lat="39.02673851971571" lon="16.105775951825656"><ele>3.0</ele><time>2026-05-01T15:55:17Z</time></trkpt><trkpt lat="39.02687004191166" lon="16.105648572582055"><ele>5.0</ele><time>2026-05-01T15:55:18Z</time></trkpt><trkpt lat="39.026998166001256" lon="16.10552609618982"><ele>7.0</ele><time>2026-05-01T15:55:19Z</time></trkpt><trkpt lat="39.02712139313054" lon="16.105409392305347"><ele>9.0</ele><time>2026-05-01T15:55:20Z</time></trkpt><trkpt lat="39.02723913265048" lon="16.105297006692687"><ele>9.0</ele><time>2026-05-01T15:55:21Z</time></trkpt><trkpt lat="39.02735398506393" lon="16.10518756487407"><ele>9.0</ele><time>2026-05-01T15:55:22Z</time></trkpt><trkpt lat="39.027457956191746" lon="16.105084838853237"><ele>9.0</ele><time>2026-05-01T15:55:23Z</time></trkpt><trkpt lat="39.02755096393019" lon="16.104990848974595"><ele>9.0</ele><time>2026-05-01T15:55:24Z</time></trkpt><trkpt lat="39.02764555731141" lon="16.104902175097866"><ele>8.333333333333334</ele><time>2026-05-01T15:55:25Z</time></trkpt><trkpt lat="39.02775503318984" lon="16.104798607687428"><ele>7.666666666666667</ele><time>2026-05-01T15:55:26Z</time></trkpt><trkpt lat="39.02788858400105" lon="16.1046824574697"><ele>7.0</ele><time>2026-05-01T15:55:27Z</time></trkpt><trkpt lat="39.02803151049964" lon="16.104553588057943"><ele>7.0</ele><time>2026-05-01T15:55:28Z</time></trkpt><trkpt lat="39.02818277016984" lon="16.104414185704147"><ele>7.0</ele><time>2026-05-01T15:55:29Z</time></trkpt><trkpt lat="39.028339853007836" lon="16.104269387276723"><ele>7.0</ele><time>2026-05-01T15:55:30Z</time></trkpt><trkpt lat="39.02850395453548" lon="16.104125971692724"><ele>6.666666666666667</ele><time>2026-05-01T15:55:31Z</time></trkpt><trkpt lat="39.02867628460757" lon="16.103983176940062"><ele>6.333333333333334</ele><time>2026-05-01T15:55:31.999Z</time></trkpt><trkpt lat="39.02885775188826" lon="16.103837861722905"><ele>6.0</ele><time>2026-05-01T15:55:32.999Z</time></trkpt><trkpt lat="39.029049607002285" lon="16.10369679599767"><ele>5.5</ele><time>2026-05-01T15:55:33.999Z</time></trkpt><trkpt lat="39.02924934742362" lon="16.103564372851142"><ele>5.0</ele><time>2026-05-01T15:55:34.999Z</time></trkpt><trkpt lat="39.029455227073015" lon="16.103435091996378"><ele>5.0</ele><time>2026-05-01T15:55:35.999Z</time></trkpt><trkpt lat="39.02966622761584" lon="16.10331334774381"><ele>5.0</ele><time>2026-05-01T15:55:36.999Z</time></trkpt><trkpt lat="39.02987875917607" lon="16.10319727782782"><ele>4.5</ele><time>2026-05-01T15:55:37.999Z</time></trkpt><trkpt lat="39.03009489057179" lon="16.103092118598237"><ele>4.0</ele><time>2026-05-01T15:55:38.999Z</time></trkpt><trkpt lat="39.03031487266415" lon="16.102999036577916"><ele>4.0</ele><time>2026-05-01T15:55:39.999Z</time></trkpt><trkpt lat="39.03053485594709" lon="16.10290987675701"><ele>4.0</ele><time>2026-05-01T15:55:40.999Z</time></trkpt><trkpt lat="39.030753407012554" lon="16.10282632176863"><ele>4.0</ele><time>2026-05-01T15:55:41.999Z</time></trkpt><trkpt lat="39.030975632016386" lon="16.10275311078295"><ele>4.0</ele><time>2026-05-01T15:55:42.999Z</time></trkpt><trkpt lat="39.03119594138993" lon="16.10268087446632"><ele>4.0</ele><time>2026-05-01T15:55:43.999Z</time></trkpt><trkpt lat="39.03141556571588" lon="16.102604532231062"><ele>4.0</ele><time>2026-05-01T15:55:44.999Z</time></trkpt><trkpt lat="39.0316287326438" lon="16.102526689111677"><ele>4.0</ele><time>2026-05-01T15:55:45.999Z</time></trkpt><trkpt lat="39.031847735008355" lon="16.1024535044881"><ele>3.333333333333333</ele><time>2026-05-01T15:55:46.999Z</time></trkpt><trkpt lat="39.03206061458491" lon="16.10237570173976"><ele>2.6666666666666665</ele><time>2026-05-01T15:55:47.999Z</time></trkpt><trkpt lat="39.032274448569005" lon="16.102297555594394"><ele>2.0</ele><time>2026-05-01T15:55:48.999Z</time></trkpt><trkpt lat="39.03248852841683" lon="16.10221689522728"><ele>3.333333333333333</ele><time>2026-05-01T15:55:49.999Z</time></trkpt><trkpt lat="39.0327030670793" lon="16.102140250850695"><ele>4.666666666666667</ele><time>2026-05-01T15:55:50.999Z</time></trkpt><trkpt lat="39.032915747925585" lon="16.102065390462705"><ele>6.0</ele><time>2026-05-01T15:55:51.999Z</time></trkpt><trkpt lat="39.03312786870291" lon="16.101993454132128"><ele>6.0</ele><time>2026-05-01T15:55:52.999Z</time></trkpt><trkpt lat="39.03334563428622" lon="16.101918002079117"><ele>6.0</ele><time>2026-05-01T15:55:54Z</time></trkpt><trkpt lat="39.03355972930247" lon="16.101840767378434"><ele>6.0</ele><time>2026-05-01T15:55:55Z</time></trkpt><trkpt lat="39.03377583631849" lon="16.101766357833903"><ele>6.0</ele><time>2026-05-01T15:55:56Z</time></trkpt><trkpt lat="39.03399342547536" lon="16.101688555581138"><ele>6.0</ele><time>2026-05-01T15:55:57Z</time></trkpt><trkpt lat="39.034208641709135" lon="16.101612385595697"><ele>6.0</ele><time>2026-05-01T15:55:58Z</time></trkpt><trkpt lat="39.034424737722944" lon="16.101538101190336"><ele>5.666666666666667</ele><time>2026-05-01T15:55:59Z</time></trkpt><trkpt lat="39.03463999583474" lon="16.101463457209835"><ele>5.333333333333334</ele><time>2026-05-01T15:56:00Z</time></trkpt><trkpt lat="39.03485510928416" lon="16.101386836928867"><ele>5.0</ele><time>2026-05-01T15:56:01Z</time></trkpt><trkpt lat="39.03506937733599" lon="16.10130612083525"><ele>5.0</ele><time>2026-05-01T15:56:02Z</time></trkpt><trkpt lat="39.035284270740895" lon="16.101229235575737"><ele>5.0</ele><time>2026-05-01T15:56:03Z</time></trkpt><trkpt lat="39.03549853204869" lon="16.101151765122346"><ele>5.0</ele><time>2026-05-01T15:56:04Z</time></trkpt><trkpt lat="39.035713145746925" lon="16.1010761263036"><ele>5.0</ele><time>2026-05-01T15:56:05Z</time></trkpt><trkpt lat="39.035924675555" lon="16.101002883631008"><ele>5.0</ele><time>2026-05-01T15:56:06Z</time></trkpt><trkpt lat="39.03614047301597" lon="16.10092704124648"><ele>5.0</ele><time>2026-05-01T15:56:07Z</time></trkpt><trkpt lat="39.03635364193062" lon="16.10085231603663"><ele>5.0</ele><time>2026-05-01T15:56:08Z</time></trkpt><trkpt lat="39.03656591591271" lon="16.100776407109226"><ele>5.0</ele><time>2026-05-01T15:56:09Z</time></trkpt><trkpt lat="39.03677938815948" lon="16.100699601443864"><ele>5.0</ele><time>2026-05-01T15:56:10Z</time></trkpt><trkpt lat="39.03699373118714" lon="16.10062308898449"><ele>5.0</ele><time>2026-05-01T15:56:11Z</time></trkpt><trkpt lat="39.037205904611604" lon="16.100547270172434"><ele>5.0</ele><time>2026-05-01T15:56:12Z</time></trkpt><trkpt lat="39.03741957660621" lon="16.100472707153276"><ele>5.0</ele><time>2026-05-01T15:56:13Z</time></trkpt><trkpt lat="39.037630146621424" lon="16.100398987363068"><ele>5.0</ele><time>2026-05-01T15:56:14Z</time></trkpt><trkpt lat="39.03784105805044" lon="16.100325358068286"><ele>5.0</ele><time>2026-05-01T15:56:15Z</time></trkpt><trkpt lat="39.038052942918696" lon="16.100251314450936"><ele>5.0</ele><time>2026-05-01T15:56:16Z</time></trkpt><trkpt lat="39.03826124211498" lon="16.10017933332567"><ele>5.0</ele><time>2026-05-01T15:56:17Z</time></trkpt><trkpt lat="39.03846985960601" lon="16.100103715560287"><ele>5.0</ele><time>2026-05-01T15:56:18Z</time></trkpt><trkpt lat="39.03867295725465" lon="16.100029694944276"><ele>5.0</ele><time>2026-05-01T15:56:19Z</time></trkpt><trkpt lat="39.03886073176877" lon="16.099959363063345"><ele>4.666666666666667</ele><time>2026-05-01T15:56:20Z</time></trkpt><trkpt lat="39.03903815269387" lon="16.099894814556787"><ele>4.333333333333333</ele><time>2026-05-01T15:56:21Z</time></trkpt><trkpt lat="39.0392215457928" lon="16.099834611679025"><ele>4.0</ele><time>2026-05-01T15:56:22Z</time></trkpt><trkpt lat="39.03940454136869" lon="16.09976967765107"><ele>4.0</ele><time>2026-05-01T15:56:23Z</time></trkpt><trkpt lat="39.03958156260178" lon="16.099710580351484"><ele>4.0</ele><time>2026-05-01T15:56:24Z</time></trkpt><trkpt lat="39.03974878926313" lon="16.099650101740682"><ele>4.0</ele><time>2026-05-01T15:56:25Z</time></trkpt><trkpt lat="39.0399069203764" lon="16.099591346223647"><ele>3.75</ele><time>2026-05-01T15:56:26Z</time></trkpt><trkpt lat="39.0400488065348" lon="16.099541663467114"><ele>3.5</ele><time>2026-05-01T15:56:27Z</time></trkpt><trkpt lat="39.04018846680606" lon="16.099495630523155"><ele>3.25</ele><time>2026-05-01T15:56:28Z</time></trkpt><trkpt lat="39.04032121201365" lon="16.099445744135625"><ele>3.0</ele><time>2026-05-01T15:56:29Z</time></trkpt><trkpt lat="39.040457059437365" lon="16.099396910966437"><ele>3.0</ele><time>2026-05-01T15:56:30Z</time></trkpt><trkpt lat="39.040583826989014" lon="16.099352324351916"><ele>3.0</ele><time>2026-05-01T15:56:31Z</time></trkpt><trkpt lat="39.04069655913437" lon="16.099311224973654"><ele>3.0</ele><time>2026-05-01T15:56:32Z</time></trkpt><trkpt lat="39.040802128350784" lon="16.099275312472727"><ele>3.0</ele><time>2026-05-01T15:56:33Z</time></trkpt><trkpt lat="39.04091315787851" lon="16.09923224820298"><ele>3.0</ele><time>2026-05-01T15:56:34Z</time></trkpt><trkpt lat="39.04103260014671" lon="16.099187400125377"><ele>3.0</ele><time>2026-05-01T15:56:35Z</time></trkpt><trkpt lat="39.04115863697306" lon="16.099144107591982"><ele>3.0</ele><time>2026-05-01T15:56:36Z</time></trkpt><trkpt lat="39.04128797336233" lon="16.099101948365785"><ele>3.0</ele><time>2026-05-01T15:56:37Z</time></trkpt><trkpt lat="39.04142239994104" lon="16.099052444405462"><ele>2.75</ele><time>2026-05-01T15:56:38Z</time></trkpt><trkpt lat="39.041556768708574" lon="16.099002745412545"><ele>2.5</ele><time>2026-05-01T15:56:39Z</time></trkpt><trkpt lat="39.04169308638593" lon="16.098953128208713"><ele>2.25</ele><time>2026-05-01T15:56:40Z</time></trkpt><trkpt lat="39.041831089355576" lon="16.098899166878812"><ele>2.0</ele><time>2026-05-01T15:56:41Z</time></trkpt><trkpt lat="39.04196963923759" lon="16.09885301762009"><ele>2.5</ele><time>2026-05-01T15:56:42Z</time></trkpt><trkpt lat="39.0421059084368" lon="16.098809397954113"><ele>3.0</ele><time>2026-05-01T15:56:43Z</time></trkpt><trkpt lat="39.042243496192" lon="16.09876198555588"><ele>3.5</ele><time>2026-05-01T15:56:44Z</time></trkpt><trkpt lat="39.0423787283172" lon="16.098714343558733"><ele>4.0</ele><time>2026-05-01T15:56:45Z</time></trkpt><trkpt lat="39.04251466851537" lon="16.098663244817534"><ele>4.0</ele><time>2026-05-01T15:56:46Z</time></trkpt><trkpt lat="39.04264440273028" lon="16.098615560635707"><ele>4.0</ele><time>2026-05-01T15:56:47Z</time></trkpt><trkpt lat="39.04277209022964" lon="16.098572098621645"><ele>4.0</ele><time>2026-05-01T15:56:48Z</time></trkpt><trkpt lat="39.042901173480594" lon="16.09853012835892"><ele>4.0</ele><time>2026-05-01T15:56:49Z</time></trkpt><trkpt lat="39.04304035321821" lon="16.0984806637112"><ele>4.0</ele><time>2026-05-01T15:56:50Z</time></trkpt><trkpt lat="39.04318027636075" lon="16.09842848925429"><ele>4.0</ele><time>2026-05-01T15:56:51Z</time></trkpt><trkpt lat="39.043311170151064" lon="16.098377323304337"><ele>4.0</ele><time>2026-05-01T15:56:52Z</time></trkpt><trkpt lat="39.04344005983664" lon="16.098331018439513"><ele>4.0</ele><time>2026-05-01T15:56:53Z</time></trkpt><trkpt lat="39.0435735090008" lon="16.098284265168484"><ele>3.5</ele><time>2026-05-01T15:56:54Z</time></trkpt><trkpt lat="39.04370989558913" lon="16.09823513779391"><ele>3.0</ele><time>2026-05-01T15:56:55Z</time></trkpt><trkpt lat="39.043850743268386" lon="16.09818378131432"><ele>2.5</ele><time>2026-05-01T15:56:56Z</time></trkpt><trkpt lat="39.04399330106783" lon="16.098135129787575"><ele>2.0</ele><time>2026-05-01T15:56:57Z</time></trkpt><trkpt lat="39.044128137360595" lon="16.098086477569424"><ele>2.25</ele><time>2026-05-01T15:56:58Z</time></trkpt><trkpt lat="39.04425534397214" lon="16.098041032249814"><ele>2.5</ele><time>2026-05-01T15:56:59Z</time></trkpt><trkpt lat="39.044382029820795" lon="16.09799711377752"><ele>2.75</ele><time>2026-05-01T15:57:00Z</time></trkpt><trkpt lat="39.04450413881298" lon="16.097954362873406"><ele>3.0</ele><time>2026-05-01T15:57:01Z</time></trkpt><trkpt lat="39.04463070360312" lon="16.09791068631602"><ele>3.0</ele><time>2026-05-01T15:57:02Z</time></trkpt><trkpt lat="39.04476570587076" lon="16.09786244117863"><ele>3.0</ele><time>2026-05-01T15:57:03Z</time></trkpt><trkpt lat="39.04490295762717" lon="16.097811207896147"><ele>3.0</ele><time>2026-05-01T15:57:04Z</time></trkpt><trkpt lat="39.04504386783855" lon="16.097761226997385"><ele>3.0</ele><time>2026-05-01T15:57:05Z</time></trkpt><trkpt lat="39.04518770460023" lon="16.09770845340282"><ele>3.0</ele><time>2026-05-01T15:57:06Z</time></trkpt><trkpt lat="39.04532994406873" lon="16.097657288593197"><ele>3.0</ele><time>2026-05-01T15:57:07Z</time></trkpt><trkpt lat="39.04546789112021" lon="16.097611289967038"><ele>3.0</ele><time>2026-05-01T15:57:08Z</time></trkpt><trkpt lat="39.04560522426493" lon="16.097558621377214"><ele>3.0</ele><time>2026-05-01T15:57:09Z</time></trkpt><trkpt lat="39.04573168360584" lon="16.097516736959083"><ele>3.0</ele><time>2026-05-01T15:57:10Z</time></trkpt><trkpt lat="39.04585616350424" lon="16.09747413931271"><ele>3.0</ele><time>2026-05-01T15:57:11Z</time></trkpt><trkpt lat="39.04597264802247" lon="16.09743604858644"><ele>3.0</ele><time>2026-05-01T15:57:12Z</time></trkpt><trkpt lat="39.04608073186935" lon="16.09739473346408"><ele>3.0</ele><time>2026-05-01T15:57:13Z</time></trkpt><trkpt lat="39.046182222095325" lon="16.097361139714735"><ele>3.0</ele><time>2026-05-01T15:57:14Z</time></trkpt><trkpt lat="39.04628361492097" lon="16.097325915023493"><ele>3.0</ele><time>2026-05-01T15:57:15Z</time></trkpt><trkpt lat="39.04638152360274" lon="16.09729110923383"><ele>3.0</ele><time>2026-05-01T15:57:16Z</time></trkpt><trkpt lat="39.046475131844986" lon="16.09725516984552"><ele>3.0</ele><time>2026-05-01T15:57:17Z</time></trkpt><trkpt lat="39.04657563698073" lon="16.09722245820592"><ele>3.0</ele><time>2026-05-01T15:57:18Z</time></trkpt><trkpt lat="39.04668812861489" lon="16.097184143141476"><ele>3.25</ele><time>2026-05-01T15:57:19Z</time></trkpt><trkpt lat="39.04681191642257" lon="16.097142156213735"><ele>3.5</ele><time>2026-05-01T15:57:20Z</time></trkpt><trkpt lat="39.04693812367245" lon="16.09709776516198"><ele>3.75</ele><time>2026-05-01T15:57:21Z</time></trkpt><trkpt lat="39.047062068863475" lon="16.09705067664232"><ele>4.0</ele><time>2026-05-01T15:57:22Z</time></trkpt><trkpt lat="39.0471854430811" lon="16.097006168623793"><ele>4.0</ele><time>2026-05-01T15:57:23Z</time></trkpt><trkpt lat="39.04731501374706" lon="16.096959944708974"><ele>4.0</ele><time>2026-05-01T15:57:24Z</time></trkpt><trkpt lat="39.04745053805656" lon="16.096912773083822"><ele>4.0</ele><time>2026-05-01T15:57:25Z</time></trkpt><trkpt lat="39.04759820334784" lon="16.096861934108517"><ele>4.0</ele><time>2026-05-01T15:57:26Z</time></trkpt><trkpt lat="39.04775653725802" lon="16.096808290195813"><ele>3.6666666666666665</ele><time>2026-05-01T15:57:27Z</time></trkpt><trkpt lat="39.04792507562378" lon="16.09674853766092"><ele>3.333333333333333</ele><time>2026-05-01T15:57:28Z</time></trkpt><trkpt lat="39.04809239770561" lon="16.096690392045318"><ele>3.0</ele><time>2026-05-01T15:57:29Z</time></trkpt><trkpt lat="39.04826068907793" lon="16.096628162670815"><ele>3.0</ele><time>2026-05-01T15:57:30Z</time></trkpt><trkpt lat="39.04842863685936" lon="16.096566936546505"><ele>3.0</ele><time>2026-05-01T15:57:31Z</time></trkpt><trkpt lat="39.048586488695705" lon="16.096511618546845"><ele>3.0</ele><time>2026-05-01T15:57:31.999Z</time></trkpt><trkpt lat="39.04874343219206" lon="16.096463741594864"><ele>3.0</ele><time>2026-05-01T15:57:32.999Z</time></trkpt><trkpt lat="39.048903605974395" lon="16.096407406569323"><ele>3.0</ele><time>2026-05-01T15:57:33.999Z</time></trkpt><trkpt lat="39.049053960758286" lon="16.096354053096317"><ele>3.0</ele><time>2026-05-01T15:57:34.999Z</time></trkpt><trkpt lat="39.049195407241506" lon="16.09630641718524"><ele>3.0</ele><time>2026-05-01T15:57:35.999Z</time></trkpt><trkpt lat="39.0493259649116" lon="16.096256613803632"><ele>3.0</ele><time>2026-05-01T15:57:36.999Z</time></trkpt><trkpt lat="39.04945428087887" lon="16.096208375053262"><ele>3.0</ele><time>2026-05-01T15:57:37.999Z</time></trkpt><trkpt lat="39.049582888121755" lon="16.09616435328969"><ele>3.0</ele><time>2026-05-01T15:57:38.999Z</time></trkpt><trkpt lat="39.04972104318542" lon="16.09611905810458"><ele>3.0</ele><time>2026-05-01T15:57:39.999Z</time></trkpt><trkpt lat="39.049861446617314" lon="16.09606521008425"><ele>3.0</ele><time>2026-05-01T15:57:40.999Z</time></trkpt><trkpt lat="39.04999574721815" lon="16.096014940169393"><ele>3.0</ele><time>2026-05-01T15:57:41.999Z</time></trkpt><trkpt lat="39.050118574542715" lon="16.09597959862914"><ele>3.0</ele><time>2026-05-01T15:57:42.999Z</time></trkpt><trkpt lat="39.05024158376957" lon="16.095932514447348"><ele>3.25</ele><time>2026-05-01T15:57:43.999Z</time></trkpt><trkpt lat="39.05037772892157" lon="16.09588522406036"><ele>3.5</ele><time>2026-05-01T15:57:44.999Z</time></trkpt><trkpt lat="39.05051383538424" lon="16.095835237894693"><ele>3.75</ele><time>2026-05-01T15:57:45.999Z</time></trkpt><trkpt lat="39.050653500041136" lon="16.095784699324042"><ele>4.0</ele><time>2026-05-01T15:57:46.999Z</time></trkpt><trkpt lat="39.050788985541" lon="16.095736853542345"><ele>3.75</ele><time>2026-05-01T15:57:47.999Z</time></trkpt><trkpt lat="39.05092767446957" lon="16.095687773058124"><ele>3.5</ele><time>2026-05-01T15:57:48.999Z</time></trkpt><trkpt lat="39.05106668019336" lon="16.095639520857347"><ele>3.25</ele><time>2026-05-01T15:57:49.999Z</time></trkpt><trkpt lat="39.05121328274917" lon="16.095588668378202"><ele>3.0</ele><time>2026-05-01T15:57:50.999Z</time></trkpt><trkpt lat="39.051368153026324" lon="16.095535112737906"><ele>3.0</ele><time>2026-05-01T15:57:51.999Z</time></trkpt><trkpt lat="39.05151093674041" lon="16.095487679308683"><ele>3.0</ele><time>2026-05-01T15:57:52.999Z</time></trkpt><trkpt lat="39.0516430832949" lon="16.095440922471482"><ele>3.0</ele><time>2026-05-01T15:57:53.999Z</time></trkpt><trkpt lat="39.0517696863179" lon="16.095396955723647"><ele>3.0</ele><time>2026-05-01T15:57:54.999Z</time></trkpt><trkpt lat="39.05190356716348" lon="16.095349052642675"><ele>3.25</ele><time>2026-05-01T15:57:55.999Z</time></trkpt><trkpt lat="39.052036961257016" lon="16.09530337789633"><ele>3.5</ele><time>2026-05-01T15:57:56.999Z</time></trkpt><trkpt lat="39.05217306559312" lon="16.095260430527848"><ele>3.75</ele><time>2026-05-01T15:57:57.999Z</time></trkpt><trkpt lat="39.05230453844557" lon="16.095214820758656"><ele>4.0</ele><time>2026-05-01T15:57:58.999Z</time></trkpt><trkpt lat="39.05242954343331" lon="16.095170968971793"><ele>3.75</ele><time>2026-05-01T15:58:00Z</time></trkpt><trkpt lat="39.05255595847066" lon="16.0951230172352"><ele>3.5</ele><time>2026-05-01T15:58:01Z</time></trkpt><trkpt lat="39.05268776555634" lon="16.095072755066116"><ele>3.25</ele><time>2026-05-01T15:58:02Z</time></trkpt><trkpt lat="39.05282061852455" lon="16.095026696759145"><ele>3.0</ele><time>2026-05-01T15:58:03Z</time></trkpt><trkpt lat="39.05295530688412" lon="16.09497866645756"><ele>3.0</ele><time>2026-05-01T15:58:04Z</time></trkpt><trkpt lat="39.05308901561967" lon="16.0949332957194"><ele>3.0</ele><time>2026-05-01T15:58:05Z</time></trkpt><trkpt lat="39.05322531676006" lon="16.094884541183394"><ele>3.0</ele><time>2026-05-01T15:58:06Z</time></trkpt><trkpt lat="39.053363610713376" lon="16.094835272430736"><ele>3.0</ele><time>2026-05-01T15:58:07Z</time></trkpt><trkpt lat="39.05350434408298" lon="16.09478176950479"><ele>2.6666666666666665</ele><time>2026-05-01T15:58:08Z</time></trkpt><trkpt lat="39.05364715276933" lon="16.09472981939547"><ele>2.333333333333333</ele><time>2026-05-01T15:58:09Z</time></trkpt><trkpt lat="39.05379103136505" lon="16.094679392769816"><ele>2.0</ele><time>2026-05-01T15:58:10Z</time></trkpt><trkpt lat="39.053942660609394" lon="16.094611677690885"><ele>2.0</ele><time>2026-05-01T15:58:11Z</time></trkpt><trkpt lat="39.05409800019691" lon="16.094553645201636"><ele>2.0</ele><time>2026-05-01T15:58:12Z</time></trkpt><trkpt lat="39.05425535381026" lon="16.09449222199887"><ele>2.0</ele><time>2026-05-01T15:58:13Z</time></trkpt><trkpt lat="39.05442326219758" lon="16.094429001555355"><ele>2.0</ele><time>2026-05-01T15:58:14Z</time></trkpt><trkpt lat="39.054604128225506" lon="16.09436314009452"><ele>2.0</ele><time>2026-05-01T15:58:15Z</time></trkpt><trkpt lat="39.054784942629304" lon="16.09431447567573"><ele>2.0</ele><time>2026-05-01T15:58:16Z</time></trkpt><trkpt lat="39.05496834008069" lon="16.09424935015358"><ele>2.6666666666666665</ele><time>2026-05-01T15:58:17Z</time></trkpt><trkpt lat="39.05514394716626" lon="16.09418606907364"><ele>3.333333333333333</ele><time>2026-05-01T15:58:18Z</time></trkpt><trkpt lat="39.05530226303474" lon="16.094110488851783"><ele>4.0</ele><time>2026-05-01T15:58:19Z</time></trkpt><trkpt lat="39.05546148559583" lon="16.094059117495053"><ele>3.0</ele><time>2026-05-01T15:58:20Z</time></trkpt><trkpt lat="39.05561188381927" lon="16.09401262550452"><ele>2.0</ele><time>2026-05-01T15:58:21Z</time></trkpt><trkpt lat="39.055762697348456" lon="16.09397544711761"><ele>1.0</ele><time>2026-05-01T15:58:22Z</time></trkpt><trkpt lat="39.055922055882014" lon="16.093898556419543"><ele>1.0</ele><time>2026-05-01T15:58:23Z</time></trkpt><trkpt lat="39.056066229916325" lon="16.093848256443927"><ele>1.0</ele><time>2026-05-01T15:58:24Z</time></trkpt><trkpt lat="39.056212840859686" lon="16.093794090236614"><ele>1.0</ele><time>2026-05-01T15:58:25Z</time></trkpt><trkpt lat="39.05636736456789" lon="16.09374104903069"><ele>1.0</ele><time>2026-05-01T15:58:26Z</time></trkpt><trkpt lat="39.05652276112792" lon="16.09369195187374"><ele>1.0</ele><time>2026-05-01T15:58:27Z</time></trkpt><trkpt lat="39.05667546999459" lon="16.093638394778047"><ele>1.0</ele><time>2026-05-01T15:58:28Z</time></trkpt><trkpt lat="39.05682115314611" lon="16.093585179551916"><ele>1.25</ele><time>2026-05-01T15:58:29Z</time></trkpt><trkpt lat="39.0569563300412" lon="16.09353556673674"><ele>1.5</ele><time>2026-05-01T15:58:30Z</time></trkpt><trkpt lat="39.05709315151973" lon="16.093492753361307"><ele>1.75</ele><time>2026-05-01T15:58:31Z</time></trkpt><trkpt lat="39.0572304417099" lon="16.093443551761823"><ele>2.0</ele><time>2026-05-01T15:58:32Z</time></trkpt><trkpt lat="39.05736917183637" lon="16.09339184801659"><ele>2.5</ele><time>2026-05-01T15:58:33Z</time></trkpt><trkpt lat="39.05750921082238" lon="16.093342664688368"><ele>3.0</ele><time>2026-05-01T15:58:34Z</time></trkpt><trkpt lat="39.0576511310683" lon="16.09329058900688"><ele>3.5</ele><time>2026-05-01T15:58:35Z</time></trkpt><trkpt lat="39.05778902616832" lon="16.093244641467628"><ele>4.0</ele><time>2026-05-01T15:58:36Z</time></trkpt><trkpt lat="39.05792168672117" lon="16.093194648187662"><ele>3.25</ele><time>2026-05-01T15:58:37Z</time></trkpt><trkpt lat="39.0580501525687" lon="16.093147068747445"><ele>2.5</ele><time>2026-05-01T15:58:38Z</time></trkpt><trkpt lat="39.058166803064005" lon="16.09310198917301"><ele>1.75</ele><time>2026-05-01T15:58:39Z</time></trkpt><trkpt lat="39.0582726862872" lon="16.093066110693265"><ele>1.0</ele><time>2026-05-01T15:58:40Z</time></trkpt><trkpt lat="39.058374509840775" lon="16.093027945552343"><ele>1.0</ele><time>2026-05-01T15:58:41Z</time></trkpt><trkpt lat="39.05847516446133" lon="16.09299443035193"><ele>1.0</ele><time>2026-05-01T15:58:42Z</time></trkpt><trkpt lat="39.058583379439895" lon="16.09295761109654"><ele>1.0</ele><time>2026-05-01T15:58:43Z</time></trkpt><trkpt lat="39.058691705838555" lon="16.092919541070597"><ele>1.0</ele><time>2026-05-01T15:58:44Z</time></trkpt><trkpt lat="39.05878657935601" lon="16.092878426228346"><ele>1.0</ele><time>2026-05-01T15:58:45Z</time></trkpt><trkpt lat="39.05886559136558" lon="16.09284869004123"><ele>1.0</ele><time>2026-05-01T15:58:46Z</time></trkpt><trkpt lat="39.058978673181734" lon="16.09285315152752"><ele>1.0</ele><time>2026-05-01T15:58:48Z</time></trkpt><trkpt lat="39.05909543486656" lon="16.092773079549612"><ele>1.0</ele><time>2026-05-01T15:58:49Z</time></trkpt><trkpt lat="39.059223160152065" lon="16.092723785031087"><ele>1.0</ele><time>2026-05-01T15:58:50Z</time></trkpt><trkpt lat="39.059367856119984" lon="16.092671311950422"><ele>1.3333333333333333</ele><time>2026-05-01T15:58:51Z</time></trkpt><trkpt lat="39.059530603782385" lon="16.092617145581354"><ele>1.6666666666666665</ele><time>2026-05-01T15:58:52Z</time></trkpt><trkpt lat="39.0597139788297" lon="16.09256317401786"><ele>2.0</ele><time>2026-05-01T15:58:53Z</time></trkpt><trkpt lat="39.05991766936262" lon="16.092497154422666"><ele>2.5</ele><time>2026-05-01T15:58:54Z</time></trkpt><trkpt lat="39.06013473323536" lon="16.09242788029062"><ele>3.0</ele><time>2026-05-01T15:58:55Z</time></trkpt><trkpt lat="39.06036130113314" lon="16.09234852340701"><ele>2.5</ele><time>2026-05-01T15:58:56Z</time></trkpt><trkpt lat="39.06059740150235" lon="16.092261687250016"><ele>2.0</ele><time>2026-05-01T15:58:57Z</time></trkpt><trkpt lat="39.06084453429854" lon="16.09217018222706"><ele>2.0</ele><time>2026-05-01T15:58:58Z</time></trkpt><trkpt lat="39.06109654987568" lon="16.092081209062176"><ele>2.0</ele><time>2026-05-01T15:58:59Z</time></trkpt><trkpt lat="39.061355963742386" lon="16.091987767148755"><ele>3.0</ele><time>2026-05-01T15:59:00Z</time></trkpt><trkpt lat="39.06161705139176" lon="16.091894872287387"><ele>4.0</ele><time>2026-05-01T15:59:01Z</time></trkpt><trkpt lat="39.06188067814365" lon="16.091800205791184"><ele>4.0</ele><time>2026-05-01T15:59:02Z</time></trkpt><trkpt lat="39.06214490829951" lon="16.091706700416673"><ele>4.0</ele><time>2026-05-01T15:59:03Z</time></trkpt><trkpt lat="39.06241213810778" lon="16.091609796012914"><ele>2.0</ele><time>2026-05-01T15:59:04Z</time></trkpt><trkpt lat="39.062674617707955" lon="16.09151421743937"><ele>0.0</ele><time>2026-05-01T15:59:05Z</time></trkpt><trkpt lat="39.06293769890379" lon="16.091419530708574"><ele>0.0</ele><time>2026-05-01T15:59:06Z</time></trkpt><trkpt lat="39.06320060806312" lon="16.091325726112192"><ele>0.0</ele><time>2026-05-01T15:59:07Z</time></trkpt><trkpt lat="39.06345828148496" lon="16.09124084014118"><ele>0.5</ele><time>2026-05-01T15:59:08Z</time></trkpt><trkpt lat="39.06371471025052" lon="16.09115112821167"><ele>1.0</ele><time>2026-05-01T15:59:09Z</time></trkpt><trkpt lat="39.06394186743691" lon="16.091069181669553"><ele>1.3333333333333333</ele><time>2026-05-01T15:59:10Z</time></trkpt><trkpt lat="39.064160932651134" lon="16.09099507074184"><ele>1.6666666666666665</ele><time>2026-05-01T15:59:11Z</time></trkpt><trkpt lat="39.06436424875059" lon="16.09093108714698"><ele>2.0</ele><time>2026-05-01T15:59:12Z</time></trkpt><trkpt lat="39.064556703789215" lon="16.090892773141196"><ele>2.0</ele><time>2026-05-01T15:59:13Z</time></trkpt><trkpt lat="39.064750466012924" lon="16.090887105684157"><ele>2.0</ele><time>2026-05-01T15:59:14Z</time></trkpt><trkpt lat="39.064942071906756" lon="16.09090973600201"><ele>2.0</ele><time>2026-05-01T15:59:15Z</time></trkpt><trkpt lat="39.06512458799097" lon="16.090980633974972"><ele>2.0</ele><time>2026-05-01T15:59:16Z</time></trkpt><trkpt lat="39.06530645089928" lon="16.091043635849754"><ele>2.0</ele><time>2026-05-01T15:59:17Z</time></trkpt><trkpt lat="39.065465608062844" lon="16.091153085315085"><ele>2.0</ele><time>2026-05-01T15:59:18Z</time></trkpt><trkpt lat="39.06563199765833" lon="16.09127008062101"><ele>2.333333333333333</ele><time>2026-05-01T15:59:19Z</time></trkpt><trkpt lat="39.06578783910791" lon="16.0913912797398"><ele>2.6666666666666665</ele><time>2026-05-01T15:59:20Z</time></trkpt><trkpt lat="39.065930066329" lon="16.091500300248885"><ele>3.0</ele><time>2026-05-01T15:59:21Z</time></trkpt><trkpt lat="39.06607114169609" lon="16.091586161864115"><ele>4.75</ele><time>2026-05-01T15:59:22Z</time></trkpt><trkpt lat="39.06619591384141" lon="16.091688796853692"><ele>6.5</ele><time>2026-05-01T15:59:23Z</time></trkpt><trkpt lat="39.066316565585296" lon="16.091781015677203"><ele>8.25</ele><time>2026-05-01T15:59:24Z</time></trkpt><trkpt lat="39.066434437964126" lon="16.091870703319785"><ele>10.0</ele><time>2026-05-01T15:59:25Z</time></trkpt><trkpt lat="39.06653964975064" lon="16.091952181243688"><ele>10.2</ele><time>2026-05-01T15:59:26Z</time></trkpt><trkpt lat="39.06663539535749" lon="16.092022749424363"><ele>10.4</ele><time>2026-05-01T15:59:27Z</time></trkpt><trkpt lat="39.0667236094812" lon="16.092091086035307"><ele>10.600000000000001</ele><time>2026-05-01T15:59:28Z</time></trkpt><trkpt lat="39.0668100981325" lon="16.092156297305394"><ele>10.8</ele><time>2026-05-01T15:59:29Z</time></trkpt><trkpt lat="39.06689228871324" lon="16.092216112665426"><ele>11.0</ele><time>2026-05-01T15:59:30Z</time></trkpt><trkpt lat="39.06697178232698" lon="16.09227530279465"><ele>11.0</ele><time>2026-05-01T15:59:31Z</time></trkpt><trkpt lat="39.067046102321186" lon="16.092329168621767"><ele>11.0</ele><time>2026-05-01T15:59:32Z</time></trkpt><trkpt lat="39.067124812050416" lon="16.09238906415975"><ele>11.0</ele><time>2026-05-01T15:59:33Z</time></trkpt><trkpt lat="39.06720985200252" lon="16.09244556505792"><ele>11.0</ele><time>2026-05-01T15:59:34Z</time></trkpt><trkpt lat="39.067300302732676" lon="16.09248714536822"><ele>11.0</ele><time>2026-05-01T15:59:35Z</time></trkpt><trkpt lat="39.0673979452766" lon="16.092518607449254"><ele>12.200000000000001</ele><time>2026-05-01T15:59:36Z</time></trkpt><trkpt lat="39.067510794852595" lon="16.092534338980737"><ele>13.4</ele><time>2026-05-01T15:59:37Z</time></trkpt><trkpt lat="39.06762274078822" lon="16.09252737509864"><ele>14.6</ele><time>2026-05-01T15:59:37.999Z</time></trkpt><trkpt lat="39.06772387564894" lon="16.09250267866171"><ele>15.8</ele><time>2026-05-01T15:59:38.999Z</time></trkpt><trkpt lat="39.06782118867156" lon="16.092473415354043"><ele>17.0</ele><time>2026-05-01T15:59:39.999Z</time></trkpt><trkpt lat="39.06791264391982" lon="16.092440951014304"><ele>15.333333333333334</ele><time>2026-05-01T15:59:40.999Z</time></trkpt><trkpt lat="39.06802323385867" lon="16.092399595935195"><ele>13.666666666666668</ele><time>2026-05-01T15:59:41.999Z</time></trkpt><trkpt lat="39.068249160676935" lon="16.09232222208969"><ele>12.0</ele><time>2026-05-01T15:59:43.999Z</time></trkpt><trkpt lat="39.06836883472669" lon="16.092281179775664"><ele>12.0</ele><time>2026-05-01T15:59:44.999Z</time></trkpt><trkpt lat="39.06849678658723" lon="16.092227502642817"><ele>12.0</ele><time>2026-05-01T15:59:45.999Z</time></trkpt><trkpt lat="39.06863069930659" lon="16.092186795660716"><ele>12.0</ele><time>2026-05-01T15:59:46.999Z</time></trkpt><trkpt lat="39.06877313978622" lon="16.09215350729272"><ele>12.0</ele><time>2026-05-01T15:59:47.999Z</time></trkpt><trkpt lat="39.06892139050612" lon="16.092133856347942"><ele>12.0</ele><time>2026-05-01T15:59:48.999Z</time></trkpt><trkpt lat="39.069071311714154" lon="16.092101353152636"><ele>12.0</ele><time>2026-05-01T15:59:49.999Z</time></trkpt><trkpt lat="39.06922489108496" lon="16.09207719303614"><ele>12.0</ele><time>2026-05-01T15:59:50.999Z</time></trkpt><trkpt lat="39.06938088388521" lon="16.092054321292114"><ele>12.0</ele><time>2026-05-01T15:59:51.999Z</time></trkpt><trkpt lat="39.06953570776136" lon="16.0920299370246"><ele>12.0</ele><time>2026-05-01T15:59:52.999Z</time></trkpt><trkpt lat="39.06968527287927" lon="16.092008378419177"><ele>12.0</ele><time>2026-05-01T15:59:53.999Z</time></trkpt><trkpt lat="39.06982994088724" lon="16.0919933792255"><ele>12.0</ele><time>2026-05-01T15:59:54.999Z</time></trkpt><trkpt lat="39.06997988571769" lon="16.091985586703235"><ele>12.0</ele><time>2026-05-01T15:59:55.999Z</time></trkpt><trkpt lat="39.070141682591" lon="16.09196574357479"><ele>12.0</ele><time>2026-05-01T15:59:56.999Z</time></trkpt><trkpt lat="39.07031211938211" lon="16.091945158216948"><ele>12.0</ele><time>2026-05-01T15:59:57.999Z</time></trkpt><trkpt lat="39.07048771065782" lon="16.091910876916305"><ele>12.0</ele><time>2026-05-01T15:59:58.999Z</time></trkpt><trkpt lat="39.070656973157625" lon="16.091905876508022"><ele>12.0</ele><time>2026-05-01T15:59:59.999Z</time></trkpt><trkpt lat="39.070806855629016" lon="16.091890999614517"><ele>12.0</ele><time>2026-05-01T16:00:00.999Z</time></trkpt><trkpt lat="39.07095012946577" lon="16.091864931596856"><ele>12.0</ele><time>2026-05-01T16:00:01.999Z</time></trkpt><trkpt lat="39.07108571300182" lon="16.091841894383492"><ele>12.0</ele><time>2026-05-01T16:00:02.999Z</time></trkpt><trkpt lat="39.07121700209852" lon="16.091824585536102"><ele>12.0</ele><time>2026-05-01T16:00:03.999Z</time></trkpt><trkpt lat="39.071344043001986" lon="16.091806574554372"><ele>12.0</ele><time>2026-05-01T16:00:04.999Z</time></trkpt><trkpt lat="39.07146434642882" lon="16.091788928663544"><ele>12.0</ele><time>2026-05-01T16:00:06Z</time></trkpt><trkpt lat="39.07157705986655" lon="16.091775439537354"><ele>12.0</ele><time>2026-05-01T16:00:07Z</time></trkpt><trkpt lat="39.071685897000606" lon="16.091761235706734"><ele>12.0</ele><time>2026-05-01T16:00:08Z</time></trkpt><trkpt lat="39.07179070534647" lon="16.091744301503866"><ele>12.0</ele><time>2026-05-01T16:00:09Z</time></trkpt><trkpt lat="39.071909364295564" lon="16.0917287304035"><ele>11.75</ele><time>2026-05-01T16:00:10Z</time></trkpt><trkpt lat="39.072037435305276" lon="16.091709139918546"><ele>11.5</ele><time>2026-05-01T16:00:11Z</time></trkpt><trkpt lat="39.07217171442572" lon="16.091687789912005"><ele>11.25</ele><time>2026-05-01T16:00:12Z</time></trkpt><trkpt lat="39.07230868953746" lon="16.091666977434414"><ele>11.0</ele><time>2026-05-01T16:00:13Z</time></trkpt><trkpt lat="39.07243762354045" lon="16.091647144207027"><ele>11.5</ele><time>2026-05-01T16:00:14Z</time></trkpt><trkpt lat="39.07256067959351" lon="16.09162425964003"><ele>12.0</ele><time>2026-05-01T16:00:15Z</time></trkpt><trkpt lat="39.07268876803264" lon="16.091595534377696"><ele>12.5</ele><time>2026-05-01T16:00:16Z</time></trkpt><trkpt lat="39.07281620069791" lon="16.091558833671773"><ele>13.0</ele><time>2026-05-01T16:00:17Z</time></trkpt><trkpt lat="39.07293580240051" lon="16.09151747433338"><ele>11.75</ele><time>2026-05-01T16:00:18Z</time></trkpt><trkpt lat="39.07305049619813" lon="16.091468640119484"><ele>10.5</ele><time>2026-05-01T16:00:19Z</time></trkpt><trkpt lat="39.07316925884522" lon="16.09141660333257"><ele>9.25</ele><time>2026-05-01T16:00:20Z</time></trkpt><trkpt lat="39.07329187196998" lon="16.091364333570517"><ele>8.0</ele><time>2026-05-01T16:00:21Z</time></trkpt><trkpt lat="39.07342152236681" lon="16.091307162445677"><ele>7.75</ele><time>2026-05-01T16:00:22Z</time></trkpt><trkpt lat="39.07355029688423" lon="16.091245920360972"><ele>7.5</ele><time>2026-05-01T16:00:23Z</time></trkpt><trkpt lat="39.07368094274702" lon="16.09118372393481"><ele>7.25</ele><time>2026-05-01T16:00:24Z</time></trkpt><trkpt lat="39.07381116544306" lon="16.091120284101006"><ele>7.0</ele><time>2026-05-01T16:00:25Z</time></trkpt><trkpt lat="39.07393900127535" lon="16.091064081741017"><ele>7.0</ele><time>2026-05-01T16:00:26Z</time></trkpt><trkpt lat="39.074063790091785" lon="16.09100730817867"><ele>7.0</ele><time>2026-05-01T16:00:27Z</time></trkpt><trkpt lat="39.07418647408853" lon="16.090950982757835"><ele>7.0</ele><time>2026-05-01T16:00:28Z</time></trkpt><trkpt lat="39.07430665659545" lon="16.090891469303813"><ele>7.0</ele><time>2026-05-01T16:00:29Z</time></trkpt><trkpt lat="39.07443152727862" lon="16.090828075323056"><ele>7.0</ele><time>2026-05-01T16:00:30Z</time></trkpt><trkpt lat="39.07456120360292" lon="16.090765676832728"><ele>7.0</ele><time>2026-05-01T16:00:31Z</time></trkpt><trkpt lat="39.07469223079147" lon="16.090705408676744"><ele>7.0</ele><time>2026-05-01T16:00:32Z</time></trkpt><trkpt lat="39.07482282713778" lon="16.090642073913145"><ele>7.0</ele><time>2026-05-01T16:00:33Z</time></trkpt><trkpt lat="39.07495182196057" lon="16.090584458889758"><ele>8.0</ele><time>2026-05-01T16:00:34Z</time></trkpt><trkpt lat="39.07508007350431" lon="16.090518764655172"><ele>9.0</ele><time>2026-05-01T16:00:35Z</time></trkpt><trkpt lat="39.07520973330611" lon="16.0904536650279"><ele>10.0</ele><time>2026-05-01T16:00:36Z</time></trkpt><trkpt lat="39.0753433242899" lon="16.090389511758566"><ele>11.0</ele><time>2026-05-01T16:00:37Z</time></trkpt><trkpt lat="39.07547542153325" lon="16.09032873386978"><ele>11.0</ele><time>2026-05-01T16:00:38Z</time></trkpt><trkpt lat="39.07561139754711" lon="16.09026693748796"><ele>11.0</ele><time>2026-05-01T16:00:39Z</time></trkpt><trkpt lat="39.07574635609589" lon="16.09020420976998"><ele>11.0</ele><time>2026-05-01T16:00:40Z</time></trkpt><trkpt lat="39.07588233814526" lon="16.0901402988298"><ele>11.0</ele><time>2026-05-01T16:00:41Z</time></trkpt><trkpt lat="39.07601691612593" lon="16.090078394538722"><ele>10.5</ele><time>2026-05-01T16:00:42Z</time></trkpt><trkpt lat="39.07614933506171" lon="16.090017514540357"><ele>10.0</ele><time>2026-05-01T16:00:43Z</time></trkpt><trkpt lat="39.07628479139392" lon="16.08995837400037"><ele>9.5</ele><time>2026-05-01T16:00:44Z</time></trkpt><trkpt lat="39.076419543980144" lon="16.08989624530214"><ele>9.0</ele><time>2026-05-01T16:00:45Z</time></trkpt><trkpt lat="39.07655584548099" lon="16.089831167490235"><ele>8.75</ele><time>2026-05-01T16:00:46Z</time></trkpt><trkpt lat="39.076692746316034" lon="16.089766837128742"><ele>8.5</ele><time>2026-05-01T16:00:47Z</time></trkpt><trkpt lat="39.0768219793247" lon="16.08970229995219"><ele>8.25</ele><time>2026-05-01T16:00:48Z</time></trkpt><trkpt lat="39.076951749068854" lon="16.089646420409178"><ele>8.0</ele><time>2026-05-01T16:00:49Z</time></trkpt><trkpt lat="39.0770831802199" lon="16.08958705724089"><ele>8.0</ele><time>2026-05-01T16:00:50Z</time></trkpt><trkpt lat="39.07721127580706" lon="16.089519445879507"><ele>8.0</ele><time>2026-05-01T16:00:51Z</time></trkpt><trkpt lat="39.07733851666049" lon="16.089458198831373"><ele>8.0</ele><time>2026-05-01T16:00:52Z</time></trkpt><trkpt lat="39.077467680063165" lon="16.08939790661243"><ele>8.0</ele><time>2026-05-01T16:00:53Z</time></trkpt><trkpt lat="39.07760040559418" lon="16.089335859789976"><ele>7.75</ele><time>2026-05-01T16:00:54Z</time></trkpt><trkpt lat="39.077737098341984" lon="16.089272085150835"><ele>7.5</ele><time>2026-05-01T16:00:55Z</time></trkpt><trkpt lat="39.07787632066051" lon="16.08920828178136"><ele>7.25</ele><time>2026-05-01T16:00:56Z</time></trkpt><trkpt lat="39.07800832542255" lon="16.089148879661188"><ele>7.0</ele><time>2026-05-01T16:00:57Z</time></trkpt><trkpt lat="39.07813143926086" lon="16.089092170413647"><ele>7.5</ele><time>2026-05-01T16:00:58Z</time></trkpt><trkpt lat="39.07824460945832" lon="16.089043183440186"><ele>8.0</ele><time>2026-05-01T16:00:59Z</time></trkpt><trkpt lat="39.07835836812942" lon="16.088997694944666"><ele>8.5</ele><time>2026-05-01T16:01:00Z</time></trkpt><trkpt lat="39.07846480922401" lon="16.08894938308959"><ele>9.0</ele><time>2026-05-01T16:01:01Z</time></trkpt><trkpt lat="39.07857765022953" lon="16.08890018550765"><ele>9.0</ele><time>2026-05-01T16:01:02Z</time></trkpt><trkpt lat="39.07868118369331" lon="16.08885216323168"><ele>9.0</ele><time>2026-05-01T16:01:03Z</time></trkpt><trkpt lat="39.078774217638085" lon="16.08880986917848"><ele>9.0</ele><time>2026-05-01T16:01:04Z</time></trkpt><trkpt lat="39.07886272507017" lon="16.088766168820055"><ele>9.0</ele><time>2026-05-01T16:01:05Z</time></trkpt><trkpt lat="39.07894502176211" lon="16.08872485370498"><ele>9.0</ele><time>2026-05-01T16:01:06Z</time></trkpt><trkpt lat="39.07903604533875" lon="16.088684398343087"><ele>8.8</ele><time>2026-05-01T16:01:07Z</time></trkpt><trkpt lat="39.07912793705973" lon="16.088643079208463"><ele>8.600000000000001</ele><time>2026-05-01T16:01:08Z</time></trkpt><trkpt lat="39.07922919006081" lon="16.088596711411416"><ele>8.4</ele><time>2026-05-01T16:01:09Z</time></trkpt><trkpt lat="39.07933323276641" lon="16.08854043391133"><ele>8.200000000000001</ele><time>2026-05-01T16:01:10Z</time></trkpt><trkpt lat="39.079443822849775" lon="16.088480010503517"><ele>8.0</ele><time>2026-05-01T16:01:11Z</time></trkpt><trkpt lat="39.07955552674464" lon="16.08842893553744"><ele>8.0</ele><time>2026-05-01T16:01:12Z</time></trkpt><trkpt lat="39.07966850445836" lon="16.088377615892806"><ele>8.0</ele><time>2026-05-01T16:01:13Z</time></trkpt><trkpt lat="39.079791061912154" lon="16.088323419463723"><ele>8.0</ele><time>2026-05-01T16:01:14Z</time></trkpt><trkpt lat="39.07992507330782" lon="16.088260437836585"><ele>8.0</ele><time>2026-05-01T16:01:15Z</time></trkpt><trkpt lat="39.080067893955935" lon="16.088189426168935"><ele>7.333333333333333</ele><time>2026-05-01T16:01:16Z</time></trkpt><trkpt lat="39.08021573502627" lon="16.08811754451361"><ele>6.666666666666666</ele><time>2026-05-01T16:01:17Z</time></trkpt><trkpt lat="39.08035373787623" lon="16.088060915548642"><ele>6.0</ele><time>2026-05-01T16:01:18Z</time></trkpt><trkpt lat="39.080501050604454" lon="16.0880032519612"><ele>6.0</ele><time>2026-05-01T16:01:19Z</time></trkpt><trkpt lat="39.08064465473456" lon="16.087950410226558"><ele>6.0</ele><time>2026-05-01T16:01:20Z</time></trkpt><trkpt lat="39.0807922850658" lon="16.087891236347083"><ele>6.0</ele><time>2026-05-01T16:01:21Z</time></trkpt><trkpt lat="39.08094576105314" lon="16.087835019051443"><ele>6.333333333333334</ele><time>2026-05-01T16:01:22Z</time></trkpt><trkpt lat="39.08111101894598" lon="16.087806616369374"><ele>6.666666666666667</ele><time>2026-05-01T16:01:23Z</time></trkpt><trkpt lat="39.08127457545458" lon="16.08776095703382"><ele>7.0</ele><time>2026-05-01T16:01:24Z</time></trkpt><trkpt lat="39.08142585777888" lon="16.08771872294492"><ele>7.0</ele><time>2026-05-01T16:01:25Z</time></trkpt><trkpt lat="39.08157316098544" lon="16.087677599721037"><ele>7.0</ele><time>2026-05-01T16:01:26Z</time></trkpt><trkpt lat="39.08170363687845" lon="16.087627389493537"><ele>7.0</ele><time>2026-05-01T16:01:27Z</time></trkpt><trkpt lat="39.081829223887986" lon="16.087597949221713"><ele>7.0</ele><time>2026-05-01T16:01:28Z</time></trkpt><trkpt lat="39.08195097298909" lon="16.087568315520684"><ele>7.0</ele><time>2026-05-01T16:01:29Z</time></trkpt><trkpt lat="39.08207413951702" lon="16.08753099586368"><ele>7.0</ele><time>2026-05-01T16:01:30Z</time></trkpt><trkpt lat="39.08219994095063" lon="16.08749934562583"><ele>7.0</ele><time>2026-05-01T16:01:31Z</time></trkpt><trkpt lat="39.08233091709471" lon="16.087463984731773"><ele>7.0</ele><time>2026-05-01T16:01:32Z</time></trkpt><trkpt lat="39.08246543785708" lon="16.087432498631628"><ele>7.0</ele><time>2026-05-01T16:01:33Z</time></trkpt><trkpt lat="39.08260498911831" lon="16.08739640838456"><ele>7.0</ele><time>2026-05-01T16:01:34Z</time></trkpt><trkpt lat="39.082750766729454" lon="16.087357402171218"><ele>7.0</ele><time>2026-05-01T16:01:35Z</time></trkpt><trkpt lat="39.08289344171159" lon="16.087322975078113"><ele>7.0</ele><time>2026-05-01T16:01:36Z</time></trkpt><trkpt lat="39.083032059524456" lon="16.08728297996361"><ele>7.0</ele><time>2026-05-01T16:01:37Z</time></trkpt><trkpt lat="39.08316762420728" lon="16.08724133271563"><ele>7.0</ele><time>2026-05-01T16:01:38Z</time></trkpt><trkpt lat="39.083301345307675" lon="16.087206636364904"><ele>7.0</ele><time>2026-05-01T16:01:39Z</time></trkpt><trkpt lat="39.08343560885131" lon="16.087165504201543"><ele>7.0</ele><time>2026-05-01T16:01:40Z</time></trkpt><trkpt lat="39.08360154270244" lon="16.087051997829832"><ele>7.0</ele><time>2026-05-01T16:01:40.999Z</time></trkpt><trkpt lat="39.08371356328087" lon="16.08709073073958"><ele>7.0</ele><time>2026-05-01T16:01:41.999Z</time></trkpt><trkpt lat="39.08385273978071" lon="16.087049255953264"><ele>7.0</ele><time>2026-05-01T16:01:42.999Z</time></trkpt><trkpt lat="39.08399449728586" lon="16.08701208447802"><ele>7.0</ele><time>2026-05-01T16:01:43.999Z</time></trkpt><trkpt lat="39.08412992945453" lon="16.086977231968593"><ele>7.666666666666667</ele><time>2026-05-01T16:01:44.999Z</time></trkpt><trkpt lat="39.0842696053717" lon="16.086936430839565"><ele>8.333333333333334</ele><time>2026-05-01T16:01:45.999Z</time></trkpt><trkpt lat="39.08441949761179" lon="16.086893191648997"><ele>9.0</ele><time>2026-05-01T16:01:46.999Z</time></trkpt><trkpt lat="39.084578773553176" lon="16.086841419161367"><ele>9.0</ele><time>2026-05-01T16:01:47.999Z</time></trkpt><trkpt lat="39.08474308220265" lon="16.086786704909816"><ele>9.0</ele><time>2026-05-01T16:01:48.999Z</time></trkpt><trkpt lat="39.08489470369946" lon="16.086742872383173"><ele>9.0</ele><time>2026-05-01T16:01:49.999Z</time></trkpt><trkpt lat="39.08503081085425" lon="16.086708393212916"><ele>8.5</ele><time>2026-05-01T16:01:50.999Z</time></trkpt><trkpt lat="39.085153991094444" lon="16.086675976708975"><ele>8.0</ele><time>2026-05-01T16:01:51.999Z</time></trkpt><trkpt lat="39.08527172133794" lon="16.08664570575408"><ele>7.5</ele><time>2026-05-01T16:01:52.999Z</time></trkpt><trkpt lat="39.08538519624275" lon="16.0866135229919"><ele>7.0</ele><time>2026-05-01T16:01:53.999Z</time></trkpt><trkpt lat="39.08550833375826" lon="16.086576056687953"><ele>6.0</ele><time>2026-05-01T16:01:54.999Z</time></trkpt><trkpt lat="39.08565494148906" lon="16.086528851218272"><ele>5.0</ele><time>2026-05-01T16:01:55.999Z</time></trkpt><trkpt lat="39.08582430911356" lon="16.08649806691534"><ele>4.0</ele><time>2026-05-01T16:01:56.999Z</time></trkpt><trkpt lat="39.085987397558206" lon="16.08643168026301"><ele>4.0</ele><time>2026-05-01T16:01:57.999Z</time></trkpt><trkpt lat="39.08629273498837" lon="16.086359288003266"><ele>4.0</ele><time>2026-05-01T16:01:59.999Z</time></trkpt><trkpt lat="39.0864128819237" lon="16.086329370692923"><ele>4.0</ele><time>2026-05-01T16:02:00.999Z</time></trkpt><trkpt lat="39.0865160533094" lon="16.08629973734193"><ele>4.800000000000001</ele><time>2026-05-01T16:02:01.999Z</time></trkpt><trkpt lat="39.086623107232136" lon="16.086270750816723"><ele>5.6000000000000005</ele><time>2026-05-01T16:02:02.999Z</time></trkpt><trkpt lat="39.086728537398116" lon="16.086241004924254"><ele>6.4</ele><time>2026-05-01T16:02:03.999Z</time></trkpt><trkpt lat="39.086834107625215" lon="16.08621517582938"><ele>7.2</ele><time>2026-05-01T16:02:04.999Z</time></trkpt><trkpt lat="39.08694536095511" lon="16.086183163933327"><ele>8.0</ele><time>2026-05-01T16:02:05.999Z</time></trkpt><trkpt lat="39.0870571287453" lon="16.086148925450182"><ele>8.0</ele><time>2026-05-01T16:02:06.999Z</time></trkpt><trkpt lat="39.087168663218506" lon="16.086116738446595"><ele>8.0</ele><time>2026-05-01T16:02:07.999Z</time></trkpt><trkpt lat="39.0872838443042" lon="16.08608783309043"><ele>8.0</ele><time>2026-05-01T16:02:08.999Z</time></trkpt><trkpt lat="39.08740242991218" lon="16.086057734634753"><ele>8.0</ele><time>2026-05-01T16:02:09.999Z</time></trkpt><trkpt lat="39.08751974703323" lon="16.086022271117915"><ele>8.0</ele><time>2026-05-01T16:02:11Z</time></trkpt><trkpt lat="39.087638341783425" lon="16.085991125633843"><ele>8.0</ele><time>2026-05-01T16:02:12Z</time></trkpt><trkpt lat="39.08775425118034" lon="16.085961661378583"><ele>8.0</ele><time>2026-05-01T16:02:13Z</time></trkpt><trkpt lat="39.08787019608245" lon="16.085933502271597"><ele>8.0</ele><time>2026-05-01T16:02:14Z</time></trkpt><trkpt lat="39.08797726766713" lon="16.085900728480787"><ele>8.0</ele><time>2026-05-01T16:02:15Z</time></trkpt><trkpt lat="39.088092924884805" lon="16.085869315721457"><ele>8.0</ele><time>2026-05-01T16:02:16Z</time></trkpt><trkpt lat="39.08821123845715" lon="16.085834498284992"><ele>8.0</ele><time>2026-05-01T16:02:17Z</time></trkpt><trkpt lat="39.088338346939935" lon="16.085796462135985"><ele>8.0</ele><time>2026-05-01T16:02:18Z</time></trkpt><trkpt lat="39.08847482541334" lon="16.085760590933152"><ele>6.666666666666666</ele><time>2026-05-01T16:02:19Z</time></trkpt><trkpt lat="39.08862817587496" lon="16.085719605184924"><ele>5.333333333333333</ele><time>2026-05-01T16:02:20Z</time></trkpt><trkpt lat="39.08879857098973" lon="16.085679963784646"><ele>4.0</ele><time>2026-05-01T16:02:21Z</time></trkpt><trkpt lat="39.08897981845708" lon="16.085635634582577"><ele>4.333333333333333</ele><time>2026-05-01T16:02:22Z</time></trkpt><trkpt lat="39.089167370208905" lon="16.085586720778174"><ele>4.666666666666667</ele><time>2026-05-01T16:02:23Z</time></trkpt><trkpt lat="39.08935081817444" lon="16.085539393374603"><ele>5.0</ele><time>2026-05-01T16:02:24Z</time></trkpt><trkpt lat="39.089697663003804" lon="16.085453722124413"><ele>5.0</ele><time>2026-05-01T16:02:26Z</time></trkpt><trkpt lat="39.08986285603247" lon="16.08541392780793"><ele>5.0</ele><time>2026-05-01T16:02:27Z</time></trkpt><trkpt lat="39.09002091981518" lon="16.085377436964094"><ele>5.0</ele><time>2026-05-01T16:02:28Z</time></trkpt><trkpt lat="39.09018418134379" lon="16.085355433138137"><ele>5.333333333333334</ele><time>2026-05-01T16:02:29Z</time></trkpt><trkpt lat="39.09036313997205" lon="16.085338524402584"><ele>5.666666666666667</ele><time>2026-05-01T16:02:30Z</time></trkpt><trkpt lat="39.09050807851632" lon="16.08533575941174"><ele>6.0</ele><time>2026-05-01T16:02:31Z</time></trkpt><trkpt lat="39.090685942110845" lon="16.085343186598273"><ele>6.333333333333334</ele><time>2026-05-01T16:02:32Z</time></trkpt><trkpt lat="39.090874459088624" lon="16.085336590083205"><ele>6.666666666666667</ele><time>2026-05-01T16:02:33Z</time></trkpt><trkpt lat="39.09106407911785" lon="16.085357806925135"><ele>7.0</ele><time>2026-05-01T16:02:34Z</time></trkpt><trkpt lat="39.091268708137186" lon="16.085377775434935"><ele>7.0</ele><time>2026-05-01T16:02:35Z</time></trkpt><trkpt lat="39.09149350886739" lon="16.08541572534027"><ele>7.0</ele><time>2026-05-01T16:02:36Z</time></trkpt><trkpt lat="39.09173144979637" lon="16.085463465404892"><ele>7.5</ele><time>2026-05-01T16:02:37Z</time></trkpt><trkpt lat="39.09197400082947" lon="16.08549489813718"><ele>8.0</ele><time>2026-05-01T16:02:38Z</time></trkpt><trkpt lat="39.092220914471206" lon="16.08551181534817"><ele>8.5</ele><time>2026-05-01T16:02:39Z</time></trkpt><trkpt lat="39.092469109728" lon="16.08550332876486"><ele>9.0</ele><time>2026-05-01T16:02:40Z</time></trkpt><trkpt lat="39.09270814459287" lon="16.08545811086811"><ele>9.0</ele><time>2026-05-01T16:02:41Z</time></trkpt><trkpt lat="39.092940005214174" lon="16.085399794002168"><ele>9.0</ele><time>2026-05-01T16:02:42Z</time></trkpt><trkpt lat="39.09314714556989" lon="16.08535623097382"><ele>9.0</ele><time>2026-05-01T16:02:43Z</time></trkpt><trkpt lat="39.09333651154954" lon="16.08533015650642"><ele>9.75</ele><time>2026-05-01T16:02:44Z</time></trkpt><trkpt lat="39.093503183387554" lon="16.085326040394317"><ele>10.5</ele><time>2026-05-01T16:02:45Z</time></trkpt><trkpt lat="39.093649823444416" lon="16.08530202665009"><ele>11.25</ele><time>2026-05-01T16:02:46Z</time></trkpt><trkpt lat="39.09377669183596" lon="16.085251924670857"><ele>12.0</ele><time>2026-05-01T16:02:47Z</time></trkpt><trkpt lat="39.09388854955783" lon="16.085168548029557"><ele>12.0</ele><time>2026-05-01T16:02:48Z</time></trkpt><trkpt lat="39.0939912677841" lon="16.085071899987565"><ele>12.0</ele><time>2026-05-01T16:02:49Z</time></trkpt><trkpt lat="39.09404918992002" lon="16.084931573257222"><ele>12.0</ele><time>2026-05-01T16:02:50Z</time></trkpt><trkpt lat="39.094131783976906" lon="16.084816233819694"><ele>12.0</ele><time>2026-05-01T16:02:51Z</time></trkpt><trkpt lat="39.094219252305535" lon="16.084708622285415"><ele>11.666666666666666</ele><time>2026-05-01T16:02:52Z</time></trkpt><trkpt lat="39.09432414553159" lon="16.08457136370429"><ele>11.333333333333332</ele><time>2026-05-01T16:02:53Z</time></trkpt><trkpt lat="39.09445769542042" lon="16.084364469694602"><ele>11.0</ele><time>2026-05-01T16:02:54Z</time></trkpt><trkpt lat="39.0945758622976" lon="16.084182553253655"><ele>8.666666666666666</ele><time>2026-05-01T16:02:55Z</time></trkpt><trkpt lat="39.09465334902151" lon="16.083959498672414"><ele>6.333333333333333</ele><time>2026-05-01T16:02:56Z</time></trkpt><trkpt lat="39.09479089158988" lon="16.083751992465228"><ele>4.0</ele><time>2026-05-01T16:02:57Z</time></trkpt><trkpt lat="39.09490313539014" lon="16.083502585402226"><ele>8.0</ele><time>2026-05-01T16:02:58Z</time></trkpt><trkpt lat="39.09502844294333" lon="16.083236729830517"><ele>12.0</ele><time>2026-05-01T16:02:59Z</time></trkpt><trkpt lat="39.09515331537441" lon="16.08297217818085"><ele>12.0</ele><time>2026-05-01T16:03:00Z</time></trkpt><trkpt lat="39.095277116553866" lon="16.082706529326682"><ele>12.0</ele><time>2026-05-01T16:03:01Z</time></trkpt><trkpt lat="39.09540607527663" lon="16.082435444363405"><ele>10.0</ele><time>2026-05-01T16:03:02Z</time></trkpt><trkpt lat="39.09553234823975" lon="16.082162351607614"><ele>8.0</ele><time>2026-05-01T16:03:03Z</time></trkpt><trkpt lat="39.09565729850023" lon="16.081894798495604"><ele>7.333333333333333</ele><time>2026-05-01T16:03:04Z</time></trkpt><trkpt lat="39.095776657765335" lon="16.08164767556608"><ele>6.666666666666666</ele><time>2026-05-01T16:03:05Z</time></trkpt><trkpt lat="39.09589842857706" lon="16.081429521955105"><ele>6.0</ele><time>2026-05-01T16:03:06Z</time></trkpt><trkpt lat="39.09604715839327" lon="16.081248723839213"><ele>6.0</ele><time>2026-05-01T16:03:07Z</time></trkpt><trkpt lat="39.09622070869433" lon="16.081064859169143"><ele>6.0</ele><time>2026-05-01T16:03:08Z</time></trkpt><trkpt lat="39.096410609876955" lon="16.080884594296386"><ele>3.0</ele><time>2026-05-01T16:03:09Z</time></trkpt><trkpt lat="39.096604676605125" lon="16.080718978742347"><ele>0.0</ele><time>2026-05-01T16:03:10Z</time></trkpt><trkpt lat="39.0968129837077" lon="16.08058888722491"><ele>0.0</ele><time>2026-05-01T16:03:11Z</time></trkpt><trkpt lat="39.09704336331485" lon="16.080513422793793"><ele>0.0</ele><time>2026-05-01T16:03:12Z</time></trkpt><trkpt lat="39.09726937682395" lon="16.080457009694136"><ele>1.3333333333333333</ele><time>2026-05-01T16:03:13Z</time></trkpt><trkpt lat="39.09749260869755" lon="16.080422466935364"><ele>2.6666666666666665</ele><time>2026-05-01T16:03:14Z</time></trkpt><trkpt lat="39.097705013175855" lon="16.080389358391223"><ele>4.0</ele><time>2026-05-01T16:03:15Z</time></trkpt><trkpt lat="39.09791980853117" lon="16.080356051792794"><ele>4.0</ele><time>2026-05-01T16:03:16Z</time></trkpt><trkpt lat="39.098121105320985" lon="16.08030927325283"><ele>4.0</ele><time>2026-05-01T16:03:17Z</time></trkpt><trkpt lat="39.09832827543339" lon="16.08027285260836"><ele>4.0</ele><time>2026-05-01T16:03:18Z</time></trkpt><trkpt lat="39.09854462834611" lon="16.080257575038793"><ele>3.5</ele><time>2026-05-01T16:03:19Z</time></trkpt><trkpt lat="39.09877100295868" lon="16.080221733229763"><ele>3.0</ele><time>2026-05-01T16:03:20Z</time></trkpt><trkpt lat="39.09900882293214" lon="16.08018782456828"><ele>4.0</ele><time>2026-05-01T16:03:21Z</time></trkpt><trkpt lat="39.09925130340848" lon="16.080154245056647"><ele>5.0</ele><time>2026-05-01T16:03:22Z</time></trkpt><trkpt lat="39.09949526803582" lon="16.080123261206786"><ele>5.0</ele><time>2026-05-01T16:03:23Z</time></trkpt><trkpt lat="39.09974344988759" lon="16.08009213483941"><ele>5.0</ele><time>2026-05-01T16:03:24Z</time></trkpt><trkpt lat="39.09999360240634" lon="16.08004137088386"><ele>5.0</ele><time>2026-05-01T16:03:25Z</time></trkpt><trkpt lat="39.10024128966906" lon="16.080019128152742"><ele>5.0</ele><time>2026-05-01T16:03:26Z</time></trkpt><trkpt lat="39.1004895452456" lon="16.07998527146126"><ele>2.5</ele><time>2026-05-01T16:03:27Z</time></trkpt><trkpt lat="39.10074458324695" lon="16.079932842193486"><ele>0.0</ele><time>2026-05-01T16:03:28Z</time></trkpt><trkpt lat="39.101007891687885" lon="16.079875527144754"><ele>0.0</ele><time>2026-05-01T16:03:29Z</time></trkpt><trkpt lat="39.10127634291442" lon="16.079807099415746"><ele>0.0</ele><time>2026-05-01T16:03:30Z</time></trkpt><trkpt lat="39.10154765831565" lon="16.07973095355092"><ele>0.5</ele><time>2026-05-01T16:03:31Z</time></trkpt><trkpt lat="39.10181302672745" lon="16.07965261524033"><ele>1.0</ele><time>2026-05-01T16:03:32Z</time></trkpt><trkpt lat="39.10207505182178" lon="16.07958280258604"><ele>1.0</ele><time>2026-05-01T16:03:33Z</time></trkpt><trkpt lat="39.10233535079643" lon="16.079508935279783"><ele>1.0</ele><time>2026-05-01T16:03:34Z</time></trkpt><trkpt lat="39.10258942773882" lon="16.079446109797974"><ele>2.0</ele><time>2026-05-01T16:03:35Z</time></trkpt><trkpt lat="39.102848331521024" lon="16.07937895532873"><ele>3.0</ele><time>2026-05-01T16:03:36Z</time></trkpt><trkpt lat="39.10310697996066" lon="16.07931453799686"><ele>3.5</ele><time>2026-05-01T16:03:37Z</time></trkpt><trkpt lat="39.10336661600618" lon="16.079251647106158"><ele>4.0</ele><time>2026-05-01T16:03:37.999Z</time></trkpt><trkpt lat="39.10362972182177" lon="16.07918421890532"><ele>4.0</ele><time>2026-05-01T16:03:38.999Z</time></trkpt><trkpt lat="39.10389632795585" lon="16.079110584272573"><ele>4.0</ele><time>2026-05-01T16:03:39.999Z</time></trkpt><trkpt lat="39.10416184831509" lon="16.0790384339095"><ele>3.5</ele><time>2026-05-01T16:03:40.999Z</time></trkpt><trkpt lat="39.104430080835144" lon="16.078966194773034"><ele>3.0</ele><time>2026-05-01T16:03:41.999Z</time></trkpt><trkpt lat="39.10469619743603" lon="16.078894027351843"><ele>4.5</ele><time>2026-05-01T16:03:42.999Z</time></trkpt><trkpt lat="39.104958524021654" lon="16.07882065587445"><ele>6.0</ele><time>2026-05-01T16:03:43.999Z</time></trkpt><trkpt lat="39.105223368065026" lon="16.078750845961025"><ele>6.0</ele><time>2026-05-01T16:03:44.999Z</time></trkpt><trkpt lat="39.105483839702224" lon="16.078688520228575"><ele>6.0</ele><time>2026-05-01T16:03:45.999Z</time></trkpt><trkpt lat="39.10574267753579" lon="16.07862611102589"><ele>6.0</ele><time>2026-05-01T16:03:46.999Z</time></trkpt><trkpt lat="39.105998369854404" lon="16.07856372041493"><ele>6.0</ele><time>2026-05-01T16:03:47.999Z</time></trkpt><trkpt lat="39.10624808277011" lon="16.078497512901468"><ele>6.0</ele><time>2026-05-01T16:03:48.999Z</time></trkpt><trkpt lat="39.106486193903855" lon="16.07843457179328"><ele>6.0</ele><time>2026-05-01T16:03:49.999Z</time></trkpt><trkpt lat="39.10670469498346" lon="16.07838093616842"><ele>6.333333333333334</ele><time>2026-05-01T16:03:50.999Z</time></trkpt><trkpt lat="39.106911082419934" lon="16.078330705312325"><ele>6.666666666666667</ele><time>2026-05-01T16:03:51.999Z</time></trkpt><trkpt lat="39.10711109451054" lon="16.078284907874842"><ele>7.0</ele><time>2026-05-01T16:03:52.999Z</time></trkpt><trkpt lat="39.1072993417115" lon="16.07823076968071"><ele>5.333333333333334</ele><time>2026-05-01T16:03:53.999Z</time></trkpt><trkpt lat="39.10747790648507" lon="16.078164275211023"><ele>3.666666666666667</ele><time>2026-05-01T16:03:54.999Z</time></trkpt><trkpt lat="39.107641111416655" lon="16.07807911501716"><ele>2.0</ele><time>2026-05-01T16:03:55.999Z</time></trkpt><trkpt lat="39.10779354118205" lon="16.077985043801363"><ele>2.0</ele><time>2026-05-01T16:03:56.999Z</time></trkpt><trkpt lat="39.10792546411259" lon="16.077901273195245"><ele>2.0</ele><time>2026-05-01T16:03:57.999Z</time></trkpt><trkpt lat="39.10804269105821" lon="16.077831708432598"><ele>2.0</ele><time>2026-05-01T16:03:58.999Z</time></trkpt><trkpt lat="39.10814809629131" lon="16.07780291511989"><ele>2.0</ele><time>2026-05-01T16:03:59.999Z</time></trkpt><trkpt lat="39.108233380774784" lon="16.0778232127691"><ele>2.0</ele><time>2026-05-01T16:04:00.999Z</time></trkpt><trkpt lat="39.1083229858667" lon="16.077888847741125"><ele>2.0</ele><time>2026-05-01T16:04:01.999Z</time></trkpt><trkpt lat="39.10841358557286" lon="16.07798186094837"><ele>2.0</ele><time>2026-05-01T16:04:02.999Z</time></trkpt><trkpt lat="39.108494164027015" lon="16.07808533963359"><ele>2.0</ele><time>2026-05-01T16:04:03.999Z</time></trkpt><trkpt lat="39.10853301059045" lon="16.07819526543207"><ele>2.0</ele><time>2026-05-01T16:04:04.999Z</time></trkpt><trkpt lat="39.108545521784066" lon="16.07830686115233"><ele>3.2</ele><time>2026-05-01T16:04:05.999Z</time></trkpt><trkpt lat="39.10852733851171" lon="16.078406113580424"><ele>4.4</ele><time>2026-05-01T16:04:06.999Z</time></trkpt><trkpt lat="39.10846934075053" lon="16.078516580718766"><ele>5.6000000000000005</ele><time>2026-05-01T16:04:07.999Z</time></trkpt><trkpt lat="39.10839686008098" lon="16.07861293464616"><ele>6.800000000000001</ele><time>2026-05-01T16:04:08.999Z</time></trkpt><trkpt lat="39.10834227917067" lon="16.078724500479314"><ele>8.0</ele><time>2026-05-01T16:04:09.999Z</time></trkpt><trkpt lat="39.10833429706005" lon="16.07885300668774"><ele>8.0</ele><time>2026-05-01T16:04:10.999Z</time></trkpt><trkpt lat="39.10833592842042" lon="16.078974951965094"><ele>8.0</ele><time>2026-05-01T16:04:11.999Z</time></trkpt><trkpt lat="39.10841687166023" lon="16.079002743852666"><ele>8.0</ele><time>2026-05-01T16:04:12.999Z</time></trkpt><trkpt lat="39.10848085106235" lon="16.07908798017832"><ele>8.0</ele><time>2026-05-01T16:04:13.999Z</time></trkpt><trkpt lat="39.108599053782626" lon="16.079100849105572"><ele>8.0</ele><time>2026-05-01T16:04:14.999Z</time></trkpt><trkpt lat="39.10868446291701" lon="16.079156057896565"><ele>7.5</ele><time>2026-05-01T16:04:15.999Z</time></trkpt><trkpt lat="39.10872541071412" lon="16.079262588490547"><ele>7.0</ele><time>2026-05-01T16:04:17Z</time></trkpt><trkpt lat="39.10874398937292" lon="16.07940560806551"><ele>6.5</ele><time>2026-05-01T16:04:18Z</time></trkpt><trkpt lat="39.10875386336818" lon="16.07956921360451"><ele>6.0</ele><time>2026-05-01T16:04:19Z</time></trkpt><trkpt lat="39.10877118056561" lon="16.07975203951968"><ele>6.0</ele><time>2026-05-01T16:04:20Z</time></trkpt><trkpt lat="39.10880558755545" lon="16.079926160751448"><ele>6.0</ele><time>2026-05-01T16:04:21Z</time></trkpt><trkpt lat="39.10887896577051" lon="16.080076721382767"><ele>6.0</ele><time>2026-05-01T16:04:22Z</time></trkpt><trkpt lat="39.109145710722125" lon="16.080290361823245"><ele>8.333333333333332</ele><time>2026-05-01T16:04:24Z</time></trkpt><trkpt lat="39.10931815730853" lon="16.08033987246152"><ele>10.666666666666666</ele><time>2026-05-01T16:04:25Z</time></trkpt><trkpt lat="39.10949262633728" lon="16.080348484298497"><ele>13.0</ele><time>2026-05-01T16:04:26Z</time></trkpt><trkpt lat="39.10966298731041" lon="16.08033798028609"><ele>13.0</ele><time>2026-05-01T16:04:27Z</time></trkpt><trkpt lat="39.10984150310001" lon="16.08034278294776"><ele>13.0</ele><time>2026-05-01T16:04:28Z</time></trkpt><trkpt lat="39.11003319678267" lon="16.08035816422344"><ele>13.0</ele><time>2026-05-01T16:04:29Z</time></trkpt><trkpt lat="39.11022836654666" lon="16.08036184025083"><ele>13.0</ele><time>2026-05-01T16:04:30Z</time></trkpt><trkpt lat="39.11042627170363" lon="16.080348809678586"><ele>13.0</ele><time>2026-05-01T16:04:31Z</time></trkpt><trkpt lat="39.1106190399982" lon="16.08031546007907"><ele>13.0</ele><time>2026-05-01T16:04:32Z</time></trkpt><trkpt lat="39.11081184899289" lon="16.08029964053587"><ele>13.333333333333332</ele><time>2026-05-01T16:04:33Z</time></trkpt><trkpt lat="39.11100722186115" lon="16.08031281118574"><ele>13.666666666666668</ele><time>2026-05-01T16:04:34Z</time></trkpt><trkpt lat="39.11119896186387" lon="16.08033334066203"><ele>14.0</ele><time>2026-05-01T16:04:35Z</time></trkpt><trkpt lat="39.11138992030985" lon="16.080362761933912"><ele>14.0</ele><time>2026-05-01T16:04:36Z</time></trkpt><trkpt lat="39.11157812958162" lon="16.080388590106736"><ele>14.0</ele><time>2026-05-01T16:04:37Z</time></trkpt><trkpt lat="39.11174510588866" lon="16.08041187141395"><ele>14.0</ele><time>2026-05-01T16:04:38Z</time></trkpt><trkpt lat="39.11189407506965" lon="16.0804408753673"><ele>14.0</ele><time>2026-05-01T16:04:39Z</time></trkpt><trkpt lat="39.112033693400704" lon="16.080502370496177"><ele>14.0</ele><time>2026-05-01T16:04:40Z</time></trkpt><trkpt lat="39.11215439059468" lon="16.08061353574869"><ele>14.0</ele><time>2026-05-01T16:04:41Z</time></trkpt><trkpt lat="39.11225970787848" lon="16.080727555274752"><ele>14.0</ele><time>2026-05-01T16:04:42Z</time></trkpt><trkpt lat="39.11236041925719" lon="16.08082089678429"><ele>16.333333333333336</ele><time>2026-05-01T16:04:43Z</time></trkpt><trkpt lat="39.11244565590729" lon="16.08089225447536"><ele>18.666666666666668</ele><time>2026-05-01T16:04:44Z</time></trkpt><trkpt lat="39.112523877110526" lon="16.08093661900027"><ele>21.0</ele><time>2026-05-01T16:04:45Z</time></trkpt><trkpt lat="39.112604327037054" lon="16.08094279311165"><ele>23.333333333333336</ele><time>2026-05-01T16:04:46Z</time></trkpt><trkpt lat="39.11268172850295" lon="16.08092096860157"><ele>25.666666666666668</ele><time>2026-05-01T16:04:47Z</time></trkpt><trkpt lat="39.112764017959215" lon="16.08087689592239"><ele>28.0</ele><time>2026-05-01T16:04:48Z</time></trkpt><trkpt lat="39.11284773222253" lon="16.0808124962816"><ele>25.2</ele><time>2026-05-01T16:04:49Z</time></trkpt><trkpt lat="39.11292683271531" lon="16.080740374379445"><ele>22.4</ele><time>2026-05-01T16:04:50Z</time></trkpt><trkpt lat="39.113014026989646" lon="16.080676467486605"><ele>19.599999999999998</ele><time>2026-05-01T16:04:51Z</time></trkpt><trkpt lat="39.113106872933415" lon="16.08063092559931"><ele>16.799999999999997</ele><time>2026-05-01T16:04:52Z</time></trkpt><trkpt lat="39.11320571554274" lon="16.080594492799555"><ele>14.0</ele><time>2026-05-01T16:04:53Z</time></trkpt><trkpt lat="39.113310769539154" lon="16.08059287837057"><ele>14.0</ele><time>2026-05-01T16:04:54Z</time></trkpt><trkpt lat="39.1134093579858" lon="16.080585905637754"><ele>13.999999999999998</ele><time>2026-05-01T16:04:55Z</time></trkpt><trkpt lat="39.11350430465436" lon="16.08060255163394"><ele>13.999999999999998</ele><time>2026-05-01T16:04:56Z</time></trkpt><trkpt lat="39.11359453646787" lon="16.080630548552037"><ele>14.0</ele><time>2026-05-01T16:04:57Z</time></trkpt><trkpt lat="39.11367383448916" lon="16.080690821644485"><ele>14.0</ele><time>2026-05-01T16:04:58Z</time></trkpt><trkpt lat="39.113749331051004" lon="16.08077371521791"><ele>18.0</ele><time>2026-05-01T16:04:59Z</time></trkpt><trkpt lat="39.11384913986982" lon="16.080880141881387"><ele>22.0</ele><time>2026-05-01T16:05:00Z</time></trkpt><trkpt lat="39.11395839657462" lon="16.08100134282197"><ele>26.0</ele><time>2026-05-01T16:05:01Z</time></trkpt><trkpt lat="39.11407519467325" lon="16.081135599376413"><ele>30.0</ele><time>2026-05-01T16:05:02Z</time></trkpt><trkpt lat="39.114200462115654" lon="16.081282453458293"><ele>30.0</ele><time>2026-05-01T16:05:03Z</time></trkpt><trkpt lat="39.114342466153666" lon="16.081421402589264"><ele>30.0</ele><time>2026-05-01T16:05:04Z</time></trkpt><trkpt lat="39.11446185724896" lon="16.08158744919593"><ele>30.0</ele><time>2026-05-01T16:05:05Z</time></trkpt><trkpt lat="39.114595592992146" lon="16.081715359730666"><ele>31.75</ele><time>2026-05-01T16:05:06Z</time></trkpt><trkpt lat="39.11469826456913" lon="16.08183048258946"><ele>33.5</ele><time>2026-05-01T16:05:07Z</time></trkpt><trkpt lat="39.114821399770605" lon="16.08190441259776"><ele>35.25</ele><time>2026-05-01T16:05:08Z</time></trkpt><trkpt lat="39.11496462274055" lon="16.08189060326404"><ele>37.0</ele><time>2026-05-01T16:05:09Z</time></trkpt><trkpt lat="39.11512850237592" lon="16.08189127245668"><ele>37.0</ele><time>2026-05-01T16:05:10Z</time></trkpt><trkpt lat="39.11530845289754" lon="16.0818787650178"><ele>37.0</ele><time>2026-05-01T16:05:11Z</time></trkpt><trkpt lat="39.115493945582294" lon="16.081855637713915"><ele>37.0</ele><time>2026-05-01T16:05:12Z</time></trkpt><trkpt lat="39.115681517555124" lon="16.081845536647734"><ele>38.333333333333336</ele><time>2026-05-01T16:05:13Z</time></trkpt><trkpt lat="39.11587196719177" lon="16.0818381784787"><ele>39.666666666666664</ele><time>2026-05-01T16:05:14Z</time></trkpt><trkpt lat="39.11606257376578" lon="16.08182596808779"><ele>41.0</ele><time>2026-05-01T16:05:15Z</time></trkpt><trkpt lat="39.11625802711277" lon="16.081813125504805"><ele>41.0</ele><time>2026-05-01T16:05:16Z</time></trkpt><trkpt lat="39.116454095591195" lon="16.08179872216873"><ele>41.0</ele><time>2026-05-01T16:05:17Z</time></trkpt><trkpt lat="39.11666042693077" lon="16.08177811785781"><ele>41.0</ele><time>2026-05-01T16:05:18Z</time></trkpt><trkpt lat="39.11686753015166" lon="16.08176116529599"><ele>41.33333333333333</ele><time>2026-05-01T16:05:19Z</time></trkpt><trkpt lat="39.11706818513074" lon="16.081741073225423"><ele>41.666666666666664</ele><time>2026-05-01T16:05:20Z</time></trkpt><trkpt lat="39.117269890643755" lon="16.081713499326703"><ele>42.0</ele><time>2026-05-01T16:05:21Z</time></trkpt><trkpt lat="39.11747121931501" lon="16.081694033069752"><ele>42.0</ele><time>2026-05-01T16:05:22Z</time></trkpt><trkpt lat="39.11766875890423" lon="16.081674520403762"><ele>42.0</ele><time>2026-05-01T16:05:23Z</time></trkpt><trkpt lat="39.117870275254" lon="16.0816570598209"><ele>42.0</ele><time>2026-05-01T16:05:24Z</time></trkpt><trkpt lat="39.11807570265682" lon="16.081639726295727"><ele>41.333333333333336</ele><time>2026-05-01T16:05:25Z</time></trkpt><trkpt lat="39.118276103936864" lon="16.08162004187354"><ele>40.66666666666667</ele><time>2026-05-01T16:05:26Z</time></trkpt><trkpt lat="39.11847637245518" lon="16.081598279997596"><ele>40.0</ele><time>2026-05-01T16:05:27Z</time></trkpt><trkpt lat="39.118674526388375" lon="16.08157403505648"><ele>39.66666666666667</ele><time>2026-05-01T16:05:28Z</time></trkpt><trkpt lat="39.11887373199964" lon="16.081552082822082"><ele>39.333333333333336</ele><time>2026-05-01T16:05:29Z</time></trkpt><trkpt lat="39.1190724780606" lon="16.081530089788952"><ele>39.0</ele><time>2026-05-01T16:05:30Z</time></trkpt><trkpt lat="39.11926705913489" lon="16.08151140225692"><ele>39.0</ele><time>2026-05-01T16:05:31Z</time></trkpt><trkpt lat="39.11944575033941" lon="16.081493100997108"><ele>39.0</ele><time>2026-05-01T16:05:32Z</time></trkpt><trkpt lat="39.11961243519137" lon="16.081490287212983"><ele>39.0</ele><time>2026-05-01T16:05:33Z</time></trkpt><trkpt lat="39.119776641305165" lon="16.081487242404293"><ele>38.666666666666664</ele><time>2026-05-01T16:05:34Z</time></trkpt><trkpt lat="39.11993968966584" lon="16.081464434838846"><ele>38.33333333333333</ele><time>2026-05-01T16:05:35Z</time></trkpt><trkpt lat="39.1200929627389" lon="16.08141754538701"><ele>38.0</ele><time>2026-05-01T16:05:36Z</time></trkpt><trkpt lat="39.120241022771054" lon="16.081331007942474"><ele>38.0</ele><time>2026-05-01T16:05:37Z</time></trkpt><trkpt lat="39.120382716541194" lon="16.08122764634395"><ele>38.0</ele><time>2026-05-01T16:05:38Z</time></trkpt><trkpt lat="39.120533472865674" lon="16.08112138774814"><ele>38.0</ele><time>2026-05-01T16:05:39Z</time></trkpt><trkpt lat="39.12069554079857" lon="16.081044030846925"><ele>35.0</ele><time>2026-05-01T16:05:40Z</time></trkpt><trkpt lat="39.120843029306585" lon="16.080938010825125"><ele>32.0</ele><time>2026-05-01T16:05:41Z</time></trkpt><trkpt lat="39.12100501599059" lon="16.080847716418234"><ele>29.0</ele><time>2026-05-01T16:05:42Z</time></trkpt><trkpt lat="39.121164085105804" lon="16.080758991310184"><ele>29.0</ele><time>2026-05-01T16:05:43Z</time></trkpt><trkpt lat="39.12132130136152" lon="16.08067138264258"><ele>29.0</ele><time>2026-05-01T16:05:43.999Z</time></trkpt><trkpt lat="39.12146457343789" lon="16.080590101957153"><ele>29.0</ele><time>2026-05-01T16:05:44.999Z</time></trkpt><trkpt lat="39.121614943700656" lon="16.08052281325048"><ele>30.25</ele><time>2026-05-01T16:05:45.999Z</time></trkpt><trkpt lat="39.12173612138898" lon="16.080530004366647"><ele>31.5</ele><time>2026-05-01T16:05:46.999Z</time></trkpt><trkpt lat="39.12183592821286" lon="16.080573641906266"><ele>32.75</ele><time>2026-05-01T16:05:47.999Z</time></trkpt><trkpt lat="39.12195840783588" lon="16.08064362946252"><ele>34.0</ele><time>2026-05-01T16:05:48.999Z</time></trkpt><trkpt lat="39.12209730359013" lon="16.08073159978448"><ele>37.333333333333336</ele><time>2026-05-01T16:05:49.999Z</time></trkpt><trkpt lat="39.122246892593886" lon="16.080816848209587"><ele>40.666666666666664</ele><time>2026-05-01T16:05:50.999Z</time></trkpt><trkpt lat="39.122406035961966" lon="16.080906617233907"><ele>44.0</ele><time>2026-05-01T16:05:51.999Z</time></trkpt><trkpt lat="39.122574605472515" lon="16.08098233688648"><ele>44.0</ele><time>2026-05-01T16:05:52.999Z</time></trkpt><trkpt lat="39.12274080256654" lon="16.08107944538403"><ele>44.0</ele><time>2026-05-01T16:05:53.999Z</time></trkpt><trkpt lat="39.122905262678806" lon="16.08117511742615"><ele>44.0</ele><time>2026-05-01T16:05:54.999Z</time></trkpt><trkpt lat="39.12306767494735" lon="16.081277732322327"><ele>44.0</ele><time>2026-05-01T16:05:55.999Z</time></trkpt><trkpt lat="39.1232264443129" lon="16.081378942515048"><ele>44.0</ele><time>2026-05-01T16:05:56.999Z</time></trkpt><trkpt lat="39.12339476346854" lon="16.081468941417985"><ele>44.0</ele><time>2026-05-01T16:05:57.999Z</time></trkpt><trkpt lat="39.12356183427468" lon="16.081541809059463"><ele>43.0</ele><time>2026-05-01T16:05:58.999Z</time></trkpt><trkpt lat="39.123739742526425" lon="16.081562047087715"><ele>42.0</ele><time>2026-05-01T16:05:59.999Z</time></trkpt><trkpt lat="39.12391337614508" lon="16.08154114222775"><ele>41.0</ele><time>2026-05-01T16:06:00.999Z</time></trkpt><trkpt lat="39.12407937727639" lon="16.081489286096268"><ele>41.0</ele><time>2026-05-01T16:06:01.999Z</time></trkpt><trkpt lat="39.1242418808171" lon="16.08138253770383"><ele>41.0</ele><time>2026-05-01T16:06:02.999Z</time></trkpt><trkpt lat="39.124378902259615" lon="16.081245065942262"><ele>41.0</ele><time>2026-05-01T16:06:03.999Z</time></trkpt><trkpt lat="39.124513442636385" lon="16.0811315848533"><ele>41.0</ele><time>2026-05-01T16:06:04.999Z</time></trkpt><trkpt lat="39.124635374264834" lon="16.08103326318337"><ele>41.0</ele><time>2026-05-01T16:06:05.999Z</time></trkpt><trkpt lat="39.12476346147631" lon="16.081002830904993"><ele>41.0</ele><time>2026-05-01T16:06:06.999Z</time></trkpt><trkpt lat="39.12488769540928" lon="16.080971813576472"><ele>41.0</ele><time>2026-05-01T16:06:07.999Z</time></trkpt><trkpt lat="39.12503321736514" lon="16.080942516765006"><ele>44.0</ele><time>2026-05-01T16:06:08.999Z</time></trkpt><trkpt lat="39.12519205827832" lon="16.080905448286742"><ele>47.0</ele><time>2026-05-01T16:06:09.999Z</time></trkpt><trkpt lat="39.12535865803845" lon="16.08086603712623"><ele>50.0</ele><time>2026-05-01T16:06:10.999Z</time></trkpt><trkpt lat="39.12552362531363" lon="16.0808185380361"><ele>50.0</ele><time>2026-05-01T16:06:11.999Z</time></trkpt><trkpt lat="39.1256918598049" lon="16.080795697264023"><ele>50.0</ele><time>2026-05-01T16:06:12.999Z</time></trkpt><trkpt lat="39.125844851372435" lon="16.080771302246557"><ele>50.0</ele><time>2026-05-01T16:06:13.999Z</time></trkpt><trkpt lat="39.125989306441596" lon="16.080769451131847"><ele>51.2</ele><time>2026-05-01T16:06:14.999Z</time></trkpt><trkpt lat="39.126104220625926" lon="16.08078027145627"><ele>52.4</ele><time>2026-05-01T16:06:15.999Z</time></trkpt><trkpt lat="39.126197028880185" lon="16.080790717642444"><ele>53.599999999999994</ele><time>2026-05-01T16:06:16.999Z</time></trkpt><trkpt lat="39.12627094592158" lon="16.080778648936146"><ele>54.8</ele><time>2026-05-01T16:06:17.999Z</time></trkpt><trkpt lat="39.12633859026957" lon="16.08065003620861"><ele>56.0</ele><time>2026-05-01T16:06:19.999Z</time></trkpt><trkpt lat="39.12635714434807" lon="16.080571379398975"><ele>51.8</ele><time>2026-05-01T16:06:20.999Z</time></trkpt><trkpt lat="39.12646600897439" lon="16.080574593131686"><ele>47.599999999999994</ele><time>2026-05-01T16:06:23Z</time></trkpt><trkpt lat="39.126533537808704" lon="16.080623199648347"><ele>43.4</ele><time>2026-05-01T16:06:24Z</time></trkpt><trkpt lat="39.12662166297439" lon="16.08064556889338"><ele>39.2</ele><time>2026-05-01T16:06:25Z</time></trkpt><trkpt lat="39.12671795175827" lon="16.080630933445974"><ele>35.0</ele><time>2026-05-01T16:06:26Z</time></trkpt><trkpt lat="39.12680265332651" lon="16.080588375982284"><ele>35.0</ele><time>2026-05-01T16:06:27Z</time></trkpt><trkpt lat="39.12687458446341" lon="16.08054802089181"><ele>35.0</ele><time>2026-05-01T16:06:28Z</time></trkpt><trkpt lat="39.12693680208809" lon="16.08051307871414"><ele>35.0</ele><time>2026-05-01T16:06:29Z</time></trkpt><trkpt lat="39.12700589449259" lon="16.080407877677747"><ele>35.0</ele><time>2026-05-01T16:06:31Z</time></trkpt><trkpt lat="39.12695814613151" lon="16.080263586997695"><ele>35.0</ele><time>2026-05-01T16:06:33Z</time></trkpt><trkpt lat="39.12689053647888" lon="16.080184813120386"><ele>35.0</ele><time>2026-05-01T16:06:34Z</time></trkpt><trkpt lat="39.12683411729961" lon="16.080058981281063"><ele>35.0</ele><time>2026-05-01T16:06:35Z</time></trkpt><trkpt lat="39.126753471225435" lon="16.07991940897063"><ele>35.0</ele><time>2026-05-01T16:06:36Z</time></trkpt><trkpt lat="39.12665440590242" lon="16.079779645402965"><ele>35.0</ele><time>2026-05-01T16:06:37Z</time></trkpt><trkpt lat="39.12656540304478" lon="16.079609597111904"><ele>33.5</ele><time>2026-05-01T16:06:38Z</time></trkpt><trkpt lat="39.12647836384592" lon="16.07944663950436"><ele>32.0</ele><time>2026-05-01T16:06:39Z</time></trkpt><trkpt lat="39.126391104696786" lon="16.079296191099093"><ele>30.5</ele><time>2026-05-01T16:06:40Z</time></trkpt><trkpt lat="39.12631474960719" lon="16.079151013850655"><ele>29.0</ele><time>2026-05-01T16:06:41Z</time></trkpt><trkpt lat="39.12627131854696" lon="16.079006740696375"><ele>29.0</ele><time>2026-05-01T16:06:42Z</time></trkpt><trkpt lat="39.12624816429782" lon="16.07887356390643"><ele>29.0</ele><time>2026-05-01T16:06:43Z</time></trkpt><trkpt lat="39.12623603454468" lon="16.0787605202583"><ele>29.0</ele><time>2026-05-01T16:06:44Z</time></trkpt><trkpt lat="39.12623760557711" lon="16.07867475090487"><ele>29.0</ele><time>2026-05-01T16:06:46Z</time></trkpt><trkpt lat="39.1263178231204" lon="16.078682047744604"><ele>29.0</ele><time>2026-05-01T16:06:48Z</time></trkpt><trkpt lat="39.12642697941971" lon="16.07877328227081"><ele>29.0</ele><time>2026-05-01T16:06:50Z</time></trkpt><trkpt lat="39.12650009488634" lon="16.078836688648252"><ele>29.0</ele><time>2026-05-01T16:06:51Z</time></trkpt><trkpt lat="39.126569077147295" lon="16.07891185857065"><ele>29.0</ele><time>2026-05-01T16:06:52Z</time></trkpt><trkpt lat="39.12662435583397" lon="16.078971200497264"><ele>29.0</ele><time>2026-05-01T16:06:53Z</time></trkpt><trkpt lat="39.126716765305936" lon="16.078873023730637"><ele>29.0</ele><time>2026-05-01T16:06:56Z</time></trkpt><trkpt lat="39.12668834632011" lon="16.078699307762687"><ele>28.6</ele><time>2026-05-01T16:06:58Z</time></trkpt><trkpt lat="39.12665478448292" lon="16.07858435317403"><ele>28.2</ele><time>2026-05-01T16:06:59Z</time></trkpt><trkpt lat="39.1266199115" lon="16.078450962992115"><ele>27.800000000000004</ele><time>2026-05-01T16:07:00Z</time></trkpt><trkpt lat="39.12659551630881" lon="16.07830633152626"><ele>27.400000000000002</ele><time>2026-05-01T16:07:01Z</time></trkpt><trkpt lat="39.12657747651677" lon="16.078182341663886"><ele>27.0</ele><time>2026-05-01T16:07:02Z</time></trkpt><trkpt lat="39.1265555861987" lon="16.07808181434339"><ele>26.5</ele><time>2026-05-01T16:07:03Z</time></trkpt><trkpt lat="39.12654371467205" lon="16.077994016660035"><ele>26.0</ele><time>2026-05-01T16:07:04Z</time></trkpt><trkpt lat="39.12653922340729" lon="16.077894513954668"><ele>25.5</ele><time>2026-05-01T16:07:06Z</time></trkpt><trkpt lat="39.12666714393375" lon="16.07785077490177"><ele>25.0</ele><time>2026-05-01T16:07:08Z</time></trkpt><trkpt lat="39.12674216966056" lon="16.077834335833742"><ele>24.5</ele><time>2026-05-01T16:07:09Z</time></trkpt><trkpt lat="39.12682614729105" lon="16.07780357908185"><ele>24.0</ele><time>2026-05-01T16:07:10Z</time></trkpt><trkpt lat="39.126911998702205" lon="16.07777436113259"><ele>23.799999999999997</ele><time>2026-05-01T16:07:11Z</time></trkpt><trkpt lat="39.12698674132886" lon="16.077749874332987"><ele>23.599999999999998</ele><time>2026-05-01T16:07:12Z</time></trkpt><trkpt lat="39.12707125602809" lon="16.07772953400356"><ele>23.4</ele><time>2026-05-01T16:07:13Z</time></trkpt><trkpt lat="39.12716710938873" lon="16.077708225345326"><ele>23.2</ele><time>2026-05-01T16:07:14Z</time></trkpt><trkpt lat="39.12727569278728" lon="16.077696922518"><ele>23.0</ele><time>2026-05-01T16:07:15Z</time></trkpt><trkpt lat="39.12738676582687" lon="16.077685247247413"><ele>22.2</ele><time>2026-05-01T16:07:16Z</time></trkpt><trkpt lat="39.12749575586206" lon="16.07767363021336"><ele>21.4</ele><time>2026-05-01T16:07:17Z</time></trkpt><trkpt lat="39.127601699451105" lon="16.07764195257088"><ele>20.599999999999998</ele><time>2026-05-01T16:07:18Z</time></trkpt><trkpt lat="39.127701410560476" lon="16.077614875846027"><ele>19.799999999999997</ele><time>2026-05-01T16:07:19Z</time></trkpt><trkpt lat="39.12780307275507" lon="16.077616092370004"><ele>19.0</ele><time>2026-05-01T16:07:20Z</time></trkpt><trkpt lat="39.12790075467422" lon="16.077615824474005"><ele>19.0</ele><time>2026-05-01T16:07:21Z</time></trkpt><trkpt lat="39.12798619428587" lon="16.07759526882691"><ele>19.0</ele><time>2026-05-01T16:07:22Z</time></trkpt><trkpt lat="39.12807070442558" lon="16.07759533855308"><ele>19.0</ele><time>2026-05-01T16:07:23Z</time></trkpt><trkpt lat="39.128149324775826" lon="16.077582842015367"><ele>19.0</ele><time>2026-05-01T16:07:24Z</time></trkpt><trkpt lat="39.1282253795229" lon="16.07756581639689"><ele>19.0</ele><time>2026-05-01T16:07:25Z</time></trkpt><trkpt lat="39.12829958363565" lon="16.07754995014302"><ele>19.0</ele><time>2026-05-01T16:07:26Z</time></trkpt><trkpt lat="39.12837168470788" lon="16.077530560749548"><ele>18.333333333333332</ele><time>2026-05-01T16:07:27Z</time></trkpt><trkpt lat="39.12845375881403" lon="16.07751169533156"><ele>17.666666666666664</ele><time>2026-05-01T16:07:28Z</time></trkpt><trkpt lat="39.12853947240156" lon="16.077500970442564"><ele>17.0</ele><time>2026-05-01T16:07:29Z</time></trkpt><trkpt lat="39.1286251577899" lon="16.077495876874284"><ele>16.333333333333332</ele><time>2026-05-01T16:07:30Z</time></trkpt><trkpt lat="39.128705159339844" lon="16.077493247210633"><ele>15.666666666666666</ele><time>2026-05-01T16:07:31Z</time></trkpt><trkpt lat="39.12878515864923" lon="16.077483028985892"><ele>15.0</ele><time>2026-05-01T16:07:32Z</time></trkpt><trkpt lat="39.12886145889959" lon="16.077473740493254"><ele>15.0</ele><time>2026-05-01T16:07:33Z</time></trkpt><trkpt lat="39.12895310013591" lon="16.077462410255528"><ele>15.0</ele><time>2026-05-01T16:07:34Z</time></trkpt><trkpt lat="39.12904718536097" lon="16.07744597561166"><ele>15.0</ele><time>2026-05-01T16:07:35Z</time></trkpt><trkpt lat="39.12915588093469" lon="16.077423919308284"><ele>15.0</ele><time>2026-05-01T16:07:36Z</time></trkpt><trkpt lat="39.12926419364924" lon="16.077399138760946"><ele>15.0</ele><time>2026-05-01T16:07:37Z</time></trkpt><trkpt lat="39.12937008336156" lon="16.077372726614076"><ele>14.166666666666666</ele><time>2026-05-01T16:07:38Z</time></trkpt><trkpt lat="39.12947065944334" lon="16.077345854145683"><ele>13.333333333333334</ele><time>2026-05-01T16:07:39Z</time></trkpt><trkpt lat="39.129553897469876" lon="16.07735967518644"><ele>12.5</ele><time>2026-05-01T16:07:40Z</time></trkpt><trkpt lat="39.12963539220779" lon="16.077350104157745"><ele>11.666666666666668</ele><time>2026-05-01T16:07:41Z</time></trkpt><trkpt lat="39.12970913691284" lon="16.07733995051418"><ele>10.833333333333334</ele><time>2026-05-01T16:07:42Z</time></trkpt><trkpt lat="39.12977669718209" lon="16.077328409685496"><ele>10.0</ele><time>2026-05-01T16:07:43Z</time></trkpt><trkpt lat="39.12984278535614" lon="16.077307008573634"><ele>9.833333333333334</ele><time>2026-05-01T16:07:44Z</time></trkpt><trkpt lat="39.12991766580615" lon="16.07729731478761"><ele>9.666666666666668</ele><time>2026-05-01T16:07:45Z</time></trkpt><trkpt lat="39.130001659457676" lon="16.07728683795975"><ele>9.5</ele><time>2026-05-01T16:07:46Z</time></trkpt><trkpt lat="39.13008182939526" lon="16.07727636540783"><ele>9.333333333333334</ele><time>2026-05-01T16:07:46.999Z</time></trkpt><trkpt lat="39.130155818657514" lon="16.077268074998294"><ele>9.166666666666666</ele><time>2026-05-01T16:07:47.999Z</time></trkpt><trkpt lat="39.130233041356064" lon="16.077249149004174"><ele>9.0</ele><time>2026-05-01T16:07:48.999Z</time></trkpt><trkpt lat="39.130314309734736" lon="16.077231538594447"><ele>9.0</ele><time>2026-05-01T16:07:49.999Z</time></trkpt><trkpt lat="39.13040311307851" lon="16.077206743585457"><ele>9.0</ele><time>2026-05-01T16:07:50.999Z</time></trkpt><trkpt lat="39.13049354762411" lon="16.07719653786059"><ele>9.0</ele><time>2026-05-01T16:07:51.999Z</time></trkpt><trkpt lat="39.13057878978711" lon="16.07719361745392"><ele>9.0</ele><time>2026-05-01T16:07:52.999Z</time></trkpt><trkpt lat="39.130652381898436" lon="16.077184528592188"><ele>9.0</ele><time>2026-05-01T16:07:53.999Z</time></trkpt><trkpt lat="39.13074719167761" lon="16.07728575134899"><ele>8.6</ele><time>2026-05-01T16:07:55.999Z</time></trkpt><trkpt lat="39.13082782043078" lon="16.077316618010514"><ele>8.2</ele><time>2026-05-01T16:07:57.999Z</time></trkpt><trkpt lat="39.13096392229584" lon="16.07732201055812"><ele>7.799999999999999</ele><time>2026-05-01T16:07:59.999Z</time></trkpt><trkpt lat="39.131029239499846" lon="16.077304009672325"><ele>7.3999999999999995</ele><time>2026-05-01T16:08:00.999Z</time></trkpt><trkpt lat="39.13113632649904" lon="16.077270965514682"><ele>7.0</ele><time>2026-05-01T16:08:02.999Z</time></trkpt><trkpt lat="39.131205169373295" lon="16.077258653377367"><ele>7.000000000000001</ele><time>2026-05-01T16:08:04.999Z</time></trkpt><trkpt lat="39.13127044577486" lon="16.077256368978766"><ele>7.0</ele><time>2026-05-01T16:08:06.999Z</time></trkpt><trkpt lat="39.131338563138556" lon="16.0772521425033"><ele>7.0</ele><time>2026-05-01T16:08:08.999Z</time></trkpt><trkpt lat="39.13142020038081" lon="16.077252986700106"><ele>7.0</ele><time>2026-05-01T16:08:11.999Z</time></trkpt><trkpt lat="39.13148655982916" lon="16.077375413575396"><ele>7.000000000000001</ele><time>2026-05-01T16:08:14.999Z</time></trkpt><trkpt lat="39.131497077517785" lon="16.077463602972845"><ele>7.0</ele><time>2026-05-01T16:08:15.999Z</time></trkpt><trkpt lat="39.13152154959214" lon="16.077551996764665"><ele>7.166666666666667</ele><time>2026-05-01T16:08:16.999Z</time></trkpt><trkpt lat="39.131526616046024" lon="16.077636897085466"><ele>7.333333333333334</ele><time>2026-05-01T16:08:17.999Z</time></trkpt><trkpt lat="39.13154246524051" lon="16.07773946531543"><ele>7.5</ele><time>2026-05-01T16:08:19.999Z</time></trkpt><trkpt lat="39.131667227480776" lon="16.07769429518918"><ele>7.666666666666666</ele><time>2026-05-01T16:08:21.999Z</time></trkpt><trkpt lat="39.131740266624085" lon="16.077661601609254"><ele>7.833333333333333</ele><time>2026-05-01T16:08:22.999Z</time></trkpt><trkpt lat="39.13180834126899" lon="16.077631119741927"><ele>8.0</ele><time>2026-05-01T16:08:23.999Z</time></trkpt><trkpt lat="39.13189823096932" lon="16.077600590723996"><ele>8.0</ele><time>2026-05-01T16:08:24.999Z</time></trkpt><trkpt lat="39.13198775478865" lon="16.077565646006693"><ele>8.0</ele><time>2026-05-01T16:08:25.999Z</time></trkpt><trkpt lat="39.13208236953291" lon="16.077534712933915"><ele>8.0</ele><time>2026-05-01T16:08:27Z</time></trkpt><trkpt lat="39.13217320883058" lon="16.07750359276857"><ele>8.0</ele><time>2026-05-01T16:08:28Z</time></trkpt><trkpt lat="39.132256912811116" lon="16.077476937307686"><ele>8.0</ele><time>2026-05-01T16:08:29Z</time></trkpt><trkpt lat="39.13233675364228" lon="16.077447847208685"><ele>8.285714285714285</ele><time>2026-05-01T16:08:30Z</time></trkpt><trkpt lat="39.13240754700491" lon="16.077423554761324"><ele>8.571428571428571</ele><time>2026-05-01T16:08:31Z</time></trkpt><trkpt lat="39.132475513450416" lon="16.077399647454424"><ele>8.857142857142858</ele><time>2026-05-01T16:08:32Z</time></trkpt><trkpt lat="39.13253766228223" lon="16.077378263222112"><ele>9.142857142857142</ele><time>2026-05-01T16:08:33Z</time></trkpt><trkpt lat="39.13259907479699" lon="16.07735994637402"><ele>9.428571428571429</ele><time>2026-05-01T16:08:34Z</time></trkpt><trkpt lat="39.132666631432606" lon="16.077339876076913"><ele>9.714285714285714</ele><time>2026-05-01T16:08:35Z</time></trkpt><trkpt lat="39.13273508877138" lon="16.077320674120326"><ele>10.0</ele><time>2026-05-01T16:08:36Z</time></trkpt><trkpt lat="39.13280272485557" lon="16.07729125502631"><ele>10.0</ele><time>2026-05-01T16:08:37Z</time></trkpt><trkpt lat="39.13287137837476" lon="16.07726417957707"><ele>10.0</ele><time>2026-05-01T16:08:38Z</time></trkpt><trkpt lat="39.132942367532" lon="16.077246926055768"><ele>10.0</ele><time>2026-05-01T16:08:39Z</time></trkpt><trkpt lat="39.13301414300446" lon="16.077226608596803"><ele>10.0</ele><time>2026-05-01T16:08:40Z</time></trkpt><trkpt lat="39.133090230265175" lon="16.077198748623406"><ele>10.0</ele><time>2026-05-01T16:08:41Z</time></trkpt><trkpt lat="39.13316423707866" lon="16.0771771159298"><ele>10.0</ele><time>2026-05-01T16:08:42Z</time></trkpt><trkpt lat="39.13323259733241" lon="16.077155269558233"><ele>10.0</ele><time>2026-05-01T16:08:43Z</time></trkpt><trkpt lat="39.1332959861652" lon="16.077129262154326"><ele>10.333333333333334</ele><time>2026-05-01T16:08:44Z</time></trkpt><trkpt lat="39.13341101312762" lon="16.077090279991396"><ele>10.666666666666668</ele><time>2026-05-01T16:08:46Z</time></trkpt><trkpt lat="39.13350401746056" lon="16.077062509706245"><ele>11.0</ele><time>2026-05-01T16:08:48Z</time></trkpt><trkpt lat="39.13358136348298" lon="16.07702608712228"><ele>11.333333333333334</ele><time>2026-05-01T16:08:50Z</time></trkpt><trkpt lat="39.13364001567688" lon="16.076987562585632"><ele>11.666666666666666</ele><time>2026-05-01T16:08:53Z</time></trkpt><trkpt lat="39.1336890219806" lon="16.076931379101875"><ele>12.0</ele><time>2026-05-01T16:08:57Z</time></trkpt><trkpt lat="39.133736075127665" lon="16.076855544704074"><ele>12.0</ele><time>2026-05-01T16:09:00Z</time></trkpt><trkpt lat="39.1338040834165" lon="16.076792677741235"><ele>12.0</ele><time>2026-05-01T16:09:03Z</time></trkpt><trkpt lat="39.133871629838126" lon="16.07672085387919"><ele>12.0</ele><time>2026-05-01T16:09:06Z</time></trkpt><trkpt lat="39.13392605057003" lon="16.07665898178132"><ele>12.0</ele><time>2026-05-01T16:09:11Z</time></trkpt><trkpt lat="39.133977140884355" lon="16.076596836228322"><ele>12.0</ele><time>2026-05-01T16:09:14Z</time></trkpt><trkpt lat="39.13404052069586" lon="16.07655702225084"><ele>12.0</ele><time>2026-05-01T16:09:17Z</time></trkpt><trkpt lat="39.13410438572081" lon="16.076521609966292"><ele>12.0</ele><time>2026-05-01T16:09:22Z</time></trkpt><trkpt lat="39.13417877912733" lon="16.076489213630747"><ele>12.0</ele><time>2026-05-01T16:09:27Z</time></trkpt><trkpt lat="39.134227090943014" lon="16.076573457112765"><ele>12.0</ele><time>2026-05-01T16:09:30Z</time></trkpt><trkpt lat="39.134245201653954" lon="16.076661349126812"><ele>12.0</ele><time>2026-05-01T16:09:34Z</time></trkpt><trkpt lat="39.13425532275071" lon="16.076768520705972"><ele>12.0</ele><time>2026-05-01T16:09:37Z</time></trkpt><trkpt lat="39.13426956421652" lon="16.076861405448497"><ele>12.0</ele><time>2026-05-01T16:09:40Z</time></trkpt><trkpt lat="39.13434399580759" lon="16.0769086347566"><ele>12.0</ele><time>2026-05-01T16:09:42Z</time></trkpt><trkpt lat="39.134422191945035" lon="16.076916173786483"><ele>12.0</ele><time>2026-05-01T16:09:43.999Z</time></trkpt><trkpt lat="39.13448448823877" lon="16.076901163180796"><ele>12.0</ele><time>2026-05-01T16:09:45.999Z</time></trkpt><trkpt lat="39.13453010623546" lon="16.076793098200323"><ele>12.0</ele><time>2026-05-01T16:09:47.999Z</time></trkpt><trkpt lat="39.134600996884515" lon="16.076765270237225"><ele>12.0</ele><time>2026-05-01T16:09:50.999Z</time></trkpt><trkpt lat="39.134648320262514" lon="16.076873762200947"><ele>12.0</ele><time>2026-05-01T16:09:53.999Z</time></trkpt><trkpt lat="39.134714268937785" lon="16.076934637066145"><ele>12.0</ele><time>2026-05-01T16:09:56.999Z</time></trkpt></trkseg></trk></gpx>